<?xml version="1.0" encoding="UTF-8"?>
<TrainingCenterDatabase xmlns="http://www.garmin.com/xmlschemas/TrainingCenterDatabase/v2" xmlns:xsi="http://www.w3.org/2001/XMLSchema-instance" xsi:schemaLocation="http://www.garmin.com/xmlschemas/TrainingCenterDatabase/v2 http://www.garmin.com/xmlschemas/TrainingCenterDatabasev2.xsd">
  <Activities>
    <Activity Sport="Other">
      <Id>2019-07-14T08:50:41.000Z</Id>
      <Lap StartTime="2019-07-14T08:50:41.000Z">
        <TotalTimeSeconds>37351</TotalTimeSeconds>
        <DistanceMeters>26630</DistanceMeters>
        <Track>
          <Trackpoint>
            <Time>2019-07-14T08:50:41.000Z</Time>
            <Position>
              <LatitudeDegrees>37.06241891719400882720947265625</LatitudeDegrees>
              <LongitudeDegrees>-3.37022286839783191680908203125</LongitudeDegrees>
            </Position>
            <AltitudeMeters>3149.60009765625</AltitudeMeters>
            <DistanceMeters>0</DistanceMeters>
          </Trackpoint>
          <Trackpoint>
            <Time>2019-07-14T08:50:42.000Z</Time>
            <Position>
              <LatitudeDegrees>37.06242176704108715057373046875</LatitudeDegrees>
              <LongitudeDegrees>-3.3702514506876468658447265625</LongitudeDegrees>
            </Position>
            <AltitudeMeters>3004</AltitudeMeters>
            <DistanceMeters>2.5586725898143</DistanceMeters>
          </Trackpoint>
          <Trackpoint>
            <Time>2019-07-14T08:50:43.000Z</Time>
            <Position>
              <LatitudeDegrees>37.06240634433925151824951171875</LatitudeDegrees>
              <LongitudeDegrees>-3.37023074738681316375732421875</LongitudeDegrees>
            </Position>
            <AltitudeMeters>3004</AltitudeMeters>
            <DistanceMeters>5.0728431311197</DistanceMeters>
          </Trackpoint>
          <Trackpoint>
            <Time>2019-07-14T08:50:44.000Z</Time>
            <Position>
              <LatitudeDegrees>37.0623953640460968017578125</LatitudeDegrees>
              <LongitudeDegrees>-3.37020023725926876068115234375</LongitudeDegrees>
            </Position>
            <AltitudeMeters>3004</AltitudeMeters>
            <DistanceMeters>8.0446127658975</DistanceMeters>
          </Trackpoint>
          <Trackpoint>
            <Time>2019-07-14T08:50:46.000Z</Time>
            <Position>
              <LatitudeDegrees>37.06236041150987148284912109375</LatitudeDegrees>
              <LongitudeDegrees>-3.3701991476118564605712890625</LongitudeDegrees>
            </Position>
            <AltitudeMeters>3152</AltitudeMeters>
            <DistanceMeters>11.937229915446</DistanceMeters>
          </Trackpoint>
          <Trackpoint>
            <Time>2019-07-14T08:50:47.000Z</Time>
            <Position>
              <LatitudeDegrees>37.0623408816754817962646484375</LatitudeDegrees>
              <LongitudeDegrees>-3.37018288671970367431640625</LongitudeDegrees>
            </Position>
            <AltitudeMeters>3151.60009765625</AltitudeMeters>
            <DistanceMeters>14.546574208317</DistanceMeters>
          </Trackpoint>
          <Trackpoint>
            <Time>2019-07-14T08:50:48.000Z</Time>
            <Position>
              <LatitudeDegrees>37.06235940568149089813232421875</LatitudeDegrees>
              <LongitudeDegrees>-3.37022152729332447052001953125</LongitudeDegrees>
            </Position>
            <AltitudeMeters>3151.39990234375</AltitudeMeters>
            <DistanceMeters>18.548992928488</DistanceMeters>
          </Trackpoint>
          <Trackpoint>
            <Time>2019-07-14T08:50:49.000Z</Time>
            <Position>
              <LatitudeDegrees>37.062360160052776336669921875</LatitudeDegrees>
              <LongitudeDegrees>-3.3702600002288818359375</LongitudeDegrees>
            </Position>
            <AltitudeMeters>3151.199951171875</AltitudeMeters>
            <DistanceMeters>21.965992905373</DistanceMeters>
          </Trackpoint>
          <Trackpoint>
            <Time>2019-07-14T08:50:51.000Z</Time>
            <Position>
              <LatitudeDegrees>37.06230542622506618499755859375</LatitudeDegrees>
              <LongitudeDegrees>-3.3702025003731250762939453125</LongitudeDegrees>
            </Position>
            <AltitudeMeters>3151.199951171875</AltitudeMeters>
            <DistanceMeters>29.915362374382</DistanceMeters>
          </Trackpoint>
          <Trackpoint>
            <Time>2019-07-14T08:50:52.000Z</Time>
            <Position>
              <LatitudeDegrees>37.06229603849351406097412109375</LatitudeDegrees>
              <LongitudeDegrees>-3.37022353895008563995361328125</LongitudeDegrees>
            </Position>
            <AltitudeMeters>3151.199951171875</AltitudeMeters>
            <DistanceMeters>32.057155742923</DistanceMeters>
          </Trackpoint>
          <Trackpoint>
            <Time>2019-07-14T08:50:53.000Z</Time>
            <Position>
              <LatitudeDegrees>37.06230509094893932342529296875</LatitudeDegrees>
              <LongitudeDegrees>-3.37022043764591217041015625</LongitudeDegrees>
            </Position>
            <AltitudeMeters>3151.199951171875</AltitudeMeters>
            <DistanceMeters>33.098121243444</DistanceMeters>
          </Trackpoint>
          <Trackpoint>
            <Time>2019-07-14T08:50:54.000Z</Time>
            <Position>
              <LatitudeDegrees>37.06229553557932376861572265625</LatitudeDegrees>
              <LongitudeDegrees>-3.370216749608516693115234375</LongitudeDegrees>
            </Position>
            <AltitudeMeters>3151.199951171875</AltitudeMeters>
            <DistanceMeters>34.210380418646</DistanceMeters>
          </Trackpoint>
          <Trackpoint>
            <Time>2019-07-14T08:50:55.000Z</Time>
            <Position>
              <LatitudeDegrees>37.06228480674326419830322265625</LatitudeDegrees>
              <LongitudeDegrees>-3.37022873573005199432373046875</LongitudeDegrees>
            </Position>
            <AltitudeMeters>3151.199951171875</AltitudeMeters>
            <DistanceMeters>35.811799074115</DistanceMeters>
          </Trackpoint>
          <Trackpoint>
            <Time>2019-07-14T08:51:02.000Z</Time>
            <Position>
              <LatitudeDegrees>37.062234096229076385498046875</LatitudeDegrees>
              <LongitudeDegrees>-3.370289839804172515869140625</LongitudeDegrees>
            </Position>
            <AltitudeMeters>3151.800048828125</AltitudeMeters>
            <DistanceMeters>43.642138725398</DistanceMeters>
          </Trackpoint>
          <Trackpoint>
            <Time>2019-07-14T08:51:03.000Z</Time>
            <Position>
              <LatitudeDegrees>37.0622238703072071075439453125</LatitudeDegrees>
              <LongitudeDegrees>-3.37029478512704372406005859375</LongitudeDegrees>
            </Position>
            <AltitudeMeters>3152</AltitudeMeters>
            <DistanceMeters>44.866472295017</DistanceMeters>
          </Trackpoint>
          <Trackpoint>
            <Time>2019-07-14T08:51:04.000Z</Time>
            <Position>
              <LatitudeDegrees>37.0622104592621326446533203125</LatitudeDegrees>
              <LongitudeDegrees>-3.37029495276510715484619140625</LongitudeDegrees>
            </Position>
            <AltitudeMeters>3152.199951171875</AltitudeMeters>
            <DistanceMeters>46.35993434062</DistanceMeters>
          </Trackpoint>
          <Trackpoint>
            <Time>2019-07-14T08:51:05.000Z</Time>
            <Position>
              <LatitudeDegrees>37.062202580273151397705078125</LatitudeDegrees>
              <LongitudeDegrees>-3.37030165828764438629150390625</LongitudeDegrees>
            </Position>
            <AltitudeMeters>3152.199951171875</AltitudeMeters>
            <DistanceMeters>47.418107048192</DistanceMeters>
          </Trackpoint>
          <Trackpoint>
            <Time>2019-07-14T08:51:06.000Z</Time>
            <Position>
              <LatitudeDegrees>37.0621953718364238739013671875</LatitudeDegrees>
              <LongitudeDegrees>-3.370306603610515594482421875</LongitudeDegrees>
            </Position>
            <AltitudeMeters>3152.199951171875</AltitudeMeters>
            <DistanceMeters>48.339425226528</DistanceMeters>
          </Trackpoint>
          <Trackpoint>
            <Time>2019-07-14T08:51:07.000Z</Time>
            <Position>
              <LatitudeDegrees>37.062187828123569488525390625</LatitudeDegrees>
              <LongitudeDegrees>-3.37031305767595767974853515625</LongitudeDegrees>
            </Position>
            <AltitudeMeters>3152.199951171875</AltitudeMeters>
            <DistanceMeters>49.35403289189</DistanceMeters>
          </Trackpoint>
          <Trackpoint>
            <Time>2019-07-14T08:51:08.000Z</Time>
            <Position>
              <LatitudeDegrees>37.062179110944271087646484375</LatitudeDegrees>
              <LongitudeDegrees>-3.37031909264624118804931640625</LongitudeDegrees>
            </Position>
            <AltitudeMeters>3152.39990234375</AltitudeMeters>
            <DistanceMeters>50.462225292323</DistanceMeters>
          </Trackpoint>
          <Trackpoint>
            <Time>2019-07-14T08:51:28.000Z</Time>
            <Position>
              <LatitudeDegrees>37.061987332999706268310546875</LatitudeDegrees>
              <LongitudeDegrees>-3.370396457612514495849609375</LongitudeDegrees>
            </Position>
            <AltitudeMeters>3154</AltitudeMeters>
            <DistanceMeters>72.886315168662</DistanceMeters>
          </Trackpoint>
          <Trackpoint>
            <Time>2019-07-14T08:51:48.000Z</Time>
            <Position>
              <LatitudeDegrees>37.06181290559470653533935546875</LatitudeDegrees>
              <LongitudeDegrees>-3.37047935463488101959228515625</LongitudeDegrees>
            </Position>
            <AltitudeMeters>3155.60009765625</AltitudeMeters>
            <DistanceMeters>93.649597895332</DistanceMeters>
          </Trackpoint>
          <Trackpoint>
            <Time>2019-07-14T08:52:07.000Z</Time>
            <Position>
              <LatitudeDegrees>37.061646692454814910888671875</LatitudeDegrees>
              <LongitudeDegrees>-3.37059603072702884674072265625</LongitudeDegrees>
            </Position>
            <AltitudeMeters>3155.800048828125</AltitudeMeters>
            <DistanceMeters>114.8539740073</DistanceMeters>
          </Trackpoint>
          <Trackpoint>
            <Time>2019-07-14T08:52:27.000Z</Time>
            <Position>
              <LatitudeDegrees>37.06146924756467342376708984375</LatitudeDegrees>
              <LongitudeDegrees>-3.3707050792872905731201171875</LongitudeDegrees>
            </Position>
            <AltitudeMeters>3157.60009765625</AltitudeMeters>
            <DistanceMeters>136.8509650782</DistanceMeters>
          </Trackpoint>
          <Trackpoint>
            <Time>2019-07-14T08:52:47.000Z</Time>
            <Position>
              <LatitudeDegrees>37.061296999454498291015625</LatitudeDegrees>
              <LongitudeDegrees>-3.37083600461483001708984375</LongitudeDegrees>
            </Position>
            <AltitudeMeters>3159</AltitudeMeters>
            <DistanceMeters>159.27344411533</DistanceMeters>
          </Trackpoint>
          <Trackpoint>
            <Time>2019-07-14T08:53:07.000Z</Time>
            <Position>
              <LatitudeDegrees>37.0611184649169445037841796875</LatitudeDegrees>
              <LongitudeDegrees>-3.37094455026090145111083984375</LongitudeDegrees>
            </Position>
            <AltitudeMeters>3160.39990234375</AltitudeMeters>
            <DistanceMeters>181.35995039359</DistanceMeters>
          </Trackpoint>
          <Trackpoint>
            <Time>2019-07-14T08:53:26.000Z</Time>
            <Position>
              <LatitudeDegrees>37.06094554625451564788818359375</LatitudeDegrees>
              <LongitudeDegrees>-3.3710279501974582672119140625</LongitudeDegrees>
            </Position>
            <AltitudeMeters>3162.60009765625</AltitudeMeters>
            <DistanceMeters>201.98228004387</DistanceMeters>
          </Trackpoint>
          <Trackpoint>
            <Time>2019-07-14T08:53:32.000Z</Time>
            <Position>
              <LatitudeDegrees>37.06089843995869159698486328125</LatitudeDegrees>
              <LongitudeDegrees>-3.371067345142364501953125</LongitudeDegrees>
            </Position>
            <AltitudeMeters>3162.800048828125</AltitudeMeters>
            <DistanceMeters>208.28563917638</DistanceMeters>
          </Trackpoint>
          <Trackpoint>
            <Time>2019-07-14T08:53:33.000Z</Time>
            <Position>
              <LatitudeDegrees>37.06088921986520290374755859375</LatitudeDegrees>
              <LongitudeDegrees>-3.3710732124745845794677734375</LongitudeDegrees>
            </Position>
            <AltitudeMeters>3163</AltitudeMeters>
            <DistanceMeters>209.43385133483</DistanceMeters>
          </Trackpoint>
          <Trackpoint>
            <Time>2019-07-14T08:53:53.000Z</Time>
            <Position>
              <LatitudeDegrees>37.06073708832263946533203125</LatitudeDegrees>
              <LongitudeDegrees>-3.3712629787623882293701171875</LongitudeDegrees>
            </Position>
            <AltitudeMeters>3164.60009765625</AltitudeMeters>
            <DistanceMeters>233.32527578168</DistanceMeters>
          </Trackpoint>
          <Trackpoint>
            <Time>2019-07-14T08:54:14.000Z</Time>
            <Position>
              <LatitudeDegrees>37.0605687797069549560546875</LatitudeDegrees>
              <LongitudeDegrees>-3.37141360156238079071044921875</LongitudeDegrees>
            </Position>
            <AltitudeMeters>3165.800048828125</AltitudeMeters>
            <DistanceMeters>256.34489667093</DistanceMeters>
          </Trackpoint>
          <Trackpoint>
            <Time>2019-07-14T08:54:34.000Z</Time>
            <Position>
              <LatitudeDegrees>37.06041798926889896392822265625</LatitudeDegrees>
              <LongitudeDegrees>-3.37156346999108791351318359375</LongitudeDegrees>
            </Position>
            <AltitudeMeters>3167.39990234375</AltitudeMeters>
            <DistanceMeters>277.76578144312</DistanceMeters>
          </Trackpoint>
          <Trackpoint>
            <Time>2019-07-14T08:54:54.000Z</Time>
            <Position>
              <LatitudeDegrees>37.06022612750530242919921875</LatitudeDegrees>
              <LongitudeDegrees>-3.371650390326976776123046875</LongitudeDegrees>
            </Position>
            <AltitudeMeters>3169.60009765625</AltitudeMeters>
            <DistanceMeters>300.47299097997</DistanceMeters>
          </Trackpoint>
          <Trackpoint>
            <Time>2019-07-14T08:55:05.000Z</Time>
            <Position>
              <LatitudeDegrees>37.06012613140046596527099609375</LatitudeDegrees>
              <LongitudeDegrees>-3.37168836034834384918212890625</LongitudeDegrees>
            </Position>
            <AltitudeMeters>3170.39990234375</AltitudeMeters>
            <DistanceMeters>312.10280116662</DistanceMeters>
          </Trackpoint>
          <Trackpoint>
            <Time>2019-07-14T08:55:06.000Z</Time>
            <Position>
              <LatitudeDegrees>37.06011691130697727203369140625</LatitudeDegrees>
              <LongitudeDegrees>-3.371692635118961334228515625</LongitudeDegrees>
            </Position>
            <AltitudeMeters>3170.39990234375</AltitudeMeters>
            <DistanceMeters>313.1945749942</DistanceMeters>
          </Trackpoint>
          <Trackpoint>
            <Time>2019-07-14T08:55:07.000Z</Time>
            <Position>
              <LatitudeDegrees>37.060109116137027740478515625</LatitudeDegrees>
              <LongitudeDegrees>-3.3716971613466739654541015625</LongitudeDegrees>
            </Position>
            <AltitudeMeters>3170.60009765625</AltitudeMeters>
            <DistanceMeters>314.1448421379</DistanceMeters>
          </Trackpoint>
          <Trackpoint>
            <Time>2019-07-14T08:55:08.000Z</Time>
            <Position>
              <LatitudeDegrees>37.06010098569095134735107421875</LatitudeDegrees>
              <LongitudeDegrees>-3.371698670089244842529296875</LongitudeDegrees>
            </Position>
            <AltitudeMeters>3170.60009765625</AltitudeMeters>
            <DistanceMeters>315.05630636257</DistanceMeters>
          </Trackpoint>
          <Trackpoint>
            <Time>2019-07-14T08:55:09.000Z</Time>
            <Position>
              <LatitudeDegrees>37.0600925199687480926513671875</LatitudeDegrees>
              <LongitudeDegrees>-3.37170260958373546600341796875</LongitudeDegrees>
            </Position>
            <AltitudeMeters>3170.800048828125</AltitudeMeters>
            <DistanceMeters>316.05747492244</DistanceMeters>
          </Trackpoint>
          <Trackpoint>
            <Time>2019-07-14T08:55:10.000Z</Time>
            <Position>
              <LatitudeDegrees>37.06008187495172023773193359375</LatitudeDegrees>
              <LongitudeDegrees>-3.3717028610408306121826171875</LongitudeDegrees>
            </Position>
            <AltitudeMeters>3170.800048828125</AltitudeMeters>
            <DistanceMeters>317.23672543542</DistanceMeters>
          </Trackpoint>
          <Trackpoint>
            <Time>2019-07-14T08:55:11.000Z</Time>
            <Position>
              <LatitudeDegrees>37.060070224106311798095703125</LatitudeDegrees>
              <LongitudeDegrees>-3.371704705059528350830078125</LongitudeDegrees>
            </Position>
            <AltitudeMeters>3170.800048828125</AltitudeMeters>
            <DistanceMeters>318.54657829905</DistanceMeters>
          </Trackpoint>
          <Trackpoint>
            <Time>2019-07-14T08:55:33.000Z</Time>
            <Position>
              <LatitudeDegrees>37.05987115390598773956298828125</LatitudeDegrees>
              <LongitudeDegrees>-3.37174720130860805511474609375</LongitudeDegrees>
            </Position>
            <AltitudeMeters>3172.199951171875</AltitudeMeters>
            <DistanceMeters>341.0227567238</DistanceMeters>
          </Trackpoint>
          <Trackpoint>
            <Time>2019-07-14T08:55:34.000Z</Time>
            <Position>
              <LatitudeDegrees>37.059860341250896453857421875</LatitudeDegrees>
              <LongitudeDegrees>-3.3717461116611957550048828125</LongitudeDegrees>
            </Position>
            <AltitudeMeters>3172</AltitudeMeters>
            <DistanceMeters>342.23224933805</DistanceMeters>
          </Trackpoint>
          <Trackpoint>
            <Time>2019-07-14T08:55:47.000Z</Time>
            <Position>
              <LatitudeDegrees>37.05973905511200428009033203125</LatitudeDegrees>
              <LongitudeDegrees>-3.3717839978635311126708984375</LongitudeDegrees>
            </Position>
            <AltitudeMeters>3172.60009765625</AltitudeMeters>
            <DistanceMeters>356.14514690299</DistanceMeters>
          </Trackpoint>
          <Trackpoint>
            <Time>2019-07-14T08:55:48.000Z</Time>
            <Position>
              <LatitudeDegrees>37.05972882919013500213623046875</LatitudeDegrees>
              <LongitudeDegrees>-3.37178877554833889007568359375</LongitudeDegrees>
            </Position>
            <AltitudeMeters>3172.60009765625</AltitudeMeters>
            <DistanceMeters>357.36208261897</DistanceMeters>
          </Trackpoint>
          <Trackpoint>
            <Time>2019-07-14T08:55:49.000Z</Time>
            <Position>
              <LatitudeDegrees>37.0597160048782825469970703125</LatitudeDegrees>
              <LongitudeDegrees>-3.37179078720510005950927734375</LongitudeDegrees>
            </Position>
            <AltitudeMeters>3172.800048828125</AltitudeMeters>
            <DistanceMeters>358.80323409682</DistanceMeters>
          </Trackpoint>
          <Trackpoint>
            <Time>2019-07-14T08:55:50.000Z</Time>
            <Position>
              <LatitudeDegrees>37.05970401875674724578857421875</LatitudeDegrees>
              <LongitudeDegrees>-3.3717910386621952056884765625</LongitudeDegrees>
            </Position>
            <AltitudeMeters>3173</AltitudeMeters>
            <DistanceMeters>360.13699759139</DistanceMeters>
          </Trackpoint>
          <Trackpoint>
            <Time>2019-07-14T08:55:51.000Z</Time>
            <Position>
              <LatitudeDegrees>37.05969463102519512176513671875</LatitudeDegrees>
              <LongitudeDegrees>-3.3717928826808929443359375</LongitudeDegrees>
            </Position>
            <AltitudeMeters>3173.199951171875</AltitudeMeters>
            <DistanceMeters>361.19517029896</DistanceMeters>
          </Trackpoint>
          <Trackpoint>
            <Time>2019-07-14T08:55:52.000Z</Time>
            <Position>
              <LatitudeDegrees>37.05968566238880157470703125</LatitudeDegrees>
              <LongitudeDegrees>-3.37179497815668582916259765625</LongitudeDegrees>
            </Position>
            <AltitudeMeters>3173.199951171875</AltitudeMeters>
            <DistanceMeters>362.20977796432</DistanceMeters>
          </Trackpoint>
          <Trackpoint>
            <Time>2019-07-14T08:56:02.000Z</Time>
            <Position>
              <LatitudeDegrees>37.0595926232635974884033203125</LatitudeDegrees>
              <LongitudeDegrees>-3.37183387018740177154541015625</LongitudeDegrees>
            </Position>
            <AltitudeMeters>3173.60009765625</AltitudeMeters>
            <DistanceMeters>373.12586191208</DistanceMeters>
          </Trackpoint>
          <Trackpoint>
            <Time>2019-07-14T08:56:03.000Z</Time>
            <Position>
              <LatitudeDegrees>37.05958348698914051055908203125</LatitudeDegrees>
              <LongitudeDegrees>-3.37183722294867038726806640625</LongitudeDegrees>
            </Position>
            <AltitudeMeters>3173.800048828125</AltitudeMeters>
            <DistanceMeters>374.18403461965</DistanceMeters>
          </Trackpoint>
          <Trackpoint>
            <Time>2019-07-14T08:56:22.000Z</Time>
            <Position>
              <LatitudeDegrees>37.05939740873873233795166015625</LatitudeDegrees>
              <LongitudeDegrees>-3.37191165424883365631103515625</LongitudeDegrees>
            </Position>
            <AltitudeMeters>3175.800048828125</AltitudeMeters>
            <DistanceMeters>395.92460179785</DistanceMeters>
          </Trackpoint>
          <Trackpoint>
            <Time>2019-07-14T08:56:39.000Z</Time>
            <Position>
              <LatitudeDegrees>37.05924117006361484527587890625</LatitudeDegrees>
              <LongitudeDegrees>-3.371980972588062286376953125</LongitudeDegrees>
            </Position>
            <AltitudeMeters>3177</AltitudeMeters>
            <DistanceMeters>414.3720260318</DistanceMeters>
          </Trackpoint>
          <Trackpoint>
            <Time>2019-07-14T08:56:40.000Z</Time>
            <Position>
              <LatitudeDegrees>37.0592295192182064056396484375</LatitudeDegrees>
              <LongitudeDegrees>-3.37197921238839626312255859375</LongitudeDegrees>
            </Position>
            <AltitudeMeters>3177</AltitudeMeters>
            <DistanceMeters>415.67842736673</DistanceMeters>
          </Trackpoint>
          <Trackpoint>
            <Time>2019-07-14T08:56:41.000Z</Time>
            <Position>
              <LatitudeDegrees>37.0592184551060199737548828125</LatitudeDegrees>
              <LongitudeDegrees>-3.37198390625417232513427734375</LongitudeDegrees>
            </Position>
            <AltitudeMeters>3177.199951171875</AltitudeMeters>
            <DistanceMeters>416.97441896337</DistanceMeters>
          </Trackpoint>
          <Trackpoint>
            <Time>2019-07-14T08:56:54.000Z</Time>
            <Position>
              <LatitudeDegrees>37.05909959971904754638671875</LatitudeDegrees>
              <LongitudeDegrees>-3.37204526178538799285888671875</LongitudeDegrees>
            </Position>
            <AltitudeMeters>3177.800048828125</AltitudeMeters>
            <DistanceMeters>431.28154211346</DistanceMeters>
          </Trackpoint>
          <Trackpoint>
            <Time>2019-07-14T08:56:55.000Z</Time>
            <Position>
              <LatitudeDegrees>37.05909146927297115325927734375</LatitudeDegrees>
              <LongitudeDegrees>-3.3720492012798786163330078125</LongitudeDegrees>
            </Position>
            <AltitudeMeters>3177.800048828125</AltitudeMeters>
            <DistanceMeters>432.25062825523</DistanceMeters>
          </Trackpoint>
          <Trackpoint>
            <Time>2019-07-14T08:56:56.000Z</Time>
            <Position>
              <LatitudeDegrees>37.05908409319818019866943359375</LatitudeDegrees>
              <LongitudeDegrees>-3.3720579184591770172119140625</LongitudeDegrees>
            </Position>
            <AltitudeMeters>3177.800048828125</AltitudeMeters>
            <DistanceMeters>433.38300224603</DistanceMeters>
          </Trackpoint>
          <Trackpoint>
            <Time>2019-07-14T08:56:57.000Z</Time>
            <Position>
              <LatitudeDegrees>37.05907403491437435150146484375</LatitudeDegrees>
              <LongitudeDegrees>-3.37206554599106311798095703125</LongitudeDegrees>
            </Position>
            <AltitudeMeters>3178</AltitudeMeters>
            <DistanceMeters>434.69285510965</DistanceMeters>
          </Trackpoint>
          <Trackpoint>
            <Time>2019-07-14T08:56:58.000Z</Time>
            <Position>
              <LatitudeDegrees>37.05906330607831478118896484375</LatitudeDegrees>
              <LongitudeDegrees>-3.3720723353326320648193359375</LongitudeDegrees>
            </Position>
            <AltitudeMeters>3178.199951171875</AltitudeMeters>
            <DistanceMeters>436.02999950571</DistanceMeters>
          </Trackpoint>
          <Trackpoint>
            <Time>2019-07-14T08:56:59.000Z</Time>
            <Position>
              <LatitudeDegrees>37.05905274488031864166259765625</LatitudeDegrees>
              <LongitudeDegrees>-3.37207384407520294189453125</LongitudeDegrees>
            </Position>
            <AltitudeMeters>3178.39990234375</AltitudeMeters>
            <DistanceMeters>437.21307255874</DistanceMeters>
          </Trackpoint>
          <Trackpoint>
            <Time>2019-07-14T08:57:02.000Z</Time>
            <Position>
              <LatitudeDegrees>37.059027850627899169921875</LatitudeDegrees>
              <LongitudeDegrees>-3.3720839023590087890625</LongitudeDegrees>
            </Position>
            <AltitudeMeters>3178.199951171875</AltitudeMeters>
            <DistanceMeters>440.126536452</DistanceMeters>
          </Trackpoint>
          <Trackpoint>
            <Time>2019-07-14T08:57:03.000Z</Time>
            <Position>
              <LatitudeDegrees>37.05901988781988620758056640625</LatitudeDegrees>
              <LongitudeDegrees>-3.3720887638628482818603515625</LongitudeDegrees>
            </Position>
            <AltitudeMeters>3178</AltitudeMeters>
            <DistanceMeters>441.11408303619</DistanceMeters>
          </Trackpoint>
          <Trackpoint>
            <Time>2019-07-14T08:57:04.000Z</Time>
            <Position>
              <LatitudeDegrees>37.0590112544596195220947265625</LatitudeDegrees>
              <LongitudeDegrees>-3.3720932900905609130859375</LongitudeDegrees>
            </Position>
            <AltitudeMeters>3178.199951171875</AltitudeMeters>
            <DistanceMeters>442.15504853671</DistanceMeters>
          </Trackpoint>
          <Trackpoint>
            <Time>2019-07-14T08:57:11.000Z</Time>
            <Position>
              <LatitudeDegrees>37.05894671380519866943359375</LatitudeDegrees>
              <LongitudeDegrees>-3.3721232973039150238037109375</LongitudeDegrees>
            </Position>
            <AltitudeMeters>3179.199951171875</AltitudeMeters>
            <DistanceMeters>449.81634717896</DistanceMeters>
          </Trackpoint>
          <Trackpoint>
            <Time>2019-07-14T08:57:12.000Z</Time>
            <Position>
              <LatitudeDegrees>37.05893791280686855316162109375</LatitudeDegrees>
              <LongitudeDegrees>-3.3721243031322956085205078125</LongitudeDegrees>
            </Position>
            <AltitudeMeters>3179.39990234375</AltitudeMeters>
            <DistanceMeters>450.79931115567</DistanceMeters>
          </Trackpoint>
          <Trackpoint>
            <Time>2019-07-14T08:57:13.000Z</Time>
            <Position>
              <LatitudeDegrees>37.058927603065967559814453125</LatitudeDegrees>
              <LongitudeDegrees>-3.372129499912261962890625</LongitudeDegrees>
            </Position>
            <AltitudeMeters>3179.39990234375</AltitudeMeters>
            <DistanceMeters>452.03465844248</DistanceMeters>
          </Trackpoint>
          <Trackpoint>
            <Time>2019-07-14T08:57:14.000Z</Time>
            <Position>
              <LatitudeDegrees>37.05891863442957401275634765625</LatitudeDegrees>
              <LongitudeDegrees>-3.37213427759706974029541015625</LongitudeDegrees>
            </Position>
            <AltitudeMeters>3179.199951171875</AltitudeMeters>
            <DistanceMeters>453.12228890093</DistanceMeters>
          </Trackpoint>
          <Trackpoint>
            <Time>2019-07-14T08:57:15.000Z</Time>
            <Position>
              <LatitudeDegrees>37.0589096657931804656982421875</LatitudeDegrees>
              <LongitudeDegrees>-3.37213947437703609466552734375</LongitudeDegrees>
            </Position>
            <AltitudeMeters>3179.199951171875</AltitudeMeters>
            <DistanceMeters>454.22230264789</DistanceMeters>
          </Trackpoint>
          <Trackpoint>
            <Time>2019-07-14T08:57:16.000Z</Time>
            <Position>
              <LatitudeDegrees>37.05889935605227947235107421875</LatitudeDegrees>
              <LongitudeDegrees>-3.37214291095733642578125</LongitudeDegrees>
            </Position>
            <AltitudeMeters>3179</AltitudeMeters>
            <DistanceMeters>455.40918592996</DistanceMeters>
          </Trackpoint>
          <Trackpoint>
            <Time>2019-07-14T08:57:17.000Z</Time>
            <Position>
              <LatitudeDegrees>37.058888711035251617431640625</LatitudeDegrees>
              <LongitudeDegrees>-3.3721424080431461334228515625</LongitudeDegrees>
            </Position>
            <AltitudeMeters>3179.199951171875</AltitudeMeters>
            <DistanceMeters>456.59225898299</DistanceMeters>
          </Trackpoint>
          <Trackpoint>
            <Time>2019-07-14T08:57:18.000Z</Time>
            <Position>
              <LatitudeDegrees>37.0588791556656360626220703125</LatitudeDegrees>
              <LongitudeDegrees>-3.37214333005249500274658203125</LongitudeDegrees>
            </Position>
            <AltitudeMeters>3179.60009765625</AltitudeMeters>
            <DistanceMeters>457.65893120628</DistanceMeters>
          </Trackpoint>
          <Trackpoint>
            <Time>2019-07-14T08:57:19.000Z</Time>
            <Position>
              <LatitudeDegrees>37.05886867828667163848876953125</LatitudeDegrees>
              <LongitudeDegrees>-3.37214584462344646453857421875</LongitudeDegrees>
            </Position>
            <AltitudeMeters>3179.800048828125</AltitudeMeters>
            <DistanceMeters>458.84581448835</DistanceMeters>
          </Trackpoint>
          <Trackpoint>
            <Time>2019-07-14T08:57:20.000Z</Time>
            <Position>
              <LatitudeDegrees>37.0588600449264049530029296875</LatitudeDegrees>
              <LongitudeDegrees>-3.372150622308254241943359375</LongitudeDegrees>
            </Position>
            <AltitudeMeters>3180</AltitudeMeters>
            <DistanceMeters>459.89541885484</DistanceMeters>
          </Trackpoint>
          <Trackpoint>
            <Time>2019-07-14T08:57:21.000Z</Time>
            <Position>
              <LatitudeDegrees>37.05885107629001140594482421875</LatitudeDegrees>
              <LongitudeDegrees>-3.37215565145015716552734375</LongitudeDegrees>
            </Position>
            <AltitudeMeters>3179.800048828125</AltitudeMeters>
            <DistanceMeters>460.98719268243</DistanceMeters>
          </Trackpoint>
          <Trackpoint>
            <Time>2019-07-14T08:57:29.000Z</Time>
            <Position>
              <LatitudeDegrees>37.05877262167632579803466796875</LatitudeDegrees>
              <LongitudeDegrees>-3.3721839822828769683837890625</LongitudeDegrees>
            </Position>
            <AltitudeMeters>3180.39990234375</AltitudeMeters>
            <DistanceMeters>470.07454923315</DistanceMeters>
          </Trackpoint>
          <Trackpoint>
            <Time>2019-07-14T08:57:30.000Z</Time>
            <Position>
              <LatitudeDegrees>37.0587624795734882354736328125</LatitudeDegrees>
              <LongitudeDegrees>-3.3721863292157649993896484375</LongitudeDegrees>
            </Position>
            <AltitudeMeters>3180.39990234375</AltitudeMeters>
            <DistanceMeters>471.2227613916</DistanceMeters>
          </Trackpoint>
          <Trackpoint>
            <Time>2019-07-14T08:57:31.000Z</Time>
            <Position>
              <LatitudeDegrees>37.05875183455646038055419921875</LatitudeDegrees>
              <LongitudeDegrees>-3.3721913583576679229736328125</LongitudeDegrees>
            </Position>
            <AltitudeMeters>3180.39990234375</AltitudeMeters>
            <DistanceMeters>472.49057589185</DistanceMeters>
          </Trackpoint>
          <Trackpoint>
            <Time>2019-07-14T08:57:32.000Z</Time>
            <Position>
              <LatitudeDegrees>37.05874286592006683349609375</LatitudeDegrees>
              <LongitudeDegrees>-3.37219513021409511566162109375</LongitudeDegrees>
            </Position>
            <AltitudeMeters>3180.60009765625</AltitudeMeters>
            <DistanceMeters>473.54874859942</DistanceMeters>
          </Trackpoint>
          <Trackpoint>
            <Time>2019-07-14T08:57:33.000Z</Time>
            <Position>
              <LatitudeDegrees>37.0587329752743244171142578125</LatitudeDegrees>
              <LongitudeDegrees>-3.37219588458538055419921875</LongitudeDegrees>
            </Position>
            <AltitudeMeters>3180.800048828125</AltitudeMeters>
            <DistanceMeters>474.65694099985</DistanceMeters>
          </Trackpoint>
          <Trackpoint>
            <Time>2019-07-14T08:57:34.000Z</Time>
            <Position>
              <LatitudeDegrees>37.0587219111621379852294921875</LatitudeDegrees>
              <LongitudeDegrees>-3.372194878756999969482421875</LongitudeDegrees>
            </Position>
            <AltitudeMeters>3181</AltitudeMeters>
            <DistanceMeters>475.88862799036</DistanceMeters>
          </Trackpoint>
          <Trackpoint>
            <Time>2019-07-14T08:57:52.000Z</Time>
            <Position>
              <LatitudeDegrees>37.058536671102046966552734375</LatitudeDegrees>
              <LongitudeDegrees>-3.37222614325582981109619140625</LongitudeDegrees>
            </Position>
            <AltitudeMeters>3181.800048828125</AltitudeMeters>
            <DistanceMeters>496.69231765845</DistanceMeters>
          </Trackpoint>
          <Trackpoint>
            <Time>2019-07-14T08:57:56.000Z</Time>
            <Position>
              <LatitudeDegrees>37.058504484593868255615234375</LatitudeDegrees>
              <LongitudeDegrees>-3.37223066948354244232177734375</LongitudeDegrees>
            </Position>
            <AltitudeMeters>3182.39990234375</AltitudeMeters>
            <DistanceMeters>500.29707562575</DistanceMeters>
          </Trackpoint>
          <Trackpoint>
            <Time>2019-07-14T08:57:57.000Z</Time>
            <Position>
              <LatitudeDegrees>37.05849383957684040069580078125</LatitudeDegrees>
              <LongitudeDegrees>-3.3722325973212718963623046875</LongitudeDegrees>
            </Position>
            <AltitudeMeters>3182.60009765625</AltitudeMeters>
            <DistanceMeters>501.49154290373</DistanceMeters>
          </Trackpoint>
          <Trackpoint>
            <Time>2019-07-14T08:57:58.000Z</Time>
            <Position>
              <LatitudeDegrees>37.0584858767688274383544921875</LatitudeDegrees>
              <LongitudeDegrees>-3.37223343551158905029296875</LongitudeDegrees>
            </Position>
            <AltitudeMeters>3182.60009765625</AltitudeMeters>
            <DistanceMeters>502.3829725011</DistanceMeters>
          </Trackpoint>
          <Trackpoint>
            <Time>2019-07-14T08:57:59.000Z</Time>
            <Position>
              <LatitudeDegrees>37.05847690813243389129638671875</LatitudeDegrees>
              <LongitudeDegrees>-3.372233100235462188720703125</LongitudeDegrees>
            </Position>
            <AltitudeMeters>3182.60009765625</AltitudeMeters>
            <DistanceMeters>503.37962108953</DistanceMeters>
          </Trackpoint>
          <Trackpoint>
            <Time>2019-07-14T08:58:00.000Z</Time>
            <Position>
              <LatitudeDegrees>37.05846701748669147491455078125</LatitudeDegrees>
              <LongitudeDegrees>-3.37223368696868419647216796875</LongitudeDegrees>
            </Position>
            <AltitudeMeters>3182.60009765625</AltitudeMeters>
            <DistanceMeters>504.47963483649</DistanceMeters>
          </Trackpoint>
          <Trackpoint>
            <Time>2019-07-14T08:58:05.000Z</Time>
            <Position>
              <LatitudeDegrees>37.05841521732509136199951171875</LatitudeDegrees>
              <LongitudeDegrees>-3.37223988957703113555908203125</LongitudeDegrees>
            </Position>
            <AltitudeMeters>3183.199951171875</AltitudeMeters>
            <DistanceMeters>510.27158908262</DistanceMeters>
          </Trackpoint>
          <Trackpoint>
            <Time>2019-07-14T08:58:06.000Z</Time>
            <Position>
              <LatitudeDegrees>37.058405242860317230224609375</LatitudeDegrees>
              <LongitudeDegrees>-3.37224123068153858184814453125</LongitudeDegrees>
            </Position>
            <AltitudeMeters>3183.199951171875</AltitudeMeters>
            <DistanceMeters>511.38384825782</DistanceMeters>
          </Trackpoint>
          <Trackpoint>
            <Time>2019-07-14T08:58:18.000Z</Time>
            <Position>
              <LatitudeDegrees>37.0582914166152477264404296875</LatitudeDegrees>
              <LongitudeDegrees>-3.37224324233829975128173828125</LongitudeDegrees>
            </Position>
            <AltitudeMeters>3183.60009765625</AltitudeMeters>
            <DistanceMeters>524.05451237211</DistanceMeters>
          </Trackpoint>
          <Trackpoint>
            <Time>2019-07-14T08:58:19.000Z</Time>
            <Position>
              <LatitudeDegrees>37.05828152596950531005859375</LatitudeDegrees>
              <LongitudeDegrees>-3.37224558927118778228759765625</LongitudeDegrees>
            </Position>
            <AltitudeMeters>3183.60009765625</AltitudeMeters>
            <DistanceMeters>525.17888361959</DistanceMeters>
          </Trackpoint>
          <Trackpoint>
            <Time>2019-07-14T08:58:41.000Z</Time>
            <Position>
              <LatitudeDegrees>37.05809653736650943756103515625</LatitudeDegrees>
              <LongitudeDegrees>-3.37224005721509456634521484375</LongitudeDegrees>
            </Position>
            <AltitudeMeters>3184.800048828125</AltitudeMeters>
            <DistanceMeters>545.77426613126</DistanceMeters>
          </Trackpoint>
          <Trackpoint>
            <Time>2019-07-14T08:58:57.000Z</Time>
            <Position>
              <LatitudeDegrees>37.0579460822045803070068359375</LatitudeDegrees>
              <LongitudeDegrees>-3.3722242154181003570556640625</LongitudeDegrees>
            </Position>
            <AltitudeMeters>3186</AltitudeMeters>
            <DistanceMeters>562.57922405172</DistanceMeters>
          </Trackpoint>
          <Trackpoint>
            <Time>2019-07-14T08:59:14.000Z</Time>
            <Position>
              <LatitudeDegrees>37.05778934061527252197265625</LatitudeDegrees>
              <LongitudeDegrees>-3.3722032606601715087890625</LongitudeDegrees>
            </Position>
            <AltitudeMeters>3187.199951171875</AltitudeMeters>
            <DistanceMeters>580.12368801462</DistanceMeters>
          </Trackpoint>
          <Trackpoint>
            <Time>2019-07-14T08:59:27.000Z</Time>
            <Position>
              <LatitudeDegrees>37.0576597563922405242919921875</LatitudeDegrees>
              <LongitudeDegrees>-3.37219462729990482330322265625</LongitudeDegrees>
            </Position>
            <AltitudeMeters>3188.199951171875</AltitudeMeters>
            <DistanceMeters>594.56649819323</DistanceMeters>
          </Trackpoint>
          <Trackpoint>
            <Time>2019-07-14T08:59:41.000Z</Time>
            <Position>
              <LatitudeDegrees>37.05752916634082794189453125</LatitudeDegrees>
              <LongitudeDegrees>-3.37217501364648342132568359375</LongitudeDegrees>
            </Position>
            <AltitudeMeters>3189</AltitudeMeters>
            <DistanceMeters>609.20554782659</DistanceMeters>
          </Trackpoint>
          <Trackpoint>
            <Time>2019-07-14T08:59:46.000Z</Time>
            <Position>
              <LatitudeDegrees>37.057483233511447906494140625</LatitudeDegrees>
              <LongitudeDegrees>-3.37216529063880443572998046875</LongitudeDegrees>
            </Position>
            <AltitudeMeters>3189.39990234375</AltitudeMeters>
            <DistanceMeters>614.3912558448</DistanceMeters>
          </Trackpoint>
          <Trackpoint>
            <Time>2019-07-14T08:59:47.000Z</Time>
            <Position>
              <LatitudeDegrees>37.05747409723699092864990234375</LatitudeDegrees>
              <LongitudeDegrees>-3.37216009385883808135986328125</LongitudeDegrees>
            </Position>
            <AltitudeMeters>3189.39990234375</AltitudeMeters>
            <DistanceMeters>615.51160428422</DistanceMeters>
          </Trackpoint>
          <Trackpoint>
            <Time>2019-07-14T09:00:00.000Z</Time>
            <Position>
              <LatitudeDegrees>37.05735624767839908599853515625</LatitudeDegrees>
              <LongitudeDegrees>-3.37212941609323024749755859375</LongitudeDegrees>
            </Position>
            <AltitudeMeters>3190.39990234375</AltitudeMeters>
            <DistanceMeters>628.90868603362</DistanceMeters>
          </Trackpoint>
          <Trackpoint>
            <Time>2019-07-14T09:00:13.000Z</Time>
            <Position>
              <LatitudeDegrees>37.05723839811980724334716796875</LatitudeDegrees>
              <LongitudeDegrees>-3.37210644967854022979736328125</LongitudeDegrees>
            </Position>
            <AltitudeMeters>3191.199951171875</AltitudeMeters>
            <DistanceMeters>642.18320718232</DistanceMeters>
          </Trackpoint>
          <Trackpoint>
            <Time>2019-07-14T09:00:14.000Z</Time>
            <Position>
              <LatitudeDegrees>37.057229094207286834716796875</LatitudeDegrees>
              <LongitudeDegrees>-3.37209924124181270599365234375</LongitudeDegrees>
            </Position>
            <AltitudeMeters>3191.199951171875</AltitudeMeters>
            <DistanceMeters>643.40014289829</DistanceMeters>
          </Trackpoint>
          <Trackpoint>
            <Time>2019-07-14T09:00:15.000Z</Time>
            <Position>
              <LatitudeDegrees>37.05721937119960784912109375</LatitudeDegrees>
              <LongitudeDegrees>-3.37209404446184635162353515625</LongitudeDegrees>
            </Position>
            <AltitudeMeters>3191.39990234375</AltitudeMeters>
            <DistanceMeters>644.57939341128</DistanceMeters>
          </Trackpoint>
          <Trackpoint>
            <Time>2019-07-14T09:00:16.000Z</Time>
            <Position>
              <LatitudeDegrees>37.05720906145870685577392578125</LatitudeDegrees>
              <LongitudeDegrees>-3.372090943157672882080078125</LongitudeDegrees>
            </Position>
            <AltitudeMeters>3191.39990234375</AltitudeMeters>
            <DistanceMeters>645.75480895308</DistanceMeters>
          </Trackpoint>
          <Trackpoint>
            <Time>2019-07-14T09:00:17.000Z</Time>
            <Position>
              <LatitudeDegrees>37.05719799734652042388916015625</LatitudeDegrees>
              <LongitudeDegrees>-3.37208926677703857421875</LongitudeDegrees>
            </Position>
            <AltitudeMeters>3191.60009765625</AltitudeMeters>
            <DistanceMeters>646.99380572284</DistanceMeters>
          </Trackpoint>
          <Trackpoint>
            <Time>2019-07-14T09:00:24.000Z</Time>
            <Position>
              <LatitudeDegrees>37.05713362433016300201416015625</LatitudeDegrees>
              <LongitudeDegrees>-3.37206655181944370269775390625</LongitudeDegrees>
            </Position>
            <AltitudeMeters>3192.199951171875</AltitudeMeters>
            <DistanceMeters>654.43749762002</DistanceMeters>
          </Trackpoint>
          <Trackpoint>
            <Time>2019-07-14T09:00:25.000Z</Time>
            <Position>
              <LatitudeDegrees>37.05712147057056427001953125</LatitudeDegrees>
              <LongitudeDegrees>-3.3720663003623485565185546875</LongitudeDegrees>
            </Position>
            <AltitudeMeters>3192.39990234375</AltitudeMeters>
            <DistanceMeters>655.79141989184</DistanceMeters>
          </Trackpoint>
          <Trackpoint>
            <Time>2019-07-14T09:00:43.000Z</Time>
            <Position>
              <LatitudeDegrees>37.0569540001451969146728515625</LatitudeDegrees>
              <LongitudeDegrees>-3.3720113150775432586669921875</LongitudeDegrees>
            </Position>
            <AltitudeMeters>3193.800048828125</AltitudeMeters>
            <DistanceMeters>675.06053204634</DistanceMeters>
          </Trackpoint>
          <Trackpoint>
            <Time>2019-07-14T09:00:44.000Z</Time>
            <Position>
              <LatitudeDegrees>37.05694654025137424468994140625</LatitudeDegrees>
              <LongitudeDegrees>-3.3720074594020843505859375</LongitudeDegrees>
            </Position>
            <AltitudeMeters>3194</AltitudeMeters>
            <DistanceMeters>675.95701227675</DistanceMeters>
          </Trackpoint>
          <Trackpoint>
            <Time>2019-07-14T09:00:45.000Z</Time>
            <Position>
              <LatitudeDegrees>37.0569372363388538360595703125</LatitudeDegrees>
              <LongitudeDegrees>-3.3720019273459911346435546875</LongitudeDegrees>
            </Position>
            <AltitudeMeters>3194</AltitudeMeters>
            <DistanceMeters>677.1052244352</DistanceMeters>
          </Trackpoint>
          <Trackpoint>
            <Time>2019-07-14T09:00:46.000Z</Time>
            <Position>
              <LatitudeDegrees>37.05692742951214313507080078125</LatitudeDegrees>
              <LongitudeDegrees>-3.37199731729924678802490234375</LongitudeDegrees>
            </Position>
            <AltitudeMeters>3194.199951171875</AltitudeMeters>
            <DistanceMeters>678.2690592459</DistanceMeters>
          </Trackpoint>
          <Trackpoint>
            <Time>2019-07-14T09:00:47.000Z</Time>
            <Position>
              <LatitudeDegrees>37.056918628513813018798828125</LatitudeDegrees>
              <LongitudeDegrees>-3.37199329398572444915771484375</LongitudeDegrees>
            </Position>
            <AltitudeMeters>3194.199951171875</AltitudeMeters>
            <DistanceMeters>679.31002474642</DistanceMeters>
          </Trackpoint>
          <Trackpoint>
            <Time>2019-07-14T09:00:48.000Z</Time>
            <Position>
              <LatitudeDegrees>37.0569097436964511871337890625</LatitudeDegrees>
              <LongitudeDegrees>-3.37198943831026554107666015625</LongitudeDegrees>
            </Position>
            <AltitudeMeters>3194.39990234375</AltitudeMeters>
            <DistanceMeters>680.35962911291</DistanceMeters>
          </Trackpoint>
          <Trackpoint>
            <Time>2019-07-14T09:00:49.000Z</Time>
            <Position>
              <LatitudeDegrees>37.0569013617932796478271484375</LatitudeDegrees>
              <LongitudeDegrees>-3.371985666453838348388671875</LongitudeDegrees>
            </Position>
            <AltitudeMeters>3194.39990234375</AltitudeMeters>
            <DistanceMeters>681.35627770135</DistanceMeters>
          </Trackpoint>
          <Trackpoint>
            <Time>2019-07-14T09:01:05.000Z</Time>
            <Position>
              <LatitudeDegrees>37.05675375647842884063720703125</LatitudeDegrees>
              <LongitudeDegrees>-3.37192221544682979583740234375</LongitudeDegrees>
            </Position>
            <AltitudeMeters>3195.60009765625</AltitudeMeters>
            <DistanceMeters>698.72486324432</DistanceMeters>
          </Trackpoint>
          <Trackpoint>
            <Time>2019-07-14T09:01:21.000Z</Time>
            <Position>
              <LatitudeDegrees>37.056606151163578033447265625</LatitudeDegrees>
              <LongitudeDegrees>-3.37186655960977077484130859375</LongitudeDegrees>
            </Position>
            <AltitudeMeters>3197</AltitudeMeters>
            <DistanceMeters>715.88133058953</DistanceMeters>
          </Trackpoint>
          <Trackpoint>
            <Time>2019-07-14T09:01:38.000Z</Time>
            <Position>
              <LatitudeDegrees>37.056445218622684478759765625</LatitudeDegrees>
              <LongitudeDegrees>-3.3718049526214599609375</LongitudeDegrees>
            </Position>
            <AltitudeMeters>3198.60009765625</AltitudeMeters>
            <DistanceMeters>734.61051502298</DistanceMeters>
          </Trackpoint>
          <Trackpoint>
            <Time>2019-07-14T09:01:59.000Z</Time>
            <Position>
              <LatitudeDegrees>37.056259810924530029296875</LatitudeDegrees>
              <LongitudeDegrees>-3.37173680774867534637451171875</LongitudeDegrees>
            </Position>
            <AltitudeMeters>3200.199951171875</AltitudeMeters>
            <DistanceMeters>756.11638527523</DistanceMeters>
          </Trackpoint>
          <Trackpoint>
            <Time>2019-07-14T09:02:20.000Z</Time>
            <Position>
              <LatitudeDegrees>37.0560822822153568267822265625</LatitudeDegrees>
              <LongitudeDegrees>-3.37166480720043182373046875</LongitudeDegrees>
            </Position>
            <AltitudeMeters>3201.800048828125</AltitudeMeters>
            <DistanceMeters>776.8848862183</DistanceMeters>
          </Trackpoint>
          <Trackpoint>
            <Time>2019-07-14T09:02:40.000Z</Time>
            <Position>
              <LatitudeDegrees>37.0559044182300567626953125</LatitudeDegrees>
              <LongitudeDegrees>-3.3716012723743915557861328125</LongitudeDegrees>
            </Position>
            <AltitudeMeters>3203.199951171875</AltitudeMeters>
            <DistanceMeters>797.46996254095</DistanceMeters>
          </Trackpoint>
          <Trackpoint>
            <Time>2019-07-14T09:03:00.000Z</Time>
            <Position>
              <LatitudeDegrees>37.0557211898267269134521484375</LatitudeDegrees>
              <LongitudeDegrees>-3.37154100649058818817138671875</LongitudeDegrees>
            </Position>
            <AltitudeMeters>3204.60009765625</AltitudeMeters>
            <DistanceMeters>818.55476093907</DistanceMeters>
          </Trackpoint>
          <Trackpoint>
            <Time>2019-07-14T09:03:37.000Z</Time>
            <Position>
              <LatitudeDegrees>37.05554089508950710296630859375</LatitudeDegrees>
              <LongitudeDegrees>-3.371453918516635894775390625</LongitudeDegrees>
            </Position>
            <AltitudeMeters>3206</AltitudeMeters>
            <DistanceMeters>840.06147095275</DistanceMeters>
          </Trackpoint>
          <Trackpoint>
            <Time>2019-07-14T09:03:57.000Z</Time>
            <Position>
              <LatitudeDegrees>37.05534274689853191375732421875</LatitudeDegrees>
              <LongitudeDegrees>-3.371397592127323150634765625</LongitudeDegrees>
            </Position>
            <AltitudeMeters>3207.800048828125</AltitudeMeters>
            <DistanceMeters>862.67603217785</DistanceMeters>
          </Trackpoint>
          <Trackpoint>
            <Time>2019-07-14T09:04:18.000Z</Time>
            <Position>
              <LatitudeDegrees>37.05514493398368358612060546875</LatitudeDegrees>
              <LongitudeDegrees>-3.37135140784084796905517578125</LongitudeDegrees>
            </Position>
            <AltitudeMeters>3209.800048828125</AltitudeMeters>
            <DistanceMeters>885.07191564067</DistanceMeters>
          </Trackpoint>
          <Trackpoint>
            <Time>2019-07-14T09:04:38.000Z</Time>
            <Position>
              <LatitudeDegrees>37.05495650880038738250732421875</LatitudeDegrees>
              <LongitudeDegrees>-3.37127915583550930023193359375</LongitudeDegrees>
            </Position>
            <AltitudeMeters>3212</AltitudeMeters>
            <DistanceMeters>907.00394956407</DistanceMeters>
          </Trackpoint>
          <Trackpoint>
            <Time>2019-07-14T09:04:58.000Z</Time>
            <Position>
              <LatitudeDegrees>37.05477143637835979461669921875</LatitudeDegrees>
              <LongitudeDegrees>-3.37121880613267421722412109375</LongitudeDegrees>
            </Position>
            <AltitudeMeters>3214.199951171875</AltitudeMeters>
            <DistanceMeters>928.28908511324</DistanceMeters>
          </Trackpoint>
          <Trackpoint>
            <Time>2019-07-14T09:05:18.000Z</Time>
            <Position>
              <LatitudeDegrees>37.05458250828087329864501953125</LatitudeDegrees>
              <LongitudeDegrees>-3.371174968779087066650390625</LongitudeDegrees>
            </Position>
            <AltitudeMeters>3215.39990234375</AltitudeMeters>
            <DistanceMeters>949.67452996671</DistanceMeters>
          </Trackpoint>
          <Trackpoint>
            <Time>2019-07-14T09:05:37.000Z</Time>
            <Position>
              <LatitudeDegrees>37.05438519828021526336669921875</LatitudeDegrees>
              <LongitudeDegrees>-3.37117773480713367462158203125</LongitudeDegrees>
            </Position>
            <AltitudeMeters>3216.39990234375</AltitudeMeters>
            <DistanceMeters>971.63659961367</DistanceMeters>
          </Trackpoint>
          <Trackpoint>
            <Time>2019-07-14T09:05:43.000Z</Time>
            <Position>
              <LatitudeDegrees>37.05431965179741382598876953125</LatitudeDegrees>
              <LongitudeDegrees>-3.37117957882583141326904296875</LongitudeDegrees>
            </Position>
            <AltitudeMeters>3217</AltitudeMeters>
            <DistanceMeters>978.93326533943</DistanceMeters>
          </Trackpoint>
          <Trackpoint>
            <Time>2019-07-14T09:05:54.000Z</Time>
            <Position>
              <LatitudeDegrees>37.05421253107488155364990234375</LatitudeDegrees>
              <LongitudeDegrees>-3.37118930183351039886474609375</LongitudeDegrees>
            </Position>
            <AltitudeMeters>3218.39990234375</AltitudeMeters>
            <DistanceMeters>990.88738428336</DistanceMeters>
          </Trackpoint>
          <Trackpoint>
            <Time>2019-07-14T09:05:55.000Z</Time>
            <Position>
              <LatitudeDegrees>37.05420230515301227569580078125</LatitudeDegrees>
              <LongitudeDegrees>-3.37119114585220813751220703125</LongitudeDegrees>
            </Position>
            <AltitudeMeters>3218.39990234375</AltitudeMeters>
            <DistanceMeters>992.03952196492</DistanceMeters>
          </Trackpoint>
          <Trackpoint>
            <Time>2019-07-14T09:05:56.000Z</Time>
            <Position>
              <LatitudeDegrees>37.0541904866695404052734375</LatitudeDegrees>
              <LongitudeDegrees>-3.3711898885667324066162109375</LongitudeDegrees>
            </Position>
            <AltitudeMeters>3218.39990234375</AltitudeMeters>
            <DistanceMeters>993.3596752718</DistanceMeters>
          </Trackpoint>
          <Trackpoint>
            <Time>2019-07-14T09:05:57.000Z</Time>
            <Position>
              <LatitudeDegrees>37.05417782999575138092041015625</LatitudeDegrees>
              <LongitudeDegrees>-3.37119005620479583740234375</LongitudeDegrees>
            </Position>
            <AltitudeMeters>3218.60009765625</AltitudeMeters>
            <DistanceMeters>994.76914922249</DistanceMeters>
          </Trackpoint>
          <Trackpoint>
            <Time>2019-07-14T09:05:58.000Z</Time>
            <Position>
              <LatitudeDegrees>37.05416676588356494903564453125</LatitudeDegrees>
              <LongitudeDegrees>-3.37119097821414470672607421875</LongitudeDegrees>
            </Position>
            <AltitudeMeters>3218.60009765625</AltitudeMeters>
            <DistanceMeters>996.0044965093</DistanceMeters>
          </Trackpoint>
          <Trackpoint>
            <Time>2019-07-14T09:05:59.000Z</Time>
            <Position>
              <LatitudeDegrees>37.054156959056854248046875</LatitudeDegrees>
              <LongitudeDegrees>-3.37119198404252529144287109375</LongitudeDegrees>
            </Position>
            <AltitudeMeters>3218.60009765625</AltitudeMeters>
            <DistanceMeters>997.09627033689</DistanceMeters>
          </Trackpoint>
          <Trackpoint>
            <Time>2019-07-14T09:06:00.000Z</Time>
            <Position>
              <LatitudeDegrees>37.05414664931595325469970703125</LatitudeDegrees>
              <LongitudeDegrees>-3.37119273841381072998046875</LongitudeDegrees>
            </Position>
            <AltitudeMeters>3218.800048828125</AltitudeMeters>
            <DistanceMeters>998.24840801844</DistanceMeters>
          </Trackpoint>
          <Trackpoint>
            <Time>2019-07-14T09:06:01.000Z</Time>
            <Position>
              <LatitudeDegrees>37.0541341602802276611328125</LatitudeDegrees>
              <LongitudeDegrees>-3.37119047529995441436767578125</LongitudeDegrees>
            </Position>
            <AltitudeMeters>3218.800048828125</AltitudeMeters>
            <DistanceMeters>999.65146064211</DistanceMeters>
          </Trackpoint>
          <Trackpoint>
            <Time>2019-07-14T09:06:02.000Z</Time>
            <Position>
              <LatitudeDegrees>37.0541212521493434906005859375</LatitudeDegrees>
              <LongitudeDegrees>-3.371190391480922698974609375</LongitudeDegrees>
            </Position>
            <AltitudeMeters>3219</AltitudeMeters>
            <DistanceMeters>1001.086332563</DistanceMeters>
          </Trackpoint>
          <Trackpoint>
            <Time>2019-07-14T09:06:03.000Z</Time>
            <Position>
              <LatitudeDegrees>37.05410993658006191253662109375</LatitudeDegrees>
              <LongitudeDegrees>-3.37119248695671558380126953125</LongitudeDegrees>
            </Position>
            <AltitudeMeters>3219.199951171875</AltitudeMeters>
            <DistanceMeters>1002.3577033521</DistanceMeters>
          </Trackpoint>
          <Trackpoint>
            <Time>2019-07-14T09:06:04.000Z</Time>
            <Position>
              <LatitudeDegrees>37.0541008003056049346923828125</LatitudeDegrees>
              <LongitudeDegrees>-3.37119366042315959930419921875</LongitudeDegrees>
            </Position>
            <AltitudeMeters>3219.199951171875</AltitudeMeters>
            <DistanceMeters>1003.381172388</DistanceMeters>
          </Trackpoint>
          <Trackpoint>
            <Time>2019-07-14T09:06:11.000Z</Time>
            <Position>
              <LatitudeDegrees>37.054030895233154296875</LatitudeDegrees>
              <LongitudeDegrees>-3.371195085346698760986328125</LongitudeDegrees>
            </Position>
            <AltitudeMeters>3220</AltitudeMeters>
            <DistanceMeters>1011.1629262156</DistanceMeters>
          </Trackpoint>
          <Trackpoint>
            <Time>2019-07-14T09:06:12.000Z</Time>
            <Position>
              <LatitudeDegrees>37.0540216751396656036376953125</LatitudeDegrees>
              <LongitudeDegrees>-3.37119684554636478424072265625</LongitudeDegrees>
            </Position>
            <AltitudeMeters>3220</AltitudeMeters>
            <DistanceMeters>1012.1995452859</DistanceMeters>
          </Trackpoint>
          <Trackpoint>
            <Time>2019-07-14T09:06:13.000Z</Time>
            <Position>
              <LatitudeDegrees>37.05401069484651088714599609375</LatitudeDegrees>
              <LongitudeDegrees>-3.3711974322795867919921875</LongitudeDegrees>
            </Position>
            <AltitudeMeters>3220.199951171875</AltitudeMeters>
            <DistanceMeters>1013.4164810018</DistanceMeters>
          </Trackpoint>
          <Trackpoint>
            <Time>2019-07-14T09:06:14.000Z</Time>
            <Position>
              <LatitudeDegrees>37.0539992116391658782958984375</LatitudeDegrees>
              <LongitudeDegrees>-3.37119676172733306884765625</LongitudeDegrees>
            </Position>
            <AltitudeMeters>3220.199951171875</AltitudeMeters>
            <DistanceMeters>1014.6949346914</DistanceMeters>
          </Trackpoint>
          <Trackpoint>
            <Time>2019-07-14T09:06:15.000Z</Time>
            <Position>
              <LatitudeDegrees>37.0539894886314868927001953125</LatitudeDegrees>
              <LongitudeDegrees>-3.371196426451206207275390625</LongitudeDegrees>
            </Position>
            <AltitudeMeters>3220.39990234375</AltitudeMeters>
            <DistanceMeters>1015.7784059359</DistanceMeters>
          </Trackpoint>
          <Trackpoint>
            <Time>2019-07-14T09:06:16.000Z</Time>
            <Position>
              <LatitudeDegrees>37.053980939090251922607421875</LatitudeDegrees>
              <LongitudeDegrees>-3.3711992762982845306396484375</LongitudeDegrees>
            </Position>
            <AltitudeMeters>3220.60009765625</AltitudeMeters>
            <DistanceMeters>1016.7567658406</DistanceMeters>
          </Trackpoint>
          <Trackpoint>
            <Time>2019-07-14T09:06:38.000Z</Time>
            <Position>
              <LatitudeDegrees>37.0537849701941013336181640625</LatitudeDegrees>
              <LongitudeDegrees>-3.37120774202048778533935546875</LongitudeDegrees>
            </Position>
            <AltitudeMeters>3222.39990234375</AltitudeMeters>
            <DistanceMeters>1038.5810736673</DistanceMeters>
          </Trackpoint>
          <Trackpoint>
            <Time>2019-07-14T09:06:57.000Z</Time>
            <Position>
              <LatitudeDegrees>37.053599394857883453369140625</LatitudeDegrees>
              <LongitudeDegrees>-3.37123590521514415740966796875</LongitudeDegrees>
            </Position>
            <AltitudeMeters>3223.800048828125</AltitudeMeters>
            <DistanceMeters>1059.3867165195</DistanceMeters>
          </Trackpoint>
          <Trackpoint>
            <Time>2019-07-14T09:07:07.000Z</Time>
            <Position>
              <LatitudeDegrees>37.05349856056272983551025390625</LatitudeDegrees>
              <LongitudeDegrees>-3.371252752840518951416015625</LongitudeDegrees>
            </Position>
            <AltitudeMeters>3225</AltitudeMeters>
            <DistanceMeters>1070.7092601946</DistanceMeters>
          </Trackpoint>
          <Trackpoint>
            <Time>2019-07-14T09:07:08.000Z</Time>
            <Position>
              <LatitudeDegrees>37.05348883755505084991455078125</LatitudeDegrees>
              <LongitudeDegrees>-3.37125300429761409759521484375</LongitudeDegrees>
            </Position>
            <AltitudeMeters>3225</AltitudeMeters>
            <DistanceMeters>1071.7927314391</DistanceMeters>
          </Trackpoint>
          <Trackpoint>
            <Time>2019-07-14T09:07:09.000Z</Time>
            <Position>
              <LatitudeDegrees>37.053478024899959564208984375</LatitudeDegrees>
              <LongitudeDegrees>-3.37125333957374095916748046875</LongitudeDegrees>
            </Position>
            <AltitudeMeters>3224.800048828125</AltitudeMeters>
            <DistanceMeters>1072.994734863</DistanceMeters>
          </Trackpoint>
          <Trackpoint>
            <Time>2019-07-14T09:07:10.000Z</Time>
            <Position>
              <LatitudeDegrees>37.0534671284258365631103515625</LatitudeDegrees>
              <LongitudeDegrees>-3.37125401012599468231201171875</LongitudeDegrees>
            </Position>
            <AltitudeMeters>3224.800048828125</AltitudeMeters>
            <DistanceMeters>1074.211670579</DistanceMeters>
          </Trackpoint>
          <Trackpoint>
            <Time>2019-07-14T09:07:11.000Z</Time>
            <Position>
              <LatitudeDegrees>37.05345623195171356201171875</LatitudeDegrees>
              <LongitudeDegrees>-3.37125468067824840545654296875</LongitudeDegrees>
            </Position>
            <AltitudeMeters>3224.800048828125</AltitudeMeters>
            <DistanceMeters>1075.424890452</DistanceMeters>
          </Trackpoint>
          <Trackpoint>
            <Time>2019-07-14T09:07:12.000Z</Time>
            <Position>
              <LatitudeDegrees>37.05344625748693943023681640625</LatitudeDegrees>
              <LongitudeDegrees>-3.37125736288726329803466796875</LongitudeDegrees>
            </Position>
            <AltitudeMeters>3224.800048828125</AltitudeMeters>
            <DistanceMeters>1076.5572644428</DistanceMeters>
          </Trackpoint>
          <Trackpoint>
            <Time>2019-07-14T09:07:14.000Z</Time>
            <Position>
              <LatitudeDegrees>37.05342681147158145904541015625</LatitudeDegrees>
              <LongitudeDegrees>-3.371258787810802459716796875</LongitudeDegrees>
            </Position>
            <AltitudeMeters>3225.199951171875</AltitudeMeters>
            <DistanceMeters>1078.7242069319</DistanceMeters>
          </Trackpoint>
          <Trackpoint>
            <Time>2019-07-14T09:07:15.000Z</Time>
            <Position>
              <LatitudeDegrees>37.0534153282642364501953125</LatitudeDegrees>
              <LongitudeDegrees>-3.371256776154041290283203125</LongitudeDegrees>
            </Position>
            <AltitudeMeters>3225.199951171875</AltitudeMeters>
            <DistanceMeters>1080.013212</DistanceMeters>
          </Trackpoint>
          <Trackpoint>
            <Time>2019-07-14T09:07:33.000Z</Time>
            <Position>
              <LatitudeDegrees>37.05323503352701663970947265625</LatitudeDegrees>
              <LongitudeDegrees>-3.371259458363056182861328125</LongitudeDegrees>
            </Position>
            <AltitudeMeters>3226.800048828125</AltitudeMeters>
            <DistanceMeters>1100.0818551898</DistanceMeters>
          </Trackpoint>
          <Trackpoint>
            <Time>2019-07-14T09:07:44.000Z</Time>
            <Position>
              <LatitudeDegrees>37.0531244762241840362548828125</LatitudeDegrees>
              <LongitudeDegrees>-3.37126943282783031463623046875</LongitudeDegrees>
            </Position>
            <AltitudeMeters>3227.60009765625</AltitudeMeters>
            <DistanceMeters>1112.4188701635</DistanceMeters>
          </Trackpoint>
          <Trackpoint>
            <Time>2019-07-14T09:07:45.000Z</Time>
            <Position>
              <LatitudeDegrees>37.0531150884926319122314453125</LatitudeDegrees>
              <LongitudeDegrees>-3.37127320468425750732421875</LongitudeDegrees>
            </Position>
            <AltitudeMeters>3227.800048828125</AltitudeMeters>
            <DistanceMeters>1113.5188839105</DistanceMeters>
          </Trackpoint>
          <Trackpoint>
            <Time>2019-07-14T09:07:57.000Z</Time>
            <Position>
              <LatitudeDegrees>37.0530021004378795623779296875</LatitudeDegrees>
              <LongitudeDegrees>-3.3713018707931041717529296875</LongitudeDegrees>
            </Position>
            <AltitudeMeters>3228.800048828125</AltitudeMeters>
            <DistanceMeters>1126.3499537695</DistanceMeters>
          </Trackpoint>
          <Trackpoint>
            <Time>2019-07-14T09:07:58.000Z</Time>
            <Position>
              <LatitudeDegrees>37.0529901981353759765625</LatitudeDegrees>
              <LongitudeDegrees>-3.37130396626889705657958984375</LongitudeDegrees>
            </Position>
            <AltitudeMeters>3229</AltitudeMeters>
            <DistanceMeters>1127.6870981655</DistanceMeters>
          </Trackpoint>
          <Trackpoint>
            <Time>2019-07-14T09:07:59.000Z</Time>
            <Position>
              <LatitudeDegrees>37.0529782958328723907470703125</LatitudeDegrees>
              <LongitudeDegrees>-3.37130715139210224151611328125</LongitudeDegrees>
            </Position>
            <AltitudeMeters>3229.199951171875</AltitudeMeters>
            <DistanceMeters>1129.0443511245</DistanceMeters>
          </Trackpoint>
          <Trackpoint>
            <Time>2019-07-14T09:08:02.000Z</Time>
            <Position>
              <LatitudeDegrees>37.05294921062886714935302734375</LatitudeDegrees>
              <LongitudeDegrees>-3.3713206462562084197998046875</LongitudeDegrees>
            </Position>
            <AltitudeMeters>3229.39990234375</AltitudeMeters>
            <DistanceMeters>1132.4968431094</DistanceMeters>
          </Trackpoint>
          <Trackpoint>
            <Time>2019-07-14T09:08:03.000Z</Time>
            <Position>
              <LatitudeDegrees>37.05293856561183929443359375</LatitudeDegrees>
              <LongitudeDegrees>-3.37132391519844532012939453125</LongitudeDegrees>
            </Position>
            <AltitudeMeters>3229.39990234375</AltitudeMeters>
            <DistanceMeters>1133.7174833567</DistanceMeters>
          </Trackpoint>
          <Trackpoint>
            <Time>2019-07-14T09:08:05.000Z</Time>
            <Position>
              <LatitudeDegrees>37.0529206283390522003173828125</LatitudeDegrees>
              <LongitudeDegrees>-3.371333219110965728759765625</LongitudeDegrees>
            </Position>
            <AltitudeMeters>3229.800048828125</AltitudeMeters>
            <DistanceMeters>1135.880254634</DistanceMeters>
          </Trackpoint>
          <Trackpoint>
            <Time>2019-07-14T09:08:06.000Z</Time>
            <Position>
              <LatitudeDegrees>37.05291048623621463775634765625</LatitudeDegrees>
              <LongitudeDegrees>-3.37133489549160003662109375</LongitudeDegrees>
            </Position>
            <AltitudeMeters>3229.800048828125</AltitudeMeters>
            <DistanceMeters>1137.0245278026</DistanceMeters>
          </Trackpoint>
          <Trackpoint>
            <Time>2019-07-14T09:08:09.000Z</Time>
            <Position>
              <LatitudeDegrees>37.05288835801184177398681640625</LatitudeDegrees>
              <LongitudeDegrees>-3.37133950553834438323974609375</LongitudeDegrees>
            </Position>
            <AltitudeMeters>3230.39990234375</AltitudeMeters>
            <DistanceMeters>1139.5206753836</DistanceMeters>
          </Trackpoint>
          <Trackpoint>
            <Time>2019-07-14T09:08:10.000Z</Time>
            <Position>
              <LatitudeDegrees>37.0528820715844631195068359375</LatitudeDegrees>
              <LongitudeDegrees>-3.371353335678577423095703125</LongitudeDegrees>
            </Position>
            <AltitudeMeters>3230.39990234375</AltitudeMeters>
            <DistanceMeters>1140.9365415392</DistanceMeters>
          </Trackpoint>
          <Trackpoint>
            <Time>2019-07-14T09:08:11.000Z</Time>
            <Position>
              <LatitudeDegrees>37.05286857672035694122314453125</LatitudeDegrees>
              <LongitudeDegrees>-3.37135660462081432342529296875</LongitudeDegrees>
            </Position>
            <AltitudeMeters>3230.60009765625</AltitudeMeters>
            <DistanceMeters>1142.4658517756</DistanceMeters>
          </Trackpoint>
          <Trackpoint>
            <Time>2019-07-14T09:08:12.000Z</Time>
            <Position>
              <LatitudeDegrees>37.05285918898880481719970703125</LatitudeDegrees>
              <LongitudeDegrees>-3.371361382305622100830078125</LongitudeDegrees>
            </Position>
            <AltitudeMeters>3231.199951171875</AltitudeMeters>
            <DistanceMeters>1143.5942314894</DistanceMeters>
          </Trackpoint>
          <Trackpoint>
            <Time>2019-07-14T09:08:13.000Z</Time>
            <Position>
              <LatitudeDegrees>37.052850387990474700927734375</LatitudeDegrees>
              <LongitudeDegrees>-3.37136699818074703216552734375</LongitudeDegrees>
            </Position>
            <AltitudeMeters>3231.39990234375</AltitudeMeters>
            <DistanceMeters>1144.690133021</DistanceMeters>
          </Trackpoint>
          <Trackpoint>
            <Time>2019-07-14T09:08:34.000Z</Time>
            <Position>
              <LatitudeDegrees>37.052669338881969451904296875</LatitudeDegrees>
              <LongitudeDegrees>-3.371476717293262481689453125</LongitudeDegrees>
            </Position>
            <AltitudeMeters>3233</AltitudeMeters>
            <DistanceMeters>1167.074320557</DistanceMeters>
          </Trackpoint>
          <Trackpoint>
            <Time>2019-07-14T09:08:53.000Z</Time>
            <Position>
              <LatitudeDegrees>37.05248351208865642547607421875</LatitudeDegrees>
              <LongitudeDegrees>-3.3715325407683849334716796875</LongitudeDegrees>
            </Position>
            <AltitudeMeters>3234</AltitudeMeters>
            <DistanceMeters>1188.3433287506</DistanceMeters>
          </Trackpoint>
          <Trackpoint>
            <Time>2019-07-14T09:09:06.000Z</Time>
            <Position>
              <LatitudeDegrees>37.05237320624291896820068359375</LatitudeDegrees>
              <LongitudeDegrees>-3.3715613745152950286865234375</LongitudeDegrees>
            </Position>
            <AltitudeMeters>3235.39990234375</AltitudeMeters>
            <DistanceMeters>1200.8846951634</DistanceMeters>
          </Trackpoint>
          <Trackpoint>
            <Time>2019-07-14T09:09:07.000Z</Time>
            <Position>
              <LatitudeDegrees>37.05236499197781085968017578125</LatitudeDegrees>
              <LongitudeDegrees>-3.371561877429485321044921875</LongitudeDegrees>
            </Position>
            <AltitudeMeters>3235.39990234375</AltitudeMeters>
            <DistanceMeters>1201.7961593881</DistanceMeters>
          </Trackpoint>
          <Trackpoint>
            <Time>2019-07-14T09:09:08.000Z</Time>
            <Position>
              <LatitudeDegrees>37.05235644243657588958740234375</LatitudeDegrees>
              <LongitudeDegrees>-3.371566236019134521484375</LongitudeDegrees>
            </Position>
            <AltitudeMeters>3235.39990234375</AltitudeMeters>
            <DistanceMeters>1202.8284137271</DistanceMeters>
          </Trackpoint>
          <Trackpoint>
            <Time>2019-07-14T09:09:09.000Z</Time>
            <Position>
              <LatitudeDegrees>37.05234579741954803466796875</LatitudeDegrees>
              <LongitudeDegrees>-3.37156967259943485260009765625</LongitudeDegrees>
            </Position>
            <AltitudeMeters>3235.39990234375</AltitudeMeters>
            <DistanceMeters>1204.0527472967</DistanceMeters>
          </Trackpoint>
          <Trackpoint>
            <Time>2019-07-14T09:09:26.000Z</Time>
            <Position>
              <LatitudeDegrees>37.05217354930937290191650390625</LatitudeDegrees>
              <LongitudeDegrees>-3.3715836703777313232421875</LongitudeDegrees>
            </Position>
            <AltitudeMeters>3237</AltitudeMeters>
            <DistanceMeters>1223.2648365804</DistanceMeters>
          </Trackpoint>
          <Trackpoint>
            <Time>2019-07-14T09:09:27.000Z</Time>
            <Position>
              <LatitudeDegrees>37.0521625690162181854248046875</LatitudeDegrees>
              <LongitudeDegrees>-3.37158073671162128448486328125</LongitudeDegrees>
            </Position>
            <AltitudeMeters>3237</AltitudeMeters>
            <DistanceMeters>1224.5147178647</DistanceMeters>
          </Trackpoint>
          <Trackpoint>
            <Time>2019-07-14T09:09:28.000Z</Time>
            <Position>
              <LatitudeDegrees>37.05215175636112689971923828125</LatitudeDegrees>
              <LongitudeDegrees>-3.37158191017806529998779296875</LongitudeDegrees>
            </Position>
            <AltitudeMeters>3237.199951171875</AltitudeMeters>
            <DistanceMeters>1225.7204716984</DistanceMeters>
          </Trackpoint>
          <Trackpoint>
            <Time>2019-07-14T09:09:29.000Z</Time>
            <Position>
              <LatitudeDegrees>37.052139937877655029296875</LatitudeDegrees>
              <LongitudeDegrees>-3.371581993997097015380859375</LongitudeDegrees>
            </Position>
            <AltitudeMeters>3237.199951171875</AltitudeMeters>
            <DistanceMeters>1227.0372004773</DistanceMeters>
          </Trackpoint>
          <Trackpoint>
            <Time>2019-07-14T09:09:30.000Z</Time>
            <Position>
              <LatitudeDegrees>37.0521293766796588897705078125</LatitudeDegrees>
              <LongitudeDegrees>-3.371582664549350738525390625</LongitudeDegrees>
            </Position>
            <AltitudeMeters>3237.199951171875</AltitudeMeters>
            <DistanceMeters>1228.2202735304</DistanceMeters>
          </Trackpoint>
          <Trackpoint>
            <Time>2019-07-14T09:09:31.000Z</Time>
            <Position>
              <LatitudeDegrees>37.05212074331939220428466796875</LatitudeDegrees>
              <LongitudeDegrees>-3.371583335101604461669921875</LongitudeDegrees>
            </Position>
            <AltitudeMeters>3237.39990234375</AltitudeMeters>
            <DistanceMeters>1229.1893596721</DistanceMeters>
          </Trackpoint>
          <Trackpoint>
            <Time>2019-07-14T09:09:36.000Z</Time>
            <Position>
              <LatitudeDegrees>37.05206944607198238372802734375</LatitudeDegrees>
              <LongitudeDegrees>-3.3715885318815708160400390625</LongitudeDegrees>
            </Position>
            <AltitudeMeters>3237.60009765625</AltitudeMeters>
            <DistanceMeters>1234.9178234974</DistanceMeters>
          </Trackpoint>
          <Trackpoint>
            <Time>2019-07-14T09:09:37.000Z</Time>
            <Position>
              <LatitudeDegrees>37.052055113017559051513671875</LatitudeDegrees>
              <LongitudeDegrees>-3.37158777751028537750244140625</LongitudeDegrees>
            </Position>
            <AltitudeMeters>3237.800048828125</AltitudeMeters>
            <DistanceMeters>1236.5135933922</DistanceMeters>
          </Trackpoint>
          <Trackpoint>
            <Time>2019-07-14T09:09:38.000Z</Time>
            <Position>
              <LatitudeDegrees>37.05204346217215061187744140625</LatitudeDegrees>
              <LongitudeDegrees>-3.37158677168190479278564453125</LongitudeDegrees>
            </Position>
            <AltitudeMeters>3237.800048828125</AltitudeMeters>
            <DistanceMeters>1237.8165340553</DistanceMeters>
          </Trackpoint>
          <Trackpoint>
            <Time>2019-07-14T09:09:39.000Z</Time>
            <Position>
              <LatitudeDegrees>37.0520314760506153106689453125</LatitudeDegrees>
              <LongitudeDegrees>-3.3715875260531902313232421875</LongitudeDegrees>
            </Position>
            <AltitudeMeters>3238</AltitudeMeters>
            <DistanceMeters>1239.1536784513</DistanceMeters>
          </Trackpoint>
          <Trackpoint>
            <Time>2019-07-14T09:09:40.000Z</Time>
            <Position>
              <LatitudeDegrees>37.05201948992908000946044921875</LatitudeDegrees>
              <LongitudeDegrees>-3.37158710695803165435791015625</LongitudeDegrees>
            </Position>
            <AltitudeMeters>3238.199951171875</AltitudeMeters>
            <DistanceMeters>1240.4840524525</DistanceMeters>
          </Trackpoint>
          <Trackpoint>
            <Time>2019-07-14T09:09:41.000Z</Time>
            <Position>
              <LatitudeDegrees>37.05200842581689357757568359375</LatitudeDegrees>
              <LongitudeDegrees>-3.371586017310619354248046875</LongitudeDegrees>
            </Position>
            <AltitudeMeters>3238.39990234375</AltitudeMeters>
            <DistanceMeters>1241.715739443</DistanceMeters>
          </Trackpoint>
          <Trackpoint>
            <Time>2019-07-14T09:09:42.000Z</Time>
            <Position>
              <LatitudeDegrees>37.05199752934277057647705078125</LatitudeDegrees>
              <LongitudeDegrees>-3.37158434092998504638671875</LongitudeDegrees>
            </Position>
            <AltitudeMeters>3238.39990234375</AltitudeMeters>
            <DistanceMeters>1242.9400730126</DistanceMeters>
          </Trackpoint>
          <Trackpoint>
            <Time>2019-07-14T09:09:43.000Z</Time>
            <Position>
              <LatitudeDegrees>37.05198814161121845245361328125</LatitudeDegrees>
              <LongitudeDegrees>-3.3715848438441753387451171875</LongitudeDegrees>
            </Position>
            <AltitudeMeters>3238.60009765625</AltitudeMeters>
            <DistanceMeters>1243.9896773791</DistanceMeters>
          </Trackpoint>
          <Trackpoint>
            <Time>2019-07-14T09:09:44.000Z</Time>
            <Position>
              <LatitudeDegrees>37.0519785024225711822509765625</LatitudeDegrees>
              <LongitudeDegrees>-3.37158660404384136199951171875</LongitudeDegrees>
            </Position>
            <AltitudeMeters>3238.60009765625</AltitudeMeters>
            <DistanceMeters>1245.0773078376</DistanceMeters>
          </Trackpoint>
          <Trackpoint>
            <Time>2019-07-14T09:10:01.000Z</Time>
            <Position>
              <LatitudeDegrees>37.05180206336081027984619140625</LatitudeDegrees>
              <LongitudeDegrees>-3.37159934453666210174560546875</LongitudeDegrees>
            </Position>
            <AltitudeMeters>3239.39990234375</AltitudeMeters>
            <DistanceMeters>1264.748067244</DistanceMeters>
          </Trackpoint>
          <Trackpoint>
            <Time>2019-07-14T09:10:10.000Z</Time>
            <Position>
              <LatitudeDegrees>37.05170474946498870849609375</LatitudeDegrees>
              <LongitudeDegrees>-3.37158509530127048492431640625</LongitudeDegrees>
            </Position>
            <AltitudeMeters>3240.800048828125</AltitudeMeters>
            <DistanceMeters>1275.6533919419</DistanceMeters>
          </Trackpoint>
          <Trackpoint>
            <Time>2019-07-14T09:10:11.000Z</Time>
            <Position>
              <LatitudeDegrees>37.05169360153377056121826171875</LatitudeDegrees>
              <LongitudeDegrees>-3.37158492766320705413818359375</LongitudeDegrees>
            </Position>
            <AltitudeMeters>3241</AltitudeMeters>
            <DistanceMeters>1276.8923887116</DistanceMeters>
          </Trackpoint>
          <Trackpoint>
            <Time>2019-07-14T09:10:22.000Z</Time>
            <Position>
              <LatitudeDegrees>37.05159251578152179718017578125</LatitudeDegrees>
              <LongitudeDegrees>-3.3715630508959293365478515625</LongitudeDegrees>
            </Position>
            <AltitudeMeters>3241</AltitudeMeters>
            <DistanceMeters>1288.3098395456</DistanceMeters>
          </Trackpoint>
          <Trackpoint>
            <Time>2019-07-14T09:10:24.000Z</Time>
            <Position>
              <LatitudeDegrees>37.0515771768987178802490234375</LatitudeDegrees>
              <LongitudeDegrees>-3.37155324406921863555908203125</LongitudeDegrees>
            </Position>
            <AltitudeMeters>3241.39990234375</AltitudeMeters>
            <DistanceMeters>1290.2292850877</DistanceMeters>
          </Trackpoint>
          <Trackpoint>
            <Time>2019-07-14T09:10:42.000Z</Time>
            <Position>
              <LatitudeDegrees>37.0514212734997272491455078125</LatitudeDegrees>
              <LongitudeDegrees>-3.37152726016938686370849609375</LongitudeDegrees>
            </Position>
            <AltitudeMeters>3244.60009765625</AltitudeMeters>
            <DistanceMeters>1307.734330476</DistanceMeters>
          </Trackpoint>
          <Trackpoint>
            <Time>2019-07-14T09:10:46.000Z</Time>
            <Position>
              <LatitudeDegrees>37.0513937808573246002197265625</LatitudeDegrees>
              <LongitudeDegrees>-3.371500186622142791748046875</LongitudeDegrees>
            </Position>
            <AltitudeMeters>3245.199951171875</AltitudeMeters>
            <DistanceMeters>1311.6269476256</DistanceMeters>
          </Trackpoint>
          <Trackpoint>
            <Time>2019-07-14T09:10:47.000Z</Time>
            <Position>
              <LatitudeDegrees>37.0513931103050708770751953125</LatitudeDegrees>
              <LongitudeDegrees>-3.37149071507155895233154296875</LongitudeDegrees>
            </Position>
            <AltitudeMeters>3245.199951171875</AltitudeMeters>
            <DistanceMeters>1312.4715635378</DistanceMeters>
          </Trackpoint>
          <Trackpoint>
            <Time>2019-07-14T09:10:48.000Z</Time>
            <Position>
              <LatitudeDegrees>37.0513837225735187530517578125</LatitudeDegrees>
              <LongitudeDegrees>-3.37148107588291168212890625</LongitudeDegrees>
            </Position>
            <AltitudeMeters>3245.39990234375</AltitudeMeters>
            <DistanceMeters>1313.8221469086</DistanceMeters>
          </Trackpoint>
          <Trackpoint>
            <Time>2019-07-14T09:11:09.000Z</Time>
            <Position>
              <LatitudeDegrees>37.051254808902740478515625</LatitudeDegrees>
              <LongitudeDegrees>-3.3713243342936038970947265625</LongitudeDegrees>
            </Position>
            <AltitudeMeters>3246.800048828125</AltitudeMeters>
            <DistanceMeters>1333.8155056546</DistanceMeters>
          </Trackpoint>
          <Trackpoint>
            <Time>2019-07-14T09:11:26.000Z</Time>
            <Position>
              <LatitudeDegrees>37.0511413179337978363037109375</LatitudeDegrees>
              <LongitudeDegrees>-3.37114454247057437896728515625</LongitudeDegrees>
            </Position>
            <AltitudeMeters>3248.60009765625</AltitudeMeters>
            <DistanceMeters>1354.1780698369</DistanceMeters>
          </Trackpoint>
          <Trackpoint>
            <Time>2019-07-14T09:11:35.000Z</Time>
            <Position>
              <LatitudeDegrees>37.0510833151638507843017578125</LatitudeDegrees>
              <LongitudeDegrees>-3.371040858328342437744140625</LongitudeDegrees>
            </Position>
            <AltitudeMeters>3249.800048828125</AltitudeMeters>
            <DistanceMeters>1365.4257972064</DistanceMeters>
          </Trackpoint>
          <Trackpoint>
            <Time>2019-07-14T09:11:36.000Z</Time>
            <Position>
              <LatitudeDegrees>37.051077783107757568359375</LatitudeDegrees>
              <LongitudeDegrees>-3.3710306324064731597900390625</LongitudeDegrees>
            </Position>
            <AltitudeMeters>3250</AltitudeMeters>
            <DistanceMeters>1366.5258109534</DistanceMeters>
          </Trackpoint>
          <Trackpoint>
            <Time>2019-07-14T09:11:37.000Z</Time>
            <Position>
              <LatitudeDegrees>37.05106847919523715972900390625</LatitudeDegrees>
              <LongitudeDegrees>-3.37102132849395275115966796875</LongitudeDegrees>
            </Position>
            <AltitudeMeters>3249.800048828125</AltitudeMeters>
            <DistanceMeters>1367.8561849546</DistanceMeters>
          </Trackpoint>
          <Trackpoint>
            <Time>2019-07-14T09:11:39.000Z</Time>
            <Position>
              <LatitudeDegrees>37.05105557106435298919677734375</LatitudeDegrees>
              <LongitudeDegrees>-3.37100322358310222625732421875</LongitudeDegrees>
            </Position>
            <AltitudeMeters>3250</AltitudeMeters>
            <DistanceMeters>1370.0147769598</DistanceMeters>
          </Trackpoint>
          <Trackpoint>
            <Time>2019-07-14T09:11:40.000Z</Time>
            <Position>
              <LatitudeDegrees>37.0510491169989109039306640625</LatitudeDegrees>
              <LongitudeDegrees>-3.37098914198577404022216796875</LongitudeDegrees>
            </Position>
            <AltitudeMeters>3250.39990234375</AltitudeMeters>
            <DistanceMeters>1371.4559284377</DistanceMeters>
          </Trackpoint>
          <Trackpoint>
            <Time>2019-07-14T09:11:41.000Z</Time>
            <Position>
              <LatitudeDegrees>37.05104534514248371124267578125</LatitudeDegrees>
              <LongitudeDegrees>-3.370976485311985015869140625</LongitudeDegrees>
            </Position>
            <AltitudeMeters>3250.60009765625</AltitudeMeters>
            <DistanceMeters>1372.6541697133</DistanceMeters>
          </Trackpoint>
          <Trackpoint>
            <Time>2019-07-14T09:11:42.000Z</Time>
            <Position>
              <LatitudeDegrees>37.05104098655283451080322265625</LatitudeDegrees>
              <LongitudeDegrees>-3.37096282280981540679931640625</LongitudeDegrees>
            </Position>
            <AltitudeMeters>3251</AltitudeMeters>
            <DistanceMeters>1373.9605710482</DistanceMeters>
          </Trackpoint>
          <Trackpoint>
            <Time>2019-07-14T09:11:43.000Z</Time>
            <Position>
              <LatitudeDegrees>37.05103629268705844879150390625</LatitudeDegrees>
              <LongitudeDegrees>-3.3709515072405338287353515625</LongitudeDegrees>
            </Position>
            <AltitudeMeters>3251</AltitudeMeters>
            <DistanceMeters>1375.092945039</DistanceMeters>
          </Trackpoint>
          <Trackpoint>
            <Time>2019-07-14T09:11:57.000Z</Time>
            <Position>
              <LatitudeDegrees>37.050971500575542449951171875</LatitudeDegrees>
              <LongitudeDegrees>-3.370796106755733489990234375</LongitudeDegrees>
            </Position>
            <AltitudeMeters>3253.39990234375</AltitudeMeters>
            <DistanceMeters>1390.6674727505</DistanceMeters>
          </Trackpoint>
          <Trackpoint>
            <Time>2019-07-14T09:11:58.000Z</Time>
            <Position>
              <LatitudeDegrees>37.0509649626910686492919921875</LatitudeDegrees>
              <LongitudeDegrees>-3.37078562937676906585693359375</LongitudeDegrees>
            </Position>
            <AltitudeMeters>3253.800048828125</AltitudeMeters>
            <DistanceMeters>1391.8467232635</DistanceMeters>
          </Trackpoint>
          <Trackpoint>
            <Time>2019-07-14T09:13:10.000Z</Time>
            <Position>
              <LatitudeDegrees>37.0509391464293003082275390625</LatitudeDegrees>
              <LongitudeDegrees>-3.37074355222284793853759765625</LongitudeDegrees>
            </Position>
            <AltitudeMeters>3254.60009765625</AltitudeMeters>
            <DistanceMeters>1396.5608528893</DistanceMeters>
          </Trackpoint>
          <Trackpoint>
            <Time>2019-07-14T09:13:27.000Z</Time>
            <Position>
              <LatitudeDegrees>37.05096303485333919525146484375</LatitudeDegrees>
              <LongitudeDegrees>-3.370741121470928192138671875</LongitudeDegrees>
            </Position>
            <AltitudeMeters>3250.800048828125</AltitudeMeters>
            <DistanceMeters>1399.2283798784</DistanceMeters>
          </Trackpoint>
          <Trackpoint>
            <Time>2019-07-14T09:13:28.000Z</Time>
            <Position>
              <LatitudeDegrees>37.05096521414816379547119140625</LatitudeDegrees>
              <LongitudeDegrees>-3.370727039873600006103515625</LongitudeDegrees>
            </Position>
            <AltitudeMeters>3250.199951171875</AltitudeMeters>
            <DistanceMeters>1400.4961943787</DistanceMeters>
          </Trackpoint>
          <Trackpoint>
            <Time>2019-07-14T09:13:29.000Z</Time>
            <Position>
              <LatitudeDegrees>37.05096286721527576446533203125</LatitudeDegrees>
              <LongitudeDegrees>-3.37071337737143039703369140625</LongitudeDegrees>
            </Position>
            <AltitudeMeters>3250.39990234375</AltitudeMeters>
            <DistanceMeters>1401.7351911484</DistanceMeters>
          </Trackpoint>
          <Trackpoint>
            <Time>2019-07-14T09:13:33.000Z</Time>
            <Position>
              <LatitudeDegrees>37.05097259022295475006103515625</LatitudeDegrees>
              <LongitudeDegrees>-3.37066434323787689208984375</LongitudeDegrees>
            </Position>
            <AltitudeMeters>3252.39990234375</AltitudeMeters>
            <DistanceMeters>1406.2246377316</DistanceMeters>
          </Trackpoint>
          <Trackpoint>
            <Time>2019-07-14T09:13:53.000Z</Time>
            <Position>
              <LatitudeDegrees>37.05100125633180141448974609375</LatitudeDegrees>
              <LongitudeDegrees>-3.37063391692936420440673828125</LongitudeDegrees>
            </Position>
            <AltitudeMeters>3250.39990234375</AltitudeMeters>
            <DistanceMeters>1410.4068928735</DistanceMeters>
          </Trackpoint>
          <Trackpoint>
            <Time>2019-07-14T09:13:54.000Z</Time>
            <Position>
              <LatitudeDegrees>37.05101265572011470794677734375</LatitudeDegrees>
              <LongitudeDegrees>-3.37063022889196872711181640625</LongitudeDegrees>
            </Position>
            <AltitudeMeters>3250.60009765625</AltitudeMeters>
            <DistanceMeters>1411.7167457371</DistanceMeters>
          </Trackpoint>
          <Trackpoint>
            <Time>2019-07-14T09:14:40.000Z</Time>
            <Position>
              <LatitudeDegrees>37.05106847919523715972900390625</LatitudeDegrees>
              <LongitudeDegrees>-3.37068085558712482452392578125</LongitudeDegrees>
            </Position>
            <AltitudeMeters>3252.39990234375</AltitudeMeters>
            <DistanceMeters>1419.3868792452</DistanceMeters>
          </Trackpoint>
          <Trackpoint>
            <Time>2019-07-14T09:15:06.000Z</Time>
            <Position>
              <LatitudeDegrees>37.05110217444598674774169921875</LatitudeDegrees>
              <LongitudeDegrees>-3.37069275788962841033935546875</LongitudeDegrees>
            </Position>
            <AltitudeMeters>3252.39990234375</AltitudeMeters>
            <DistanceMeters>1423.2841332245</DistanceMeters>
          </Trackpoint>
          <Trackpoint>
            <Time>2019-07-14T09:15:07.000Z</Time>
            <Position>
              <LatitudeDegrees>37.05110938288271427154541015625</LatitudeDegrees>
              <LongitudeDegrees>-3.37070298381149768829345703125</LongitudeDegrees>
            </Position>
            <AltitudeMeters>3253.199951171875</AltitudeMeters>
            <DistanceMeters>1424.4936258387</DistanceMeters>
          </Trackpoint>
          <Trackpoint>
            <Time>2019-07-14T09:15:25.000Z</Time>
            <Position>
              <LatitudeDegrees>37.0512640289962291717529296875</LatitudeDegrees>
              <LongitudeDegrees>-3.370851762592792510986328125</LongitudeDegrees>
            </Position>
            <AltitudeMeters>3254</AltitudeMeters>
            <DistanceMeters>1446.194698317</DistanceMeters>
          </Trackpoint>
          <Trackpoint>
            <Time>2019-07-14T09:15:30.000Z</Time>
            <Position>
              <LatitudeDegrees>37.051312141120433807373046875</LatitudeDegrees>
              <LongitudeDegrees>-3.37085586972534656524658203125</LongitudeDegrees>
            </Position>
            <AltitudeMeters>3254</AltitudeMeters>
            <DistanceMeters>1451.5618152205</DistanceMeters>
          </Trackpoint>
          <Trackpoint>
            <Time>2019-07-14T09:15:31.000Z</Time>
            <Position>
              <LatitudeDegrees>37.05132345668971538543701171875</LatitudeDegrees>
              <LongitudeDegrees>-3.3708552829921245574951171875</LongitudeDegrees>
            </Position>
            <AltitudeMeters>3254.199951171875</AltitudeMeters>
            <DistanceMeters>1452.8189004911</DistanceMeters>
          </Trackpoint>
          <Trackpoint>
            <Time>2019-07-14T09:15:36.000Z</Time>
            <Position>
              <LatitudeDegrees>37.05137173645198345184326171875</LatitudeDegrees>
              <LongitudeDegrees>-3.37085788138210773468017578125</LongitudeDegrees>
            </Position>
            <AltitudeMeters>3253.39990234375</AltitudeMeters>
            <DistanceMeters>1458.1961028096</DistanceMeters>
          </Trackpoint>
          <Trackpoint>
            <Time>2019-07-14T09:15:45.000Z</Time>
            <Position>
              <LatitudeDegrees>37.05145723186433315277099609375</LatitudeDegrees>
              <LongitudeDegrees>-3.37084279395639896392822265625</LongitudeDegrees>
            </Position>
            <AltitudeMeters>3254.199951171875</AltitudeMeters>
            <DistanceMeters>1467.8060243385</DistanceMeters>
          </Trackpoint>
          <Trackpoint>
            <Time>2019-07-14T09:15:46.000Z</Time>
            <Position>
              <LatitudeDegrees>37.05146603286266326904296875</LatitudeDegrees>
              <LongitudeDegrees>-3.37083868682384490966796875</LongitudeDegrees>
            </Position>
            <AltitudeMeters>3254.39990234375</AltitudeMeters>
            <DistanceMeters>1468.855628705</DistanceMeters>
          </Trackpoint>
          <Trackpoint>
            <Time>2019-07-14T09:15:47.000Z</Time>
            <Position>
              <LatitudeDegrees>37.05147550441324710845947265625</LatitudeDegrees>
              <LongitudeDegrees>-3.37083742953836917877197265625</LongitudeDegrees>
            </Position>
            <AltitudeMeters>3254.60009765625</AltitudeMeters>
            <DistanceMeters>1469.9138014126</DistanceMeters>
          </Trackpoint>
          <Trackpoint>
            <Time>2019-07-14T09:15:48.000Z</Time>
            <Position>
              <LatitudeDegrees>37.05148573033511638641357421875</LatitudeDegrees>
              <LongitudeDegrees>-3.37083424441516399383544921875</LongitudeDegrees>
            </Position>
            <AltitudeMeters>3254.800048828125</AltitudeMeters>
            <DistanceMeters>1471.08536943</DistanceMeters>
          </Trackpoint>
          <Trackpoint>
            <Time>2019-07-14T09:16:02.000Z</Time>
            <Position>
              <LatitudeDegrees>37.0516167394816875457763671875</LatitudeDegrees>
              <LongitudeDegrees>-3.370803482830524444580078125</LongitudeDegrees>
            </Position>
            <AltitudeMeters>3256</AltitudeMeters>
            <DistanceMeters>1485.9208017853</DistanceMeters>
          </Trackpoint>
          <Trackpoint>
            <Time>2019-07-14T09:16:22.000Z</Time>
            <Position>
              <LatitudeDegrees>37.05180256627500057220458984375</LatitudeDegrees>
              <LongitudeDegrees>-3.37073408067226409912109375</LongitudeDegrees>
            </Position>
            <AltitudeMeters>3257.800048828125</AltitudeMeters>
            <DistanceMeters>1507.5029565233</DistanceMeters>
          </Trackpoint>
          <Trackpoint>
            <Time>2019-07-14T09:16:30.000Z</Time>
            <Position>
              <LatitudeDegrees>37.05188303254544734954833984375</LatitudeDegrees>
              <LongitudeDegrees>-3.3706956915557384490966796875</LongitudeDegrees>
            </Position>
            <AltitudeMeters>3258.60009765625</AltitudeMeters>
            <DistanceMeters>1517.0860602708</DistanceMeters>
          </Trackpoint>
          <Trackpoint>
            <Time>2019-07-14T09:16:50.000Z</Time>
            <Position>
              <LatitudeDegrees>37.05207715742290019989013671875</LatitudeDegrees>
              <LongitudeDegrees>-3.37060240097343921661376953125</LongitudeDegrees>
            </Position>
            <AltitudeMeters>3259.800048828125</AltitudeMeters>
            <DistanceMeters>1540.2273578453</DistanceMeters>
          </Trackpoint>
          <Trackpoint>
            <Time>2019-07-14T09:17:10.000Z</Time>
            <Position>
              <LatitudeDegrees>37.0522681809961795806884765625</LatitudeDegrees>
              <LongitudeDegrees>-3.37053886614739894866943359375</LongitudeDegrees>
            </Position>
            <AltitudeMeters>3262.199951171875</AltitudeMeters>
            <DistanceMeters>1562.2249646788</DistanceMeters>
          </Trackpoint>
          <Trackpoint>
            <Time>2019-07-14T09:17:25.000Z</Time>
            <Position>
              <LatitudeDegrees>37.05239147879183292388916015625</LatitudeDegrees>
              <LongitudeDegrees>-3.370390422642230987548828125</LongitudeDegrees>
            </Position>
            <AltitudeMeters>3264.60009765625</AltitudeMeters>
            <DistanceMeters>1581.2566591973</DistanceMeters>
          </Trackpoint>
          <Trackpoint>
            <Time>2019-07-14T09:17:28.000Z</Time>
            <Position>
              <LatitudeDegrees>37.052409164607524871826171875</LatitudeDegrees>
              <LongitudeDegrees>-3.37035831995308399200439453125</LongitudeDegrees>
            </Position>
            <AltitudeMeters>3264.800048828125</AltitudeMeters>
            <DistanceMeters>1584.7222041285</DistanceMeters>
          </Trackpoint>
          <Trackpoint>
            <Time>2019-07-14T09:17:29.000Z</Time>
            <Position>
              <LatitudeDegrees>37.0524130202829837799072265625</LatitudeDegrees>
              <LongitudeDegrees>-3.370343483984470367431640625</LongitudeDegrees>
            </Position>
            <AltitudeMeters>3265.39990234375</AltitudeMeters>
            <DistanceMeters>1586.1058139746</DistanceMeters>
          </Trackpoint>
          <Trackpoint>
            <Time>2019-07-14T09:17:30.000Z</Time>
            <Position>
              <LatitudeDegrees>37.05241595394909381866455078125</LatitudeDegrees>
              <LongitudeDegrees>-3.37033015675842761993408203125</LongitudeDegrees>
            </Position>
            <AltitudeMeters>3265.800048828125</AltitudeMeters>
            <DistanceMeters>1587.3338297587</DistanceMeters>
          </Trackpoint>
          <Trackpoint>
            <Time>2019-07-14T09:17:35.000Z</Time>
            <Position>
              <LatitudeDegrees>37.0524324662983417510986328125</LatitudeDegrees>
              <LongitudeDegrees>-3.3702859841287136077880859375</LongitudeDegrees>
            </Position>
            <AltitudeMeters>3265</AltitudeMeters>
            <DistanceMeters>1591.6656306372</DistanceMeters>
          </Trackpoint>
          <Trackpoint>
            <Time>2019-07-14T09:17:55.000Z</Time>
            <Position>
              <LatitudeDegrees>37.05250270664691925048828125</LatitudeDegrees>
              <LongitudeDegrees>-3.37016637437045574188232421875</LongitudeDegrees>
            </Position>
            <AltitudeMeters>3268.199951171875</AltitudeMeters>
            <DistanceMeters>1604.8568994569</DistanceMeters>
          </Trackpoint>
          <Trackpoint>
            <Time>2019-07-14T09:18:20.000Z</Time>
            <Position>
              <LatitudeDegrees>37.05257512629032135009765625</LatitudeDegrees>
              <LongitudeDegrees>-3.37002220563590526580810546875</LongitudeDegrees>
            </Position>
            <AltitudeMeters>3271.800048828125</AltitudeMeters>
            <DistanceMeters>1619.9891391612</DistanceMeters>
          </Trackpoint>
          <Trackpoint>
            <Time>2019-07-14T09:18:23.000Z</Time>
            <Position>
              <LatitudeDegrees>37.05257504247128963470458984375</LatitudeDegrees>
              <LongitudeDegrees>-3.3700093813240528106689453125</LongitudeDegrees>
            </Position>
            <AltitudeMeters>3273.800048828125</AltitudeMeters>
            <DistanceMeters>1621.1294597336</DistanceMeters>
          </Trackpoint>
          <Trackpoint>
            <Time>2019-07-14T09:18:53.000Z</Time>
            <Position>
              <LatitudeDegrees>37.05269590951502323150634765625</LatitudeDegrees>
              <LongitudeDegrees>-3.36986110545694828033447265625</LongitudeDegrees>
            </Position>
            <AltitudeMeters>3275.60009765625</AltitudeMeters>
            <DistanceMeters>1639.9565038631</DistanceMeters>
          </Trackpoint>
          <Trackpoint>
            <Time>2019-07-14T09:18:54.000Z</Time>
            <Position>
              <LatitudeDegrees>37.05269959755241870880126953125</LatitudeDegrees>
              <LongitudeDegrees>-3.36985071189701557159423828125</LongitudeDegrees>
            </Position>
            <AltitudeMeters>3275.800048828125</AltitudeMeters>
            <DistanceMeters>1640.966651693</DistanceMeters>
          </Trackpoint>
          <Trackpoint>
            <Time>2019-07-14T09:18:55.000Z</Time>
            <Position>
              <LatitudeDegrees>37.052704878151416778564453125</LatitudeDegrees>
              <LongitudeDegrees>-3.3698375523090362548828125</LongitudeDegrees>
            </Position>
            <AltitudeMeters>3276.199951171875</AltitudeMeters>
            <DistanceMeters>1642.2765045566</DistanceMeters>
          </Trackpoint>
          <Trackpoint>
            <Time>2019-07-14T09:18:56.000Z</Time>
            <Position>
              <LatitudeDegrees>37.05270831473171710968017578125</LatitudeDegrees>
              <LongitudeDegrees>-3.36982573382556438446044921875</LongitudeDegrees>
            </Position>
            <AltitudeMeters>3276.39990234375</AltitudeMeters>
            <DistanceMeters>1643.3928156912</DistanceMeters>
          </Trackpoint>
          <Trackpoint>
            <Time>2019-07-14T09:18:57.000Z</Time>
            <Position>
              <LatitudeDegrees>37.05271535553038120269775390625</LatitudeDegrees>
              <LongitudeDegrees>-3.3698160946369171142578125</LongitudeDegrees>
            </Position>
            <AltitudeMeters>3276</AltitudeMeters>
            <DistanceMeters>1644.5488655663</DistanceMeters>
          </Trackpoint>
          <Trackpoint>
            <Time>2019-07-14T09:19:36.000Z</Time>
            <Position>
              <LatitudeDegrees>37.05280520953238010406494140625</LatitudeDegrees>
              <LongitudeDegrees>-3.36967268027365207672119140625</LongitudeDegrees>
            </Position>
            <AltitudeMeters>3279.199951171875</AltitudeMeters>
            <DistanceMeters>1660.7447187561</DistanceMeters>
          </Trackpoint>
          <Trackpoint>
            <Time>2019-07-14T09:20:04.000Z</Time>
            <Position>
              <LatitudeDegrees>37.0528844185173511505126953125</LatitudeDegrees>
              <LongitudeDegrees>-3.36958701722323894500732421875</LongitudeDegrees>
            </Position>
            <AltitudeMeters>3282.199951171875</AltitudeMeters>
            <DistanceMeters>1672.3908231772</DistanceMeters>
          </Trackpoint>
          <Trackpoint>
            <Time>2019-07-14T09:20:38.000Z</Time>
            <Position>
              <LatitudeDegrees>37.05307225696742534637451171875</LatitudeDegrees>
              <LongitudeDegrees>-3.3695403300225734710693359375</LongitudeDegrees>
            </Position>
            <AltitudeMeters>3285.39990234375</AltitudeMeters>
            <DistanceMeters>1693.7047877484</DistanceMeters>
          </Trackpoint>
          <Trackpoint>
            <Time>2019-07-14T09:20:53.000Z</Time>
            <Position>
              <LatitudeDegrees>37.05318004824221134185791015625</LatitudeDegrees>
              <LongitudeDegrees>-3.369523398578166961669921875</LongitudeDegrees>
            </Position>
            <AltitudeMeters>3287.199951171875</AltitudeMeters>
            <DistanceMeters>1705.7959803128</DistanceMeters>
          </Trackpoint>
          <Trackpoint>
            <Time>2019-07-14T09:21:10.000Z</Time>
            <Position>
              <LatitudeDegrees>37.05329907126724720001220703125</LatitudeDegrees>
              <LongitudeDegrees>-3.36949934251606464385986328125</LongitudeDegrees>
            </Position>
            <AltitudeMeters>3288</AltitudeMeters>
            <DistanceMeters>1719.2149502572</DistanceMeters>
          </Trackpoint>
          <Trackpoint>
            <Time>2019-07-14T09:21:22.000Z</Time>
            <Position>
              <LatitudeDegrees>37.05336746759712696075439453125</LatitudeDegrees>
              <LongitudeDegrees>-3.3694581873714923858642578125</LongitudeDegrees>
            </Position>
            <AltitudeMeters>3291.199951171875</AltitudeMeters>
            <DistanceMeters>1727.660040177</DistanceMeters>
          </Trackpoint>
          <Trackpoint>
            <Time>2019-07-14T09:21:23.000Z</Time>
            <Position>
              <LatitudeDegrees>37.0533688925206661224365234375</LatitudeDegrees>
              <LongitudeDegrees>-3.36944502778351306915283203125</LongitudeDegrees>
            </Position>
            <AltitudeMeters>3292</AltitudeMeters>
            <DistanceMeters>1728.84311323</DistanceMeters>
          </Trackpoint>
          <Trackpoint>
            <Time>2019-07-14T09:21:49.000Z</Time>
            <Position>
              <LatitudeDegrees>37.05338724888861179351806640625</LatitudeDegrees>
              <LongitudeDegrees>-3.3693475462496280670166015625</LongitudeDegrees>
            </Position>
            <AltitudeMeters>3291.800048828125</AltitudeMeters>
            <DistanceMeters>1737.7396642489</DistanceMeters>
          </Trackpoint>
          <Trackpoint>
            <Time>2019-07-14T09:21:57.000Z</Time>
            <Position>
              <LatitudeDegrees>37.0533926971256732940673828125</LatitudeDegrees>
              <LongitudeDegrees>-3.36928510107100009918212890625</LongitudeDegrees>
            </Position>
            <AltitudeMeters>3295</AltitudeMeters>
            <DistanceMeters>1743.3196018452</DistanceMeters>
          </Trackpoint>
          <Trackpoint>
            <Time>2019-07-14T09:22:20.000Z</Time>
            <Position>
              <LatitudeDegrees>37.05348330549895763397216796875</LatitudeDegrees>
              <LongitudeDegrees>-3.3690892159938812255859375</LongitudeDegrees>
            </Position>
            <AltitudeMeters>3295.800048828125</AltitudeMeters>
            <DistanceMeters>1763.4309457586</DistanceMeters>
          </Trackpoint>
          <Trackpoint>
            <Time>2019-07-14T09:22:22.000Z</Time>
            <Position>
              <LatitudeDegrees>37.053488753736019134521484375</LatitudeDegrees>
              <LongitudeDegrees>-3.3690704405307769775390625</LongitudeDegrees>
            </Position>
            <AltitudeMeters>3296.800048828125</AltitudeMeters>
            <DistanceMeters>1765.2087327974</DistanceMeters>
          </Trackpoint>
          <Trackpoint>
            <Time>2019-07-14T09:22:35.000Z</Time>
            <Position>
              <LatitudeDegrees>37.05351213924586772918701171875</LatitudeDegrees>
              <LongitudeDegrees>-3.36894772946834564208984375</LongitudeDegrees>
            </Position>
            <AltitudeMeters>3299.800048828125</AltitudeMeters>
            <DistanceMeters>1776.4154407521</DistanceMeters>
          </Trackpoint>
          <Trackpoint>
            <Time>2019-07-14T09:22:44.000Z</Time>
            <Position>
              <LatitudeDegrees>37.05354130826890468597412109375</LatitudeDegrees>
              <LongitudeDegrees>-3.3689140342175960540771484375</LongitudeDegrees>
            </Position>
            <AltitudeMeters>3298</AltitudeMeters>
            <DistanceMeters>1780.8298382157</DistanceMeters>
          </Trackpoint>
          <Trackpoint>
            <Time>2019-07-14T09:22:49.000Z</Time>
            <Position>
              <LatitudeDegrees>37.0535660348832607269287109375</LatitudeDegrees>
              <LongitudeDegrees>-3.36887991987168788909912109375</LongitudeDegrees>
            </Position>
            <AltitudeMeters>3299.39990234375</AltitudeMeters>
            <DistanceMeters>1784.9237143594</DistanceMeters>
          </Trackpoint>
          <Trackpoint>
            <Time>2019-07-14T09:22:50.000Z</Time>
            <Position>
              <LatitudeDegrees>37.05356997437775135040283203125</LatitudeDegrees>
              <LongitudeDegrees>-3.36887237615883350372314453125</LongitudeDegrees>
            </Position>
            <AltitudeMeters>3299.60009765625</AltitudeMeters>
            <DistanceMeters>1785.7244236871</DistanceMeters>
          </Trackpoint>
          <Trackpoint>
            <Time>2019-07-14T09:22:51.000Z</Time>
            <Position>
              <LatitudeDegrees>37.053568549454212188720703125</LatitudeDegrees>
              <LongitudeDegrees>-3.368858881294727325439453125</LongitudeDegrees>
            </Position>
            <AltitudeMeters>3299.800048828125</AltitudeMeters>
            <DistanceMeters>1786.9339163013</DistanceMeters>
          </Trackpoint>
          <Trackpoint>
            <Time>2019-07-14T09:23:02.000Z</Time>
            <Position>
              <LatitudeDegrees>37.0536002330482006072998046875</LatitudeDegrees>
              <LongitudeDegrees>-3.3687638305127620697021484375</LongitudeDegrees>
            </Position>
            <AltitudeMeters>3301</AltitudeMeters>
            <DistanceMeters>1796.0841550298</DistanceMeters>
          </Trackpoint>
          <Trackpoint>
            <Time>2019-07-14T09:23:05.000Z</Time>
            <Position>
              <LatitudeDegrees>37.05361758358776569366455078125</LatitudeDegrees>
              <LongitudeDegrees>-3.36874044500291347503662109375</LongitudeDegrees>
            </Position>
            <AltitudeMeters>3300.800048828125</AltitudeMeters>
            <DistanceMeters>1798.9206666395</DistanceMeters>
          </Trackpoint>
          <Trackpoint>
            <Time>2019-07-14T09:23:19.000Z</Time>
            <Position>
              <LatitudeDegrees>37.053672485053539276123046875</LatitudeDegrees>
              <LongitudeDegrees>-3.3686414547264575958251953125</LongitudeDegrees>
            </Position>
            <AltitudeMeters>3302.199951171875</AltitudeMeters>
            <DistanceMeters>1809.6283685689</DistanceMeters>
          </Trackpoint>
          <Trackpoint>
            <Time>2019-07-14T09:23:36.000Z</Time>
            <Position>
              <LatitudeDegrees>37.05370961688458919525146484375</LatitudeDegrees>
              <LongitudeDegrees>-3.3685117028653621673583984375</LongitudeDegrees>
            </Position>
            <AltitudeMeters>3305.39990234375</AltitudeMeters>
            <DistanceMeters>1821.8724417932</DistanceMeters>
          </Trackpoint>
          <Trackpoint>
            <Time>2019-07-14T09:24:32.000Z</Time>
            <Position>
              <LatitudeDegrees>37.05368061549961566925048828125</LatitudeDegrees>
              <LongitudeDegrees>-3.36854246445000171661376953125</LongitudeDegrees>
            </Position>
            <AltitudeMeters>3305.199951171875</AltitudeMeters>
            <DistanceMeters>1826.1019312938</DistanceMeters>
          </Trackpoint>
          <Trackpoint>
            <Time>2019-07-14T09:24:46.000Z</Time>
            <Position>
              <LatitudeDegrees>37.0536847226321697235107421875</LatitudeDegrees>
              <LongitudeDegrees>-3.36854665540158748626708984375</LongitudeDegrees>
            </Position>
            <AltitudeMeters>3304.800048828125</AltitudeMeters>
            <DistanceMeters>1826.6953729348</DistanceMeters>
          </Trackpoint>
          <Trackpoint>
            <Time>2019-07-14T09:24:52.000Z</Time>
            <Position>
              <LatitudeDegrees>37.0536843873560428619384765625</LatitudeDegrees>
              <LongitudeDegrees>-3.3685049973428249359130859375</LongitudeDegrees>
            </Position>
            <AltitudeMeters>3304</AltitudeMeters>
            <DistanceMeters>1830.3977581176</DistanceMeters>
          </Trackpoint>
          <Trackpoint>
            <Time>2019-07-14T09:24:53.000Z</Time>
            <Position>
              <LatitudeDegrees>37.05369033850729465484619140625</LatitudeDegrees>
              <LongitudeDegrees>-3.36849032901227474212646484375</LongitudeDegrees>
            </Position>
            <AltitudeMeters>3304</AltitudeMeters>
            <DistanceMeters>1831.8606757904</DistanceMeters>
          </Trackpoint>
          <Trackpoint>
            <Time>2019-07-14T09:25:08.000Z</Time>
            <Position>
              <LatitudeDegrees>37.05376736819744110107421875</LatitudeDegrees>
              <LongitudeDegrees>-3.36838572286069393157958984375</LongitudeDegrees>
            </Position>
            <AltitudeMeters>3303.800048828125</AltitudeMeters>
            <DistanceMeters>1844.5038721113</DistanceMeters>
          </Trackpoint>
          <Trackpoint>
            <Time>2019-07-14T09:25:09.000Z</Time>
            <Position>
              <LatitudeDegrees>37.05377633683383464813232421875</LatitudeDegrees>
              <LongitudeDegrees>-3.36838237009942531585693359375</LongitudeDegrees>
            </Position>
            <AltitudeMeters>3304</AltitudeMeters>
            <DistanceMeters>1845.5448376119</DistanceMeters>
          </Trackpoint>
          <Trackpoint>
            <Time>2019-07-14T09:25:27.000Z</Time>
            <Position>
              <LatitudeDegrees>37.05388764850795269012451171875</LatitudeDegrees>
              <LongitudeDegrees>-3.368287570774555206298828125</LongitudeDegrees>
            </Position>
            <AltitudeMeters>3307.199951171875</AltitudeMeters>
            <DistanceMeters>1860.5247374657</DistanceMeters>
          </Trackpoint>
          <Trackpoint>
            <Time>2019-07-14T09:25:51.000Z</Time>
            <Position>
              <LatitudeDegrees>37.05397280864417552947998046875</LatitudeDegrees>
              <LongitudeDegrees>-3.368127308785915374755859375</LongitudeDegrees>
            </Position>
            <AltitudeMeters>3309.199951171875</AltitudeMeters>
            <DistanceMeters>1877.6274342172</DistanceMeters>
          </Trackpoint>
          <Trackpoint>
            <Time>2019-07-14T09:26:14.000Z</Time>
            <Position>
              <LatitudeDegrees>37.054036594927310943603515625</LatitudeDegrees>
              <LongitudeDegrees>-3.36797450669109821319580078125</LongitudeDegrees>
            </Position>
            <AltitudeMeters>3312</AltitudeMeters>
            <DistanceMeters>1892.945021372</DistanceMeters>
          </Trackpoint>
          <Trackpoint>
            <Time>2019-07-14T09:26:26.000Z</Time>
            <Position>
              <LatitudeDegrees>37.05405344255268573760986328125</LatitudeDegrees>
              <LongitudeDegrees>-3.3679224550724029541015625</LongitudeDegrees>
            </Position>
            <AltitudeMeters>3311.39990234375</AltitudeMeters>
            <DistanceMeters>1897.9346025925</DistanceMeters>
          </Trackpoint>
          <Trackpoint>
            <Time>2019-07-14T09:26:59.000Z</Time>
            <Position>
              <LatitudeDegrees>37.0541960187256336212158203125</LatitudeDegrees>
              <LongitudeDegrees>-3.36784936487674713134765625</LongitudeDegrees>
            </Position>
            <AltitudeMeters>3314.60009765625</AltitudeMeters>
            <DistanceMeters>1915.0805399745</DistanceMeters>
          </Trackpoint>
          <Trackpoint>
            <Time>2019-07-14T09:27:05.000Z</Time>
            <Position>
              <LatitudeDegrees>37.0542312227189540863037109375</LatitudeDegrees>
              <LongitudeDegrees>-3.3678515441715717315673828125</LongitudeDegrees>
            </Position>
            <AltitudeMeters>3315.800048828125</AltitudeMeters>
            <DistanceMeters>1919.003198545</DistanceMeters>
          </Trackpoint>
          <Trackpoint>
            <Time>2019-07-14T09:27:09.000Z</Time>
            <Position>
              <LatitudeDegrees>37.054243795573711395263671875</LatitudeDegrees>
              <LongitudeDegrees>-3.36781675927340984344482421875</LongitudeDegrees>
            </Position>
            <AltitudeMeters>3317.199951171875</AltitudeMeters>
            <DistanceMeters>1922.3950000412</DistanceMeters>
          </Trackpoint>
          <Trackpoint>
            <Time>2019-07-14T09:27:44.000Z</Time>
            <Position>
              <LatitudeDegrees>37.05433809198439121246337890625</LatitudeDegrees>
              <LongitudeDegrees>-3.36763151921331882476806640625</LongitudeDegrees>
            </Position>
            <AltitudeMeters>3320.39990234375</AltitudeMeters>
            <DistanceMeters>1941.9113681563</DistanceMeters>
          </Trackpoint>
          <Trackpoint>
            <Time>2019-07-14T09:27:58.000Z</Time>
            <Position>
              <LatitudeDegrees>37.0543549396097660064697265625</LatitudeDegrees>
              <LongitudeDegrees>-3.3675732649862766265869140625</LongitudeDegrees>
            </Position>
            <AltitudeMeters>3323.39990234375</AltitudeMeters>
            <DistanceMeters>1947.4147195346</DistanceMeters>
          </Trackpoint>
          <Trackpoint>
            <Time>2019-07-14T09:27:59.000Z</Time>
            <Position>
              <LatitudeDegrees>37.054353766143321990966796875</LatitudeDegrees>
              <LongitudeDegrees>-3.367572091519832611083984375</LongitudeDegrees>
            </Position>
            <AltitudeMeters>3323.60009765625</AltitudeMeters>
            <DistanceMeters>1947.6047729634</DistanceMeters>
          </Trackpoint>
          <Trackpoint>
            <Time>2019-07-14T09:28:03.000Z</Time>
            <Position>
              <LatitudeDegrees>37.0543713681399822235107421875</LatitudeDegrees>
              <LongitudeDegrees>-3.367562033236026763916015625</LongitudeDegrees>
            </Position>
            <AltitudeMeters>3322.199951171875</AltitudeMeters>
            <DistanceMeters>1949.7633649686</DistanceMeters>
          </Trackpoint>
          <Trackpoint>
            <Time>2019-07-14T09:28:04.000Z</Time>
            <Position>
              <LatitudeDegrees>37.0543790794909000396728515625</LatitudeDegrees>
              <LongitudeDegrees>-3.3675481192767620086669921875</LongitudeDegrees>
            </Position>
            <AltitudeMeters>3322.39990234375</AltitudeMeters>
            <DistanceMeters>1951.268871258</DistanceMeters>
          </Trackpoint>
          <Trackpoint>
            <Time>2019-07-14T09:28:05.000Z</Time>
            <Position>
              <LatitudeDegrees>37.05438922159373760223388671875</LatitudeDegrees>
              <LongitudeDegrees>-3.3675420843064785003662109375</LongitudeDegrees>
            </Position>
            <AltitudeMeters>3322.60009765625</AltitudeMeters>
            <DistanceMeters>1952.5187525423</DistanceMeters>
          </Trackpoint>
          <Trackpoint>
            <Time>2019-07-14T09:28:06.000Z</Time>
            <Position>
              <LatitudeDegrees>37.05439525656402111053466796875</LatitudeDegrees>
              <LongitudeDegrees>-3.36753177456557750701904296875</LongitudeDegrees>
            </Position>
            <AltitudeMeters>3322.60009765625</AltitudeMeters>
            <DistanceMeters>1953.6551067703</DistanceMeters>
          </Trackpoint>
          <Trackpoint>
            <Time>2019-07-14T09:29:01.000Z</Time>
            <Position>
              <LatitudeDegrees>37.05441839061677455902099609375</LatitudeDegrees>
              <LongitudeDegrees>-3.36753311567008495330810546875</LongitudeDegrees>
            </Position>
            <AltitudeMeters>3325.800048828125</AltitudeMeters>
            <DistanceMeters>1956.2331169066</DistanceMeters>
          </Trackpoint>
          <Trackpoint>
            <Time>2019-07-14T09:29:27.000Z</Time>
            <Position>
              <LatitudeDegrees>37.0545956678688526153564453125</LatitudeDegrees>
              <LongitudeDegrees>-3.36742448620498180389404296875</LongitudeDegrees>
            </Position>
            <AltitudeMeters>3328</AltitudeMeters>
            <DistanceMeters>1978.1976534165</DistanceMeters>
          </Trackpoint>
          <Trackpoint>
            <Time>2019-07-14T09:29:52.000Z</Time>
            <Position>
              <LatitudeDegrees>37.05479457043111324310302734375</LatitudeDegrees>
              <LongitudeDegrees>-3.3674767054617404937744140625</LongitudeDegrees>
            </Position>
            <AltitudeMeters>3329.39990234375</AltitudeMeters>
            <DistanceMeters>2000.8164069412</DistanceMeters>
          </Trackpoint>
          <Trackpoint>
            <Time>2019-07-14T09:30:15.000Z</Time>
            <Position>
              <LatitudeDegrees>37.0549936406314373016357421875</LatitudeDegrees>
              <LongitudeDegrees>-3.36749154143035411834716796875</LongitudeDegrees>
            </Position>
            <AltitudeMeters>3330.800048828125</AltitudeMeters>
            <DistanceMeters>2023.0124180835</DistanceMeters>
          </Trackpoint>
          <Trackpoint>
            <Time>2019-07-14T09:30:36.000Z</Time>
            <Position>
              <LatitudeDegrees>37.05514979548752307891845703125</LatitudeDegrees>
              <LongitudeDegrees>-3.36750830523669719696044921875</LongitudeDegrees>
            </Position>
            <AltitudeMeters>3331.800048828125</AltitudeMeters>
            <DistanceMeters>2040.4564863019</DistanceMeters>
          </Trackpoint>
          <Trackpoint>
            <Time>2019-07-14T09:30:58.000Z</Time>
            <Position>
              <LatitudeDegrees>37.0553505420684814453125</LatitudeDegrees>
              <LongitudeDegrees>-3.36754200048744678497314453125</LongitudeDegrees>
            </Position>
            <AltitudeMeters>3333.39990234375</AltitudeMeters>
            <DistanceMeters>2062.9996591512</DistanceMeters>
          </Trackpoint>
          <Trackpoint>
            <Time>2019-07-14T09:31:21.000Z</Time>
            <Position>
              <LatitudeDegrees>37.0555503666400909423828125</LatitudeDegrees>
              <LongitudeDegrees>-3.3675692416727542877197265625</LongitudeDegrees>
            </Position>
            <AltitudeMeters>3334</AltitudeMeters>
            <DistanceMeters>2085.3715392014</DistanceMeters>
          </Trackpoint>
          <Trackpoint>
            <Time>2019-07-14T09:31:53.000Z</Time>
            <Position>
              <LatitudeDegrees>37.05574013292789459228515625</LatitudeDegrees>
              <LongitudeDegrees>-3.3675746060907840728759765625</LongitudeDegrees>
            </Position>
            <AltitudeMeters>3336.60009765625</AltitudeMeters>
            <DistanceMeters>2106.4982667869</DistanceMeters>
          </Trackpoint>
          <Trackpoint>
            <Time>2019-07-14T09:32:15.000Z</Time>
            <Position>
              <LatitudeDegrees>37.05594222061336040496826171875</LatitudeDegrees>
              <LongitudeDegrees>-3.36756697855889797210693359375</LongitudeDegrees>
            </Position>
            <AltitudeMeters>3336.800048828125</AltitudeMeters>
            <DistanceMeters>2129.0013471722</DistanceMeters>
          </Trackpoint>
          <Trackpoint>
            <Time>2019-07-14T09:32:20.000Z</Time>
            <Position>
              <LatitudeDegrees>37.05598765052855014801025390625</LatitudeDegrees>
              <LongitudeDegrees>-3.3675608597695827484130859375</LongitudeDegrees>
            </Position>
            <AltitudeMeters>3337.39990234375</AltitudeMeters>
            <DistanceMeters>2134.0868303287</DistanceMeters>
          </Trackpoint>
          <Trackpoint>
            <Time>2019-07-14T09:32:22.000Z</Time>
            <Position>
              <LatitudeDegrees>37.05600759945809841156005859375</LatitudeDegrees>
              <LongitudeDegrees>-3.367566056549549102783203125</LongitudeDegrees>
            </Position>
            <AltitudeMeters>3337.39990234375</AltitudeMeters>
            <DistanceMeters>2136.355562039</DistanceMeters>
          </Trackpoint>
          <Trackpoint>
            <Time>2019-07-14T09:32:46.000Z</Time>
            <Position>
              <LatitudeDegrees>37.0562023110687732696533203125</LatitudeDegrees>
              <LongitudeDegrees>-3.3675786294043064117431640625</LongitudeDegrees>
            </Position>
            <AltitudeMeters>3340.39990234375</AltitudeMeters>
            <DistanceMeters>2158.0560103402</DistanceMeters>
          </Trackpoint>
          <Trackpoint>
            <Time>2019-07-14T09:33:10.000Z</Time>
            <Position>
              <LatitudeDegrees>37.05640573985874652862548828125</LatitudeDegrees>
              <LongitudeDegrees>-3.3676198683679103851318359375</LongitudeDegrees>
            </Position>
            <AltitudeMeters>3341.199951171875</AltitudeMeters>
            <DistanceMeters>2180.9923176601</DistanceMeters>
          </Trackpoint>
          <Trackpoint>
            <Time>2019-07-14T09:33:20.000Z</Time>
            <Position>
              <LatitudeDegrees>37.05649559386074542999267578125</LatitudeDegrees>
              <LongitudeDegrees>-3.36763612926006317138671875</LongitudeDegrees>
            </Position>
            <AltitudeMeters>3342</AltitudeMeters>
            <DistanceMeters>2191.0969242508</DistanceMeters>
          </Trackpoint>
          <Trackpoint>
            <Time>2019-07-14T09:33:43.000Z</Time>
            <Position>
              <LatitudeDegrees>37.0566944964230060577392578125</LatitudeDegrees>
              <LongitudeDegrees>-3.36767091415822505950927734375</LongitudeDegrees>
            </Position>
            <AltitudeMeters>3344.39990234375</AltitudeMeters>
            <DistanceMeters>2213.4498254002</DistanceMeters>
          </Trackpoint>
          <Trackpoint>
            <Time>2019-07-14T09:34:07.000Z</Time>
            <Position>
              <LatitudeDegrees>37.0569016970694065093994140625</LatitudeDegrees>
              <LongitudeDegrees>-3.36768801324069499969482421875</LongitudeDegrees>
            </Position>
            <AltitudeMeters>3346.39990234375</AltitudeMeters>
            <DistanceMeters>2236.561447624</DistanceMeters>
          </Trackpoint>
          <Trackpoint>
            <Time>2019-07-14T09:34:11.000Z</Time>
            <Position>
              <LatitudeDegrees>37.05693505704402923583984375</LatitudeDegrees>
              <LongitudeDegrees>-3.3676865883171558380126953125</LongitudeDegrees>
            </Position>
            <AltitudeMeters>3347</AltitudeMeters>
            <DistanceMeters>2240.2784379333</DistanceMeters>
          </Trackpoint>
          <Trackpoint>
            <Time>2019-07-14T09:34:22.000Z</Time>
            <Position>
              <LatitudeDegrees>37.05700973980128765106201171875</LatitudeDegrees>
              <LongitudeDegrees>-3.36763990111649036407470703125</LongitudeDegrees>
            </Position>
            <AltitudeMeters>3348.199951171875</AltitudeMeters>
            <DistanceMeters>2249.5677549425</DistanceMeters>
          </Trackpoint>
          <Trackpoint>
            <Time>2019-07-14T09:34:24.000Z</Time>
            <Position>
              <LatitudeDegrees>37.0570094883441925048828125</LatitudeDegrees>
              <LongitudeDegrees>-3.36761861108243465423583984375</LongitudeDegrees>
            </Position>
            <AltitudeMeters>3348.199951171875</AltitudeMeters>
            <DistanceMeters>2251.4587626823</DistanceMeters>
          </Trackpoint>
          <Trackpoint>
            <Time>2019-07-14T09:34:25.000Z</Time>
            <Position>
              <LatitudeDegrees>37.057008482515811920166015625</LatitudeDegrees>
              <LongitudeDegrees>-3.3676054514944553375244140625</LongitudeDegrees>
            </Position>
            <AltitudeMeters>3348.39990234375</AltitudeMeters>
            <DistanceMeters>2252.6380131953</DistanceMeters>
          </Trackpoint>
          <Trackpoint>
            <Time>2019-07-14T09:34:49.000Z</Time>
            <Position>
              <LatitudeDegrees>37.05698777921497821807861328125</LatitudeDegrees>
              <LongitudeDegrees>-3.367409817874431610107421875</LongitudeDegrees>
            </Position>
            <AltitudeMeters>3350</AltitudeMeters>
            <DistanceMeters>2270.1667718815</DistanceMeters>
          </Trackpoint>
          <Trackpoint>
            <Time>2019-07-14T09:35:03.000Z</Time>
            <Position>
              <LatitudeDegrees>37.0569798164069652557373046875</LatitudeDegrees>
              <LongitudeDegrees>-3.367301523685455322265625</LongitudeDegrees>
            </Position>
            <AltitudeMeters>3351.199951171875</AltitudeMeters>
            <DistanceMeters>2279.8268345093</DistanceMeters>
          </Trackpoint>
          <Trackpoint>
            <Time>2019-07-14T09:35:17.000Z</Time>
            <Position>
              <LatitudeDegrees>37.05694486387073993682861328125</LatitudeDegrees>
              <LongitudeDegrees>-3.367195911705493927001953125</LongitudeDegrees>
            </Position>
            <AltitudeMeters>3353</AltitudeMeters>
            <DistanceMeters>2289.9826965181</DistanceMeters>
          </Trackpoint>
          <Trackpoint>
            <Time>2019-07-14T09:35:36.000Z</Time>
            <Position>
              <LatitudeDegrees>37.05691770650446414947509765625</LatitudeDegrees>
              <LongitudeDegrees>-3.3671558462083339691162109375</LongitudeDegrees>
            </Position>
            <AltitudeMeters>3353.39990234375</AltitudeMeters>
            <DistanceMeters>2294.6515940899</DistanceMeters>
          </Trackpoint>
          <Trackpoint>
            <Time>2019-07-14T09:36:08.000Z</Time>
            <Position>
              <LatitudeDegrees>37.0568500645458698272705078125</LatitudeDegrees>
              <LongitudeDegrees>-3.36710094474256038665771484375</LongitudeDegrees>
            </Position>
            <AltitudeMeters>3354.199951171875</AltitudeMeters>
            <DistanceMeters>2303.6209280139</DistanceMeters>
          </Trackpoint>
          <Trackpoint>
            <Time>2019-07-14T09:36:29.000Z</Time>
            <Position>
              <LatitudeDegrees>37.0567176304757595062255859375</LatitudeDegrees>
              <LongitudeDegrees>-3.36699415929615497589111328125</LongitudeDegrees>
            </Position>
            <AltitudeMeters>3357.39990234375</AltitudeMeters>
            <DistanceMeters>2321.1491715348</DistanceMeters>
          </Trackpoint>
          <Trackpoint>
            <Time>2019-07-14T09:36:30.000Z</Time>
            <Position>
              <LatitudeDegrees>37.0567112602293491363525390625</LatitudeDegrees>
              <LongitudeDegrees>-3.3669875375926494598388671875</LongitudeDegrees>
            </Position>
            <AltitudeMeters>3357.39990234375</AltitudeMeters>
            <DistanceMeters>2322.0655759811</DistanceMeters>
          </Trackpoint>
          <Trackpoint>
            <Time>2019-07-14T09:36:53.000Z</Time>
            <Position>
              <LatitudeDegrees>37.05663154833018779754638671875</LatitudeDegrees>
              <LongitudeDegrees>-3.3668804168701171875</LongitudeDegrees>
            </Position>
            <AltitudeMeters>3360.39990234375</AltitudeMeters>
            <DistanceMeters>2335.0748685335</DistanceMeters>
          </Trackpoint>
          <Trackpoint>
            <Time>2019-07-14T09:37:15.000Z</Time>
            <Position>
              <LatitudeDegrees>37.05656566657125949859619140625</LatitudeDegrees>
              <LongitudeDegrees>-3.3667736314237117767333984375</LongitudeDegrees>
            </Position>
            <AltitudeMeters>3363.39990234375</AltitudeMeters>
            <DistanceMeters>2347.0640618689</DistanceMeters>
          </Trackpoint>
          <Trackpoint>
            <Time>2019-07-14T09:37:40.000Z</Time>
            <Position>
              <LatitudeDegrees>37.05647463910281658172607421875</LatitudeDegrees>
              <LongitudeDegrees>-3.36663834750652313232421875</LongitudeDegrees>
            </Position>
            <AltitudeMeters>3366.39990234375</AltitudeMeters>
            <DistanceMeters>2362.7817217251</DistanceMeters>
          </Trackpoint>
          <Trackpoint>
            <Time>2019-07-14T09:38:06.000Z</Time>
            <Position>
              <LatitudeDegrees>37.0563830249011516571044921875</LatitudeDegrees>
              <LongitudeDegrees>-3.366528041660785675048828125</LongitudeDegrees>
            </Position>
            <AltitudeMeters>3368.60009765625</AltitudeMeters>
            <DistanceMeters>2376.922833522</DistanceMeters>
          </Trackpoint>
          <Trackpoint>
            <Time>2019-07-14T09:38:39.000Z</Time>
            <Position>
              <LatitudeDegrees>37.056310437619686126708984375</LatitudeDegrees>
              <LongitudeDegrees>-3.366397283971309661865234375</LongitudeDegrees>
            </Position>
            <AltitudeMeters>3371.60009765625</AltitudeMeters>
            <DistanceMeters>2391.0706487051</DistanceMeters>
          </Trackpoint>
          <Trackpoint>
            <Time>2019-07-14T09:39:01.000Z</Time>
            <Position>
              <LatitudeDegrees>37.05632887780666351318359375</LatitudeDegrees>
              <LongitudeDegrees>-3.36627063341438770294189453125</LongitudeDegrees>
            </Position>
            <AltitudeMeters>3374.800048828125</AltitudeMeters>
            <DistanceMeters>2402.5054861289</DistanceMeters>
          </Trackpoint>
          <Trackpoint>
            <Time>2019-07-14T09:39:20.000Z</Time>
            <Position>
              <LatitudeDegrees>37.05632627941668033599853515625</LatitudeDegrees>
              <LongitudeDegrees>-3.36618647910654544830322265625</LongitudeDegrees>
            </Position>
            <AltitudeMeters>3377.800048828125</AltitudeMeters>
            <DistanceMeters>2409.9860866211</DistanceMeters>
          </Trackpoint>
          <Trackpoint>
            <Time>2019-07-14T09:40:04.000Z</Time>
            <Position>
              <LatitudeDegrees>37.05635058693587779998779296875</LatitudeDegrees>
              <LongitudeDegrees>-3.366077430546283721923828125</LongitudeDegrees>
            </Position>
            <AltitudeMeters>3380.800048828125</AltitudeMeters>
            <DistanceMeters>2420.0427687863</DistanceMeters>
          </Trackpoint>
          <Trackpoint>
            <Time>2019-07-14T09:40:26.000Z</Time>
            <Position>
              <LatitudeDegrees>37.056261487305164337158203125</LatitudeDegrees>
              <LongitudeDegrees>-3.3659904263913631439208984375</LongitudeDegrees>
            </Position>
            <AltitudeMeters>3384</AltitudeMeters>
            <DistanceMeters>2432.6150580796</DistanceMeters>
          </Trackpoint>
          <Trackpoint>
            <Time>2019-07-14T09:40:54.000Z</Time>
            <Position>
              <LatitudeDegrees>37.05613668076694011688232421875</LatitudeDegrees>
              <LongitudeDegrees>-3.36587391793727874755859375</LongitudeDegrees>
            </Position>
            <AltitudeMeters>3387</AltitudeMeters>
            <DistanceMeters>2449.9375706062</DistanceMeters>
          </Trackpoint>
          <Trackpoint>
            <Time>2019-07-14T09:41:11.000Z</Time>
            <Position>
              <LatitudeDegrees>37.05607498995959758758544921875</LatitudeDegrees>
              <LongitudeDegrees>-3.36583125405013561248779296875</LongitudeDegrees>
            </Position>
            <AltitudeMeters>3390.199951171875</AltitudeMeters>
            <DistanceMeters>2457.7805853796</DistanceMeters>
          </Trackpoint>
          <Trackpoint>
            <Time>2019-07-14T09:41:27.000Z</Time>
            <Position>
              <LatitudeDegrees>37.05605654977262020111083984375</LatitudeDegrees>
              <LongitudeDegrees>-3.3657507039606571197509765625</LongitudeDegrees>
            </Position>
            <AltitudeMeters>3393.199951171875</AltitudeMeters>
            <DistanceMeters>2465.2242772768</DistanceMeters>
          </Trackpoint>
          <Trackpoint>
            <Time>2019-07-14T09:43:05.000Z</Time>
            <Position>
              <LatitudeDegrees>37.05607138574123382568359375</LatitudeDegrees>
              <LongitudeDegrees>-3.36573452688753604888916015625</LongitudeDegrees>
            </Position>
            <AltitudeMeters>3393.60009765625</AltitudeMeters>
            <DistanceMeters>2467.4160803401</DistanceMeters>
          </Trackpoint>
          <Trackpoint>
            <Time>2019-07-14T09:44:35.000Z</Time>
            <Position>
              <LatitudeDegrees>37.05603442154824733734130859375</LatitudeDegrees>
              <LongitudeDegrees>-3.365713991224765777587890625</LongitudeDegrees>
            </Position>
            <AltitudeMeters>3395</AltitudeMeters>
            <DistanceMeters>2471.9175791505</DistanceMeters>
          </Trackpoint>
          <Trackpoint>
            <Time>2019-07-14T09:45:00.000Z</Time>
            <Position>
              <LatitudeDegrees>37.05605470575392246246337890625</LatitudeDegrees>
              <LongitudeDegrees>-3.36573620326817035675048828125</LongitudeDegrees>
            </Position>
            <AltitudeMeters>3392.800048828125</AltitudeMeters>
            <DistanceMeters>2474.916571671</DistanceMeters>
          </Trackpoint>
          <Trackpoint>
            <Time>2019-07-14T09:45:21.000Z</Time>
            <Position>
              <LatitudeDegrees>37.0560702122747898101806640625</LatitudeDegrees>
              <LongitudeDegrees>-3.36573779582977294921875</LongitudeDegrees>
            </Position>
            <AltitudeMeters>3392.39990234375</AltitudeMeters>
            <DistanceMeters>2476.64804081</DistanceMeters>
          </Trackpoint>
          <Trackpoint>
            <Time>2019-07-14T09:45:29.000Z</Time>
            <Position>
              <LatitudeDegrees>37.05607901327311992645263671875</LatitudeDegrees>
              <LongitudeDegrees>-3.3657443337142467498779296875</LongitudeDegrees>
            </Position>
            <AltitudeMeters>3393.800048828125</AltitudeMeters>
            <DistanceMeters>2477.7883613825</DistanceMeters>
          </Trackpoint>
          <Trackpoint>
            <Time>2019-07-14T09:45:40.000Z</Time>
            <Position>
              <LatitudeDegrees>37.056072056293487548828125</LatitudeDegrees>
              <LongitudeDegrees>-3.36573720909655094146728515625</LongitudeDegrees>
            </Position>
            <AltitudeMeters>3390.60009765625</AltitudeMeters>
            <DistanceMeters>2478.7895299423</DistanceMeters>
          </Trackpoint>
          <Trackpoint>
            <Time>2019-07-14T09:45:52.000Z</Time>
            <Position>
              <LatitudeDegrees>37.0560537837445735931396484375</LatitudeDegrees>
              <LongitudeDegrees>-3.3657118119299411773681640625</LongitudeDegrees>
            </Position>
            <AltitudeMeters>3392.800048828125</AltitudeMeters>
            <DistanceMeters>2481.8274137659</DistanceMeters>
          </Trackpoint>
          <Trackpoint>
            <Time>2019-07-14T09:47:10.000Z</Time>
            <Position>
              <LatitudeDegrees>37.05603525973856449127197265625</LatitudeDegrees>
              <LongitudeDegrees>-3.36570753715932369232177734375</LongitudeDegrees>
            </Position>
            <AltitudeMeters>3392.199951171875</AltitudeMeters>
            <DistanceMeters>2483.9223164252</DistanceMeters>
          </Trackpoint>
          <Trackpoint>
            <Time>2019-07-14T09:47:20.000Z</Time>
            <Position>
              <LatitudeDegrees>37.0560276322066783905029296875</LatitudeDegrees>
              <LongitudeDegrees>-3.365700580179691314697265625</LongitudeDegrees>
            </Position>
            <AltitudeMeters>3391.60009765625</AltitudeMeters>
            <DistanceMeters>2484.9676102833</DistanceMeters>
          </Trackpoint>
          <Trackpoint>
            <Time>2019-07-14T09:47:23.000Z</Time>
            <Position>
              <LatitudeDegrees>37.05602738074958324432373046875</LatitudeDegrees>
              <LongitudeDegrees>-3.3657004125416278839111328125</LongitudeDegrees>
            </Position>
            <AltitudeMeters>3389.199951171875</AltitudeMeters>
            <DistanceMeters>2484.9676102833</DistanceMeters>
          </Trackpoint>
          <Trackpoint>
            <Time>2019-07-14T09:47:28.000Z</Time>
            <Position>
              <LatitudeDegrees>37.05601749010384082794189453125</LatitudeDegrees>
              <LongitudeDegrees>-3.3657041005790233612060546875</LongitudeDegrees>
            </Position>
            <AltitudeMeters>3392.60009765625</AltitudeMeters>
            <DistanceMeters>2486.1197479648</DistanceMeters>
          </Trackpoint>
          <Trackpoint>
            <Time>2019-07-14T09:47:35.000Z</Time>
            <Position>
              <LatitudeDegrees>37.05602067522704601287841796875</LatitudeDegrees>
              <LongitudeDegrees>-3.36569915525615215301513671875</LongitudeDegrees>
            </Position>
            <AltitudeMeters>3393.800048828125</AltitudeMeters>
            <DistanceMeters>2486.6899082511</DistanceMeters>
          </Trackpoint>
          <Trackpoint>
            <Time>2019-07-14T09:48:17.000Z</Time>
            <Position>
              <LatitudeDegrees>37.05602453090250492095947265625</LatitudeDegrees>
              <LongitudeDegrees>-3.36569211445748805999755859375</LongitudeDegrees>
            </Position>
            <AltitudeMeters>3389.800048828125</AltitudeMeters>
            <DistanceMeters>2487.4381493482</DistanceMeters>
          </Trackpoint>
          <Trackpoint>
            <Time>2019-07-14T09:48:18.000Z</Time>
            <Position>
              <LatitudeDegrees>37.05602134577929973602294921875</LatitudeDegrees>
              <LongitudeDegrees>-3.365690521895885467529296875</LongitudeDegrees>
            </Position>
            <AltitudeMeters>3389.39990234375</AltitudeMeters>
            <DistanceMeters>2487.8061862304</DistanceMeters>
          </Trackpoint>
          <Trackpoint>
            <Time>2019-07-14T09:48:26.000Z</Time>
            <Position>
              <LatitudeDegrees>37.056028805673122406005859375</LatitudeDegrees>
              <LongitudeDegrees>-3.36568792350590229034423828125</LongitudeDegrees>
            </Position>
            <AltitudeMeters>3392.800048828125</AltitudeMeters>
            <DistanceMeters>2488.6666897275</DistanceMeters>
          </Trackpoint>
          <Trackpoint>
            <Time>2019-07-14T09:48:40.000Z</Time>
            <Position>
              <LatitudeDegrees>37.05601908266544342041015625</LatitudeDegrees>
              <LongitudeDegrees>-3.36568675003945827484130859375</LongitudeDegrees>
            </Position>
            <AltitudeMeters>3393</AltitudeMeters>
            <DistanceMeters>2489.750160972</DistanceMeters>
          </Trackpoint>
          <Trackpoint>
            <Time>2019-07-14T09:49:00.000Z</Time>
            <Position>
              <LatitudeDegrees>37.05601916648447513580322265625</LatitudeDegrees>
              <LongitudeDegrees>-3.3657017536461353302001953125</LongitudeDegrees>
            </Position>
            <AltitudeMeters>3390</AltitudeMeters>
            <DistanceMeters>2491.0805349732</DistanceMeters>
          </Trackpoint>
          <Trackpoint>
            <Time>2019-07-14T09:49:04.000Z</Time>
            <Position>
              <LatitudeDegrees>37.05602805130183696746826171875</LatitudeDegrees>
              <LongitudeDegrees>-3.365713655948638916015625</LongitudeDegrees>
            </Position>
            <AltitudeMeters>3393.199951171875</AltitudeMeters>
            <DistanceMeters>2492.5279387645</DistanceMeters>
          </Trackpoint>
          <Trackpoint>
            <Time>2019-07-14T09:50:09.000Z</Time>
            <Position>
              <LatitudeDegrees>37.05605939961969852447509765625</LatitudeDegrees>
              <LongitudeDegrees>-3.36573603563010692596435546875</LongitudeDegrees>
            </Position>
            <AltitudeMeters>3392.60009765625</AltitudeMeters>
            <DistanceMeters>2496.5449957226</DistanceMeters>
          </Trackpoint>
          <Trackpoint>
            <Time>2019-07-14T09:50:35.000Z</Time>
            <Position>
              <LatitudeDegrees>37.0560189150273799896240234375</LatitudeDegrees>
              <LongitudeDegrees>-3.3657158352434635162353515625</LongitudeDegrees>
            </Position>
            <AltitudeMeters>3390.60009765625</AltitudeMeters>
            <DistanceMeters>2501.3960140913</DistanceMeters>
          </Trackpoint>
          <Trackpoint>
            <Time>2019-07-14T09:50:58.000Z</Time>
            <Position>
              <LatitudeDegrees>37.05601640045642852783203125</LatitudeDegrees>
              <LongitudeDegrees>-3.36582002229988574981689453125</LongitudeDegrees>
            </Position>
            <AltitudeMeters>3390.199951171875</AltitudeMeters>
            <DistanceMeters>2510.6541718781</DistanceMeters>
          </Trackpoint>
          <Trackpoint>
            <Time>2019-07-14T09:51:13.000Z</Time>
            <Position>
              <LatitudeDegrees>37.0559662766754627227783203125</LatitudeDegrees>
              <LongitudeDegrees>-3.36593535728752613067626953125</LongitudeDegrees>
            </Position>
            <AltitudeMeters>3387</AltitudeMeters>
            <DistanceMeters>2522.3192574729</DistanceMeters>
          </Trackpoint>
          <Trackpoint>
            <Time>2019-07-14T09:51:21.000Z</Time>
            <Position>
              <LatitudeDegrees>37.05590131692588329315185546875</LatitudeDegrees>
              <LongitudeDegrees>-3.36598548106849193572998046875</LongitudeDegrees>
            </Position>
            <AltitudeMeters>3386</AltitudeMeters>
            <DistanceMeters>2530.8102014916</DistanceMeters>
          </Trackpoint>
          <Trackpoint>
            <Time>2019-07-14T09:51:22.000Z</Time>
            <Position>
              <LatitudeDegrees>37.055891342461109161376953125</LatitudeDegrees>
              <LongitudeDegrees>-3.365985564887523651123046875</LongitudeDegrees>
            </Position>
            <AltitudeMeters>3385.800048828125</AltitudeMeters>
            <DistanceMeters>2531.9183938921</DistanceMeters>
          </Trackpoint>
          <Trackpoint>
            <Time>2019-07-14T09:51:35.000Z</Time>
            <Position>
              <LatitudeDegrees>37.055785395205020904541015625</LatitudeDegrees>
              <LongitudeDegrees>-3.366014063358306884765625</LongitudeDegrees>
            </Position>
            <AltitudeMeters>3384.199951171875</AltitudeMeters>
            <DistanceMeters>2543.9789275187</DistanceMeters>
          </Trackpoint>
          <Trackpoint>
            <Time>2019-07-14T09:51:37.000Z</Time>
            <Position>
              <LatitudeDegrees>37.0557724870741367340087890625</LatitudeDegrees>
              <LongitudeDegrees>-3.36602923460304737091064453125</LongitudeDegrees>
            </Position>
            <AltitudeMeters>3384.199951171875</AltitudeMeters>
            <DistanceMeters>2545.9494434082</DistanceMeters>
          </Trackpoint>
          <Trackpoint>
            <Time>2019-07-14T09:51:38.000Z</Time>
            <Position>
              <LatitudeDegrees>37.05576268024742603302001953125</LatitudeDegrees>
              <LongitudeDegrees>-3.36602940224111080169677734375</LongitudeDegrees>
            </Position>
            <AltitudeMeters>3384.39990234375</AltitudeMeters>
            <DistanceMeters>2547.0412172358</DistanceMeters>
          </Trackpoint>
          <Trackpoint>
            <Time>2019-07-14T09:51:39.000Z</Time>
            <Position>
              <LatitudeDegrees>37.05575362779200077056884765625</LatitudeDegrees>
              <LongitudeDegrees>-3.366030156612396240234375</LongitudeDegrees>
            </Position>
            <AltitudeMeters>3384.800048828125</AltitudeMeters>
            <DistanceMeters>2548.0558249012</DistanceMeters>
          </Trackpoint>
          <Trackpoint>
            <Time>2019-07-14T09:51:40.000Z</Time>
            <Position>
              <LatitudeDegrees>37.05574407242238521575927734375</LatitudeDegrees>
              <LongitudeDegrees>-3.3660341799259185791015625</LongitudeDegrees>
            </Position>
            <AltitudeMeters>3385.39990234375</AltitudeMeters>
            <DistanceMeters>2549.1801961487</DistanceMeters>
          </Trackpoint>
          <Trackpoint>
            <Time>2019-07-14T09:51:41.000Z</Time>
            <Position>
              <LatitudeDegrees>37.05573468469083309173583984375</LatitudeDegrees>
              <LongitudeDegrees>-3.366037197411060333251953125</LongitudeDegrees>
            </Position>
            <AltitudeMeters>3385.800048828125</AltitudeMeters>
            <DistanceMeters>2550.2636673932</DistanceMeters>
          </Trackpoint>
          <Trackpoint>
            <Time>2019-07-14T09:51:42.000Z</Time>
            <Position>
              <LatitudeDegrees>37.0557247102260589599609375</LatitudeDegrees>
              <LongitudeDegrees>-3.36603820323944091796875</LongitudeDegrees>
            </Position>
            <AltitudeMeters>3385.60009765625</AltitudeMeters>
            <DistanceMeters>2551.3799785278</DistanceMeters>
          </Trackpoint>
          <Trackpoint>
            <Time>2019-07-14T09:51:49.000Z</Time>
            <Position>
              <LatitudeDegrees>37.05564365722239017486572265625</LatitudeDegrees>
              <LongitudeDegrees>-3.366048596799373626708984375</LongitudeDegrees>
            </Position>
            <AltitudeMeters>3382.60009765625</AltitudeMeters>
            <DistanceMeters>2560.4484351867</DistanceMeters>
          </Trackpoint>
          <Trackpoint>
            <Time>2019-07-14T09:51:51.000Z</Time>
            <Position>
              <LatitudeDegrees>37.05562236718833446502685546875</LatitudeDegrees>
              <LongitudeDegrees>-3.3660578168928623199462890625</LongitudeDegrees>
            </Position>
            <AltitudeMeters>3381.800048828125</AltitudeMeters>
            <DistanceMeters>2562.9590114867</DistanceMeters>
          </Trackpoint>
          <Trackpoint>
            <Time>2019-07-14T09:52:05.000Z</Time>
            <Position>
              <LatitudeDegrees>37.055486999452114105224609375</LatitudeDegrees>
              <LongitudeDegrees>-3.36606728844344615936279296875</LongitudeDegrees>
            </Position>
            <AltitudeMeters>3381.199951171875</AltitudeMeters>
            <DistanceMeters>2578.0494212811</DistanceMeters>
          </Trackpoint>
          <Trackpoint>
            <Time>2019-07-14T09:52:06.000Z</Time>
            <Position>
              <LatitudeDegrees>37.05547568388283252716064453125</LatitudeDegrees>
              <LongitudeDegrees>-3.36606645025312900543212890625</LongitudeDegrees>
            </Position>
            <AltitudeMeters>3380.39990234375</AltitudeMeters>
            <DistanceMeters>2579.3100931076</DistanceMeters>
          </Trackpoint>
          <Trackpoint>
            <Time>2019-07-14T09:52:07.000Z</Time>
            <Position>
              <LatitudeDegrees>37.05546394921839237213134765625</LatitudeDegrees>
              <LongitudeDegrees>-3.36606695316731929779052734375</LongitudeDegrees>
            </Position>
            <AltitudeMeters>3379.800048828125</AltitudeMeters>
            <DistanceMeters>2580.6130337707</DistanceMeters>
          </Trackpoint>
          <Trackpoint>
            <Time>2019-07-14T09:52:08.000Z</Time>
            <Position>
              <LatitudeDegrees>37.0554506219923496246337890625</LatitudeDegrees>
              <LongitudeDegrees>-3.366072736680507659912109375</LongitudeDegrees>
            </Position>
            <AltitudeMeters>3379.60009765625</AltitudeMeters>
            <DistanceMeters>2582.1831327705</DistanceMeters>
          </Trackpoint>
          <Trackpoint>
            <Time>2019-07-14T09:52:25.000Z</Time>
            <Position>
              <LatitudeDegrees>37.05540125258266925811767578125</LatitudeDegrees>
              <LongitudeDegrees>-3.36612110026180744171142578125</LongitudeDegrees>
            </Position>
            <AltitudeMeters>3375.60009765625</AltitudeMeters>
            <DistanceMeters>2589.1583784206</DistanceMeters>
          </Trackpoint>
          <Trackpoint>
            <Time>2019-07-14T09:52:31.000Z</Time>
            <Position>
              <LatitudeDegrees>37.055377028882503509521484375</LatitudeDegrees>
              <LongitudeDegrees>-3.36614423431456089019775390625</LongitudeDegrees>
            </Position>
            <AltitudeMeters>3376.39990234375</AltitudeMeters>
            <DistanceMeters>2592.5475165466</DistanceMeters>
          </Trackpoint>
          <Trackpoint>
            <Time>2019-07-14T09:52:51.000Z</Time>
            <Position>
              <LatitudeDegrees>37.05532833002507686614990234375</LatitudeDegrees>
              <LongitudeDegrees>-3.3662432245910167694091796875</LongitudeDegrees>
            </Position>
            <AltitudeMeters>3374.39990234375</AltitudeMeters>
            <DistanceMeters>2602.8766187915</DistanceMeters>
          </Trackpoint>
          <Trackpoint>
            <Time>2019-07-14T09:52:57.000Z</Time>
            <Position>
              <LatitudeDegrees>37.055303938686847686767578125</LatitudeDegrees>
              <LongitudeDegrees>-3.36627851240336894989013671875</LongitudeDegrees>
            </Position>
            <AltitudeMeters>3374.60009765625</AltitudeMeters>
            <DistanceMeters>2607.0220060439</DistanceMeters>
          </Trackpoint>
          <Trackpoint>
            <Time>2019-07-14T09:53:12.000Z</Time>
            <Position>
              <LatitudeDegrees>37.05522908829152584075927734375</LatitudeDegrees>
              <LongitudeDegrees>-3.36639937944710254669189453125</LongitudeDegrees>
            </Position>
            <AltitudeMeters>3371.60009765625</AltitudeMeters>
            <DistanceMeters>2620.6108261988</DistanceMeters>
          </Trackpoint>
          <Trackpoint>
            <Time>2019-07-14T09:53:20.000Z</Time>
            <Position>
              <LatitudeDegrees>37.055206708610057830810546875</LatitudeDegrees>
              <LongitudeDegrees>-3.36646190844476222991943359375</LongitudeDegrees>
            </Position>
            <AltitudeMeters>3369.39990234375</AltitudeMeters>
            <DistanceMeters>2626.6977304736</DistanceMeters>
          </Trackpoint>
          <Trackpoint>
            <Time>2019-07-14T09:53:30.000Z</Time>
            <Position>
              <LatitudeDegrees>37.0551790483295917510986328125</LatitudeDegrees>
              <LongitudeDegrees>-3.3665322326123714447021484375</LongitudeDegrees>
            </Position>
            <AltitudeMeters>3366.199951171875</AltitudeMeters>
            <DistanceMeters>2633.6619634235</DistanceMeters>
          </Trackpoint>
          <Trackpoint>
            <Time>2019-07-14T09:53:40.000Z</Time>
            <Position>
              <LatitudeDegrees>37.0551213808357715606689453125</LatitudeDegrees>
              <LongitudeDegrees>-3.3665872178971767425537109375</LongitudeDegrees>
            </Position>
            <AltitudeMeters>3363.39990234375</AltitudeMeters>
            <DistanceMeters>2641.7274870086</DistanceMeters>
          </Trackpoint>
          <Trackpoint>
            <Time>2019-07-14T09:53:41.000Z</Time>
            <Position>
              <LatitudeDegrees>37.0551173575222492218017578125</LatitudeDegrees>
              <LongitudeDegrees>-3.366597779095172882080078125</LongitudeDegrees>
            </Position>
            <AltitudeMeters>3363.199951171875</AltitudeMeters>
            <DistanceMeters>2642.7684525091</DistanceMeters>
          </Trackpoint>
          <Trackpoint>
            <Time>2019-07-14T09:53:53.000Z</Time>
            <Position>
              <LatitudeDegrees>37.05506622791290283203125</LatitudeDegrees>
              <LongitudeDegrees>-3.36669140495359897613525390625</LongitudeDegrees>
            </Position>
            <AltitudeMeters>3361.39990234375</AltitudeMeters>
            <DistanceMeters>2652.8457656276</DistanceMeters>
          </Trackpoint>
          <Trackpoint>
            <Time>2019-07-14T09:54:03.000Z</Time>
            <Position>
              <LatitudeDegrees>37.05508223734796047210693359375</LatitudeDegrees>
              <LongitudeDegrees>-3.36675862781703472137451171875</LongitudeDegrees>
            </Position>
            <AltitudeMeters>3357.199951171875</AltitudeMeters>
            <DistanceMeters>2659.0770840041</DistanceMeters>
          </Trackpoint>
          <Trackpoint>
            <Time>2019-07-14T09:54:04.000Z</Time>
            <Position>
              <LatitudeDegrees>37.0550855062901973724365234375</LatitudeDegrees>
              <LongitudeDegrees>-3.36676575243473052978515625</LongitudeDegrees>
            </Position>
            <AltitudeMeters>3357.199951171875</AltitudeMeters>
            <DistanceMeters>2659.8131577685</DistanceMeters>
          </Trackpoint>
          <Trackpoint>
            <Time>2019-07-14T09:54:19.000Z</Time>
            <Position>
              <LatitudeDegrees>37.05504032783210277557373046875</LatitudeDegrees>
              <LongitudeDegrees>-3.36686591617763042449951171875</LongitudeDegrees>
            </Position>
            <AltitudeMeters>3355.60009765625</AltitudeMeters>
            <DistanceMeters>2670.0328380057</DistanceMeters>
          </Trackpoint>
          <Trackpoint>
            <Time>2019-07-14T09:54:20.000Z</Time>
            <Position>
              <LatitudeDegrees>37.055031023919582366943359375</LatitudeDegrees>
              <LongitudeDegrees>-3.36686893366277217864990234375</LongitudeDegrees>
            </Position>
            <AltitudeMeters>3355.60009765625</AltitudeMeters>
            <DistanceMeters>2671.10373469</DistanceMeters>
          </Trackpoint>
          <Trackpoint>
            <Time>2019-07-14T09:54:30.000Z</Time>
            <Position>
              <LatitudeDegrees>37.05496229231357574462890625</LatitudeDegrees>
              <LongitudeDegrees>-3.3669141121208667755126953125</LongitudeDegrees>
            </Position>
            <AltitudeMeters>3352.60009765625</AltitudeMeters>
            <DistanceMeters>2679.7422850159</DistanceMeters>
          </Trackpoint>
          <Trackpoint>
            <Time>2019-07-14T09:54:32.000Z</Time>
            <Position>
              <LatitudeDegrees>37.0549495518207550048828125</LatitudeDegrees>
              <LongitudeDegrees>-3.3669305406510829925537109375</LongitudeDegrees>
            </Position>
            <AltitudeMeters>3352.60009765625</AltitudeMeters>
            <DistanceMeters>2681.7759455115</DistanceMeters>
          </Trackpoint>
          <Trackpoint>
            <Time>2019-07-14T09:54:33.000Z</Time>
            <Position>
              <LatitudeDegrees>37.054942511022090911865234375</LatitudeDegrees>
              <LongitudeDegrees>-3.36693716235458850860595703125</LongitudeDegrees>
            </Position>
            <AltitudeMeters>3352</AltitudeMeters>
            <DistanceMeters>2682.7543054161</DistanceMeters>
          </Trackpoint>
          <Trackpoint>
            <Time>2019-07-14T09:54:35.000Z</Time>
            <Position>
              <LatitudeDegrees>37.0549322851002216339111328125</LatitudeDegrees>
              <LongitudeDegrees>-3.3669473044574260711669921875</LongitudeDegrees>
            </Position>
            <AltitudeMeters>3351</AltitudeMeters>
            <DistanceMeters>2684.2048252579</DistanceMeters>
          </Trackpoint>
          <Trackpoint>
            <Time>2019-07-14T09:54:37.000Z</Time>
            <Position>
              <LatitudeDegrees>37.054916359484195709228515625</LatitudeDegrees>
              <LongitudeDegrees>-3.36694772355258464813232421875</LongitudeDegrees>
            </Position>
            <AltitudeMeters>3350.800048828125</AltitudeMeters>
            <DistanceMeters>2685.9775256281</DistanceMeters>
          </Trackpoint>
          <Trackpoint>
            <Time>2019-07-14T09:54:56.000Z</Time>
            <Position>
              <LatitudeDegrees>37.0548783056437969207763671875</LatitudeDegrees>
              <LongitudeDegrees>-3.36700304411351680755615234375</LongitudeDegrees>
            </Position>
            <AltitudeMeters>3348.199951171875</AltitudeMeters>
            <DistanceMeters>2692.463751507</DistanceMeters>
          </Trackpoint>
          <Trackpoint>
            <Time>2019-07-14T09:55:10.000Z</Time>
            <Position>
              <LatitudeDegrees>37.05482742749154567718505859375</LatitudeDegrees>
              <LongitudeDegrees>-3.3670733682811260223388671875</LongitudeDegrees>
            </Position>
            <AltitudeMeters>3345</AltitudeMeters>
            <DistanceMeters>2700.8949294655</DistanceMeters>
          </Trackpoint>
          <Trackpoint>
            <Time>2019-07-14T09:55:11.000Z</Time>
            <Position>
              <LatitudeDegrees>37.0548208057880401611328125</LatitudeDegrees>
              <LongitudeDegrees>-3.367083258926868438720703125</LongitudeDegrees>
            </Position>
            <AltitudeMeters>3344.800048828125</AltitudeMeters>
            <DistanceMeters>2702.0431416239</DistanceMeters>
          </Trackpoint>
          <Trackpoint>
            <Time>2019-07-14T09:55:27.000Z</Time>
            <Position>
              <LatitudeDegrees>37.05474277026951313018798828125</LatitudeDegrees>
              <LongitudeDegrees>-3.367112763226032257080078125</LongitudeDegrees>
            </Position>
            <AltitudeMeters>3341.800048828125</AltitudeMeters>
            <DistanceMeters>2711.1150828004</DistanceMeters>
          </Trackpoint>
          <Trackpoint>
            <Time>2019-07-14T09:55:41.000Z</Time>
            <Position>
              <LatitudeDegrees>37.0546516589820384979248046875</LatitudeDegrees>
              <LongitudeDegrees>-3.367156349122524261474609375</LongitudeDegrees>
            </Position>
            <AltitudeMeters>3338.60009765625</AltitudeMeters>
            <DistanceMeters>2721.9697793619</DistanceMeters>
          </Trackpoint>
          <Trackpoint>
            <Time>2019-07-14T09:55:42.000Z</Time>
            <Position>
              <LatitudeDegrees>37.05464688129723072052001953125</LatitudeDegrees>
              <LongitudeDegrees>-3.36716213263571262359619140625</LongitudeDegrees>
            </Position>
            <AltitudeMeters>3338.39990234375</AltitudeMeters>
            <DistanceMeters>2722.711961727</DistanceMeters>
          </Trackpoint>
          <Trackpoint>
            <Time>2019-07-14T09:56:02.000Z</Time>
            <Position>
              <LatitudeDegrees>37.05450036562979221343994140625</LatitudeDegrees>
              <LongitudeDegrees>-3.36722667329013347625732421875</LongitudeDegrees>
            </Position>
            <AltitudeMeters>3335.199951171875</AltitudeMeters>
            <DistanceMeters>2739.9979453418</DistanceMeters>
          </Trackpoint>
          <Trackpoint>
            <Time>2019-07-14T09:56:19.000Z</Time>
            <Position>
              <LatitudeDegrees>37.0543916523456573486328125</LatitudeDegrees>
              <LongitudeDegrees>-3.36727964691817760467529296875</LongitudeDegrees>
            </Position>
            <AltitudeMeters>3332</AltitudeMeters>
            <DistanceMeters>2752.9808343463</DistanceMeters>
          </Trackpoint>
          <Trackpoint>
            <Time>2019-07-14T09:56:26.000Z</Time>
            <Position>
              <LatitudeDegrees>37.0543291233479976654052734375</LatitudeDegrees>
              <LongitudeDegrees>-3.36728551425039768218994140625</LongitudeDegrees>
            </Position>
            <AltitudeMeters>3331.800048828125</AltitudeMeters>
            <DistanceMeters>2759.9599626829</DistanceMeters>
          </Trackpoint>
          <Trackpoint>
            <Time>2019-07-14T09:56:27.000Z</Time>
            <Position>
              <LatitudeDegrees>37.05431646667420864105224609375</LatitudeDegrees>
              <LongitudeDegrees>-3.36728484369814395904541015625</LongitudeDegrees>
            </Position>
            <AltitudeMeters>3331.60009765625</AltitudeMeters>
            <DistanceMeters>2761.3726363515</DistanceMeters>
          </Trackpoint>
          <Trackpoint>
            <Time>2019-07-14T09:56:38.000Z</Time>
            <Position>
              <LatitudeDegrees>37.054239772260189056396484375</LatitudeDegrees>
              <LongitudeDegrees>-3.367281071841716766357421875</LongitudeDegrees>
            </Position>
            <AltitudeMeters>3328.39990234375</AltitudeMeters>
            <DistanceMeters>2769.9155326882</DistanceMeters>
          </Trackpoint>
          <Trackpoint>
            <Time>2019-07-14T09:56:53.000Z</Time>
            <Position>
              <LatitudeDegrees>37.05413659103214740753173828125</LatitudeDegrees>
              <LongitudeDegrees>-3.367277719080448150634765625</LongitudeDegrees>
            </Position>
            <AltitudeMeters>3327.199951171875</AltitudeMeters>
            <DistanceMeters>2781.4035511087</DistanceMeters>
          </Trackpoint>
          <Trackpoint>
            <Time>2019-07-14T09:57:04.000Z</Time>
            <Position>
              <LatitudeDegrees>37.05405344255268573760986328125</LatitudeDegrees>
              <LongitudeDegrees>-3.36722499690949916839599609375</LongitudeDegrees>
            </Position>
            <AltitudeMeters>3327.199951171875</AltitudeMeters>
            <DistanceMeters>2791.7758377781</DistanceMeters>
          </Trackpoint>
          <Trackpoint>
            <Time>2019-07-14T09:57:12.000Z</Time>
            <Position>
              <LatitudeDegrees>37.05397800542414188385009765625</LatitudeDegrees>
              <LongitudeDegrees>-3.36723337881267070770263671875</LongitudeDegrees>
            </Position>
            <AltitudeMeters>3325.800048828125</AltitudeMeters>
            <DistanceMeters>2800.2048733968</DistanceMeters>
          </Trackpoint>
          <Trackpoint>
            <Time>2019-07-14T09:57:23.000Z</Time>
            <Position>
              <LatitudeDegrees>37.0539264567196369171142578125</LatitudeDegrees>
              <LongitudeDegrees>-3.36733127944171428680419921875</LongitudeDegrees>
            </Position>
            <AltitudeMeters>3324.60009765625</AltitudeMeters>
            <DistanceMeters>2810.6236328687</DistanceMeters>
          </Trackpoint>
          <Trackpoint>
            <Time>2019-07-14T09:57:36.000Z</Time>
            <Position>
              <LatitudeDegrees>37.05382931046187877655029296875</LatitudeDegrees>
              <LongitudeDegrees>-3.367357514798641204833984375</LongitudeDegrees>
            </Position>
            <AltitudeMeters>3322.39990234375</AltitudeMeters>
            <DistanceMeters>2821.6843505517</DistanceMeters>
          </Trackpoint>
          <Trackpoint>
            <Time>2019-07-14T09:57:49.000Z</Time>
            <Position>
              <LatitudeDegrees>37.05374951474368572235107421875</LatitudeDegrees>
              <LongitudeDegrees>-3.3674244023859500885009765625</LongitudeDegrees>
            </Position>
            <AltitudeMeters>3321</AltitudeMeters>
            <DistanceMeters>2832.3696809891</DistanceMeters>
          </Trackpoint>
          <Trackpoint>
            <Time>2019-07-14T09:57:50.000Z</Time>
            <Position>
              <LatitudeDegrees>37.0537433959543704986572265625</LatitudeDegrees>
              <LongitudeDegrees>-3.36743169464170932769775390625</LongitudeDegrees>
            </Position>
            <AltitudeMeters>3320.800048828125</AltitudeMeters>
            <DistanceMeters>2833.3103974669</DistanceMeters>
          </Trackpoint>
          <Trackpoint>
            <Time>2019-07-14T09:58:07.000Z</Time>
            <Position>
              <LatitudeDegrees>37.05367206595838069915771484375</LatitudeDegrees>
              <LongitudeDegrees>-3.3675655536353588104248046875</LongitudeDegrees>
            </Position>
            <AltitudeMeters>3317.39990234375</AltitudeMeters>
            <DistanceMeters>2847.6080500902</DistanceMeters>
          </Trackpoint>
          <Trackpoint>
            <Time>2019-07-14T09:58:24.000Z</Time>
            <Position>
              <LatitudeDegrees>37.0536032505333423614501953125</LatitudeDegrees>
              <LongitudeDegrees>-3.36767761968076229095458984375</LongitudeDegrees>
            </Position>
            <AltitudeMeters>3314.39990234375</AltitudeMeters>
            <DistanceMeters>2860.1681231583</DistanceMeters>
          </Trackpoint>
          <Trackpoint>
            <Time>2019-07-14T09:58:25.000Z</Time>
            <Position>
              <LatitudeDegrees>37.05359528772532939910888671875</LatitudeDegrees>
              <LongitudeDegrees>-3.36768197827041149139404296875</LongitudeDegrees>
            </Position>
            <AltitudeMeters>3314.39990234375</AltitudeMeters>
            <DistanceMeters>2861.1418572219</DistanceMeters>
          </Trackpoint>
          <Trackpoint>
            <Time>2019-07-14T09:58:35.000Z</Time>
            <Position>
              <LatitudeDegrees>37.05353510566055774688720703125</LatitudeDegrees>
              <LongitudeDegrees>-3.3677506260573863983154296875</LongitudeDegrees>
            </Position>
            <AltitudeMeters>3314</AltitudeMeters>
            <DistanceMeters>2870.2003507306</DistanceMeters>
          </Trackpoint>
          <Trackpoint>
            <Time>2019-07-14T09:58:36.000Z</Time>
            <Position>
              <LatitudeDegrees>37.053528986871242523193359375</LatitudeDegrees>
              <LongitudeDegrees>-3.36775775067508220672607421875</LongitudeDegrees>
            </Position>
            <AltitudeMeters>3313.800048828125</AltitudeMeters>
            <DistanceMeters>2871.1314185791</DistanceMeters>
          </Trackpoint>
          <Trackpoint>
            <Time>2019-07-14T09:58:47.000Z</Time>
            <Position>
              <LatitudeDegrees>37.05345279537141323089599609375</LatitudeDegrees>
              <LongitudeDegrees>-3.36781273595988750457763671875</LongitudeDegrees>
            </Position>
            <AltitudeMeters>3311.60009765625</AltitudeMeters>
            <DistanceMeters>2880.9177861772</DistanceMeters>
          </Trackpoint>
          <Trackpoint>
            <Time>2019-07-14T09:58:48.000Z</Time>
            <Position>
              <LatitudeDegrees>37.05345086753368377685546875</LatitudeDegrees>
              <LongitudeDegrees>-3.36782664991915225982666015625</LongitudeDegrees>
            </Position>
            <AltitudeMeters>3311.39990234375</AltitudeMeters>
            <DistanceMeters>2882.17127463</DistanceMeters>
          </Trackpoint>
          <Trackpoint>
            <Time>2019-07-14T09:58:51.000Z</Time>
            <Position>
              <LatitudeDegrees>37.053443826735019683837890625</LatitudeDegrees>
              <LongitudeDegrees>-3.367854058742523193359375</LongitudeDegrees>
            </Position>
            <AltitudeMeters>3311.199951171875</AltitudeMeters>
            <DistanceMeters>2884.7299472198</DistanceMeters>
          </Trackpoint>
          <Trackpoint>
            <Time>2019-07-14T09:58:52.000Z</Time>
            <Position>
              <LatitudeDegrees>37.053435780107975006103515625</LatitudeDegrees>
              <LongitudeDegrees>-3.367860428988933563232421875</LongitudeDegrees>
            </Position>
            <AltitudeMeters>3311</AltitudeMeters>
            <DistanceMeters>2885.7881199274</DistanceMeters>
          </Trackpoint>
          <Trackpoint>
            <Time>2019-07-14T09:58:53.000Z</Time>
            <Position>
              <LatitudeDegrees>37.05342882312834262847900390625</LatitudeDegrees>
              <LongitudeDegrees>-3.367864787578582763671875</LongitudeDegrees>
            </Position>
            <AltitudeMeters>3310.60009765625</AltitudeMeters>
            <DistanceMeters>2886.6590541507</DistanceMeters>
          </Trackpoint>
          <Trackpoint>
            <Time>2019-07-14T09:58:54.000Z</Time>
            <Position>
              <LatitudeDegrees>37.05342127941548824310302734375</LatitudeDegrees>
              <LongitudeDegrees>-3.36787409149110317230224609375</LongitudeDegrees>
            </Position>
            <AltitudeMeters>3310</AltitudeMeters>
            <DistanceMeters>2887.8383046636</DistanceMeters>
          </Trackpoint>
          <Trackpoint>
            <Time>2019-07-14T09:58:55.000Z</Time>
            <Position>
              <LatitudeDegrees>37.05341490916907787322998046875</LatitudeDegrees>
              <LongitudeDegrees>-3.3678847365081310272216796875</LongitudeDegrees>
            </Position>
            <AltitudeMeters>3309.800048828125</AltitudeMeters>
            <DistanceMeters>2889.0175551766</DistanceMeters>
          </Trackpoint>
          <Trackpoint>
            <Time>2019-07-14T09:58:56.000Z</Time>
            <Position>
              <LatitudeDegrees>37.0534097962081432342529296875</LatitudeDegrees>
              <LongitudeDegrees>-3.367891609668731689453125</LongitudeDegrees>
            </Position>
            <AltitudeMeters>3309.60009765625</AltitudeMeters>
            <DistanceMeters>2889.8459788664</DistanceMeters>
          </Trackpoint>
          <Trackpoint>
            <Time>2019-07-14T09:59:01.000Z</Time>
            <Position>
              <LatitudeDegrees>37.0533913560211658477783203125</LatitudeDegrees>
              <LongitudeDegrees>-3.36794030852615833282470703125</LongitudeDegrees>
            </Position>
            <AltitudeMeters>3307.800048828125</AltitudeMeters>
            <DistanceMeters>2894.6342315844</DistanceMeters>
          </Trackpoint>
          <Trackpoint>
            <Time>2019-07-14T09:59:15.000Z</Time>
            <Position>
              <LatitudeDegrees>37.05336109735071659088134765625</LatitudeDegrees>
              <LongitudeDegrees>-3.3680456690490245819091796875</LongitudeDegrees>
            </Position>
            <AltitudeMeters>3304.800048828125</AltitudeMeters>
            <DistanceMeters>2904.580764524</DistanceMeters>
          </Trackpoint>
          <Trackpoint>
            <Time>2019-07-14T09:59:16.000Z</Time>
            <Position>
              <LatitudeDegrees>37.05335137434303760528564453125</LatitudeDegrees>
              <LongitudeDegrees>-3.36804927326738834381103515625</LongitudeDegrees>
            </Position>
            <AltitudeMeters>3304.39990234375</AltitudeMeters>
            <DistanceMeters>2905.7051357715</DistanceMeters>
          </Trackpoint>
          <Trackpoint>
            <Time>2019-07-14T09:59:17.000Z</Time>
            <Position>
              <LatitudeDegrees>37.05334198661148548126220703125</LatitudeDegrees>
              <LongitudeDegrees>-3.3680513687431812286376953125</LongitudeDegrees>
            </Position>
            <AltitudeMeters>3304.199951171875</AltitudeMeters>
            <DistanceMeters>2906.7718079948</DistanceMeters>
          </Trackpoint>
          <Trackpoint>
            <Time>2019-07-14T09:59:18.000Z</Time>
            <Position>
              <LatitudeDegrees>37.05333461053669452667236328125</LatitudeDegrees>
              <LongitudeDegrees>-3.36805723607540130615234375</LongitudeDegrees>
            </Position>
            <AltitudeMeters>3304.39990234375</AltitudeMeters>
            <DistanceMeters>2907.7455420584</DistanceMeters>
          </Trackpoint>
          <Trackpoint>
            <Time>2019-07-14T09:59:21.000Z</Time>
            <Position>
              <LatitudeDegrees>37.05331214703619480133056640625</LatitudeDegrees>
              <LongitudeDegrees>-3.3680580742657184600830078125</LongitudeDegrees>
            </Position>
            <AltitudeMeters>3303.800048828125</AltitudeMeters>
            <DistanceMeters>2910.2489143943</DistanceMeters>
          </Trackpoint>
          <Trackpoint>
            <Time>2019-07-14T09:59:28.000Z</Time>
            <Position>
              <LatitudeDegrees>37.05325934104621410369873046875</LatitudeDegrees>
              <LongitudeDegrees>-3.36809855885803699493408203125</LongitudeDegrees>
            </Position>
            <AltitudeMeters>3302.60009765625</AltitudeMeters>
            <DistanceMeters>2917.1394979648</DistanceMeters>
          </Trackpoint>
          <Trackpoint>
            <Time>2019-07-14T09:59:30.000Z</Time>
            <Position>
              <LatitudeDegrees>37.053260765969753265380859375</LatitudeDegrees>
              <LongitudeDegrees>-3.36812160909175872802734375</LongitudeDegrees>
            </Position>
            <AltitudeMeters>3302.39990234375</AltitudeMeters>
            <DistanceMeters>2919.195240112</DistanceMeters>
          </Trackpoint>
          <Trackpoint>
            <Time>2019-07-14T09:59:43.000Z</Time>
            <Position>
              <LatitudeDegrees>37.05320184119045734405517578125</LatitudeDegrees>
              <LongitudeDegrees>-3.36821020580828189849853515625</LongitudeDegrees>
            </Position>
            <AltitudeMeters>3300.39990234375</AltitudeMeters>
            <DistanceMeters>2929.4396311838</DistanceMeters>
          </Trackpoint>
          <Trackpoint>
            <Time>2019-07-14T09:59:53.000Z</Time>
            <Position>
              <LatitudeDegrees>37.05311617814004421234130859375</LatitudeDegrees>
              <LongitudeDegrees>-3.36827876977622509002685546875</LongitudeDegrees>
            </Position>
            <AltitudeMeters>3298.60009765625</AltitudeMeters>
            <DistanceMeters>2940.7533986197</DistanceMeters>
          </Trackpoint>
          <Trackpoint>
            <Time>2019-07-14T10:00:10.000Z</Time>
            <Position>
              <LatitudeDegrees>37.05303956754505634307861328125</LatitudeDegrees>
              <LongitudeDegrees>-3.3683717250823974609375</LongitudeDegrees>
            </Position>
            <AltitudeMeters>3295.39990234375</AltitudeMeters>
            <DistanceMeters>2952.6229922386</DistanceMeters>
          </Trackpoint>
          <Trackpoint>
            <Time>2019-07-14T10:00:14.000Z</Time>
            <Position>
              <LatitudeDegrees>37.05303772352635860443115234375</LatitudeDegrees>
              <LongitudeDegrees>-3.36837633512914180755615234375</LongitudeDegrees>
            </Position>
            <AltitudeMeters>3294</AltitudeMeters>
            <DistanceMeters>2953.0687070373</DistanceMeters>
          </Trackpoint>
          <Trackpoint>
            <Time>2019-07-14T10:00:17.000Z</Time>
            <Position>
              <LatitudeDegrees>37.053030766546726226806640625</LatitudeDegrees>
              <LongitudeDegrees>-3.368392847478389739990234375</LongitudeDegrees>
            </Position>
            <AltitudeMeters>3295.60009765625</AltitudeMeters>
            <DistanceMeters>2954.7255544168</DistanceMeters>
          </Trackpoint>
          <Trackpoint>
            <Time>2019-07-14T10:00:20.000Z</Time>
            <Position>
              <LatitudeDegrees>37.05301207490265369415283203125</LatitudeDegrees>
              <LongitudeDegrees>-3.368414305150508880615234375</LongitudeDegrees>
            </Position>
            <AltitudeMeters>3295.60009765625</AltitudeMeters>
            <DistanceMeters>2957.54770385</DistanceMeters>
          </Trackpoint>
          <Trackpoint>
            <Time>2019-07-14T10:00:21.000Z</Time>
            <Position>
              <LatitudeDegrees>37.0530049502849578857421875</LatitudeDegrees>
              <LongitudeDegrees>-3.36842243559658527374267578125</LongitudeDegrees>
            </Position>
            <AltitudeMeters>3295.39990234375</AltitudeMeters>
            <DistanceMeters>2958.622808396</DistanceMeters>
          </Trackpoint>
          <Trackpoint>
            <Time>2019-07-14T10:00:24.000Z</Time>
            <Position>
              <LatitudeDegrees>37.052987851202487945556640625</LatitudeDegrees>
              <LongitudeDegrees>-3.36843148805201053619384765625</LongitudeDegrees>
            </Position>
            <AltitudeMeters>3295</AltitudeMeters>
            <DistanceMeters>2960.687317074</DistanceMeters>
          </Trackpoint>
          <Trackpoint>
            <Time>2019-07-14T10:00:25.000Z</Time>
            <Position>
              <LatitudeDegrees>37.0529772900044918060302734375</LatitudeDegrees>
              <LongitudeDegrees>-3.36843316443264484405517578125</LongitudeDegrees>
            </Position>
            <AltitudeMeters>3294.800048828125</AltitudeMeters>
            <DistanceMeters>2961.8742003561</DistanceMeters>
          </Trackpoint>
          <Trackpoint>
            <Time>2019-07-14T10:00:26.000Z</Time>
            <Position>
              <LatitudeDegrees>37.0529662258923053741455078125</LatitudeDegrees>
              <LongitudeDegrees>-3.368434421718120574951171875</LongitudeDegrees>
            </Position>
            <AltitudeMeters>3294.800048828125</AltitudeMeters>
            <DistanceMeters>2963.1095476429</DistanceMeters>
          </Trackpoint>
          <Trackpoint>
            <Time>2019-07-14T10:00:30.000Z</Time>
            <Position>
              <LatitudeDegrees>37.052932865917682647705078125</LatitudeDegrees>
              <LongitudeDegrees>-3.3684454858303070068359375</LongitudeDegrees>
            </Position>
            <AltitudeMeters>3293.60009765625</AltitudeMeters>
            <DistanceMeters>2966.9507902686</DistanceMeters>
          </Trackpoint>
          <Trackpoint>
            <Time>2019-07-14T10:00:36.000Z</Time>
            <Position>
              <LatitudeDegrees>37.052907049655914306640625</LatitudeDegrees>
              <LongitudeDegrees>-3.3684979565441608428955078125</LongitudeDegrees>
            </Position>
            <AltitudeMeters>3293.39990234375</AltitudeMeters>
            <DistanceMeters>2972.4261764462</DistanceMeters>
          </Trackpoint>
          <Trackpoint>
            <Time>2019-07-14T10:00:52.000Z</Time>
            <Position>
              <LatitudeDegrees>37.05284359864890575408935546875</LatitudeDegrees>
              <LongitudeDegrees>-3.3686330728232860565185546875</LongitudeDegrees>
            </Position>
            <AltitudeMeters>3290.199951171875</AltitudeMeters>
            <DistanceMeters>2986.3520488322</DistanceMeters>
          </Trackpoint>
          <Trackpoint>
            <Time>2019-07-14T10:01:15.000Z</Time>
            <Position>
              <LatitudeDegrees>37.052704207599163055419921875</LatitudeDegrees>
              <LongitudeDegrees>-3.368797861039638519287109375</LongitudeDegrees>
            </Position>
            <AltitudeMeters>3288.39990234375</AltitudeMeters>
            <DistanceMeters>3007.6821067682</DistanceMeters>
          </Trackpoint>
          <Trackpoint>
            <Time>2019-07-14T10:01:35.000Z</Time>
            <Position>
              <LatitudeDegrees>37.052600942552089691162109375</LatitudeDegrees>
              <LongitudeDegrees>-3.36894596926867961883544921875</LongitudeDegrees>
            </Position>
            <AltitudeMeters>3285.60009765625</AltitudeMeters>
            <DistanceMeters>3025.1520387558</DistanceMeters>
          </Trackpoint>
          <Trackpoint>
            <Time>2019-07-14T10:01:56.000Z</Time>
            <Position>
              <LatitudeDegrees>37.052477560937404632568359375</LatitudeDegrees>
              <LongitudeDegrees>-3.36909466423094272613525390625</LongitudeDegrees>
            </Position>
            <AltitudeMeters>3282.199951171875</AltitudeMeters>
            <DistanceMeters>3044.2057836201</DistanceMeters>
          </Trackpoint>
          <Trackpoint>
            <Time>2019-07-14T10:02:08.000Z</Time>
            <Position>
              <LatitudeDegrees>37.05239516682922840118408203125</LatitudeDegrees>
              <LongitudeDegrees>-3.369183428585529327392578125</LongitudeDegrees>
            </Position>
            <AltitudeMeters>3279.39990234375</AltitudeMeters>
            <DistanceMeters>3056.2999631392</DistanceMeters>
          </Trackpoint>
          <Trackpoint>
            <Time>2019-07-14T10:02:33.000Z</Time>
            <Position>
              <LatitudeDegrees>37.0522467233240604400634765625</LatitudeDegrees>
              <LongitudeDegrees>-3.3693976700305938720703125</LongitudeDegrees>
            </Position>
            <AltitudeMeters>3279</AltitudeMeters>
            <DistanceMeters>3081.5021155639</DistanceMeters>
          </Trackpoint>
          <Trackpoint>
            <Time>2019-07-14T10:02:48.000Z</Time>
            <Position>
              <LatitudeDegrees>37.05214773304760456085205078125</LatitudeDegrees>
              <LongitudeDegrees>-3.36952633224427700042724609375</LongitudeDegrees>
            </Position>
            <AltitudeMeters>3276.800048828125</AltitudeMeters>
            <DistanceMeters>3097.3769816546</DistanceMeters>
          </Trackpoint>
          <Trackpoint>
            <Time>2019-07-14T10:03:04.000Z</Time>
            <Position>
              <LatitudeDegrees>37.05207045190036296844482421875</LatitudeDegrees>
              <LongitudeDegrees>-3.3696439303457736968994140625</LongitudeDegrees>
            </Position>
            <AltitudeMeters>3272.60009765625</AltitudeMeters>
            <DistanceMeters>3110.9088658593</DistanceMeters>
          </Trackpoint>
          <Trackpoint>
            <Time>2019-07-14T10:03:09.000Z</Time>
            <Position>
              <LatitudeDegrees>37.05202929675579071044921875</LatitudeDegrees>
              <LongitudeDegrees>-3.36968659423291683197021484375</LongitudeDegrees>
            </Position>
            <AltitudeMeters>3269.60009765625</AltitudeMeters>
            <DistanceMeters>3116.8539242444</DistanceMeters>
          </Trackpoint>
          <Trackpoint>
            <Time>2019-07-14T10:03:10.000Z</Time>
            <Position>
              <LatitudeDegrees>37.05202133394777774810791015625</LatitudeDegrees>
              <LongitudeDegrees>-3.369692377746105194091796875</LongitudeDegrees>
            </Position>
            <AltitudeMeters>3269.60009765625</AltitudeMeters>
            <DistanceMeters>3117.8773932803</DistanceMeters>
          </Trackpoint>
          <Trackpoint>
            <Time>2019-07-14T10:03:11.000Z</Time>
            <Position>
              <LatitudeDegrees>37.0520140416920185089111328125</LatitudeDegrees>
              <LongitudeDegrees>-3.36970067583024501800537109375</LongitudeDegrees>
            </Position>
            <AltitudeMeters>3269.800048828125</AltitudeMeters>
            <DistanceMeters>3118.9774070273</DistanceMeters>
          </Trackpoint>
          <Trackpoint>
            <Time>2019-07-14T10:03:12.000Z</Time>
            <Position>
              <LatitudeDegrees>37.05200876109302043914794921875</LatitudeDegrees>
              <LongitudeDegrees>-3.36971006356179714202880859375</LongitudeDegrees>
            </Position>
            <AltitudeMeters>3270</AltitudeMeters>
            <DistanceMeters>3119.99645501</DistanceMeters>
          </Trackpoint>
          <Trackpoint>
            <Time>2019-07-14T10:03:13.000Z</Time>
            <Position>
              <LatitudeDegrees>37.05200021155178546905517578125</LatitudeDegrees>
              <LongitudeDegrees>-3.36972163058817386627197265625</LongitudeDegrees>
            </Position>
            <AltitudeMeters>3270.199951171875</AltitudeMeters>
            <DistanceMeters>3121.3995076336</DistanceMeters>
          </Trackpoint>
          <Trackpoint>
            <Time>2019-07-14T10:03:14.000Z</Time>
            <Position>
              <LatitudeDegrees>37.0519905723631381988525390625</LatitudeDegrees>
              <LongitudeDegrees>-3.36973319761455059051513671875</LongitudeDegrees>
            </Position>
            <AltitudeMeters>3269.800048828125</AltitudeMeters>
            <DistanceMeters>3122.8838723639</DistanceMeters>
          </Trackpoint>
          <Trackpoint>
            <Time>2019-07-14T10:03:15.000Z</Time>
            <Position>
              <LatitudeDegrees>37.05198395065963268280029296875</LatitudeDegrees>
              <LongitudeDegrees>-3.36974392645061016082763671875</LongitudeDegrees>
            </Position>
            <AltitudeMeters>3269.800048828125</AltitudeMeters>
            <DistanceMeters>3124.0933649781</DistanceMeters>
          </Trackpoint>
          <Trackpoint>
            <Time>2019-07-14T10:03:16.000Z</Time>
            <Position>
              <LatitudeDegrees>37.05197959206998348236083984375</LatitudeDegrees>
              <LongitudeDegrees>-3.36975716985762119293212890625</LongitudeDegrees>
            </Position>
            <AltitudeMeters>3270.199951171875</AltitudeMeters>
            <DistanceMeters>3125.3682821362</DistanceMeters>
          </Trackpoint>
          <Trackpoint>
            <Time>2019-07-14T10:03:17.000Z</Time>
            <Position>
              <LatitudeDegrees>37.051974646747112274169921875</LatitudeDegrees>
              <LongitudeDegrees>-3.36977208964526653289794921875</LongitudeDegrees>
            </Position>
            <AltitudeMeters>3270.800048828125</AltitudeMeters>
            <DistanceMeters>3126.8000039502</DistanceMeters>
          </Trackpoint>
          <Trackpoint>
            <Time>2019-07-14T10:03:18.000Z</Time>
            <Position>
              <LatitudeDegrees>37.05196886323392391204833984375</LatitudeDegrees>
              <LongitudeDegrees>-3.36978684179484844207763671875</LongitudeDegrees>
            </Position>
            <AltitudeMeters>3271</AltitudeMeters>
            <DistanceMeters>3128.2567358968</DistanceMeters>
          </Trackpoint>
          <Trackpoint>
            <Time>2019-07-14T10:03:25.000Z</Time>
            <Position>
              <LatitudeDegrees>37.0519459806382656097412109375</LatitudeDegrees>
              <LongitudeDegrees>-3.36987954564392566680908203125</LongitudeDegrees>
            </Position>
            <AltitudeMeters>3270.800048828125</AltitudeMeters>
            <DistanceMeters>3136.8764498701</DistanceMeters>
          </Trackpoint>
          <Trackpoint>
            <Time>2019-07-14T10:03:27.000Z</Time>
            <Position>
              <LatitudeDegrees>37.05193986184895038604736328125</LatitudeDegrees>
              <LongitudeDegrees>-3.36989882402122020721435546875</LongitudeDegrees>
            </Position>
            <AltitudeMeters>3270.199951171875</AltitudeMeters>
            <DistanceMeters>3138.721534914</DistanceMeters>
          </Trackpoint>
          <Trackpoint>
            <Time>2019-07-14T10:03:34.000Z</Time>
            <Position>
              <LatitudeDegrees>37.051900885999202728271484375</LatitudeDegrees>
              <LongitudeDegrees>-3.3699582517147064208984375</LongitudeDegrees>
            </Position>
            <AltitudeMeters>3268.800048828125</AltitudeMeters>
            <DistanceMeters>3145.554874163</DistanceMeters>
          </Trackpoint>
          <Trackpoint>
            <Time>2019-07-14T10:03:35.000Z</Time>
            <Position>
              <LatitudeDegrees>37.05189518630504608154296875</LatitudeDegrees>
              <LongitudeDegrees>-3.3699671365320682525634765625</LongitudeDegrees>
            </Position>
            <AltitudeMeters>3268.199951171875</AltitudeMeters>
            <DistanceMeters>3146.5694818284</DistanceMeters>
          </Trackpoint>
          <Trackpoint>
            <Time>2019-07-14T10:03:38.000Z</Time>
            <Position>
              <LatitudeDegrees>37.051874063909053802490234375</LatitudeDegrees>
              <LongitudeDegrees>-3.36998037993907928466796875</LongitudeDegrees>
            </Position>
            <AltitudeMeters>3267.39990234375</AltitudeMeters>
            <DistanceMeters>3149.1995081697</DistanceMeters>
          </Trackpoint>
          <Trackpoint>
            <Time>2019-07-14T10:03:44.000Z</Time>
            <Position>
              <LatitudeDegrees>37.05183575861155986785888671875</LatitudeDegrees>
              <LongitudeDegrees>-3.37002472020685672760009765625</LongitudeDegrees>
            </Position>
            <AltitudeMeters>3267.199951171875</AltitudeMeters>
            <DistanceMeters>3155.0039215951</DistanceMeters>
          </Trackpoint>
          <Trackpoint>
            <Time>2019-07-14T10:03:48.000Z</Time>
            <Position>
              <LatitudeDegrees>37.051808349788188934326171875</LatitudeDegrees>
              <LongitudeDegrees>-3.37005145847797393798828125</LongitudeDegrees>
            </Position>
            <AltitudeMeters>3265.800048828125</AltitudeMeters>
            <DistanceMeters>3158.8709367995</DistanceMeters>
          </Trackpoint>
          <Trackpoint>
            <Time>2019-07-14T10:03:49.000Z</Time>
            <Position>
              <LatitudeDegrees>37.05179862678050994873046875</LatitudeDegrees>
              <LongitudeDegrees>-3.37006260640919208526611328125</LongitudeDegrees>
            </Position>
            <AltitudeMeters>3265.60009765625</AltitudeMeters>
            <DistanceMeters>3160.3369375476</DistanceMeters>
          </Trackpoint>
          <Trackpoint>
            <Time>2019-07-14T10:03:57.000Z</Time>
            <Position>
              <LatitudeDegrees>37.05175261013209819793701171875</LatitudeDegrees>
              <LongitudeDegrees>-3.37010988034307956695556640625</LongitudeDegrees>
            </Position>
            <AltitudeMeters>3262.199951171875</AltitudeMeters>
            <DistanceMeters>3166.9602381874</DistanceMeters>
          </Trackpoint>
          <Trackpoint>
            <Time>2019-07-14T10:04:01.000Z</Time>
            <Position>
              <LatitudeDegrees>37.0517469942569732666015625</LatitudeDegrees>
              <LongitudeDegrees>-3.3701119758188724517822265625</LongitudeDegrees>
            </Position>
            <AltitudeMeters>3260.800048828125</AltitudeMeters>
            <DistanceMeters>3167.6186025769</DistanceMeters>
          </Trackpoint>
          <Trackpoint>
            <Time>2019-07-14T10:04:04.000Z</Time>
            <Position>
              <LatitudeDegrees>37.05172712914645671844482421875</LatitudeDegrees>
              <LongitudeDegrees>-3.3701123110949993133544921875</LongitudeDegrees>
            </Position>
            <AltitudeMeters>3263.39990234375</AltitudeMeters>
            <DistanceMeters>3169.8309093894</DistanceMeters>
          </Trackpoint>
          <Trackpoint>
            <Time>2019-07-14T10:04:05.000Z</Time>
            <Position>
              <LatitudeDegrees>37.051719836890697479248046875</LatitudeDegrees>
              <LongitudeDegrees>-3.3701129816472530364990234375</LongitudeDegrees>
            </Position>
            <AltitudeMeters>3263.800048828125</AltitudeMeters>
            <DistanceMeters>3170.6483600954</DistanceMeters>
          </Trackpoint>
          <Trackpoint>
            <Time>2019-07-14T10:04:06.000Z</Time>
            <Position>
              <LatitudeDegrees>37.05171003006398677825927734375</LatitudeDegrees>
              <LongitudeDegrees>-3.3701163344085216522216796875</LongitudeDegrees>
            </Position>
            <AltitudeMeters>3264.199951171875</AltitudeMeters>
            <DistanceMeters>3171.7807340862</DistanceMeters>
          </Trackpoint>
          <Trackpoint>
            <Time>2019-07-14T10:04:07.000Z</Time>
            <Position>
              <LatitudeDegrees>37.05169712193310260772705078125</LatitudeDegrees>
              <LongitudeDegrees>-3.370123207569122314453125</LongitudeDegrees>
            </Position>
            <AltitudeMeters>3264.60009765625</AltitudeMeters>
            <DistanceMeters>3173.342182337</DistanceMeters>
          </Trackpoint>
          <Trackpoint>
            <Time>2019-07-14T10:04:08.000Z</Time>
            <Position>
              <LatitudeDegrees>37.0516861416399478912353515625</LatitudeDegrees>
              <LongitudeDegrees>-3.3701304160058498382568359375</LongitudeDegrees>
            </Position>
            <AltitudeMeters>3264.60009765625</AltitudeMeters>
            <DistanceMeters>3174.7225250951</DistanceMeters>
          </Trackpoint>
          <Trackpoint>
            <Time>2019-07-14T10:04:09.000Z</Time>
            <Position>
              <LatitudeDegrees>37.0516767539083957672119140625</LatitudeDegrees>
              <LongitudeDegrees>-3.3701394684612751007080078125</LongitudeDegrees>
            </Position>
            <AltitudeMeters>3264.199951171875</AltitudeMeters>
            <DistanceMeters>3176.039253874</DistanceMeters>
          </Trackpoint>
          <Trackpoint>
            <Time>2019-07-14T10:04:10.000Z</Time>
            <Position>
              <LatitudeDegrees>37.05166912637650966644287109375</LatitudeDegrees>
              <LongitudeDegrees>-3.37015128694474697113037109375</LongitudeDegrees>
            </Position>
            <AltitudeMeters>3264</AltitudeMeters>
            <DistanceMeters>3177.3898372449</DistanceMeters>
          </Trackpoint>
          <Trackpoint>
            <Time>2019-07-14T10:04:13.000Z</Time>
            <Position>
              <LatitudeDegrees>37.051648758351802825927734375</LatitudeDegrees>
              <LongitudeDegrees>-3.370169140398502349853515625</LongitudeDegrees>
            </Position>
            <AltitudeMeters>3263.199951171875</AltitudeMeters>
            <DistanceMeters>3180.157056937</DistanceMeters>
          </Trackpoint>
          <Trackpoint>
            <Time>2019-07-14T10:04:14.000Z</Time>
            <Position>
              <LatitudeDegrees>37.05164079554378986358642578125</LatitudeDegrees>
              <LongitudeDegrees>-3.37017391808331012725830078125</LongitudeDegrees>
            </Position>
            <AltitudeMeters>3263</AltitudeMeters>
            <DistanceMeters>3181.1446035212</DistanceMeters>
          </Trackpoint>
          <Trackpoint>
            <Time>2019-07-14T10:04:15.000Z</Time>
            <Position>
              <LatitudeDegrees>37.05163291655480861663818359375</LatitudeDegrees>
              <LongitudeDegrees>-3.3701803721487522125244140625</LongitudeDegrees>
            </Position>
            <AltitudeMeters>3262.800048828125</AltitudeMeters>
            <DistanceMeters>3182.1855690217</DistanceMeters>
          </Trackpoint>
          <Trackpoint>
            <Time>2019-07-14T10:04:18.000Z</Time>
            <Position>
              <LatitudeDegrees>37.05160760320723056793212890625</LatitudeDegrees>
              <LongitudeDegrees>-3.3702008239924907684326171875</LongitudeDegrees>
            </Position>
            <AltitudeMeters>3262.800048828125</AltitudeMeters>
            <DistanceMeters>3185.5371977446</DistanceMeters>
          </Trackpoint>
          <Trackpoint>
            <Time>2019-07-14T10:04:19.000Z</Time>
            <Position>
              <LatitudeDegrees>37.0516003109514713287353515625</LatitudeDegrees>
              <LongitudeDegrees>-3.3702088706195354461669921875</LongitudeDegrees>
            </Position>
            <AltitudeMeters>3262.800048828125</AltitudeMeters>
            <DistanceMeters>3186.6206689891</DistanceMeters>
          </Trackpoint>
          <Trackpoint>
            <Time>2019-07-14T10:04:26.000Z</Time>
            <Position>
              <LatitudeDegrees>37.05155211500823497772216796875</LatitudeDegrees>
              <LongitudeDegrees>-3.3702531270682811737060546875</LongitudeDegrees>
            </Position>
            <AltitudeMeters>3261.199951171875</AltitudeMeters>
            <DistanceMeters>3193.271181332</DistanceMeters>
          </Trackpoint>
          <Trackpoint>
            <Time>2019-07-14T10:04:42.000Z</Time>
            <Position>
              <LatitudeDegrees>37.05140300095081329345703125</LatitudeDegrees>
              <LongitudeDegrees>-3.3703597448766231536865234375</LongitudeDegrees>
            </Position>
            <AltitudeMeters>3259</AltitudeMeters>
            <DistanceMeters>3212.3800588805</DistanceMeters>
          </Trackpoint>
          <Trackpoint>
            <Time>2019-07-14T10:04:44.000Z</Time>
            <Position>
              <LatitudeDegrees>37.05138430930674076080322265625</LatitudeDegrees>
              <LongitudeDegrees>-3.37036385200917720794677734375</LongitudeDegrees>
            </Position>
            <AltitudeMeters>3259.199951171875</AltitudeMeters>
            <DistanceMeters>3214.4921331603</DistanceMeters>
          </Trackpoint>
          <Trackpoint>
            <Time>2019-07-14T10:04:45.000Z</Time>
            <Position>
              <LatitudeDegrees>37.05137408338487148284912109375</LatitudeDegrees>
              <LongitudeDegrees>-3.3703686296939849853515625</LongitudeDegrees>
            </Position>
            <AltitudeMeters>3259</AltitudeMeters>
            <DistanceMeters>3215.7053530333</DistanceMeters>
          </Trackpoint>
          <Trackpoint>
            <Time>2019-07-14T10:04:46.000Z</Time>
            <Position>
              <LatitudeDegrees>37.0513649471104145050048828125</LatitudeDegrees>
              <LongitudeDegrees>-3.3703785203397274017333984375</LongitudeDegrees>
            </Position>
            <AltitudeMeters>3259</AltitudeMeters>
            <DistanceMeters>3217.0492337158</DistanceMeters>
          </Trackpoint>
          <Trackpoint>
            <Time>2019-07-14T10:04:47.000Z</Time>
            <Position>
              <LatitudeDegrees>37.0513582415878772735595703125</LatitudeDegrees>
              <LongitudeDegrees>-3.37039134465157985687255859375</LongitudeDegrees>
            </Position>
            <AltitudeMeters>3258.800048828125</AltitudeMeters>
            <DistanceMeters>3218.4131236482</DistanceMeters>
          </Trackpoint>
          <Trackpoint>
            <Time>2019-07-14T10:04:49.000Z</Time>
            <Position>
              <LatitudeDegrees>37.05134541727602481842041015625</LatitudeDegrees>
              <LongitudeDegrees>-3.3704107068479061126708984375</LongitudeDegrees>
            </Position>
            <AltitudeMeters>3258.60009765625</AltitudeMeters>
            <DistanceMeters>3220.6457459174</DistanceMeters>
          </Trackpoint>
          <Trackpoint>
            <Time>2019-07-14T10:04:50.000Z</Time>
            <Position>
              <LatitudeDegrees>37.051336951553821563720703125</LatitudeDegrees>
              <LongitudeDegrees>-3.37041892111301422119140625</LongitudeDegrees>
            </Position>
            <AltitudeMeters>3258.800048828125</AltitudeMeters>
            <DistanceMeters>3221.8364272357</DistanceMeters>
          </Trackpoint>
          <Trackpoint>
            <Time>2019-07-14T10:05:14.000Z</Time>
            <Position>
              <LatitudeDegrees>37.05116000957787036895751953125</LatitudeDegrees>
              <LongitudeDegrees>-3.37054708041250705718994140625</LongitudeDegrees>
            </Position>
            <AltitudeMeters>3256.199951171875</AltitudeMeters>
            <DistanceMeters>3244.5843618808</DistanceMeters>
          </Trackpoint>
          <Trackpoint>
            <Time>2019-07-14T10:05:17.000Z</Time>
            <Position>
              <LatitudeDegrees>37.0511456765234470367431640625</LatitudeDegrees>
              <LongitudeDegrees>-3.3705193363130092620849609375</LongitudeDegrees>
            </Position>
            <AltitudeMeters>3255.199951171875</AltitudeMeters>
            <DistanceMeters>3247.5225165875</DistanceMeters>
          </Trackpoint>
          <Trackpoint>
            <Time>2019-07-14T10:05:35.000Z</Time>
            <Position>
              <LatitudeDegrees>37.05109345726668834686279296875</LatitudeDegrees>
              <LongitudeDegrees>-3.3705622516572475433349609375</LongitudeDegrees>
            </Position>
            <AltitudeMeters>3252.199951171875</AltitudeMeters>
            <DistanceMeters>3254.4737710823</DistanceMeters>
          </Trackpoint>
          <Trackpoint>
            <Time>2019-07-14T10:05:46.000Z</Time>
            <Position>
              <LatitudeDegrees>37.05105288885533809661865234375</LatitudeDegrees>
              <LongitudeDegrees>-3.3705974556505680084228515625</LongitudeDegrees>
            </Position>
            <AltitudeMeters>3250</AltitudeMeters>
            <DistanceMeters>3259.9672686454</DistanceMeters>
          </Trackpoint>
          <Trackpoint>
            <Time>2019-07-14T10:05:47.000Z</Time>
            <Position>
              <LatitudeDegrees>37.0510430820286273956298828125</LatitudeDegrees>
              <LongitudeDegrees>-3.3706014789640903472900390625</LongitudeDegrees>
            </Position>
            <AltitudeMeters>3250</AltitudeMeters>
            <DistanceMeters>3261.1154808039</DistanceMeters>
          </Trackpoint>
          <Trackpoint>
            <Time>2019-07-14T10:05:48.000Z</Time>
            <Position>
              <LatitudeDegrees>37.05103327520191669464111328125</LatitudeDegrees>
              <LongitudeDegrees>-3.370607681572437286376953125</LongitudeDegrees>
            </Position>
            <AltitudeMeters>3249.800048828125</AltitudeMeters>
            <DistanceMeters>3262.3398143735</DistanceMeters>
          </Trackpoint>
          <Trackpoint>
            <Time>2019-07-14T10:05:49.000Z</Time>
            <Position>
              <LatitudeDegrees>37.0510222949087619781494140625</LatitudeDegrees>
              <LongitudeDegrees>-3.37061212398111820220947265625</LongitudeDegrees>
            </Position>
            <AltitudeMeters>3249.800048828125</AltitudeMeters>
            <DistanceMeters>3263.6217948386</DistanceMeters>
          </Trackpoint>
          <Trackpoint>
            <Time>2019-07-14T10:05:50.000Z</Time>
            <Position>
              <LatitudeDegrees>37.051010392606258392333984375</LatitudeDegrees>
              <LongitudeDegrees>-3.3706180751323699951171875</LongitudeDegrees>
            </Position>
            <AltitudeMeters>3249.800048828125</AltitudeMeters>
            <DistanceMeters>3265.0471955541</DistanceMeters>
          </Trackpoint>
          <Trackpoint>
            <Time>2019-07-14T10:05:51.000Z</Time>
            <Position>
              <LatitudeDegrees>37.0509988255798816680908203125</LatitudeDegrees>
              <LongitudeDegrees>-3.370626457035541534423828125</LongitudeDegrees>
            </Position>
            <AltitudeMeters>3249.60009765625</AltitudeMeters>
            <DistanceMeters>3266.5315602843</DistanceMeters>
          </Trackpoint>
          <Trackpoint>
            <Time>2019-07-14T10:05:52.000Z</Time>
            <Position>
              <LatitudeDegrees>37.05098725855350494384765625</LatitudeDegrees>
              <LongitudeDegrees>-3.37063576094806194305419921875</LongitudeDegrees>
            </Position>
            <AltitudeMeters>3249.60009765625</AltitudeMeters>
            <DistanceMeters>3268.0638200128</DistanceMeters>
          </Trackpoint>
          <Trackpoint>
            <Time>2019-07-14T10:05:55.000Z</Time>
            <Position>
              <LatitudeDegrees>37.05096169374883174896240234375</LatitudeDegrees>
              <LongitudeDegrees>-3.3706799335777759552001953125</LongitudeDegrees>
            </Position>
            <AltitudeMeters>3251.199951171875</AltitudeMeters>
            <DistanceMeters>3272.9101824457</DistanceMeters>
          </Trackpoint>
          <Trackpoint>
            <Time>2019-07-14T10:06:18.000Z</Time>
            <Position>
              <LatitudeDegrees>37.0508563332259654998779296875</LatitudeDegrees>
              <LongitudeDegrees>-3.37078143842518329620361328125</LongitudeDegrees>
            </Position>
            <AltitudeMeters>3247.800048828125</AltitudeMeters>
            <DistanceMeters>3287.702640402</DistanceMeters>
          </Trackpoint>
          <Trackpoint>
            <Time>2019-07-14T10:06:32.000Z</Time>
            <Position>
              <LatitudeDegrees>37.05079657025635242462158203125</LatitudeDegrees>
              <LongitudeDegrees>-3.3708737231791019439697265625</LongitudeDegrees>
            </Position>
            <AltitudeMeters>3244.60009765625</AltitudeMeters>
            <DistanceMeters>3298.2595908836</DistanceMeters>
          </Trackpoint>
          <Trackpoint>
            <Time>2019-07-14T10:06:34.000Z</Time>
            <Position>
              <LatitudeDegrees>37.0507768727838993072509765625</LatitudeDegrees>
              <LongitudeDegrees>-3.370880596339702606201171875</LongitudeDegrees>
            </Position>
            <AltitudeMeters>3244.199951171875</AltitudeMeters>
            <DistanceMeters>3300.5322993396</DistanceMeters>
          </Trackpoint>
          <Trackpoint>
            <Time>2019-07-14T10:06:35.000Z</Time>
            <Position>
              <LatitudeDegrees>37.05076589249074459075927734375</LatitudeDegrees>
              <LongitudeDegrees>-3.37088118307292461395263671875</LongitudeDegrees>
            </Position>
            <AltitudeMeters>3244.39990234375</AltitudeMeters>
            <DistanceMeters>3301.7529395869</DistanceMeters>
          </Trackpoint>
          <Trackpoint>
            <Time>2019-07-14T10:06:36.000Z</Time>
            <Position>
              <LatitudeDegrees>37.05075348727405071258544921875</LatitudeDegrees>
              <LongitudeDegrees>-3.37088135071098804473876953125</LongitudeDegrees>
            </Position>
            <AltitudeMeters>3244.39990234375</AltitudeMeters>
            <DistanceMeters>3303.1332823449</DistanceMeters>
          </Trackpoint>
          <Trackpoint>
            <Time>2019-07-14T10:06:42.000Z</Time>
            <Position>
              <LatitudeDegrees>37.0507272519171237945556640625</LatitudeDegrees>
              <LongitudeDegrees>-3.370911777019500732421875</LongitudeDegrees>
            </Position>
            <AltitudeMeters>3243</AltitudeMeters>
            <DistanceMeters>3307.1108059375</DistanceMeters>
          </Trackpoint>
          <Trackpoint>
            <Time>2019-07-14T10:06:43.000Z</Time>
            <Position>
              <LatitudeDegrees>37.0507222227752208709716796875</LatitudeDegrees>
              <LongitudeDegrees>-3.3709266968071460723876953125</LongitudeDegrees>
            </Position>
            <AltitudeMeters>3243</AltitudeMeters>
            <DistanceMeters>3308.5456778584</DistanceMeters>
          </Trackpoint>
          <Trackpoint>
            <Time>2019-07-14T10:06:44.000Z</Time>
            <Position>
              <LatitudeDegrees>37.0507148467004299163818359375</LatitudeDegrees>
              <LongitudeDegrees>-3.37093566544353961944580078125</LongitudeDegrees>
            </Position>
            <AltitudeMeters>3243.199951171875</AltitudeMeters>
            <DistanceMeters>3309.689951027</DistanceMeters>
          </Trackpoint>
          <Trackpoint>
            <Time>2019-07-14T10:06:52.000Z</Time>
            <Position>
              <LatitudeDegrees>37.0506866835057735443115234375</LatitudeDegrees>
              <LongitudeDegrees>-3.3710101805627346038818359375</LongitudeDegrees>
            </Position>
            <AltitudeMeters>3242.199951171875</AltitudeMeters>
            <DistanceMeters>3317.0137925106</DistanceMeters>
          </Trackpoint>
          <Trackpoint>
            <Time>2019-07-14T10:06:55.000Z</Time>
            <Position>
              <LatitudeDegrees>37.05068056471645832061767578125</LatitudeDegrees>
              <LongitudeDegrees>-3.371035493910312652587890625</LongitudeDegrees>
            </Position>
            <AltitudeMeters>3241</AltitudeMeters>
            <DistanceMeters>3319.3627021954</DistanceMeters>
          </Trackpoint>
          <Trackpoint>
            <Time>2019-07-14T10:06:56.000Z</Time>
            <Position>
              <LatitudeDegrees>37.0506806485354900360107421875</LatitudeDegrees>
              <LongitudeDegrees>-3.37104798294603824615478515625</LongitudeDegrees>
            </Position>
            <AltitudeMeters>3241</AltitudeMeters>
            <DistanceMeters>3320.4708945958</DistanceMeters>
          </Trackpoint>
          <Trackpoint>
            <Time>2019-07-14T10:07:01.000Z</Time>
            <Position>
              <LatitudeDegrees>37.0506618730723857879638671875</LatitudeDegrees>
              <LongitudeDegrees>-3.3710740506649017333984375</LongitudeDegrees>
            </Position>
            <AltitudeMeters>3237.800048828125</AltitudeMeters>
            <DistanceMeters>3323.5908981866</DistanceMeters>
          </Trackpoint>
          <Trackpoint>
            <Time>2019-07-14T10:07:09.000Z</Time>
            <Position>
              <LatitudeDegrees>37.05060697160661220550537109375</LatitudeDegrees>
              <LongitudeDegrees>-3.37109827436506748199462890625</LongitudeDegrees>
            </Position>
            <AltitudeMeters>3235.800048828125</AltitudeMeters>
            <DistanceMeters>3330.0694624806</DistanceMeters>
          </Trackpoint>
          <Trackpoint>
            <Time>2019-07-14T10:07:10.000Z</Time>
            <Position>
              <LatitudeDegrees>37.050596661865711212158203125</LatitudeDegrees>
              <LongitudeDegrees>-3.3711020462214946746826171875</LongitudeDegrees>
            </Position>
            <AltitudeMeters>3235.800048828125</AltitudeMeters>
            <DistanceMeters>3331.2639297586</DistanceMeters>
          </Trackpoint>
          <Trackpoint>
            <Time>2019-07-14T10:07:11.000Z</Time>
            <Position>
              <LatitudeDegrees>37.05058434046804904937744140625</LatitudeDegrees>
              <LongitudeDegrees>-3.37110682390630245208740234375</LongitudeDegrees>
            </Position>
            <AltitudeMeters>3236</AltitudeMeters>
            <DistanceMeters>3332.7019448856</DistanceMeters>
          </Trackpoint>
          <Trackpoint>
            <Time>2019-07-14T10:07:12.000Z</Time>
            <Position>
              <LatitudeDegrees>37.05057126469910144805908203125</LatitudeDegrees>
              <LongitudeDegrees>-3.37111294269561767578125</LongitudeDegrees>
            </Position>
            <AltitudeMeters>3236.199951171875</AltitudeMeters>
            <DistanceMeters>3334.2517836947</DistanceMeters>
          </Trackpoint>
          <Trackpoint>
            <Time>2019-07-14T10:07:13.000Z</Time>
            <Position>
              <LatitudeDegrees>37.05056003294885158538818359375</LatitudeDegrees>
              <LongitudeDegrees>-3.371118642389774322509765625</LongitudeDegrees>
            </Position>
            <AltitudeMeters>3236.39990234375</AltitudeMeters>
            <DistanceMeters>3335.6023670656</DistanceMeters>
          </Trackpoint>
          <Trackpoint>
            <Time>2019-07-14T10:07:18.000Z</Time>
            <Position>
              <LatitudeDegrees>37.05051812343299388885498046875</LatitudeDegrees>
              <LongitudeDegrees>-3.37112509645521640777587890625</LongitudeDegrees>
            </Position>
            <AltitudeMeters>3236</AltitudeMeters>
            <DistanceMeters>3340.3021082267</DistanceMeters>
          </Trackpoint>
          <Trackpoint>
            <Time>2019-07-14T10:07:19.000Z</Time>
            <Position>
              <LatitudeDegrees>37.05050756223499774932861328125</LatitudeDegrees>
              <LongitudeDegrees>-3.3711268566548824310302734375</LongitudeDegrees>
            </Position>
            <AltitudeMeters>3235.39990234375</AltitudeMeters>
            <DistanceMeters>3341.4889915088</DistanceMeters>
          </Trackpoint>
          <Trackpoint>
            <Time>2019-07-14T10:07:22.000Z</Time>
            <Position>
              <LatitudeDegrees>37.05048543401062488555908203125</LatitudeDegrees>
              <LongitudeDegrees>-3.37113280780613422393798828125</LongitudeDegrees>
            </Position>
            <AltitudeMeters>3234</AltitudeMeters>
            <DistanceMeters>3344.0103351618</DistanceMeters>
          </Trackpoint>
          <Trackpoint>
            <Time>2019-07-14T10:07:24.000Z</Time>
            <Position>
              <LatitudeDegrees>37.050473280251026153564453125</LatitudeDegrees>
              <LongitudeDegrees>-3.3711483143270015716552734375</LongitudeDegrees>
            </Position>
            <AltitudeMeters>3234</AltitudeMeters>
            <DistanceMeters>3345.9415061981</DistanceMeters>
          </Trackpoint>
          <Trackpoint>
            <Time>2019-07-14T10:07:43.000Z</Time>
            <Position>
              <LatitudeDegrees>37.05040278844535350799560546875</LatitudeDegrees>
              <LongitudeDegrees>-3.37115577422082424163818359375</LongitudeDegrees>
            </Position>
            <AltitudeMeters>3230.60009765625</AltitudeMeters>
            <DistanceMeters>3353.8155461309</DistanceMeters>
          </Trackpoint>
          <Trackpoint>
            <Time>2019-07-14T10:08:00.000Z</Time>
            <Position>
              <LatitudeDegrees>37.0503651537001132965087890625</LatitudeDegrees>
              <LongitudeDegrees>-3.3712234161794185638427734375</LongitudeDegrees>
            </Position>
            <AltitudeMeters>3230.199951171875</AltitudeMeters>
            <DistanceMeters>3361.1400040736</DistanceMeters>
          </Trackpoint>
          <Trackpoint>
            <Time>2019-07-14T10:08:11.000Z</Time>
            <Position>
              <LatitudeDegrees>37.0503215678036212921142578125</LatitudeDegrees>
              <LongitudeDegrees>-3.37120874784886837005615234375</LongitudeDegrees>
            </Position>
            <AltitudeMeters>3227.60009765625</AltitudeMeters>
            <DistanceMeters>3366.1629547586</DistanceMeters>
          </Trackpoint>
          <Trackpoint>
            <Time>2019-07-14T10:08:13.000Z</Time>
            <Position>
              <LatitudeDegrees>37.0503094978630542755126953125</LatitudeDegrees>
              <LongitudeDegrees>-3.37119030766189098358154296875</LongitudeDegrees>
            </Position>
            <AltitudeMeters>3227</AltitudeMeters>
            <DistanceMeters>3368.2835627066</DistanceMeters>
          </Trackpoint>
          <Trackpoint>
            <Time>2019-07-14T10:08:14.000Z</Time>
            <Position>
              <LatitudeDegrees>37.05030052922666072845458984375</LatitudeDegrees>
              <LongitudeDegrees>-3.37118410505354404449462890625</LongitudeDegrees>
            </Position>
            <AltitudeMeters>3226.800048828125</AltitudeMeters>
            <DistanceMeters>3369.4238832791</DistanceMeters>
          </Trackpoint>
          <Trackpoint>
            <Time>2019-07-14T10:08:26.000Z</Time>
            <Position>
              <LatitudeDegrees>37.05025023780763149261474609375</LatitudeDegrees>
              <LongitudeDegrees>-3.37113280780613422393798828125</LongitudeDegrees>
            </Position>
            <AltitudeMeters>3223.800048828125</AltitudeMeters>
            <DistanceMeters>3376.6409104322</DistanceMeters>
          </Trackpoint>
          <Trackpoint>
            <Time>2019-07-14T10:08:48.000Z</Time>
            <Position>
              <LatitudeDegrees>37.05020137131214141845703125</LatitudeDegrees>
              <LongitudeDegrees>-3.37108151055872440338134765625</LongitudeDegrees>
            </Position>
            <AltitudeMeters>3220.60009765625</AltitudeMeters>
            <DistanceMeters>3383.7368040511</DistanceMeters>
          </Trackpoint>
          <Trackpoint>
            <Time>2019-07-14T10:08:53.000Z</Time>
            <Position>
              <LatitudeDegrees>37.05016558058559894561767578125</LatitudeDegrees>
              <LongitudeDegrees>-3.3710893057286739349365234375</LongitudeDegrees>
            </Position>
            <AltitudeMeters>3219.60009765625</AltitudeMeters>
            <DistanceMeters>3387.7796295932</DistanceMeters>
          </Trackpoint>
          <Trackpoint>
            <Time>2019-07-14T10:09:04.000Z</Time>
            <Position>
              <LatitudeDegrees>37.05016356892883777618408203125</LatitudeDegrees>
              <LongitudeDegrees>-3.37105770595371723175048828125</LongitudeDegrees>
            </Position>
            <AltitudeMeters>3217.39990234375</AltitudeMeters>
            <DistanceMeters>3390.5953723225</DistanceMeters>
          </Trackpoint>
          <Trackpoint>
            <Time>2019-07-14T10:09:20.000Z</Time>
            <Position>
              <LatitudeDegrees>37.05008737742900848388671875</LatitudeDegrees>
              <LongitudeDegrees>-3.3710177242755889892578125</LongitudeDegrees>
            </Position>
            <AltitudeMeters>3216.199951171875</AltitudeMeters>
            <DistanceMeters>3399.7889306932</DistanceMeters>
          </Trackpoint>
          <Trackpoint>
            <Time>2019-07-14T10:09:24.000Z</Time>
            <Position>
              <LatitudeDegrees>37.05004504881799221038818359375</LatitudeDegrees>
              <LongitudeDegrees>-3.37099425494670867919921875</LongitudeDegrees>
            </Position>
            <AltitudeMeters>3215</AltitudeMeters>
            <DistanceMeters>3404.941447044</DistanceMeters>
          </Trackpoint>
          <Trackpoint>
            <Time>2019-07-14T10:09:33.000Z</Time>
            <Position>
              <LatitudeDegrees>37.04994857311248779296875</LatitudeDegrees>
              <LongitudeDegrees>-3.37101311422884464263916015625</LongitudeDegrees>
            </Position>
            <AltitudeMeters>3214.39990234375</AltitudeMeters>
            <DistanceMeters>3415.8094459346</DistanceMeters>
          </Trackpoint>
          <Trackpoint>
            <Time>2019-07-14T10:09:43.000Z</Time>
            <Position>
              <LatitudeDegrees>37.0498461462557315826416015625</LatitudeDegrees>
              <LongitudeDegrees>-3.371062316000461578369140625</LongitudeDegrees>
            </Position>
            <AltitudeMeters>3214.39990234375</AltitudeMeters>
            <DistanceMeters>3428.0188071766</DistanceMeters>
          </Trackpoint>
          <Trackpoint>
            <Time>2019-07-14T10:10:06.000Z</Time>
            <Position>
              <LatitudeDegrees>37.04971320927143096923828125</LatitudeDegrees>
              <LongitudeDegrees>-3.37115007452666759490966796875</LongitudeDegrees>
            </Position>
            <AltitudeMeters>3214.39990234375</AltitudeMeters>
            <DistanceMeters>3444.7429689725</DistanceMeters>
          </Trackpoint>
          <Trackpoint>
            <Time>2019-07-14T10:10:18.000Z</Time>
            <Position>
              <LatitudeDegrees>37.04972569830715656280517578125</LatitudeDegrees>
              <LongitudeDegrees>-3.37127848528325557708740234375</LongitudeDegrees>
            </Position>
            <AltitudeMeters>3213.800048828125</AltitudeMeters>
            <DistanceMeters>3456.2341311348</DistanceMeters>
          </Trackpoint>
          <Trackpoint>
            <Time>2019-07-14T10:10:33.000Z</Time>
            <Position>
              <LatitudeDegrees>37.04969434998929500579833984375</LatitudeDegrees>
              <LongitudeDegrees>-3.3712968416512012481689453125</LongitudeDegrees>
            </Position>
            <AltitudeMeters>3214.800048828125</AltitudeMeters>
            <DistanceMeters>3460.0847655658</DistanceMeters>
          </Trackpoint>
          <Trackpoint>
            <Time>2019-07-14T10:10:34.000Z</Time>
            <Position>
              <LatitudeDegrees>37.04969015903770923614501953125</LatitudeDegrees>
              <LongitudeDegrees>-3.37128083221614360809326171875</LongitudeDegrees>
            </Position>
            <AltitudeMeters>3214.800048828125</AltitudeMeters>
            <DistanceMeters>3461.5812477601</DistanceMeters>
          </Trackpoint>
          <Trackpoint>
            <Time>2019-07-14T10:10:47.000Z</Time>
            <Position>
              <LatitudeDegrees>37.0497137121856212615966796875</LatitudeDegrees>
              <LongitudeDegrees>-3.37109475396573543548583984375</LongitudeDegrees>
            </Position>
            <AltitudeMeters>3214.800048828125</AltitudeMeters>
            <DistanceMeters>3478.3172840632</DistanceMeters>
          </Trackpoint>
          <Trackpoint>
            <Time>2019-07-14T10:10:48.000Z</Time>
            <Position>
              <LatitudeDegrees>37.04970139078795909881591796875</LatitudeDegrees>
              <LongitudeDegrees>-3.3710956759750843048095703125</LongitudeDegrees>
            </Position>
            <AltitudeMeters>3214.800048828125</AltitudeMeters>
            <DistanceMeters>3479.6943519821</DistanceMeters>
          </Trackpoint>
          <Trackpoint>
            <Time>2019-07-14T10:11:27.000Z</Time>
            <Position>
              <LatitudeDegrees>37.04988679848611354827880859375</LatitudeDegrees>
              <LongitudeDegrees>-3.37114370428025722503662109375</LongitudeDegrees>
            </Position>
            <AltitudeMeters>3216.60009765625</AltitudeMeters>
            <DistanceMeters>3500.767155289</DistanceMeters>
          </Trackpoint>
          <Trackpoint>
            <Time>2019-07-14T10:11:56.000Z</Time>
            <Position>
              <LatitudeDegrees>37.04981152899563312530517578125</LatitudeDegrees>
              <LongitudeDegrees>-3.371238000690937042236328125</LongitudeDegrees>
            </Position>
            <AltitudeMeters>3216</AltitudeMeters>
            <DistanceMeters>3512.6139037075</DistanceMeters>
          </Trackpoint>
          <Trackpoint>
            <Time>2019-07-14T10:11:57.000Z</Time>
            <Position>
              <LatitudeDegrees>37.049807421863079071044921875</LatitudeDegrees>
              <LongitudeDegrees>-3.37125040590763092041015625</LongitudeDegrees>
            </Position>
            <AltitudeMeters>3216</AltitudeMeters>
            <DistanceMeters>3513.8083709855</DistanceMeters>
          </Trackpoint>
          <Trackpoint>
            <Time>2019-07-14T10:12:27.000Z</Time>
            <Position>
              <LatitudeDegrees>37.04958203248679637908935546875</LatitudeDegrees>
              <LongitudeDegrees>-3.3713561855256557464599609375</LongitudeDegrees>
            </Position>
            <AltitudeMeters>3215.199951171875</AltitudeMeters>
            <DistanceMeters>3540.5968045903</DistanceMeters>
          </Trackpoint>
          <Trackpoint>
            <Time>2019-07-14T10:12:44.000Z</Time>
            <Position>
              <LatitudeDegrees>37.04960784874856472015380859375</LatitudeDegrees>
              <LongitudeDegrees>-3.37144277058541774749755859375</LongitudeDegrees>
            </Position>
            <AltitudeMeters>3215.39990234375</AltitudeMeters>
            <DistanceMeters>3548.807684612</DistanceMeters>
          </Trackpoint>
          <Trackpoint>
            <Time>2019-07-14T10:12:56.000Z</Time>
            <Position>
              <LatitudeDegrees>37.04968546517193317413330078125</LatitudeDegrees>
              <LongitudeDegrees>-3.37131452746689319610595703125</LongitudeDegrees>
            </Position>
            <AltitudeMeters>3215.199951171875</AltitudeMeters>
            <DistanceMeters>3563.1047056439</DistanceMeters>
          </Trackpoint>
          <Trackpoint>
            <Time>2019-07-14T10:13:00.000Z</Time>
            <Position>
              <LatitudeDegrees>37.04967691563069820404052734375</LatitudeDegrees>
              <LongitudeDegrees>-3.37129541672766208648681640625</LongitudeDegrees>
            </Position>
            <AltitudeMeters>3215.199951171875</AltitudeMeters>
            <DistanceMeters>3565.0521737711</DistanceMeters>
          </Trackpoint>
          <Trackpoint>
            <Time>2019-07-14T10:13:18.000Z</Time>
            <Position>
              <LatitudeDegrees>37.0496697910130023956298828125</LatitudeDegrees>
              <LongitudeDegrees>-3.371256776154041290283203125</LongitudeDegrees>
            </Position>
            <AltitudeMeters>3215.199951171875</AltitudeMeters>
            <DistanceMeters>3568.5758586478</DistanceMeters>
          </Trackpoint>
          <Trackpoint>
            <Time>2019-07-14T10:13:24.000Z</Time>
            <Position>
              <LatitudeDegrees>37.04964573495090007781982421875</LatitudeDegrees>
              <LongitudeDegrees>-3.37125166319310665130615234375</LongitudeDegrees>
            </Position>
            <AltitudeMeters>3215.199951171875</AltitudeMeters>
            <DistanceMeters>3571.2903645657</DistanceMeters>
          </Trackpoint>
          <Trackpoint>
            <Time>2019-07-14T10:13:25.000Z</Time>
            <Position>
              <LatitudeDegrees>37.04963802359998226165771484375</LatitudeDegrees>
              <LongitudeDegrees>-3.37124445475637912750244140625</LongitudeDegrees>
            </Position>
            <AltitudeMeters>3215</AltitudeMeters>
            <DistanceMeters>3572.357036789</DistanceMeters>
          </Trackpoint>
          <Trackpoint>
            <Time>2019-07-14T10:13:40.000Z</Time>
            <Position>
              <LatitudeDegrees>37.04958203248679637908935546875</LatitudeDegrees>
              <LongitudeDegrees>-3.37115979753434658050537109375</LongitudeDegrees>
            </Position>
            <AltitudeMeters>3214.800048828125</AltitudeMeters>
            <DistanceMeters>3582.1240080469</DistanceMeters>
          </Trackpoint>
          <Trackpoint>
            <Time>2019-07-14T10:13:47.000Z</Time>
            <Position>
              <LatitudeDegrees>37.04972217790782451629638671875</LatitudeDegrees>
              <LongitudeDegrees>-3.37121394462883472442626953125</LongitudeDegrees>
            </Position>
            <AltitudeMeters>3214.800048828125</AltitudeMeters>
            <DistanceMeters>3598.4475951438</DistanceMeters>
          </Trackpoint>
          <Trackpoint>
            <Time>2019-07-14T10:14:47.000Z</Time>
            <Position>
              <LatitudeDegrees>37.04970826394855976104736328125</LatitudeDegrees>
              <LongitudeDegrees>-3.3710849471390247344970703125</LongitudeDegrees>
            </Position>
            <AltitudeMeters>3213.60009765625</AltitudeMeters>
            <DistanceMeters>3610.0104370016</DistanceMeters>
          </Trackpoint>
          <Trackpoint>
            <Time>2019-07-14T10:18:44.000Z</Time>
            <Position>
              <LatitudeDegrees>37.04969552345573902130126953125</LatitudeDegrees>
              <LongitudeDegrees>-3.37110481224954128265380859375</LongitudeDegrees>
            </Position>
            <AltitudeMeters>3216.800048828125</AltitudeMeters>
            <DistanceMeters>3612.2751849832</DistanceMeters>
          </Trackpoint>
          <Trackpoint>
            <Time>2019-07-14T10:20:24.000Z</Time>
            <Position>
              <LatitudeDegrees>37.0496929250657558441162109375</LatitudeDegrees>
              <LongitudeDegrees>-3.37107832543551921844482421875</LongitudeDegrees>
            </Position>
            <AltitudeMeters>3216</AltitudeMeters>
            <DistanceMeters>3614.6451443812</DistanceMeters>
          </Trackpoint>
          <Trackpoint>
            <Time>2019-07-14T10:21:53.000Z</Time>
            <Position>
              <LatitudeDegrees>37.04969669692218303680419921875</LatitudeDegrees>
              <LongitudeDegrees>-3.37107731960713863372802734375</LongitudeDegrees>
            </Position>
            <AltitudeMeters>3215.39990234375</AltitudeMeters>
            <DistanceMeters>3615.0806114929</DistanceMeters>
          </Trackpoint>
          <Trackpoint>
            <Time>2019-07-14T10:22:28.000Z</Time>
            <Position>
              <LatitudeDegrees>37.04970357008278369903564453125</LatitudeDegrees>
              <LongitudeDegrees>-3.37106675840914249420166015625</LongitudeDegrees>
            </Position>
            <AltitudeMeters>3215.60009765625</AltitudeMeters>
            <DistanceMeters>3616.2901041071</DistanceMeters>
          </Trackpoint>
          <Trackpoint>
            <Time>2019-07-14T10:23:24.000Z</Time>
            <Position>
              <LatitudeDegrees>37.049694098532199859619140625</LatitudeDegrees>
              <LongitudeDegrees>-3.37106944061815738677978515625</LongitudeDegrees>
            </Position>
            <AltitudeMeters>3215.39990234375</AltitudeMeters>
            <DistanceMeters>3617.3735753516</DistanceMeters>
          </Trackpoint>
          <Trackpoint>
            <Time>2019-07-14T10:25:56.000Z</Time>
            <Position>
              <LatitudeDegrees>37.04970826394855976104736328125</LatitudeDegrees>
              <LongitudeDegrees>-3.37108653970062732696533203125</LongitudeDegrees>
            </Position>
            <AltitudeMeters>3216.199951171875</AltitudeMeters>
            <DistanceMeters>3619.5612546049</DistanceMeters>
          </Trackpoint>
          <Trackpoint>
            <Time>2019-07-14T10:25:59.000Z</Time>
            <Position>
              <LatitudeDegrees>37.0497130416333675384521484375</LatitudeDegrees>
              <LongitudeDegrees>-3.37109123356640338897705078125</LongitudeDegrees>
            </Position>
            <AltitudeMeters>3217.60009765625</AltitudeMeters>
            <DistanceMeters>3620.2331949462</DistanceMeters>
          </Trackpoint>
          <Trackpoint>
            <Time>2019-07-14T10:26:23.000Z</Time>
            <Position>
              <LatitudeDegrees>37.04973064363002777099609375</LatitudeDegrees>
              <LongitudeDegrees>-3.37116600014269351959228515625</LongitudeDegrees>
            </Position>
            <AltitudeMeters>3216.199951171875</AltitudeMeters>
            <DistanceMeters>3627.1577675624</DistanceMeters>
          </Trackpoint>
          <Trackpoint>
            <Time>2019-07-14T10:26:40.000Z</Time>
            <Position>
              <LatitudeDegrees>37.049777917563915252685546875</LatitudeDegrees>
              <LongitudeDegrees>-3.37110397405922412872314453125</LongitudeDegrees>
            </Position>
            <AltitudeMeters>3216.39990234375</AltitudeMeters>
            <DistanceMeters>3634.776516238</DistanceMeters>
          </Trackpoint>
          <Trackpoint>
            <Time>2019-07-14T10:26:41.000Z</Time>
            <Position>
              <LatitudeDegrees>37.04977967776358127593994140625</LatitudeDegrees>
              <LongitudeDegrees>-3.3711184747517108917236328125</LongitudeDegrees>
            </Position>
            <AltitudeMeters>3216.39990234375</AltitudeMeters>
            <DistanceMeters>3636.0794569011</DistanceMeters>
          </Trackpoint>
          <Trackpoint>
            <Time>2019-07-14T10:27:13.000Z</Time>
            <Position>
              <LatitudeDegrees>37.04974598251283168792724609375</LatitudeDegrees>
              <LongitudeDegrees>-3.37114856578409671783447265625</LongitudeDegrees>
            </Position>
            <AltitudeMeters>3216.60009765625</AltitudeMeters>
            <DistanceMeters>3640.6850675627</DistanceMeters>
          </Trackpoint>
          <Trackpoint>
            <Time>2019-07-14T10:27:14.000Z</Time>
            <Position>
              <LatitudeDegrees>37.0497398637235164642333984375</LatitudeDegrees>
              <LongitudeDegrees>-3.3711556904017925262451171875</LongitudeDegrees>
            </Position>
            <AltitudeMeters>3216.60009765625</AltitudeMeters>
            <DistanceMeters>3641.6161354113</DistanceMeters>
          </Trackpoint>
          <Trackpoint>
            <Time>2019-07-14T10:27:24.000Z</Time>
            <Position>
              <LatitudeDegrees>37.04974363557994365692138671875</LatitudeDegrees>
              <LongitudeDegrees>-3.37116130627691745758056640625</LongitudeDegrees>
            </Position>
            <AltitudeMeters>3215.60009765625</AltitudeMeters>
            <DistanceMeters>3642.2676057428</DistanceMeters>
          </Trackpoint>
          <Trackpoint>
            <Time>2019-07-14T10:27:29.000Z</Time>
            <Position>
              <LatitudeDegrees>37.0497482456266880035400390625</LatitudeDegrees>
              <LongitudeDegrees>-3.37114638648927211761474609375</LongitudeDegrees>
            </Position>
            <AltitudeMeters>3215.60009765625</AltitudeMeters>
            <DistanceMeters>3643.6898353739</DistanceMeters>
          </Trackpoint>
          <Trackpoint>
            <Time>2019-07-14T10:27:35.000Z</Time>
            <Position>
              <LatitudeDegrees>37.04970491118729114532470703125</LatitudeDegrees>
              <LongitudeDegrees>-3.37117756716907024383544921875</LongitudeDegrees>
            </Position>
            <AltitudeMeters>3216</AltitudeMeters>
            <DistanceMeters>3649.2519430586</DistanceMeters>
          </Trackpoint>
          <Trackpoint>
            <Time>2019-07-14T10:27:41.000Z</Time>
            <Position>
              <LatitudeDegrees>37.04977716319262981414794921875</LatitudeDegrees>
              <LongitudeDegrees>-3.37142332457005977630615234375</LongitudeDegrees>
            </Position>
            <AltitudeMeters>3216.199951171875</AltitudeMeters>
            <DistanceMeters>3672.5173861493</DistanceMeters>
          </Trackpoint>
          <Trackpoint>
            <Time>2019-07-14T10:27:51.000Z</Time>
            <Position>
              <LatitudeDegrees>37.0497894845902919769287109375</LatitudeDegrees>
              <LongitudeDegrees>-3.3713752962648868560791015625</LongitudeDegrees>
            </Position>
            <AltitudeMeters>3216.199951171875</AltitudeMeters>
            <DistanceMeters>3676.998779907</DistanceMeters>
          </Trackpoint>
          <Trackpoint>
            <Time>2019-07-14T10:28:17.000Z</Time>
            <Position>
              <LatitudeDegrees>37.049777917563915252685546875</LatitudeDegrees>
              <LongitudeDegrees>-3.371415697038173675537109375</LongitudeDegrees>
            </Position>
            <AltitudeMeters>3215.800048828125</AltitudeMeters>
            <DistanceMeters>3680.8117083189</DistanceMeters>
          </Trackpoint>
          <Trackpoint>
            <Time>2019-07-14T10:28:21.000Z</Time>
            <Position>
              <LatitudeDegrees>37.04986584372818470001220703125</LatitudeDegrees>
              <LongitudeDegrees>-3.371347300708293914794921875</LongitudeDegrees>
            </Position>
            <AltitudeMeters>3216</AltitudeMeters>
            <DistanceMeters>3692.3307335931</DistanceMeters>
          </Trackpoint>
          <Trackpoint>
            <Time>2019-07-14T10:28:22.000Z</Time>
            <Position>
              <LatitudeDegrees>37.0498721301555633544921875</LatitudeDegrees>
              <LongitudeDegrees>-3.37134000845253467559814453125</LongitudeDegrees>
            </Position>
            <AltitudeMeters>3216</AltitudeMeters>
            <DistanceMeters>3693.2810007368</DistanceMeters>
          </Trackpoint>
          <Trackpoint>
            <Time>2019-07-14T10:28:23.000Z</Time>
            <Position>
              <LatitudeDegrees>37.04987690784037113189697265625</LatitudeDegrees>
              <LongitudeDegrees>-3.37132458575069904327392578125</LongitudeDegrees>
            </Position>
            <AltitudeMeters>3215.800048828125</AltitudeMeters>
            <DistanceMeters>3694.7531482656</DistanceMeters>
          </Trackpoint>
          <Trackpoint>
            <Time>2019-07-14T10:28:24.000Z</Time>
            <Position>
              <LatitudeDegrees>37.0498828589916229248046875</LatitudeDegrees>
              <LongitudeDegrees>-3.37131134234368801116943359375</LongitudeDegrees>
            </Position>
            <AltitudeMeters>3215.800048828125</AltitudeMeters>
            <DistanceMeters>3696.1037316365</DistanceMeters>
          </Trackpoint>
          <Trackpoint>
            <Time>2019-07-14T10:28:25.000Z</Time>
            <Position>
              <LatitudeDegrees>37.04989367164671421051025390625</LatitudeDegrees>
              <LongitudeDegrees>-3.3712975122034549713134765625</LongitudeDegrees>
            </Position>
            <AltitudeMeters>3215.800048828125</AltitudeMeters>
            <DistanceMeters>3697.8221131416</DistanceMeters>
          </Trackpoint>
          <Trackpoint>
            <Time>2019-07-14T10:28:26.000Z</Time>
            <Position>
              <LatitudeDegrees>37.0499016344547271728515625</LatitudeDegrees>
              <LongitudeDegrees>-3.371286280453205108642578125</LongitudeDegrees>
            </Position>
            <AltitudeMeters>3216</AltitudeMeters>
            <DistanceMeters>3699.1558766362</DistanceMeters>
          </Trackpoint>
          <Trackpoint>
            <Time>2019-07-14T10:28:29.000Z</Time>
            <Position>
              <LatitudeDegrees>37.04988579265773296356201171875</LatitudeDegrees>
              <LongitudeDegrees>-3.37126406840980052947998046875</LongitudeDegrees>
            </Position>
            <AltitudeMeters>3216.39990234375</AltitudeMeters>
            <DistanceMeters>3701.8013084051</DistanceMeters>
          </Trackpoint>
          <Trackpoint>
            <Time>2019-07-14T10:28:40.000Z</Time>
            <Position>
              <LatitudeDegrees>37.04986743628978729248046875</LatitudeDegrees>
              <LongitudeDegrees>-3.3713122643530368804931640625</LongitudeDegrees>
            </Position>
            <AltitudeMeters>3215.60009765625</AltitudeMeters>
            <DistanceMeters>3706.545035895</DistanceMeters>
          </Trackpoint>
          <Trackpoint>
            <Time>2019-07-14T10:28:49.000Z</Time>
            <Position>
              <LatitudeDegrees>37.04987741075456142425537109375</LatitudeDegrees>
              <LongitudeDegrees>-3.37127228267490863800048828125</LongitudeDegrees>
            </Position>
            <AltitudeMeters>3215.60009765625</AltitudeMeters>
            <DistanceMeters>3710.2668818436</DistanceMeters>
          </Trackpoint>
          <Trackpoint>
            <Time>2019-07-14T10:28:50.000Z</Time>
            <Position>
              <LatitudeDegrees>37.049879170954227447509765625</LatitudeDegrees>
              <LongitudeDegrees>-3.37125820107758045196533203125</LongitudeDegrees>
            </Position>
            <AltitudeMeters>3215.60009765625</AltitudeMeters>
            <DistanceMeters>3711.5346963438</DistanceMeters>
          </Trackpoint>
          <Trackpoint>
            <Time>2019-07-14T10:28:52.000Z</Time>
            <Position>
              <LatitudeDegrees>37.04988009296357631683349609375</LatitudeDegrees>
              <LongitudeDegrees>-3.3712234161794185638427734375</LongitudeDegrees>
            </Position>
            <AltitudeMeters>3215.60009765625</AltitudeMeters>
            <DistanceMeters>3714.6256219136</DistanceMeters>
          </Trackpoint>
          <Trackpoint>
            <Time>2019-07-14T10:29:22.000Z</Time>
            <Position>
              <LatitudeDegrees>37.0497462339699268341064453125</LatitudeDegrees>
              <LongitudeDegrees>-3.3710561133921146392822265625</LongitudeDegrees>
            </Position>
            <AltitudeMeters>3215.800048828125</AltitudeMeters>
            <DistanceMeters>3735.6696949263</DistanceMeters>
          </Trackpoint>
          <Trackpoint>
            <Time>2019-07-14T10:29:50.000Z</Time>
            <Position>
              <LatitudeDegrees>37.04969518817961215972900390625</LatitudeDegrees>
              <LongitudeDegrees>-3.37109559215605258941650390625</LongitudeDegrees>
            </Position>
            <AltitudeMeters>3216.199951171875</AltitudeMeters>
            <DistanceMeters>3742.3459556557</DistanceMeters>
          </Trackpoint>
          <Trackpoint>
            <Time>2019-07-14T10:29:56.000Z</Time>
            <Position>
              <LatitudeDegrees>37.04967456869781017303466796875</LatitudeDegrees>
              <LongitudeDegrees>-3.37105988524854183197021484375</LongitudeDegrees>
            </Position>
            <AltitudeMeters>3217.199951171875</AltitudeMeters>
            <DistanceMeters>3746.2617020472</DistanceMeters>
          </Trackpoint>
          <Trackpoint>
            <Time>2019-07-14T10:30:53.000Z</Time>
            <Position>
              <LatitudeDegrees>37.04974330030381679534912109375</LatitudeDegrees>
              <LongitudeDegrees>-3.37111202068626880645751953125</LongitudeDegrees>
            </Position>
            <AltitudeMeters>3217.800048828125</AltitudeMeters>
            <DistanceMeters>3755.2043167089</DistanceMeters>
          </Trackpoint>
          <Trackpoint>
            <Time>2019-07-14T10:31:10.000Z</Time>
            <Position>
              <LatitudeDegrees>37.049755789339542388916015625</LatitudeDegrees>
              <LongitudeDegrees>-3.37106524966657161712646484375</LongitudeDegrees>
            </Position>
            <AltitudeMeters>3218.199951171875</AltitudeMeters>
            <DistanceMeters>3759.5858623859</DistanceMeters>
          </Trackpoint>
          <Trackpoint>
            <Time>2019-07-14T10:31:27.000Z</Time>
            <Position>
              <LatitudeDegrees>37.0497982017695903778076171875</LatitudeDegrees>
              <LongitudeDegrees>-3.37109860964119434356689453125</LongitudeDegrees>
            </Position>
            <AltitudeMeters>3217.800048828125</AltitudeMeters>
            <DistanceMeters>3765.1601330147</DistanceMeters>
          </Trackpoint>
          <Trackpoint>
            <Time>2019-07-14T10:31:28.000Z</Time>
            <Position>
              <LatitudeDegrees>37.0498085953295230865478515625</LatitudeDegrees>
              <LongitudeDegrees>-3.37109894491732120513916015625</LongitudeDegrees>
            </Position>
            <AltitudeMeters>3217.800048828125</AltitudeMeters>
            <DistanceMeters>3766.3161828898</DistanceMeters>
          </Trackpoint>
          <Trackpoint>
            <Time>2019-07-14T10:31:29.000Z</Time>
            <Position>
              <LatitudeDegrees>37.04982058145105838775634765625</LatitudeDegrees>
              <LongitudeDegrees>-3.3710928261280059814453125</LongitudeDegrees>
            </Position>
            <AltitudeMeters>3218</AltitudeMeters>
            <DistanceMeters>3767.7510548107</DistanceMeters>
          </Trackpoint>
          <Trackpoint>
            <Time>2019-07-14T10:31:30.000Z</Time>
            <Position>
              <LatitudeDegrees>37.04982929863035678863525390625</LatitudeDegrees>
              <LongitudeDegrees>-3.3710836060345172882080078125</LongitudeDegrees>
            </Position>
            <AltitudeMeters>3218.39990234375</AltitudeMeters>
            <DistanceMeters>3769.0224255998</DistanceMeters>
          </Trackpoint>
          <Trackpoint>
            <Time>2019-07-14T10:31:31.000Z</Time>
            <Position>
              <LatitudeDegrees>37.04983717761933803558349609375</LatitudeDegrees>
              <LongitudeDegrees>-3.3710748888552188873291015625</LongitudeDegrees>
            </Position>
            <AltitudeMeters>3218.800048828125</AltitudeMeters>
            <DistanceMeters>3770.1901334156</DistanceMeters>
          </Trackpoint>
          <Trackpoint>
            <Time>2019-07-14T10:32:03.000Z</Time>
            <Position>
              <LatitudeDegrees>37.04985494725406169891357421875</LatitudeDegrees>
              <LongitudeDegrees>-3.37107740342617034912109375</LongitudeDegrees>
            </Position>
            <AltitudeMeters>3216.800048828125</AltitudeMeters>
            <DistanceMeters>3772.1788952119</DistanceMeters>
          </Trackpoint>
          <Trackpoint>
            <Time>2019-07-14T10:33:28.000Z</Time>
            <Position>
              <LatitudeDegrees>37.049865424633026123046875</LatitudeDegrees>
              <LongitudeDegrees>-3.37101244367659091949462890625</LongitudeDegrees>
            </Position>
            <AltitudeMeters>3214.800048828125</AltitudeMeters>
            <DistanceMeters>3778.0659516404</DistanceMeters>
          </Trackpoint>
          <Trackpoint>
            <Time>2019-07-14T10:33:44.000Z</Time>
            <Position>
              <LatitudeDegrees>37.04992736689746379852294921875</LatitudeDegrees>
              <LongitudeDegrees>-3.37091269902884960174560546875</LongitudeDegrees>
            </Position>
            <AltitudeMeters>3211.39990234375</AltitudeMeters>
            <DistanceMeters>3789.2927858782</DistanceMeters>
          </Trackpoint>
          <Trackpoint>
            <Time>2019-07-14T10:33:45.000Z</Time>
            <Position>
              <LatitudeDegrees>37.04993021674454212188720703125</LatitudeDegrees>
              <LongitudeDegrees>-3.3709089271724224090576171875</LongitudeDegrees>
            </Position>
            <AltitudeMeters>3211.199951171875</AltitudeMeters>
            <DistanceMeters>3789.7583198025</DistanceMeters>
          </Trackpoint>
          <Trackpoint>
            <Time>2019-07-14T10:34:21.000Z</Time>
            <Position>
              <LatitudeDegrees>37.04998872242867946624755859375</LatitudeDegrees>
              <LongitudeDegrees>-3.37086559273302555084228515625</LongitudeDegrees>
            </Position>
            <AltitudeMeters>3208</AltitudeMeters>
            <DistanceMeters>3797.3223507615</DistanceMeters>
          </Trackpoint>
          <Trackpoint>
            <Time>2019-07-14T10:34:24.000Z</Time>
            <Position>
              <LatitudeDegrees>37.04998721368610858917236328125</LatitudeDegrees>
              <LongitudeDegrees>-3.37083877064287662506103515625</LongitudeDegrees>
            </Position>
            <AltitudeMeters>3208.39990234375</AltitudeMeters>
            <DistanceMeters>3799.7112853175</DistanceMeters>
          </Trackpoint>
          <Trackpoint>
            <Time>2019-07-14T10:34:28.000Z</Time>
            <Position>
              <LatitudeDegrees>37.049993835389614105224609375</LatitudeDegrees>
              <LongitudeDegrees>-3.3708033151924610137939453125</LongitudeDegrees>
            </Position>
            <AltitudeMeters>3207</AltitudeMeters>
            <DistanceMeters>3802.9463832447</DistanceMeters>
          </Trackpoint>
          <Trackpoint>
            <Time>2019-07-14T10:34:44.000Z</Time>
            <Position>
              <LatitudeDegrees>37.05014772713184356689453125</LatitudeDegrees>
              <LongitudeDegrees>-3.3706376887857913970947265625</LongitudeDegrees>
            </Position>
            <AltitudeMeters>3204.199951171875</AltitudeMeters>
            <DistanceMeters>3825.52597837</DistanceMeters>
          </Trackpoint>
          <Trackpoint>
            <Time>2019-07-14T10:34:50.000Z</Time>
            <Position>
              <LatitudeDegrees>37.0501961745321750640869140625</LatitudeDegrees>
              <LongitudeDegrees>-3.3705998025834560394287109375</LongitudeDegrees>
            </Position>
            <AltitudeMeters>3203.39990234375</AltitudeMeters>
            <DistanceMeters>3831.882122013</DistanceMeters>
          </Trackpoint>
          <Trackpoint>
            <Time>2019-07-14T10:34:51.000Z</Time>
            <Position>
              <LatitudeDegrees>37.05020363442599773406982421875</LatitudeDegrees>
              <LongitudeDegrees>-3.3705894090235233306884765625</LongitudeDegrees>
            </Position>
            <AltitudeMeters>3203.199951171875</AltitudeMeters>
            <DistanceMeters>3833.1211187828</DistanceMeters>
          </Trackpoint>
          <Trackpoint>
            <Time>2019-07-14T10:35:10.000Z</Time>
            <Position>
              <LatitudeDegrees>37.0503450371325016021728515625</LatitudeDegrees>
              <LongitudeDegrees>-3.37042990140616893768310546875</LongitudeDegrees>
            </Position>
            <AltitudeMeters>3202</AltitudeMeters>
            <DistanceMeters>3854.298222374</DistanceMeters>
          </Trackpoint>
          <Trackpoint>
            <Time>2019-07-14T10:35:32.000Z</Time>
            <Position>
              <LatitudeDegrees>37.0503919757902622222900390625</LatitudeDegrees>
              <LongitudeDegrees>-3.3704211004078388214111328125</LongitudeDegrees>
            </Position>
            <AltitudeMeters>3201.60009765625</AltitudeMeters>
            <DistanceMeters>3859.5814000436</DistanceMeters>
          </Trackpoint>
          <Trackpoint>
            <Time>2019-07-14T10:35:44.000Z</Time>
            <Position>
              <LatitudeDegrees>37.05041536130011081695556640625</LatitudeDegrees>
              <LongitudeDegrees>-3.37036418728530406951904296875</LongitudeDegrees>
            </Position>
            <AltitudeMeters>3201</AltitudeMeters>
            <DistanceMeters>3865.2687310364</DistanceMeters>
          </Trackpoint>
          <Trackpoint>
            <Time>2019-07-14T10:36:16.000Z</Time>
            <Position>
              <LatitudeDegrees>37.05056908540427684783935546875</LatitudeDegrees>
              <LongitudeDegrees>-3.370244912803173065185546875</LongitudeDegrees>
            </Position>
            <AltitudeMeters>3200.60009765625</AltitudeMeters>
            <DistanceMeters>3885.3935405657</DistanceMeters>
          </Trackpoint>
          <Trackpoint>
            <Time>2019-07-14T10:36:35.000Z</Time>
            <Position>
              <LatitudeDegrees>37.05070604570209980010986328125</LatitudeDegrees>
              <LongitudeDegrees>-3.370067887008190155029296875</LongitudeDegrees>
            </Position>
            <AltitudeMeters>3200.199951171875</AltitudeMeters>
            <DistanceMeters>3907.2948791235</DistanceMeters>
          </Trackpoint>
          <Trackpoint>
            <Time>2019-07-14T10:36:49.000Z</Time>
            <Position>
              <LatitudeDegrees>37.050761617720127105712890625</LatitudeDegrees>
              <LongitudeDegrees>-3.37000711821019649505615234375</LongitudeDegrees>
            </Position>
            <AltitudeMeters>3199.60009765625</AltitudeMeters>
            <DistanceMeters>3915.5046593019</DistanceMeters>
          </Trackpoint>
          <Trackpoint>
            <Time>2019-07-14T10:37:07.000Z</Time>
            <Position>
              <LatitudeDegrees>37.05090385861694812774658203125</LatitudeDegrees>
              <LongitudeDegrees>-3.36979857645928859710693359375</LongitudeDegrees>
            </Position>
            <AltitudeMeters>3197.199951171875</AltitudeMeters>
            <DistanceMeters>3939.873036904</DistanceMeters>
          </Trackpoint>
          <Trackpoint>
            <Time>2019-07-14T10:37:23.000Z</Time>
            <Position>
              <LatitudeDegrees>37.05103310756385326385498046875</LatitudeDegrees>
              <LongitudeDegrees>-3.36964501999318599700927734375</LongitudeDegrees>
            </Position>
            <AltitudeMeters>3196.60009765625</AltitudeMeters>
            <DistanceMeters>3959.6972129756</DistanceMeters>
          </Trackpoint>
          <Trackpoint>
            <Time>2019-07-14T10:37:39.000Z</Time>
            <Position>
              <LatitudeDegrees>37.05109798349440097808837890625</LatitudeDegrees>
              <LongitudeDegrees>-3.369473107159137725830078125</LongitudeDegrees>
            </Position>
            <AltitudeMeters>3195.800048828125</AltitudeMeters>
            <DistanceMeters>3976.5889966433</DistanceMeters>
          </Trackpoint>
          <Trackpoint>
            <Time>2019-07-14T10:37:59.000Z</Time>
            <Position>
              <LatitudeDegrees>37.05119722522795200347900390625</LatitudeDegrees>
              <LongitudeDegrees>-3.36925593204796314239501953125</LongitudeDegrees>
            </Position>
            <AltitudeMeters>3196</AltitudeMeters>
            <DistanceMeters>3998.8191555152</DistanceMeters>
          </Trackpoint>
          <Trackpoint>
            <Time>2019-07-14T10:38:19.000Z</Time>
            <Position>
              <LatitudeDegrees>37.05126327462494373321533203125</LatitudeDegrees>
              <LongitudeDegrees>-3.36903532035648822784423828125</LongitudeDegrees>
            </Position>
            <AltitudeMeters>3194</AltitudeMeters>
            <DistanceMeters>4019.7492073176</DistanceMeters>
          </Trackpoint>
          <Trackpoint>
            <Time>2019-07-14T10:38:20.000Z</Time>
            <Position>
              <LatitudeDegrees>37.0512600056827068328857421875</LatitudeDegrees>
              <LongitudeDegrees>-3.3690270222723484039306640625</LongitudeDegrees>
            </Position>
            <AltitudeMeters>3193.800048828125</AltitudeMeters>
            <DistanceMeters>4020.5666580237</DistanceMeters>
          </Trackpoint>
          <Trackpoint>
            <Time>2019-07-14T10:38:32.000Z</Time>
            <Position>
              <LatitudeDegrees>37.0512479357421398162841796875</LatitudeDegrees>
              <LongitudeDegrees>-3.3690206520259380340576171875</LongitudeDegrees>
            </Position>
            <AltitudeMeters>3191.39990234375</AltitudeMeters>
            <DistanceMeters>4022.0264861097</DistanceMeters>
          </Trackpoint>
          <Trackpoint>
            <Time>2019-07-14T10:38:36.000Z</Time>
            <Position>
              <LatitudeDegrees>37.05124969594180583953857421875</LatitudeDegrees>
              <LongitudeDegrees>-3.36901570670306682586669921875</LongitudeDegrees>
            </Position>
            <AltitudeMeters>3195.39990234375</AltitudeMeters>
            <DistanceMeters>4022.5110291806</DistanceMeters>
          </Trackpoint>
          <Trackpoint>
            <Time>2019-07-14T10:39:19.000Z</Time>
            <Position>
              <LatitudeDegrees>37.0512539707124233245849609375</LatitudeDegrees>
              <LongitudeDegrees>-3.36897077970206737518310546875</LongitudeDegrees>
            </Position>
            <AltitudeMeters>3193.800048828125</AltitudeMeters>
            <DistanceMeters>4026.5303334435</DistanceMeters>
          </Trackpoint>
          <Trackpoint>
            <Time>2019-07-14T10:39:20.000Z</Time>
            <Position>
              <LatitudeDegrees>37.0512579940259456634521484375</LatitudeDegrees>
              <LongitudeDegrees>-3.36895837448537349700927734375</LongitudeDegrees>
            </Position>
            <AltitudeMeters>3193.60009765625</AltitudeMeters>
            <DistanceMeters>4027.7172167256</DistanceMeters>
          </Trackpoint>
          <Trackpoint>
            <Time>2019-07-14T10:39:37.000Z</Time>
            <Position>
              <LatitudeDegrees>37.051314823329448699951171875</LatitudeDegrees>
              <LongitudeDegrees>-3.368724770843982696533203125</LongitudeDegrees>
            </Position>
            <AltitudeMeters>3195</AltitudeMeters>
            <DistanceMeters>4049.4105897662</DistanceMeters>
          </Trackpoint>
          <Trackpoint>
            <Time>2019-07-14T10:39:41.000Z</Time>
            <Position>
              <LatitudeDegrees>37.0513247139751911163330078125</LatitudeDegrees>
              <LongitudeDegrees>-3.36866484023630619049072265625</LongitudeDegrees>
            </Position>
            <AltitudeMeters>3192.800048828125</AltitudeMeters>
            <DistanceMeters>4054.846250731</DistanceMeters>
          </Trackpoint>
          <Trackpoint>
            <Time>2019-07-14T10:39:42.000Z</Time>
            <Position>
              <LatitudeDegrees>37.0513307489454746246337890625</LatitudeDegrees>
              <LongitudeDegrees>-3.36865134537220001220703125</LongitudeDegrees>
            </Position>
            <AltitudeMeters>3191.60009765625</AltitudeMeters>
            <DistanceMeters>4056.2167454958</DistanceMeters>
          </Trackpoint>
          <Trackpoint>
            <Time>2019-07-14T10:39:56.000Z</Time>
            <Position>
              <LatitudeDegrees>37.05137483775615692138671875</LatitudeDegrees>
              <LongitudeDegrees>-3.36845210753381252288818359375</LongitudeDegrees>
            </Position>
            <AltitudeMeters>3194.800048828125</AltitudeMeters>
            <DistanceMeters>4074.5824865756</DistanceMeters>
          </Trackpoint>
          <Trackpoint>
            <Time>2019-07-14T10:40:04.000Z</Time>
            <Position>
              <LatitudeDegrees>37.0513679645955562591552734375</LatitudeDegrees>
              <LongitudeDegrees>-3.36834414862096309661865234375</LongitudeDegrees>
            </Position>
            <AltitudeMeters>3192.60009765625</AltitudeMeters>
            <DistanceMeters>4084.2027388319</DistanceMeters>
          </Trackpoint>
          <Trackpoint>
            <Time>2019-07-14T10:40:14.000Z</Time>
            <Position>
              <LatitudeDegrees>37.051326893270015716552734375</LatitudeDegrees>
              <LongitudeDegrees>-3.36820417083799839019775390625</LongitudeDegrees>
            </Position>
            <AltitudeMeters>3189.199951171875</AltitudeMeters>
            <DistanceMeters>4097.4507034214</DistanceMeters>
          </Trackpoint>
          <Trackpoint>
            <Time>2019-07-14T10:40:15.000Z</Time>
            <Position>
              <LatitudeDegrees>37.05130778253078460693359375</LatitudeDegrees>
              <LongitudeDegrees>-3.3681952022016048431396484375</LongitudeDegrees>
            </Position>
            <AltitudeMeters>3188.60009765625</AltitudeMeters>
            <DistanceMeters>4099.7214243751</DistanceMeters>
          </Trackpoint>
          <Trackpoint>
            <Time>2019-07-14T10:40:18.000Z</Time>
            <Position>
              <LatitudeDegrees>37.0512750931084156036376953125</LatitudeDegrees>
              <LongitudeDegrees>-3.36817634291946887969970703125</LongitudeDegrees>
            </Position>
            <AltitudeMeters>3187.39990234375</AltitudeMeters>
            <DistanceMeters>4103.7260986146</DistanceMeters>
          </Trackpoint>
          <Trackpoint>
            <Time>2019-07-14T10:40:21.000Z</Time>
            <Position>
              <LatitudeDegrees>37.05123536288738250732421875</LatitudeDegrees>
              <LongitudeDegrees>-3.36815689690411090850830078125</LongitudeDegrees>
            </Position>
            <AltitudeMeters>3187.39990234375</AltitudeMeters>
            <DistanceMeters>4108.4745826759</DistanceMeters>
          </Trackpoint>
          <Trackpoint>
            <Time>2019-07-14T10:40:22.000Z</Time>
            <Position>
              <LatitudeDegrees>37.05122689716517925262451171875</LatitudeDegrees>
              <LongitudeDegrees>-3.3681492693722248077392578125</LongitudeDegrees>
            </Position>
            <AltitudeMeters>3187.60009765625</AltitudeMeters>
            <DistanceMeters>4109.6384174866</DistanceMeters>
          </Trackpoint>
          <Trackpoint>
            <Time>2019-07-14T10:40:23.000Z</Time>
            <Position>
              <LatitudeDegrees>37.05121784470975399017333984375</LatitudeDegrees>
              <LongitudeDegrees>-3.3681422285735607147216796875</LongitudeDegrees>
            </Position>
            <AltitudeMeters>3187.60009765625</AltitudeMeters>
            <DistanceMeters>4110.8253007686</DistanceMeters>
          </Trackpoint>
          <Trackpoint>
            <Time>2019-07-14T10:40:24.000Z</Time>
            <Position>
              <LatitudeDegrees>37.05120543949306011199951171875</LatitudeDegrees>
              <LongitudeDegrees>-3.3681338466703891754150390625</LongitudeDegrees>
            </Position>
            <AltitudeMeters>3187.60009765625</AltitudeMeters>
            <DistanceMeters>4112.3925214911</DistanceMeters>
          </Trackpoint>
          <Trackpoint>
            <Time>2019-07-14T10:40:25.000Z</Time>
            <Position>
              <LatitudeDegrees>37.05119487829506397247314453125</LatitudeDegrees>
              <LongitudeDegrees>-3.36812420748174190521240234375</LongitudeDegrees>
            </Position>
            <AltitudeMeters>3187.39990234375</AltitudeMeters>
            <DistanceMeters>4113.8461507037</DistanceMeters>
          </Trackpoint>
          <Trackpoint>
            <Time>2019-07-14T10:40:26.000Z</Time>
            <Position>
              <LatitudeDegrees>37.05118448473513126373291015625</LatitudeDegrees>
              <LongitudeDegrees>-3.36811398155987262725830078125</LongitudeDegrees>
            </Position>
            <AltitudeMeters>3187.39990234375</AltitudeMeters>
            <DistanceMeters>4115.3152280571</DistanceMeters>
          </Trackpoint>
          <Trackpoint>
            <Time>2019-07-14T10:40:44.000Z</Time>
            <Position>
              <LatitudeDegrees>37.0511595904827117919921875</LatitudeDegrees>
              <LongitudeDegrees>-3.3680738322436809539794921875</LongitudeDegrees>
            </Position>
            <AltitudeMeters>3187.199951171875</AltitudeMeters>
            <DistanceMeters>4119.8307471424</DistanceMeters>
          </Trackpoint>
          <Trackpoint>
            <Time>2019-07-14T10:41:08.000Z</Time>
            <Position>
              <LatitudeDegrees>37.05114793963730335235595703125</LatitudeDegrees>
              <LongitudeDegrees>-3.3680674619972705841064453125</LongitudeDegrees>
            </Position>
            <AltitudeMeters>3188</AltitudeMeters>
            <DistanceMeters>4121.2497986027</DistanceMeters>
          </Trackpoint>
          <Trackpoint>
            <Time>2019-07-14T10:41:13.000Z</Time>
            <Position>
              <LatitudeDegrees>37.05115682445466518402099609375</LatitudeDegrees>
              <LongitudeDegrees>-3.36811314336955547332763671875</LongitudeDegrees>
            </Position>
            <AltitudeMeters>3188.800048828125</AltitudeMeters>
            <DistanceMeters>4125.4266524055</DistanceMeters>
          </Trackpoint>
          <Trackpoint>
            <Time>2019-07-14T10:41:14.000Z</Time>
            <Position>
              <LatitudeDegrees>37.05116135068237781524658203125</LatitudeDegrees>
              <LongitudeDegrees>-3.3681217767298221588134765625</LongitudeDegrees>
            </Position>
            <AltitudeMeters>3188.199951171875</AltitudeMeters>
            <DistanceMeters>4126.3479705839</DistanceMeters>
          </Trackpoint>
          <Trackpoint>
            <Time>2019-07-14T10:41:15.000Z</Time>
            <Position>
              <LatitudeDegrees>37.051165960729122161865234375</LatitudeDegrees>
              <LongitudeDegrees>-3.36813024245202541351318359375</LongitudeDegrees>
            </Position>
            <AltitudeMeters>3188</AltitudeMeters>
            <DistanceMeters>4127.254467664</DistanceMeters>
          </Trackpoint>
          <Trackpoint>
            <Time>2019-07-14T10:41:19.000Z</Time>
            <Position>
              <LatitudeDegrees>37.0511542260646820068359375</LatitudeDegrees>
              <LongitudeDegrees>-3.36817198432981967926025390625</LongitudeDegrees>
            </Position>
            <AltitudeMeters>3189.39990234375</AltitudeMeters>
            <DistanceMeters>4131.1840262549</DistanceMeters>
          </Trackpoint>
          <Trackpoint>
            <Time>2019-07-14T10:41:20.000Z</Time>
            <Position>
              <LatitudeDegrees>37.05114492215216159820556640625</LatitudeDegrees>
              <LongitudeDegrees>-3.36817952804267406463623046875</LongitudeDegrees>
            </Position>
            <AltitudeMeters>3189.60009765625</AltitudeMeters>
            <DistanceMeters>4132.4157132454</DistanceMeters>
          </Trackpoint>
          <Trackpoint>
            <Time>2019-07-14T10:41:21.000Z</Time>
            <Position>
              <LatitudeDegrees>37.05113612115383148193359375</LatitudeDegrees>
              <LongitudeDegrees>-3.36818807758390903472900390625</LongitudeDegrees>
            </Position>
            <AltitudeMeters>3189.60009765625</AltitudeMeters>
            <DistanceMeters>4133.6547100152</DistanceMeters>
          </Trackpoint>
          <Trackpoint>
            <Time>2019-07-14T10:41:22.000Z</Time>
            <Position>
              <LatitudeDegrees>37.05112396739423274993896484375</LatitudeDegrees>
              <LongitudeDegrees>-3.36819729767739772796630859375</LongitudeDegrees>
            </Position>
            <AltitudeMeters>3189.199951171875</AltitudeMeters>
            <DistanceMeters>4135.2391219728</DistanceMeters>
          </Trackpoint>
          <Trackpoint>
            <Time>2019-07-14T10:41:28.000Z</Time>
            <Position>
              <LatitudeDegrees>37.05106948502361774444580078125</LatitudeDegrees>
              <LongitudeDegrees>-3.36822914890944957733154296875</LongitudeDegrees>
            </Position>
            <AltitudeMeters>3186.199951171875</AltitudeMeters>
            <DistanceMeters>4141.930919122</DistanceMeters>
          </Trackpoint>
          <Trackpoint>
            <Time>2019-07-14T10:41:29.000Z</Time>
            <Position>
              <LatitudeDegrees>37.05106043256819248199462890625</LatitudeDegrees>
              <LongitudeDegrees>-3.36823568679392337799072265625</LongitudeDegrees>
            </Position>
            <AltitudeMeters>3186.199951171875</AltitudeMeters>
            <DistanceMeters>4143.0947539327</DistanceMeters>
          </Trackpoint>
          <Trackpoint>
            <Time>2019-07-14T10:41:30.000Z</Time>
            <Position>
              <LatitudeDegrees>37.051050961017608642578125</LatitudeDegrees>
              <LongitudeDegrees>-3.36824591271579265594482421875</LongitudeDegrees>
            </Position>
            <AltitudeMeters>3186.199951171875</AltitudeMeters>
            <DistanceMeters>4144.4848749199</DistanceMeters>
          </Trackpoint>
          <Trackpoint>
            <Time>2019-07-14T10:41:31.000Z</Time>
            <Position>
              <LatitudeDegrees>37.05104291439056396484375</LatitudeDegrees>
              <LongitudeDegrees>-3.36825178004801273345947265625</LongitudeDegrees>
            </Position>
            <AltitudeMeters>3186.39990234375</AltitudeMeters>
            <DistanceMeters>4145.5214939901</DistanceMeters>
          </Trackpoint>
          <Trackpoint>
            <Time>2019-07-14T10:41:33.000Z</Time>
            <Position>
              <LatitudeDegrees>37.051028497517108917236328125</LatitudeDegrees>
              <LongitudeDegrees>-3.3682602457702159881591796875</LongitudeDegrees>
            </Position>
            <AltitudeMeters>3187.199951171875</AltitudeMeters>
            <DistanceMeters>4147.2941943603</DistanceMeters>
          </Trackpoint>
          <Trackpoint>
            <Time>2019-07-14T10:41:34.000Z</Time>
            <Position>
              <LatitudeDegrees>37.051019780337810516357421875</LatitudeDegrees>
              <LongitudeDegrees>-3.3682672865688800811767578125</LongitudeDegrees>
            </Position>
            <AltitudeMeters>3187.39990234375</AltitudeMeters>
            <DistanceMeters>4148.4502442354</DistanceMeters>
          </Trackpoint>
          <Trackpoint>
            <Time>2019-07-14T10:41:35.000Z</Time>
            <Position>
              <LatitudeDegrees>37.05101416446268558502197265625</LatitudeDegrees>
              <LongitudeDegrees>-3.36827851831912994384765625</LongitudeDegrees>
            </Position>
            <AltitudeMeters>3187.199951171875</AltitudeMeters>
            <DistanceMeters>4149.6256597772</DistanceMeters>
          </Trackpoint>
          <Trackpoint>
            <Time>2019-07-14T10:41:36.000Z</Time>
            <Position>
              <LatitudeDegrees>37.05100695602595806121826171875</LatitudeDegrees>
              <LongitudeDegrees>-3.36828782223165035247802734375</LongitudeDegrees>
            </Position>
            <AltitudeMeters>3187.199951171875</AltitudeMeters>
            <DistanceMeters>4150.7777974588</DistanceMeters>
          </Trackpoint>
          <Trackpoint>
            <Time>2019-07-14T10:41:37.000Z</Time>
            <Position>
              <LatitudeDegrees>37.05099706538021564483642578125</LatitudeDegrees>
              <LongitudeDegrees>-3.3682951144874095916748046875</LongitudeDegrees>
            </Position>
            <AltitudeMeters>3187</AltitudeMeters>
            <DistanceMeters>4152.0527146168</DistanceMeters>
          </Trackpoint>
          <Trackpoint>
            <Time>2019-07-14T10:41:38.000Z</Time>
            <Position>
              <LatitudeDegrees>37.05098834820091724395751953125</LatitudeDegrees>
              <LongitudeDegrees>-3.36830265820026397705078125</LongitudeDegrees>
            </Position>
            <AltitudeMeters>3187.199951171875</AltitudeMeters>
            <DistanceMeters>4153.2319651298</DistanceMeters>
          </Trackpoint>
          <Trackpoint>
            <Time>2019-07-14T10:41:39.000Z</Time>
            <Position>
              <LatitudeDegrees>37.0509798824787139892578125</LatitudeDegrees>
              <LongitudeDegrees>-3.36831162683665752410888671875</LongitudeDegrees>
            </Position>
            <AltitudeMeters>3187.39990234375</AltitudeMeters>
            <DistanceMeters>4154.4673124166</DistanceMeters>
          </Trackpoint>
          <Trackpoint>
            <Time>2019-07-14T10:41:40.000Z</Time>
            <Position>
              <LatitudeDegrees>37.0509746856987476348876953125</LatitudeDegrees>
              <LongitudeDegrees>-3.3683246187865734100341796875</LongitudeDegrees>
            </Position>
            <AltitudeMeters>3187.199951171875</AltitudeMeters>
            <DistanceMeters>4155.7633040133</DistanceMeters>
          </Trackpoint>
          <Trackpoint>
            <Time>2019-07-14T10:41:41.000Z</Time>
            <Position>
              <LatitudeDegrees>37.05096940509974956512451171875</LatitudeDegrees>
              <LongitudeDegrees>-3.36833677254617214202880859375</LongitudeDegrees>
            </Position>
            <AltitudeMeters>3187.199951171875</AltitudeMeters>
            <DistanceMeters>4156.9913197974</DistanceMeters>
          </Trackpoint>
          <Trackpoint>
            <Time>2019-07-14T10:41:43.000Z</Time>
            <Position>
              <LatitudeDegrees>37.05095767043530941009521484375</LatitudeDegrees>
              <LongitudeDegrees>-3.3683531172573566436767578125</LongitudeDegrees>
            </Position>
            <AltitudeMeters>3187.199951171875</AltitudeMeters>
            <DistanceMeters>4158.9434192466</DistanceMeters>
          </Trackpoint>
          <Trackpoint>
            <Time>2019-07-14T10:41:44.000Z</Time>
            <Position>
              <LatitudeDegrees>37.05094970762729644775390625</LatitudeDegrees>
              <LongitudeDegrees>-3.36836309172213077545166015625</LongitudeDegrees>
            </Position>
            <AltitudeMeters>3187.39990234375</AltitudeMeters>
            <DistanceMeters>4160.1969076993</DistanceMeters>
          </Trackpoint>
          <Trackpoint>
            <Time>2019-07-14T10:41:45.000Z</Time>
            <Position>
              <LatitudeDegrees>37.05094300210475921630859375</LatitudeDegrees>
              <LongitudeDegrees>-3.368373401463031768798828125</LongitudeDegrees>
            </Position>
            <AltitudeMeters>3187.800048828125</AltitudeMeters>
            <DistanceMeters>4161.3837909814</DistanceMeters>
          </Trackpoint>
          <Trackpoint>
            <Time>2019-07-14T10:41:49.000Z</Time>
            <Position>
              <LatitudeDegrees>37.05090947449207305908203125</LatitudeDegrees>
              <LongitudeDegrees>-3.3684124611318111419677734375</LongitudeDegrees>
            </Position>
            <AltitudeMeters>3187.199951171875</AltitudeMeters>
            <DistanceMeters>4166.4790308949</DistanceMeters>
          </Trackpoint>
          <Trackpoint>
            <Time>2019-07-14T10:41:55.000Z</Time>
            <Position>
              <LatitudeDegrees>37.0508657209575176239013671875</LatitudeDegrees>
              <LongitudeDegrees>-3.36846317164599895477294921875</LongitudeDegrees>
            </Position>
            <AltitudeMeters>3184.199951171875</AltitudeMeters>
            <DistanceMeters>4173.1125490046</DistanceMeters>
          </Trackpoint>
          <Trackpoint>
            <Time>2019-07-14T10:41:59.000Z</Time>
            <Position>
              <LatitudeDegrees>37.05083462409675121307373046875</LatitudeDegrees>
              <LongitudeDegrees>-3.368502147495746612548828125</LongitudeDegrees>
            </Position>
            <AltitudeMeters>3183.39990234375</AltitudeMeters>
            <DistanceMeters>4178.00803906</DistanceMeters>
          </Trackpoint>
          <Trackpoint>
            <Time>2019-07-14T10:42:15.000Z</Time>
            <Position>
              <LatitudeDegrees>37.050737477838993072509765625</LatitudeDegrees>
              <LongitudeDegrees>-3.36868110112845897674560546875</LongitudeDegrees>
            </Position>
            <AltitudeMeters>3184.199951171875</AltitudeMeters>
            <DistanceMeters>4197.2335192622</DistanceMeters>
          </Trackpoint>
          <Trackpoint>
            <Time>2019-07-14T10:42:16.000Z</Time>
            <Position>
              <LatitudeDegrees>37.05073337070643901824951171875</LatitudeDegrees>
              <LongitudeDegrees>-3.368692584335803985595703125</LongitudeDegrees>
            </Position>
            <AltitudeMeters>3184</AltitudeMeters>
            <DistanceMeters>4198.3498303968</DistanceMeters>
          </Trackpoint>
          <Trackpoint>
            <Time>2019-07-14T10:42:17.000Z</Time>
            <Position>
              <LatitudeDegrees>37.050728760659694671630859375</LatitudeDegrees>
              <LongitudeDegrees>-3.36870406754314899444580078125</LongitudeDegrees>
            </Position>
            <AltitudeMeters>3183.800048828125</AltitudeMeters>
            <DistanceMeters>4199.4901509692</DistanceMeters>
          </Trackpoint>
          <Trackpoint>
            <Time>2019-07-14T10:42:20.000Z</Time>
            <Position>
              <LatitudeDegrees>37.05071493051946163177490234375</LatitudeDegrees>
              <LongitudeDegrees>-3.36874522268772125244140625</LongitudeDegrees>
            </Position>
            <AltitudeMeters>3184.39990234375</AltitudeMeters>
            <DistanceMeters>4203.4563069376</DistanceMeters>
          </Trackpoint>
          <Trackpoint>
            <Time>2019-07-14T10:42:21.000Z</Time>
            <Position>
              <LatitudeDegrees>37.05071191303431987762451171875</LatitudeDegrees>
              <LongitudeDegrees>-3.36876039393246173858642578125</LongitudeDegrees>
            </Position>
            <AltitudeMeters>3184.39990234375</AltitudeMeters>
            <DistanceMeters>4204.8399167836</DistanceMeters>
          </Trackpoint>
          <Trackpoint>
            <Time>2019-07-14T10:42:22.000Z</Time>
            <Position>
              <LatitudeDegrees>37.050707302987575531005859375</LatitudeDegrees>
              <LongitudeDegrees>-3.36877363733947277069091796875</LongitudeDegrees>
            </Position>
            <AltitudeMeters>3184.199951171875</AltitudeMeters>
            <DistanceMeters>4206.1218972487</DistanceMeters>
          </Trackpoint>
          <Trackpoint>
            <Time>2019-07-14T10:42:23.000Z</Time>
            <Position>
              <LatitudeDegrees>37.050700597465038299560546875</LatitudeDegrees>
              <LongitudeDegrees>-3.368782438337802886962890625</LongitudeDegrees>
            </Position>
            <AltitudeMeters>3183.60009765625</AltitudeMeters>
            <DistanceMeters>4207.2053684932</DistanceMeters>
          </Trackpoint>
          <Trackpoint>
            <Time>2019-07-14T10:42:24.000Z</Time>
            <Position>
              <LatitudeDegrees>37.05069196410477161407470703125</LatitudeDegrees>
              <LongitudeDegrees>-3.3687903173267841339111328125</LongitudeDegrees>
            </Position>
            <AltitudeMeters>3183</AltitudeMeters>
            <DistanceMeters>4208.3922517753</DistanceMeters>
          </Trackpoint>
          <Trackpoint>
            <Time>2019-07-14T10:42:25.000Z</Time>
            <Position>
              <LatitudeDegrees>37.05068425275385379791259765625</LatitudeDegrees>
              <LongitudeDegrees>-3.3688017167150974273681640625</LongitudeDegrees>
            </Position>
            <AltitudeMeters>3182.800048828125</AltitudeMeters>
            <DistanceMeters>4209.7158207497</DistanceMeters>
          </Trackpoint>
          <Trackpoint>
            <Time>2019-07-14T10:42:26.000Z</Time>
            <Position>
              <LatitudeDegrees>37.05067721195518970489501953125</LatitudeDegrees>
              <LongitudeDegrees>-3.3688121102750301361083984375</LongitudeDegrees>
            </Position>
            <AltitudeMeters>3182.60009765625</AltitudeMeters>
            <DistanceMeters>4210.925313364</DistanceMeters>
          </Trackpoint>
          <Trackpoint>
            <Time>2019-07-14T10:42:27.000Z</Time>
            <Position>
              <LatitudeDegrees>37.05067084170877933502197265625</LatitudeDegrees>
              <LongitudeDegrees>-3.3688204921782016754150390625</LongitudeDegrees>
            </Position>
            <AltitudeMeters>3182.60009765625</AltitudeMeters>
            <DistanceMeters>4211.957567703</DistanceMeters>
          </Trackpoint>
          <Trackpoint>
            <Time>2019-07-14T10:42:45.000Z</Time>
            <Position>
              <LatitudeDegrees>37.0505291037261486053466796875</LatitudeDegrees>
              <LongitudeDegrees>-3.36899089626967906951904296875</LongitudeDegrees>
            </Position>
            <AltitudeMeters>3182.800048828125</AltitudeMeters>
            <DistanceMeters>4233.8211476166</DistanceMeters>
          </Trackpoint>
          <Trackpoint>
            <Time>2019-07-14T10:42:51.000Z</Time>
            <Position>
              <LatitudeDegrees>37.0504882000386714935302734375</LatitudeDegrees>
              <LongitudeDegrees>-3.36905627511441707611083984375</LongitudeDegrees>
            </Position>
            <AltitudeMeters>3179.800048828125</AltitudeMeters>
            <DistanceMeters>4241.2002641597</DistanceMeters>
          </Trackpoint>
          <Trackpoint>
            <Time>2019-07-14T10:42:56.000Z</Time>
            <Position>
              <LatitudeDegrees>37.0504553429782390594482421875</LatitudeDegrees>
              <LongitudeDegrees>-3.3691121824085712432861328125</LongitudeDegrees>
            </Position>
            <AltitudeMeters>3178.39990234375</AltitudeMeters>
            <DistanceMeters>4247.3674906013</DistanceMeters>
          </Trackpoint>
          <Trackpoint>
            <Time>2019-07-14T10:42:57.000Z</Time>
            <Position>
              <LatitudeDegrees>37.0504489727318286895751953125</LatitudeDegrees>
              <LongitudeDegrees>-3.36912207305431365966796875</LongitudeDegrees>
            </Position>
            <AltitudeMeters>3178.39990234375</AltitudeMeters>
            <DistanceMeters>4248.4918618488</DistanceMeters>
          </Trackpoint>
          <Trackpoint>
            <Time>2019-07-14T10:42:58.000Z</Time>
            <Position>
              <LatitudeDegrees>37.05044084228575229644775390625</LatitudeDegrees>
              <LongitudeDegrees>-3.36913221515715122222900390625</LongitudeDegrees>
            </Position>
            <AltitudeMeters>3178.60009765625</AltitudeMeters>
            <DistanceMeters>4249.7667790068</DistanceMeters>
          </Trackpoint>
          <Trackpoint>
            <Time>2019-07-14T10:42:59.000Z</Time>
            <Position>
              <LatitudeDegrees>37.0504312030971050262451171875</LatitudeDegrees>
              <LongitudeDegrees>-3.36914042942225933074951171875</LongitudeDegrees>
            </Position>
            <AltitudeMeters>3178.800048828125</AltitudeMeters>
            <DistanceMeters>4251.0627706035</DistanceMeters>
          </Trackpoint>
          <Trackpoint>
            <Time>2019-07-14T10:43:00.000Z</Time>
            <Position>
              <LatitudeDegrees>37.0504181273281574249267578125</LatitudeDegrees>
              <LongitudeDegrees>-3.36914529092609882354736328125</LongitudeDegrees>
            </Position>
            <AltitudeMeters>3178.60009765625</AltitudeMeters>
            <DistanceMeters>4252.5772472183</DistanceMeters>
          </Trackpoint>
          <Trackpoint>
            <Time>2019-07-14T10:43:01.000Z</Time>
            <Position>
              <LatitudeDegrees>37.05040547065436840057373046875</LatitudeDegrees>
              <LongitudeDegrees>-3.3691500686109066009521484375</LongitudeDegrees>
            </Position>
            <AltitudeMeters>3177.60009765625</AltitudeMeters>
            <DistanceMeters>4254.0493947471</DistanceMeters>
          </Trackpoint>
          <Trackpoint>
            <Time>2019-07-14T10:43:02.000Z</Time>
            <Position>
              <LatitudeDegrees>37.05039625056087970733642578125</LatitudeDegrees>
              <LongitudeDegrees>-3.36915551684796810150146484375</LongitudeDegrees>
            </Position>
            <AltitudeMeters>3177.199951171875</AltitudeMeters>
            <DistanceMeters>4255.1817687379</DistanceMeters>
          </Trackpoint>
          <Trackpoint>
            <Time>2019-07-14T10:43:03.000Z</Time>
            <Position>
              <LatitudeDegrees>37.0503882877528667449951171875</LatitudeDegrees>
              <LongitudeDegrees>-3.36915954016149044036865234375</LongitudeDegrees>
            </Position>
            <AltitudeMeters>3177</AltitudeMeters>
            <DistanceMeters>4256.1320358816</DistanceMeters>
          </Trackpoint>
          <Trackpoint>
            <Time>2019-07-14T10:43:04.000Z</Time>
            <Position>
              <LatitudeDegrees>37.05038082785904407501220703125</LatitudeDegrees>
              <LongitudeDegrees>-3.36916574276983737945556640625</LongitudeDegrees>
            </Position>
            <AltitudeMeters>3176.800048828125</AltitudeMeters>
            <DistanceMeters>4257.12868447</DistanceMeters>
          </Trackpoint>
          <Trackpoint>
            <Time>2019-07-14T10:43:05.000Z</Time>
            <Position>
              <LatitudeDegrees>37.05037479288876056671142578125</LatitudeDegrees>
              <LongitudeDegrees>-3.36917429231107234954833984375</LongitudeDegrees>
            </Position>
            <AltitudeMeters>3176.800048828125</AltitudeMeters>
            <DistanceMeters>4258.1432921354</DistanceMeters>
          </Trackpoint>
          <Trackpoint>
            <Time>2019-07-14T10:43:06.000Z</Time>
            <Position>
              <LatitudeDegrees>37.050369344651699066162109375</LatitudeDegrees>
              <LongitudeDegrees>-3.36918636225163936614990234375</LongitudeDegrees>
            </Position>
            <AltitudeMeters>3176.60009765625</AltitudeMeters>
            <DistanceMeters>4259.3749791259</DistanceMeters>
          </Trackpoint>
          <Trackpoint>
            <Time>2019-07-14T10:43:25.000Z</Time>
            <Position>
              <LatitudeDegrees>37.0502069033682346343994140625</LatitudeDegrees>
              <LongitudeDegrees>-3.36933472193777561187744140625</LongitudeDegrees>
            </Position>
            <AltitudeMeters>3174.60009765625</AltitudeMeters>
            <DistanceMeters>4281.7484736584</DistanceMeters>
          </Trackpoint>
          <Trackpoint>
            <Time>2019-07-14T10:43:26.000Z</Time>
            <Position>
              <LatitudeDegrees>37.050196342170238494873046875</LatitudeDegrees>
              <LongitudeDegrees>-3.36934268474578857421875</LongitudeDegrees>
            </Position>
            <AltitudeMeters>3174.60009765625</AltitudeMeters>
            <DistanceMeters>4283.1189684232</DistanceMeters>
          </Trackpoint>
          <Trackpoint>
            <Time>2019-07-14T10:43:27.000Z</Time>
            <Position>
              <LatitudeDegrees>37.0501887984573841094970703125</LatitudeDegrees>
              <LongitudeDegrees>-3.36934871971607208251953125</LongitudeDegrees>
            </Position>
            <AltitudeMeters>3174.39990234375</AltitudeMeters>
            <DistanceMeters>4284.120136983</DistanceMeters>
          </Trackpoint>
          <Trackpoint>
            <Time>2019-07-14T10:43:34.000Z</Time>
            <Position>
              <LatitudeDegrees>37.05012769438326358795166015625</LatitudeDegrees>
              <LongitudeDegrees>-3.36941116489470005035400390625</LongitudeDegrees>
            </Position>
            <AltitudeMeters>3173.39990234375</AltitudeMeters>
            <DistanceMeters>4292.8966141844</DistanceMeters>
          </Trackpoint>
          <Trackpoint>
            <Time>2019-07-14T10:43:37.000Z</Time>
            <Position>
              <LatitudeDegrees>37.0501028001308441162109375</LatitudeDegrees>
              <LongitudeDegrees>-3.3694286830723285675048828125</LongitudeDegrees>
            </Position>
            <AltitudeMeters>3172.800048828125</AltitudeMeters>
            <DistanceMeters>4296.0739755842</DistanceMeters>
          </Trackpoint>
          <Trackpoint>
            <Time>2019-07-14T10:43:38.000Z</Time>
            <Position>
              <LatitudeDegrees>37.05009366385638713836669921875</LatitudeDegrees>
              <LongitudeDegrees>-3.36943723261356353759765625</LongitudeDegrees>
            </Position>
            <AltitudeMeters>3172.800048828125</AltitudeMeters>
            <DistanceMeters>4297.3417900844</DistanceMeters>
          </Trackpoint>
          <Trackpoint>
            <Time>2019-07-14T10:43:39.000Z</Time>
            <Position>
              <LatitudeDegrees>37.05008511431515216827392578125</LatitudeDegrees>
              <LongitudeDegrees>-3.3694410882890224456787109375</LongitudeDegrees>
            </Position>
            <AltitudeMeters>3172.60009765625</AltitudeMeters>
            <DistanceMeters>4298.3519379143</DistanceMeters>
          </Trackpoint>
          <Trackpoint>
            <Time>2019-07-14T10:43:40.000Z</Time>
            <Position>
              <LatitudeDegrees>37.05007396638393402099609375</LatitudeDegrees>
              <LongitudeDegrees>-3.36944687180221080780029296875</LongitudeDegrees>
            </Position>
            <AltitudeMeters>3172.60009765625</AltitudeMeters>
            <DistanceMeters>4299.6924546849</DistanceMeters>
          </Trackpoint>
          <Trackpoint>
            <Time>2019-07-14T10:43:41.000Z</Time>
            <Position>
              <LatitudeDegrees>37.05006659030914306640625</LatitudeDegrees>
              <LongitudeDegrees>-3.36945424787700176239013671875</LongitudeDegrees>
            </Position>
            <AltitudeMeters>3172.39990234375</AltitudeMeters>
            <DistanceMeters>4300.7420590514</DistanceMeters>
          </Trackpoint>
          <Trackpoint>
            <Time>2019-07-14T10:43:42.000Z</Time>
            <Position>
              <LatitudeDegrees>37.05005913041532039642333984375</LatitudeDegrees>
              <LongitudeDegrees>-3.3694608695805072784423828125</LongitudeDegrees>
            </Position>
            <AltitudeMeters>3172.39990234375</AltitudeMeters>
            <DistanceMeters>4301.7566667167</DistanceMeters>
          </Trackpoint>
          <Trackpoint>
            <Time>2019-07-14T10:43:43.000Z</Time>
            <Position>
              <LatitudeDegrees>37.0500520057976245880126953125</LatitudeDegrees>
              <LongitudeDegrees>-3.36947117932140827178955078125</LongitudeDegrees>
            </Position>
            <AltitudeMeters>3172.199951171875</AltitudeMeters>
            <DistanceMeters>4302.966159331</DistanceMeters>
          </Trackpoint>
          <Trackpoint>
            <Time>2019-07-14T10:43:44.000Z</Time>
            <Position>
              <LatitudeDegrees>37.05004504881799221038818359375</LatitudeDegrees>
              <LongitudeDegrees>-3.369481824338436126708984375</LongitudeDegrees>
            </Position>
            <AltitudeMeters>3172</AltitudeMeters>
            <DistanceMeters>4304.1904929006</DistanceMeters>
          </Trackpoint>
          <Trackpoint>
            <Time>2019-07-14T10:43:45.000Z</Time>
            <Position>
              <LatitudeDegrees>37.05003884620964527130126953125</LatitudeDegrees>
              <LongitudeDegrees>-3.36949246935546398162841796875</LongitudeDegrees>
            </Position>
            <AltitudeMeters>3171.800048828125</AltitudeMeters>
            <DistanceMeters>4305.362060918</DistanceMeters>
          </Trackpoint>
          <Trackpoint>
            <Time>2019-07-14T10:43:46.000Z</Time>
            <Position>
              <LatitudeDegrees>37.0500308834016323089599609375</LatitudeDegrees>
              <LongitudeDegrees>-3.36950294673442840576171875</LongitudeDegrees>
            </Position>
            <AltitudeMeters>3171.800048828125</AltitudeMeters>
            <DistanceMeters>4306.6475584829</DistanceMeters>
          </Trackpoint>
          <Trackpoint>
            <Time>2019-07-14T10:44:05.000Z</Time>
            <Position>
              <LatitudeDegrees>37.04988763667643070220947265625</LatitudeDegrees>
              <LongitudeDegrees>-3.36969950236380100250244140625</LongitudeDegrees>
            </Position>
            <AltitudeMeters>3169.199951171875</AltitudeMeters>
            <DistanceMeters>4330.2918396656</DistanceMeters>
          </Trackpoint>
          <Trackpoint>
            <Time>2019-07-14T10:44:13.000Z</Time>
            <Position>
              <LatitudeDegrees>37.04982376657426357269287109375</LatitudeDegrees>
              <LongitudeDegrees>-3.36976253427565097808837890625</LongitudeDegrees>
            </Position>
            <AltitudeMeters>3168.199951171875</AltitudeMeters>
            <DistanceMeters>4339.3408580208</DistanceMeters>
          </Trackpoint>
          <Trackpoint>
            <Time>2019-07-14T10:44:14.000Z</Time>
            <Position>
              <LatitudeDegrees>37.04981722868978977203369140625</LatitudeDegrees>
              <LongitudeDegrees>-3.36977376602590084075927734375</LongitudeDegrees>
            </Position>
            <AltitudeMeters>3168.199951171875</AltitudeMeters>
            <DistanceMeters>4340.5725450113</DistanceMeters>
          </Trackpoint>
          <Trackpoint>
            <Time>2019-07-14T10:44:16.000Z</Time>
            <Position>
              <LatitudeDegrees>37.04980214126408100128173828125</LatitudeDegrees>
              <LongitudeDegrees>-3.3697840757668018341064453125</LongitudeDegrees>
            </Position>
            <AltitudeMeters>3168</AltitudeMeters>
            <DistanceMeters>4342.4872802506</DistanceMeters>
          </Trackpoint>
          <Trackpoint>
            <Time>2019-07-14T10:44:18.000Z</Time>
            <Position>
              <LatitudeDegrees>37.04978537745773792266845703125</LatitudeDegrees>
              <LongitudeDegrees>-3.36978918872773647308349609375</LongitudeDegrees>
            </Position>
            <AltitudeMeters>3167.60009765625</AltitudeMeters>
            <DistanceMeters>4344.4114245648</DistanceMeters>
          </Trackpoint>
          <Trackpoint>
            <Time>2019-07-14T10:44:19.000Z</Time>
            <Position>
              <LatitudeDegrees>37.04977582208812236785888671875</LatitudeDegrees>
              <LongitudeDegrees>-3.36979329586029052734375</LongitudeDegrees>
            </Position>
            <AltitudeMeters>3167.60009765625</AltitudeMeters>
            <DistanceMeters>4345.5398042786</DistanceMeters>
          </Trackpoint>
          <Trackpoint>
            <Time>2019-07-14T10:44:39.000Z</Time>
            <Position>
              <LatitudeDegrees>37.04958789981901645660400390625</LatitudeDegrees>
              <LongitudeDegrees>-3.36990536190569400787353515625</LongitudeDegrees>
            </Position>
            <AltitudeMeters>3165</AltitudeMeters>
            <DistanceMeters>4368.7041130845</DistanceMeters>
          </Trackpoint>
          <Trackpoint>
            <Time>2019-07-14T10:44:42.000Z</Time>
            <Position>
              <LatitudeDegrees>37.04955319873988628387451171875</LatitudeDegrees>
              <LongitudeDegrees>-3.36990485899150371551513671875</LongitudeDegrees>
            </Position>
            <AltitudeMeters>3164.199951171875</AltitudeMeters>
            <DistanceMeters>4372.566455157</DistanceMeters>
          </Trackpoint>
          <Trackpoint>
            <Time>2019-07-14T10:44:44.000Z</Time>
            <Position>
              <LatitudeDegrees>37.0495353452861309051513671875</LatitudeDegrees>
              <LongitudeDegrees>-3.3699185214936733245849609375</LongitudeDegrees>
            </Position>
            <AltitudeMeters>3164</AltitudeMeters>
            <DistanceMeters>4374.8941247784</DistanceMeters>
          </Trackpoint>
          <Trackpoint>
            <Time>2019-07-14T10:44:46.000Z</Time>
            <Position>
              <LatitudeDegrees>37.049518413841724395751953125</LatitudeDegrees>
              <LongitudeDegrees>-3.36993268691003322601318359375</LongitudeDegrees>
            </Position>
            <AltitudeMeters>3164</AltitudeMeters>
            <DistanceMeters>4377.15887276</DistanceMeters>
          </Trackpoint>
          <Trackpoint>
            <Time>2019-07-14T10:44:51.000Z</Time>
            <Position>
              <LatitudeDegrees>37.04946887679398059844970703125</LatitudeDegrees>
              <LongitudeDegrees>-3.36994417011737823486328125</LongitudeDegrees>
            </Position>
            <AltitudeMeters>3164.39990234375</AltitudeMeters>
            <DistanceMeters>4382.7662541612</DistanceMeters>
          </Trackpoint>
          <Trackpoint>
            <Time>2019-07-14T10:44:58.000Z</Time>
            <Position>
              <LatitudeDegrees>37.0493955351412296295166015625</LatitudeDegrees>
              <LongitudeDegrees>-3.369976691901683807373046875</LongitudeDegrees>
            </Position>
            <AltitudeMeters>3163</AltitudeMeters>
            <DistanceMeters>4391.4251642955</DistanceMeters>
          </Trackpoint>
          <Trackpoint>
            <Time>2019-07-14T10:45:11.000Z</Time>
            <Position>
              <LatitudeDegrees>37.04928514547646045684814453125</LatitudeDegrees>
              <LongitudeDegrees>-3.3700744248926639556884765625</LongitudeDegrees>
            </Position>
            <AltitudeMeters>3160</AltitudeMeters>
            <DistanceMeters>4406.4694268561</DistanceMeters>
          </Trackpoint>
          <Trackpoint>
            <Time>2019-07-14T10:45:19.000Z</Time>
            <Position>
              <LatitudeDegrees>37.049212642014026641845703125</LatitudeDegrees>
              <LongitudeDegrees>-3.37014072574675083160400390625</LongitudeDegrees>
            </Position>
            <AltitudeMeters>3160.39990234375</AltitudeMeters>
            <DistanceMeters>4416.4598940591</DistanceMeters>
          </Trackpoint>
          <Trackpoint>
            <Time>2019-07-14T10:45:21.000Z</Time>
            <Position>
              <LatitudeDegrees>37.04919227398931980133056640625</LatitudeDegrees>
              <LongitudeDegrees>-3.37014592252671718597412109375</LongitudeDegrees>
            </Position>
            <AltitudeMeters>3160.39990234375</AltitudeMeters>
            <DistanceMeters>4418.7719938093</DistanceMeters>
          </Trackpoint>
          <Trackpoint>
            <Time>2019-07-14T10:45:22.000Z</Time>
            <Position>
              <LatitudeDegrees>37.0491854846477508544921875</LatitudeDegrees>
              <LongitudeDegrees>-3.37015329860150814056396484375</LongitudeDegrees>
            </Position>
            <AltitudeMeters>3160.39990234375</AltitudeMeters>
            <DistanceMeters>4419.7776620258</DistanceMeters>
          </Trackpoint>
          <Trackpoint>
            <Time>2019-07-14T10:45:23.000Z</Time>
            <Position>
              <LatitudeDegrees>37.0491776056587696075439453125</LatitudeDegrees>
              <LongitudeDegrees>-3.3701626025140285491943359375</LongitudeDegrees>
            </Position>
            <AltitudeMeters>3160.39990234375</AltitudeMeters>
            <DistanceMeters>4420.9871546401</DistanceMeters>
          </Trackpoint>
          <Trackpoint>
            <Time>2019-07-14T10:45:24.000Z</Time>
            <Position>
              <LatitudeDegrees>37.049167044460773468017578125</LatitudeDegrees>
              <LongitudeDegrees>-3.37017056532204151153564453125</LongitudeDegrees>
            </Position>
            <AltitudeMeters>3160.199951171875</AltitudeMeters>
            <DistanceMeters>4422.3576494049</DistanceMeters>
          </Trackpoint>
          <Trackpoint>
            <Time>2019-07-14T10:45:31.000Z</Time>
            <Position>
              <LatitudeDegrees>37.04910610802471637725830078125</LatitudeDegrees>
              <LongitudeDegrees>-3.3702172525227069854736328125</LongitudeDegrees>
            </Position>
            <AltitudeMeters>3158.800048828125</AltitudeMeters>
            <DistanceMeters>4430.307586828</DistanceMeters>
          </Trackpoint>
          <Trackpoint>
            <Time>2019-07-14T10:45:35.000Z</Time>
            <Position>
              <LatitudeDegrees>37.04907140694558620452880859375</LatitudeDegrees>
              <LongitudeDegrees>-3.3702434040606021881103515625</LongitudeDegrees>
            </Position>
            <AltitudeMeters>3158</AltitudeMeters>
            <DistanceMeters>4434.8150996675</DistanceMeters>
          </Trackpoint>
          <Trackpoint>
            <Time>2019-07-14T10:45:36.000Z</Time>
            <Position>
              <LatitudeDegrees>37.04906143248081207275390625</LatitudeDegrees>
              <LongitudeDegrees>-3.370248936116695404052734375</LongitudeDegrees>
            </Position>
            <AltitudeMeters>3157.800048828125</AltitudeMeters>
            <DistanceMeters>4436.0320353835</DistanceMeters>
          </Trackpoint>
          <Trackpoint>
            <Time>2019-07-14T10:45:37.000Z</Time>
            <Position>
              <LatitudeDegrees>37.04905112273991107940673828125</LatitudeDegrees>
              <LongitudeDegrees>-3.37025388143956661224365234375</LongitudeDegrees>
            </Position>
            <AltitudeMeters>3157.60009765625</AltitudeMeters>
            <DistanceMeters>4437.263722374</DistanceMeters>
          </Trackpoint>
          <Trackpoint>
            <Time>2019-07-14T10:45:38.000Z</Time>
            <Position>
              <LatitudeDegrees>37.049038298428058624267578125</LatitudeDegrees>
              <LongitudeDegrees>-3.37025664746761322021484375</LongitudeDegrees>
            </Position>
            <AltitudeMeters>3157.39990234375</AltitudeMeters>
            <DistanceMeters>4438.7080033919</DistanceMeters>
          </Trackpoint>
          <Trackpoint>
            <Time>2019-07-14T10:45:39.000Z</Time>
            <Position>
              <LatitudeDegrees>37.04902497120201587677001953125</LatitudeDegrees>
              <LongitudeDegrees>-3.37026192806661128997802734375</LongitudeDegrees>
            </Position>
            <AltitudeMeters>3157.199951171875</AltitudeMeters>
            <DistanceMeters>4440.2636577516</DistanceMeters>
          </Trackpoint>
          <Trackpoint>
            <Time>2019-07-14T10:46:01.000Z</Time>
            <Position>
              <LatitudeDegrees>37.048810981214046478271484375</LatitudeDegrees>
              <LongitudeDegrees>-3.37029864080250263214111328125</LongitudeDegrees>
            </Position>
            <AltitudeMeters>3154.39990234375</AltitudeMeters>
            <DistanceMeters>4464.3033506003</DistanceMeters>
          </Trackpoint>
          <Trackpoint>
            <Time>2019-07-14T10:46:08.000Z</Time>
            <Position>
              <LatitudeDegrees>37.04875297844409942626953125</LatitudeDegrees>
              <LongitudeDegrees>-3.370291851460933685302734375</LongitudeDegrees>
            </Position>
            <AltitudeMeters>3154.199951171875</AltitudeMeters>
            <DistanceMeters>4470.7867914959</DistanceMeters>
          </Trackpoint>
          <Trackpoint>
            <Time>2019-07-14T10:46:09.000Z</Time>
            <Position>
              <LatitudeDegrees>37.0487434230744838714599609375</LatitudeDegrees>
              <LongitudeDegrees>-3.37029428221285343170166015625</LongitudeDegrees>
            </Position>
            <AltitudeMeters>3154</AltitudeMeters>
            <DistanceMeters>4471.8702627405</DistanceMeters>
          </Trackpoint>
          <Trackpoint>
            <Time>2019-07-14T10:46:10.000Z</Time>
            <Position>
              <LatitudeDegrees>37.04873361624777317047119140625</LatitudeDegrees>
              <LongitudeDegrees>-3.370292522013187408447265625</LongitudeDegrees>
            </Position>
            <AltitudeMeters>3153.800048828125</AltitudeMeters>
            <DistanceMeters>4472.9702764874</DistanceMeters>
          </Trackpoint>
          <Trackpoint>
            <Time>2019-07-14T10:46:11.000Z</Time>
            <Position>
              <LatitudeDegrees>37.04872347414493560791015625</LatitudeDegrees>
              <LongitudeDegrees>-3.37029394693672657012939453125</LongitudeDegrees>
            </Position>
            <AltitudeMeters>3153.800048828125</AltitudeMeters>
            <DistanceMeters>4474.1066307154</DistanceMeters>
          </Trackpoint>
          <Trackpoint>
            <Time>2019-07-14T10:46:12.000Z</Time>
            <Position>
              <LatitudeDegrees>37.04871299676597118377685546875</LatitudeDegrees>
              <LongitudeDegrees>-3.37029394693672657012939453125</LongitudeDegrees>
            </Position>
            <AltitudeMeters>3153.800048828125</AltitudeMeters>
            <DistanceMeters>4475.2743385312</DistanceMeters>
          </Trackpoint>
          <Trackpoint>
            <Time>2019-07-14T10:46:29.000Z</Time>
            <Position>
              <LatitudeDegrees>37.04852608032524585723876953125</LatitudeDegrees>
              <LongitudeDegrees>-3.37031205184757709503173828125</LongitudeDegrees>
            </Position>
            <AltitudeMeters>3150.800048828125</AltitudeMeters>
            <DistanceMeters>4496.140872167</DistanceMeters>
          </Trackpoint>
          <Trackpoint>
            <Time>2019-07-14T10:46:30.000Z</Time>
            <Position>
              <LatitudeDegrees>37.0485164411365985870361328125</LatitudeDegrees>
              <LongitudeDegrees>-3.3703221939504146575927734375</LongitudeDegrees>
            </Position>
            <AltitudeMeters>3150.60009765625</AltitudeMeters>
            <DistanceMeters>4497.5439247907</DistanceMeters>
          </Trackpoint>
          <Trackpoint>
            <Time>2019-07-14T10:46:31.000Z</Time>
            <Position>
              <LatitudeDegrees>37.0485087297856807708740234375</LatitudeDegrees>
              <LongitudeDegrees>-3.3703329227864742279052734375</LongitudeDegrees>
            </Position>
            <AltitudeMeters>3150.60009765625</AltitudeMeters>
            <DistanceMeters>4498.8329298588</DistanceMeters>
          </Trackpoint>
          <Trackpoint>
            <Time>2019-07-14T10:47:29.000Z</Time>
            <Position>
              <LatitudeDegrees>37.04846799373626708984375</LatitudeDegrees>
              <LongitudeDegrees>-3.3703540451824665069580078125</LongitudeDegrees>
            </Position>
            <AltitudeMeters>3150</AltitudeMeters>
            <DistanceMeters>4503.739474855</DistanceMeters>
          </Trackpoint>
          <Trackpoint>
            <Time>2019-07-14T10:49:02.000Z</Time>
            <Position>
              <LatitudeDegrees>37.04846070148050785064697265625</LatitudeDegrees>
              <LongitudeDegrees>-3.3703845553100109100341796875</LongitudeDegrees>
            </Position>
            <AltitudeMeters>3150</AltitudeMeters>
            <DistanceMeters>4506.5680164809</DistanceMeters>
          </Trackpoint>
          <Trackpoint>
            <Time>2019-07-14T10:49:42.000Z</Time>
            <Position>
              <LatitudeDegrees>37.04842834733426570892333984375</LatitudeDegrees>
              <LongitudeDegrees>-3.3703379519283771514892578125</LongitudeDegrees>
            </Position>
            <AltitudeMeters>3150</AltitudeMeters>
            <DistanceMeters>4512.0549350026</DistanceMeters>
          </Trackpoint>
          <Trackpoint>
            <Time>2019-07-14T10:49:43.000Z</Time>
            <Position>
              <LatitudeDegrees>37.04841812141239643096923828125</LatitudeDegrees>
              <LongitudeDegrees>-3.37033937685191631317138671875</LongitudeDegrees>
            </Position>
            <AltitudeMeters>3150</AltitudeMeters>
            <DistanceMeters>4513.2031471611</DistanceMeters>
          </Trackpoint>
          <Trackpoint>
            <Time>2019-07-14T10:50:07.000Z</Time>
            <Position>
              <LatitudeDegrees>37.04842574894428253173828125</LatitudeDegrees>
              <LongitudeDegrees>-3.37031205184757709503173828125</LongitudeDegrees>
            </Position>
            <AltitudeMeters>3149.60009765625</AltitudeMeters>
            <DistanceMeters>4515.7741422908</DistanceMeters>
          </Trackpoint>
          <Trackpoint>
            <Time>2019-07-14T10:50:08.000Z</Time>
            <Position>
              <LatitudeDegrees>37.04843379557132720947265625</LatitudeDegrees>
              <LongitudeDegrees>-3.3703020773828029632568359375</LongitudeDegrees>
            </Position>
            <AltitudeMeters>3149.800048828125</AltitudeMeters>
            <DistanceMeters>4517.0348141173</DistanceMeters>
          </Trackpoint>
          <Trackpoint>
            <Time>2019-07-14T10:50:09.000Z</Time>
            <Position>
              <LatitudeDegrees>37.048439495265483856201171875</LatitudeDegrees>
              <LongitudeDegrees>-3.370293863117694854736328125</LongitudeDegrees>
            </Position>
            <AltitudeMeters>3150</AltitudeMeters>
            <DistanceMeters>4518.0039002591</DistanceMeters>
          </Trackpoint>
          <Trackpoint>
            <Time>2019-07-14T10:50:34.000Z</Time>
            <Position>
              <LatitudeDegrees>37.04838660545647144317626953125</LatitudeDegrees>
              <LongitudeDegrees>-3.370251953601837158203125</LongitudeDegrees>
            </Position>
            <AltitudeMeters>3148</AltitudeMeters>
            <DistanceMeters>4524.9694297245</DistanceMeters>
          </Trackpoint>
          <Trackpoint>
            <Time>2019-07-14T10:50:41.000Z</Time>
            <Position>
              <LatitudeDegrees>37.0483404211699962615966796875</LatitudeDegrees>
              <LongitudeDegrees>-3.3702591620385646820068359375</LongitudeDegrees>
            </Position>
            <AltitudeMeters>3146.39990234375</AltitudeMeters>
            <DistanceMeters>4530.1481677019</DistanceMeters>
          </Trackpoint>
          <Trackpoint>
            <Time>2019-07-14T10:50:45.000Z</Time>
            <Position>
              <LatitudeDegrees>37.04831443727016448974609375</LatitudeDegrees>
              <LongitudeDegrees>-3.370247595012187957763671875</LongitudeDegrees>
            </Position>
            <AltitudeMeters>3145.60009765625</AltitudeMeters>
            <DistanceMeters>4533.2156323968</DistanceMeters>
          </Trackpoint>
          <Trackpoint>
            <Time>2019-07-14T10:50:46.000Z</Time>
            <Position>
              <LatitudeDegrees>37.04830697737634181976318359375</LatitudeDegrees>
              <LongitudeDegrees>-3.37024868465960025787353515625</LongitudeDegrees>
            </Position>
            <AltitudeMeters>3145.60009765625</AltitudeMeters>
            <DistanceMeters>4534.0440560865</DistanceMeters>
          </Trackpoint>
          <Trackpoint>
            <Time>2019-07-14T10:51:01.000Z</Time>
            <Position>
              <LatitudeDegrees>37.0481796562671661376953125</LatitudeDegrees>
              <LongitudeDegrees>-3.37021130137145519256591796875</LongitudeDegrees>
            </Position>
            <AltitudeMeters>3143.199951171875</AltitudeMeters>
            <DistanceMeters>4548.598972554</DistanceMeters>
          </Trackpoint>
          <Trackpoint>
            <Time>2019-07-14T10:51:19.000Z</Time>
            <Position>
              <LatitudeDegrees>37.04814679920673370361328125</LatitudeDegrees>
              <LongitudeDegrees>-3.37017349898815155029296875</LongitudeDegrees>
            </Position>
            <AltitudeMeters>3140.199951171875</AltitudeMeters>
            <DistanceMeters>4553.5640615454</DistanceMeters>
          </Trackpoint>
          <Trackpoint>
            <Time>2019-07-14T10:51:31.000Z</Time>
            <Position>
              <LatitudeDegrees>37.0481576956808567047119140625</LatitudeDegrees>
              <LongitudeDegrees>-3.37009705603122711181640625</LongitudeDegrees>
            </Position>
            <AltitudeMeters>3138</AltitudeMeters>
            <DistanceMeters>4560.4625036057</DistanceMeters>
          </Trackpoint>
          <Trackpoint>
            <Time>2019-07-14T10:51:32.000Z</Time>
            <Position>
              <LatitudeDegrees>37.04816917888820171356201171875</LatitudeDegrees>
              <LongitudeDegrees>-3.370085656642913818359375</LongitudeDegrees>
            </Position>
            <AltitudeMeters>3137.800048828125</AltitudeMeters>
            <DistanceMeters>4562.0890989451</DistanceMeters>
          </Trackpoint>
          <Trackpoint>
            <Time>2019-07-14T10:51:42.000Z</Time>
            <Position>
              <LatitudeDegrees>37.04823858104646205902099609375</LatitudeDegrees>
              <LongitudeDegrees>-3.3700767718255519866943359375</LongitudeDegrees>
            </Position>
            <AltitudeMeters>3137</AltitudeMeters>
            <DistanceMeters>4569.8540085013</DistanceMeters>
          </Trackpoint>
          <Trackpoint>
            <Time>2019-07-14T10:51:59.000Z</Time>
            <Position>
              <LatitudeDegrees>37.04842667095363140106201171875</LatitudeDegrees>
              <LongitudeDegrees>-3.37010971270501613616943359375</LongitudeDegrees>
            </Position>
            <AltitudeMeters>3136.39990234375</AltitudeMeters>
            <DistanceMeters>4590.9927005789</DistanceMeters>
          </Trackpoint>
          <Trackpoint>
            <Time>2019-07-14T10:52:10.000Z</Time>
            <Position>
              <LatitudeDegrees>37.0485342107713222503662109375</LatitudeDegrees>
              <LongitudeDegrees>-3.3700388856232166290283203125</LongitudeDegrees>
            </Position>
            <AltitudeMeters>3135.199951171875</AltitudeMeters>
            <DistanceMeters>4604.5149052037</DistanceMeters>
          </Trackpoint>
          <Trackpoint>
            <Time>2019-07-14T10:52:11.000Z</Time>
            <Position>
              <LatitudeDegrees>37.0485402457416057586669921875</LatitudeDegrees>
              <LongitudeDegrees>-3.370032347738742828369140625</LongitudeDegrees>
            </Position>
            <AltitudeMeters>3135.199951171875</AltitudeMeters>
            <DistanceMeters>4605.406334801</DistanceMeters>
          </Trackpoint>
          <Trackpoint>
            <Time>2019-07-14T10:52:12.000Z</Time>
            <Position>
              <LatitudeDegrees>37.0485456101596355438232421875</LatitudeDegrees>
              <LongitudeDegrees>-3.37002933025360107421875</LongitudeDegrees>
            </Position>
            <AltitudeMeters>3135.199951171875</AltitudeMeters>
            <DistanceMeters>4606.0646991905</DistanceMeters>
          </Trackpoint>
          <Trackpoint>
            <Time>2019-07-14T10:52:13.000Z</Time>
            <Position>
              <LatitudeDegrees>37.0485551655292510986328125</LatitudeDegrees>
              <LongitudeDegrees>-3.3700224570930004119873046875</LongitudeDegrees>
            </Position>
            <AltitudeMeters>3135</AltitudeMeters>
            <DistanceMeters>4607.2890327601</DistanceMeters>
          </Trackpoint>
          <Trackpoint>
            <Time>2019-07-14T10:52:14.000Z</Time>
            <Position>
              <LatitudeDegrees>37.04856513999402523040771484375</LatitudeDegrees>
              <LongitudeDegrees>-3.3700145781040191650390625</LongitudeDegrees>
            </Position>
            <AltitudeMeters>3135</AltitudeMeters>
            <DistanceMeters>4608.5988856237</DistanceMeters>
          </Trackpoint>
          <Trackpoint>
            <Time>2019-07-14T10:52:34.000Z</Time>
            <Position>
              <LatitudeDegrees>37.04875892959535121917724609375</LatitudeDegrees>
              <LongitudeDegrees>-3.36994106881320476531982421875</LongitudeDegrees>
            </Position>
            <AltitudeMeters>3134.199951171875</AltitudeMeters>
            <DistanceMeters>4631.1348470934</DistanceMeters>
          </Trackpoint>
          <Trackpoint>
            <Time>2019-07-14T10:52:50.000Z</Time>
            <Position>
              <LatitudeDegrees>37.04891516827046871185302734375</LatitudeDegrees>
              <LongitudeDegrees>-3.36978918872773647308349609375</LongitudeDegrees>
            </Position>
            <AltitudeMeters>3133.800048828125</AltitudeMeters>
            <DistanceMeters>4653.1445604244</DistanceMeters>
          </Trackpoint>
          <Trackpoint>
            <Time>2019-07-14T10:52:51.000Z</Time>
            <Position>
              <LatitudeDegrees>37.0489251427352428436279296875</LatitudeDegrees>
              <LongitudeDegrees>-3.36978332139551639556884765625</LongitudeDegrees>
            </Position>
            <AltitudeMeters>3133.800048828125</AltitudeMeters>
            <DistanceMeters>4654.368893994</DistanceMeters>
          </Trackpoint>
          <Trackpoint>
            <Time>2019-07-14T10:52:52.000Z</Time>
            <Position>
              <LatitudeDegrees>37.04893411137163639068603515625</LatitudeDegrees>
              <LongitudeDegrees>-3.3697750233113765716552734375</LongitudeDegrees>
            </Position>
            <AltitudeMeters>3133.800048828125</AltitudeMeters>
            <DistanceMeters>4655.6078907638</DistanceMeters>
          </Trackpoint>
          <Trackpoint>
            <Time>2019-07-14T10:52:53.000Z</Time>
            <Position>
              <LatitudeDegrees>37.04894551075994968414306640625</LatitudeDegrees>
              <LongitudeDegrees>-3.36976739577949047088623046875</LongitudeDegrees>
            </Position>
            <AltitudeMeters>3133.60009765625</AltitudeMeters>
            <DistanceMeters>4657.0459058908</DistanceMeters>
          </Trackpoint>
          <Trackpoint>
            <Time>2019-07-14T10:52:54.000Z</Time>
            <Position>
              <LatitudeDegrees>37.0489549823105335235595703125</LatitudeDegrees>
              <LongitudeDegrees>-3.3697596006095409393310546875</LongitudeDegrees>
            </Position>
            <AltitudeMeters>3133</AltitudeMeters>
            <DistanceMeters>4658.3065777173</DistanceMeters>
          </Trackpoint>
          <Trackpoint>
            <Time>2019-07-14T10:52:55.000Z</Time>
            <Position>
              <LatitudeDegrees>37.048962526023387908935546875</LatitudeDegrees>
              <LongitudeDegrees>-3.3697532303631305694580078125</LongitudeDegrees>
            </Position>
            <AltitudeMeters>3132.60009765625</AltitudeMeters>
            <DistanceMeters>4659.3211853827</DistanceMeters>
          </Trackpoint>
          <Trackpoint>
            <Time>2019-07-14T10:53:02.000Z</Time>
            <Position>
              <LatitudeDegrees>37.04903326928615570068359375</LatitudeDegrees>
              <LongitudeDegrees>-3.3696942217648029327392578125</LongitudeDegrees>
            </Position>
            <AltitudeMeters>3131.199951171875</AltitudeMeters>
            <DistanceMeters>4668.7800435277</DistanceMeters>
          </Trackpoint>
          <Trackpoint>
            <Time>2019-07-14T10:53:18.000Z</Time>
            <Position>
              <LatitudeDegrees>37.04918640665709972381591796875</LatitudeDegrees>
              <LongitudeDegrees>-3.36958601139485836029052734375</LongitudeDegrees>
            </Position>
            <AltitudeMeters>3132.39990234375</AltitudeMeters>
            <DistanceMeters>4688.3486260436</DistanceMeters>
          </Trackpoint>
          <Trackpoint>
            <Time>2019-07-14T10:53:32.000Z</Time>
            <Position>
              <LatitudeDegrees>37.049313224852085113525390625</LatitudeDegrees>
              <LongitudeDegrees>-3.36950319819152355194091796875</LongitudeDegrees>
            </Position>
            <AltitudeMeters>3133.199951171875</AltitudeMeters>
            <DistanceMeters>4704.2658134455</DistanceMeters>
          </Trackpoint>
          <Trackpoint>
            <Time>2019-07-14T10:53:39.000Z</Time>
            <Position>
              <LatitudeDegrees>37.04937382601201534271240234375</LatitudeDegrees>
              <LongitudeDegrees>-3.36945894174277782440185546875</LongitudeDegrees>
            </Position>
            <AltitudeMeters>3130</AltitudeMeters>
            <DistanceMeters>4712.0730546994</DistanceMeters>
          </Trackpoint>
          <Trackpoint>
            <Time>2019-07-14T10:53:43.000Z</Time>
            <Position>
              <LatitudeDegrees>37.04941271804273128509521484375</LatitudeDegrees>
              <LongitudeDegrees>-3.36943077854812145233154296875</LongitudeDegrees>
            </Position>
            <AltitudeMeters>3130</AltitudeMeters>
            <DistanceMeters>4717.0725798366</DistanceMeters>
          </Trackpoint>
          <Trackpoint>
            <Time>2019-07-14T10:53:58.000Z</Time>
            <Position>
              <LatitudeDegrees>37.0495663583278656005859375</LatitudeDegrees>
              <LongitudeDegrees>-3.369259200990200042724609375</LongitudeDegrees>
            </Position>
            <AltitudeMeters>3129.800048828125</AltitudeMeters>
            <DistanceMeters>4739.9795375587</DistanceMeters>
          </Trackpoint>
          <Trackpoint>
            <Time>2019-07-14T10:54:08.000Z</Time>
            <Position>
              <LatitudeDegrees>37.049672305583953857421875</LatitudeDegrees>
              <LongitudeDegrees>-3.36918820627033710479736328125</LongitudeDegrees>
            </Position>
            <AltitudeMeters>3129.39990234375</AltitudeMeters>
            <DistanceMeters>4753.3523321019</DistanceMeters>
          </Trackpoint>
          <Trackpoint>
            <Time>2019-07-14T10:54:26.000Z</Time>
            <Position>
              <LatitudeDegrees>37.04983801580965518951416015625</LatitudeDegrees>
              <LongitudeDegrees>-3.36903892457485198974609375</LongitudeDegrees>
            </Position>
            <AltitudeMeters>3129.199951171875</AltitudeMeters>
            <DistanceMeters>4776.0686863091</DistanceMeters>
          </Trackpoint>
          <Trackpoint>
            <Time>2019-07-14T10:54:43.000Z</Time>
            <Position>
              <LatitudeDegrees>37.0499712042510509490966796875</LatitudeDegrees>
              <LongitudeDegrees>-3.3688818477094173431396484375</LongitudeDegrees>
            </Position>
            <AltitudeMeters>3129.800048828125</AltitudeMeters>
            <DistanceMeters>4796.4265935805</DistanceMeters>
          </Trackpoint>
          <Trackpoint>
            <Time>2019-07-14T10:55:00.000Z</Time>
            <Position>
              <LatitudeDegrees>37.05011713318526744842529296875</LatitudeDegrees>
              <LongitudeDegrees>-3.36870473809540271759033203125</LongitudeDegrees>
            </Position>
            <AltitudeMeters>3127.800048828125</AltitudeMeters>
            <DistanceMeters>4819.038958529</DistanceMeters>
          </Trackpoint>
          <Trackpoint>
            <Time>2019-07-14T10:55:15.000Z</Time>
            <Position>
              <LatitudeDegrees>37.0502461306750774383544921875</LatitudeDegrees>
              <LongitudeDegrees>-3.36850290186703205108642578125</LongitudeDegrees>
            </Position>
            <AltitudeMeters>3127.39990234375</AltitudeMeters>
            <DistanceMeters>4842.0087061652</DistanceMeters>
          </Trackpoint>
          <Trackpoint>
            <Time>2019-07-14T10:55:17.000Z</Time>
            <Position>
              <LatitudeDegrees>37.05024939961731433868408203125</LatitudeDegrees>
              <LongitudeDegrees>-3.3684778399765491485595703125</LongitudeDegrees>
            </Position>
            <AltitudeMeters>3127.39990234375</AltitudeMeters>
            <DistanceMeters>4844.2654655928</DistanceMeters>
          </Trackpoint>
          <Trackpoint>
            <Time>2019-07-14T10:55:18.000Z</Time>
            <Position>
              <LatitudeDegrees>37.05025191418826580047607421875</LatitudeDegrees>
              <LongitudeDegrees>-3.36846292018890380859375</LongitudeDegrees>
            </Position>
            <AltitudeMeters>3127.39990234375</AltitudeMeters>
            <DistanceMeters>4845.6160489637</DistanceMeters>
          </Trackpoint>
          <Trackpoint>
            <Time>2019-07-14T10:55:19.000Z</Time>
            <Position>
              <LatitudeDegrees>37.05026046372950077056884765625</LatitudeDegrees>
              <LongitudeDegrees>-3.3684486709535121917724609375</LongitudeDegrees>
            </Position>
            <AltitudeMeters>3127.800048828125</AltitudeMeters>
            <DistanceMeters>4847.2004609213</DistanceMeters>
          </Trackpoint>
          <Trackpoint>
            <Time>2019-07-14T10:55:20.000Z</Time>
            <Position>
              <LatitudeDegrees>37.0502732880413532257080078125</LatitudeDegrees>
              <LongitudeDegrees>-3.36843852885067462921142578125</LongitudeDegrees>
            </Position>
            <AltitudeMeters>3127.800048828125</AltitudeMeters>
            <DistanceMeters>4848.8896927456</DistanceMeters>
          </Trackpoint>
          <Trackpoint>
            <Time>2019-07-14T10:55:21.000Z</Time>
            <Position>
              <LatitudeDegrees>37.0502840168774127960205078125</LatitudeDegrees>
              <LongitudeDegrees>-3.368428051471710205078125</LongitudeDegrees>
            </Position>
            <AltitudeMeters>3128</AltitudeMeters>
            <DistanceMeters>4850.4041693604</DistanceMeters>
          </Trackpoint>
          <Trackpoint>
            <Time>2019-07-14T10:55:22.000Z</Time>
            <Position>
              <LatitudeDegrees>37.050288878381252288818359375</LatitudeDegrees>
              <LongitudeDegrees>-3.36842193268239498138427734375</LongitudeDegrees>
            </Position>
            <AltitudeMeters>3128.199951171875</AltitudeMeters>
            <DistanceMeters>4851.1643830754</DistanceMeters>
          </Trackpoint>
          <Trackpoint>
            <Time>2019-07-14T10:55:23.000Z</Time>
            <Position>
              <LatitudeDegrees>37.05029449425637722015380859375</LatitudeDegrees>
              <LongitudeDegrees>-3.36841665208339691162109375</LongitudeDegrees>
            </Position>
            <AltitudeMeters>3128.60009765625</AltitudeMeters>
            <DistanceMeters>4851.9479934366</DistanceMeters>
          </Trackpoint>
          <Trackpoint>
            <Time>2019-07-14T10:55:25.000Z</Time>
            <Position>
              <LatitudeDegrees>37.05030488781630992889404296875</LatitudeDegrees>
              <LongitudeDegrees>-3.36839494295418262481689453125</LongitudeDegrees>
            </Position>
            <AltitudeMeters>3129.199951171875</AltitudeMeters>
            <DistanceMeters>4854.1967359316</DistanceMeters>
          </Trackpoint>
          <Trackpoint>
            <Time>2019-07-14T10:55:26.000Z</Time>
            <Position>
              <LatitudeDegrees>37.05030731856822967529296875</LatitudeDegrees>
              <LongitudeDegrees>-3.36838421411812305450439453125</LongitudeDegrees>
            </Position>
            <AltitudeMeters>3129.39990234375</AltitudeMeters>
            <DistanceMeters>4855.1888439561</DistanceMeters>
          </Trackpoint>
          <Trackpoint>
            <Time>2019-07-14T10:55:27.000Z</Time>
            <Position>
              <LatitudeDegrees>37.05031427554786205291748046875</LatitudeDegrees>
              <LongitudeDegrees>-3.3683722279965877532958984375</LongitudeDegrees>
            </Position>
            <AltitudeMeters>3129.39990234375</AltitudeMeters>
            <DistanceMeters>4856.4986968197</DistanceMeters>
          </Trackpoint>
          <Trackpoint>
            <Time>2019-07-14T10:55:28.000Z</Time>
            <Position>
              <LatitudeDegrees>37.05031846649944782257080078125</LatitudeDegrees>
              <LongitudeDegrees>-3.3683574758470058441162109375</LongitudeDegrees>
            </Position>
            <AltitudeMeters>3129.39990234375</AltitudeMeters>
            <DistanceMeters>4857.8888178069</DistanceMeters>
          </Trackpoint>
          <Trackpoint>
            <Time>2019-07-14T10:55:29.000Z</Time>
            <Position>
              <LatitudeDegrees>37.05032450146973133087158203125</LatitudeDegrees>
              <LongitudeDegrees>-3.36834163405001163482666015625</LongitudeDegrees>
            </Position>
            <AltitudeMeters>3129.39990234375</AltitudeMeters>
            <DistanceMeters>4859.4444721667</DistanceMeters>
          </Trackpoint>
          <Trackpoint>
            <Time>2019-07-14T10:55:30.000Z</Time>
            <Position>
              <LatitudeDegrees>37.05033154226839542388916015625</LatitudeDegrees>
              <LongitudeDegrees>-3.36832654662430286407470703125</LongitudeDegrees>
            </Position>
            <AltitudeMeters>3129.39990234375</AltitudeMeters>
            <DistanceMeters>4861.0001265264</DistanceMeters>
          </Trackpoint>
          <Trackpoint>
            <Time>2019-07-14T10:55:31.000Z</Time>
            <Position>
              <LatitudeDegrees>37.05033891834318637847900390625</LatitudeDegrees>
              <LongitudeDegrees>-3.3683162368834018707275390625</LongitudeDegrees>
            </Position>
            <AltitudeMeters>3129.39990234375</AltitudeMeters>
            <DistanceMeters>4862.2318135169</DistanceMeters>
          </Trackpoint>
          <Trackpoint>
            <Time>2019-07-14T10:55:32.000Z</Time>
            <Position>
              <LatitudeDegrees>37.05034595914185047149658203125</LatitudeDegrees>
              <LongitudeDegrees>-3.368310034275054931640625</LongitudeDegrees>
            </Position>
            <AltitudeMeters>3129.800048828125</AltitudeMeters>
            <DistanceMeters>4863.191536288</DistanceMeters>
          </Trackpoint>
          <Trackpoint>
            <Time>2019-07-14T10:55:33.000Z</Time>
            <Position>
              <LatitudeDegrees>37.0503540895879268646240234375</LatitudeDegrees>
              <LongitudeDegrees>-3.368303664028644561767578125</LongitudeDegrees>
            </Position>
            <AltitudeMeters>3129.800048828125</AltitudeMeters>
            <DistanceMeters>4864.266640834</DistanceMeters>
          </Trackpoint>
          <Trackpoint>
            <Time>2019-07-14T10:55:45.000Z</Time>
            <Position>
              <LatitudeDegrees>37.05044813454151153564453125</LatitudeDegrees>
              <LongitudeDegrees>-3.3681858144700527191162109375</LongitudeDegrees>
            </Position>
            <AltitudeMeters>3129.800048828125</AltitudeMeters>
            <DistanceMeters>4879.070692823</DistanceMeters>
          </Trackpoint>
          <Trackpoint>
            <Time>2019-07-14T10:55:46.000Z</Time>
            <Position>
              <LatitudeDegrees>37.05045509152114391326904296875</LatitudeDegrees>
              <LongitudeDegrees>-3.36817525327205657958984375</LongitudeDegrees>
            </Position>
            <AltitudeMeters>3129.800048828125</AltitudeMeters>
            <DistanceMeters>4880.287628539</DistanceMeters>
          </Trackpoint>
          <Trackpoint>
            <Time>2019-07-14T10:55:47.000Z</Time>
            <Position>
              <LatitudeDegrees>37.05046280287206172943115234375</LatitudeDegrees>
              <LongitudeDegrees>-3.36816561408340930938720703125</LongitudeDegrees>
            </Position>
            <AltitudeMeters>3129.800048828125</AltitudeMeters>
            <DistanceMeters>4881.4971211532</DistanceMeters>
          </Trackpoint>
          <Trackpoint>
            <Time>2019-07-14T10:55:48.000Z</Time>
            <Position>
              <LatitudeDegrees>37.050470598042011260986328125</LatitudeDegrees>
              <LongitudeDegrees>-3.36815723218023777008056640625</LongitudeDegrees>
            </Position>
            <AltitudeMeters>3129.800048828125</AltitudeMeters>
            <DistanceMeters>4882.6374417257</DistanceMeters>
          </Trackpoint>
          <Trackpoint>
            <Time>2019-07-14T10:55:49.000Z</Time>
            <Position>
              <LatitudeDegrees>37.0504784770309925079345703125</LatitudeDegrees>
              <LongitudeDegrees>-3.36814968846738338470458984375</LongitudeDegrees>
            </Position>
            <AltitudeMeters>3129.39990234375</AltitudeMeters>
            <DistanceMeters>4883.7456341261</DistanceMeters>
          </Trackpoint>
          <Trackpoint>
            <Time>2019-07-14T10:55:50.000Z</Time>
            <Position>
              <LatitudeDegrees>37.05048627220094203948974609375</LatitudeDegrees>
              <LongitudeDegrees>-3.368138037621974945068359375</LongitudeDegrees>
            </Position>
            <AltitudeMeters>3129.39990234375</AltitudeMeters>
            <DistanceMeters>4885.096217497</DistanceMeters>
          </Trackpoint>
          <Trackpoint>
            <Time>2019-07-14T10:55:51.000Z</Time>
            <Position>
              <LatitudeDegrees>37.0504925586283206939697265625</LatitudeDegrees>
              <LongitudeDegrees>-3.3681261353194713592529296875</LongitudeDegrees>
            </Position>
            <AltitudeMeters>3129.39990234375</AltitudeMeters>
            <DistanceMeters>4886.3640319972</DistanceMeters>
          </Trackpoint>
          <Trackpoint>
            <Time>2019-07-14T10:56:06.000Z</Time>
            <Position>
              <LatitudeDegrees>37.05058760941028594970703125</LatitudeDegrees>
              <LongitudeDegrees>-3.36798842065036296844482421875</LongitudeDegrees>
            </Position>
            <AltitudeMeters>3129</AltitudeMeters>
            <DistanceMeters>4902.5375676165</DistanceMeters>
          </Trackpoint>
          <Trackpoint>
            <Time>2019-07-14T10:56:07.000Z</Time>
            <Position>
              <LatitudeDegrees>37.05059431493282318115234375</LatitudeDegrees>
              <LongitudeDegrees>-3.36797920055687427520751953125</LongitudeDegrees>
            </Position>
            <AltitudeMeters>3129.199951171875</AltitudeMeters>
            <DistanceMeters>4903.6538787511</DistanceMeters>
          </Trackpoint>
          <Trackpoint>
            <Time>2019-07-14T10:56:08.000Z</Time>
            <Position>
              <LatitudeDegrees>37.05060143955051898956298828125</LatitudeDegrees>
              <LongitudeDegrees>-3.3679709024727344512939453125</LongitudeDegrees>
            </Position>
            <AltitudeMeters>3129.39990234375</AltitudeMeters>
            <DistanceMeters>4904.7331747538</DistanceMeters>
          </Trackpoint>
          <Trackpoint>
            <Time>2019-07-14T10:56:09.000Z</Time>
            <Position>
              <LatitudeDegrees>37.050606720149517059326171875</LatitudeDegrees>
              <LongitudeDegrees>-3.36796042509377002716064453125</LongitudeDegrees>
            </Position>
            <AltitudeMeters>3129.39990234375</AltitudeMeters>
            <DistanceMeters>4905.8290762854</DistanceMeters>
          </Trackpoint>
          <Trackpoint>
            <Time>2019-07-14T10:56:10.000Z</Time>
            <Position>
              <LatitudeDegrees>37.0506109111011028289794921875</LatitudeDegrees>
              <LongitudeDegrees>-3.36794852279126644134521484375</LongitudeDegrees>
            </Position>
            <AltitudeMeters>3129.60009765625</AltitudeMeters>
            <DistanceMeters>4906.981213967</DistanceMeters>
          </Trackpoint>
          <Trackpoint>
            <Time>2019-07-14T10:56:11.000Z</Time>
            <Position>
              <LatitudeDegrees>37.05061770044267177581787109375</LatitudeDegrees>
              <LongitudeDegrees>-3.3679383806884288787841796875</LongitudeDegrees>
            </Position>
            <AltitudeMeters>3129.800048828125</AltitudeMeters>
            <DistanceMeters>4908.1566295088</DistanceMeters>
          </Trackpoint>
          <Trackpoint>
            <Time>2019-07-14T10:56:12.000Z</Time>
            <Position>
              <LatitudeDegrees>37.050626836717128753662109375</LatitudeDegrees>
              <LongitudeDegrees>-3.3679253049194812774658203125</LongitudeDegrees>
            </Position>
            <AltitudeMeters>3130</AltitudeMeters>
            <DistanceMeters>4909.7006308628</DistanceMeters>
          </Trackpoint>
          <Trackpoint>
            <Time>2019-07-14T10:56:13.000Z</Time>
            <Position>
              <LatitudeDegrees>37.050634883344173431396484375</LatitudeDegrees>
              <LongitudeDegrees>-3.36791331879794597625732421875</LongitudeDegrees>
            </Position>
            <AltitudeMeters>3130.199951171875</AltitudeMeters>
            <DistanceMeters>4911.0875001005</DistanceMeters>
          </Trackpoint>
          <Trackpoint>
            <Time>2019-07-14T10:56:14.000Z</Time>
            <Position>
              <LatitudeDegrees>37.050641588866710662841796875</LatitudeDegrees>
              <LongitudeDegrees>-3.3679004944860935211181640625</LongitudeDegrees>
            </Position>
            <AltitudeMeters>3130.199951171875</AltitudeMeters>
            <DistanceMeters>4912.4513900328</DistanceMeters>
          </Trackpoint>
          <Trackpoint>
            <Time>2019-07-14T10:56:15.000Z</Time>
            <Position>
              <LatitudeDegrees>37.05064770765602588653564453125</LatitudeDegrees>
              <LongitudeDegrees>-3.36789303459227085113525390625</LongitudeDegrees>
            </Position>
            <AltitudeMeters>3130.199951171875</AltitudeMeters>
            <DistanceMeters>4913.4016571765</DistanceMeters>
          </Trackpoint>
          <Trackpoint>
            <Time>2019-07-14T10:56:16.000Z</Time>
            <Position>
              <LatitudeDegrees>37.05065424554049968719482421875</LatitudeDegrees>
              <LongitudeDegrees>-3.36788398213684558868408203125</LongitudeDegrees>
            </Position>
            <AltitudeMeters>3129.800048828125</AltitudeMeters>
            <DistanceMeters>4914.485128421</DistanceMeters>
          </Trackpoint>
          <Trackpoint>
            <Time>2019-07-14T10:56:17.000Z</Time>
            <Position>
              <LatitudeDegrees>37.05066002905368804931640625</LatitudeDegrees>
              <LongitudeDegrees>-3.36787593550980091094970703125</LongitudeDegrees>
            </Position>
            <AltitudeMeters>3129.60009765625</AltitudeMeters>
            <DistanceMeters>4915.4542145628</DistanceMeters>
          </Trackpoint>
          <Trackpoint>
            <Time>2019-07-14T10:56:18.000Z</Time>
            <Position>
              <LatitudeDegrees>37.0506658963859081268310546875</LatitudeDegrees>
              <LongitudeDegrees>-3.36786570958793163299560546875</LongitudeDegrees>
            </Position>
            <AltitudeMeters>3129.39990234375</AltitudeMeters>
            <DistanceMeters>4916.5705256974</DistanceMeters>
          </Trackpoint>
          <Trackpoint>
            <Time>2019-07-14T10:56:19.000Z</Time>
            <Position>
              <LatitudeDegrees>37.05067452974617481231689453125</LatitudeDegrees>
              <LongitudeDegrees>-3.36785330437123775482177734375</LongitudeDegrees>
            </Position>
            <AltitudeMeters>3129.199951171875</AltitudeMeters>
            <DistanceMeters>4918.0303537835</DistanceMeters>
          </Trackpoint>
          <Trackpoint>
            <Time>2019-07-14T10:56:20.000Z</Time>
            <Position>
              <LatitudeDegrees>37.0506836660206317901611328125</LatitudeDegrees>
              <LongitudeDegrees>-3.3678418211638927459716796875</LongitudeDegrees>
            </Position>
            <AltitudeMeters>3129</AltitudeMeters>
            <DistanceMeters>4919.4715052613</DistanceMeters>
          </Trackpoint>
          <Trackpoint>
            <Time>2019-07-14T10:56:21.000Z</Time>
            <Position>
              <LatitudeDegrees>37.05068953335285186767578125</LatitudeDegrees>
              <LongitudeDegrees>-3.36783318780362606048583984375</LongitudeDegrees>
            </Position>
            <AltitudeMeters>3129</AltitudeMeters>
            <DistanceMeters>4920.4816530912</DistanceMeters>
          </Trackpoint>
          <Trackpoint>
            <Time>2019-07-14T10:56:34.000Z</Time>
            <Position>
              <LatitudeDegrees>37.05077175982296466827392578125</LatitudeDegrees>
              <LongitudeDegrees>-3.36776328273117542266845703125</LongitudeDegrees>
            </Position>
            <AltitudeMeters>3129.199951171875</AltitudeMeters>
            <DistanceMeters>4931.5411460919</DistanceMeters>
          </Trackpoint>
          <Trackpoint>
            <Time>2019-07-14T10:56:35.000Z</Time>
            <Position>
              <LatitudeDegrees>37.05077913589775562286376953125</LatitudeDegrees>
              <LongitudeDegrees>-3.36776378564536571502685546875</LongitudeDegrees>
            </Position>
            <AltitudeMeters>3129.39990234375</AltitudeMeters>
            <DistanceMeters>4932.358596798</DistanceMeters>
          </Trackpoint>
          <Trackpoint>
            <Time>2019-07-14T10:56:48.000Z</Time>
            <Position>
              <LatitudeDegrees>37.0508093945682048797607421875</LatitudeDegrees>
              <LongitudeDegrees>-3.3677238039672374725341796875</LongitudeDegrees>
            </Position>
            <AltitudeMeters>3129.199951171875</AltitudeMeters>
            <DistanceMeters>4937.2522419352</DistanceMeters>
          </Trackpoint>
          <Trackpoint>
            <Time>2019-07-14T10:56:49.000Z</Time>
            <Position>
              <LatitudeDegrees>37.050816603004932403564453125</LatitudeDegrees>
              <LongitudeDegrees>-3.3677078783512115478515625</LongitudeDegrees>
            </Position>
            <AltitudeMeters>3129.199951171875</AltitudeMeters>
            <DistanceMeters>4938.8760591422</DistanceMeters>
          </Trackpoint>
          <Trackpoint>
            <Time>2019-07-14T10:57:07.000Z</Time>
            <Position>
              <LatitudeDegrees>37.05096420831978321075439453125</LatitudeDegrees>
              <LongitudeDegrees>-3.36750361137092113494873046875</LongitudeDegrees>
            </Position>
            <AltitudeMeters>3129.60009765625</AltitudeMeters>
            <DistanceMeters>4963.3531405022</DistanceMeters>
          </Trackpoint>
          <Trackpoint>
            <Time>2019-07-14T10:57:18.000Z</Time>
            <Position>
              <LatitudeDegrees>37.05106236040592193603515625</LatitudeDegrees>
              <LongitudeDegrees>-3.36738073267042636871337890625</LongitudeDegrees>
            </Position>
            <AltitudeMeters>3130.199951171875</AltitudeMeters>
            <DistanceMeters>4978.7960780105</DistanceMeters>
          </Trackpoint>
          <Trackpoint>
            <Time>2019-07-14T10:57:28.000Z</Time>
            <Position>
              <LatitudeDegrees>37.05108121968805789947509765625</LatitudeDegrees>
              <LongitudeDegrees>-3.36724896915256977081298828125</LongitudeDegrees>
            </Position>
            <AltitudeMeters>3130.199951171875</AltitudeMeters>
            <DistanceMeters>4990.686954217</DistanceMeters>
          </Trackpoint>
          <Trackpoint>
            <Time>2019-07-14T10:57:29.000Z</Time>
            <Position>
              <LatitudeDegrees>37.05107887275516986846923828125</LatitudeDegrees>
              <LongitudeDegrees>-3.3672356419265270233154296875</LongitudeDegrees>
            </Position>
            <AltitudeMeters>3130.199951171875</AltitudeMeters>
            <DistanceMeters>4991.9001740901</DistanceMeters>
          </Trackpoint>
          <Trackpoint>
            <Time>2019-07-14T10:57:30.000Z</Time>
            <Position>
              <LatitudeDegrees>37.05107602290809154510498046875</LatitudeDegrees>
              <LongitudeDegrees>-3.36722114123404026031494140625</LongitudeDegrees>
            </Position>
            <AltitudeMeters>3130.39990234375</AltitudeMeters>
            <DistanceMeters>4993.2237430645</DistanceMeters>
          </Trackpoint>
          <Trackpoint>
            <Time>2019-07-14T10:57:38.000Z</Time>
            <Position>
              <LatitudeDegrees>37.05107954330742359161376953125</LatitudeDegrees>
              <LongitudeDegrees>-3.3671079017221927642822265625</LongitudeDegrees>
            </Position>
            <AltitudeMeters>3130</AltitudeMeters>
            <DistanceMeters>5003.2902974827</DistanceMeters>
          </Trackpoint>
          <Trackpoint>
            <Time>2019-07-14T10:57:39.000Z</Time>
            <Position>
              <LatitudeDegrees>37.0510844886302947998046875</LatitudeDegrees>
              <LongitudeDegrees>-3.367091305553913116455078125</LongitudeDegrees>
            </Position>
            <AltitudeMeters>3130</AltitudeMeters>
            <DistanceMeters>5004.8632694932</DistanceMeters>
          </Trackpoint>
          <Trackpoint>
            <Time>2019-07-14T10:57:40.000Z</Time>
            <Position>
              <LatitudeDegrees>37.05108842812478542327880859375</LatitudeDegrees>
              <LongitudeDegrees>-3.36707563139498233795166015625</LongitudeDegrees>
            </Position>
            <AltitudeMeters>3130.199951171875</AltitudeMeters>
            <DistanceMeters>5006.3230975792</DistanceMeters>
          </Trackpoint>
          <Trackpoint>
            <Time>2019-07-14T10:57:41.000Z</Time>
            <Position>
              <LatitudeDegrees>37.05109429545700550079345703125</LatitudeDegrees>
              <LongitudeDegrees>-3.36706523783504962921142578125</LongitudeDegrees>
            </Position>
            <AltitudeMeters>3130.199951171875</AltitudeMeters>
            <DistanceMeters>5007.4474688267</DistanceMeters>
          </Trackpoint>
          <Trackpoint>
            <Time>2019-07-14T10:57:42.000Z</Time>
            <Position>
              <LatitudeDegrees>37.05109697766602039337158203125</LatitudeDegrees>
              <LongitudeDegrees>-3.367051742970943450927734375</LongitudeDegrees>
            </Position>
            <AltitudeMeters>3130.199951171875</AltitudeMeters>
            <DistanceMeters>5008.6791558172</DistanceMeters>
          </Trackpoint>
          <Trackpoint>
            <Time>2019-07-14T10:57:43.000Z</Time>
            <Position>
              <LatitudeDegrees>37.05109857022762298583984375</LatitudeDegrees>
              <LongitudeDegrees>-3.3670395053923130035400390625</LongitudeDegrees>
            </Position>
            <AltitudeMeters>3130.199951171875</AltitudeMeters>
            <DistanceMeters>5009.7832664638</DistanceMeters>
          </Trackpoint>
          <Trackpoint>
            <Time>2019-07-14T10:57:44.000Z</Time>
            <Position>
              <LatitudeDegrees>37.05110259354114532470703125</LatitudeDegrees>
              <LongitudeDegrees>-3.3670244179666042327880859375</LongitudeDegrees>
            </Position>
            <AltitudeMeters>3130.199951171875</AltitudeMeters>
            <DistanceMeters>5011.1991326194</DistanceMeters>
          </Trackpoint>
          <Trackpoint>
            <Time>2019-07-14T10:57:45.000Z</Time>
            <Position>
              <LatitudeDegrees>37.05110535956919193267822265625</LatitudeDegrees>
              <LongitudeDegrees>-3.36700974963605403900146484375</LongitudeDegrees>
            </Position>
            <AltitudeMeters>3130</AltitudeMeters>
            <DistanceMeters>5012.5362770154</DistanceMeters>
          </Trackpoint>
          <Trackpoint>
            <Time>2019-07-14T10:57:46.000Z</Time>
            <Position>
              <LatitudeDegrees>37.0511057786643505096435546875</LatitudeDegrees>
              <LongitudeDegrees>-3.3669939078390598297119140625</LongitudeDegrees>
            </Position>
            <AltitudeMeters>3130.199951171875</AltitudeMeters>
            <DistanceMeters>5013.9393296391</DistanceMeters>
          </Trackpoint>
          <Trackpoint>
            <Time>2019-07-14T10:57:47.000Z</Time>
            <Position>
              <LatitudeDegrees>37.0511064492166042327880859375</LatitudeDegrees>
              <LongitudeDegrees>-3.366979658603668212890625</LongitudeDegrees>
            </Position>
            <AltitudeMeters>3130</AltitudeMeters>
            <DistanceMeters>5015.2071441393</DistanceMeters>
          </Trackpoint>
          <Trackpoint>
            <Time>2019-07-14T10:57:48.000Z</Time>
            <Position>
              <LatitudeDegrees>37.05110619775950908660888671875</LatitudeDegrees>
              <LongitudeDegrees>-3.36696448735892772674560546875</LongitudeDegrees>
            </Position>
            <AltitudeMeters>3130.199951171875</AltitudeMeters>
            <DistanceMeters>5016.5510248218</DistanceMeters>
          </Trackpoint>
          <Trackpoint>
            <Time>2019-07-14T10:57:49.000Z</Time>
            <Position>
              <LatitudeDegrees>37.0511067844927310943603515625</LatitudeDegrees>
              <LongitudeDegrees>-3.36694939993321895599365234375</LongitudeDegrees>
            </Position>
            <AltitudeMeters>3130.199951171875</AltitudeMeters>
            <DistanceMeters>5017.8949055043</DistanceMeters>
          </Trackpoint>
          <Trackpoint>
            <Time>2019-07-14T10:57:55.000Z</Time>
            <Position>
              <LatitudeDegrees>37.051112651824951171875</LatitudeDegrees>
              <LongitudeDegrees>-3.3668624795973300933837890625</LongitudeDegrees>
            </Position>
            <AltitudeMeters>3130.199951171875</AltitudeMeters>
            <DistanceMeters>5025.6440995497</DistanceMeters>
          </Trackpoint>
          <Trackpoint>
            <Time>2019-07-14T10:57:56.000Z</Time>
            <Position>
              <LatitudeDegrees>37.0511144958436489105224609375</LatitudeDegrees>
              <LongitudeDegrees>-3.3668457157909870147705078125</LongitudeDegrees>
            </Position>
            <AltitudeMeters>3130</AltitudeMeters>
            <DistanceMeters>5027.1496058391</DistanceMeters>
          </Trackpoint>
          <Trackpoint>
            <Time>2019-07-14T10:58:06.000Z</Time>
            <Position>
              <LatitudeDegrees>37.05117543227970600128173828125</LatitudeDegrees>
              <LongitudeDegrees>-3.36672484874725341796875</LongitudeDegrees>
            </Position>
            <AltitudeMeters>3129.60009765625</AltitudeMeters>
            <DistanceMeters>5039.8487449915</DistanceMeters>
          </Trackpoint>
          <Trackpoint>
            <Time>2019-07-14T10:58:07.000Z</Time>
            <Position>
              <LatitudeDegrees>37.051182053983211517333984375</LatitudeDegrees>
              <LongitudeDegrees>-3.36671655066311359405517578125</LongitudeDegrees>
            </Position>
            <AltitudeMeters>3129.60009765625</AltitudeMeters>
            <DistanceMeters>5040.889710492</DistanceMeters>
          </Trackpoint>
          <Trackpoint>
            <Time>2019-07-14T10:58:08.000Z</Time>
            <Position>
              <LatitudeDegrees>37.051190771162509918212890625</LatitudeDegrees>
              <LongitudeDegrees>-3.3667038939893245697021484375</LongitudeDegrees>
            </Position>
            <AltitudeMeters>3129.60009765625</AltitudeMeters>
            <DistanceMeters>5042.3740752222</DistanceMeters>
          </Trackpoint>
          <Trackpoint>
            <Time>2019-07-14T10:58:25.000Z</Time>
            <Position>
              <LatitudeDegrees>37.0513392984867095947265625</LatitudeDegrees>
              <LongitudeDegrees>-3.366600461304187774658203125</LongitudeDegrees>
            </Position>
            <AltitudeMeters>3130.199951171875</AltitudeMeters>
            <DistanceMeters>5061.2872562919</DistanceMeters>
          </Trackpoint>
          <Trackpoint>
            <Time>2019-07-14T10:58:43.000Z</Time>
            <Position>
              <LatitudeDegrees>37.051497884094715118408203125</LatitudeDegrees>
              <LongitudeDegrees>-3.36650784127414226531982421875</LongitudeDegrees>
            </Position>
            <AltitudeMeters>3131.60009765625</AltitudeMeters>
            <DistanceMeters>5080.7614738755</DistanceMeters>
          </Trackpoint>
          <Trackpoint>
            <Time>2019-07-14T10:58:44.000Z</Time>
            <Position>
              <LatitudeDegrees>37.051509283483028411865234375</LatitudeDegrees>
              <LongitudeDegrees>-3.36650214157998561859130859375</LongitudeDegrees>
            </Position>
            <AltitudeMeters>3131.800048828125</AltitudeMeters>
            <DistanceMeters>5082.1286702125</DistanceMeters>
          </Trackpoint>
          <Trackpoint>
            <Time>2019-07-14T10:58:45.000Z</Time>
            <Position>
              <LatitudeDegrees>37.05151892267167568206787109375</LatitudeDegrees>
              <LongitudeDegrees>-3.36649417877197265625</LongitudeDegrees>
            </Position>
            <AltitudeMeters>3132</AltitudeMeters>
            <DistanceMeters>5083.4176752807</DistanceMeters>
          </Trackpoint>
          <Trackpoint>
            <Time>2019-07-14T10:59:20.000Z</Time>
            <Position>
              <LatitudeDegrees>37.0516915060579776763916015625</LatitudeDegrees>
              <LongitudeDegrees>-3.36632545106112957000732421875</LongitudeDegrees>
            </Position>
            <AltitudeMeters>3134.39990234375</AltitudeMeters>
            <DistanceMeters>5107.7821616358</DistanceMeters>
          </Trackpoint>
          <Trackpoint>
            <Time>2019-07-14T10:59:41.000Z</Time>
            <Position>
              <LatitudeDegrees>37.05178110860288143157958984375</LatitudeDegrees>
              <LongitudeDegrees>-3.36608036421239376068115234375</LongitudeDegrees>
            </Position>
            <AltitudeMeters>3136.199951171875</AltitudeMeters>
            <DistanceMeters>5131.728516564</DistanceMeters>
          </Trackpoint>
          <Trackpoint>
            <Time>2019-07-14T11:00:05.000Z</Time>
            <Position>
              <LatitudeDegrees>37.0518018119037151336669921875</LatitudeDegrees>
              <LongitudeDegrees>-3.36592881940305233001708984375</LongitudeDegrees>
            </Position>
            <AltitudeMeters>3136.199951171875</AltitudeMeters>
            <DistanceMeters>5145.385941615</DistanceMeters>
          </Trackpoint>
          <Trackpoint>
            <Time>2019-07-14T11:00:38.000Z</Time>
            <Position>
              <LatitudeDegrees>37.051829136908054351806640625</LatitudeDegrees>
              <LongitudeDegrees>-3.36567945778369903564453125</LongitudeDegrees>
            </Position>
            <AltitudeMeters>3137</AltitudeMeters>
            <DistanceMeters>5167.7444977388</DistanceMeters>
          </Trackpoint>
          <Trackpoint>
            <Time>2019-07-14T11:00:56.000Z</Time>
            <Position>
              <LatitudeDegrees>37.0517823658883571624755859375</LatitudeDegrees>
              <LongitudeDegrees>-3.36545708589255809783935546875</LongitudeDegrees>
            </Position>
            <AltitudeMeters>3136.800048828125</AltitudeMeters>
            <DistanceMeters>5188.171926174</DistanceMeters>
          </Trackpoint>
          <Trackpoint>
            <Time>2019-07-14T11:01:13.000Z</Time>
            <Position>
              <LatitudeDegrees>37.05182000063359737396240234375</LatitudeDegrees>
              <LongitudeDegrees>-3.36523630656301975250244140625</LongitudeDegrees>
            </Position>
            <AltitudeMeters>3135.39990234375</AltitudeMeters>
            <DistanceMeters>5208.2259403484</DistanceMeters>
          </Trackpoint>
          <Trackpoint>
            <Time>2019-07-14T11:01:25.000Z</Time>
            <Position>
              <LatitudeDegrees>37.051876075565814971923828125</LatitudeDegrees>
              <LongitudeDegrees>-3.3651106618344783782958984375</LongitudeDegrees>
            </Position>
            <AltitudeMeters>3138.60009765625</AltitudeMeters>
            <DistanceMeters>5221.0133022439</DistanceMeters>
          </Trackpoint>
          <Trackpoint>
            <Time>2019-07-14T11:01:26.000Z</Time>
            <Position>
              <LatitudeDegrees>37.0518806017935276031494140625</LatitudeDegrees>
              <LongitudeDegrees>-3.36510236375033855438232421875</LongitudeDegrees>
            </Position>
            <AltitudeMeters>3139</AltitudeMeters>
            <DistanceMeters>5221.9047318413</DistanceMeters>
          </Trackpoint>
          <Trackpoint>
            <Time>2019-07-14T11:01:28.000Z</Time>
            <Position>
              <LatitudeDegrees>37.05188906751573085784912109375</LatitudeDegrees>
              <LongitudeDegrees>-3.36508090607821941375732421875</LongitudeDegrees>
            </Position>
            <AltitudeMeters>3139.199951171875</AltitudeMeters>
            <DistanceMeters>5224.033839254</DistanceMeters>
          </Trackpoint>
          <Trackpoint>
            <Time>2019-07-14T11:01:29.000Z</Time>
            <Position>
              <LatitudeDegrees>37.0518953539431095123291015625</LatitudeDegrees>
              <LongitudeDegrees>-3.365070931613445281982421875</LongitudeDegrees>
            </Position>
            <AltitudeMeters>3139.39990234375</AltitudeMeters>
            <DistanceMeters>5225.1662132448</DistanceMeters>
          </Trackpoint>
          <Trackpoint>
            <Time>2019-07-14T11:01:30.000Z</Time>
            <Position>
              <LatitudeDegrees>37.05190130509436130523681640625</LatitudeDegrees>
              <LongitudeDegrees>-3.3650613762438297271728515625</LongitudeDegrees>
            </Position>
            <AltitudeMeters>3139.199951171875</AltitudeMeters>
            <DistanceMeters>5226.2413177908</DistanceMeters>
          </Trackpoint>
          <Trackpoint>
            <Time>2019-07-14T11:01:31.000Z</Time>
            <Position>
              <LatitudeDegrees>37.05190591514110565185546875</LatitudeDegrees>
              <LongitudeDegrees>-3.36505240760743618011474609375</LongitudeDegrees>
            </Position>
            <AltitudeMeters>3139.199951171875</AltitudeMeters>
            <DistanceMeters>5227.1868216607</DistanceMeters>
          </Trackpoint>
          <Trackpoint>
            <Time>2019-07-14T11:01:32.000Z</Time>
            <Position>
              <LatitudeDegrees>37.051911614835262298583984375</LatitudeDegrees>
              <LongitudeDegrees>-3.36504234932363033294677734375</LongitudeDegrees>
            </Position>
            <AltitudeMeters>3139</AltitudeMeters>
            <DistanceMeters>5228.2868354077</DistanceMeters>
          </Trackpoint>
          <Trackpoint>
            <Time>2019-07-14T11:01:33.000Z</Time>
            <Position>
              <LatitudeDegrees>37.05191773362457752227783203125</LatitudeDegrees>
              <LongitudeDegrees>-3.3650295250117778778076171875</LongitudeDegrees>
            </Position>
            <AltitudeMeters>3139</AltitudeMeters>
            <DistanceMeters>5229.6172094088</DistanceMeters>
          </Trackpoint>
          <Trackpoint>
            <Time>2019-07-14T11:01:34.000Z</Time>
            <Position>
              <LatitudeDegrees>37.0519225113093852996826171875</LatitudeDegrees>
              <LongitudeDegrees>-3.365017287433147430419921875</LongitudeDegrees>
            </Position>
            <AltitudeMeters>3138.800048828125</AltitudeMeters>
            <DistanceMeters>5230.8304292819</DistanceMeters>
          </Trackpoint>
          <Trackpoint>
            <Time>2019-07-14T11:02:07.000Z</Time>
            <Position>
              <LatitudeDegrees>37.0520502515137195587158203125</LatitudeDegrees>
              <LongitudeDegrees>-3.36483129300177097320556640625</LongitudeDegrees>
            </Position>
            <AltitudeMeters>3141.800048828125</AltitudeMeters>
            <DistanceMeters>5252.6274116882</DistanceMeters>
          </Trackpoint>
          <Trackpoint>
            <Time>2019-07-14T11:02:25.000Z</Time>
            <Position>
              <LatitudeDegrees>37.0521830208599567413330078125</LatitudeDegrees>
              <LongitudeDegrees>-3.36468310095369815826416015625</LongitudeDegrees>
            </Position>
            <AltitudeMeters>3142.60009765625</AltitudeMeters>
            <DistanceMeters>5272.4178514409</DistanceMeters>
          </Trackpoint>
          <Trackpoint>
            <Time>2019-07-14T11:02:48.000Z</Time>
            <Position>
              <LatitudeDegrees>37.05233347602188587188720703125</LatitudeDegrees>
              <LongitudeDegrees>-3.3646124415099620819091796875</LongitudeDegrees>
            </Position>
            <AltitudeMeters>3142.39990234375</AltitudeMeters>
            <DistanceMeters>5290.3015660297</DistanceMeters>
          </Trackpoint>
          <Trackpoint>
            <Time>2019-07-14T11:03:11.000Z</Time>
            <Position>
              <LatitudeDegrees>37.0524173788726329803466796875</LatitudeDegrees>
              <LongitudeDegrees>-3.36458235047757625579833984375</LongitudeDegrees>
            </Position>
            <AltitudeMeters>3141</AltitudeMeters>
            <DistanceMeters>5300.0152300532</DistanceMeters>
          </Trackpoint>
          <Trackpoint>
            <Time>2019-07-14T11:03:19.000Z</Time>
            <Position>
              <LatitudeDegrees>37.05249994061887264251708984375</LatitudeDegrees>
              <LongitudeDegrees>-3.36454831995069980621337890625</LongitudeDegrees>
            </Position>
            <AltitudeMeters>3141</AltitudeMeters>
            <DistanceMeters>5309.6883708106</DistanceMeters>
          </Trackpoint>
          <Trackpoint>
            <Time>2019-07-14T11:03:20.000Z</Time>
            <Position>
              <LatitudeDegrees>37.05251821316778659820556640625</LatitudeDegrees>
              <LongitudeDegrees>-3.3645308017730712890625</LongitudeDegrees>
            </Position>
            <AltitudeMeters>3141</AltitudeMeters>
            <DistanceMeters>5312.2488073942</DistanceMeters>
          </Trackpoint>
          <Trackpoint>
            <Time>2019-07-14T11:03:21.000Z</Time>
            <Position>
              <LatitudeDegrees>37.05252994783222675323486328125</LatitudeDegrees>
              <LongitudeDegrees>-3.36452267132699489593505859375</LongitudeDegrees>
            </Position>
            <AltitudeMeters>3141</AltitudeMeters>
            <DistanceMeters>5313.7422694398</DistanceMeters>
          </Trackpoint>
          <Trackpoint>
            <Time>2019-07-14T11:03:22.000Z</Time>
            <Position>
              <LatitudeDegrees>37.05253866501152515411376953125</LatitudeDegrees>
              <LongitudeDegrees>-3.3645128645002841949462890625</LongitudeDegrees>
            </Position>
            <AltitudeMeters>3141</AltitudeMeters>
            <DistanceMeters>5315.0486707747</DistanceMeters>
          </Trackpoint>
          <Trackpoint>
            <Time>2019-07-14T11:03:23.000Z</Time>
            <Position>
              <LatitudeDegrees>37.05254428088665008544921875</LatitudeDegrees>
              <LongitudeDegrees>-3.3645031414926052093505859375</LongitudeDegrees>
            </Position>
            <AltitudeMeters>3141</AltitudeMeters>
            <DistanceMeters>5316.115342998</DistanceMeters>
          </Trackpoint>
          <Trackpoint>
            <Time>2019-07-14T11:03:24.000Z</Time>
            <Position>
              <LatitudeDegrees>37.05254754982888698577880859375</LatitudeDegrees>
              <LongitudeDegrees>-3.36449350230395793914794921875</LongitudeDegrees>
            </Position>
            <AltitudeMeters>3141</AltitudeMeters>
            <DistanceMeters>5317.0464108465</DistanceMeters>
          </Trackpoint>
          <Trackpoint>
            <Time>2019-07-14T11:03:25.000Z</Time>
            <Position>
              <LatitudeDegrees>37.052553333342075347900390625</LatitudeDegrees>
              <LongitudeDegrees>-3.3644796721637248992919921875</LongitudeDegrees>
            </Position>
            <AltitudeMeters>3141</AltitudeMeters>
            <DistanceMeters>5318.4332800843</DistanceMeters>
          </Trackpoint>
          <Trackpoint>
            <Time>2019-07-14T11:03:26.000Z</Time>
            <Position>
              <LatitudeDegrees>37.05255844630300998687744140625</LatitudeDegrees>
              <LongitudeDegrees>-3.3644682727754116058349609375</LongitudeDegrees>
            </Position>
            <AltitudeMeters>3140.800048828125</AltitudeMeters>
            <DistanceMeters>5319.5932289582</DistanceMeters>
          </Trackpoint>
          <Trackpoint>
            <Time>2019-07-14T11:03:39.000Z</Time>
            <Position>
              <LatitudeDegrees>37.05259717069566249847412109375</LatitudeDegrees>
              <LongitudeDegrees>-3.36427808739244937896728515625</LongitudeDegrees>
            </Position>
            <AltitudeMeters>3142</AltitudeMeters>
            <DistanceMeters>5337.0279768272</DistanceMeters>
          </Trackpoint>
          <Trackpoint>
            <Time>2019-07-14T11:03:40.000Z</Time>
            <Position>
              <LatitudeDegrees>37.05259012989699840545654296875</LatitudeDegrees>
              <LongitudeDegrees>-3.36426325142383575439453125</LongitudeDegrees>
            </Position>
            <AltitudeMeters>3142</AltitudeMeters>
            <DistanceMeters>5338.5602365557</DistanceMeters>
          </Trackpoint>
          <Trackpoint>
            <Time>2019-07-14T11:03:41.000Z</Time>
            <Position>
              <LatitudeDegrees>37.05258627422153949737548828125</LatitudeDegrees>
              <LongitudeDegrees>-3.36425109766423702239990234375</LongitudeDegrees>
            </Position>
            <AltitudeMeters>3142</AltitudeMeters>
            <DistanceMeters>5339.7240713664</DistanceMeters>
          </Trackpoint>
          <Trackpoint>
            <Time>2019-07-14T11:03:42.000Z</Time>
            <Position>
              <LatitudeDegrees>37.05258543603122234344482421875</LatitudeDegrees>
              <LongitudeDegrees>-3.36424020119011402130126953125</LongitudeDegrees>
            </Position>
            <AltitudeMeters>3141.800048828125</AltitudeMeters>
            <DistanceMeters>5340.69780543</DistanceMeters>
          </Trackpoint>
          <Trackpoint>
            <Time>2019-07-14T11:03:43.000Z</Time>
            <Position>
              <LatitudeDegrees>37.05258744768798351287841796875</LatitudeDegrees>
              <LongitudeDegrees>-3.36422762833535671234130859375</LongitudeDegrees>
            </Position>
            <AltitudeMeters>3141.60009765625</AltitudeMeters>
            <DistanceMeters>5341.8381260024</DistanceMeters>
          </Trackpoint>
          <Trackpoint>
            <Time>2019-07-14T11:03:44.000Z</Time>
            <Position>
              <LatitudeDegrees>37.05258929170668125152587890625</LatitudeDegrees>
              <LongitudeDegrees>-3.36421203799545764923095703125</LongitudeDegrees>
            </Position>
            <AltitudeMeters>3141.39990234375</AltitudeMeters>
            <DistanceMeters>5343.2347277753</DistanceMeters>
          </Trackpoint>
          <Trackpoint>
            <Time>2019-07-14T11:03:45.000Z</Time>
            <Position>
              <LatitudeDegrees>37.05259096808731555938720703125</LatitudeDegrees>
              <LongitudeDegrees>-3.36419426836073398590087890625</LongitudeDegrees>
            </Position>
            <AltitudeMeters>3141.39990234375</AltitudeMeters>
            <DistanceMeters>5344.8248288426</DistanceMeters>
          </Trackpoint>
          <Trackpoint>
            <Time>2019-07-14T11:03:46.000Z</Time>
            <Position>
              <LatitudeDegrees>37.05259080044925212860107421875</LatitudeDegrees>
              <LongitudeDegrees>-3.36417716927826404571533203125</LongitudeDegrees>
            </Position>
            <AltitudeMeters>3141.199951171875</AltitudeMeters>
            <DistanceMeters>5346.342283782</DistanceMeters>
          </Trackpoint>
          <Trackpoint>
            <Time>2019-07-14T11:03:47.000Z</Time>
            <Position>
              <LatitudeDegrees>37.052589543163776397705078125</LatitudeDegrees>
              <LongitudeDegrees>-3.36416275240480899810791015625</LongitudeDegrees>
            </Position>
            <AltitudeMeters>3141</AltitudeMeters>
            <DistanceMeters>5347.6312888502</DistanceMeters>
          </Trackpoint>
          <Trackpoint>
            <Time>2019-07-14T11:03:48.000Z</Time>
            <Position>
              <LatitudeDegrees>37.05258744768798351287841796875</LatitudeDegrees>
              <LongitudeDegrees>-3.3641500957310199737548828125</LongitudeDegrees>
            </Position>
            <AltitudeMeters>3141</AltitudeMeters>
            <DistanceMeters>5348.7795010086</DistanceMeters>
          </Trackpoint>
          <Trackpoint>
            <Time>2019-07-14T11:03:49.000Z</Time>
            <Position>
              <LatitudeDegrees>37.0525856874883174896240234375</LatitudeDegrees>
              <LongitudeDegrees>-3.3641366846859455108642578125</LongitudeDegrees>
            </Position>
            <AltitudeMeters>3141</AltitudeMeters>
            <DistanceMeters>5349.9889936229</DistanceMeters>
          </Trackpoint>
          <Trackpoint>
            <Time>2019-07-14T11:03:50.000Z</Time>
            <Position>
              <LatitudeDegrees>37.0525853522121906280517578125</LatitudeDegrees>
              <LongitudeDegrees>-3.3641192503273487091064453125</LongitudeDegrees>
            </Position>
            <AltitudeMeters>3140.800048828125</AltitudeMeters>
            <DistanceMeters>5351.5388324319</DistanceMeters>
          </Trackpoint>
          <Trackpoint>
            <Time>2019-07-14T11:03:51.000Z</Time>
            <Position>
              <LatitudeDegrees>37.05258375965058803558349609375</LatitudeDegrees>
              <LongitudeDegrees>-3.36410223506391048431396484375</LongitudeDegrees>
            </Position>
            <AltitudeMeters>3140.800048828125</AltitudeMeters>
            <DistanceMeters>5353.0592598618</DistanceMeters>
          </Trackpoint>
          <Trackpoint>
            <Time>2019-07-14T11:03:52.000Z</Time>
            <Position>
              <LatitudeDegrees>37.05258040688931941986083984375</LatitudeDegrees>
              <LongitudeDegrees>-3.3640868961811065673828125</LongitudeDegrees>
            </Position>
            <AltitudeMeters>3140.800048828125</AltitudeMeters>
            <DistanceMeters>5354.4751260174</DistanceMeters>
          </Trackpoint>
          <Trackpoint>
            <Time>2019-07-14T11:04:01.000Z</Time>
            <Position>
              <LatitudeDegrees>37.05254905857145786285400390625</LatitudeDegrees>
              <LongitudeDegrees>-3.36397114209830760955810546875</LongitudeDegrees>
            </Position>
            <AltitudeMeters>3141.39990234375</AltitudeMeters>
            <DistanceMeters>5365.333149689</DistanceMeters>
          </Trackpoint>
          <Trackpoint>
            <Time>2019-07-14T11:04:03.000Z</Time>
            <Position>
              <LatitudeDegrees>37.05254302360117435455322265625</LatitudeDegrees>
              <LongitudeDegrees>-3.3639496006071567535400390625</LongitudeDegrees>
            </Position>
            <AltitudeMeters>3141.39990234375</AltitudeMeters>
            <DistanceMeters>5367.364588818</DistanceMeters>
          </Trackpoint>
          <Trackpoint>
            <Time>2019-07-14T11:04:04.000Z</Time>
            <Position>
              <LatitudeDegrees>37.05254025757312774658203125</LatitudeDegrees>
              <LongitudeDegrees>-3.363935016095638275146484375</LongitudeDegrees>
            </Position>
            <AltitudeMeters>3141.39990234375</AltitudeMeters>
            <DistanceMeters>5368.6949628192</DistanceMeters>
          </Trackpoint>
          <Trackpoint>
            <Time>2019-07-14T11:04:05.000Z</Time>
            <Position>
              <LatitudeDegrees>37.05253489315509796142578125</LatitudeDegrees>
              <LongitudeDegrees>-3.36392018012702465057373046875</LongitudeDegrees>
            </Position>
            <AltitudeMeters>3141.39990234375</AltitudeMeters>
            <DistanceMeters>5370.1392438371</DistanceMeters>
          </Trackpoint>
          <Trackpoint>
            <Time>2019-07-14T11:04:06.000Z</Time>
            <Position>
              <LatitudeDegrees>37.05252894200384616851806640625</LatitudeDegrees>
              <LongitudeDegrees>-3.3639086969196796417236328125</LongitudeDegrees>
            </Position>
            <AltitudeMeters>3141.39990234375</AltitudeMeters>
            <DistanceMeters>5371.356179553</DistanceMeters>
          </Trackpoint>
          <Trackpoint>
            <Time>2019-07-14T11:04:07.000Z</Time>
            <Position>
              <LatitudeDegrees>37.05252550542354583740234375</LatitudeDegrees>
              <LongitudeDegrees>-3.363895118236541748046875</LongitudeDegrees>
            </Position>
            <AltitudeMeters>3141.39990234375</AltitudeMeters>
            <DistanceMeters>5372.6204277607</DistanceMeters>
          </Trackpoint>
          <Trackpoint>
            <Time>2019-07-14T11:04:08.000Z</Time>
            <Position>
              <LatitudeDegrees>37.05252056010067462921142578125</LatitudeDegrees>
              <LongitudeDegrees>-3.36388329975306987762451171875</LongitudeDegrees>
            </Position>
            <AltitudeMeters>3141.39990234375</AltitudeMeters>
            <DistanceMeters>5373.8073110428</DistanceMeters>
          </Trackpoint>
          <Trackpoint>
            <Time>2019-07-14T11:04:09.000Z</Time>
            <Position>
              <LatitudeDegrees>37.05251343548297882080078125</LatitudeDegrees>
              <LongitudeDegrees>-3.363873660564422607421875</LongitudeDegrees>
            </Position>
            <AltitudeMeters>3141.60009765625</AltitudeMeters>
            <DistanceMeters>5374.9711458535</DistanceMeters>
          </Trackpoint>
          <Trackpoint>
            <Time>2019-07-14T11:04:10.000Z</Time>
            <Position>
              <LatitudeDegrees>37.052509076893329620361328125</LatitudeDegrees>
              <LongitudeDegrees>-3.36386167444288730621337890625</LongitudeDegrees>
            </Position>
            <AltitudeMeters>3141.60009765625</AltitudeMeters>
            <DistanceMeters>5376.1388536692</DistanceMeters>
          </Trackpoint>
          <Trackpoint>
            <Time>2019-07-14T11:04:11.000Z</Time>
            <Position>
              <LatitudeDegrees>37.0525062270462512969970703125</LatitudeDegrees>
              <LongitudeDegrees>-3.36384792812168598175048828125</LongitudeDegrees>
            </Position>
            <AltitudeMeters>3141.800048828125</AltitudeMeters>
            <DistanceMeters>5377.3995254957</DistanceMeters>
          </Trackpoint>
          <Trackpoint>
            <Time>2019-07-14T11:04:29.000Z</Time>
            <Position>
              <LatitudeDegrees>37.05240354873239994049072265625</LatitudeDegrees>
              <LongitudeDegrees>-3.3636371232569217681884765625</LongitudeDegrees>
            </Position>
            <AltitudeMeters>3143.199951171875</AltitudeMeters>
            <DistanceMeters>5399.3369112562</DistanceMeters>
          </Trackpoint>
          <Trackpoint>
            <Time>2019-07-14T11:04:38.000Z</Time>
            <Position>
              <LatitudeDegrees>37.05237035639584064483642578125</LatitudeDegrees>
              <LongitudeDegrees>-3.363529331982135772705078125</LongitudeDegrees>
            </Position>
            <AltitudeMeters>3143.800048828125</AltitudeMeters>
            <DistanceMeters>5409.5997964082</DistanceMeters>
          </Trackpoint>
          <Trackpoint>
            <Time>2019-07-14T11:04:39.000Z</Time>
            <Position>
              <LatitudeDegrees>37.05236432142555713653564453125</LatitudeDegrees>
              <LongitudeDegrees>-3.363519273698329925537109375</LongitudeDegrees>
            </Position>
            <AltitudeMeters>3144</AltitudeMeters>
            <DistanceMeters>5410.7161075428</DistanceMeters>
          </Trackpoint>
          <Trackpoint>
            <Time>2019-07-14T11:04:40.000Z</Time>
            <Position>
              <LatitudeDegrees>37.05236214213073253631591796875</LatitudeDegrees>
              <LongitudeDegrees>-3.3635080419480800628662109375</LongitudeDegrees>
            </Position>
            <AltitudeMeters>3144.199951171875</AltitudeMeters>
            <DistanceMeters>5411.7395765787</DistanceMeters>
          </Trackpoint>
          <Trackpoint>
            <Time>2019-07-14T11:04:41.000Z</Time>
            <Position>
              <LatitudeDegrees>37.052354849874973297119140625</LatitudeDegrees>
              <LongitudeDegrees>-3.36349882185459136962890625</LongitudeDegrees>
            </Position>
            <AltitudeMeters>3144.199951171875</AltitudeMeters>
            <DistanceMeters>5412.8956264538</DistanceMeters>
          </Trackpoint>
          <Trackpoint>
            <Time>2019-07-14T11:04:42.000Z</Time>
            <Position>
              <LatitudeDegrees>37.0523530058562755584716796875</LatitudeDegrees>
              <LongitudeDegrees>-3.3634885959327220916748046875</LongitudeDegrees>
            </Position>
            <AltitudeMeters>3144.199951171875</AltitudeMeters>
            <DistanceMeters>5413.831531051</DistanceMeters>
          </Trackpoint>
          <Trackpoint>
            <Time>2019-07-14T11:04:43.000Z</Time>
            <Position>
              <LatitudeDegrees>37.05234990455210208892822265625</LatitudeDegrees>
              <LongitudeDegrees>-3.363479040563106536865234375</LongitudeDegrees>
            </Position>
            <AltitudeMeters>3144.39990234375</AltitudeMeters>
            <DistanceMeters>5414.7528492294</DistanceMeters>
          </Trackpoint>
          <Trackpoint>
            <Time>2019-07-14T11:04:59.000Z</Time>
            <Position>
              <LatitudeDegrees>37.052282430231571197509765625</LatitudeDegrees>
              <LongitudeDegrees>-3.3632857538759708404541015625</LongitudeDegrees>
            </Position>
            <AltitudeMeters>3146</AltitudeMeters>
            <DistanceMeters>5433.4931195865</DistanceMeters>
          </Trackpoint>
          <Trackpoint>
            <Time>2019-07-14T11:05:00.000Z</Time>
            <Position>
              <LatitudeDegrees>37.05227748490869998931884765625</LatitudeDegrees>
              <LongitudeDegrees>-3.363274522125720977783203125</LongitudeDegrees>
            </Position>
            <AltitudeMeters>3146.199951171875</AltitudeMeters>
            <DistanceMeters>5434.6334401589</DistanceMeters>
          </Trackpoint>
          <Trackpoint>
            <Time>2019-07-14T11:05:01.000Z</Time>
            <Position>
              <LatitudeDegrees>37.052271701395511627197265625</LatitudeDegrees>
              <LongitudeDegrees>-3.36326546967029571533203125</LongitudeDegrees>
            </Position>
            <AltitudeMeters>3146.199951171875</AltitudeMeters>
            <DistanceMeters>5435.6656944979</DistanceMeters>
          </Trackpoint>
          <Trackpoint>
            <Time>2019-07-14T11:05:02.000Z</Time>
            <Position>
              <LatitudeDegrees>37.05226826481521129608154296875</LatitudeDegrees>
              <LongitudeDegrees>-3.363254405558109283447265625</LongitudeDegrees>
            </Position>
            <AltitudeMeters>3146.199951171875</AltitudeMeters>
            <DistanceMeters>5436.7195917428</DistanceMeters>
          </Trackpoint>
          <Trackpoint>
            <Time>2019-07-14T11:05:03.000Z</Time>
            <Position>
              <LatitudeDegrees>37.05226440913975238800048828125</LatitudeDegrees>
              <LongitudeDegrees>-3.3632446825504302978515625</LongitudeDegrees>
            </Position>
            <AltitudeMeters>3146.199951171875</AltitudeMeters>
            <DistanceMeters>5437.6793145138</DistanceMeters>
          </Trackpoint>
          <Trackpoint>
            <Time>2019-07-14T11:05:05.000Z</Time>
            <Position>
              <LatitudeDegrees>37.05226273275911808013916015625</LatitudeDegrees>
              <LongitudeDegrees>-3.363224565982818603515625</LongitudeDegrees>
            </Position>
            <AltitudeMeters>3146</AltitudeMeters>
            <DistanceMeters>5439.4773043266</DistanceMeters>
          </Trackpoint>
          <Trackpoint>
            <Time>2019-07-14T11:05:06.000Z</Time>
            <Position>
              <LatitudeDegrees>37.05225954763591289520263671875</LatitudeDegrees>
              <LongitudeDegrees>-3.3632140047848224639892578125</LongitudeDegrees>
            </Position>
            <AltitudeMeters>3146</AltitudeMeters>
            <DistanceMeters>5440.4784728865</DistanceMeters>
          </Trackpoint>
          <Trackpoint>
            <Time>2019-07-14T11:05:07.000Z</Time>
            <Position>
              <LatitudeDegrees>37.052256278693675994873046875</LatitudeDegrees>
              <LongitudeDegrees>-3.3632044494152069091796875</LongitudeDegrees>
            </Position>
            <AltitudeMeters>3146</AltitudeMeters>
            <DistanceMeters>5441.3997910648</DistanceMeters>
          </Trackpoint>
          <Trackpoint>
            <Time>2019-07-14T11:05:08.000Z</Time>
            <Position>
              <LatitudeDegrees>37.052254267036914825439453125</LatitudeDegrees>
              <LongitudeDegrees>-3.363194055855274200439453125</LongitudeDegrees>
            </Position>
            <AltitudeMeters>3146</AltitudeMeters>
            <DistanceMeters>5442.3452949347</DistanceMeters>
          </Trackpoint>
          <Trackpoint>
            <Time>2019-07-14T11:05:09.000Z</Time>
            <Position>
              <LatitudeDegrees>37.05225116573274135589599609375</LatitudeDegrees>
              <LongitudeDegrees>-3.36318206973373889923095703125</LongitudeDegrees>
            </Position>
            <AltitudeMeters>3146</AltitudeMeters>
            <DistanceMeters>5443.4616060693</DistanceMeters>
          </Trackpoint>
          <Trackpoint>
            <Time>2019-07-14T11:05:10.000Z</Time>
            <Position>
              <LatitudeDegrees>37.05224412493407726287841796875</LatitudeDegrees>
              <LongitudeDegrees>-3.36317033506929874420166015625</LongitudeDegrees>
            </Position>
            <AltitudeMeters>3146.199951171875</AltitudeMeters>
            <DistanceMeters>5444.7645467324</DistanceMeters>
          </Trackpoint>
          <Trackpoint>
            <Time>2019-07-14T11:05:11.000Z</Time>
            <Position>
              <LatitudeDegrees>37.05223716795444488525390625</LatitudeDegrees>
              <LongitudeDegrees>-3.36315960623323917388916015625</LongitudeDegrees>
            </Position>
            <AltitudeMeters>3146.199951171875</AltitudeMeters>
            <DistanceMeters>5445.9962337229</DistanceMeters>
          </Trackpoint>
          <Trackpoint>
            <Time>2019-07-14T11:05:12.000Z</Time>
            <Position>
              <LatitudeDegrees>37.0522297918796539306640625</LatitudeDegrees>
              <LongitudeDegrees>-3.36314879357814788818359375</LongitudeDegrees>
            </Position>
            <AltitudeMeters>3146.39990234375</AltitudeMeters>
            <DistanceMeters>5447.2604819305</DistanceMeters>
          </Trackpoint>
          <Trackpoint>
            <Time>2019-07-14T11:05:13.000Z</Time>
            <Position>
              <LatitudeDegrees>37.0522222481667995452880859375</LatitudeDegrees>
              <LongitudeDegrees>-3.36313781328499317169189453125</LongitudeDegrees>
            </Position>
            <AltitudeMeters>3146.39990234375</AltitudeMeters>
            <DistanceMeters>5448.5424623956</DistanceMeters>
          </Trackpoint>
          <Trackpoint>
            <Time>2019-07-14T11:05:31.000Z</Time>
            <Position>
              <LatitudeDegrees>37.05210347659885883331298828125</LatitudeDegrees>
              <LongitudeDegrees>-3.36296279914677143096923828125</LongitudeDegrees>
            </Position>
            <AltitudeMeters>3146.39990234375</AltitudeMeters>
            <DistanceMeters>5468.9491036011</DistanceMeters>
          </Trackpoint>
          <Trackpoint>
            <Time>2019-07-14T11:05:32.000Z</Time>
            <Position>
              <LatitudeDegrees>37.05209727399051189422607421875</LatitudeDegrees>
              <LongitudeDegrees>-3.3629555068910121917724609375</LongitudeDegrees>
            </Position>
            <AltitudeMeters>3146.39990234375</AltitudeMeters>
            <DistanceMeters>5469.894607471</DistanceMeters>
          </Trackpoint>
          <Trackpoint>
            <Time>2019-07-14T11:05:33.000Z</Time>
            <Position>
              <LatitudeDegrees>37.05209174193441867828369140625</LatitudeDegrees>
              <LongitudeDegrees>-3.36294637061655521392822265625</LongitudeDegrees>
            </Position>
            <AltitudeMeters>3146.60009765625</AltitudeMeters>
            <DistanceMeters>5470.9136554537</DistanceMeters>
          </Trackpoint>
          <Trackpoint>
            <Time>2019-07-14T11:05:34.000Z</Time>
            <Position>
              <LatitudeDegrees>37.05208570696413516998291015625</LatitudeDegrees>
              <LongitudeDegrees>-3.3629394136369228363037109375</LongitudeDegrees>
            </Position>
            <AltitudeMeters>3146.60009765625</AltitudeMeters>
            <DistanceMeters>5471.8251196783</DistanceMeters>
          </Trackpoint>
          <Trackpoint>
            <Time>2019-07-14T11:05:35.000Z</Time>
            <Position>
              <LatitudeDegrees>37.05207648687064647674560546875</LatitudeDegrees>
              <LongitudeDegrees>-3.3629322052001953125</LongitudeDegrees>
            </Position>
            <AltitudeMeters>3146.60009765625</AltitudeMeters>
            <DistanceMeters>5473.0346122926</DistanceMeters>
          </Trackpoint>
          <Trackpoint>
            <Time>2019-07-14T11:05:36.000Z</Time>
            <Position>
              <LatitudeDegrees>37.0520696975290775299072265625</LatitudeDegrees>
              <LongitudeDegrees>-3.362923823297023773193359375</LongitudeDegrees>
            </Position>
            <AltitudeMeters>3146.60009765625</AltitudeMeters>
            <DistanceMeters>5474.0885095374</DistanceMeters>
          </Trackpoint>
          <Trackpoint>
            <Time>2019-07-14T11:05:37.000Z</Time>
            <Position>
              <LatitudeDegrees>37.05206416547298431396484375</LatitudeDegrees>
              <LongitudeDegrees>-3.36291435174643993377685546875</LongitudeDegrees>
            </Position>
            <AltitudeMeters>3146.60009765625</AltitudeMeters>
            <DistanceMeters>5475.1294750379</DistanceMeters>
          </Trackpoint>
          <Trackpoint>
            <Time>2019-07-14T11:05:41.000Z</Time>
            <Position>
              <LatitudeDegrees>37.05204480327665805816650390625</LatitudeDegrees>
              <LongitudeDegrees>-3.36286925710737705230712890625</LongitudeDegrees>
            </Position>
            <AltitudeMeters>3146.60009765625</AltitudeMeters>
            <DistanceMeters>5479.6768781492</DistanceMeters>
          </Trackpoint>
          <Trackpoint>
            <Time>2019-07-14T11:05:42.000Z</Time>
            <Position>
              <LatitudeDegrees>37.0520395226776599884033203125</LatitudeDegrees>
              <LongitudeDegrees>-3.3628586120903491973876953125</LongitudeDegrees>
            </Position>
            <AltitudeMeters>3146.60009765625</AltitudeMeters>
            <DistanceMeters>5480.7850705496</DistanceMeters>
          </Trackpoint>
          <Trackpoint>
            <Time>2019-07-14T11:05:56.000Z</Time>
            <Position>
              <LatitudeDegrees>37.05198797397315502166748046875</LatitudeDegrees>
              <LongitudeDegrees>-3.362705893814563751220703125</LongitudeDegrees>
            </Position>
            <AltitudeMeters>3147.39990234375</AltitudeMeters>
            <DistanceMeters>5495.514211277</DistanceMeters>
          </Trackpoint>
          <Trackpoint>
            <Time>2019-07-14T11:05:57.000Z</Time>
            <Position>
              <LatitudeDegrees>37.05198504030704498291015625</LatitudeDegrees>
              <LongitudeDegrees>-3.36269491352140903472900390625</LongitudeDegrees>
            </Position>
            <AltitudeMeters>3147.60009765625</AltitudeMeters>
            <DistanceMeters>5496.546465616</DistanceMeters>
          </Trackpoint>
          <Trackpoint>
            <Time>2019-07-14T11:05:58.000Z</Time>
            <Position>
              <LatitudeDegrees>37.05197992734611034393310546875</LatitudeDegrees>
              <LongitudeDegrees>-3.36268485523760318756103515625</LongitudeDegrees>
            </Position>
            <AltitudeMeters>3148</AltitudeMeters>
            <DistanceMeters>5497.6131378393</DistanceMeters>
          </Trackpoint>
          <Trackpoint>
            <Time>2019-07-14T11:05:59.000Z</Time>
            <Position>
              <LatitudeDegrees>37.051975987851619720458984375</LatitudeDegrees>
              <LongitudeDegrees>-3.36267228238284587860107421875</LongitudeDegrees>
            </Position>
            <AltitudeMeters>3148.199951171875</AltitudeMeters>
            <DistanceMeters>5498.8151412632</DistanceMeters>
          </Trackpoint>
          <Trackpoint>
            <Time>2019-07-14T11:06:00.000Z</Time>
            <Position>
              <LatitudeDegrees>37.051968276500701904296875</LatitudeDegrees>
              <LongitudeDegrees>-3.36266121827065944671630859375</LongitudeDegrees>
            </Position>
            <AltitudeMeters>3148.800048828125</AltitudeMeters>
            <DistanceMeters>5500.1180819262</DistanceMeters>
          </Trackpoint>
          <Trackpoint>
            <Time>2019-07-14T11:06:01.000Z</Time>
            <Position>
              <LatitudeDegrees>37.05196316353976726531982421875</LatitudeDegrees>
              <LongitudeDegrees>-3.36264847777783870697021484375</LongitudeDegrees>
            </Position>
            <AltitudeMeters>3149.199951171875</AltitudeMeters>
            <DistanceMeters>5501.3858964265</DistanceMeters>
          </Trackpoint>
          <Trackpoint>
            <Time>2019-07-14T11:06:02.000Z</Time>
            <Position>
              <LatitudeDegrees>37.05195662565529346466064453125</LatitudeDegrees>
              <LongitudeDegrees>-3.36263909004628658294677734375</LongitudeDegrees>
            </Position>
            <AltitudeMeters>3149.39990234375</AltitudeMeters>
            <DistanceMeters>5502.4940888269</DistanceMeters>
          </Trackpoint>
          <Trackpoint>
            <Time>2019-07-14T11:06:22.000Z</Time>
            <Position>
              <LatitudeDegrees>37.05188387073576450347900390625</LatitudeDegrees>
              <LongitudeDegrees>-3.36240640841424465179443359375</LongitudeDegrees>
            </Position>
            <AltitudeMeters>3152.39990234375</AltitudeMeters>
            <DistanceMeters>5524.6925408348</DistanceMeters>
          </Trackpoint>
          <Trackpoint>
            <Time>2019-07-14T11:06:41.000Z</Time>
            <Position>
              <LatitudeDegrees>37.05184296704828739166259765625</LatitudeDegrees>
              <LongitudeDegrees>-3.36219686083495616912841796875</LongitudeDegrees>
            </Position>
            <AltitudeMeters>3150.800048828125</AltitudeMeters>
            <DistanceMeters>5543.8549787934</DistanceMeters>
          </Trackpoint>
          <Trackpoint>
            <Time>2019-07-14T11:06:42.000Z</Time>
            <Position>
              <LatitudeDegrees>37.051842547953128814697265625</LatitudeDegrees>
              <LongitudeDegrees>-3.36218361742794513702392578125</LongitudeDegrees>
            </Position>
            <AltitudeMeters>3151</AltitudeMeters>
            <DistanceMeters>5545.0380518464</DistanceMeters>
          </Trackpoint>
          <Trackpoint>
            <Time>2019-07-14T11:06:43.000Z</Time>
            <Position>
              <LatitudeDegrees>37.05184129066765308380126953125</LatitudeDegrees>
              <LongitudeDegrees>-3.3621717989444732666015625</LongitudeDegrees>
            </Position>
            <AltitudeMeters>3151</AltitudeMeters>
            <DistanceMeters>5546.096224554</DistanceMeters>
          </Trackpoint>
          <Trackpoint>
            <Time>2019-07-14T11:06:44.000Z</Time>
            <Position>
              <LatitudeDegrees>37.0518396981060504913330078125</LatitudeDegrees>
              <LongitudeDegrees>-3.36216065101325511932373046875</LongitudeDegrees>
            </Position>
            <AltitudeMeters>3151.199951171875</AltitudeMeters>
            <DistanceMeters>5547.0973931139</DistanceMeters>
          </Trackpoint>
          <Trackpoint>
            <Time>2019-07-14T11:06:45.000Z</Time>
            <Position>
              <LatitudeDegrees>37.05183676443994045257568359375</LatitudeDegrees>
              <LongitudeDegrees>-3.3621491678059101104736328125</LongitudeDegrees>
            </Position>
            <AltitudeMeters>3151.199951171875</AltitudeMeters>
            <DistanceMeters>5548.1640653372</DistanceMeters>
          </Trackpoint>
          <Trackpoint>
            <Time>2019-07-14T11:06:55.000Z</Time>
            <Position>
              <LatitudeDegrees>37.05182570032775402069091796875</LatitudeDegrees>
              <LongitudeDegrees>-3.36205872707068920135498046875</LongitudeDegrees>
            </Position>
            <AltitudeMeters>3153</AltitudeMeters>
            <DistanceMeters>5556.2914886181</DistanceMeters>
          </Trackpoint>
          <Trackpoint>
            <Time>2019-07-14T11:07:48.000Z</Time>
            <Position>
              <LatitudeDegrees>37.05185269005596637725830078125</LatitudeDegrees>
              <LongitudeDegrees>-3.36183962412178516387939453125</LongitudeDegrees>
            </Position>
            <AltitudeMeters>3154.199951171875</AltitudeMeters>
            <DistanceMeters>5575.9847291619</DistanceMeters>
          </Trackpoint>
          <Trackpoint>
            <Time>2019-07-14T11:08:05.000Z</Time>
            <Position>
              <LatitudeDegrees>37.05187280662357807159423828125</LatitudeDegrees>
              <LongitudeDegrees>-3.36160677485167980194091796875</LongitudeDegrees>
            </Position>
            <AltitudeMeters>3154.60009765625</AltitudeMeters>
            <DistanceMeters>5596.7892869345</DistanceMeters>
          </Trackpoint>
          <Trackpoint>
            <Time>2019-07-14T11:08:16.000Z</Time>
            <Position>
              <LatitudeDegrees>37.051865346729755401611328125</LatitudeDegrees>
              <LongitudeDegrees>-3.3614611811935901641845703125</LongitudeDegrees>
            </Position>
            <AltitudeMeters>3154.199951171875</AltitudeMeters>
            <DistanceMeters>5609.7485061125</DistanceMeters>
          </Trackpoint>
          <Trackpoint>
            <Time>2019-07-14T11:08:32.000Z</Time>
            <Position>
              <LatitudeDegrees>37.051850594580173492431640625</LatitudeDegrees>
              <LongitudeDegrees>-3.36145573295652866363525390625</LongitudeDegrees>
            </Position>
            <AltitudeMeters>3154.199951171875</AltitudeMeters>
            <DistanceMeters>5611.4589869712</DistanceMeters>
          </Trackpoint>
          <Trackpoint>
            <Time>2019-07-14T11:08:37.000Z</Time>
            <Position>
              <LatitudeDegrees>37.051857970654964447021484375</LatitudeDegrees>
              <LongitudeDegrees>-3.36143159307539463043212890625</LongitudeDegrees>
            </Position>
            <AltitudeMeters>3154.199951171875</AltitudeMeters>
            <DistanceMeters>5613.7554112881</DistanceMeters>
          </Trackpoint>
          <Trackpoint>
            <Time>2019-07-14T11:08:38.000Z</Time>
            <Position>
              <LatitudeDegrees>37.05185922794044017791748046875</LatitudeDegrees>
              <LongitudeDegrees>-3.36142103187739849090576171875</LongitudeDegrees>
            </Position>
            <AltitudeMeters>3154.39990234375</AltitudeMeters>
            <DistanceMeters>5614.7056784318</DistanceMeters>
          </Trackpoint>
          <Trackpoint>
            <Time>2019-07-14T11:08:50.000Z</Time>
            <Position>
              <LatitudeDegrees>37.05187900923192501068115234375</LatitudeDegrees>
              <LongitudeDegrees>-3.36126915179193019866943359375</LongitudeDegrees>
            </Position>
            <AltitudeMeters>3155.39990234375</AltitudeMeters>
            <DistanceMeters>5628.3756602142</DistanceMeters>
          </Trackpoint>
          <Trackpoint>
            <Time>2019-07-14T11:09:02.000Z</Time>
            <Position>
              <LatitudeDegrees>37.05191798508167266845703125</LatitudeDegrees>
              <LongitudeDegrees>-3.36111056618392467498779296875</LongitudeDegrees>
            </Position>
            <AltitudeMeters>3155</AltitudeMeters>
            <DistanceMeters>5643.1155258595</DistanceMeters>
          </Trackpoint>
          <Trackpoint>
            <Time>2019-07-14T11:09:07.000Z</Time>
            <Position>
              <LatitudeDegrees>37.05194354988634586334228515625</LatitudeDegrees>
              <LongitudeDegrees>-3.3610575087368488311767578125</LongitudeDegrees>
            </Position>
            <AltitudeMeters>3154.800048828125</AltitudeMeters>
            <DistanceMeters>5648.6205178255</DistanceMeters>
          </Trackpoint>
          <Trackpoint>
            <Time>2019-07-14T11:09:08.000Z</Time>
            <Position>
              <LatitudeDegrees>37.0519526861608028411865234375</LatitudeDegrees>
              <LongitudeDegrees>-3.36104820482432842254638671875</LongitudeDegrees>
            </Position>
            <AltitudeMeters>3154.800048828125</AltitudeMeters>
            <DistanceMeters>5649.9338131467</DistanceMeters>
          </Trackpoint>
          <Trackpoint>
            <Time>2019-07-14T11:09:09.000Z</Time>
            <Position>
              <LatitudeDegrees>37.0519593916833400726318359375</LatitudeDegrees>
              <LongitudeDegrees>-3.3610399067401885986328125</LongitudeDegrees>
            </Position>
            <AltitudeMeters>3154.800048828125</AltitudeMeters>
            <DistanceMeters>5650.9834175132</DistanceMeters>
          </Trackpoint>
          <Trackpoint>
            <Time>2019-07-14T11:09:24.000Z</Time>
            <Position>
              <LatitudeDegrees>37.0520769059658050537109375</LatitudeDegrees>
              <LongitudeDegrees>-3.36094594560563564300537109375</LongitudeDegrees>
            </Position>
            <AltitudeMeters>3156.199951171875</AltitudeMeters>
            <DistanceMeters>5666.4989841455</DistanceMeters>
          </Trackpoint>
          <Trackpoint>
            <Time>2019-07-14T11:09:25.000Z</Time>
            <Position>
              <LatitudeDegrees>37.05208570696413516998291015625</LatitudeDegrees>
              <LongitudeDegrees>-3.3609398268163204193115234375</LongitudeDegrees>
            </Position>
            <AltitudeMeters>3156.199951171875</AltitudeMeters>
            <DistanceMeters>5667.6152952801</DistanceMeters>
          </Trackpoint>
          <Trackpoint>
            <Time>2019-07-14T11:09:26.000Z</Time>
            <Position>
              <LatitudeDegrees>37.05209241248667240142822265625</LatitudeDegrees>
              <LongitudeDegrees>-3.36093219928443431854248046875</LongitudeDegrees>
            </Position>
            <AltitudeMeters>3156.39990234375</AltitudeMeters>
            <DistanceMeters>5668.6209634966</DistanceMeters>
          </Trackpoint>
          <Trackpoint>
            <Time>2019-07-14T11:09:27.000Z</Time>
            <Position>
              <LatitudeDegrees>37.05210112966597080230712890625</LatitudeDegrees>
              <LongitudeDegrees>-3.36092515848577022552490234375</LongitudeDegrees>
            </Position>
            <AltitudeMeters>3156.39990234375</AltitudeMeters>
            <DistanceMeters>5669.7731011782</DistanceMeters>
          </Trackpoint>
          <Trackpoint>
            <Time>2019-07-14T11:09:29.000Z</Time>
            <Position>
              <LatitudeDegrees>37.052117474377155303955078125</LatitudeDegrees>
              <LongitudeDegrees>-3.36091124452650547027587890625</LongitudeDegrees>
            </Position>
            <AltitudeMeters>3156.60009765625</AltitudeMeters>
            <DistanceMeters>5671.9690203072</DistanceMeters>
          </Trackpoint>
          <Trackpoint>
            <Time>2019-07-14T11:09:45.000Z</Time>
            <Position>
              <LatitudeDegrees>37.0522517524659633636474609375</LatitudeDegrees>
              <LongitudeDegrees>-3.3608026988804340362548828125</LongitudeDegrees>
            </Position>
            <AltitudeMeters>3158.60009765625</AltitudeMeters>
            <DistanceMeters>5689.755015865</DistanceMeters>
          </Trackpoint>
          <Trackpoint>
            <Time>2019-07-14T11:09:51.000Z</Time>
            <Position>
              <LatitudeDegrees>37.052291147410869598388671875</LatitudeDegrees>
              <LongitudeDegrees>-3.36076657287776470184326171875</LongitudeDegrees>
            </Position>
            <AltitudeMeters>3159</AltitudeMeters>
            <DistanceMeters>5695.1890153104</DistanceMeters>
          </Trackpoint>
          <Trackpoint>
            <Time>2019-07-14T11:10:06.000Z</Time>
            <Position>
              <LatitudeDegrees>37.0524193905293941497802734375</LatitudeDegrees>
              <LongitudeDegrees>-3.3606880344450473785400390625</LongitudeDegrees>
            </Position>
            <AltitudeMeters>3159.800048828125</AltitudeMeters>
            <DistanceMeters>5711.0763906997</DistanceMeters>
          </Trackpoint>
          <Trackpoint>
            <Time>2019-07-14T11:10:13.000Z</Time>
            <Position>
              <LatitudeDegrees>37.05247932113707065582275390625</LatitudeDegrees>
              <LongitudeDegrees>-3.3606370724737644195556640625</LongitudeDegrees>
            </Position>
            <AltitudeMeters>3160</AltitudeMeters>
            <DistanceMeters>5719.1374346824</DistanceMeters>
          </Trackpoint>
          <Trackpoint>
            <Time>2019-07-14T11:10:14.000Z</Time>
            <Position>
              <LatitudeDegrees>37.05248870886862277984619140625</LatitudeDegrees>
              <LongitudeDegrees>-3.36063061840832233428955078125</LongitudeDegrees>
            </Position>
            <AltitudeMeters>3160.199951171875</AltitudeMeters>
            <DistanceMeters>5720.3281160007</DistanceMeters>
          </Trackpoint>
          <Trackpoint>
            <Time>2019-07-14T11:10:15.000Z</Time>
            <Position>
              <LatitudeDegrees>37.05249642021954059600830078125</LatitudeDegrees>
              <LongitudeDegrees>-3.36062223650515079498291015625</LongitudeDegrees>
            </Position>
            <AltitudeMeters>3160</AltitudeMeters>
            <DistanceMeters>5721.4604899915</DistanceMeters>
          </Trackpoint>
          <Trackpoint>
            <Time>2019-07-14T11:10:27.000Z</Time>
            <Position>
              <LatitudeDegrees>37.05259264446794986724853515625</LatitudeDegrees>
              <LongitudeDegrees>-3.3605257607996463775634765625</LongitudeDegrees>
            </Position>
            <AltitudeMeters>3158.800048828125</AltitudeMeters>
            <DistanceMeters>5735.177292563</DistanceMeters>
          </Trackpoint>
          <Trackpoint>
            <Time>2019-07-14T11:10:28.000Z</Time>
            <Position>
              <LatitudeDegrees>37.05260085873305797576904296875</LatitudeDegrees>
              <LongitudeDegrees>-3.3605183847248554229736328125</LongitudeDegrees>
            </Position>
            <AltitudeMeters>3158.60009765625</AltitudeMeters>
            <DistanceMeters>5736.3016638105</DistanceMeters>
          </Trackpoint>
          <Trackpoint>
            <Time>2019-07-14T11:10:29.000Z</Time>
            <Position>
              <LatitudeDegrees>37.0526081509888172149658203125</LatitudeDegrees>
              <LongitudeDegrees>-3.36051218211650848388671875</LongitudeDegrees>
            </Position>
            <AltitudeMeters>3158.60009765625</AltitudeMeters>
            <DistanceMeters>5737.2846277872</DistanceMeters>
          </Trackpoint>
          <Trackpoint>
            <Time>2019-07-14T11:10:30.000Z</Time>
            <Position>
              <LatitudeDegrees>37.05261711962521076202392578125</LatitudeDegrees>
              <LongitudeDegrees>-3.36050991900265216827392578125</LongitudeDegrees>
            </Position>
            <AltitudeMeters>3158.60009765625</AltitudeMeters>
            <DistanceMeters>5738.2992354525</DistanceMeters>
          </Trackpoint>
          <Trackpoint>
            <Time>2019-07-14T11:10:31.000Z</Time>
            <Position>
              <LatitudeDegrees>37.05263002775609493255615234375</LatitudeDegrees>
              <LongitudeDegrees>-3.3605034649372100830078125</LongitudeDegrees>
            </Position>
            <AltitudeMeters>3158.39990234375</AltitudeMeters>
            <DistanceMeters>5739.8432368065</DistanceMeters>
          </Trackpoint>
          <Trackpoint>
            <Time>2019-07-14T11:10:32.000Z</Time>
            <Position>
              <LatitudeDegrees>37.05263857729732990264892578125</LatitudeDegrees>
              <LongitudeDegrees>-3.36049634031951427459716796875</LongitudeDegrees>
            </Position>
            <AltitudeMeters>3158.199951171875</AltitudeMeters>
            <DistanceMeters>5740.9875099751</DistanceMeters>
          </Trackpoint>
          <Trackpoint>
            <Time>2019-07-14T11:10:33.000Z</Time>
            <Position>
              <LatitudeDegrees>37.05264695920050144195556640625</LatitudeDegrees>
              <LongitudeDegrees>-3.360485695302486419677734375</LongitudeDegrees>
            </Position>
            <AltitudeMeters>3158</AltitudeMeters>
            <DistanceMeters>5742.3178839763</DistanceMeters>
          </Trackpoint>
          <Trackpoint>
            <Time>2019-07-14T11:10:34.000Z</Time>
            <Position>
              <LatitudeDegrees>37.0526547543704509735107421875</LatitudeDegrees>
              <LongitudeDegrees>-3.36047471500933170318603515625</LongitudeDegrees>
            </Position>
            <AltitudeMeters>3158</AltitudeMeters>
            <DistanceMeters>5743.6208246394</DistanceMeters>
          </Trackpoint>
          <Trackpoint>
            <Time>2019-07-14T11:10:35.000Z</Time>
            <Position>
              <LatitudeDegrees>37.05266296863555908203125</LatitudeDegrees>
              <LongitudeDegrees>-3.360466919839382171630859375</LongitudeDegrees>
            </Position>
            <AltitudeMeters>3158</AltitudeMeters>
            <DistanceMeters>5744.7690367978</DistanceMeters>
          </Trackpoint>
          <Trackpoint>
            <Time>2019-07-14T11:10:36.000Z</Time>
            <Position>
              <LatitudeDegrees>37.05267009325325489044189453125</LatitudeDegrees>
              <LongitudeDegrees>-3.36046096868813037872314453125</LongitudeDegrees>
            </Position>
            <AltitudeMeters>3157.800048828125</AltitudeMeters>
            <DistanceMeters>5745.7240434579</DistanceMeters>
          </Trackpoint>
          <Trackpoint>
            <Time>2019-07-14T11:10:37.000Z</Time>
            <Position>
              <LatitudeDegrees>37.05267839133739471435546875</LatitudeDegrees>
              <LongitudeDegrees>-3.3604593761265277862548828125</LongitudeDegrees>
            </Position>
            <AltitudeMeters>3157.60009765625</AltitudeMeters>
            <DistanceMeters>5746.6599480551</DistanceMeters>
          </Trackpoint>
          <Trackpoint>
            <Time>2019-07-14T11:10:38.000Z</Time>
            <Position>
              <LatitudeDegrees>37.05268652178347110748291015625</LatitudeDegrees>
              <LongitudeDegrees>-3.360456526279449462890625</LongitudeDegrees>
            </Position>
            <AltitudeMeters>3157.199951171875</AltitudeMeters>
            <DistanceMeters>5747.6006645329</DistanceMeters>
          </Trackpoint>
          <Trackpoint>
            <Time>2019-07-14T11:10:39.000Z</Time>
            <Position>
              <LatitudeDegrees>37.052696160972118377685546875</LatitudeDegrees>
              <LongitudeDegrees>-3.3604499883949756622314453125</LongitudeDegrees>
            </Position>
            <AltitudeMeters>3156.800048828125</AltitudeMeters>
            <DistanceMeters>5748.8249981025</DistanceMeters>
          </Trackpoint>
          <Trackpoint>
            <Time>2019-07-14T11:10:40.000Z</Time>
            <Position>
              <LatitudeDegrees>37.0527040399610996246337890625</LatitudeDegrees>
              <LongitudeDegrees>-3.36044101975858211517333984375</LongitudeDegrees>
            </Position>
            <AltitudeMeters>3156.39990234375</AltitudeMeters>
            <DistanceMeters>5750.0118813846</DistanceMeters>
          </Trackpoint>
          <Trackpoint>
            <Time>2019-07-14T11:10:41.000Z</Time>
            <Position>
              <LatitudeDegrees>37.052713595330715179443359375</LatitudeDegrees>
              <LongitudeDegrees>-3.36043029092252254486083984375</LongitudeDegrees>
            </Position>
            <AltitudeMeters>3155.800048828125</AltitudeMeters>
            <DistanceMeters>5751.4467533054</DistanceMeters>
          </Trackpoint>
          <Trackpoint>
            <Time>2019-07-14T11:10:42.000Z</Time>
            <Position>
              <LatitudeDegrees>37.05272390507161617279052734375</LatitudeDegrees>
              <LongitudeDegrees>-3.36042207665741443634033203125</LongitudeDegrees>
            </Position>
            <AltitudeMeters>3155.39990234375</AltitudeMeters>
            <DistanceMeters>5752.8106432377</DistanceMeters>
          </Trackpoint>
          <Trackpoint>
            <Time>2019-07-14T11:10:43.000Z</Time>
            <Position>
              <LatitudeDegrees>37.0527332089841365814208984375</LatitudeDegrees>
              <LongitudeDegrees>-3.36041428148746490478515625</LongitudeDegrees>
            </Position>
            <AltitudeMeters>3155</AltitudeMeters>
            <DistanceMeters>5754.056906913</DistanceMeters>
          </Trackpoint>
          <Trackpoint>
            <Time>2019-07-14T11:10:44.000Z</Time>
            <Position>
              <LatitudeDegrees>37.052739076316356658935546875</LatitudeDegrees>
              <LongitudeDegrees>-3.36040355265140533447265625</LongitudeDegrees>
            </Position>
            <AltitudeMeters>3154.800048828125</AltitudeMeters>
            <DistanceMeters>5755.2129567881</DistanceMeters>
          </Trackpoint>
          <Trackpoint>
            <Time>2019-07-14T11:10:45.000Z</Time>
            <Position>
              <LatitudeDegrees>37.05274251289665699005126953125</LatitudeDegrees>
              <LongitudeDegrees>-3.36039039306342601776123046875</LongitudeDegrees>
            </Position>
            <AltitudeMeters>3154.60009765625</AltitudeMeters>
            <DistanceMeters>5756.4446437786</DistanceMeters>
          </Trackpoint>
          <Trackpoint>
            <Time>2019-07-14T11:10:46.000Z</Time>
            <Position>
              <LatitudeDegrees>37.05274787731468677520751953125</LatitudeDegrees>
              <LongitudeDegrees>-3.36038050241768360137939453125</LongitudeDegrees>
            </Position>
            <AltitudeMeters>3154.39990234375</AltitudeMeters>
            <DistanceMeters>5757.5070747437</DistanceMeters>
          </Trackpoint>
          <Trackpoint>
            <Time>2019-07-14T11:10:47.000Z</Time>
            <Position>
              <LatitudeDegrees>37.05275642685592174530029296875</LatitudeDegrees>
              <LongitudeDegrees>-3.360371030867099761962890625</LongitudeDegrees>
            </Position>
            <AltitudeMeters>3154.39990234375</AltitudeMeters>
            <DistanceMeters>5758.7748892439</DistanceMeters>
          </Trackpoint>
          <Trackpoint>
            <Time>2019-07-14T11:10:48.000Z</Time>
            <Position>
              <LatitudeDegrees>37.0527664013206958770751953125</LatitudeDegrees>
              <LongitudeDegrees>-3.36035753600299358367919921875</LongitudeDegrees>
            </Position>
            <AltitudeMeters>3154.199951171875</AltitudeMeters>
            <DistanceMeters>5760.4097906561</DistanceMeters>
          </Trackpoint>
          <Trackpoint>
            <Time>2019-07-14T11:10:49.000Z</Time>
            <Position>
              <LatitudeDegrees>37.05277520231902599334716796875</LatitudeDegrees>
              <LongitudeDegrees>-3.3603478968143463134765625</LongitudeDegrees>
            </Position>
            <AltitudeMeters>3154.199951171875</AltitudeMeters>
            <DistanceMeters>5761.7057822527</DistanceMeters>
          </Trackpoint>
          <Trackpoint>
            <Time>2019-07-14T11:10:50.000Z</Time>
            <Position>
              <LatitudeDegrees>37.0527841709554195404052734375</LatitudeDegrees>
              <LongitudeDegrees>-3.3603353239595890045166015625</LongitudeDegrees>
            </Position>
            <AltitudeMeters>3154.199951171875</AltitudeMeters>
            <DistanceMeters>5763.2022644471</DistanceMeters>
          </Trackpoint>
          <Trackpoint>
            <Time>2019-07-14T11:10:51.000Z</Time>
            <Position>
              <LatitudeDegrees>37.05279280431568622589111328125</LatitudeDegrees>
              <LongitudeDegrees>-3.360324092209339141845703125</LongitudeDegrees>
            </Position>
            <AltitudeMeters>3154</AltitudeMeters>
            <DistanceMeters>5764.5858742931</DistanceMeters>
          </Trackpoint>
          <Trackpoint>
            <Time>2019-07-14T11:10:52.000Z</Time>
            <Position>
              <LatitudeDegrees>37.05280168913304805755615234375</LatitudeDegrees>
              <LongitudeDegrees>-3.36031436920166015625</LongitudeDegrees>
            </Position>
            <AltitudeMeters>3153.60009765625</AltitudeMeters>
            <DistanceMeters>5765.9026030721</DistanceMeters>
          </Trackpoint>
          <Trackpoint>
            <Time>2019-07-14T11:11:08.000Z</Time>
            <Position>
              <LatitudeDegrees>37.05292440019547939300537109375</LatitudeDegrees>
              <LongitudeDegrees>-3.3601304702460765838623046875</LongitudeDegrees>
            </Position>
            <AltitudeMeters>3150.199951171875</AltitudeMeters>
            <DistanceMeters>5787.1953736315</DistanceMeters>
          </Trackpoint>
          <Trackpoint>
            <Time>2019-07-14T11:11:09.000Z</Time>
            <Position>
              <LatitudeDegrees>37.05293714068830013275146484375</LatitudeDegrees>
              <LongitudeDegrees>-3.36012535728514194488525390625</LongitudeDegrees>
            </Position>
            <AltitudeMeters>3150.199951171875</AltitudeMeters>
            <DistanceMeters>5788.6858094085</DistanceMeters>
          </Trackpoint>
          <Trackpoint>
            <Time>2019-07-14T11:11:10.000Z</Time>
            <Position>
              <LatitudeDegrees>37.0529467798769474029541015625</LatitudeDegrees>
              <LongitudeDegrees>-3.36011915467679500579833984375</LongitudeDegrees>
            </Position>
            <AltitudeMeters>3150</AltitudeMeters>
            <DistanceMeters>5789.8953020227</DistanceMeters>
          </Trackpoint>
          <Trackpoint>
            <Time>2019-07-14T11:11:11.000Z</Time>
            <Position>
              <LatitudeDegrees>37.05295373685657978057861328125</LatitudeDegrees>
              <LongitudeDegrees>-3.3601118624210357666015625</LongitudeDegrees>
            </Position>
            <AltitudeMeters>3150</AltitudeMeters>
            <DistanceMeters>5790.9009702393</DistanceMeters>
          </Trackpoint>
          <Trackpoint>
            <Time>2019-07-14T11:11:12.000Z</Time>
            <Position>
              <LatitudeDegrees>37.05296161584556102752685546875</LatitudeDegrees>
              <LongitudeDegrees>-3.3601036481559276580810546875</LongitudeDegrees>
            </Position>
            <AltitudeMeters>3150</AltitudeMeters>
            <DistanceMeters>5792.0412908117</DistanceMeters>
          </Trackpoint>
          <Trackpoint>
            <Time>2019-07-14T11:11:13.000Z</Time>
            <Position>
              <LatitudeDegrees>37.052969746291637420654296875</LatitudeDegrees>
              <LongitudeDegrees>-3.3600962720811367034912109375</LongitudeDegrees>
            </Position>
            <AltitudeMeters>3150</AltitudeMeters>
            <DistanceMeters>5793.1576019463</DistanceMeters>
          </Trackpoint>
          <Trackpoint>
            <Time>2019-07-14T11:11:30.000Z</Time>
            <Position>
              <LatitudeDegrees>37.05309874378144741058349609375</LatitudeDegrees>
              <LongitudeDegrees>-3.35994481109082698822021484375</LongitudeDegrees>
            </Position>
            <AltitudeMeters>3150.199951171875</AltitudeMeters>
            <DistanceMeters>5812.8338693123</DistanceMeters>
          </Trackpoint>
          <Trackpoint>
            <Time>2019-07-14T11:11:50.000Z</Time>
            <Position>
              <LatitudeDegrees>37.05323168076574802398681640625</LatitudeDegrees>
              <LongitudeDegrees>-3.3597945235669612884521484375</LongitudeDegrees>
            </Position>
            <AltitudeMeters>3149.800048828125</AltitudeMeters>
            <DistanceMeters>5832.7623103453</DistanceMeters>
          </Trackpoint>
          <Trackpoint>
            <Time>2019-07-14T11:12:08.000Z</Time>
            <Position>
              <LatitudeDegrees>37.05336780287325382232666015625</LatitudeDegrees>
              <LongitudeDegrees>-3.359616659581661224365234375</LongitudeDegrees>
            </Position>
            <AltitudeMeters>3149</AltitudeMeters>
            <DistanceMeters>5854.6518949981</DistanceMeters>
          </Trackpoint>
          <Trackpoint>
            <Time>2019-07-14T11:12:24.000Z</Time>
            <Position>
              <LatitudeDegrees>37.053514234721660614013671875</LatitudeDegrees>
              <LongitudeDegrees>-3.35943133570253849029541015625</LongitudeDegrees>
            </Position>
            <AltitudeMeters>3148.39990234375</AltitudeMeters>
            <DistanceMeters>5877.8171783513</DistanceMeters>
          </Trackpoint>
          <Trackpoint>
            <Time>2019-07-14T11:12:28.000Z</Time>
            <Position>
              <LatitudeDegrees>37.05354147590696811676025390625</LatitudeDegrees>
              <LongitudeDegrees>-3.3593982271850109100341796875</LongitudeDegrees>
            </Position>
            <AltitudeMeters>3148</AltitudeMeters>
            <DistanceMeters>5882.0413269108</DistanceMeters>
          </Trackpoint>
          <Trackpoint>
            <Time>2019-07-14T11:12:29.000Z</Time>
            <Position>
              <LatitudeDegrees>37.0535494387149810791015625</LatitudeDegrees>
              <LongitudeDegrees>-3.359394706785678863525390625</LongitudeDegrees>
            </Position>
            <AltitudeMeters>3148</AltitudeMeters>
            <DistanceMeters>5882.9820433886</DistanceMeters>
          </Trackpoint>
          <Trackpoint>
            <Time>2019-07-14T11:12:30.000Z</Time>
            <Position>
              <LatitudeDegrees>37.05355723388493061065673828125</LatitudeDegrees>
              <LongitudeDegrees>-3.3593901805579662322998046875</LongitudeDegrees>
            </Position>
            <AltitudeMeters>3148</AltitudeMeters>
            <DistanceMeters>5883.9417661597</DistanceMeters>
          </Trackpoint>
          <Trackpoint>
            <Time>2019-07-14T11:12:31.000Z</Time>
            <Position>
              <LatitudeDegrees>37.05356343649327754974365234375</LatitudeDegrees>
              <LongitudeDegrees>-3.359383307397365570068359375</LongitudeDegrees>
            </Position>
            <AltitudeMeters>3148</AltitudeMeters>
            <DistanceMeters>5884.863084338</DistanceMeters>
          </Trackpoint>
          <Trackpoint>
            <Time>2019-07-14T11:12:32.000Z</Time>
            <Position>
              <LatitudeDegrees>37.05357156693935394287109375</LatitudeDegrees>
              <LongitudeDegrees>-3.3593750931322574615478515625</LongitudeDegrees>
            </Position>
            <AltitudeMeters>3148</AltitudeMeters>
            <DistanceMeters>5886.0269191487</DistanceMeters>
          </Trackpoint>
          <Trackpoint>
            <Time>2019-07-14T11:12:33.000Z</Time>
            <Position>
              <LatitudeDegrees>37.05357969738543033599853515625</LatitudeDegrees>
              <LongitudeDegrees>-3.3593673817813396453857421875</LongitudeDegrees>
            </Position>
            <AltitudeMeters>3148</AltitudeMeters>
            <DistanceMeters>5887.1592931395</DistanceMeters>
          </Trackpoint>
          <Trackpoint>
            <Time>2019-07-14T11:12:34.000Z</Time>
            <Position>
              <LatitudeDegrees>37.05358740873634815216064453125</LatitudeDegrees>
              <LongitudeDegrees>-3.35936017334461212158203125</LongitudeDegrees>
            </Position>
            <AltitudeMeters>3147.800048828125</AltitudeMeters>
            <DistanceMeters>5888.2259653628</DistanceMeters>
          </Trackpoint>
          <Trackpoint>
            <Time>2019-07-14T11:12:46.000Z</Time>
            <Position>
              <LatitudeDegrees>37.05368480645120143890380859375</LatitudeDegrees>
              <LongitudeDegrees>-3.35923276841640472412109375</LongitudeDegrees>
            </Position>
            <AltitudeMeters>3147.39990234375</AltitudeMeters>
            <DistanceMeters>5903.8970201763</DistanceMeters>
          </Trackpoint>
          <Trackpoint>
            <Time>2019-07-14T11:12:47.000Z</Time>
            <Position>
              <LatitudeDegrees>37.05369100905954837799072265625</LatitudeDegrees>
              <LongitudeDegrees>-3.35922262631356716156005859375</LongitudeDegrees>
            </Position>
            <AltitudeMeters>3147.39990234375</AltitudeMeters>
            <DistanceMeters>5905.0333744043</DistanceMeters>
          </Trackpoint>
          <Trackpoint>
            <Time>2019-07-14T11:13:04.000Z</Time>
            <Position>
              <LatitudeDegrees>37.053817994892597198486328125</LatitudeDegrees>
              <LongitudeDegrees>-3.35904057137668132781982421875</LongitudeDegrees>
            </Position>
            <AltitudeMeters>3146.800048828125</AltitudeMeters>
            <DistanceMeters>5926.5106732315</DistanceMeters>
          </Trackpoint>
          <Trackpoint>
            <Time>2019-07-14T11:13:07.000Z</Time>
            <Position>
              <LatitudeDegrees>37.05383777618408203125</LatitudeDegrees>
              <LongitudeDegrees>-3.35900746285915374755859375</LongitudeDegrees>
            </Position>
            <AltitudeMeters>3147</AltitudeMeters>
            <DistanceMeters>5930.1849029853</DistanceMeters>
          </Trackpoint>
          <Trackpoint>
            <Time>2019-07-14T11:13:08.000Z</Time>
            <Position>
              <LatitudeDegrees>37.0538433082401752471923828125</LatitudeDegrees>
              <LongitudeDegrees>-3.3589948900043964385986328125</LongitudeDegrees>
            </Position>
            <AltitudeMeters>3147</AltitudeMeters>
            <DistanceMeters>5931.4598201433</DistanceMeters>
          </Trackpoint>
          <Trackpoint>
            <Time>2019-07-14T11:13:09.000Z</Time>
            <Position>
              <LatitudeDegrees>37.05385160632431507110595703125</LatitudeDegrees>
              <LongitudeDegrees>-3.35898307152092456817626953125</LongitudeDegrees>
            </Position>
            <AltitudeMeters>3147</AltitudeMeters>
            <DistanceMeters>5932.8564219162</DistanceMeters>
          </Trackpoint>
          <Trackpoint>
            <Time>2019-07-14T11:13:10.000Z</Time>
            <Position>
              <LatitudeDegrees>37.05385814420878887176513671875</LatitudeDegrees>
              <LongitudeDegrees>-3.3589704148471355438232421875</LongitudeDegrees>
            </Position>
            <AltitudeMeters>3147</AltitudeMeters>
            <DistanceMeters>5934.2003025987</DistanceMeters>
          </Trackpoint>
          <Trackpoint>
            <Time>2019-07-14T11:13:11.000Z</Time>
            <Position>
              <LatitudeDegrees>37.053865604102611541748046875</LatitudeDegrees>
              <LongitudeDegrees>-3.358957506716251373291015625</LongitudeDegrees>
            </Position>
            <AltitudeMeters>3147.199951171875</AltitudeMeters>
            <DistanceMeters>5935.6161687543</DistanceMeters>
          </Trackpoint>
          <Trackpoint>
            <Time>2019-07-14T11:13:12.000Z</Time>
            <Position>
              <LatitudeDegrees>37.0538738183677196502685546875</LatitudeDegrees>
              <LongitudeDegrees>-3.35894635878503322601318359375</LongitudeDegrees>
            </Position>
            <AltitudeMeters>3147.199951171875</AltitudeMeters>
            <DistanceMeters>5936.9600494368</DistanceMeters>
          </Trackpoint>
          <Trackpoint>
            <Time>2019-07-14T11:13:13.000Z</Time>
            <Position>
              <LatitudeDegrees>37.0538805238902568817138671875</LatitudeDegrees>
              <LongitudeDegrees>-3.35893864743411540985107421875</LongitudeDegrees>
            </Position>
            <AltitudeMeters>3147.199951171875</AltitudeMeters>
            <DistanceMeters>5937.9746571021</DistanceMeters>
          </Trackpoint>
          <Trackpoint>
            <Time>2019-07-14T11:13:30.000Z</Time>
            <Position>
              <LatitudeDegrees>37.0539076812565326690673828125</LatitudeDegrees>
              <LongitudeDegrees>-3.35887108929455280303955078125</LongitudeDegrees>
            </Position>
            <AltitudeMeters>3147.39990234375</AltitudeMeters>
            <DistanceMeters>5944.6940605146</DistanceMeters>
          </Trackpoint>
          <Trackpoint>
            <Time>2019-07-14T11:13:31.000Z</Time>
            <Position>
              <LatitudeDegrees>37.0539147220551967620849609375</LatitudeDegrees>
              <LongitudeDegrees>-3.35886086337268352508544921875</LongitudeDegrees>
            </Position>
            <AltitudeMeters>3147.39990234375</AltitudeMeters>
            <DistanceMeters>5945.8885277926</DistanceMeters>
          </Trackpoint>
          <Trackpoint>
            <Time>2019-07-14T11:13:50.000Z</Time>
            <Position>
              <LatitudeDegrees>37.054045312106609344482421875</LatitudeDegrees>
              <LongitudeDegrees>-3.358681909739971160888671875</LongitudeDegrees>
            </Position>
            <AltitudeMeters>3146.39990234375</AltitudeMeters>
            <DistanceMeters>5967.4275437261</DistanceMeters>
          </Trackpoint>
          <Trackpoint>
            <Time>2019-07-14T11:14:04.000Z</Time>
            <Position>
              <LatitudeDegrees>37.054140865802764892578125</LatitudeDegrees>
              <LongitudeDegrees>-3.35854821838438510894775390625</LongitudeDegrees>
            </Position>
            <AltitudeMeters>3144.800048828125</AltitudeMeters>
            <DistanceMeters>5983.368823828</DistanceMeters>
          </Trackpoint>
          <Trackpoint>
            <Time>2019-07-14T11:14:05.000Z</Time>
            <Position>
              <LatitudeDegrees>37.05415335483849048614501953125</LatitudeDegrees>
              <LongitudeDegrees>-3.35853648371994495391845703125</LongitudeDegrees>
            </Position>
            <AltitudeMeters>3144.60009765625</AltitudeMeters>
            <DistanceMeters>5985.1055004048</DistanceMeters>
          </Trackpoint>
          <Trackpoint>
            <Time>2019-07-14T11:14:22.000Z</Time>
            <Position>
              <LatitudeDegrees>37.05428645946085453033447265625</LatitudeDegrees>
              <LongitudeDegrees>-3.35832224227488040924072265625</LongitudeDegrees>
            </Position>
            <AltitudeMeters>3143.39990234375</AltitudeMeters>
            <DistanceMeters>6009.2224492946</DistanceMeters>
          </Trackpoint>
          <Trackpoint>
            <Time>2019-07-14T11:14:40.000Z</Time>
            <Position>
              <LatitudeDegrees>37.0543871261179447174072265625</LatitudeDegrees>
              <LongitudeDegrees>-3.35811562836170196533203125</LongitudeDegrees>
            </Position>
            <AltitudeMeters>3142.39990234375</AltitudeMeters>
            <DistanceMeters>6030.7249601732</DistanceMeters>
          </Trackpoint>
          <Trackpoint>
            <Time>2019-07-14T11:14:58.000Z</Time>
            <Position>
              <LatitudeDegrees>37.054492570459842681884765625</LatitudeDegrees>
              <LongitudeDegrees>-3.35791421122848987579345703125</LongitudeDegrees>
            </Position>
            <AltitudeMeters>3141.800048828125</AltitudeMeters>
            <DistanceMeters>6052.1218028307</DistanceMeters>
          </Trackpoint>
          <Trackpoint>
            <Time>2019-07-14T11:15:15.000Z</Time>
            <Position>
              <LatitudeDegrees>37.054613269865512847900390625</LatitudeDegrees>
              <LongitudeDegrees>-3.35772268474102020263671875</LongitudeDegrees>
            </Position>
            <AltitudeMeters>3141.39990234375</AltitudeMeters>
            <DistanceMeters>6073.7991439497</DistanceMeters>
          </Trackpoint>
          <Trackpoint>
            <Time>2019-07-14T11:15:26.000Z</Time>
            <Position>
              <LatitudeDegrees>37.05466280691325664520263671875</LatitudeDegrees>
              <LongitudeDegrees>-3.3575744926929473876953125</LongitudeDegrees>
            </Position>
            <AltitudeMeters>3141</AltitudeMeters>
            <DistanceMeters>6088.0708784018</DistanceMeters>
          </Trackpoint>
          <Trackpoint>
            <Time>2019-07-14T11:15:27.000Z</Time>
            <Position>
              <LatitudeDegrees>37.05466364510357379913330078125</LatitudeDegrees>
              <LongitudeDegrees>-3.35755865089595317840576171875</LongitudeDegrees>
            </Position>
            <AltitudeMeters>3141.199951171875</AltitudeMeters>
            <DistanceMeters>6089.4803523525</DistanceMeters>
          </Trackpoint>
          <Trackpoint>
            <Time>2019-07-14T11:15:28.000Z</Time>
            <Position>
              <LatitudeDegrees>37.0546664111316204071044921875</LatitudeDegrees>
              <LongitudeDegrees>-3.35754456929862499237060546875</LongitudeDegrees>
            </Position>
            <AltitudeMeters>3141.199951171875</AltitudeMeters>
            <DistanceMeters>6090.7658499173</DistanceMeters>
          </Trackpoint>
          <Trackpoint>
            <Time>2019-07-14T11:15:30.000Z</Time>
            <Position>
              <LatitudeDegrees>37.05467001534998416900634765625</LatitudeDegrees>
              <LongitudeDegrees>-3.35751908831298351287841796875</LongitudeDegrees>
            </Position>
            <AltitudeMeters>3141.199951171875</AltitudeMeters>
            <DistanceMeters>6093.0662031067</DistanceMeters>
          </Trackpoint>
          <Trackpoint>
            <Time>2019-07-14T11:15:31.000Z</Time>
            <Position>
              <LatitudeDegrees>37.0546732842922210693359375</LatitudeDegrees>
              <LongitudeDegrees>-3.357506431639194488525390625</LongitudeDegrees>
            </Position>
            <AltitudeMeters>3141.199951171875</AltitudeMeters>
            <DistanceMeters>6094.2530863888</DistanceMeters>
          </Trackpoint>
          <Trackpoint>
            <Time>2019-07-14T11:15:32.000Z</Time>
            <Position>
              <LatitudeDegrees>37.05467755906283855438232421875</LatitudeDegrees>
              <LongitudeDegrees>-3.35749327205121517181396484375</LongitudeDegrees>
            </Position>
            <AltitudeMeters>3141.199951171875</AltitudeMeters>
            <DistanceMeters>6095.5173345965</DistanceMeters>
          </Trackpoint>
          <Trackpoint>
            <Time>2019-07-14T11:15:33.000Z</Time>
            <Position>
              <LatitudeDegrees>37.054676972329616546630859375</LatitudeDegrees>
              <LongitudeDegrees>-3.3574817888438701629638671875</LongitudeDegrees>
            </Position>
            <AltitudeMeters>3141</AltitudeMeters>
            <DistanceMeters>6096.5319422618</DistanceMeters>
          </Trackpoint>
          <Trackpoint>
            <Time>2019-07-14T11:15:41.000Z</Time>
            <Position>
              <LatitudeDegrees>37.05471142195165157318115234375</LatitudeDegrees>
              <LongitudeDegrees>-3.35737072862684726715087890625</LongitudeDegrees>
            </Position>
            <AltitudeMeters>3141.60009765625</AltitudeMeters>
            <DistanceMeters>6107.1153759301</DistanceMeters>
          </Trackpoint>
          <Trackpoint>
            <Time>2019-07-14T11:15:42.000Z</Time>
            <Position>
              <LatitudeDegrees>37.05471812747418880462646484375</LatitudeDegrees>
              <LongitudeDegrees>-3.3573567308485507965087890625</LongitudeDegrees>
            </Position>
            <AltitudeMeters>3141.800048828125</AltitudeMeters>
            <DistanceMeters>6108.5627797214</DistanceMeters>
          </Trackpoint>
          <Trackpoint>
            <Time>2019-07-14T11:15:43.000Z</Time>
            <Position>
              <LatitudeDegrees>37.0547230727970600128173828125</LatitudeDegrees>
              <LongitudeDegrees>-3.3573436550796031951904296875</LongitudeDegrees>
            </Position>
            <AltitudeMeters>3141.800048828125</AltitudeMeters>
            <DistanceMeters>6109.8482772862</DistanceMeters>
          </Trackpoint>
          <Trackpoint>
            <Time>2019-07-14T11:15:44.000Z</Time>
            <Position>
              <LatitudeDegrees>37.05472902394831180572509765625</LatitudeDegrees>
              <LongitudeDegrees>-3.35732663981616497039794921875</LongitudeDegrees>
            </Position>
            <AltitudeMeters>3141.800048828125</AltitudeMeters>
            <DistanceMeters>6111.4969291627</DistanceMeters>
          </Trackpoint>
          <Trackpoint>
            <Time>2019-07-14T11:15:45.000Z</Time>
            <Position>
              <LatitudeDegrees>37.054736316204071044921875</LatitudeDegrees>
              <LongitudeDegrees>-3.35730970837175846099853515625</LongitudeDegrees>
            </Position>
            <AltitudeMeters>3141.39990234375</AltitudeMeters>
            <DistanceMeters>6113.2047683505</DistanceMeters>
          </Trackpoint>
          <Trackpoint>
            <Time>2019-07-14T11:15:46.000Z</Time>
            <Position>
              <LatitudeDegrees>37.05474830232560634613037109375</LatitudeDegrees>
              <LongitudeDegrees>-3.35729294456541538238525390625</LongitudeDegrees>
            </Position>
            <AltitudeMeters>3141.199951171875</AltitudeMeters>
            <DistanceMeters>6115.204849315</DistanceMeters>
          </Trackpoint>
          <Trackpoint>
            <Time>2019-07-14T11:15:47.000Z</Time>
            <Position>
              <LatitudeDegrees>37.0547569356858730316162109375</LatitudeDegrees>
              <LongitudeDegrees>-3.3572759293019771575927734375</LongitudeDegrees>
            </Position>
            <AltitudeMeters>3141</AltitudeMeters>
            <DistanceMeters>6116.9927662765</DistanceMeters>
          </Trackpoint>
          <Trackpoint>
            <Time>2019-07-14T11:15:48.000Z</Time>
            <Position>
              <LatitudeDegrees>37.054760791361331939697265625</LatitudeDegrees>
              <LongitudeDegrees>-3.3572606742382049560546875</LongitudeDegrees>
            </Position>
            <AltitudeMeters>3141</AltitudeMeters>
            <DistanceMeters>6118.4118177368</DistanceMeters>
          </Trackpoint>
          <Trackpoint>
            <Time>2019-07-14T11:15:49.000Z</Time>
            <Position>
              <LatitudeDegrees>37.05476322211325168609619140625</LatitudeDegrees>
              <LongitudeDegrees>-3.35724600590765476226806640625</LongitudeDegrees>
            </Position>
            <AltitudeMeters>3140.800048828125</AltitudeMeters>
            <DistanceMeters>6119.742191738</DistanceMeters>
          </Trackpoint>
          <Trackpoint>
            <Time>2019-07-14T11:15:50.000Z</Time>
            <Position>
              <LatitudeDegrees>37.0547646470367908477783203125</LatitudeDegrees>
              <LongitudeDegrees>-3.3572340197861194610595703125</LongitudeDegrees>
            </Position>
            <AltitudeMeters>3140.60009765625</AltitudeMeters>
            <DistanceMeters>6120.8130884222</DistanceMeters>
          </Trackpoint>
          <Trackpoint>
            <Time>2019-07-14T11:16:08.000Z</Time>
            <Position>
              <LatitudeDegrees>37.05483547411859035491943359375</LatitudeDegrees>
              <LongitudeDegrees>-3.35700812749564647674560546875</LongitudeDegrees>
            </Position>
            <AltitudeMeters>3140.39990234375</AltitudeMeters>
            <DistanceMeters>6142.3709620248</DistanceMeters>
          </Trackpoint>
          <Trackpoint>
            <Time>2019-07-14T11:16:09.000Z</Time>
            <Position>
              <LatitudeDegrees>37.0548377372324466705322265625</LatitudeDegrees>
              <LongitudeDegrees>-3.35699714720249176025390625</LongitudeDegrees>
            </Position>
            <AltitudeMeters>3140.39990234375</AltitudeMeters>
            <DistanceMeters>6143.3766302413</DistanceMeters>
          </Trackpoint>
          <Trackpoint>
            <Time>2019-07-14T11:16:27.000Z</Time>
            <Position>
              <LatitudeDegrees>37.05486263148486614227294921875</LatitudeDegrees>
              <LongitudeDegrees>-3.35675415582954883575439453125</LongitudeDegrees>
            </Position>
            <AltitudeMeters>3138.800048828125</AltitudeMeters>
            <DistanceMeters>6165.1375403492</DistanceMeters>
          </Trackpoint>
          <Trackpoint>
            <Time>2019-07-14T11:16:30.000Z</Time>
            <Position>
              <LatitudeDegrees>37.0548702590167522430419921875</LatitudeDegrees>
              <LongitudeDegrees>-3.35671207867562770843505859375</LongitudeDegrees>
            </Position>
            <AltitudeMeters>3138.800048828125</AltitudeMeters>
            <DistanceMeters>6168.9693681504</DistanceMeters>
          </Trackpoint>
          <Trackpoint>
            <Time>2019-07-14T11:16:31.000Z</Time>
            <Position>
              <LatitudeDegrees>37.05487243831157684326171875</LatitudeDegrees>
              <LongitudeDegrees>-3.3566959016025066375732421875</LongitudeDegrees>
            </Position>
            <AltitudeMeters>3138.800048828125</AltitudeMeters>
            <DistanceMeters>6170.4291962364</DistanceMeters>
          </Trackpoint>
          <Trackpoint>
            <Time>2019-07-14T11:16:32.000Z</Time>
            <Position>
              <LatitudeDegrees>37.05487109720706939697265625</LatitudeDegrees>
              <LongitudeDegrees>-3.35667821578681468963623046875</LongitudeDegrees>
            </Position>
            <AltitudeMeters>3138.800048828125</AltitudeMeters>
            <DistanceMeters>6172.0078985828</DistanceMeters>
          </Trackpoint>
          <Trackpoint>
            <Time>2019-07-14T11:16:34.000Z</Time>
            <Position>
              <LatitudeDegrees>37.05486833117902278900146484375</LatitudeDegrees>
              <LongitudeDegrees>-3.3566479571163654327392578125</LongitudeDegrees>
            </Position>
            <AltitudeMeters>3138.800048828125</AltitudeMeters>
            <DistanceMeters>6174.7140752208</DistanceMeters>
          </Trackpoint>
          <Trackpoint>
            <Time>2019-07-14T11:16:35.000Z</Time>
            <Position>
              <LatitudeDegrees>37.05486782826483249664306640625</LatitudeDegrees>
              <LongitudeDegrees>-3.3566342107951641082763671875</LongitudeDegrees>
            </Position>
            <AltitudeMeters>3138.800048828125</AltitudeMeters>
            <DistanceMeters>6175.9347154681</DistanceMeters>
          </Trackpoint>
          <Trackpoint>
            <Time>2019-07-14T11:16:41.000Z</Time>
            <Position>
              <LatitudeDegrees>37.0548783056437969207763671875</LatitudeDegrees>
              <LongitudeDegrees>-3.3565584383904933929443359375</LongitudeDegrees>
            </Position>
            <AltitudeMeters>3138.199951171875</AltitudeMeters>
            <DistanceMeters>6182.7654112588</DistanceMeters>
          </Trackpoint>
          <Trackpoint>
            <Time>2019-07-14T11:16:42.000Z</Time>
            <Position>
              <LatitudeDegrees>37.0548846758902072906494140625</LatitudeDegrees>
              <LongitudeDegrees>-3.35654578171670436859130859375</LongitudeDegrees>
            </Position>
            <AltitudeMeters>3138.199951171875</AltitudeMeters>
            <DistanceMeters>6184.0923871089</DistanceMeters>
          </Trackpoint>
          <Trackpoint>
            <Time>2019-07-14T11:16:59.000Z</Time>
            <Position>
              <LatitudeDegrees>37.05495164729654788970947265625</LatitudeDegrees>
              <LongitudeDegrees>-3.35629952140152454376220703125</LongitudeDegrees>
            </Position>
            <AltitudeMeters>3137.60009765625</AltitudeMeters>
            <DistanceMeters>6207.2016649188</DistanceMeters>
          </Trackpoint>
          <Trackpoint>
            <Time>2019-07-14T11:17:01.000Z</Time>
            <Position>
              <LatitudeDegrees>37.05495600588619709014892578125</LatitudeDegrees>
              <LongitudeDegrees>-3.35626951418817043304443359375</LongitudeDegrees>
            </Position>
            <AltitudeMeters>3137.60009765625</AltitudeMeters>
            <DistanceMeters>6209.9095094624</DistanceMeters>
          </Trackpoint>
          <Trackpoint>
            <Time>2019-07-14T11:17:04.000Z</Time>
            <Position>
              <LatitudeDegrees>37.054957263171672821044921875</LatitudeDegrees>
              <LongitudeDegrees>-3.35623045451939105987548828125</LongitudeDegrees>
            </Position>
            <AltitudeMeters>3137.199951171875</AltitudeMeters>
            <DistanceMeters>6213.381562465</DistanceMeters>
          </Trackpoint>
          <Trackpoint>
            <Time>2019-07-14T11:17:05.000Z</Time>
            <Position>
              <LatitudeDegrees>37.0549567602574825286865234375</LatitudeDegrees>
              <LongitudeDegrees>-3.3562198095023632049560546875</LongitudeDegrees>
            </Position>
            <AltitudeMeters>3137.199951171875</AltitudeMeters>
            <DistanceMeters>6214.3318296087</DistanceMeters>
          </Trackpoint>
          <Trackpoint>
            <Time>2019-07-14T11:17:24.000Z</Time>
            <Position>
              <LatitudeDegrees>37.055002860724925994873046875</LatitudeDegrees>
              <LongitudeDegrees>-3.35595435462892055511474609375</LongitudeDegrees>
            </Position>
            <AltitudeMeters>3136.800048828125</AltitudeMeters>
            <DistanceMeters>6238.4626283815</DistanceMeters>
          </Trackpoint>
          <Trackpoint>
            <Time>2019-07-14T11:17:31.000Z</Time>
            <Position>
              <LatitudeDegrees>37.05502574332058429718017578125</LatitudeDegrees>
              <LongitudeDegrees>-3.35585645399987697601318359375</LongitudeDegrees>
            </Position>
            <AltitudeMeters>3136.60009765625</AltitudeMeters>
            <DistanceMeters>6247.5236137047</DistanceMeters>
          </Trackpoint>
          <Trackpoint>
            <Time>2019-07-14T11:17:32.000Z</Time>
            <Position>
              <LatitudeDegrees>37.055028341710567474365234375</LatitudeDegrees>
              <LongitudeDegrees>-3.3558419533073902130126953125</LongitudeDegrees>
            </Position>
            <AltitudeMeters>3136.60009765625</AltitudeMeters>
            <DistanceMeters>6248.8403424837</DistanceMeters>
          </Trackpoint>
          <Trackpoint>
            <Time>2019-07-14T11:17:33.000Z</Time>
            <Position>
              <LatitudeDegrees>37.0550318621098995208740234375</LatitudeDegrees>
              <LongitudeDegrees>-3.35582829080522060394287109375</LongitudeDegrees>
            </Position>
            <AltitudeMeters>3136.800048828125</AltitudeMeters>
            <DistanceMeters>6250.1152596417</DistanceMeters>
          </Trackpoint>
          <Trackpoint>
            <Time>2019-07-14T11:17:48.000Z</Time>
            <Position>
              <LatitudeDegrees>37.05512280575931072235107421875</LatitudeDegrees>
              <LongitudeDegrees>-3.355637602508068084716796875</LongitudeDegrees>
            </Position>
            <AltitudeMeters>3136.199951171875</AltitudeMeters>
            <DistanceMeters>6269.8474373246</DistanceMeters>
          </Trackpoint>
          <Trackpoint>
            <Time>2019-07-14T11:17:51.000Z</Time>
            <Position>
              <LatitudeDegrees>37.05514107830822467803955078125</LatitudeDegrees>
              <LongitudeDegrees>-3.3556039072573184967041015625</LongitudeDegrees>
            </Position>
            <AltitudeMeters>3135.60009765625</AltitudeMeters>
            <DistanceMeters>6273.4659468028</DistanceMeters>
          </Trackpoint>
          <Trackpoint>
            <Time>2019-07-14T11:17:52.000Z</Time>
            <Position>
              <LatitudeDegrees>37.05514476634562015533447265625</LatitudeDegrees>
              <LongitudeDegrees>-3.35559125058352947235107421875</LongitudeDegrees>
            </Position>
            <AltitudeMeters>3135.60009765625</AltitudeMeters>
            <DistanceMeters>6274.6604140808</DistanceMeters>
          </Trackpoint>
          <Trackpoint>
            <Time>2019-07-14T11:17:53.000Z</Time>
            <Position>
              <LatitudeDegrees>37.05515147186815738677978515625</LatitudeDegrees>
              <LongitudeDegrees>-3.355580605566501617431640625</LongitudeDegrees>
            </Position>
            <AltitudeMeters>3135.39990234375</AltitudeMeters>
            <DistanceMeters>6275.8624175047</DistanceMeters>
          </Trackpoint>
          <Trackpoint>
            <Time>2019-07-14T11:17:54.000Z</Time>
            <Position>
              <LatitudeDegrees>37.05515800975263118743896484375</LatitudeDegrees>
              <LongitudeDegrees>-3.35557163693010807037353515625</LongitudeDegrees>
            </Position>
            <AltitudeMeters>3135.199951171875</AltitudeMeters>
            <DistanceMeters>6276.9375220507</DistanceMeters>
          </Trackpoint>
          <Trackpoint>
            <Time>2019-07-14T11:17:55.000Z</Time>
            <Position>
              <LatitudeDegrees>37.05516471527516841888427734375</LatitudeDegrees>
              <LongitudeDegrees>-3.35556107573211193084716796875</LongitudeDegrees>
            </Position>
            <AltitudeMeters>3135</AltitudeMeters>
            <DistanceMeters>6278.1319893287</DistanceMeters>
          </Trackpoint>
          <Trackpoint>
            <Time>2019-07-14T11:17:56.000Z</Time>
            <Position>
              <LatitudeDegrees>37.05517225898802280426025390625</LatitudeDegrees>
              <LongitudeDegrees>-3.35554665885865688323974609375</LongitudeDegrees>
            </Position>
            <AltitudeMeters>3135</AltitudeMeters>
            <DistanceMeters>6279.6642490571</DistanceMeters>
          </Trackpoint>
          <Trackpoint>
            <Time>2019-07-14T11:17:57.000Z</Time>
            <Position>
              <LatitudeDegrees>37.05517577938735485076904296875</LatitudeDegrees>
              <LongitudeDegrees>-3.35552955977618694305419921875</LongitudeDegrees>
            </Position>
            <AltitudeMeters>3135</AltitudeMeters>
            <DistanceMeters>6281.2285862063</DistanceMeters>
          </Trackpoint>
          <Trackpoint>
            <Time>2019-07-14T11:17:58.000Z</Time>
            <Position>
              <LatitudeDegrees>37.055181227624416351318359375</LatitudeDegrees>
              <LongitudeDegrees>-3.35551531054079532623291015625</LongitudeDegrees>
            </Position>
            <AltitudeMeters>3134.60009765625</AltitudeMeters>
            <DistanceMeters>6282.63163883</DistanceMeters>
          </Trackpoint>
          <Trackpoint>
            <Time>2019-07-14T11:17:59.000Z</Time>
            <Position>
              <LatitudeDegrees>37.05519271083176136016845703125</LatitudeDegrees>
              <LongitudeDegrees>-3.35550257004797458648681640625</LongitudeDegrees>
            </Position>
            <AltitudeMeters>3134.60009765625</AltitudeMeters>
            <DistanceMeters>6284.3368322545</DistanceMeters>
          </Trackpoint>
          <Trackpoint>
            <Time>2019-07-14T11:18:00.000Z</Time>
            <Position>
              <LatitudeDegrees>37.055209390819072723388671875</LatitudeDegrees>
              <LongitudeDegrees>-3.35548974573612213134765625</LongitudeDegrees>
            </Position>
            <AltitudeMeters>3134.60009765625</AltitudeMeters>
            <DistanceMeters>6286.5162404791</DistanceMeters>
          </Trackpoint>
          <Trackpoint>
            <Time>2019-07-14T11:18:01.000Z</Time>
            <Position>
              <LatitudeDegrees>37.0552196167409420013427734375</LatitudeDegrees>
              <LongitudeDegrees>-3.35548035800457000732421875</LongitudeDegrees>
            </Position>
            <AltitudeMeters>3134.60009765625</AltitudeMeters>
            <DistanceMeters>6287.9289141477</DistanceMeters>
          </Trackpoint>
          <Trackpoint>
            <Time>2019-07-14T11:18:02.000Z</Time>
            <Position>
              <LatitudeDegrees>37.0552273280918598175048828125</LatitudeDegrees>
              <LongitudeDegrees>-3.35547004826366901397705078125</LongitudeDegrees>
            </Position>
            <AltitudeMeters>3134.60009765625</AltitudeMeters>
            <DistanceMeters>6289.1824026005</DistanceMeters>
          </Trackpoint>
          <Trackpoint>
            <Time>2019-07-14T11:18:03.000Z</Time>
            <Position>
              <LatitudeDegrees>37.05523361451923847198486328125</LatitudeDegrees>
              <LongitudeDegrees>-3.35545931942760944366455078125</LongitudeDegrees>
            </Position>
            <AltitudeMeters>3134.60009765625</AltitudeMeters>
            <DistanceMeters>6290.3616531135</DistanceMeters>
          </Trackpoint>
          <Trackpoint>
            <Time>2019-07-14T11:18:20.000Z</Time>
            <Position>
              <LatitudeDegrees>37.05530603416264057159423828125</LatitudeDegrees>
              <LongitudeDegrees>-3.355248011648654937744140625</LongitudeDegrees>
            </Position>
            <AltitudeMeters>3133</AltitudeMeters>
            <DistanceMeters>6310.7886394875</DistanceMeters>
          </Trackpoint>
          <Trackpoint>
            <Time>2019-07-14T11:18:37.000Z</Time>
            <Position>
              <LatitudeDegrees>37.055419944226741790771484375</LatitudeDegrees>
              <LongitudeDegrees>-3.355038128793239593505859375</LongitudeDegrees>
            </Position>
            <AltitudeMeters>3132.199951171875</AltitudeMeters>
            <DistanceMeters>6333.3342156174</DistanceMeters>
          </Trackpoint>
          <Trackpoint>
            <Time>2019-07-14T11:18:44.000Z</Time>
            <Position>
              <LatitudeDegrees>37.0554590038955211639404296875</LatitudeDegrees>
              <LongitudeDegrees>-3.35495254956185817718505859375</LongitudeDegrees>
            </Position>
            <AltitudeMeters>3132</AltitudeMeters>
            <DistanceMeters>6342.0911219868</DistanceMeters>
          </Trackpoint>
          <Trackpoint>
            <Time>2019-07-14T11:18:45.000Z</Time>
            <Position>
              <LatitudeDegrees>37.0554680563509464263916015625</LatitudeDegrees>
              <LongitudeDegrees>-3.35494098253548145294189453125</LongitudeDegrees>
            </Position>
            <AltitudeMeters>3132.199951171875</AltitudeMeters>
            <DistanceMeters>6343.5322734646</DistanceMeters>
          </Trackpoint>
          <Trackpoint>
            <Time>2019-07-14T11:18:46.000Z</Time>
            <Position>
              <LatitudeDegrees>37.0554774440824985504150390625</LatitudeDegrees>
              <LongitudeDegrees>-3.35492857731878757476806640625</LongitudeDegrees>
            </Position>
            <AltitudeMeters>3132.39990234375</AltitudeMeters>
            <DistanceMeters>6345.0467500794</DistanceMeters>
          </Trackpoint>
          <Trackpoint>
            <Time>2019-07-14T11:19:02.000Z</Time>
            <Position>
              <LatitudeDegrees>37.05556084401905536651611328125</LatitudeDegrees>
              <LongitudeDegrees>-3.35470545105636119842529296875</LongitudeDegrees>
            </Position>
            <AltitudeMeters>3132.199951171875</AltitudeMeters>
            <DistanceMeters>6366.9322090589</DistanceMeters>
          </Trackpoint>
          <Trackpoint>
            <Time>2019-07-14T11:19:08.000Z</Time>
            <Position>
              <LatitudeDegrees>37.05557492561638355255126953125</LatitudeDegrees>
              <LongitudeDegrees>-3.35461936891078948974609375</LongitudeDegrees>
            </Position>
            <AltitudeMeters>3131.199951171875</AltitudeMeters>
            <DistanceMeters>6374.7377151775</DistanceMeters>
          </Trackpoint>
          <Trackpoint>
            <Time>2019-07-14T11:19:10.000Z</Time>
            <Position>
              <LatitudeDegrees>37.05558096058666706085205078125</LatitudeDegrees>
              <LongitudeDegrees>-3.3545967377722263336181640625</LongitudeDegrees>
            </Position>
            <AltitudeMeters>3131</AltitudeMeters>
            <DistanceMeters>6376.8583231255</DistanceMeters>
          </Trackpoint>
          <Trackpoint>
            <Time>2019-07-14T11:19:11.000Z</Time>
            <Position>
              <LatitudeDegrees>37.05558598972856998443603515625</LatitudeDegrees>
              <LongitudeDegrees>-3.3545819856226444244384765625</LongitudeDegrees>
            </Position>
            <AltitudeMeters>3131</AltitudeMeters>
            <DistanceMeters>6378.2805527565</DistanceMeters>
          </Trackpoint>
          <Trackpoint>
            <Time>2019-07-14T11:19:12.000Z</Time>
            <Position>
              <LatitudeDegrees>37.055587582290172576904296875</LatitudeDegrees>
              <LongitudeDegrees>-3.354566730558872222900390625</LongitudeDegrees>
            </Position>
            <AltitudeMeters>3130.800048828125</AltitudeMeters>
            <DistanceMeters>6379.6444426888</DistanceMeters>
          </Trackpoint>
          <Trackpoint>
            <Time>2019-07-14T11:19:13.000Z</Time>
            <Position>
              <LatitudeDegrees>37.05558900721371173858642578125</LatitudeDegrees>
              <LongitudeDegrees>-3.354552648961544036865234375</LongitudeDegrees>
            </Position>
            <AltitudeMeters>3130.800048828125</AltitudeMeters>
            <DistanceMeters>6380.9051145153</DistanceMeters>
          </Trackpoint>
          <Trackpoint>
            <Time>2019-07-14T11:19:14.000Z</Time>
            <Position>
              <LatitudeDegrees>37.05558984540402889251708984375</LatitudeDegrees>
              <LongitudeDegrees>-3.35453865118324756622314453125</LongitudeDegrees>
            </Position>
            <AltitudeMeters>3131</AltitudeMeters>
            <DistanceMeters>6382.1477500499</DistanceMeters>
          </Trackpoint>
          <Trackpoint>
            <Time>2019-07-14T11:19:15.000Z</Time>
            <Position>
              <LatitudeDegrees>37.0555894263088703155517578125</LatitudeDegrees>
              <LongitudeDegrees>-3.35452507250010967254638671875</LongitudeDegrees>
            </Position>
            <AltitudeMeters>3131</AltitudeMeters>
            <DistanceMeters>6383.3535038836</DistanceMeters>
          </Trackpoint>
          <Trackpoint>
            <Time>2019-07-14T11:19:16.000Z</Time>
            <Position>
              <LatitudeDegrees>37.05559118650853633880615234375</LatitudeDegrees>
              <LongitudeDegrees>-3.35451073944568634033203125</LongitudeDegrees>
            </Position>
            <AltitudeMeters>3131.199951171875</AltitudeMeters>
            <DistanceMeters>6384.6425089518</DistanceMeters>
          </Trackpoint>
          <Trackpoint>
            <Time>2019-07-14T11:19:19.000Z</Time>
            <Position>
              <LatitudeDegrees>37.0555988140404224395751953125</LatitudeDegrees>
              <LongitudeDegrees>-3.3544706739485263824462890625</LongitudeDegrees>
            </Position>
            <AltitudeMeters>3131.199951171875</AltitudeMeters>
            <DistanceMeters>6388.3007289137</DistanceMeters>
          </Trackpoint>
          <Trackpoint>
            <Time>2019-07-14T11:19:20.000Z</Time>
            <Position>
              <LatitudeDegrees>37.05560057424008846282958984375</LatitudeDegrees>
              <LongitudeDegrees>-3.3544549159705638885498046875</LongitudeDegrees>
            </Position>
            <AltitudeMeters>3131</AltitudeMeters>
            <DistanceMeters>6389.7134025824</DistanceMeters>
          </Trackpoint>
          <Trackpoint>
            <Time>2019-07-14T11:19:21.000Z</Time>
            <Position>
              <LatitudeDegrees>37.05560493282973766326904296875</LatitudeDegrees>
              <LongitudeDegrees>-3.35444142110645771026611328125</LongitudeDegrees>
            </Position>
            <AltitudeMeters>3130.60009765625</AltitudeMeters>
            <DistanceMeters>6391.009394179</DistanceMeters>
          </Trackpoint>
          <Trackpoint>
            <Time>2019-07-14T11:19:23.000Z</Time>
            <Position>
              <LatitudeDegrees>37.05560795031487941741943359375</LatitudeDegrees>
              <LongitudeDegrees>-3.35441946052014827728271484375</LongitudeDegrees>
            </Position>
            <AltitudeMeters>3130.39990234375</AltitudeMeters>
            <DistanceMeters>6392.9890540429</DistanceMeters>
          </Trackpoint>
          <Trackpoint>
            <Time>2019-07-14T11:19:24.000Z</Time>
            <Position>
              <LatitudeDegrees>37.0556102134287357330322265625</LatitudeDegrees>
              <LongitudeDegrees>-3.35440973751246929168701171875</LongitudeDegrees>
            </Position>
            <AltitudeMeters>3130.199951171875</AltitudeMeters>
            <DistanceMeters>6393.8905566108</DistanceMeters>
          </Trackpoint>
          <Trackpoint>
            <Time>2019-07-14T11:19:25.000Z</Time>
            <Position>
              <LatitudeDegrees>37.05561314709484577178955078125</LatitudeDegrees>
              <LongitudeDegrees>-3.3543952368199825286865234375</LongitudeDegrees>
            </Position>
            <AltitudeMeters>3130.199951171875</AltitudeMeters>
            <DistanceMeters>6395.220930612</DistanceMeters>
          </Trackpoint>
          <Trackpoint>
            <Time>2019-07-14T11:19:45.000Z</Time>
            <Position>
              <LatitudeDegrees>37.0556407235562801361083984375</LatitudeDegrees>
              <LongitudeDegrees>-3.35413062013685703277587890625</LongitudeDegrees>
            </Position>
            <AltitudeMeters>3129.199951171875</AltitudeMeters>
            <DistanceMeters>6418.9250964199</DistanceMeters>
          </Trackpoint>
          <Trackpoint>
            <Time>2019-07-14T11:20:13.000Z</Time>
            <Position>
              <LatitudeDegrees>37.05565354786813259124755859375</LatitudeDegrees>
              <LongitudeDegrees>-3.35390212945640087127685546875</LongitudeDegrees>
            </Position>
            <AltitudeMeters>3128.39990234375</AltitudeMeters>
            <DistanceMeters>6439.2710238833</DistanceMeters>
          </Trackpoint>
          <Trackpoint>
            <Time>2019-07-14T11:20:44.000Z</Time>
            <Position>
              <LatitudeDegrees>37.0556584931910037994384765625</LatitudeDegrees>
              <LongitudeDegrees>-3.3537075854837894439697265625</LongitudeDegrees>
            </Position>
            <AltitudeMeters>3128.800048828125</AltitudeMeters>
            <DistanceMeters>6456.5598804207</DistanceMeters>
          </Trackpoint>
          <Trackpoint>
            <Time>2019-07-14T11:20:53.000Z</Time>
            <Position>
              <LatitudeDegrees>37.05564851872622966766357421875</LatitudeDegrees>
              <LongitudeDegrees>-3.35367330349981784820556640625</LongitudeDegrees>
            </Position>
            <AltitudeMeters>3129.39990234375</AltitudeMeters>
            <DistanceMeters>6459.8019490475</DistanceMeters>
          </Trackpoint>
          <Trackpoint>
            <Time>2019-07-14T11:20:54.000Z</Time>
            <Position>
              <LatitudeDegrees>37.05564650706946849822998046875</LatitudeDegrees>
              <LongitudeDegrees>-3.353657461702823638916015625</LongitudeDegrees>
            </Position>
            <AltitudeMeters>3129.199951171875</AltitudeMeters>
            <DistanceMeters>6461.227349763</DistanceMeters>
          </Trackpoint>
          <Trackpoint>
            <Time>2019-07-14T11:21:12.000Z</Time>
            <Position>
              <LatitudeDegrees>37.05561432056128978729248046875</LatitudeDegrees>
              <LongitudeDegrees>-3.35341279394924640655517578125</LongitudeDegrees>
            </Position>
            <AltitudeMeters>3127.60009765625</AltitudeMeters>
            <DistanceMeters>6483.2532630688</DistanceMeters>
          </Trackpoint>
          <Trackpoint>
            <Time>2019-07-14T11:21:46.000Z</Time>
            <Position>
              <LatitudeDegrees>37.05555447377264499664306640625</LatitudeDegrees>
              <LongitudeDegrees>-3.35315161384642124176025390625</LongitudeDegrees>
            </Position>
            <AltitudeMeters>3128.39990234375</AltitudeMeters>
            <DistanceMeters>6507.3898614576</DistanceMeters>
          </Trackpoint>
          <Trackpoint>
            <Time>2019-07-14T11:22:05.000Z</Time>
            <Position>
              <LatitudeDegrees>37.05540510825812816619873046875</LatitudeDegrees>
              <LongitudeDegrees>-3.35297643207013607025146484375</LongitudeDegrees>
            </Position>
            <AltitudeMeters>3129.60009765625</AltitudeMeters>
            <DistanceMeters>6530.1610065664</DistanceMeters>
          </Trackpoint>
          <Trackpoint>
            <Time>2019-07-14T11:22:23.000Z</Time>
            <Position>
              <LatitudeDegrees>37.055255658924579620361328125</LatitudeDegrees>
              <LongitudeDegrees>-3.3528080396354198455810546875</LongitudeDegrees>
            </Position>
            <AltitudeMeters>3131.60009765625</AltitudeMeters>
            <DistanceMeters>6552.5312720179</DistanceMeters>
          </Trackpoint>
          <Trackpoint>
            <Time>2019-07-14T11:22:40.000Z</Time>
            <Position>
              <LatitudeDegrees>37.0550788007676601409912109375</LatitudeDegrees>
              <LongitudeDegrees>-3.35271106101572513580322265625</LongitudeDegrees>
            </Position>
            <AltitudeMeters>3132</AltitudeMeters>
            <DistanceMeters>6574.0182389613</DistanceMeters>
          </Trackpoint>
          <Trackpoint>
            <Time>2019-07-14T11:22:41.000Z</Time>
            <Position>
              <LatitudeDegrees>37.05507092177867889404296875</LatitudeDegrees>
              <LongitudeDegrees>-3.35270586423575878143310546875</LongitudeDegrees>
            </Position>
            <AltitudeMeters>3132</AltitudeMeters>
            <DistanceMeters>6575.0148875497</DistanceMeters>
          </Trackpoint>
          <Trackpoint>
            <Time>2019-07-14T11:22:42.000Z</Time>
            <Position>
              <LatitudeDegrees>37.05506463535130023956298828125</LatitudeDegrees>
              <LongitudeDegrees>-3.35269832052290439605712890625</LongitudeDegrees>
            </Position>
            <AltitudeMeters>3132</AltitudeMeters>
            <DistanceMeters>6575.9886216133</DistanceMeters>
          </Trackpoint>
          <Trackpoint>
            <Time>2019-07-14T11:23:01.000Z</Time>
            <Position>
              <LatitudeDegrees>37.05490236170589923858642578125</LatitudeDegrees>
              <LongitudeDegrees>-3.35257393307983875274658203125</LongitudeDegrees>
            </Position>
            <AltitudeMeters>3132</AltitudeMeters>
            <DistanceMeters>6597.1616739455</DistanceMeters>
          </Trackpoint>
          <Trackpoint>
            <Time>2019-07-14T11:23:18.000Z</Time>
            <Position>
              <LatitudeDegrees>37.05475710332393646240234375</LatitudeDegrees>
              <LongitudeDegrees>-3.35239271633327007293701171875</LongitudeDegrees>
            </Position>
            <AltitudeMeters>3131.199951171875</AltitudeMeters>
            <DistanceMeters>6619.9760029128</DistanceMeters>
          </Trackpoint>
          <Trackpoint>
            <Time>2019-07-14T11:23:23.000Z</Time>
            <Position>
              <LatitudeDegrees>37.0547284372150897979736328125</LatitudeDegrees>
              <LongitudeDegrees>-3.3523426763713359832763671875</LongitudeDegrees>
            </Position>
            <AltitudeMeters>3130.60009765625</AltitudeMeters>
            <DistanceMeters>6625.4480896709</DistanceMeters>
          </Trackpoint>
          <Trackpoint>
            <Time>2019-07-14T11:23:24.000Z</Time>
            <Position>
              <LatitudeDegrees>37.0547215640544891357421875</LatitudeDegrees>
              <LongitudeDegrees>-3.3523292653262615203857421875</LongitudeDegrees>
            </Position>
            <AltitudeMeters>3130.60009765625</AltitudeMeters>
            <DistanceMeters>6626.8639558265</DistanceMeters>
          </Trackpoint>
          <Trackpoint>
            <Time>2019-07-14T11:23:27.000Z</Time>
            <Position>
              <LatitudeDegrees>37.0546965859830379486083984375</LatitudeDegrees>
              <LongitudeDegrees>-3.35229121148586273193359375</LongitudeDegrees>
            </Position>
            <AltitudeMeters>3130.39990234375</AltitudeMeters>
            <DistanceMeters>6631.2413776949</DistanceMeters>
          </Trackpoint>
          <Trackpoint>
            <Time>2019-07-14T11:23:28.000Z</Time>
            <Position>
              <LatitudeDegrees>37.05468812026083469390869140625</LatitudeDegrees>
              <LongitudeDegrees>-3.35228073410689830780029296875</LongitudeDegrees>
            </Position>
            <AltitudeMeters>3130.199951171875</AltitudeMeters>
            <DistanceMeters>6632.5649466694</DistanceMeters>
          </Trackpoint>
          <Trackpoint>
            <Time>2019-07-14T11:23:29.000Z</Time>
            <Position>
              <LatitudeDegrees>37.05468057654798030853271484375</LatitudeDegrees>
              <LongitudeDegrees>-3.35227302275598049163818359375</LongitudeDegrees>
            </Position>
            <AltitudeMeters>3130.199951171875</AltitudeMeters>
            <DistanceMeters>6633.6525771278</DistanceMeters>
          </Trackpoint>
          <Trackpoint>
            <Time>2019-07-14T11:23:30.000Z</Time>
            <Position>
              <LatitudeDegrees>37.05467336811125278472900390625</LatitudeDegrees>
              <LongitudeDegrees>-3.35226296447217464447021484375</LongitudeDegrees>
            </Position>
            <AltitudeMeters>3130.199951171875</AltitudeMeters>
            <DistanceMeters>6634.8583309615</DistanceMeters>
          </Trackpoint>
          <Trackpoint>
            <Time>2019-07-14T11:23:31.000Z</Time>
            <Position>
              <LatitudeDegrees>37.05466532148420810699462890625</LatitudeDegrees>
              <LongitudeDegrees>-3.352250643074512481689453125</LongitudeDegrees>
            </Position>
            <AltitudeMeters>3130.199951171875</AltitudeMeters>
            <DistanceMeters>6636.2710046302</DistanceMeters>
          </Trackpoint>
          <Trackpoint>
            <Time>2019-07-14T11:23:32.000Z</Time>
            <Position>
              <LatitudeDegrees>37.0546586997807025909423828125</LatitudeDegrees>
              <LongitudeDegrees>-3.35223765112459659576416015625</LongitudeDegrees>
            </Position>
            <AltitudeMeters>3130</AltitudeMeters>
            <DistanceMeters>6637.6447899034</DistanceMeters>
          </Trackpoint>
          <Trackpoint>
            <Time>2019-07-14T11:23:33.000Z</Time>
            <Position>
              <LatitudeDegrees>37.05465325154364109039306640625</LatitudeDegrees>
              <LongitudeDegrees>-3.3522260002791881561279296875</LongitudeDegrees>
            </Position>
            <AltitudeMeters>3130</AltitudeMeters>
            <DistanceMeters>6638.8392571813</DistanceMeters>
          </Trackpoint>
          <Trackpoint>
            <Time>2019-07-14T11:23:46.000Z</Time>
            <Position>
              <LatitudeDegrees>37.05457605421543121337890625</LatitudeDegrees>
              <LongitudeDegrees>-3.352079652249813079833984375</LongitudeDegrees>
            </Position>
            <AltitudeMeters>3128.800048828125</AltitudeMeters>
            <DistanceMeters>6654.4213204409</DistanceMeters>
          </Trackpoint>
          <Trackpoint>
            <Time>2019-07-14T11:23:47.000Z</Time>
            <Position>
              <LatitudeDegrees>37.054570354521274566650390625</LatitudeDegrees>
              <LongitudeDegrees>-3.35206867195665836334228515625</LongitudeDegrees>
            </Position>
            <AltitudeMeters>3128.800048828125</AltitudeMeters>
            <DistanceMeters>6655.5851552516</DistanceMeters>
          </Trackpoint>
          <Trackpoint>
            <Time>2019-07-14T11:23:48.000Z</Time>
            <Position>
              <LatitudeDegrees>37.05456356517970561981201171875</LatitudeDegrees>
              <LongitudeDegrees>-3.3520590327680110931396484375</LongitudeDegrees>
            </Position>
            <AltitudeMeters>3128.800048828125</AltitudeMeters>
            <DistanceMeters>6656.7294284202</DistanceMeters>
          </Trackpoint>
          <Trackpoint>
            <Time>2019-07-14T11:24:05.000Z</Time>
            <Position>
              <LatitudeDegrees>37.0544535107910633087158203125</LatitudeDegrees>
              <LongitudeDegrees>-3.351855017244815826416015625</LongitudeDegrees>
            </Position>
            <AltitudeMeters>3126</AltitudeMeters>
            <DistanceMeters>6678.6031249616</DistanceMeters>
          </Trackpoint>
          <Trackpoint>
            <Time>2019-07-14T11:24:20.000Z</Time>
            <Position>
              <LatitudeDegrees>37.05436089076101779937744140625</LatitudeDegrees>
              <LongitudeDegrees>-3.35168369114398956298828125</LongitudeDegrees>
            </Position>
            <AltitudeMeters>3124.800048828125</AltitudeMeters>
            <DistanceMeters>6696.9843474516</DistanceMeters>
          </Trackpoint>
          <Trackpoint>
            <Time>2019-07-14T11:24:21.000Z</Time>
            <Position>
              <LatitudeDegrees>37.05435703508555889129638671875</LatitudeDegrees>
              <LongitudeDegrees>-3.3516736328601837158203125</LongitudeDegrees>
            </Position>
            <AltitudeMeters>3124.800048828125</AltitudeMeters>
            <DistanceMeters>6697.98099604</DistanceMeters>
          </Trackpoint>
          <Trackpoint>
            <Time>2019-07-14T11:24:22.000Z</Time>
            <Position>
              <LatitudeDegrees>37.05435267649590969085693359375</LatitudeDegrees>
              <LongitudeDegrees>-3.3516630716621875762939453125</LongitudeDegrees>
            </Position>
            <AltitudeMeters>3124.60009765625</AltitudeMeters>
            <DistanceMeters>6699.0306004065</DistanceMeters>
          </Trackpoint>
          <Trackpoint>
            <Time>2019-07-14T11:24:23.000Z</Time>
            <Position>
              <LatitudeDegrees>37.05434815026819705963134765625</LatitudeDegrees>
              <LongitudeDegrees>-3.35164773277938365936279296875</LongitudeDegrees>
            </Position>
            <AltitudeMeters>3124.39990234375</AltitudeMeters>
            <DistanceMeters>6700.4842296191</DistanceMeters>
          </Trackpoint>
          <Trackpoint>
            <Time>2019-07-14T11:24:24.000Z</Time>
            <Position>
              <LatitudeDegrees>37.0543385110795497894287109375</LatitudeDegrees>
              <LongitudeDegrees>-3.351632393896579742431640625</LongitudeDegrees>
            </Position>
            <AltitudeMeters>3124.39990234375</AltitudeMeters>
            <DistanceMeters>6702.2183044318</DistanceMeters>
          </Trackpoint>
          <Trackpoint>
            <Time>2019-07-14T11:24:25.000Z</Time>
            <Position>
              <LatitudeDegrees>37.05433088354766368865966796875</LatitudeDegrees>
              <LongitudeDegrees>-3.3516191504895687103271484375</LongitudeDegrees>
            </Position>
            <AltitudeMeters>3124.39990234375</AltitudeMeters>
            <DistanceMeters>6703.6657082231</DistanceMeters>
          </Trackpoint>
          <Trackpoint>
            <Time>2019-07-14T11:24:26.000Z</Time>
            <Position>
              <LatitudeDegrees>37.05432501621544361114501953125</LatitudeDegrees>
              <LongitudeDegrees>-3.351606242358684539794921875</LongitudeDegrees>
            </Position>
            <AltitudeMeters>3124.199951171875</AltitudeMeters>
            <DistanceMeters>6704.9858615299</DistanceMeters>
          </Trackpoint>
          <Trackpoint>
            <Time>2019-07-14T11:24:27.000Z</Time>
            <Position>
              <LatitudeDegrees>37.05431361682713031768798828125</LatitudeDegrees>
              <LongitudeDegrees>-3.35159920156002044677734375</LongitudeDegrees>
            </Position>
            <AltitudeMeters>3124.199951171875</AltitudeMeters>
            <DistanceMeters>6706.4017276855</DistanceMeters>
          </Trackpoint>
          <Trackpoint>
            <Time>2019-07-14T11:24:28.000Z</Time>
            <Position>
              <LatitudeDegrees>37.05430557020008563995361328125</LatitudeDegrees>
              <LongitudeDegrees>-3.35159090347588062286376953125</LongitudeDegrees>
            </Position>
            <AltitudeMeters>3124</AltitudeMeters>
            <DistanceMeters>6707.5616765595</DistanceMeters>
          </Trackpoint>
          <Trackpoint>
            <Time>2019-07-14T11:24:29.000Z</Time>
            <Position>
              <LatitudeDegrees>37.05430238507688045501708984375</LatitudeDegrees>
              <LongitudeDegrees>-3.35158067755401134490966796875</LongitudeDegrees>
            </Position>
            <AltitudeMeters>3123.800048828125</AltitudeMeters>
            <DistanceMeters>6708.5400364641</DistanceMeters>
          </Trackpoint>
          <Trackpoint>
            <Time>2019-07-14T11:24:31.000Z</Time>
            <Position>
              <LatitudeDegrees>37.05429299734532833099365234375</LatitudeDegrees>
              <LongitudeDegrees>-3.351559303700923919677734375</LongitudeDegrees>
            </Position>
            <AltitudeMeters>3123.60009765625</AltitudeMeters>
            <DistanceMeters>6710.7069789532</DistanceMeters>
          </Trackpoint>
          <Trackpoint>
            <Time>2019-07-14T11:24:39.000Z</Time>
            <Position>
              <LatitudeDegrees>37.05423432402312755584716796875</LatitudeDegrees>
              <LongitudeDegrees>-3.3514639176428318023681640625</LongitudeDegrees>
            </Position>
            <AltitudeMeters>3123.39990234375</AltitudeMeters>
            <DistanceMeters>6721.4045561917</DistanceMeters>
          </Trackpoint>
          <Trackpoint>
            <Time>2019-07-14T11:24:40.000Z</Time>
            <Position>
              <LatitudeDegrees>37.0542307198047637939453125</LatitudeDegrees>
              <LongitudeDegrees>-3.3514501713216304779052734375</LongitudeDegrees>
            </Position>
            <AltitudeMeters>3123.199951171875</AltitudeMeters>
            <DistanceMeters>6722.6865366568</DistanceMeters>
          </Trackpoint>
          <Trackpoint>
            <Time>2019-07-14T11:24:41.000Z</Time>
            <Position>
              <LatitudeDegrees>37.0542275346815586090087890625</LatitudeDegrees>
              <LongitudeDegrees>-3.35143483243882656097412109375</LongitudeDegrees>
            </Position>
            <AltitudeMeters>3123.199951171875</AltitudeMeters>
            <DistanceMeters>6724.0960106075</DistanceMeters>
          </Trackpoint>
          <Trackpoint>
            <Time>2019-07-14T11:24:42.000Z</Time>
            <Position>
              <LatitudeDegrees>37.0542221702635288238525390625</LatitudeDegrees>
              <LongitudeDegrees>-3.35142125375568866729736328125</LongitudeDegrees>
            </Position>
            <AltitudeMeters>3123</AltitudeMeters>
            <DistanceMeters>6725.4465939783</DistanceMeters>
          </Trackpoint>
          <Trackpoint>
            <Time>2019-07-14T11:24:43.000Z</Time>
            <Position>
              <LatitudeDegrees>37.054214961826801300048828125</LatitudeDegrees>
              <LongitudeDegrees>-3.35140767507255077362060546875</LongitudeDegrees>
            </Position>
            <AltitudeMeters>3123</AltitudeMeters>
            <DistanceMeters>6726.8971138201</DistanceMeters>
          </Trackpoint>
          <Trackpoint>
            <Time>2019-07-14T11:25:00.000Z</Time>
            <Position>
              <LatitudeDegrees>37.05412183888256549835205078125</LatitudeDegrees>
              <LongitudeDegrees>-3.3511799387633800506591796875</LongitudeDegrees>
            </Position>
            <AltitudeMeters>3121</AltitudeMeters>
            <DistanceMeters>6749.6269794965</DistanceMeters>
          </Trackpoint>
          <Trackpoint>
            <Time>2019-07-14T11:25:15.000Z</Time>
            <Position>
              <LatitudeDegrees>37.05405847169458866119384765625</LatitudeDegrees>
              <LongitudeDegrees>-3.35096611641347408294677734375</LongitudeDegrees>
            </Position>
            <AltitudeMeters>3120</AltitudeMeters>
            <DistanceMeters>6769.8870672267</DistanceMeters>
          </Trackpoint>
          <Trackpoint>
            <Time>2019-07-14T11:25:16.000Z</Time>
            <Position>
              <LatitudeDegrees>37.0540585555136203765869140625</LatitudeDegrees>
              <LongitudeDegrees>-3.35095169954001903533935546875</LongitudeDegrees>
            </Position>
            <AltitudeMeters>3120</AltitudeMeters>
            <DistanceMeters>6771.1690476918</DistanceMeters>
          </Trackpoint>
          <Trackpoint>
            <Time>2019-07-14T11:25:17.000Z</Time>
            <Position>
              <LatitudeDegrees>37.05405981279909610748291015625</LatitudeDegrees>
              <LongitudeDegrees>-3.35093677975237369537353515625</LongitudeDegrees>
            </Position>
            <AltitudeMeters>3120</AltitudeMeters>
            <DistanceMeters>6772.499421693</DistanceMeters>
          </Trackpoint>
          <Trackpoint>
            <Time>2019-07-14T11:25:18.000Z</Time>
            <Position>
              <LatitudeDegrees>37.0540588907897472381591796875</LatitudeDegrees>
              <LongitudeDegrees>-3.3509231172502040863037109375</LongitudeDegrees>
            </Position>
            <AltitudeMeters>3120</AltitudeMeters>
            <DistanceMeters>6773.712641566</DistanceMeters>
          </Trackpoint>
          <Trackpoint>
            <Time>2019-07-14T11:25:19.000Z</Time>
            <Position>
              <LatitudeDegrees>37.0540562085807323455810546875</LatitudeDegrees>
              <LongitudeDegrees>-3.35090928710997104644775390625</LongitudeDegrees>
            </Position>
            <AltitudeMeters>3119.800048828125</AltitudeMeters>
            <DistanceMeters>6774.9768897737</DistanceMeters>
          </Trackpoint>
          <Trackpoint>
            <Time>2019-07-14T11:25:20.000Z</Time>
            <Position>
              <LatitudeDegrees>37.05405310727655887603759765625</LatitudeDegrees>
              <LongitudeDegrees>-3.35089621134102344512939453125</LongitudeDegrees>
            </Position>
            <AltitudeMeters>3119.60009765625</AltitudeMeters>
            <DistanceMeters>6776.1938254897</DistanceMeters>
          </Trackpoint>
          <Trackpoint>
            <Time>2019-07-14T11:25:36.000Z</Time>
            <Position>
              <LatitudeDegrees>37.0540320686995983123779296875</LatitudeDegrees>
              <LongitudeDegrees>-3.35065372288227081298828125</LongitudeDegrees>
            </Position>
            <AltitudeMeters>3118.39990234375</AltitudeMeters>
            <DistanceMeters>6797.8603331458</DistanceMeters>
          </Trackpoint>
          <Trackpoint>
            <Time>2019-07-14T11:25:40.000Z</Time>
            <Position>
              <LatitudeDegrees>37.0540293864905834197998046875</LatitudeDegrees>
              <LongitudeDegrees>-3.35060385055840015411376953125</LongitudeDegrees>
            </Position>
            <AltitudeMeters>3118.199951171875</AltitudeMeters>
            <DistanceMeters>6802.300226937</DistanceMeters>
          </Trackpoint>
          <Trackpoint>
            <Time>2019-07-14T11:25:57.000Z</Time>
            <Position>
              <LatitudeDegrees>37.05390416085720062255859375</LatitudeDegrees>
              <LongitudeDegrees>-3.35040268488228321075439453125</LongitudeDegrees>
            </Position>
            <AltitudeMeters>3117.800048828125</AltitudeMeters>
            <DistanceMeters>6824.9622554781</DistanceMeters>
          </Trackpoint>
          <Trackpoint>
            <Time>2019-07-14T11:26:13.000Z</Time>
            <Position>
              <LatitudeDegrees>37.0537658594548702239990234375</LatitudeDegrees>
              <LongitudeDegrees>-3.35023454390466213226318359375</LongitudeDegrees>
            </Position>
            <AltitudeMeters>3117.60009765625</AltitudeMeters>
            <DistanceMeters>6846.410313299</DistanceMeters>
          </Trackpoint>
          <Trackpoint>
            <Time>2019-07-14T11:26:29.000Z</Time>
            <Position>
              <LatitudeDegrees>37.05361188389360904693603515625</LatitudeDegrees>
              <LongitudeDegrees>-3.3501003496348857879638671875</LongitudeDegrees>
            </Position>
            <AltitudeMeters>3117</AltitudeMeters>
            <DistanceMeters>6867.2859327912</DistanceMeters>
          </Trackpoint>
          <Trackpoint>
            <Time>2019-07-14T11:26:40.000Z</Time>
            <Position>
              <LatitudeDegrees>37.05351850949227809906005859375</LatitudeDegrees>
              <LongitudeDegrees>-3.34998828358948230743408203125</LongitudeDegrees>
            </Position>
            <AltitudeMeters>3115.800048828125</AltitudeMeters>
            <DistanceMeters>6881.6767553239</DistanceMeters>
          </Trackpoint>
          <Trackpoint>
            <Time>2019-07-14T11:26:41.000Z</Time>
            <Position>
              <LatitudeDegrees>37.0535123907029628753662109375</LatitudeDegrees>
              <LongitudeDegrees>-3.34997872821986675262451171875</LongitudeDegrees>
            </Position>
            <AltitudeMeters>3115.800048828125</AltitudeMeters>
            <DistanceMeters>6882.7685291514</DistanceMeters>
          </Trackpoint>
          <Trackpoint>
            <Time>2019-07-14T11:26:42.000Z</Time>
            <Position>
              <LatitudeDegrees>37.05350459553301334381103515625</LatitudeDegrees>
              <LongitudeDegrees>-3.34997135214507579803466796875</LongitudeDegrees>
            </Position>
            <AltitudeMeters>3115.800048828125</AltitudeMeters>
            <DistanceMeters>6883.8561596099</DistanceMeters>
          </Trackpoint>
          <Trackpoint>
            <Time>2019-07-14T11:26:43.000Z</Time>
            <Position>
              <LatitudeDegrees>37.053497135639190673828125</LatitudeDegrees>
              <LongitudeDegrees>-3.3499625511467456817626953125</LongitudeDegrees>
            </Position>
            <AltitudeMeters>3115.60009765625</AltitudeMeters>
            <DistanceMeters>6884.9964801823</DistanceMeters>
          </Trackpoint>
          <Trackpoint>
            <Time>2019-07-14T11:26:44.000Z</Time>
            <Position>
              <LatitudeDegrees>37.05348850227892398834228515625</LatitudeDegrees>
              <LongitudeDegrees>-3.34995274432003498077392578125</LongitudeDegrees>
            </Position>
            <AltitudeMeters>3115.60009765625</AltitudeMeters>
            <DistanceMeters>6886.292471779</DistanceMeters>
          </Trackpoint>
          <Trackpoint>
            <Time>2019-07-14T11:26:45.000Z</Time>
            <Position>
              <LatitudeDegrees>37.0534795336425304412841796875</LatitudeDegrees>
              <LongitudeDegrees>-3.34994134493172168731689453125</LongitudeDegrees>
            </Position>
            <AltitudeMeters>3115.60009765625</AltitudeMeters>
            <DistanceMeters>6887.7115232393</DistanceMeters>
          </Trackpoint>
          <Trackpoint>
            <Time>2019-07-14T11:26:46.000Z</Time>
            <Position>
              <LatitudeDegrees>37.0534731633961200714111328125</LatitudeDegrees>
              <LongitudeDegrees>-3.34992843680083751678466796875</LongitudeDegrees>
            </Position>
            <AltitudeMeters>3115.39990234375</AltitudeMeters>
            <DistanceMeters>6889.0621066102</DistanceMeters>
          </Trackpoint>
          <Trackpoint>
            <Time>2019-07-14T11:26:47.000Z</Time>
            <Position>
              <LatitudeDegrees>37.05346436239778995513916015625</LatitudeDegrees>
              <LongitudeDegrees>-3.349917791783809661865234375</LongitudeDegrees>
            </Position>
            <AltitudeMeters>3115.199951171875</AltitudeMeters>
            <DistanceMeters>6890.4226821027</DistanceMeters>
          </Trackpoint>
          <Trackpoint>
            <Time>2019-07-14T11:26:48.000Z</Time>
            <Position>
              <LatitudeDegrees>37.0534537173807621002197265625</LatitudeDegrees>
              <LongitudeDegrees>-3.3499089069664478302001953125</LongitudeDegrees>
            </Position>
            <AltitudeMeters>3115.199951171875</AltitudeMeters>
            <DistanceMeters>6891.8449117338</DistanceMeters>
          </Trackpoint>
          <Trackpoint>
            <Time>2019-07-14T11:26:54.000Z</Time>
            <Position>
              <LatitudeDegrees>37.05341222696006298065185546875</LatitudeDegrees>
              <LongitudeDegrees>-3.34984897635877132415771484375</LongitudeDegrees>
            </Position>
            <AltitudeMeters>3115.199951171875</AltitudeMeters>
            <DistanceMeters>6898.8922814872</DistanceMeters>
          </Trackpoint>
          <Trackpoint>
            <Time>2019-07-14T11:26:55.000Z</Time>
            <Position>
              <LatitudeDegrees>37.0534064434468746185302734375</LatitudeDegrees>
              <LongitudeDegrees>-3.349839337170124053955078125</LongitudeDegrees>
            </Position>
            <AltitudeMeters>3115.39990234375</AltitudeMeters>
            <DistanceMeters>6899.9589537105</DistanceMeters>
          </Trackpoint>
          <Trackpoint>
            <Time>2019-07-14T11:26:56.000Z</Time>
            <Position>
              <LatitudeDegrees>37.05339982174336910247802734375</LatitudeDegrees>
              <LongitudeDegrees>-3.34983087144792079925537109375</LongitudeDegrees>
            </Position>
            <AltitudeMeters>3115.60009765625</AltitudeMeters>
            <DistanceMeters>6901.008558077</DistanceMeters>
          </Trackpoint>
          <Trackpoint>
            <Time>2019-07-14T11:26:57.000Z</Time>
            <Position>
              <LatitudeDegrees>37.05339026637375354766845703125</LatitudeDegrees>
              <LongitudeDegrees>-3.34982332773506641387939453125</LongitudeDegrees>
            </Position>
            <AltitudeMeters>3115.60009765625</AltitudeMeters>
            <DistanceMeters>6902.2692299035</DistanceMeters>
          </Trackpoint>
          <Trackpoint>
            <Time>2019-07-14T11:26:58.000Z</Time>
            <Position>
              <LatitudeDegrees>37.05338113009929656982421875</LatitudeDegrees>
              <LongitudeDegrees>-3.34981444291770458221435546875</LongitudeDegrees>
            </Position>
            <AltitudeMeters>3115.800048828125</AltitudeMeters>
            <DistanceMeters>6903.5582349717</DistanceMeters>
          </Trackpoint>
          <Trackpoint>
            <Time>2019-07-14T11:27:03.000Z</Time>
            <Position>
              <LatitudeDegrees>37.0533353649079799652099609375</LatitudeDegrees>
              <LongitudeDegrees>-3.349770940840244293212890625</LongitudeDegrees>
            </Position>
            <AltitudeMeters>3115.60009765625</AltitudeMeters>
            <DistanceMeters>6909.9512097085</DistanceMeters>
          </Trackpoint>
          <Trackpoint>
            <Time>2019-07-14T11:27:04.000Z</Time>
            <Position>
              <LatitudeDegrees>37.05333058722317218780517578125</LatitudeDegrees>
              <LongitudeDegrees>-3.34975660778582096099853515625</LongitudeDegrees>
            </Position>
            <AltitudeMeters>3115.39990234375</AltitudeMeters>
            <DistanceMeters>6911.3315524665</DistanceMeters>
          </Trackpoint>
          <Trackpoint>
            <Time>2019-07-14T11:27:05.000Z</Time>
            <Position>
              <LatitudeDegrees>37.053325474262237548828125</LatitudeDegrees>
              <LongitudeDegrees>-3.3497442863881587982177734375</LongitudeDegrees>
            </Position>
            <AltitudeMeters>3115</AltitudeMeters>
            <DistanceMeters>6912.5558860361</DistanceMeters>
          </Trackpoint>
          <Trackpoint>
            <Time>2019-07-14T11:27:06.000Z</Time>
            <Position>
              <LatitudeDegrees>37.05331902019679546356201171875</LatitudeDegrees>
              <LongitudeDegrees>-3.3497352339327335357666015625</LongitudeDegrees>
            </Position>
            <AltitudeMeters>3115.199951171875</AltitudeMeters>
            <DistanceMeters>6913.6309905821</DistanceMeters>
          </Trackpoint>
          <Trackpoint>
            <Time>2019-07-14T11:27:07.000Z</Time>
            <Position>
              <LatitudeDegrees>37.05331005156040191650390625</LatitudeDegrees>
              <LongitudeDegrees>-3.349726684391498565673828125</LongitudeDegrees>
            </Position>
            <AltitudeMeters>3115.39990234375</AltitudeMeters>
            <DistanceMeters>6914.8844790349</DistanceMeters>
          </Trackpoint>
          <Trackpoint>
            <Time>2019-07-14T11:27:08.000Z</Time>
            <Position>
              <LatitudeDegrees>37.0533008314669132232666015625</LatitudeDegrees>
              <LongitudeDegrees>-3.34972165524959564208984375</LongitudeDegrees>
            </Position>
            <AltitudeMeters>3114.800048828125</AltitudeMeters>
            <DistanceMeters>6916.0007901695</DistanceMeters>
          </Trackpoint>
          <Trackpoint>
            <Time>2019-07-14T11:27:09.000Z</Time>
            <Position>
              <LatitudeDegrees>37.05329270102083683013916015625</LatitudeDegrees>
              <LongitudeDegrees>-3.34971402771770954132080078125</LongitudeDegrees>
            </Position>
            <AltitudeMeters>3114.39990234375</AltitudeMeters>
            <DistanceMeters>6917.1331641603</DistanceMeters>
          </Trackpoint>
          <Trackpoint>
            <Time>2019-07-14T11:27:10.000Z</Time>
            <Position>
              <LatitudeDegrees>37.053282223641872406005859375</LatitudeDegrees>
              <LongitudeDegrees>-3.3497064001858234405517578125</LongitudeDegrees>
            </Position>
            <AltitudeMeters>3114.39990234375</AltitudeMeters>
            <DistanceMeters>6918.4837475312</DistanceMeters>
          </Trackpoint>
          <Trackpoint>
            <Time>2019-07-14T11:27:11.000Z</Time>
            <Position>
              <LatitudeDegrees>37.053270153701305389404296875</LatitudeDegrees>
              <LongitudeDegrees>-3.34970019757747650146484375</LongitudeDegrees>
            </Position>
            <AltitudeMeters>3114.800048828125</AltitudeMeters>
            <DistanceMeters>6919.9373767438</DistanceMeters>
          </Trackpoint>
          <Trackpoint>
            <Time>2019-07-14T11:27:12.000Z</Time>
            <Position>
              <LatitudeDegrees>37.05325799994170665740966796875</LatitudeDegrees>
              <LongitudeDegrees>-3.349695503711700439453125</LongitudeDegrees>
            </Position>
            <AltitudeMeters>3114.800048828125</AltitudeMeters>
            <DistanceMeters>6921.3500504125</DistanceMeters>
          </Trackpoint>
          <Trackpoint>
            <Time>2019-07-14T11:27:13.000Z</Time>
            <Position>
              <LatitudeDegrees>37.05324894748628139495849609375</LatitudeDegrees>
              <LongitudeDegrees>-3.3496889658272266387939453125</LongitudeDegrees>
            </Position>
            <AltitudeMeters>3115</AltitudeMeters>
            <DistanceMeters>6922.5138852232</DistanceMeters>
          </Trackpoint>
          <Trackpoint>
            <Time>2019-07-14T11:27:17.000Z</Time>
            <Position>
              <LatitudeDegrees>37.05322430469095706939697265625</LatitudeDegrees>
              <LongitudeDegrees>-3.34965384565293788909912109375</LongitudeDegrees>
            </Position>
            <AltitudeMeters>3115.199951171875</AltitudeMeters>
            <DistanceMeters>6926.6679767104</DistanceMeters>
          </Trackpoint>
          <Trackpoint>
            <Time>2019-07-14T11:27:22.000Z</Time>
            <Position>
              <LatitudeDegrees>37.05319882370531558990478515625</LatitudeDegrees>
              <LongitudeDegrees>-3.34960590116679668426513671875</LongitudeDegrees>
            </Position>
            <AltitudeMeters>3116.199951171875</AltitudeMeters>
            <DistanceMeters>6931.7844395131</DistanceMeters>
          </Trackpoint>
          <Trackpoint>
            <Time>2019-07-14T11:27:23.000Z</Time>
            <Position>
              <LatitudeDegrees>37.0531940460205078125</LatitudeDegrees>
              <LongitudeDegrees>-3.34959533996880054473876953125</LongitudeDegrees>
            </Position>
            <AltitudeMeters>3116.39990234375</AltitudeMeters>
            <DistanceMeters>6932.8595440591</DistanceMeters>
          </Trackpoint>
          <Trackpoint>
            <Time>2019-07-14T11:27:32.000Z</Time>
            <Position>
              <LatitudeDegrees>37.053130008280277252197265625</LatitudeDegrees>
              <LongitudeDegrees>-3.34950934164226055145263671875</LongitudeDegrees>
            </Position>
            <AltitudeMeters>3117.39990234375</AltitudeMeters>
            <DistanceMeters>6943.3072980787</DistanceMeters>
          </Trackpoint>
          <Trackpoint>
            <Time>2019-07-14T11:27:33.000Z</Time>
            <Position>
              <LatitudeDegrees>37.05312254838645458221435546875</LatitudeDegrees>
              <LongitudeDegrees>-3.3494998700916767120361328125</LongitudeDegrees>
            </Position>
            <AltitudeMeters>3117.60009765625</AltitudeMeters>
            <DistanceMeters>6944.4903711318</DistanceMeters>
          </Trackpoint>
          <Trackpoint>
            <Time>2019-07-14T11:27:34.000Z</Time>
            <Position>
              <LatitudeDegrees>37.05310846678912639617919921875</LatitudeDegrees>
              <LongitudeDegrees>-3.34949425421655178070068359375</LongitudeDegrees>
            </Position>
            <AltitudeMeters>3117.60009765625</AltitudeMeters>
            <DistanceMeters>6946.1362821054</DistanceMeters>
          </Trackpoint>
          <Trackpoint>
            <Time>2019-07-14T11:27:52.000Z</Time>
            <Position>
              <LatitudeDegrees>37.05295289866626262664794921875</LatitudeDegrees>
              <LongitudeDegrees>-3.34946374408900737762451171875</LongitudeDegrees>
            </Position>
            <AltitudeMeters>3120.60009765625</AltitudeMeters>
            <DistanceMeters>6963.6619495724</DistanceMeters>
          </Trackpoint>
          <Trackpoint>
            <Time>2019-07-14T11:27:53.000Z</Time>
            <Position>
              <LatitudeDegrees>37.0529440976679325103759765625</LatitudeDegrees>
              <LongitudeDegrees>-3.349453769624233245849609375</LongitudeDegrees>
            </Position>
            <AltitudeMeters>3120.60009765625</AltitudeMeters>
            <DistanceMeters>6964.9786783514</DistanceMeters>
          </Trackpoint>
          <Trackpoint>
            <Time>2019-07-14T11:27:54.000Z</Time>
            <Position>
              <LatitudeDegrees>37.05293412320315837860107421875</LatitudeDegrees>
              <LongitudeDegrees>-3.3494462259113788604736328125</LongitudeDegrees>
            </Position>
            <AltitudeMeters>3120.60009765625</AltitudeMeters>
            <DistanceMeters>6966.274669948</DistanceMeters>
          </Trackpoint>
          <Trackpoint>
            <Time>2019-07-14T11:28:04.000Z</Time>
            <Position>
              <LatitudeDegrees>37.0528703369200229644775390625</LatitudeDegrees>
              <LongitudeDegrees>-3.349341452121734619140625</LongitudeDegrees>
            </Position>
            <AltitudeMeters>3119.39990234375</AltitudeMeters>
            <DistanceMeters>6977.9799401236</DistanceMeters>
          </Trackpoint>
          <Trackpoint>
            <Time>2019-07-14T11:28:10.000Z</Time>
            <Position>
              <LatitudeDegrees>37.05288433469831943511962890625</LatitudeDegrees>
              <LongitudeDegrees>-3.3492655120790004730224609375</LongitudeDegrees>
            </Position>
            <AltitudeMeters>3118.800048828125</AltitudeMeters>
            <DistanceMeters>6984.9032085544</DistanceMeters>
          </Trackpoint>
          <Trackpoint>
            <Time>2019-07-14T11:28:11.000Z</Time>
            <Position>
              <LatitudeDegrees>37.05289372242987155914306640625</LatitudeDegrees>
              <LongitudeDegrees>-3.3492541126906871795654296875</LongitudeDegrees>
            </Position>
            <AltitudeMeters>3119</AltitudeMeters>
            <DistanceMeters>6986.356837767</DistanceMeters>
          </Trackpoint>
          <Trackpoint>
            <Time>2019-07-14T11:28:12.000Z</Time>
            <Position>
              <LatitudeDegrees>37.052902691066265106201171875</LatitudeDegrees>
              <LongitudeDegrees>-3.34924397058784961700439453125</LongitudeDegrees>
            </Position>
            <AltitudeMeters>3119.39990234375</AltitudeMeters>
            <DistanceMeters>6987.7007184495</DistanceMeters>
          </Trackpoint>
          <Trackpoint>
            <Time>2019-07-14T11:28:13.000Z</Time>
            <Position>
              <LatitudeDegrees>37.05290948040783405303955078125</LatitudeDegrees>
              <LongitudeDegrees>-3.349234499037265777587890625</LongitudeDegrees>
            </Position>
            <AltitudeMeters>3119.39990234375</AltitudeMeters>
            <DistanceMeters>6988.8330924403</DistanceMeters>
          </Trackpoint>
          <Trackpoint>
            <Time>2019-07-14T11:28:14.000Z</Time>
            <Position>
              <LatitudeDegrees>37.05291568301618099212646484375</LatitudeDegrees>
              <LongitudeDegrees>-3.349227122962474822998046875</LongitudeDegrees>
            </Position>
            <AltitudeMeters>3119.199951171875</AltitudeMeters>
            <DistanceMeters>6989.783359584</DistanceMeters>
          </Trackpoint>
          <Trackpoint>
            <Time>2019-07-14T11:28:15.000Z</Time>
            <Position>
              <LatitudeDegrees>37.0529206283390522003173828125</LatitudeDegrees>
              <LongitudeDegrees>-3.34921983070671558380126953125</LongitudeDegrees>
            </Position>
            <AltitudeMeters>3118.800048828125</AltitudeMeters>
            <DistanceMeters>6990.6279754962</DistanceMeters>
          </Trackpoint>
          <Trackpoint>
            <Time>2019-07-14T11:28:16.000Z</Time>
            <Position>
              <LatitudeDegrees>37.05292574129998683929443359375</LatitudeDegrees>
              <LongitudeDegrees>-3.34921144880354404449462890625</LongitudeDegrees>
            </Position>
            <AltitudeMeters>3118.60009765625</AltitudeMeters>
            <DistanceMeters>6991.5638800934</DistanceMeters>
          </Trackpoint>
          <Trackpoint>
            <Time>2019-07-14T11:28:23.000Z</Time>
            <Position>
              <LatitudeDegrees>37.05295474268496036529541015625</LatitudeDegrees>
              <LongitudeDegrees>-3.349137268960475921630859375</LongitudeDegrees>
            </Position>
            <AltitudeMeters>3117.39990234375</AltitudeMeters>
            <DistanceMeters>6998.9012717116</DistanceMeters>
          </Trackpoint>
          <Trackpoint>
            <Time>2019-07-14T11:28:28.000Z</Time>
            <Position>
              <LatitudeDegrees>37.05298743210732936859130859375</LatitudeDegrees>
              <LongitudeDegrees>-3.3490874804556369781494140625</LongitudeDegrees>
            </Position>
            <AltitudeMeters>3117</AltitudeMeters>
            <DistanceMeters>7004.6281589677</DistanceMeters>
          </Trackpoint>
          <Trackpoint>
            <Time>2019-07-14T11:28:29.000Z</Time>
            <Position>
              <LatitudeDegrees>37.05299430526793003082275390625</LatitudeDegrees>
              <LongitudeDegrees>-3.3490770868957042694091796875</LongitudeDegrees>
            </Position>
            <AltitudeMeters>3117</AltitudeMeters>
            <DistanceMeters>7005.8301623916</DistanceMeters>
          </Trackpoint>
          <Trackpoint>
            <Time>2019-07-14T11:28:30.000Z</Time>
            <Position>
              <LatitudeDegrees>37.052999921143054962158203125</LatitudeDegrees>
              <LongitudeDegrees>-3.34907080046832561492919921875</LongitudeDegrees>
            </Position>
            <AltitudeMeters>3117</AltitudeMeters>
            <DistanceMeters>7006.6694156088</DistanceMeters>
          </Trackpoint>
          <Trackpoint>
            <Time>2019-07-14T11:28:31.000Z</Time>
            <Position>
              <LatitudeDegrees>37.05300335772335529327392578125</LatitudeDegrees>
              <LongitudeDegrees>-3.349064849317073822021484375</LongitudeDegrees>
            </Position>
            <AltitudeMeters>3116.800048828125</AltitudeMeters>
            <DistanceMeters>7007.3277799983</DistanceMeters>
          </Trackpoint>
          <Trackpoint>
            <Time>2019-07-14T11:28:32.000Z</Time>
            <Position>
              <LatitudeDegrees>37.0530074648559093475341796875</LatitudeDegrees>
              <LongitudeDegrees>-3.34905705414712429046630859375</LongitudeDegrees>
            </Position>
            <AltitudeMeters>3116.60009765625</AltitudeMeters>
            <DistanceMeters>7008.1562036881</DistanceMeters>
          </Trackpoint>
          <Trackpoint>
            <Time>2019-07-14T11:28:33.000Z</Time>
            <Position>
              <LatitudeDegrees>37.05301366746425628662109375</LatitudeDegrees>
              <LongitudeDegrees>-3.3490477502346038818359375</LongitudeDegrees>
            </Position>
            <AltitudeMeters>3116</AltitudeMeters>
            <DistanceMeters>7009.2354996907</DistanceMeters>
          </Trackpoint>
          <Trackpoint>
            <Time>2019-07-14T11:28:34.000Z</Time>
            <Position>
              <LatitudeDegrees>37.05302171409130096435546875</LatitudeDegrees>
              <LongitudeDegrees>-3.3490381948649883270263671875</LongitudeDegrees>
            </Position>
            <AltitudeMeters>3115.199951171875</AltitudeMeters>
            <DistanceMeters>7010.4671866812</DistanceMeters>
          </Trackpoint>
          <Trackpoint>
            <Time>2019-07-14T11:28:35.000Z</Time>
            <Position>
              <LatitudeDegrees>37.05302816815674304962158203125</LatitudeDegrees>
              <LongitudeDegrees>-3.349027968943119049072265625</LongitudeDegrees>
            </Position>
            <AltitudeMeters>3115</AltitudeMeters>
            <DistanceMeters>7011.6232365563</DistanceMeters>
          </Trackpoint>
          <Trackpoint>
            <Time>2019-07-14T11:28:36.000Z</Time>
            <Position>
              <LatitudeDegrees>37.0530275814235210418701171875</LatitudeDegrees>
              <LongitudeDegrees>-3.3490137197077274322509765625</LongitudeDegrees>
            </Position>
            <AltitudeMeters>3115.60009765625</AltitudeMeters>
            <DistanceMeters>7012.8981537143</DistanceMeters>
          </Trackpoint>
          <Trackpoint>
            <Time>2019-07-14T11:28:37.000Z</Time>
            <Position>
              <LatitudeDegrees>37.0530292578041553497314453125</LatitudeDegrees>
              <LongitudeDegrees>-3.3489976264536380767822265625</LongitudeDegrees>
            </Position>
            <AltitudeMeters>3115.39990234375</AltitudeMeters>
            <DistanceMeters>7014.3393051922</DistanceMeters>
          </Trackpoint>
          <Trackpoint>
            <Time>2019-07-14T11:28:38.000Z</Time>
            <Position>
              <LatitudeDegrees>37.0530329458415508270263671875</LatitudeDegrees>
              <LongitudeDegrees>-3.34898446686565876007080078125</LongitudeDegrees>
            </Position>
            <AltitudeMeters>3114.39990234375</AltitudeMeters>
            <DistanceMeters>7015.5819407268</DistanceMeters>
          </Trackpoint>
          <Trackpoint>
            <Time>2019-07-14T11:28:39.000Z</Time>
            <Position>
              <LatitudeDegrees>37.05303722061216831207275390625</LatitudeDegrees>
              <LongitudeDegrees>-3.34897466003894805908203125</LongitudeDegrees>
            </Position>
            <AltitudeMeters>3113.800048828125</AltitudeMeters>
            <DistanceMeters>7016.5740487514</DistanceMeters>
          </Trackpoint>
          <Trackpoint>
            <Time>2019-07-14T11:28:41.000Z</Time>
            <Position>
              <LatitudeDegrees>37.05304694361984729766845703125</LatitudeDegrees>
              <LongitudeDegrees>-3.3489543758332729339599609375</LongitudeDegrees>
            </Position>
            <AltitudeMeters>3113.199951171875</AltitudeMeters>
            <DistanceMeters>7018.6754072122</DistanceMeters>
          </Trackpoint>
          <Trackpoint>
            <Time>2019-07-14T11:28:49.000Z</Time>
            <Position>
              <LatitudeDegrees>37.053092457354068756103515625</LatitudeDegrees>
              <LongitudeDegrees>-3.34883560426533222198486328125</LongitudeDegrees>
            </Position>
            <AltitudeMeters>3113</AltitudeMeters>
            <DistanceMeters>7030.3787485942</DistanceMeters>
          </Trackpoint>
          <Trackpoint>
            <Time>2019-07-14T11:28:50.000Z</Time>
            <Position>
              <LatitudeDegrees>37.05309891141951084136962890625</LatitudeDegrees>
              <LongitudeDegrees>-3.348821438848972320556640625</LongitudeDegrees>
            </Position>
            <AltitudeMeters>3112.60009765625</AltitudeMeters>
            <DistanceMeters>7031.8261523855</DistanceMeters>
          </Trackpoint>
          <Trackpoint>
            <Time>2019-07-14T11:28:51.000Z</Time>
            <Position>
              <LatitudeDegrees>37.0531040243804454803466796875</LatitudeDegrees>
              <LongitudeDegrees>-3.34880945272743701934814453125</LongitudeDegrees>
            </Position>
            <AltitudeMeters>3112.199951171875</AltitudeMeters>
            <DistanceMeters>7033.0319062191</DistanceMeters>
          </Trackpoint>
          <Trackpoint>
            <Time>2019-07-14T11:28:52.000Z</Time>
            <Position>
              <LatitudeDegrees>37.0531053654849529266357421875</LatitudeDegrees>
              <LongitudeDegrees>-3.34879956208169460296630859375</LongitudeDegrees>
            </Position>
            <AltitudeMeters>3112.199951171875</AltitudeMeters>
            <DistanceMeters>7033.9233358165</DistanceMeters>
          </Trackpoint>
          <Trackpoint>
            <Time>2019-07-14T11:28:53.000Z</Time>
            <Position>
              <LatitudeDegrees>37.053110897541046142578125</LatitudeDegrees>
              <LongitudeDegrees>-3.34878765977919101715087890625</LongitudeDegrees>
            </Position>
            <AltitudeMeters>3112</AltitudeMeters>
            <DistanceMeters>7035.1476693861</DistanceMeters>
          </Trackpoint>
          <Trackpoint>
            <Time>2019-07-14T11:28:54.000Z</Time>
            <Position>
              <LatitudeDegrees>37.05311634577810764312744140625</LatitudeDegrees>
              <LongitudeDegrees>-3.34877441637217998504638671875</LongitudeDegrees>
            </Position>
            <AltitudeMeters>3111.800048828125</AltitudeMeters>
            <DistanceMeters>7036.4712383606</DistanceMeters>
          </Trackpoint>
          <Trackpoint>
            <Time>2019-07-14T11:29:10.000Z</Time>
            <Position>
              <LatitudeDegrees>37.05322614870965480804443359375</LatitudeDegrees>
              <LongitudeDegrees>-3.34859236143529415130615234375</LongitudeDegrees>
            </Position>
            <AltitudeMeters>3109</AltitudeMeters>
            <DistanceMeters>7056.7411292878</DistanceMeters>
          </Trackpoint>
          <Trackpoint>
            <Time>2019-07-14T11:29:25.000Z</Time>
            <Position>
              <LatitudeDegrees>37.05330426804721355438232421875</LatitudeDegrees>
              <LongitudeDegrees>-3.3483904413878917694091796875</LongitudeDegrees>
            </Position>
            <AltitudeMeters>3107</AltitudeMeters>
            <DistanceMeters>7076.6736480293</DistanceMeters>
          </Trackpoint>
          <Trackpoint>
            <Time>2019-07-14T11:29:26.000Z</Time>
            <Position>
              <LatitudeDegrees>37.05330963246524333953857421875</LatitudeDegrees>
              <LongitudeDegrees>-3.34837744943797588348388671875</LongitudeDegrees>
            </Position>
            <AltitudeMeters>3107</AltitudeMeters>
            <DistanceMeters>7077.9765886924</DistanceMeters>
          </Trackpoint>
          <Trackpoint>
            <Time>2019-07-14T11:29:27.000Z</Time>
            <Position>
              <LatitudeDegrees>37.0533169247210025787353515625</LatitudeDegrees>
              <LongitudeDegrees>-3.3483683131635189056396484375</LongitudeDegrees>
            </Position>
            <AltitudeMeters>3106.800048828125</AltitudeMeters>
            <DistanceMeters>7079.1248008508</DistanceMeters>
          </Trackpoint>
          <Trackpoint>
            <Time>2019-07-14T11:29:28.000Z</Time>
            <Position>
              <LatitudeDegrees>37.05332404933869838714599609375</LatitudeDegrees>
              <LongitudeDegrees>-3.348359763622283935546875</LongitudeDegrees>
            </Position>
            <AltitudeMeters>3106.800048828125</AltitudeMeters>
            <DistanceMeters>7080.2207023825</DistanceMeters>
          </Trackpoint>
          <Trackpoint>
            <Time>2019-07-14T11:29:29.000Z</Time>
            <Position>
              <LatitudeDegrees>37.05333209596574306488037109375</LatitudeDegrees>
              <LongitudeDegrees>-3.34835045970976352691650390625</LongitudeDegrees>
            </Position>
            <AltitudeMeters>3106.800048828125</AltitudeMeters>
            <DistanceMeters>7081.4376380984</DistanceMeters>
          </Trackpoint>
          <Trackpoint>
            <Time>2019-07-14T11:29:30.000Z</Time>
            <Position>
              <LatitudeDegrees>37.05333762802183628082275390625</LatitudeDegrees>
              <LongitudeDegrees>-3.34834123961627483367919921875</LongitudeDegrees>
            </Position>
            <AltitudeMeters>3106.800048828125</AltitudeMeters>
            <DistanceMeters>7082.4611071344</DistanceMeters>
          </Trackpoint>
          <Trackpoint>
            <Time>2019-07-14T11:29:31.000Z</Time>
            <Position>
              <LatitudeDegrees>37.05334399826824665069580078125</LatitudeDegrees>
              <LongitudeDegrees>-3.34832933731377124786376953125</LongitudeDegrees>
            </Position>
            <AltitudeMeters>3106.800048828125</AltitudeMeters>
            <DistanceMeters>7083.7360242924</DistanceMeters>
          </Trackpoint>
          <Trackpoint>
            <Time>2019-07-14T11:29:50.000Z</Time>
            <Position>
              <LatitudeDegrees>37.05345447175204753875732421875</LatitudeDegrees>
              <LongitudeDegrees>-3.3481332845985889434814453125</LongitudeDegrees>
            </Position>
            <AltitudeMeters>3106.199951171875</AltitudeMeters>
            <DistanceMeters>7105.0544369291</DistanceMeters>
          </Trackpoint>
          <Trackpoint>
            <Time>2019-07-14T11:30:06.000Z</Time>
            <Position>
              <LatitudeDegrees>37.0535472594201564788818359375</LatitudeDegrees>
              <LongitudeDegrees>-3.34793807007372379302978515625</LongitudeDegrees>
            </Position>
            <AltitudeMeters>3103.800048828125</AltitudeMeters>
            <DistanceMeters>7125.2370462329</DistanceMeters>
          </Trackpoint>
          <Trackpoint>
            <Time>2019-07-14T11:30:21.000Z</Time>
            <Position>
              <LatitudeDegrees>37.05362864769995212554931640625</LatitudeDegrees>
              <LongitudeDegrees>-3.3477611280977725982666015625</LongitudeDegrees>
            </Position>
            <AltitudeMeters>3100.60009765625</AltitudeMeters>
            <DistanceMeters>7143.3776932955</DistanceMeters>
          </Trackpoint>
          <Trackpoint>
            <Time>2019-07-14T11:30:22.000Z</Time>
            <Position>
              <LatitudeDegrees>37.05362998880445957183837890625</LatitudeDegrees>
              <LongitudeDegrees>-3.347745202481746673583984375</LongitudeDegrees>
            </Position>
            <AltitudeMeters>3100.199951171875</AltitudeMeters>
            <DistanceMeters>7144.7999229265</DistanceMeters>
          </Trackpoint>
          <Trackpoint>
            <Time>2019-07-14T11:30:23.000Z</Time>
            <Position>
              <LatitudeDegrees>37.05363434739410877227783203125</LatitudeDegrees>
              <LongitudeDegrees>-3.3477269299328327178955078125</LongitudeDegrees>
            </Position>
            <AltitudeMeters>3100</AltitudeMeters>
            <DistanceMeters>7146.4944919895</DistanceMeters>
          </Trackpoint>
          <Trackpoint>
            <Time>2019-07-14T11:30:24.000Z</Time>
            <Position>
              <LatitudeDegrees>37.05363837070763111114501953125</LatitudeDegrees>
              <LongitudeDegrees>-3.3477128483355045318603515625</LongitudeDegrees>
            </Position>
            <AltitudeMeters>3100</AltitudeMeters>
            <DistanceMeters>7147.8248659907</DistanceMeters>
          </Trackpoint>
          <Trackpoint>
            <Time>2019-07-14T11:30:25.000Z</Time>
            <Position>
              <LatitudeDegrees>37.0536431483924388885498046875</LatitudeDegrees>
              <LongitudeDegrees>-3.34770153276622295379638671875</LongitudeDegrees>
            </Position>
            <AltitudeMeters>3099.60009765625</AltitudeMeters>
            <DistanceMeters>7148.9651865631</DistanceMeters>
          </Trackpoint>
          <Trackpoint>
            <Time>2019-07-14T11:30:26.000Z</Time>
            <Position>
              <LatitudeDegrees>37.05364826135337352752685546875</LatitudeDegrees>
              <LongitudeDegrees>-3.34769147448241710662841796875</LongitudeDegrees>
            </Position>
            <AltitudeMeters>3099.60009765625</AltitudeMeters>
            <DistanceMeters>7150.0233592707</DistanceMeters>
          </Trackpoint>
          <Trackpoint>
            <Time>2019-07-14T11:30:27.000Z</Time>
            <Position>
              <LatitudeDegrees>37.05365094356238842010498046875</LatitudeDegrees>
              <LongitudeDegrees>-3.34768091328442096710205078125</LongitudeDegrees>
            </Position>
            <AltitudeMeters>3099.60009765625</AltitudeMeters>
            <DistanceMeters>7151.0017191753</DistanceMeters>
          </Trackpoint>
          <Trackpoint>
            <Time>2019-07-14T11:30:32.000Z</Time>
            <Position>
              <LatitudeDegrees>37.0536709763109683990478515625</LatitudeDegrees>
              <LongitudeDegrees>-3.34759826771914958953857421875</LongitudeDegrees>
            </Position>
            <AltitudeMeters>3099.39990234375</AltitudeMeters>
            <DistanceMeters>7158.6736184357</DistanceMeters>
          </Trackpoint>
          <Trackpoint>
            <Time>2019-07-14T11:30:33.000Z</Time>
            <Position>
              <LatitudeDegrees>37.05367759801447391510009765625</LatitudeDegrees>
              <LongitudeDegrees>-3.34758435375988483428955078125</LongitudeDegrees>
            </Position>
            <AltitudeMeters>3099.39990234375</AltitudeMeters>
            <DistanceMeters>7160.1116335628</DistanceMeters>
          </Trackpoint>
          <Trackpoint>
            <Time>2019-07-14T11:30:34.000Z</Time>
            <Position>
              <LatitudeDegrees>37.05367776565253734588623046875</LatitudeDegrees>
              <LongitudeDegrees>-3.34757295437157154083251953125</LongitudeDegrees>
            </Position>
            <AltitudeMeters>3099.39990234375</AltitudeMeters>
            <DistanceMeters>7161.1262412282</DistanceMeters>
          </Trackpoint>
          <Trackpoint>
            <Time>2019-07-14T11:30:35.000Z</Time>
            <Position>
              <LatitudeDegrees>37.05368447117507457733154296875</LatitudeDegrees>
              <LongitudeDegrees>-3.3475602976977825164794921875</LongitudeDegrees>
            </Position>
            <AltitudeMeters>3099.60009765625</AltitudeMeters>
            <DistanceMeters>7162.476824599</DistanceMeters>
          </Trackpoint>
          <Trackpoint>
            <Time>2019-07-14T11:30:36.000Z</Time>
            <Position>
              <LatitudeDegrees>37.0536900870501995086669921875</LatitudeDegrees>
              <LongitudeDegrees>-3.34754780866205692291259765625</LongitudeDegrees>
            </Position>
            <AltitudeMeters>3099.60009765625</AltitudeMeters>
            <DistanceMeters>7163.7446390993</DistanceMeters>
          </Trackpoint>
          <Trackpoint>
            <Time>2019-07-14T11:30:37.000Z</Time>
            <Position>
              <LatitudeDegrees>37.05369687639176845550537109375</LatitudeDegrees>
              <LongitudeDegrees>-3.34753322415053844451904296875</LongitudeDegrees>
            </Position>
            <AltitudeMeters>3099.39990234375</AltitudeMeters>
            <DistanceMeters>7165.2441353595</DistanceMeters>
          </Trackpoint>
          <Trackpoint>
            <Time>2019-07-14T11:30:39.000Z</Time>
            <Position>
              <LatitudeDegrees>37.0537068508565425872802734375</LatitudeDegrees>
              <LongitudeDegrees>-3.3475033007562160491943359375</LongitudeDegrees>
            </Position>
            <AltitudeMeters>3099.199951171875</AltitudeMeters>
            <DistanceMeters>7168.1233036727</DistanceMeters>
          </Trackpoint>
          <Trackpoint>
            <Time>2019-07-14T11:30:40.000Z</Time>
            <Position>
              <LatitudeDegrees>37.05371213145554065704345703125</LatitudeDegrees>
              <LongitudeDegrees>-3.3474875427782535552978515625</LongitudeDegrees>
            </Position>
            <AltitudeMeters>3099</AltitudeMeters>
            <DistanceMeters>7169.6437311026</DistanceMeters>
          </Trackpoint>
          <Trackpoint>
            <Time>2019-07-14T11:30:41.000Z</Time>
            <Position>
              <LatitudeDegrees>37.05371682532131671905517578125</LatitudeDegrees>
              <LongitudeDegrees>-3.3474707789719104766845703125</LongitudeDegrees>
            </Position>
            <AltitudeMeters>3098.800048828125</AltitudeMeters>
            <DistanceMeters>7171.222433449</DistanceMeters>
          </Trackpoint>
          <Trackpoint>
            <Time>2019-07-14T11:31:31.000Z</Time>
            <Position>
              <LatitudeDegrees>37.0536991395056247711181640625</LatitudeDegrees>
              <LongitudeDegrees>-3.34735737182199954986572265625</LongitudeDegrees>
            </Position>
            <AltitudeMeters>3099.800048828125</AltitudeMeters>
            <DistanceMeters>7181.4866383316</DistanceMeters>
          </Trackpoint>
          <Trackpoint>
            <Time>2019-07-14T11:32:09.000Z</Time>
            <Position>
              <LatitudeDegrees>37.0536783523857593536376953125</LatitudeDegrees>
              <LongitudeDegrees>-3.347339518368244171142578125</LongitudeDegrees>
            </Position>
            <AltitudeMeters>3101.199951171875</AltitudeMeters>
            <DistanceMeters>7184.289523721</DistanceMeters>
          </Trackpoint>
          <Trackpoint>
            <Time>2019-07-14T11:32:26.000Z</Time>
            <Position>
              <LatitudeDegrees>37.053693942725658416748046875</LatitudeDegrees>
              <LongitudeDegrees>-3.3472914062440395355224609375</LongitudeDegrees>
            </Position>
            <AltitudeMeters>3102.199951171875</AltitudeMeters>
            <DistanceMeters>7188.9019916182</DistanceMeters>
          </Trackpoint>
          <Trackpoint>
            <Time>2019-07-14T11:32:44.000Z</Time>
            <Position>
              <LatitudeDegrees>37.0537236146628856658935546875</LatitudeDegrees>
              <LongitudeDegrees>-3.347050845623016357421875</LongitudeDegrees>
            </Position>
            <AltitudeMeters>3104</AltitudeMeters>
            <DistanceMeters>7210.5238582734</DistanceMeters>
          </Trackpoint>
          <Trackpoint>
            <Time>2019-07-14T11:32:46.000Z</Time>
            <Position>
              <LatitudeDegrees>37.0537283085286617279052734375</LatitudeDegrees>
              <LongitudeDegrees>-3.34702737629413604736328125</LongitudeDegrees>
            </Position>
            <AltitudeMeters>3103.800048828125</AltitudeMeters>
            <DistanceMeters>7212.6740673654</DistanceMeters>
          </Trackpoint>
          <Trackpoint>
            <Time>2019-07-14T11:32:47.000Z</Time>
            <Position>
              <LatitudeDegrees>37.0537345111370086669921875</LatitudeDegrees>
              <LongitudeDegrees>-3.34701857529580593109130859375</LongitudeDegrees>
            </Position>
            <AltitudeMeters>3103.800048828125</AltitudeMeters>
            <DistanceMeters>7213.7236717319</DistanceMeters>
          </Trackpoint>
          <Trackpoint>
            <Time>2019-07-14T11:32:48.000Z</Time>
            <Position>
              <LatitudeDegrees>37.0537397079169750213623046875</LatitudeDegrees>
              <LongitudeDegrees>-3.3470101095736026763916015625</LongitudeDegrees>
            </Position>
            <AltitudeMeters>3103.800048828125</AltitudeMeters>
            <DistanceMeters>7214.6739388756</DistanceMeters>
          </Trackpoint>
          <Trackpoint>
            <Time>2019-07-14T11:32:49.000Z</Time>
            <Position>
              <LatitudeDegrees>37.05374322831630706787109375</LatitudeDegrees>
              <LongitudeDegrees>-3.34700055420398712158203125</LongitudeDegrees>
            </Position>
            <AltitudeMeters>3103.800048828125</AltitudeMeters>
            <DistanceMeters>7215.6050067241</DistanceMeters>
          </Trackpoint>
          <Trackpoint>
            <Time>2019-07-14T11:32:50.000Z</Time>
            <Position>
              <LatitudeDegrees>37.05374465323984622955322265625</LatitudeDegrees>
              <LongitudeDegrees>-3.346989490091800689697265625</LongitudeDegrees>
            </Position>
            <AltitudeMeters>3103.60009765625</AltitudeMeters>
            <DistanceMeters>7216.6016553126</DistanceMeters>
          </Trackpoint>
          <Trackpoint>
            <Time>2019-07-14T11:32:51.000Z</Time>
            <Position>
              <LatitudeDegrees>37.0537460781633853912353515625</LatitudeDegrees>
              <LongitudeDegrees>-3.34697507321834564208984375</LongitudeDegrees>
            </Position>
            <AltitudeMeters>3103.199951171875</AltitudeMeters>
            <DistanceMeters>7217.8941583656</DistanceMeters>
          </Trackpoint>
          <Trackpoint>
            <Time>2019-07-14T11:32:54.000Z</Time>
            <Position>
              <LatitudeDegrees>37.0537547953426837921142578125</LatitudeDegrees>
              <LongitudeDegrees>-3.34693349897861480712890625</LongitudeDegrees>
            </Position>
            <AltitudeMeters>3101.60009765625</AltitudeMeters>
            <DistanceMeters>7221.7118203963</DistanceMeters>
          </Trackpoint>
          <Trackpoint>
            <Time>2019-07-14T11:32:55.000Z</Time>
            <Position>
              <LatitudeDegrees>37.0537559688091278076171875</LatitudeDegrees>
              <LongitudeDegrees>-3.34692302159965038299560546875</LongitudeDegrees>
            </Position>
            <AltitudeMeters>3101.199951171875</AltitudeMeters>
            <DistanceMeters>7222.6525368741</DistanceMeters>
          </Trackpoint>
          <Trackpoint>
            <Time>2019-07-14T11:32:56.000Z</Time>
            <Position>
              <LatitudeDegrees>37.05375672318041324615478515625</LatitudeDegrees>
              <LongitudeDegrees>-3.3469152264297008514404296875</LongitudeDegrees>
            </Position>
            <AltitudeMeters>3100.800048828125</AltitudeMeters>
            <DistanceMeters>7223.3508377605</DistanceMeters>
          </Trackpoint>
          <Trackpoint>
            <Time>2019-07-14T11:33:17.000Z</Time>
            <Position>
              <LatitudeDegrees>37.053746245801448822021484375</LatitudeDegrees>
              <LongitudeDegrees>-3.34673744626343250274658203125</LongitudeDegrees>
            </Position>
            <AltitudeMeters>3097.800048828125</AltitudeMeters>
            <DistanceMeters>7239.1858357932</DistanceMeters>
          </Trackpoint>
          <Trackpoint>
            <Time>2019-07-14T11:33:27.000Z</Time>
            <Position>
              <LatitudeDegrees>37.05372420139610767364501953125</LatitudeDegrees>
              <LongitudeDegrees>-3.3466077782213687896728515625</LongitudeDegrees>
            </Position>
            <AltitudeMeters>3096.39990234375</AltitudeMeters>
            <DistanceMeters>7250.9622492551</DistanceMeters>
          </Trackpoint>
          <Trackpoint>
            <Time>2019-07-14T11:33:31.000Z</Time>
            <Position>
              <LatitudeDegrees>37.05371347256004810333251953125</LatitudeDegrees>
              <LongitudeDegrees>-3.34654457867145538330078125</LongitudeDegrees>
            </Position>
            <AltitudeMeters>3096</AltitudeMeters>
            <DistanceMeters>7256.7017369385</DistanceMeters>
          </Trackpoint>
          <Trackpoint>
            <Time>2019-07-14T11:33:37.000Z</Time>
            <Position>
              <LatitudeDegrees>37.0537249557673931121826171875</LatitudeDegrees>
              <LongitudeDegrees>-3.3464594185352325439453125</LongitudeDegrees>
            </Position>
            <AltitudeMeters>3095.800048828125</AltitudeMeters>
            <DistanceMeters>7264.3736361989</DistanceMeters>
          </Trackpoint>
          <Trackpoint>
            <Time>2019-07-14T11:33:38.000Z</Time>
            <Position>
              <LatitudeDegrees>37.05373090691864490509033203125</LatitudeDegrees>
              <LongitudeDegrees>-3.346443660557270050048828125</LongitudeDegrees>
            </Position>
            <AltitudeMeters>3095.199951171875</AltitudeMeters>
            <DistanceMeters>7265.923475008</DistanceMeters>
          </Trackpoint>
          <Trackpoint>
            <Time>2019-07-14T11:33:39.000Z</Time>
            <Position>
              <LatitudeDegrees>37.053735516965389251708984375</LatitudeDegrees>
              <LongitudeDegrees>-3.34642563946545124053955078125</LongitudeDegrees>
            </Position>
            <AltitudeMeters>3094.800048828125</AltitudeMeters>
            <DistanceMeters>7267.6073526767</DistanceMeters>
          </Trackpoint>
          <Trackpoint>
            <Time>2019-07-14T11:33:40.000Z</Time>
            <Position>
              <LatitudeDegrees>37.05373493023216724395751953125</LatitudeDegrees>
              <LongitudeDegrees>-3.34640912711620330810546875</LongitudeDegrees>
            </Position>
            <AltitudeMeters>3094.39990234375</AltitudeMeters>
            <DistanceMeters>7269.0733534249</DistanceMeters>
          </Trackpoint>
          <Trackpoint>
            <Time>2019-07-14T11:33:41.000Z</Time>
            <Position>
              <LatitudeDegrees>37.05373275093734264373779296875</LatitudeDegrees>
              <LongitudeDegrees>-3.34639479406177997589111328125</LongitudeDegrees>
            </Position>
            <AltitudeMeters>3094.39990234375</AltitudeMeters>
            <DistanceMeters>7270.3693450216</DistanceMeters>
          </Trackpoint>
          <Trackpoint>
            <Time>2019-07-14T11:33:42.000Z</Time>
            <Position>
              <LatitudeDegrees>37.0537323318421840667724609375</LatitudeDegrees>
              <LongitudeDegrees>-3.34638088010251522064208984375</LongitudeDegrees>
            </Position>
            <AltitudeMeters>3094.39990234375</AltitudeMeters>
            <DistanceMeters>7271.6010320121</DistanceMeters>
          </Trackpoint>
          <Trackpoint>
            <Time>2019-07-14T11:33:43.000Z</Time>
            <Position>
              <LatitudeDegrees>37.0537340082228183746337890625</LatitudeDegrees>
              <LongitudeDegrees>-3.34636746905744075775146484375</LongitudeDegrees>
            </Position>
            <AltitudeMeters>3094.39990234375</AltitudeMeters>
            <DistanceMeters>7272.8067858458</DistanceMeters>
          </Trackpoint>
          <Trackpoint>
            <Time>2019-07-14T11:33:44.000Z</Time>
            <Position>
              <LatitudeDegrees>37.05374163575470447540283203125</LatitudeDegrees>
              <LongitudeDegrees>-3.34635472856462001800537109375</LongitudeDegrees>
            </Position>
            <AltitudeMeters>3094.39990234375</AltitudeMeters>
            <DistanceMeters>7274.2226520014</DistanceMeters>
          </Trackpoint>
          <Trackpoint>
            <Time>2019-07-14T11:33:45.000Z</Time>
            <Position>
              <LatitudeDegrees>37.05374658107757568359375</LatitudeDegrees>
              <LongitudeDegrees>-3.3463412337005138397216796875</LongitudeDegrees>
            </Position>
            <AltitudeMeters>3094.39990234375</AltitudeMeters>
            <DistanceMeters>7275.5428053082</DistanceMeters>
          </Trackpoint>
          <Trackpoint>
            <Time>2019-07-14T11:33:46.000Z</Time>
            <Position>
              <LatitudeDegrees>37.05374985001981258392333984375</LatitudeDegrees>
              <LongitudeDegrees>-3.3463279902935028076171875</LongitudeDegrees>
            </Position>
            <AltitudeMeters>3094.39990234375</AltitudeMeters>
            <DistanceMeters>7276.7744922987</DistanceMeters>
          </Trackpoint>
          <Trackpoint>
            <Time>2019-07-14T11:33:47.000Z</Time>
            <Position>
              <LatitudeDegrees>37.05375169403851032257080078125</LatitudeDegrees>
              <LongitudeDegrees>-3.34631524980068206787109375</LongitudeDegrees>
            </Position>
            <AltitudeMeters>3094.199951171875</AltitudeMeters>
            <DistanceMeters>7277.9266299803</DistanceMeters>
          </Trackpoint>
          <Trackpoint>
            <Time>2019-07-14T11:34:07.000Z</Time>
            <Position>
              <LatitudeDegrees>37.0538037456572055816650390625</LatitudeDegrees>
              <LongitudeDegrees>-3.3461135812103748321533203125</LongitudeDegrees>
            </Position>
            <AltitudeMeters>3092.39990234375</AltitudeMeters>
            <DistanceMeters>7296.7536741098</DistanceMeters>
          </Trackpoint>
          <Trackpoint>
            <Time>2019-07-14T11:34:21.000Z</Time>
            <Position>
              <LatitudeDegrees>37.05386434681713581085205078125</LatitudeDegrees>
              <LongitudeDegrees>-3.34591669030487537384033203125</LongitudeDegrees>
            </Position>
            <AltitudeMeters>3090.199951171875</AltitudeMeters>
            <DistanceMeters>7315.4982806524</DistanceMeters>
          </Trackpoint>
          <Trackpoint>
            <Time>2019-07-14T11:34:22.000Z</Time>
            <Position>
              <LatitudeDegrees>37.05386568792164325714111328125</LatitudeDegrees>
              <LongitudeDegrees>-3.34590109996497631072998046875</LongitudeDegrees>
            </Position>
            <AltitudeMeters>3089.800048828125</AltitudeMeters>
            <DistanceMeters>7316.8884016395</DistanceMeters>
          </Trackpoint>
          <Trackpoint>
            <Time>2019-07-14T11:34:23.000Z</Time>
            <Position>
              <LatitudeDegrees>37.053867280483245849609375</LatitudeDegrees>
              <LongitudeDegrees>-3.34588953293859958648681640625</LongitudeDegrees>
            </Position>
            <AltitudeMeters>3089.800048828125</AltitudeMeters>
            <DistanceMeters>7317.9293671401</DistanceMeters>
          </Trackpoint>
          <Trackpoint>
            <Time>2019-07-14T11:34:24.000Z</Time>
            <Position>
              <LatitudeDegrees>37.0538708008825778961181640625</LatitudeDegrees>
              <LongitudeDegrees>-3.34587947465479373931884765625</LongitudeDegrees>
            </Position>
            <AltitudeMeters>3089.800048828125</AltitudeMeters>
            <DistanceMeters>7318.9077270447</DistanceMeters>
          </Trackpoint>
          <Trackpoint>
            <Time>2019-07-14T11:34:25.000Z</Time>
            <Position>
              <LatitudeDegrees>37.0538744889199733734130859375</LatitudeDegrees>
              <LongitudeDegrees>-3.3458695001900196075439453125</LongitudeDegrees>
            </Position>
            <AltitudeMeters>3089.800048828125</AltitudeMeters>
            <DistanceMeters>7319.8860869494</DistanceMeters>
          </Trackpoint>
          <Trackpoint>
            <Time>2019-07-14T11:34:26.000Z</Time>
            <Position>
              <LatitudeDegrees>37.05387608148157596588134765625</LatitudeDegrees>
              <LongitudeDegrees>-3.34585499949753284454345703125</LongitudeDegrees>
            </Position>
            <AltitudeMeters>3090</AltitudeMeters>
            <DistanceMeters>7321.1890276125</DistanceMeters>
          </Trackpoint>
          <Trackpoint>
            <Time>2019-07-14T11:34:31.000Z</Time>
            <Position>
              <LatitudeDegrees>37.05388580448925495147705078125</LatitudeDegrees>
              <LongitudeDegrees>-3.34577612578868865966796875</LongitudeDegrees>
            </Position>
            <AltitudeMeters>3089.199951171875</AltitudeMeters>
            <DistanceMeters>7328.2791923188</DistanceMeters>
          </Trackpoint>
          <Trackpoint>
            <Time>2019-07-14T11:34:32.000Z</Time>
            <Position>
              <LatitudeDegrees>37.05388630740344524383544921875</LatitudeDegrees>
              <LongitudeDegrees>-3.34576162509620189666748046875</LongitudeDegrees>
            </Position>
            <AltitudeMeters>3088.800048828125</AltitudeMeters>
            <DistanceMeters>7329.568197387</DistanceMeters>
          </Trackpoint>
          <Trackpoint>
            <Time>2019-07-14T11:34:33.000Z</Time>
            <Position>
              <LatitudeDegrees>37.0538873970508575439453125</LatitudeDegrees>
              <LongitudeDegrees>-3.3457471244037151336669921875</LongitudeDegrees>
            </Position>
            <AltitudeMeters>3088.800048828125</AltitudeMeters>
            <DistanceMeters>7330.86070044</DistanceMeters>
          </Trackpoint>
          <Trackpoint>
            <Time>2019-07-14T11:34:39.000Z</Time>
            <Position>
              <LatitudeDegrees>37.053901813924312591552734375</LatitudeDegrees>
              <LongitudeDegrees>-3.3456482179462909698486328125</LongitudeDegrees>
            </Position>
            <AltitudeMeters>3088.39990234375</AltitudeMeters>
            <DistanceMeters>7339.7911895169</DistanceMeters>
          </Trackpoint>
          <Trackpoint>
            <Time>2019-07-14T11:34:40.000Z</Time>
            <Position>
              <LatitudeDegrees>37.05390491522848606109619140625</LatitudeDegrees>
              <LongitudeDegrees>-3.34563388489186763763427734375</LongitudeDegrees>
            </Position>
            <AltitudeMeters>3088.39990234375</AltitudeMeters>
            <DistanceMeters>7341.1113428238</DistanceMeters>
          </Trackpoint>
          <Trackpoint>
            <Time>2019-07-14T11:34:41.000Z</Time>
            <Position>
              <LatitudeDegrees>37.05390709452331066131591796875</LatitudeDegrees>
              <LongitudeDegrees>-3.345618546009063720703125</LongitudeDegrees>
            </Position>
            <AltitudeMeters>3088.199951171875</AltitudeMeters>
            <DistanceMeters>7342.4949526699</DistanceMeters>
          </Trackpoint>
          <Trackpoint>
            <Time>2019-07-14T11:34:42.000Z</Time>
            <Position>
              <LatitudeDegrees>37.05391027964651584625244140625</LatitudeDegrees>
              <LongitudeDegrees>-3.34560287185013294219970703125</LongitudeDegrees>
            </Position>
            <AltitudeMeters>3088.39990234375</AltitudeMeters>
            <DistanceMeters>7343.9361041477</DistanceMeters>
          </Trackpoint>
          <Trackpoint>
            <Time>2019-07-14T11:34:43.000Z</Time>
            <Position>
              <LatitudeDegrees>37.05391564406454563140869140625</LatitudeDegrees>
              <LongitudeDegrees>-3.345585353672504425048828125</LongitudeDegrees>
            </Position>
            <AltitudeMeters>3088.39990234375</AltitudeMeters>
            <DistanceMeters>7345.6038162166</DistanceMeters>
          </Trackpoint>
          <Trackpoint>
            <Time>2019-07-14T11:34:59.000Z</Time>
            <Position>
              <LatitudeDegrees>37.05394615419209003448486328125</LatitudeDegrees>
              <LongitudeDegrees>-3.3453514985740184783935546875</LongitudeDegrees>
            </Position>
            <AltitudeMeters>3088.39990234375</AltitudeMeters>
            <DistanceMeters>7366.6519653138</DistanceMeters>
          </Trackpoint>
          <Trackpoint>
            <Time>2019-07-14T11:35:14.000Z</Time>
            <Position>
              <LatitudeDegrees>37.0539251156151294708251953125</LatitudeDegrees>
              <LongitudeDegrees>-3.34512627683579921722412109375</LongitudeDegrees>
            </Position>
            <AltitudeMeters>3086.800048828125</AltitudeMeters>
            <DistanceMeters>7386.7944908413</DistanceMeters>
          </Trackpoint>
          <Trackpoint>
            <Time>2019-07-14T11:35:23.000Z</Time>
            <Position>
              <LatitudeDegrees>37.0539207570254802703857421875</LatitudeDegrees>
              <LongitudeDegrees>-3.34500960074365139007568359375</LongitudeDegrees>
            </Position>
            <AltitudeMeters>3084.199951171875</AltitudeMeters>
            <DistanceMeters>7397.1702593124</DistanceMeters>
          </Trackpoint>
          <Trackpoint>
            <Time>2019-07-14T11:35:24.000Z</Time>
            <Position>
              <LatitudeDegrees>37.053922601044178009033203125</LatitudeDegrees>
              <LongitudeDegrees>-3.34499769844114780426025390625</LongitudeDegrees>
            </Position>
            <AltitudeMeters>3084.39990234375</AltitudeMeters>
            <DistanceMeters>7398.249555315</DistanceMeters>
          </Trackpoint>
          <Trackpoint>
            <Time>2019-07-14T11:35:40.000Z</Time>
            <Position>
              <LatitudeDegrees>37.053900472819805145263671875</LatitudeDegrees>
              <LongitudeDegrees>-3.344769291579723358154296875</LongitudeDegrees>
            </Position>
            <AltitudeMeters>3083.39990234375</AltitudeMeters>
            <DistanceMeters>7418.6871485195</DistanceMeters>
          </Trackpoint>
          <Trackpoint>
            <Time>2019-07-14T11:35:56.000Z</Time>
            <Position>
              <LatitudeDegrees>37.0538607425987720489501953125</LatitudeDegrees>
              <LongitudeDegrees>-3.34455446340143680572509765625</LongitudeDegrees>
            </Position>
            <AltitudeMeters>3082</AltitudeMeters>
            <DistanceMeters>7438.2751026777</DistanceMeters>
          </Trackpoint>
          <Trackpoint>
            <Time>2019-07-14T11:36:07.000Z</Time>
            <Position>
              <LatitudeDegrees>37.0538419671356678009033203125</LatitudeDegrees>
              <LongitudeDegrees>-3.344405852258205413818359375</LongitudeDegrees>
            </Position>
            <AltitudeMeters>3081</AltitudeMeters>
            <DistanceMeters>7451.6401295066</DistanceMeters>
          </Trackpoint>
          <Trackpoint>
            <Time>2019-07-14T11:36:08.000Z</Time>
            <Position>
              <LatitudeDegrees>37.0538429729640483856201171875</LatitudeDegrees>
              <LongitudeDegrees>-3.34439076483249664306640625</LongitudeDegrees>
            </Position>
            <AltitudeMeters>3080.800048828125</AltitudeMeters>
            <DistanceMeters>7452.9873657017</DistanceMeters>
          </Trackpoint>
          <Trackpoint>
            <Time>2019-07-14T11:36:09.000Z</Time>
            <Position>
              <LatitudeDegrees>37.05384381115436553955078125</LatitudeDegrees>
              <LongitudeDegrees>-3.34437743760645389556884765625</LongitudeDegrees>
            </Position>
            <AltitudeMeters>3080.60009765625</AltitudeMeters>
            <DistanceMeters>7454.1742489837</DistanceMeters>
          </Trackpoint>
          <Trackpoint>
            <Time>2019-07-14T11:36:10.000Z</Time>
            <Position>
              <LatitudeDegrees>37.0538463257253170013427734375</LatitudeDegrees>
              <LongitudeDegrees>-3.344362936913967132568359375</LongitudeDegrees>
            </Position>
            <AltitudeMeters>3080.60009765625</AltitudeMeters>
            <DistanceMeters>7455.4909777627</DistanceMeters>
          </Trackpoint>
          <Trackpoint>
            <Time>2019-07-14T11:36:11.000Z</Time>
            <Position>
              <LatitudeDegrees>37.05385060049593448638916015625</LatitudeDegrees>
              <LongitudeDegrees>-3.344346173107624053955078125</LongitudeDegrees>
            </Position>
            <AltitudeMeters>3080.60009765625</AltitudeMeters>
            <DistanceMeters>7457.0524260134</DistanceMeters>
          </Trackpoint>
          <Trackpoint>
            <Time>2019-07-14T11:36:12.000Z</Time>
            <Position>
              <LatitudeDegrees>37.0538557134568691253662109375</LatitudeDegrees>
              <LongitudeDegrees>-3.34433116950094699859619140625</LongitudeDegrees>
            </Position>
            <AltitudeMeters>3080.39990234375</AltitudeMeters>
            <DistanceMeters>7458.4998298047</DistanceMeters>
          </Trackpoint>
          <Trackpoint>
            <Time>2019-07-14T11:36:13.000Z</Time>
            <Position>
              <LatitudeDegrees>37.05385764129459857940673828125</LatitudeDegrees>
              <LongitudeDegrees>-3.34431675262749195098876953125</LongitudeDegrees>
            </Position>
            <AltitudeMeters>3080.199951171875</AltitudeMeters>
            <DistanceMeters>7459.7993005797</DistanceMeters>
          </Trackpoint>
          <Trackpoint>
            <Time>2019-07-14T11:36:14.000Z</Time>
            <Position>
              <LatitudeDegrees>37.0538610778748989105224609375</LatitudeDegrees>
              <LongitudeDegrees>-3.3443027548491954803466796875</LongitudeDegrees>
            </Position>
            <AltitudeMeters>3080</AltitudeMeters>
            <DistanceMeters>7461.1022412428</DistanceMeters>
          </Trackpoint>
          <Trackpoint>
            <Time>2019-07-14T11:36:15.000Z</Time>
            <Position>
              <LatitudeDegrees>37.0538637600839138031005859375</LatitudeDegrees>
              <LongitudeDegrees>-3.34428875707089900970458984375</LongitudeDegrees>
            </Position>
            <AltitudeMeters>3079.800048828125</AltitudeMeters>
            <DistanceMeters>7462.3806949323</DistanceMeters>
          </Trackpoint>
          <Trackpoint>
            <Time>2019-07-14T11:36:16.000Z</Time>
            <Position>
              <LatitudeDegrees>37.053866274654865264892578125</LatitudeDegrees>
              <LongitudeDegrees>-3.34427517838776111602783203125</LongitudeDegrees>
            </Position>
            <AltitudeMeters>3079.60009765625</AltitudeMeters>
            <DistanceMeters>7463.6196917021</DistanceMeters>
          </Trackpoint>
          <Trackpoint>
            <Time>2019-07-14T11:36:23.000Z</Time>
            <Position>
              <LatitudeDegrees>37.0538966171443462371826171875</LatitudeDegrees>
              <LongitudeDegrees>-3.3441837318241596221923828125</LongitudeDegrees>
            </Position>
            <AltitudeMeters>3078.60009765625</AltitudeMeters>
            <DistanceMeters>7472.4177491739</DistanceMeters>
          </Trackpoint>
          <Trackpoint>
            <Time>2019-07-14T11:36:24.000Z</Time>
            <Position>
              <LatitudeDegrees>37.0539029873907566070556640625</LatitudeDegrees>
              <LongitudeDegrees>-3.3441706560552120208740234375</LongitudeDegrees>
            </Position>
            <AltitudeMeters>3078.39990234375</AltitudeMeters>
            <DistanceMeters>7473.7816391062</DistanceMeters>
          </Trackpoint>
          <Trackpoint>
            <Time>2019-07-14T11:36:25.000Z</Time>
            <Position>
              <LatitudeDegrees>37.05390843562781810760498046875</LatitudeDegrees>
              <LongitudeDegrees>-3.344159089028835296630859375</LongitudeDegrees>
            </Position>
            <AltitudeMeters>3078.39990234375</AltitudeMeters>
            <DistanceMeters>7474.9761063842</DistanceMeters>
          </Trackpoint>
          <Trackpoint>
            <Time>2019-07-14T11:36:26.000Z</Time>
            <Position>
              <LatitudeDegrees>37.05391111783683300018310546875</LatitudeDegrees>
              <LongitudeDegrees>-3.34414542652666568756103515625</LongitudeDegrees>
            </Position>
            <AltitudeMeters>3078.199951171875</AltitudeMeters>
            <DistanceMeters>7476.2259876685</DistanceMeters>
          </Trackpoint>
          <Trackpoint>
            <Time>2019-07-14T11:36:27.000Z</Time>
            <Position>
              <LatitudeDegrees>37.05391413532197475433349609375</LatitudeDegrees>
              <LongitudeDegrees>-3.3441331051290035247802734375</LongitudeDegrees>
            </Position>
            <AltitudeMeters>3078.199951171875</AltitudeMeters>
            <DistanceMeters>7477.3663082409</DistanceMeters>
          </Trackpoint>
          <Trackpoint>
            <Time>2019-07-14T11:36:28.000Z</Time>
            <Position>
              <LatitudeDegrees>37.05391815863549709320068359375</LatitudeDegrees>
              <LongitudeDegrees>-3.34412111900746822357177734375</LongitudeDegrees>
            </Position>
            <AltitudeMeters>3078</AltitudeMeters>
            <DistanceMeters>7478.5184459225</DistanceMeters>
          </Trackpoint>
          <Trackpoint>
            <Time>2019-07-14T11:36:29.000Z</Time>
            <Position>
              <LatitudeDegrees>37.05392427742481231689453125</LatitudeDegrees>
              <LongitudeDegrees>-3.34410938434302806854248046875</LongitudeDegrees>
            </Position>
            <AltitudeMeters>3078</AltitudeMeters>
            <DistanceMeters>7479.7610814571</DistanceMeters>
          </Trackpoint>
          <Trackpoint>
            <Time>2019-07-14T11:36:30.000Z</Time>
            <Position>
              <LatitudeDegrees>37.05392972566187381744384765625</LatitudeDegrees>
              <LongitudeDegrees>-3.34409664385020732879638671875</LongitudeDegrees>
            </Position>
            <AltitudeMeters>3078</AltitudeMeters>
            <DistanceMeters>7481.0430619222</DistanceMeters>
          </Trackpoint>
          <Trackpoint>
            <Time>2019-07-14T11:36:31.000Z</Time>
            <Position>
              <LatitudeDegrees>37.0539368502795696258544921875</LatitudeDegrees>
              <LongitudeDegrees>-3.34408256225287914276123046875</LongitudeDegrees>
            </Position>
            <AltitudeMeters>3078</AltitudeMeters>
            <DistanceMeters>7482.5213306729</DistanceMeters>
          </Trackpoint>
          <Trackpoint>
            <Time>2019-07-14T11:36:32.000Z</Time>
            <Position>
              <LatitudeDegrees>37.05394431017339229583740234375</LatitudeDegrees>
              <LongitudeDegrees>-3.34407032467424869537353515625</LongitudeDegrees>
            </Position>
            <AltitudeMeters>3077.800048828125</AltitudeMeters>
            <DistanceMeters>7483.8918254377</DistanceMeters>
          </Trackpoint>
          <Trackpoint>
            <Time>2019-07-14T11:36:41.000Z</Time>
            <Position>
              <LatitudeDegrees>37.05397984944283962249755859375</LatitudeDegrees>
              <LongitudeDegrees>-3.34394191391766071319580078125</LongitudeDegrees>
            </Position>
            <AltitudeMeters>3077.39990234375</AltitudeMeters>
            <DistanceMeters>7495.964706779</DistanceMeters>
          </Trackpoint>
          <Trackpoint>
            <Time>2019-07-14T11:36:42.000Z</Time>
            <Position>
              <LatitudeDegrees>37.0539804361760616302490234375</LatitudeDegrees>
              <LongitudeDegrees>-3.34392883814871311187744140625</LongitudeDegrees>
            </Position>
            <AltitudeMeters>3077.39990234375</AltitudeMeters>
            <DistanceMeters>7497.1324145948</DistanceMeters>
          </Trackpoint>
          <Trackpoint>
            <Time>2019-07-14T11:36:43.000Z</Time>
            <Position>
              <LatitudeDegrees>37.053979933261871337890625</LatitudeDegrees>
              <LongitudeDegrees>-3.3439131639897823333740234375</LongitudeDegrees>
            </Position>
            <AltitudeMeters>3077.60009765625</AltitudeMeters>
            <DistanceMeters>7498.5290163677</DistanceMeters>
          </Trackpoint>
          <Trackpoint>
            <Time>2019-07-14T11:36:44.000Z</Time>
            <Position>
              <LatitudeDegrees>37.05398135818541049957275390625</LatitudeDegrees>
              <LongitudeDegrees>-3.34389916621148586273193359375</LongitudeDegrees>
            </Position>
            <AltitudeMeters>3077.60009765625</AltitudeMeters>
            <DistanceMeters>7499.7861016383</DistanceMeters>
          </Trackpoint>
          <Trackpoint>
            <Time>2019-07-14T11:36:45.000Z</Time>
            <Position>
              <LatitudeDegrees>37.0539817772805690765380859375</LatitudeDegrees>
              <LongitudeDegrees>-3.3438873477280139923095703125</LongitudeDegrees>
            </Position>
            <AltitudeMeters>3077.60009765625</AltitudeMeters>
            <DistanceMeters>7500.8442743459</DistanceMeters>
          </Trackpoint>
          <Trackpoint>
            <Time>2019-07-14T11:36:46.000Z</Time>
            <Position>
              <LatitudeDegrees>37.0539827831089496612548828125</LatitudeDegrees>
              <LongitudeDegrees>-3.34387318231165409088134765625</LongitudeDegrees>
            </Position>
            <AltitudeMeters>3077.60009765625</AltitudeMeters>
            <DistanceMeters>7502.1049461724</DistanceMeters>
          </Trackpoint>
          <Trackpoint>
            <Time>2019-07-14T11:36:58.000Z</Time>
            <Position>
              <LatitudeDegrees>37.05398437567055225372314453125</LatitudeDegrees>
              <LongitudeDegrees>-3.3437083102762699127197265625</LongitudeDegrees>
            </Position>
            <AltitudeMeters>3077</AltitudeMeters>
            <DistanceMeters>7516.7507795679</DistanceMeters>
          </Trackpoint>
          <Trackpoint>
            <Time>2019-07-14T11:37:02.000Z</Time>
            <Position>
              <LatitudeDegrees>37.0539790950715541839599609375</LatitudeDegrees>
              <LongitudeDegrees>-3.3436560072004795074462890625</LongitudeDegrees>
            </Position>
            <AltitudeMeters>3076.800048828125</AltitudeMeters>
            <DistanceMeters>7521.4331962096</DistanceMeters>
          </Trackpoint>
          <Trackpoint>
            <Time>2019-07-14T11:37:03.000Z</Time>
            <Position>
              <LatitudeDegrees>37.053977586328983306884765625</LatitudeDegrees>
              <LongitudeDegrees>-3.343640081584453582763671875</LongitudeDegrees>
            </Position>
            <AltitudeMeters>3076.800048828125</AltitudeMeters>
            <DistanceMeters>7522.8554258406</DistanceMeters>
          </Trackpoint>
          <Trackpoint>
            <Time>2019-07-14T11:37:25.000Z</Time>
            <Position>
              <LatitudeDegrees>37.05395604483783245086669921875</LatitudeDegrees>
              <LongitudeDegrees>-3.34339625202119350433349609375</LongitudeDegrees>
            </Position>
            <AltitudeMeters>3077</AltitudeMeters>
            <DistanceMeters>7544.6461931454</DistanceMeters>
          </Trackpoint>
          <Trackpoint>
            <Time>2019-07-14T11:37:42.000Z</Time>
            <Position>
              <LatitudeDegrees>37.05392385832965373992919921875</LatitudeDegrees>
              <LongitudeDegrees>-3.34315602667629718780517578125</LongitudeDegrees>
            </Position>
            <AltitudeMeters>3078</AltitudeMeters>
            <DistanceMeters>7566.2830894838</DistanceMeters>
          </Trackpoint>
          <Trackpoint>
            <Time>2019-07-14T11:37:44.000Z</Time>
            <Position>
              <LatitudeDegrees>37.05391966737806797027587890625</LatitudeDegrees>
              <LongitudeDegrees>-3.3431256003677845001220703125</LongitudeDegrees>
            </Position>
            <AltitudeMeters>3078.39990234375</AltitudeMeters>
            <DistanceMeters>7569.0240790134</DistanceMeters>
          </Trackpoint>
          <Trackpoint>
            <Time>2019-07-14T11:37:45.000Z</Time>
            <Position>
              <LatitudeDegrees>37.05391631461679935455322265625</LatitudeDegrees>
              <LongitudeDegrees>-3.3431115187704563140869140625</LongitudeDegrees>
            </Position>
            <AltitudeMeters>3078.60009765625</AltitudeMeters>
            <DistanceMeters>7570.3270196765</DistanceMeters>
          </Trackpoint>
          <Trackpoint>
            <Time>2019-07-14T11:37:46.000Z</Time>
            <Position>
              <LatitudeDegrees>37.053915895521640777587890625</LatitudeDegrees>
              <LongitudeDegrees>-3.343097604811191558837890625</LongitudeDegrees>
            </Position>
            <AltitudeMeters>3078.60009765625</AltitudeMeters>
            <DistanceMeters>7571.5660164462</DistanceMeters>
          </Trackpoint>
          <Trackpoint>
            <Time>2019-07-14T11:37:47.000Z</Time>
            <Position>
              <LatitudeDegrees>37.053915895521640777587890625</LatitudeDegrees>
              <LongitudeDegrees>-3.3430850319564342498779296875</LongitudeDegrees>
            </Position>
            <AltitudeMeters>3078.60009765625</AltitudeMeters>
            <DistanceMeters>7572.6823275808</DistanceMeters>
          </Trackpoint>
          <Trackpoint>
            <Time>2019-07-14T11:37:48.000Z</Time>
            <Position>
              <LatitudeDegrees>37.05391354858875274658203125</LatitudeDegrees>
              <LongitudeDegrees>-3.343072794377803802490234375</LongitudeDegrees>
            </Position>
            <AltitudeMeters>3078.39990234375</AltitudeMeters>
            <DistanceMeters>7573.8026760203</DistanceMeters>
          </Trackpoint>
          <Trackpoint>
            <Time>2019-07-14T11:37:49.000Z</Time>
            <Position>
              <LatitudeDegrees>37.05391086637973785400390625</LatitudeDegrees>
              <LongitudeDegrees>-3.34306030534207820892333984375</LongitudeDegrees>
            </Position>
            <AltitudeMeters>3078.39990234375</AltitudeMeters>
            <DistanceMeters>7574.9508881787</DistanceMeters>
          </Trackpoint>
          <Trackpoint>
            <Time>2019-07-14T11:38:07.000Z</Time>
            <Position>
              <LatitudeDegrees>37.05389385111629962921142578125</LatitudeDegrees>
              <LongitudeDegrees>-3.3428238518536090850830078125</LongitudeDegrees>
            </Position>
            <AltitudeMeters>3078.199951171875</AltitudeMeters>
            <DistanceMeters>7596.0395406929</DistanceMeters>
          </Trackpoint>
          <Trackpoint>
            <Time>2019-07-14T11:38:13.000Z</Time>
            <Position>
              <LatitudeDegrees>37.05388345755636692047119140625</LatitudeDegrees>
              <LongitudeDegrees>-3.34274514578282833099365234375</LongitudeDegrees>
            </Position>
            <AltitudeMeters>3078.800048828125</AltitudeMeters>
            <DistanceMeters>7603.1252463761</DistanceMeters>
          </Trackpoint>
          <Trackpoint>
            <Time>2019-07-14T11:38:14.000Z</Time>
            <Position>
              <LatitudeDegrees>37.0538847148418426513671875</LatitudeDegrees>
              <LongitudeDegrees>-3.3427311480045318603515625</LongitudeDegrees>
            </Position>
            <AltitudeMeters>3078.800048828125</AltitudeMeters>
            <DistanceMeters>7604.3751276604</DistanceMeters>
          </Trackpoint>
          <Trackpoint>
            <Time>2019-07-14T11:38:15.000Z</Time>
            <Position>
              <LatitudeDegrees>37.053886391222476959228515625</LatitudeDegrees>
              <LongitudeDegrees>-3.34271782077848911285400390625</LongitudeDegrees>
            </Position>
            <AltitudeMeters>3078.800048828125</AltitudeMeters>
            <DistanceMeters>7605.5771310843</DistanceMeters>
          </Trackpoint>
          <Trackpoint>
            <Time>2019-07-14T11:38:16.000Z</Time>
            <Position>
              <LatitudeDegrees>37.05388664267957210540771484375</LatitudeDegrees>
              <LongitudeDegrees>-3.3427054993808269500732421875</LongitudeDegrees>
            </Position>
            <AltitudeMeters>3078.800048828125</AltitudeMeters>
            <DistanceMeters>7606.6689049118</DistanceMeters>
          </Trackpoint>
          <Trackpoint>
            <Time>2019-07-14T11:38:17.000Z</Time>
            <Position>
              <LatitudeDegrees>37.05388597212731838226318359375</LatitudeDegrees>
              <LongitudeDegrees>-3.342691920697689056396484375</LongitudeDegrees>
            </Position>
            <AltitudeMeters>3079</AltitudeMeters>
            <DistanceMeters>7607.8783975261</DistanceMeters>
          </Trackpoint>
          <Trackpoint>
            <Time>2019-07-14T11:38:23.000Z</Time>
            <Position>
              <LatitudeDegrees>37.05390173010528087615966796875</LatitudeDegrees>
              <LongitudeDegrees>-3.34261371754109859466552734375</LongitudeDegrees>
            </Position>
            <AltitudeMeters>3079.39990234375</AltitudeMeters>
            <DistanceMeters>7615.0433109648</DistanceMeters>
          </Trackpoint>
          <Trackpoint>
            <Time>2019-07-14T11:38:40.000Z</Time>
            <Position>
              <LatitudeDegrees>37.05392603762447834014892578125</LatitudeDegrees>
              <LongitudeDegrees>-3.3423839695751667022705078125</LongitudeDegrees>
            </Position>
            <AltitudeMeters>3079.800048828125</AltitudeMeters>
            <DistanceMeters>7635.6294839358</DistanceMeters>
          </Trackpoint>
          <Trackpoint>
            <Time>2019-07-14T11:38:57.000Z</Time>
            <Position>
              <LatitudeDegrees>37.053950093686580657958984375</LatitudeDegrees>
              <LongitudeDegrees>-3.34215489216148853302001953125</LongitudeDegrees>
            </Position>
            <AltitudeMeters>3079.199951171875</AltitudeMeters>
            <DistanceMeters>7656.1530544293</DistanceMeters>
          </Trackpoint>
          <Trackpoint>
            <Time>2019-07-14T11:39:05.000Z</Time>
            <Position>
              <LatitudeDegrees>37.0539499260485172271728515625</LatitudeDegrees>
              <LongitudeDegrees>-3.34204391576349735260009765625</LongitudeDegrees>
            </Position>
            <AltitudeMeters>3079.39990234375</AltitudeMeters>
            <DistanceMeters>7666.0106734428</DistanceMeters>
          </Trackpoint>
          <Trackpoint>
            <Time>2019-07-14T11:39:06.000Z</Time>
            <Position>
              <LatitudeDegrees>37.0539516024291515350341796875</LatitudeDegrees>
              <LongitudeDegrees>-3.3420322649180889129638671875</LongitudeDegrees>
            </Position>
            <AltitudeMeters>3079.39990234375</AltitudeMeters>
            <DistanceMeters>7667.0602778092</DistanceMeters>
          </Trackpoint>
          <Trackpoint>
            <Time>2019-07-14T11:39:18.000Z</Time>
            <Position>
              <LatitudeDegrees>37.053956128656864166259765625</LatitudeDegrees>
              <LongitudeDegrees>-3.3418619446456432342529296875</LongitudeDegrees>
            </Position>
            <AltitudeMeters>3081</AltitudeMeters>
            <DistanceMeters>7682.1975889894</DistanceMeters>
          </Trackpoint>
          <Trackpoint>
            <Time>2019-07-14T11:39:35.000Z</Time>
            <Position>
              <LatitudeDegrees>37.05397431738674640655517578125</LatitudeDegrees>
              <LongitudeDegrees>-3.3416135050356388092041015625</LongitudeDegrees>
            </Position>
            <AltitudeMeters>3081.39990234375</AltitudeMeters>
            <DistanceMeters>7704.3585848488</DistanceMeters>
          </Trackpoint>
          <Trackpoint>
            <Time>2019-07-14T11:39:46.000Z</Time>
            <Position>
              <LatitudeDegrees>37.05397699959576129913330078125</LatitudeDegrees>
              <LongitudeDegrees>-3.3414639718830585479736328125</LongitudeDegrees>
            </Position>
            <AltitudeMeters>3081.60009765625</AltitudeMeters>
            <DistanceMeters>7717.6446653215</DistanceMeters>
          </Trackpoint>
          <Trackpoint>
            <Time>2019-07-14T11:39:47.000Z</Time>
            <Position>
              <LatitudeDegrees>37.0539770834147930145263671875</LatitudeDegrees>
              <LongitudeDegrees>-3.341452069580554962158203125</LongitudeDegrees>
            </Position>
            <AltitudeMeters>3081.800048828125</AltitudeMeters>
            <DistanceMeters>7718.7028380291</DistanceMeters>
          </Trackpoint>
          <Trackpoint>
            <Time>2019-07-14T11:39:48.000Z</Time>
            <Position>
              <LatitudeDegrees>37.0539774186909198760986328125</LatitudeDegrees>
              <LongitudeDegrees>-3.3414391614496707916259765625</LongitudeDegrees>
            </Position>
            <AltitudeMeters>3081.60009765625</AltitudeMeters>
            <DistanceMeters>7719.8549757107</DistanceMeters>
          </Trackpoint>
          <Trackpoint>
            <Time>2019-07-14T11:39:49.000Z</Time>
            <Position>
              <LatitudeDegrees>37.053982280194759368896484375</LatitudeDegrees>
              <LongitudeDegrees>-3.3414222300052642822265625</LongitudeDegrees>
            </Position>
            <AltitudeMeters>3081.60009765625</AltitudeMeters>
            <DistanceMeters>7721.4507456055</DistanceMeters>
          </Trackpoint>
          <Trackpoint>
            <Time>2019-07-14T11:39:50.000Z</Time>
            <Position>
              <LatitudeDegrees>37.05398454330861568450927734375</LatitudeDegrees>
              <LongitudeDegrees>-3.34140772931277751922607421875</LongitudeDegrees>
            </Position>
            <AltitudeMeters>3081.39990234375</AltitudeMeters>
            <DistanceMeters>7722.7605984691</DistanceMeters>
          </Trackpoint>
          <Trackpoint>
            <Time>2019-07-14T11:39:51.000Z</Time>
            <Position>
              <LatitudeDegrees>37.0539847947657108306884765625</LatitudeDegrees>
              <LongitudeDegrees>-3.3413952402770519256591796875</LongitudeDegrees>
            </Position>
            <AltitudeMeters>3081.39990234375</AltitudeMeters>
            <DistanceMeters>7723.8687908695</DistanceMeters>
          </Trackpoint>
          <Trackpoint>
            <Time>2019-07-14T11:40:04.000Z</Time>
            <Position>
              <LatitudeDegrees>37.0540240220725536346435546875</LatitudeDegrees>
              <LongitudeDegrees>-3.3412165381014347076416015625</LongitudeDegrees>
            </Position>
            <AltitudeMeters>3081.199951171875</AltitudeMeters>
            <DistanceMeters>7740.331740617</DistanceMeters>
          </Trackpoint>
          <Trackpoint>
            <Time>2019-07-14T11:40:05.000Z</Time>
            <Position>
              <LatitudeDegrees>37.05403181724250316619873046875</LatitudeDegrees>
              <LongitudeDegrees>-3.341203965246677398681640625</LongitudeDegrees>
            </Position>
            <AltitudeMeters>3081</AltitudeMeters>
            <DistanceMeters>7741.7412145677</DistanceMeters>
          </Trackpoint>
          <Trackpoint>
            <Time>2019-07-14T11:40:06.000Z</Time>
            <Position>
              <LatitudeDegrees>37.0540367625653743743896484375</LatitudeDegrees>
              <LongitudeDegrees>-3.3411937393248081207275390625</LongitudeDegrees>
            </Position>
            <AltitudeMeters>3081</AltitudeMeters>
            <DistanceMeters>7742.7993872753</DistanceMeters>
          </Trackpoint>
          <Trackpoint>
            <Time>2019-07-14T11:40:07.000Z</Time>
            <Position>
              <LatitudeDegrees>37.05404019914567470550537109375</LatitudeDegrees>
              <LongitudeDegrees>-3.34118326194584369659423828125</LongitudeDegrees>
            </Position>
            <AltitudeMeters>3081</AltitudeMeters>
            <DistanceMeters>7743.8050554918</DistanceMeters>
          </Trackpoint>
          <Trackpoint>
            <Time>2019-07-14T11:40:08.000Z</Time>
            <Position>
              <LatitudeDegrees>37.0540448091924190521240234375</LatitudeDegrees>
              <LongitudeDegrees>-3.34116809070110321044921875</LongitudeDegrees>
            </Position>
            <AltitudeMeters>3080.800048828125</AltitudeMeters>
            <DistanceMeters>7745.2462069697</DistanceMeters>
          </Trackpoint>
          <Trackpoint>
            <Time>2019-07-14T11:40:15.000Z</Time>
            <Position>
              <LatitudeDegrees>37.05407707951962947845458984375</LatitudeDegrees>
              <LongitudeDegrees>-3.3410753868520259857177734375</LongitudeDegrees>
            </Position>
            <AltitudeMeters>3080.199951171875</AltitudeMeters>
            <DistanceMeters>7754.2306297854</DistanceMeters>
          </Trackpoint>
          <Trackpoint>
            <Time>2019-07-14T11:40:16.000Z</Time>
            <Position>
              <LatitudeDegrees>37.05407842062413692474365234375</LatitudeDegrees>
              <LongitudeDegrees>-3.34106390364468097686767578125</LongitudeDegrees>
            </Position>
            <AltitudeMeters>3080</AltitudeMeters>
            <DistanceMeters>7755.2628841244</DistanceMeters>
          </Trackpoint>
          <Trackpoint>
            <Time>2019-07-14T11:40:34.000Z</Time>
            <Position>
              <LatitudeDegrees>37.054125778377056121826171875</LatitudeDegrees>
              <LongitudeDegrees>-3.340837843716144561767578125</LongitudeDegrees>
            </Position>
            <AltitudeMeters>3079</AltitudeMeters>
            <DistanceMeters>7776.0231222858</DistanceMeters>
          </Trackpoint>
          <Trackpoint>
            <Time>2019-07-14T11:40:49.000Z</Time>
            <Position>
              <LatitudeDegrees>37.0541326515376567840576171875</LatitudeDegrees>
              <LongitudeDegrees>-3.3405969478189945220947265625</LongitudeDegrees>
            </Position>
            <AltitudeMeters>3077.39990234375</AltitudeMeters>
            <DistanceMeters>7797.4347308443</DistanceMeters>
          </Trackpoint>
          <Trackpoint>
            <Time>2019-07-14T11:41:08.000Z</Time>
            <Position>
              <LatitudeDegrees>37.054080851376056671142578125</LatitudeDegrees>
              <LongitudeDegrees>-3.34034909494221210479736328125</LongitudeDegrees>
            </Position>
            <AltitudeMeters>3076.199951171875</AltitudeMeters>
            <DistanceMeters>7820.1927857814</DistanceMeters>
          </Trackpoint>
          <Trackpoint>
            <Time>2019-07-14T11:41:26.000Z</Time>
            <Position>
              <LatitudeDegrees>37.05405746586620807647705078125</LatitudeDegrees>
              <LongitudeDegrees>-3.3401050977408885955810546875</LongitudeDegrees>
            </Position>
            <AltitudeMeters>3077.199951171875</AltitudeMeters>
            <DistanceMeters>7842.0218513562</DistanceMeters>
          </Trackpoint>
          <Trackpoint>
            <Time>2019-07-14T11:41:44.000Z</Time>
            <Position>
              <LatitudeDegrees>37.05399728380143642425537109375</LatitudeDegrees>
              <LongitudeDegrees>-3.33987819962203502655029296875</LongitudeDegrees>
            </Position>
            <AltitudeMeters>3077.39990234375</AltitudeMeters>
            <DistanceMeters>7863.2604814581</DistanceMeters>
          </Trackpoint>
          <Trackpoint>
            <Time>2019-07-14T11:41:50.000Z</Time>
            <Position>
              <LatitudeDegrees>37.0539827831089496612548828125</LatitudeDegrees>
              <LongitudeDegrees>-3.339803516864776611328125</LongitudeDegrees>
            </Position>
            <AltitudeMeters>3077.800048828125</AltitudeMeters>
            <DistanceMeters>7870.0885327673</DistanceMeters>
          </Trackpoint>
          <Trackpoint>
            <Time>2019-07-14T11:41:52.000Z</Time>
            <Position>
              <LatitudeDegrees>37.053976245224475860595703125</LatitudeDegrees>
              <LongitudeDegrees>-3.33978943526744842529296875</LongitudeDegrees>
            </Position>
            <AltitudeMeters>3077.800048828125</AltitudeMeters>
            <DistanceMeters>7871.5359365585</DistanceMeters>
          </Trackpoint>
          <Trackpoint>
            <Time>2019-07-14T11:41:55.000Z</Time>
            <Position>
              <LatitudeDegrees>37.0539670251309871673583984375</LatitudeDegrees>
              <LongitudeDegrees>-3.339752890169620513916015625</LongitudeDegrees>
            </Position>
            <AltitudeMeters>3077.800048828125</AltitudeMeters>
            <DistanceMeters>7874.9396974311</DistanceMeters>
          </Trackpoint>
          <Trackpoint>
            <Time>2019-07-14T11:41:56.000Z</Time>
            <Position>
              <LatitudeDegrees>37.053963840007781982421875</LatitudeDegrees>
              <LongitudeDegrees>-3.33973738364875316619873046875</LongitudeDegrees>
            </Position>
            <AltitudeMeters>3077.800048828125</AltitudeMeters>
            <DistanceMeters>7876.3619270621</DistanceMeters>
          </Trackpoint>
          <Trackpoint>
            <Time>2019-07-14T11:41:57.000Z</Time>
            <Position>
              <LatitudeDegrees>37.0539640076458454132080078125</LatitudeDegrees>
              <LongitudeDegrees>-3.3397202007472515106201171875</LongitudeDegrees>
            </Position>
            <AltitudeMeters>3078</AltitudeMeters>
            <DistanceMeters>7877.8912372985</DistanceMeters>
          </Trackpoint>
          <Trackpoint>
            <Time>2019-07-14T11:41:58.000Z</Time>
            <Position>
              <LatitudeDegrees>37.05396316945552825927734375</LatitudeDegrees>
              <LongitudeDegrees>-3.3397051133215427398681640625</LongitudeDegrees>
            </Position>
            <AltitudeMeters>3078</AltitudeMeters>
            <DistanceMeters>7879.235117981</DistanceMeters>
          </Trackpoint>
          <Trackpoint>
            <Time>2019-07-14T11:41:59.000Z</Time>
            <Position>
              <LatitudeDegrees>37.05396140925586223602294921875</LatitudeDegrees>
              <LongitudeDegrees>-3.33969153463840484619140625</LongitudeDegrees>
            </Position>
            <AltitudeMeters>3078</AltitudeMeters>
            <DistanceMeters>7880.4594515506</DistanceMeters>
          </Trackpoint>
          <Trackpoint>
            <Time>2019-07-14T11:42:00.000Z</Time>
            <Position>
              <LatitudeDegrees>37.053958810865879058837890625</LatitudeDegrees>
              <LongitudeDegrees>-3.33967954851686954498291015625</LongitudeDegrees>
            </Position>
            <AltitudeMeters>3077.800048828125</AltitudeMeters>
            <DistanceMeters>7881.5594652976</DistanceMeters>
          </Trackpoint>
          <Trackpoint>
            <Time>2019-07-14T11:42:19.000Z</Time>
            <Position>
              <LatitudeDegrees>37.05392293632030487060546875</LatitudeDegrees>
              <LongitudeDegrees>-3.3394534885883331298828125</LongitudeDegrees>
            </Position>
            <AltitudeMeters>3078.60009765625</AltitudeMeters>
            <DistanceMeters>7902.0328159851</DistanceMeters>
          </Trackpoint>
          <Trackpoint>
            <Time>2019-07-14T11:42:35.000Z</Time>
            <Position>
              <LatitudeDegrees>37.05393039621412754058837890625</LatitudeDegrees>
              <LongitudeDegrees>-3.33927453495562076568603515625</LongitudeDegrees>
            </Position>
            <AltitudeMeters>3081.60009765625</AltitudeMeters>
            <DistanceMeters>7917.9502870426</DistanceMeters>
          </Trackpoint>
          <Trackpoint>
            <Time>2019-07-14T11:42:58.000Z</Time>
            <Position>
              <LatitudeDegrees>37.0539288036525249481201171875</LatitudeDegrees>
              <LongitudeDegrees>-3.33904914557933807373046875</LongitudeDegrees>
            </Position>
            <AltitudeMeters>3083.60009765625</AltitudeMeters>
            <DistanceMeters>7937.9716287415</DistanceMeters>
          </Trackpoint>
          <Trackpoint>
            <Time>2019-07-14T11:43:20.000Z</Time>
            <Position>
              <LatitudeDegrees>37.05391547642648220062255859375</LatitudeDegrees>
              <LongitudeDegrees>-3.33881084807217121124267578125</LongitudeDegrees>
            </Position>
            <AltitudeMeters>3085.39990234375</AltitudeMeters>
            <DistanceMeters>7959.1909046869</DistanceMeters>
          </Trackpoint>
          <Trackpoint>
            <Time>2019-07-14T11:43:39.000Z</Time>
            <Position>
              <LatitudeDegrees>37.05388044007122516632080078125</LatitudeDegrees>
              <LongitudeDegrees>-3.33859493024647235870361328125</LongitudeDegrees>
            </Position>
            <AltitudeMeters>3086.800048828125</AltitudeMeters>
            <DistanceMeters>7978.7624864492</DistanceMeters>
          </Trackpoint>
          <Trackpoint>
            <Time>2019-07-14T11:43:54.000Z</Time>
            <Position>
              <LatitudeDegrees>37.0538677833974361419677734375</LatitudeDegrees>
              <LongitudeDegrees>-3.3384018950164318084716796875</LongitudeDegrees>
            </Position>
            <AltitudeMeters>3086.60009765625</AltitudeMeters>
            <DistanceMeters>7995.9667837519</DistanceMeters>
          </Trackpoint>
          <Trackpoint>
            <Time>2019-07-14T11:43:57.000Z</Time>
            <Position>
              <LatitudeDegrees>37.0538651011884212493896484375</LatitudeDegrees>
              <LongitudeDegrees>-3.3383646793663501739501953125</LongitudeDegrees>
            </Position>
            <AltitudeMeters>3086.60009765625</AltitudeMeters>
            <DistanceMeters>7999.2845636097</DistanceMeters>
          </Trackpoint>
          <Trackpoint>
            <Time>2019-07-14T11:43:58.000Z</Time>
            <Position>
              <LatitudeDegrees>37.05386535264551639556884765625</LatitudeDegrees>
              <LongitudeDegrees>-3.3383505977690219879150390625</LongitudeDegrees>
            </Position>
            <AltitudeMeters>3086.800048828125</AltitudeMeters>
            <DistanceMeters>8000.530827285</DistanceMeters>
          </Trackpoint>
          <Trackpoint>
            <Time>2019-07-14T11:44:18.000Z</Time>
            <Position>
              <LatitudeDegrees>37.05384992994368076324462890625</LatitudeDegrees>
              <LongitudeDegrees>-3.33811129443347454071044921875</LongitudeDegrees>
            </Position>
            <AltitudeMeters>3088.60009765625</AltitudeMeters>
            <DistanceMeters>8021.8562278644</DistanceMeters>
          </Trackpoint>
          <Trackpoint>
            <Time>2019-07-14T11:44:19.000Z</Time>
            <Position>
              <LatitudeDegrees>37.05385009758174419403076171875</LatitudeDegrees>
              <LongitudeDegrees>-3.3381008170545101165771484375</LongitudeDegrees>
            </Position>
            <AltitudeMeters>3088.60009765625</AltitudeMeters>
            <DistanceMeters>8022.787295713</DistanceMeters>
          </Trackpoint>
          <Trackpoint>
            <Time>2019-07-14T11:44:20.000Z</Time>
            <Position>
              <LatitudeDegrees>37.05385160632431507110595703125</LatitudeDegrees>
              <LongitudeDegrees>-3.33809084258973598480224609375</LongitudeDegrees>
            </Position>
            <AltitudeMeters>3088.60009765625</AltitudeMeters>
            <DistanceMeters>8023.6937927931</DistanceMeters>
          </Trackpoint>
          <Trackpoint>
            <Time>2019-07-14T11:44:21.000Z</Time>
            <Position>
              <LatitudeDegrees>37.05385093577206134796142578125</LatitudeDegrees>
              <LongitudeDegrees>-3.3380801975727081298828125</LongitudeDegrees>
            </Position>
            <AltitudeMeters>3088.800048828125</AltitudeMeters>
            <DistanceMeters>8024.6440599368</DistanceMeters>
          </Trackpoint>
          <Trackpoint>
            <Time>2019-07-14T11:44:30.000Z</Time>
            <Position>
              <LatitudeDegrees>37.05385160632431507110595703125</LatitudeDegrees>
              <LongitudeDegrees>-3.33798891864717006683349609375</LongitudeDegrees>
            </Position>
            <AltitudeMeters>3089.39990234375</AltitudeMeters>
            <DistanceMeters>8032.7520163077</DistanceMeters>
          </Trackpoint>
          <Trackpoint>
            <Time>2019-07-14T11:44:31.000Z</Time>
            <Position>
              <LatitudeDegrees>37.0538516901433467864990234375</LatitudeDegrees>
              <LongitudeDegrees>-3.33797735162079334259033203125</LongitudeDegrees>
            </Position>
            <AltitudeMeters>3089.39990234375</AltitudeMeters>
            <DistanceMeters>8033.7842706467</DistanceMeters>
          </Trackpoint>
          <Trackpoint>
            <Time>2019-07-14T11:44:57.000Z</Time>
            <Position>
              <LatitudeDegrees>37.053892426192760467529296875</LatitudeDegrees>
              <LongitudeDegrees>-3.33777719177305698394775390625</LongitudeDegrees>
            </Position>
            <AltitudeMeters>3092.39990234375</AltitudeMeters>
            <DistanceMeters>8052.133040909</DistanceMeters>
          </Trackpoint>
          <Trackpoint>
            <Time>2019-07-14T11:45:26.000Z</Time>
            <Position>
              <LatitudeDegrees>37.05399812199175357818603515625</LatitudeDegrees>
              <LongitudeDegrees>-3.33763838745653629302978515625</LongitudeDegrees>
            </Position>
            <AltitudeMeters>3095</AltitudeMeters>
            <DistanceMeters>8069.1743805992</DistanceMeters>
          </Trackpoint>
          <Trackpoint>
            <Time>2019-07-14T11:45:53.000Z</Time>
            <Position>
              <LatitudeDegrees>37.0540307275950908660888671875</LatitudeDegrees>
              <LongitudeDegrees>-3.33748650737106800079345703125</LongitudeDegrees>
            </Position>
            <AltitudeMeters>3098.199951171875</AltitudeMeters>
            <DistanceMeters>8083.1452467977</DistanceMeters>
          </Trackpoint>
          <Trackpoint>
            <Time>2019-07-14T11:46:24.000Z</Time>
            <Position>
              <LatitudeDegrees>37.05405595712363719940185546875</LatitudeDegrees>
              <LongitudeDegrees>-3.33737972192466259002685546875</LongitudeDegrees>
            </Position>
            <AltitudeMeters>3101.199951171875</AltitudeMeters>
            <DistanceMeters>8093.0380708889</DistanceMeters>
          </Trackpoint>
          <Trackpoint>
            <Time>2019-07-14T11:46:35.000Z</Time>
            <Position>
              <LatitudeDegrees>37.05408546142280101776123046875</LatitudeDegrees>
              <LongitudeDegrees>-3.33730394951999187469482421875</LongitudeDegrees>
            </Position>
            <AltitudeMeters>3104.800048828125</AltitudeMeters>
            <DistanceMeters>8100.5277194033</DistanceMeters>
          </Trackpoint>
          <Trackpoint>
            <Time>2019-07-14T11:46:46.000Z</Time>
            <Position>
              <LatitudeDegrees>37.0541034825146198272705078125</LatitudeDegrees>
              <LongitudeDegrees>-3.3372120000422000885009765625</LongitudeDegrees>
            </Position>
            <AltitudeMeters>3107.800048828125</AltitudeMeters>
            <DistanceMeters>8108.9385231023</DistanceMeters>
          </Trackpoint>
          <Trackpoint>
            <Time>2019-07-14T11:46:57.000Z</Time>
            <Position>
              <LatitudeDegrees>37.05411882139742374420166015625</LatitudeDegrees>
              <LongitudeDegrees>-3.337132036685943603515625</LongitudeDegrees>
            </Position>
            <AltitudeMeters>3109.39990234375</AltitudeMeters>
            <DistanceMeters>8116.243228552</DistanceMeters>
          </Trackpoint>
          <Trackpoint>
            <Time>2019-07-14T11:47:06.000Z</Time>
            <Position>
              <LatitudeDegrees>37.0541219227015972137451171875</LatitudeDegrees>
              <LongitudeDegrees>-3.3370636403560638427734375</LongitudeDegrees>
            </Position>
            <AltitudeMeters>3110.199951171875</AltitudeMeters>
            <DistanceMeters>8122.3286491206</DistanceMeters>
          </Trackpoint>
          <Trackpoint>
            <Time>2019-07-14T11:47:30.000Z</Time>
            <Position>
              <LatitudeDegrees>37.05411764793097972869873046875</LatitudeDegrees>
              <LongitudeDegrees>-3.33684328012168407440185546875</LongitudeDegrees>
            </Position>
            <AltitudeMeters>3113</AltitudeMeters>
            <DistanceMeters>8141.9080728934</DistanceMeters>
          </Trackpoint>
          <Trackpoint>
            <Time>2019-07-14T11:48:23.000Z</Time>
            <Position>
              <LatitudeDegrees>37.05412250943481922149658203125</LatitudeDegrees>
              <LongitudeDegrees>-3.33673280663788318634033203125</LongitudeDegrees>
            </Position>
            <AltitudeMeters>3116.199951171875</AltitudeMeters>
            <DistanceMeters>8151.736334577</DistanceMeters>
          </Trackpoint>
          <Trackpoint>
            <Time>2019-07-14T11:48:37.000Z</Time>
            <Position>
              <LatitudeDegrees>37.0541427098214626312255859375</LatitudeDegrees>
              <LongitudeDegrees>-3.3366202376782894134521484375</LongitudeDegrees>
            </Position>
            <AltitudeMeters>3119.199951171875</AltitudeMeters>
            <DistanceMeters>8161.9851320282</DistanceMeters>
          </Trackpoint>
          <Trackpoint>
            <Time>2019-07-14T11:49:15.000Z</Time>
            <Position>
              <LatitudeDegrees>37.054144553840160369873046875</LatitudeDegrees>
              <LongitudeDegrees>-3.336375318467617034912109375</LongitudeDegrees>
            </Position>
            <AltitudeMeters>3121.39990234375</AltitudeMeters>
            <DistanceMeters>8183.7414770117</DistanceMeters>
          </Trackpoint>
          <Trackpoint>
            <Time>2019-07-14T11:49:37.000Z</Time>
            <Position>
              <LatitudeDegrees>37.05417104065418243408203125</LatitudeDegrees>
              <LongitudeDegrees>-3.33619250915944576263427734375</LongitudeDegrees>
            </Position>
            <AltitudeMeters>3124.39990234375</AltitudeMeters>
            <DistanceMeters>8200.2449665125</DistanceMeters>
          </Trackpoint>
          <Trackpoint>
            <Time>2019-07-14T11:50:28.000Z</Time>
            <Position>
              <LatitudeDegrees>37.05417397432029247283935546875</LatitudeDegrees>
              <LongitudeDegrees>-3.3359778486192226409912109375</LongitudeDegrees>
            </Position>
            <AltitudeMeters>3127.199951171875</AltitudeMeters>
            <DistanceMeters>8219.3152915937</DistanceMeters>
          </Trackpoint>
          <Trackpoint>
            <Time>2019-07-14T11:50:54.000Z</Time>
            <Position>
              <LatitudeDegrees>37.05419342033565044403076171875</LatitudeDegrees>
              <LongitudeDegrees>-3.33596351556479930877685546875</LongitudeDegrees>
            </Position>
            <AltitudeMeters>3125.800048828125</AltitudeMeters>
            <DistanceMeters>8221.8276656571</DistanceMeters>
          </Trackpoint>
          <Trackpoint>
            <Time>2019-07-14T11:51:08.000Z</Time>
            <Position>
              <LatitudeDegrees>37.05420012585818767547607421875</LatitudeDegrees>
              <LongitudeDegrees>-3.33593384362757205963134765625</LongitudeDegrees>
            </Position>
            <AltitudeMeters>3127.39990234375</AltitudeMeters>
            <DistanceMeters>8224.5653587459</DistanceMeters>
          </Trackpoint>
          <Trackpoint>
            <Time>2019-07-14T11:51:14.000Z</Time>
            <Position>
              <LatitudeDegrees>37.0541950128972530364990234375</LatitudeDegrees>
              <LongitudeDegrees>-3.33588003180921077728271484375</LongitudeDegrees>
            </Position>
            <AltitudeMeters>3127.39990234375</AltitudeMeters>
            <DistanceMeters>8229.3790035349</DistanceMeters>
          </Trackpoint>
          <Trackpoint>
            <Time>2019-07-14T11:51:28.000Z</Time>
            <Position>
              <LatitudeDegrees>37.05422057770192623138427734375</LatitudeDegrees>
              <LongitudeDegrees>-3.3358004875481128692626953125</LongitudeDegrees>
            </Position>
            <AltitudeMeters>3130.60009765625</AltitudeMeters>
            <DistanceMeters>8236.9953813536</DistanceMeters>
          </Trackpoint>
          <Trackpoint>
            <Time>2019-07-14T11:51:53.000Z</Time>
            <Position>
              <LatitudeDegrees>37.0542365871369838714599609375</LatitudeDegrees>
              <LongitudeDegrees>-3.33561114035546779632568359375</LongitudeDegrees>
            </Position>
            <AltitudeMeters>3133.60009765625</AltitudeMeters>
            <DistanceMeters>8253.9082679054</DistanceMeters>
          </Trackpoint>
          <Trackpoint>
            <Time>2019-07-14T11:52:26.000Z</Time>
            <Position>
              <LatitudeDegrees>37.0542334020137786865234375</LatitudeDegrees>
              <LongitudeDegrees>-3.33540092222392559051513671875</LongitudeDegrees>
            </Position>
            <AltitudeMeters>3136.60009765625</AltitudeMeters>
            <DistanceMeters>8272.5845834628</DistanceMeters>
          </Trackpoint>
          <Trackpoint>
            <Time>2019-07-14T11:52:45.000Z</Time>
            <Position>
              <LatitudeDegrees>37.054215632379055023193359375</LatitudeDegrees>
              <LongitudeDegrees>-3.33525977097451686859130859375</LongitudeDegrees>
            </Position>
            <AltitudeMeters>3138.39990234375</AltitudeMeters>
            <DistanceMeters>8285.2780327178</DistanceMeters>
          </Trackpoint>
          <Trackpoint>
            <Time>2019-07-14T11:52:46.000Z</Time>
            <Position>
              <LatitudeDegrees>37.0542111061513423919677734375</LatitudeDegrees>
              <LongitudeDegrees>-3.33525155670940876007080078125</LongitudeDegrees>
            </Position>
            <AltitudeMeters>3138.39990234375</AltitudeMeters>
            <DistanceMeters>8286.1643829029</DistanceMeters>
          </Trackpoint>
          <Trackpoint>
            <Time>2019-07-14T11:53:13.000Z</Time>
            <Position>
              <LatitudeDegrees>37.05419526435434818267822265625</LatitudeDegrees>
              <LongitudeDegrees>-3.3350695855915546417236328125</LongitudeDegrees>
            </Position>
            <AltitudeMeters>3141.39990234375</AltitudeMeters>
            <DistanceMeters>8302.424228478</DistanceMeters>
          </Trackpoint>
          <Trackpoint>
            <Time>2019-07-14T11:53:40.000Z</Time>
            <Position>
              <LatitudeDegrees>37.05418889410793781280517578125</LatitudeDegrees>
              <LongitudeDegrees>-3.334883339703083038330078125</LongitudeDegrees>
            </Position>
            <AltitudeMeters>3144.60009765625</AltitudeMeters>
            <DistanceMeters>8318.9834344161</DistanceMeters>
          </Trackpoint>
          <Trackpoint>
            <Time>2019-07-14T11:54:01.000Z</Time>
            <Position>
              <LatitudeDegrees>37.05417213030159473419189453125</LatitudeDegrees>
              <LongitudeDegrees>-3.3347167074680328369140625</LongitudeDegrees>
            </Position>
            <AltitudeMeters>3147.60009765625</AltitudeMeters>
            <DistanceMeters>8333.9020232942</DistanceMeters>
          </Trackpoint>
          <Trackpoint>
            <Time>2019-07-14T11:54:23.000Z</Time>
            <Position>
              <LatitudeDegrees>37.0541849546134471893310546875</LatitudeDegrees>
              <LongitudeDegrees>-3.33457580767571926116943359375</LongitudeDegrees>
            </Position>
            <AltitudeMeters>3150.800048828125</AltitudeMeters>
            <DistanceMeters>8346.4987094962</DistanceMeters>
          </Trackpoint>
          <Trackpoint>
            <Time>2019-07-14T11:54:36.000Z</Time>
            <Position>
              <LatitudeDegrees>37.05420188605785369873046875</LatitudeDegrees>
              <LongitudeDegrees>-3.334504477679729461669921875</LongitudeDegrees>
            </Position>
            <AltitudeMeters>3152.39990234375</AltitudeMeters>
            <DistanceMeters>8353.1097283276</DistanceMeters>
          </Trackpoint>
          <Trackpoint>
            <Time>2019-07-14T11:54:53.000Z</Time>
            <Position>
              <LatitudeDegrees>37.05425125546753406524658203125</LatitudeDegrees>
              <LongitudeDegrees>-3.334397859871387481689453125</LongitudeDegrees>
            </Position>
            <AltitudeMeters>3155.60009765625</AltitudeMeters>
            <DistanceMeters>8364.0592637034</DistanceMeters>
          </Trackpoint>
          <Trackpoint>
            <Time>2019-07-14T11:55:16.000Z</Time>
            <Position>
              <LatitudeDegrees>37.0542602241039276123046875</LatitudeDegrees>
              <LongitudeDegrees>-3.3342518471181392669677734375</LongitudeDegrees>
            </Position>
            <AltitudeMeters>3158.60009765625</AltitudeMeters>
            <DistanceMeters>8377.0671679315</DistanceMeters>
          </Trackpoint>
          <Trackpoint>
            <Time>2019-07-14T11:55:40.000Z</Time>
            <Position>
              <LatitudeDegrees>37.0542416162788867950439453125</LatitudeDegrees>
              <LongitudeDegrees>-3.33406903780996799468994140625</LongitudeDegrees>
            </Position>
            <AltitudeMeters>3161.199951171875</AltitudeMeters>
            <DistanceMeters>8393.4368813827</DistanceMeters>
          </Trackpoint>
          <Trackpoint>
            <Time>2019-07-14T11:55:41.000Z</Time>
            <Position>
              <LatitudeDegrees>37.054239101707935333251953125</LatitudeDegrees>
              <LongitudeDegrees>-3.3340595662593841552734375</LongitudeDegrees>
            </Position>
            <AltitudeMeters>3161.199951171875</AltitudeMeters>
            <DistanceMeters>8394.3181228787</DistanceMeters>
          </Trackpoint>
          <Trackpoint>
            <Time>2019-07-14T11:55:42.000Z</Time>
            <Position>
              <LatitudeDegrees>37.05423432402312755584716796875</LatitudeDegrees>
              <LongitudeDegrees>-3.33405084908008575439453125</LongitudeDegrees>
            </Position>
            <AltitudeMeters>3161.39990234375</AltitudeMeters>
            <DistanceMeters>8395.2588393564</DistanceMeters>
          </Trackpoint>
          <Trackpoint>
            <Time>2019-07-14T11:55:43.000Z</Time>
            <Position>
              <LatitudeDegrees>37.05422870814800262451171875</LatitudeDegrees>
              <LongitudeDegrees>-3.33404137752950191497802734375</LongitudeDegrees>
            </Position>
            <AltitudeMeters>3161.39990234375</AltitudeMeters>
            <DistanceMeters>8396.2998048569</DistanceMeters>
          </Trackpoint>
          <Trackpoint>
            <Time>2019-07-14T11:56:08.000Z</Time>
            <Position>
              <LatitudeDegrees>37.05420481972396373748779296875</LatitudeDegrees>
              <LongitudeDegrees>-3.333819173276424407958984375</LongitudeDegrees>
            </Position>
            <AltitudeMeters>3164.39990234375</AltitudeMeters>
            <DistanceMeters>8416.2155543463</DistanceMeters>
          </Trackpoint>
          <Trackpoint>
            <Time>2019-07-14T11:56:34.000Z</Time>
            <Position>
              <LatitudeDegrees>37.0541631616652011871337890625</LatitudeDegrees>
              <LongitudeDegrees>-3.33358909003436565399169921875</LongitudeDegrees>
            </Position>
            <AltitudeMeters>3167</AltitudeMeters>
            <DistanceMeters>8437.1725538454</DistanceMeters>
          </Trackpoint>
          <Trackpoint>
            <Time>2019-07-14T11:56:55.000Z</Time>
            <Position>
              <LatitudeDegrees>37.0541286282241344451904296875</LatitudeDegrees>
              <LongitudeDegrees>-3.333360850811004638671875</LongitudeDegrees>
            </Position>
            <AltitudeMeters>3168</AltitudeMeters>
            <DistanceMeters>8457.8073592616</DistanceMeters>
          </Trackpoint>
          <Trackpoint>
            <Time>2019-07-14T11:57:20.000Z</Time>
            <Position>
              <LatitudeDegrees>37.05412837676703929901123046875</LatitudeDegrees>
              <LongitudeDegrees>-3.33312724716961383819580078125</LongitudeDegrees>
            </Position>
            <AltitudeMeters>3170.60009765625</AltitudeMeters>
            <DistanceMeters>8478.5573731152</DistanceMeters>
          </Trackpoint>
          <Trackpoint>
            <Time>2019-07-14T11:57:25.000Z</Time>
            <Position>
              <LatitudeDegrees>37.05412569455802440643310546875</LatitudeDegrees>
              <LongitudeDegrees>-3.33308449946343898773193359375</LongitudeDegrees>
            </Position>
            <AltitudeMeters>3170.800048828125</AltitudeMeters>
            <DistanceMeters>8482.366747453</DistanceMeters>
          </Trackpoint>
          <Trackpoint>
            <Time>2019-07-14T11:57:31.000Z</Time>
            <Position>
              <LatitudeDegrees>37.05414019525051116943359375</LatitudeDegrees>
              <LongitudeDegrees>-3.3330378122627735137939453125</LongitudeDegrees>
            </Position>
            <AltitudeMeters>3170.800048828125</AltitudeMeters>
            <DistanceMeters>8486.8157841538</DistanceMeters>
          </Trackpoint>
          <Trackpoint>
            <Time>2019-07-14T11:57:59.000Z</Time>
            <Position>
              <LatitudeDegrees>37.05422778613865375518798828125</LatitudeDegrees>
              <LongitudeDegrees>-3.33296815864741802215576171875</LongitudeDegrees>
            </Position>
            <AltitudeMeters>3167.60009765625</AltitudeMeters>
            <DistanceMeters>8498.3622142782</DistanceMeters>
          </Trackpoint>
          <Trackpoint>
            <Time>2019-07-14T11:58:07.000Z</Time>
            <Position>
              <LatitudeDegrees>37.05426282249391078948974609375</LatitudeDegrees>
              <LongitudeDegrees>-3.332925997674465179443359375</LongitudeDegrees>
            </Position>
            <AltitudeMeters>3164.39990234375</AltitudeMeters>
            <DistanceMeters>8503.7695599788</DistanceMeters>
          </Trackpoint>
          <Trackpoint>
            <Time>2019-07-14T11:58:19.000Z</Time>
            <Position>
              <LatitudeDegrees>37.0543004572391510009765625</LatitudeDegrees>
              <LongitudeDegrees>-3.3328695036470890045166015625</LongitudeDegrees>
            </Position>
            <AltitudeMeters>3161.199951171875</AltitudeMeters>
            <DistanceMeters>8510.3057126435</DistanceMeters>
          </Trackpoint>
          <Trackpoint>
            <Time>2019-07-14T11:58:29.000Z</Time>
            <Position>
              <LatitudeDegrees>37.05435066483914852142333984375</LatitudeDegrees>
              <LongitudeDegrees>-3.33282331936061382293701171875</LongitudeDegrees>
            </Position>
            <AltitudeMeters>3160</AltitudeMeters>
            <DistanceMeters>8517.23810522</DistanceMeters>
          </Trackpoint>
          <Trackpoint>
            <Time>2019-07-14T11:58:35.000Z</Time>
            <Position>
              <LatitudeDegrees>37.05436089076101779937744140625</LatitudeDegrees>
              <LongitudeDegrees>-3.33277738653123378753662109375</LongitudeDegrees>
            </Position>
            <AltitudeMeters>3157</AltitudeMeters>
            <DistanceMeters>8521.4729289256</DistanceMeters>
          </Trackpoint>
          <Trackpoint>
            <Time>2019-07-14T11:58:41.000Z</Time>
            <Position>
              <LatitudeDegrees>37.054398357868194580078125</LatitudeDegrees>
              <LongitudeDegrees>-3.33274771459400653839111328125</LongitudeDegrees>
            </Position>
            <AltitudeMeters>3154.199951171875</AltitudeMeters>
            <DistanceMeters>8526.4051724253</DistanceMeters>
          </Trackpoint>
          <Trackpoint>
            <Time>2019-07-14T11:58:51.000Z</Time>
            <Position>
              <LatitudeDegrees>37.05447002314031124114990234375</LatitudeDegrees>
              <LongitudeDegrees>-3.332693316042423248291015625</LongitudeDegrees>
            </Position>
            <AltitudeMeters>3153.800048828125</AltitudeMeters>
            <DistanceMeters>8535.7313557983</DistanceMeters>
          </Trackpoint>
          <Trackpoint>
            <Time>2019-07-14T11:58:52.000Z</Time>
            <Position>
              <LatitudeDegrees>37.054479159414768218994140625</LatitudeDegrees>
              <LongitudeDegrees>-3.3326897956430912017822265625</LongitudeDegrees>
            </Position>
            <AltitudeMeters>3153.800048828125</AltitudeMeters>
            <DistanceMeters>8536.7980280216</DistanceMeters>
          </Trackpoint>
          <Trackpoint>
            <Time>2019-07-14T11:59:32.000Z</Time>
            <Position>
              <LatitudeDegrees>37.054511010646820068359375</LatitudeDegrees>
              <LongitudeDegrees>-3.33265869878232479095458984375</LongitudeDegrees>
            </Position>
            <AltitudeMeters>3151.800048828125</AltitudeMeters>
            <DistanceMeters>8541.2925002938</DistanceMeters>
          </Trackpoint>
          <Trackpoint>
            <Time>2019-07-14T11:59:46.000Z</Time>
            <Position>
              <LatitudeDegrees>37.05454847775399684906005859375</LatitudeDegrees>
              <LongitudeDegrees>-3.33260538987815380096435546875</LongitudeDegrees>
            </Position>
            <AltitudeMeters>3148.39990234375</AltitudeMeters>
            <DistanceMeters>8547.6023027504</DistanceMeters>
          </Trackpoint>
          <Trackpoint>
            <Time>2019-07-14T12:00:06.000Z</Time>
            <Position>
              <LatitudeDegrees>37.054744027554988861083984375</LatitudeDegrees>
              <LongitudeDegrees>-3.33250732161104679107666015625</LongitudeDegrees>
            </Position>
            <AltitudeMeters>3146</AltitudeMeters>
            <DistanceMeters>8571.0459921504</DistanceMeters>
          </Trackpoint>
          <Trackpoint>
            <Time>2019-07-14T12:00:19.000Z</Time>
            <Position>
              <LatitudeDegrees>37.054857350885868072509765625</LatitudeDegrees>
              <LongitudeDegrees>-3.3324198983609676361083984375</LongitudeDegrees>
            </Position>
            <AltitudeMeters>3143</AltitudeMeters>
            <DistanceMeters>8585.8582764901</DistanceMeters>
          </Trackpoint>
          <Trackpoint>
            <Time>2019-07-14T12:00:20.000Z</Time>
            <Position>
              <LatitudeDegrees>37.054865062236785888671875</LatitudeDegrees>
              <LongitudeDegrees>-3.3324131928384304046630859375</LongitudeDegrees>
            </Position>
            <AltitudeMeters>3142.800048828125</AltitudeMeters>
            <DistanceMeters>8586.9078808566</DistanceMeters>
          </Trackpoint>
          <Trackpoint>
            <Time>2019-07-14T12:00:21.000Z</Time>
            <Position>
              <LatitudeDegrees>37.0548716001212596893310546875</LatitudeDegrees>
              <LongitudeDegrees>-3.3324041403830051422119140625</LongitudeDegrees>
            </Position>
            <AltitudeMeters>3142.60009765625</AltitudeMeters>
            <DistanceMeters>8587.9913521011</DistanceMeters>
          </Trackpoint>
          <Trackpoint>
            <Time>2019-07-14T12:00:22.000Z</Time>
            <Position>
              <LatitudeDegrees>37.05487755127251148223876953125</LatitudeDegrees>
              <LongitudeDegrees>-3.33239282481372356414794921875</LongitudeDegrees>
            </Position>
            <AltitudeMeters>3142.199951171875</AltitudeMeters>
            <DistanceMeters>8589.1971059348</DistanceMeters>
          </Trackpoint>
          <Trackpoint>
            <Time>2019-07-14T12:00:23.000Z</Time>
            <Position>
              <LatitudeDegrees>37.054881490767002105712890625</LatitudeDegrees>
              <LongitudeDegrees>-3.33238360472023487091064453125</LongitudeDegrees>
            </Position>
            <AltitudeMeters>3142</AltitudeMeters>
            <DistanceMeters>8590.1281737834</DistanceMeters>
          </Trackpoint>
          <Trackpoint>
            <Time>2019-07-14T12:00:24.000Z</Time>
            <Position>
              <LatitudeDegrees>37.0548873580992221832275390625</LatitudeDegrees>
              <LongitudeDegrees>-3.332376815378665924072265625</LongitudeDegrees>
            </Position>
            <AltitudeMeters>3141.800048828125</AltitudeMeters>
            <DistanceMeters>8591.0094152793</DistanceMeters>
          </Trackpoint>
          <Trackpoint>
            <Time>2019-07-14T12:00:48.000Z</Time>
            <Position>
              <LatitudeDegrees>37.0550412498414516448974609375</LatitudeDegrees>
              <LongitudeDegrees>-3.33226072601974010467529296875</LongitudeDegrees>
            </Position>
            <AltitudeMeters>3141.199951171875</AltitudeMeters>
            <DistanceMeters>8611.0020965331</DistanceMeters>
          </Trackpoint>
          <Trackpoint>
            <Time>2019-07-14T12:00:53.000Z</Time>
            <Position>
              <LatitudeDegrees>37.05506463535130023956298828125</LatitudeDegrees>
              <LongitudeDegrees>-3.3322194032371044158935546875</LongitudeDegrees>
            </Position>
            <AltitudeMeters>3141.199951171875</AltitudeMeters>
            <DistanceMeters>8615.5015888808</DistanceMeters>
          </Trackpoint>
          <Trackpoint>
            <Time>2019-07-14T12:00:54.000Z</Time>
            <Position>
              <LatitudeDegrees>37.055065892636775970458984375</LatitudeDegrees>
              <LongitudeDegrees>-3.3322090096771717071533203125</LongitudeDegrees>
            </Position>
            <AltitudeMeters>3141.199951171875</AltitudeMeters>
            <DistanceMeters>8616.4326567294</DistanceMeters>
          </Trackpoint>
          <Trackpoint>
            <Time>2019-07-14T12:00:55.000Z</Time>
            <Position>
              <LatitudeDegrees>37.05506731756031513214111328125</LatitudeDegrees>
              <LongitudeDegrees>-3.33219903521239757537841796875</LongitudeDegrees>
            </Position>
            <AltitudeMeters>3141.199951171875</AltitudeMeters>
            <DistanceMeters>8617.3341592973</DistanceMeters>
          </Trackpoint>
          <Trackpoint>
            <Time>2019-07-14T12:00:59.000Z</Time>
            <Position>
              <LatitudeDegrees>37.05509833060204982757568359375</LatitudeDegrees>
              <LongitudeDegrees>-3.332177661359310150146484375</LongitudeDegrees>
            </Position>
            <AltitudeMeters>3140.39990234375</AltitudeMeters>
            <DistanceMeters>8621.2728991124</DistanceMeters>
          </Trackpoint>
          <Trackpoint>
            <Time>2019-07-14T12:01:19.000Z</Time>
            <Position>
              <LatitudeDegrees>37.055192291736602783203125</LatitudeDegrees>
              <LongitudeDegrees>-3.33201765082776546478271484375</LongitudeDegrees>
            </Position>
            <AltitudeMeters>3137.199951171875</AltitudeMeters>
            <DistanceMeters>8638.9192345986</DistanceMeters>
          </Trackpoint>
          <Trackpoint>
            <Time>2019-07-14T12:01:43.000Z</Time>
            <Position>
              <LatitudeDegrees>37.055318690836429595947265625</LatitudeDegrees>
              <LongitudeDegrees>-3.3318261243402957916259765625</LongitudeDegrees>
            </Position>
            <AltitudeMeters>3134</AltitudeMeters>
            <DistanceMeters>8660.9951082077</DistanceMeters>
          </Trackpoint>
          <Trackpoint>
            <Time>2019-07-14T12:01:56.000Z</Time>
            <Position>
              <LatitudeDegrees>37.05537443049252033233642578125</LatitudeDegrees>
              <LongitudeDegrees>-3.33170584402978420257568359375</LongitudeDegrees>
            </Position>
            <AltitudeMeters>3130.800048828125</AltitudeMeters>
            <DistanceMeters>8673.3493120289</DistanceMeters>
          </Trackpoint>
          <Trackpoint>
            <Time>2019-07-14T12:01:58.000Z</Time>
            <Position>
              <LatitudeDegrees>37.05538616515696048736572265625</LatitudeDegrees>
              <LongitudeDegrees>-3.3316884934902191162109375</LongitudeDegrees>
            </Position>
            <AltitudeMeters>3130</AltitudeMeters>
            <DistanceMeters>8675.3696076886</DistanceMeters>
          </Trackpoint>
          <Trackpoint>
            <Time>2019-07-14T12:02:08.000Z</Time>
            <Position>
              <LatitudeDegrees>37.05544685013592243194580078125</LatitudeDegrees>
              <LongitudeDegrees>-3.33159352652728557586669921875</LongitudeDegrees>
            </Position>
            <AltitudeMeters>3128.199951171875</AltitudeMeters>
            <DistanceMeters>8686.1759460404</DistanceMeters>
          </Trackpoint>
          <Trackpoint>
            <Time>2019-07-14T12:02:09.000Z</Time>
            <Position>
              <LatitudeDegrees>37.0554546453058719635009765625</LatitudeDegrees>
              <LongitudeDegrees>-3.33158480934798717498779296875</LongitudeDegrees>
            </Position>
            <AltitudeMeters>3128.199951171875</AltitudeMeters>
            <DistanceMeters>8687.3397808511</DistanceMeters>
          </Trackpoint>
          <Trackpoint>
            <Time>2019-07-14T12:02:10.000Z</Time>
            <Position>
              <LatitudeDegrees>37.055460177361965179443359375</LatitudeDegrees>
              <LongitudeDegrees>-3.33157357759773731231689453125</LongitudeDegrees>
            </Position>
            <AltitudeMeters>3128</AltitudeMeters>
            <DistanceMeters>8688.5113488685</DistanceMeters>
          </Trackpoint>
          <Trackpoint>
            <Time>2019-07-14T12:02:13.000Z</Time>
            <Position>
              <LatitudeDegrees>37.0554737560451030731201171875</LatitudeDegrees>
              <LongitudeDegrees>-3.33154474385082721710205078125</LongitudeDegrees>
            </Position>
            <AltitudeMeters>3128.60009765625</AltitudeMeters>
            <DistanceMeters>8691.4831185033</DistanceMeters>
          </Trackpoint>
          <Trackpoint>
            <Time>2019-07-14T12:02:16.000Z</Time>
            <Position>
              <LatitudeDegrees>37.055476605892181396484375</LatitudeDegrees>
              <LongitudeDegrees>-3.33152420818805694580078125</LongitudeDegrees>
            </Position>
            <AltitudeMeters>3130.199951171875</AltitudeMeters>
            <DistanceMeters>8693.3355301878</DistanceMeters>
          </Trackpoint>
          <Trackpoint>
            <Time>2019-07-14T12:02:21.000Z</Time>
            <Position>
              <LatitudeDegrees>37.05550552345812320709228515625</LatitudeDegrees>
              <LongitudeDegrees>-3.3314851485192775726318359375</LongitudeDegrees>
            </Position>
            <AltitudeMeters>3128.199951171875</AltitudeMeters>
            <DistanceMeters>8698.0678223999</DistanceMeters>
          </Trackpoint>
          <Trackpoint>
            <Time>2019-07-14T12:02:22.000Z</Time>
            <Position>
              <LatitudeDegrees>37.05551482737064361572265625</LatitudeDegrees>
              <LongitudeDegrees>-3.33148171193897724151611328125</LongitudeDegrees>
            </Position>
            <AltitudeMeters>3128</AltitudeMeters>
            <DistanceMeters>8699.1471184025</DistanceMeters>
          </Trackpoint>
          <Trackpoint>
            <Time>2019-07-14T12:02:46.000Z</Time>
            <Position>
              <LatitudeDegrees>37.05560795031487941741943359375</LatitudeDegrees>
              <LongitudeDegrees>-3.33131943829357624053955078125</LongitudeDegrees>
            </Position>
            <AltitudeMeters>3124.60009765625</AltitudeMeters>
            <DistanceMeters>8716.9008452867</DistanceMeters>
          </Trackpoint>
          <Trackpoint>
            <Time>2019-07-14T12:03:23.000Z</Time>
            <Position>
              <LatitudeDegrees>37.05573141574859619140625</LatitudeDegrees>
              <LongitudeDegrees>-3.33116034977138042449951171875</LongitudeDegrees>
            </Position>
            <AltitudeMeters>3122.800048828125</AltitudeMeters>
            <DistanceMeters>8736.6117315935</DistanceMeters>
          </Trackpoint>
          <Trackpoint>
            <Time>2019-07-14T12:04:01.000Z</Time>
            <Position>
              <LatitudeDegrees>37.0558371953666210174560546875</LatitudeDegrees>
              <LongitudeDegrees>-3.33104216493666172027587890625</LongitudeDegrees>
            </Position>
            <AltitudeMeters>3121.199951171875</AltitudeMeters>
            <DistanceMeters>8752.3855937185</DistanceMeters>
          </Trackpoint>
          <Trackpoint>
            <Time>2019-07-14T12:04:45.000Z</Time>
            <Position>
              <LatitudeDegrees>37.05583107657730579376220703125</LatitudeDegrees>
              <LongitudeDegrees>-3.330935798585414886474609375</LongitudeDegrees>
            </Position>
            <AltitudeMeters>3118</AltitudeMeters>
            <DistanceMeters>8761.8587610716</DistanceMeters>
          </Trackpoint>
          <Trackpoint>
            <Time>2019-07-14T12:04:55.000Z</Time>
            <Position>
              <LatitudeDegrees>37.05584616400301456451416015625</LatitudeDegrees>
              <LongitudeDegrees>-3.3309426717460155487060546875</LongitudeDegrees>
            </Position>
            <AltitudeMeters>3117.39990234375</AltitudeMeters>
            <DistanceMeters>8763.646678033</DistanceMeters>
          </Trackpoint>
          <Trackpoint>
            <Time>2019-07-14T12:05:29.000Z</Time>
            <Position>
              <LatitudeDegrees>37.05585949122905731201171875</LatitudeDegrees>
              <LongitudeDegrees>-3.3308033645153045654296875</LongitudeDegrees>
            </Position>
            <AltitudeMeters>3114.39990234375</AltitudeMeters>
            <DistanceMeters>8776.109314786</DistanceMeters>
          </Trackpoint>
          <Trackpoint>
            <Time>2019-07-14T12:05:39.000Z</Time>
            <Position>
              <LatitudeDegrees>37.05585706047713756561279296875</LatitudeDegrees>
              <LongitudeDegrees>-3.33077251911163330078125</LongitudeDegrees>
            </Position>
            <AltitudeMeters>3114.199951171875</AltitudeMeters>
            <DistanceMeters>8778.8634506238</DistanceMeters>
          </Trackpoint>
          <Trackpoint>
            <Time>2019-07-14T12:05:49.000Z</Time>
            <Position>
              <LatitudeDegrees>37.0558666996657848358154296875</LatitudeDegrees>
              <LongitudeDegrees>-3.33074226044118404388427734375</LongitudeDegrees>
            </Position>
            <AltitudeMeters>3115.199951171875</AltitudeMeters>
            <DistanceMeters>8781.7582582063</DistanceMeters>
          </Trackpoint>
          <Trackpoint>
            <Time>2019-07-14T12:05:52.000Z</Time>
            <Position>
              <LatitudeDegrees>37.0558787696063518524169921875</LatitudeDegrees>
              <LongitudeDegrees>-3.3307230658829212188720703125</LongitudeDegrees>
            </Position>
            <AltitudeMeters>3114.800048828125</AltitudeMeters>
            <DistanceMeters>8783.9293638932</DistanceMeters>
          </Trackpoint>
          <Trackpoint>
            <Time>2019-07-14T12:05:53.000Z</Time>
            <Position>
              <LatitudeDegrees>37.05587960779666900634765625</LatitudeDegrees>
              <LongitudeDegrees>-3.3307175338268280029296875</LongitudeDegrees>
            </Position>
            <AltitudeMeters>3114.60009765625</AltitudeMeters>
            <DistanceMeters>8784.4321980015</DistanceMeters>
          </Trackpoint>
          <Trackpoint>
            <Time>2019-07-14T12:06:06.000Z</Time>
            <Position>
              <LatitudeDegrees>37.05593434162437915802001953125</LatitudeDegrees>
              <LongitudeDegrees>-3.330637402832508087158203125</LongitudeDegrees>
            </Position>
            <AltitudeMeters>3111.39990234375</AltitudeMeters>
            <DistanceMeters>8793.8004055653</DistanceMeters>
          </Trackpoint>
          <Trackpoint>
            <Time>2019-07-14T12:06:22.000Z</Time>
            <Position>
              <LatitudeDegrees>37.0559555478394031524658203125</LatitudeDegrees>
              <LongitudeDegrees>-3.33057780750095844268798828125</LongitudeDegrees>
            </Position>
            <AltitudeMeters>3109</AltitudeMeters>
            <DistanceMeters>8799.5962561821</DistanceMeters>
          </Trackpoint>
          <Trackpoint>
            <Time>2019-07-14T12:06:59.000Z</Time>
            <Position>
              <LatitudeDegrees>37.0560906641185283660888671875</LatitudeDegrees>
              <LongitudeDegrees>-3.3303894661366939544677734375</LongitudeDegrees>
            </Position>
            <AltitudeMeters>3106.199951171875</AltitudeMeters>
            <DistanceMeters>8822.0913094998</DistanceMeters>
          </Trackpoint>
          <Trackpoint>
            <Time>2019-07-14T12:07:08.000Z</Time>
            <Position>
              <LatitudeDegrees>37.05610834993422031402587890625</LatitudeDegrees>
              <LongitudeDegrees>-3.33038586191833019256591796875</LongitudeDegrees>
            </Position>
            <AltitudeMeters>3103.60009765625</AltitudeMeters>
            <DistanceMeters>8824.0846066766</DistanceMeters>
          </Trackpoint>
          <Trackpoint>
            <Time>2019-07-14T12:07:12.000Z</Time>
            <Position>
              <LatitudeDegrees>37.05609150230884552001953125</LatitudeDegrees>
              <LongitudeDegrees>-3.330378569662570953369140625</LongitudeDegrees>
            </Position>
            <AltitudeMeters>3103.199951171875</AltitudeMeters>
            <DistanceMeters>8826.0665459424</DistanceMeters>
          </Trackpoint>
          <Trackpoint>
            <Time>2019-07-14T12:07:14.000Z</Time>
            <Position>
              <LatitudeDegrees>37.05607549287378787994384765625</LatitudeDegrees>
              <LongitudeDegrees>-3.33037328906357288360595703125</LongitudeDegrees>
            </Position>
            <AltitudeMeters>3103</AltitudeMeters>
            <DistanceMeters>8827.9067303534</DistanceMeters>
          </Trackpoint>
          <Trackpoint>
            <Time>2019-07-14T12:07:22.000Z</Time>
            <Position>
              <LatitudeDegrees>37.056055627763271331787109375</LatitudeDegrees>
              <LongitudeDegrees>-3.3303499035537242889404296875</LongitudeDegrees>
            </Position>
            <AltitudeMeters>3102.800048828125</AltitudeMeters>
            <DistanceMeters>8830.9386633705</DistanceMeters>
          </Trackpoint>
          <Trackpoint>
            <Time>2019-07-14T12:07:32.000Z</Time>
            <Position>
              <LatitudeDegrees>37.05605638213455677032470703125</LatitudeDegrees>
              <LongitudeDegrees>-3.3303455449640750885009765625</LongitudeDegrees>
            </Position>
            <AltitudeMeters>3103</AltitudeMeters>
            <DistanceMeters>8831.3418275752</DistanceMeters>
          </Trackpoint>
          <Trackpoint>
            <Time>2019-07-14T12:07:38.000Z</Time>
            <Position>
              <LatitudeDegrees>37.05605856142938137054443359375</LatitudeDegrees>
              <LongitudeDegrees>-3.3303314633667469024658203125</LongitudeDegrees>
            </Position>
            <AltitudeMeters>3102.39990234375</AltitudeMeters>
            <DistanceMeters>8832.6167447333</DistanceMeters>
          </Trackpoint>
          <Trackpoint>
            <Time>2019-07-14T12:07:40.000Z</Time>
            <Position>
              <LatitudeDegrees>37.056060321629047393798828125</LatitudeDegrees>
              <LongitudeDegrees>-3.330349065363407135009765625</LongitudeDegrees>
            </Position>
            <AltitudeMeters>3102.199951171875</AltitudeMeters>
            <DistanceMeters>8834.1954470797</DistanceMeters>
          </Trackpoint>
          <Trackpoint>
            <Time>2019-07-14T12:07:48.000Z</Time>
            <Position>
              <LatitudeDegrees>37.05606275238096714019775390625</LatitudeDegrees>
              <LongitudeDegrees>-3.33037488162517547607421875</LongitudeDegrees>
            </Position>
            <AltitudeMeters>3101.39990234375</AltitudeMeters>
            <DistanceMeters>8836.5036379517</DistanceMeters>
          </Trackpoint>
          <Trackpoint>
            <Time>2019-07-14T12:08:02.000Z</Time>
            <Position>
              <LatitudeDegrees>37.0561040751636028289794921875</LatitudeDegrees>
              <LongitudeDegrees>-3.330367170274257659912109375</LongitudeDegrees>
            </Position>
            <AltitudeMeters>3101.800048828125</AltitudeMeters>
            <DistanceMeters>8841.1531543789</DistanceMeters>
          </Trackpoint>
          <Trackpoint>
            <Time>2019-07-14T12:08:10.000Z</Time>
            <Position>
              <LatitudeDegrees>37.0560975372791290283203125</LatitudeDegrees>
              <LongitudeDegrees>-3.33040329627692699432373046875</LongitudeDegrees>
            </Position>
            <AltitudeMeters>3100</AltitudeMeters>
            <DistanceMeters>8844.4422319973</DistanceMeters>
          </Trackpoint>
          <Trackpoint>
            <Time>2019-07-14T12:08:17.000Z</Time>
            <Position>
              <LatitudeDegrees>37.0561164803802967071533203125</LatitudeDegrees>
              <LongitudeDegrees>-3.3303877897560596466064453125</LongitudeDegrees>
            </Position>
            <AltitudeMeters>3100.39990234375</AltitudeMeters>
            <DistanceMeters>8846.959991649</DistanceMeters>
          </Trackpoint>
          <Trackpoint>
            <Time>2019-07-14T12:08:38.000Z</Time>
            <Position>
              <LatitudeDegrees>37.05613299272954463958740234375</LatitudeDegrees>
              <LongitudeDegrees>-3.33024135790765285491943359375</LongitudeDegrees>
            </Position>
            <AltitudeMeters>3097.60009765625</AltitudeMeters>
            <DistanceMeters>8860.0956949302</DistanceMeters>
          </Trackpoint>
          <Trackpoint>
            <Time>2019-07-14T12:08:46.000Z</Time>
            <Position>
              <LatitudeDegrees>37.05613802187144756317138671875</LatitudeDegrees>
              <LongitudeDegrees>-3.33023197017610073089599609375</LongitudeDegrees>
            </Position>
            <AltitudeMeters>3096.39990234375</AltitudeMeters>
            <DistanceMeters>8861.0968634901</DistanceMeters>
          </Trackpoint>
          <Trackpoint>
            <Time>2019-07-14T12:09:20.000Z</Time>
            <Position>
              <LatitudeDegrees>37.0560812763869762420654296875</LatitudeDegrees>
              <LongitudeDegrees>-3.33003717474639415740966796875</LongitudeDegrees>
            </Position>
            <AltitudeMeters>3093.39990234375</AltitudeMeters>
            <DistanceMeters>8879.515874647</DistanceMeters>
          </Trackpoint>
          <Trackpoint>
            <Time>2019-07-14T12:09:35.000Z</Time>
            <Position>
              <LatitudeDegrees>37.056102566421031951904296875</LatitudeDegrees>
              <LongitudeDegrees>-3.32991278730332851409912109375</LongitudeDegrees>
            </Position>
            <AltitudeMeters>3091.60009765625</AltitudeMeters>
            <DistanceMeters>8890.8156658361</DistanceMeters>
          </Trackpoint>
          <Trackpoint>
            <Time>2019-07-14T12:09:36.000Z</Time>
            <Position>
              <LatitudeDegrees>37.0561002194881439208984375</LatitudeDegrees>
              <LongitudeDegrees>-3.3299019746482372283935546875</LongitudeDegrees>
            </Position>
            <AltitudeMeters>3091.39990234375</AltitudeMeters>
            <DistanceMeters>8891.8077738607</DistanceMeters>
          </Trackpoint>
          <Trackpoint>
            <Time>2019-07-14T12:09:37.000Z</Time>
            <Position>
              <LatitudeDegrees>37.0560960285365581512451171875</LatitudeDegrees>
              <LongitudeDegrees>-3.32989149726927280426025390625</LongitudeDegrees>
            </Position>
            <AltitudeMeters>3091</AltitudeMeters>
            <DistanceMeters>8892.8487393612</DistanceMeters>
          </Trackpoint>
          <Trackpoint>
            <Time>2019-07-14T12:09:44.000Z</Time>
            <Position>
              <LatitudeDegrees>37.056083790957927703857421875</LatitudeDegrees>
              <LongitudeDegrees>-3.32981388084590435028076171875</LongitudeDegrees>
            </Position>
            <AltitudeMeters>3089.199951171875</AltitudeMeters>
            <DistanceMeters>8899.8762202806</DistanceMeters>
          </Trackpoint>
          <Trackpoint>
            <Time>2019-07-14T12:09:50.000Z</Time>
            <Position>
              <LatitudeDegrees>37.05608479678630828857421875</LatitudeDegrees>
              <LongitudeDegrees>-3.32976057194173336029052734375</LongitudeDegrees>
            </Position>
            <AltitudeMeters>3088.60009765625</AltitudeMeters>
            <DistanceMeters>8904.6123273198</DistanceMeters>
          </Trackpoint>
          <Trackpoint>
            <Time>2019-07-14T12:09:51.000Z</Time>
            <Position>
              <LatitudeDegrees>37.0560873113572597503662109375</LatitudeDegrees>
              <LongitudeDegrees>-3.3297500945627689361572265625</LongitudeDegrees>
            </Position>
            <AltitudeMeters>3088.39990234375</AltitudeMeters>
            <DistanceMeters>8905.5860613834</DistanceMeters>
          </Trackpoint>
          <Trackpoint>
            <Time>2019-07-14T12:09:52.000Z</Time>
            <Position>
              <LatitudeDegrees>37.0560894906520843505859375</LatitudeDegrees>
              <LongitudeDegrees>-3.329739868640899658203125</LongitudeDegrees>
            </Position>
            <AltitudeMeters>3088.39990234375</AltitudeMeters>
            <DistanceMeters>8906.5267778611</DistanceMeters>
          </Trackpoint>
          <Trackpoint>
            <Time>2019-07-14T12:09:56.000Z</Time>
            <Position>
              <LatitudeDegrees>37.05608437769114971160888671875</LatitudeDegrees>
              <LongitudeDegrees>-3.32969418726861476898193359375</LongitudeDegrees>
            </Position>
            <AltitudeMeters>3087.800048828125</AltitudeMeters>
            <DistanceMeters>8910.6228591631</DistanceMeters>
          </Trackpoint>
          <Trackpoint>
            <Time>2019-07-14T12:09:57.000Z</Time>
            <Position>
              <LatitudeDegrees>37.05608789809048175811767578125</LatitudeDegrees>
              <LongitudeDegrees>-3.3296822011470794677734375</LongitudeDegrees>
            </Position>
            <AltitudeMeters>3087.800048828125</AltitudeMeters>
            <DistanceMeters>8911.755233154</DistanceMeters>
          </Trackpoint>
          <Trackpoint>
            <Time>2019-07-14T12:10:08.000Z</Time>
            <Position>
              <LatitudeDegrees>37.05608320422470569610595703125</LatitudeDegrees>
              <LongitudeDegrees>-3.32953979261219501495361328125</LongitudeDegrees>
            </Position>
            <AltitudeMeters>3087.39990234375</AltitudeMeters>
            <DistanceMeters>8924.4155592509</DistanceMeters>
          </Trackpoint>
          <Trackpoint>
            <Time>2019-07-14T12:10:22.000Z</Time>
            <Position>
              <LatitudeDegrees>37.05604297108948230743408203125</LatitudeDegrees>
              <LongitudeDegrees>-3.3294515311717987060546875</LongitudeDegrees>
            </Position>
            <AltitudeMeters>3085.800048828125</AltitudeMeters>
            <DistanceMeters>8933.4440973418</DistanceMeters>
          </Trackpoint>
          <Trackpoint>
            <Time>2019-07-14T12:10:26.000Z</Time>
            <Position>
              <LatitudeDegrees>37.05603710375726222991943359375</LatitudeDegrees>
              <LongitudeDegrees>-3.329422362148761749267578125</LongitudeDegrees>
            </Position>
            <AltitudeMeters>3085.60009765625</AltitudeMeters>
            <DistanceMeters>8936.1150073723</DistanceMeters>
          </Trackpoint>
          <Trackpoint>
            <Time>2019-07-14T12:10:27.000Z</Time>
            <Position>
              <LatitudeDegrees>37.05603006295859813690185546875</LatitudeDegrees>
              <LongitudeDegrees>-3.32941305823624134063720703125</LongitudeDegrees>
            </Position>
            <AltitudeMeters>3085.60009765625</AltitudeMeters>
            <DistanceMeters>8937.2553279447</DistanceMeters>
          </Trackpoint>
          <Trackpoint>
            <Time>2019-07-14T12:10:28.000Z</Time>
            <Position>
              <LatitudeDegrees>37.0560277998447418212890625</LatitudeDegrees>
              <LongitudeDegrees>-3.32939880900084972381591796875</LongitudeDegrees>
            </Position>
            <AltitudeMeters>3085.60009765625</AltitudeMeters>
            <DistanceMeters>8938.5478309977</DistanceMeters>
          </Trackpoint>
          <Trackpoint>
            <Time>2019-07-14T12:10:29.000Z</Time>
            <Position>
              <LatitudeDegrees>37.05603073351085186004638671875</LatitudeDegrees>
              <LongitudeDegrees>-3.32938506267964839935302734375</LongitudeDegrees>
            </Position>
            <AltitudeMeters>3085.60009765625</AltitudeMeters>
            <DistanceMeters>8939.8120792054</DistanceMeters>
          </Trackpoint>
          <Trackpoint>
            <Time>2019-07-14T12:10:30.000Z</Time>
            <Position>
              <LatitudeDegrees>37.05603140406310558319091796875</LatitudeDegrees>
              <LongitudeDegrees>-3.32937751896679401397705078125</LongitudeDegrees>
            </Position>
            <AltitudeMeters>3085.39990234375</AltitudeMeters>
            <DistanceMeters>8940.4907056849</DistanceMeters>
          </Trackpoint>
          <Trackpoint>
            <Time>2019-07-14T12:10:54.000Z</Time>
            <Position>
              <LatitudeDegrees>37.05603274516761302947998046875</LatitudeDegrees>
              <LongitudeDegrees>-3.32914282567799091339111328125</LongitudeDegrees>
            </Position>
            <AltitudeMeters>3084.199951171875</AltitudeMeters>
            <DistanceMeters>8961.3377562939</DistanceMeters>
          </Trackpoint>
          <Trackpoint>
            <Time>2019-07-14T12:11:20.000Z</Time>
            <Position>
              <LatitudeDegrees>37.05602603964507579803466796875</LatitudeDegrees>
              <LongitudeDegrees>-3.329026065766811370849609375</LongitudeDegrees>
            </Position>
            <AltitudeMeters>3081</AltitudeMeters>
            <DistanceMeters>8971.7361280578</DistanceMeters>
          </Trackpoint>
          <Trackpoint>
            <Time>2019-07-14T12:11:39.000Z</Time>
            <Position>
              <LatitudeDegrees>37.0559982955455780029296875</LatitudeDegrees>
              <LongitudeDegrees>-3.32888935692608356475830078125</LongitudeDegrees>
            </Position>
            <AltitudeMeters>3081.800048828125</AltitudeMeters>
            <DistanceMeters>8984.2659688012</DistanceMeters>
          </Trackpoint>
          <Trackpoint>
            <Time>2019-07-14T12:11:40.000Z</Time>
            <Position>
              <LatitudeDegrees>37.0560031570494174957275390625</LatitudeDegrees>
              <LongitudeDegrees>-3.32888030447065830230712890625</LongitudeDegrees>
            </Position>
            <AltitudeMeters>3081.800048828125</AltitudeMeters>
            <DistanceMeters>8985.2303846211</DistanceMeters>
          </Trackpoint>
          <Trackpoint>
            <Time>2019-07-14T12:12:02.000Z</Time>
            <Position>
              <LatitudeDegrees>37.05599804408848285675048828125</LatitudeDegrees>
              <LongitudeDegrees>-3.32877896726131439208984375</LongitudeDegrees>
            </Position>
            <AltitudeMeters>3082</AltitudeMeters>
            <DistanceMeters>8994.2494160883</DistanceMeters>
          </Trackpoint>
          <Trackpoint>
            <Time>2019-07-14T12:12:06.000Z</Time>
            <Position>
              <LatitudeDegrees>37.05598111264407634735107421875</LatitudeDegrees>
              <LongitudeDegrees>-3.3287295140326023101806640625</LongitudeDegrees>
            </Position>
            <AltitudeMeters>3082</AltitudeMeters>
            <DistanceMeters>8999.0310636659</DistanceMeters>
          </Trackpoint>
          <Trackpoint>
            <Time>2019-07-14T12:12:07.000Z</Time>
            <Position>
              <LatitudeDegrees>37.05597893334925174713134765625</LatitudeDegrees>
              <LongitudeDegrees>-3.328716941177845001220703125</LongitudeDegrees>
            </Position>
            <AltitudeMeters>3081.800048828125</AltitudeMeters>
            <DistanceMeters>9000.1753368345</DistanceMeters>
          </Trackpoint>
          <Trackpoint>
            <Time>2019-07-14T12:12:08.000Z</Time>
            <Position>
              <LatitudeDegrees>37.0559756644070148468017578125</LatitudeDegrees>
              <LongitudeDegrees>-3.328706882894039154052734375</LongitudeDegrees>
            </Position>
            <AltitudeMeters>3081.800048828125</AltitudeMeters>
            <DistanceMeters>9001.1444229763</DistanceMeters>
          </Trackpoint>
          <Trackpoint>
            <Time>2019-07-14T12:12:11.000Z</Time>
            <Position>
              <LatitudeDegrees>37.05598312430083751678466796875</LatitudeDegrees>
              <LongitudeDegrees>-3.328687436878681182861328125</LongitudeDegrees>
            </Position>
            <AltitudeMeters>3082.199951171875</AltitudeMeters>
            <DistanceMeters>9003.0591582155</DistanceMeters>
          </Trackpoint>
          <Trackpoint>
            <Time>2019-07-14T12:12:23.000Z</Time>
            <Position>
              <LatitudeDegrees>37.05597910098731517791748046875</LatitudeDegrees>
              <LongitudeDegrees>-3.32860923372209072113037109375</LongitudeDegrees>
            </Position>
            <AltitudeMeters>3082.199951171875</AltitudeMeters>
            <DistanceMeters>9010.0195001699</DistanceMeters>
          </Trackpoint>
          <Trackpoint>
            <Time>2019-07-14T12:12:28.000Z</Time>
            <Position>
              <LatitudeDegrees>37.05597172491252422332763671875</LatitudeDegrees>
              <LongitudeDegrees>-3.32857134751975536346435546875</LongitudeDegrees>
            </Position>
            <AltitudeMeters>3082.199951171875</AltitudeMeters>
            <DistanceMeters>9013.4824384479</DistanceMeters>
          </Trackpoint>
          <Trackpoint>
            <Time>2019-07-14T12:12:42.000Z</Time>
            <Position>
              <LatitudeDegrees>37.055962421000003814697265625</LatitudeDegrees>
              <LongitudeDegrees>-3.328488953411579132080078125</LongitudeDegrees>
            </Position>
            <AltitudeMeters>3082</AltitudeMeters>
            <DistanceMeters>9020.8731713215</DistanceMeters>
          </Trackpoint>
          <Trackpoint>
            <Time>2019-07-14T12:12:56.000Z</Time>
            <Position>
              <LatitudeDegrees>37.05595060251653194427490234375</LatitudeDegrees>
              <LongitudeDegrees>-3.32836917601525783538818359375</LongitudeDegrees>
            </Position>
            <AltitudeMeters>3083.800048828125</AltitudeMeters>
            <DistanceMeters>9031.5930944941</DistanceMeters>
          </Trackpoint>
          <Trackpoint>
            <Time>2019-07-14T12:12:57.000Z</Time>
            <Position>
              <LatitudeDegrees>37.05594523809850215911865234375</LatitudeDegrees>
              <LongitudeDegrees>-3.32836029119789600372314453125</LongitudeDegrees>
            </Position>
            <AltitudeMeters>3083.39990234375</AltitudeMeters>
            <DistanceMeters>9032.5806410783</DistanceMeters>
          </Trackpoint>
          <Trackpoint>
            <Time>2019-07-14T12:13:07.000Z</Time>
            <Position>
              <LatitudeDegrees>37.05591380596160888671875</LatitudeDegrees>
              <LongitudeDegrees>-3.328285105526447296142578125</LongitudeDegrees>
            </Position>
            <AltitudeMeters>3080.199951171875</AltitudeMeters>
            <DistanceMeters>9040.1195601744</DistanceMeters>
          </Trackpoint>
          <Trackpoint>
            <Time>2019-07-14T12:13:14.000Z</Time>
            <Position>
              <LatitudeDegrees>37.05587332136929035186767578125</LatitudeDegrees>
              <LongitudeDegrees>-3.32823405973613262176513671875</LongitudeDegrees>
            </Position>
            <AltitudeMeters>3078.39990234375</AltitudeMeters>
            <DistanceMeters>9046.5111222552</DistanceMeters>
          </Trackpoint>
          <Trackpoint>
            <Time>2019-07-14T12:13:18.000Z</Time>
            <Position>
              <LatitudeDegrees>37.0558561384677886962890625</LatitudeDegrees>
              <LongitudeDegrees>-3.32820790819823741912841796875</LongitudeDegrees>
            </Position>
            <AltitudeMeters>3077.39990234375</AltitudeMeters>
            <DistanceMeters>9049.5191343225</DistanceMeters>
          </Trackpoint>
          <Trackpoint>
            <Time>2019-07-14T12:13:19.000Z</Time>
            <Position>
              <LatitudeDegrees>37.0558512769639492034912109375</LatitudeDegrees>
              <LongitudeDegrees>-3.32819751463830471038818359375</LongitudeDegrees>
            </Position>
            <AltitudeMeters>3077.39990234375</AltitudeMeters>
            <DistanceMeters>9050.5942388685</DistanceMeters>
          </Trackpoint>
          <Trackpoint>
            <Time>2019-07-14T12:13:20.000Z</Time>
            <Position>
              <LatitudeDegrees>37.05584884621202945709228515625</LatitudeDegrees>
              <LongitudeDegrees>-3.3281855285167694091796875</LongitudeDegrees>
            </Position>
            <AltitudeMeters>3077.199951171875</AltitudeMeters>
            <DistanceMeters>9051.6901404001</DistanceMeters>
          </Trackpoint>
          <Trackpoint>
            <Time>2019-07-14T12:13:37.000Z</Time>
            <Position>
              <LatitudeDegrees>37.055825628340244293212890625</LatitudeDegrees>
              <LongitudeDegrees>-3.32798528485000133514404296875</LongitudeDegrees>
            </Position>
            <AltitudeMeters>3074.199951171875</AltitudeMeters>
            <DistanceMeters>9069.663508329</DistanceMeters>
          </Trackpoint>
          <Trackpoint>
            <Time>2019-07-14T12:13:52.000Z</Time>
            <Position>
              <LatitudeDegrees>37.0557796955108642578125</LatitudeDegrees>
              <LongitudeDegrees>-3.32787011750042438507080078125</LongitudeDegrees>
            </Position>
            <AltitudeMeters>3074.199951171875</AltitudeMeters>
            <DistanceMeters>9081.0995302395</DistanceMeters>
          </Trackpoint>
          <Trackpoint>
            <Time>2019-07-14T12:14:10.000Z</Time>
            <Position>
              <LatitudeDegrees>37.05572177655994892120361328125</LatitudeDegrees>
              <LongitudeDegrees>-3.32770180888473987579345703125</LongitudeDegrees>
            </Position>
            <AltitudeMeters>3075.60009765625</AltitudeMeters>
            <DistanceMeters>9097.3804658372</DistanceMeters>
          </Trackpoint>
          <Trackpoint>
            <Time>2019-07-14T12:14:16.000Z</Time>
            <Position>
              <LatitudeDegrees>37.05569126643240451812744140625</LatitudeDegrees>
              <LongitudeDegrees>-3.3276707120239734649658203125</LongitudeDegrees>
            </Position>
            <AltitudeMeters>3074.60009765625</AltitudeMeters>
            <DistanceMeters>9101.7589190219</DistanceMeters>
          </Trackpoint>
          <Trackpoint>
            <Time>2019-07-14T12:14:17.000Z</Time>
            <Position>
              <LatitudeDegrees>37.05568338744342327117919921875</LatitudeDegrees>
              <LongitudeDegrees>-3.32766316831111907958984375</LongitudeDegrees>
            </Position>
            <AltitudeMeters>3074.800048828125</AltitudeMeters>
            <DistanceMeters>9102.8671114223</DistanceMeters>
          </Trackpoint>
          <Trackpoint>
            <Time>2019-07-14T12:14:18.000Z</Time>
            <Position>
              <LatitudeDegrees>37.0556779392063617706298828125</LatitudeDegrees>
              <LongitudeDegrees>-3.32765470258891582489013671875</LongitudeDegrees>
            </Position>
            <AltitudeMeters>3074.800048828125</AltitudeMeters>
            <DistanceMeters>9103.8315272422</DistanceMeters>
          </Trackpoint>
          <Trackpoint>
            <Time>2019-07-14T12:14:41.000Z</Time>
            <Position>
              <LatitudeDegrees>37.055621109902858734130859375</LatitudeDegrees>
              <LongitudeDegrees>-3.3274189196527004241943359375</LongitudeDegrees>
            </Position>
            <AltitudeMeters>3074.800048828125</AltitudeMeters>
            <DistanceMeters>9125.709145299</DistanceMeters>
          </Trackpoint>
          <Trackpoint>
            <Time>2019-07-14T12:15:04.000Z</Time>
            <Position>
              <LatitudeDegrees>37.05553988926112651824951171875</LatitudeDegrees>
              <LongitudeDegrees>-3.32719805650413036346435546875</LongitudeDegrees>
            </Position>
            <AltitudeMeters>3077.199951171875</AltitudeMeters>
            <DistanceMeters>9147.3099110247</DistanceMeters>
          </Trackpoint>
          <Trackpoint>
            <Time>2019-07-14T12:15:25.000Z</Time>
            <Position>
              <LatitudeDegrees>37.055420614778995513916015625</LatitudeDegrees>
              <LongitudeDegrees>-3.32703561522066593170166015625</LongitudeDegrees>
            </Position>
            <AltitudeMeters>3075.60009765625</AltitudeMeters>
            <DistanceMeters>9166.9167571344</DistanceMeters>
          </Trackpoint>
          <Trackpoint>
            <Time>2019-07-14T12:15:26.000Z</Time>
            <Position>
              <LatitudeDegrees>37.055414579808712005615234375</LatitudeDegrees>
              <LongitudeDegrees>-3.3270276524126529693603515625</LongitudeDegrees>
            </Position>
            <AltitudeMeters>3075.39990234375</AltitudeMeters>
            <DistanceMeters>9167.8858432762</DistanceMeters>
          </Trackpoint>
          <Trackpoint>
            <Time>2019-07-14T12:15:27.000Z</Time>
            <Position>
              <LatitudeDegrees>37.05540963448584079742431640625</LatitudeDegrees>
              <LongitudeDegrees>-3.32702069543302059173583984375</LongitudeDegrees>
            </Position>
            <AltitudeMeters>3075</AltitudeMeters>
            <DistanceMeters>9168.7032939823</DistanceMeters>
          </Trackpoint>
          <Trackpoint>
            <Time>2019-07-14T12:15:28.000Z</Time>
            <Position>
              <LatitudeDegrees>37.05540410242974758148193359375</LatitudeDegrees>
              <LongitudeDegrees>-3.32701030187308788299560546875</LongitudeDegrees>
            </Position>
            <AltitudeMeters>3075</AltitudeMeters>
            <DistanceMeters>9169.8114863827</DistanceMeters>
          </Trackpoint>
          <Trackpoint>
            <Time>2019-07-14T12:15:29.000Z</Time>
            <Position>
              <LatitudeDegrees>37.05539873801171779632568359375</LatitudeDegrees>
              <LongitudeDegrees>-3.32699806429445743560791015625</LongitudeDegrees>
            </Position>
            <AltitudeMeters>3075.39990234375</AltitudeMeters>
            <DistanceMeters>9171.0541219173</DistanceMeters>
          </Trackpoint>
          <Trackpoint>
            <Time>2019-07-14T12:15:30.000Z</Time>
            <Position>
              <LatitudeDegrees>37.05539370886981487274169921875</LatitudeDegrees>
              <LongitudeDegrees>-3.3269857428967952728271484375</LongitudeDegrees>
            </Position>
            <AltitudeMeters>3075.60009765625</AltitudeMeters>
            <DistanceMeters>9172.2784554869</DistanceMeters>
          </Trackpoint>
          <Trackpoint>
            <Time>2019-07-14T12:15:36.000Z</Time>
            <Position>
              <LatitudeDegrees>37.05535163171589374542236328125</LatitudeDegrees>
              <LongitudeDegrees>-3.32692882977426052093505859375</LongitudeDegrees>
            </Position>
            <AltitudeMeters>3075.199951171875</AltitudeMeters>
            <DistanceMeters>9179.1690390575</DistanceMeters>
          </Trackpoint>
          <Trackpoint>
            <Time>2019-07-14T12:15:37.000Z</Time>
            <Position>
              <LatitudeDegrees>37.05534727312624454498291015625</LatitudeDegrees>
              <LongitudeDegrees>-3.3269190229475498199462890625</LongitudeDegrees>
            </Position>
            <AltitudeMeters>3075.199951171875</AltitudeMeters>
            <DistanceMeters>9180.161147082</DistanceMeters>
          </Trackpoint>
          <Trackpoint>
            <Time>2019-07-14T12:15:38.000Z</Time>
            <Position>
              <LatitudeDegrees>37.0553413219749927520751953125</LatitudeDegrees>
              <LongitudeDegrees>-3.326910473406314849853515625</LongitudeDegrees>
            </Position>
            <AltitudeMeters>3075.199951171875</AltitudeMeters>
            <DistanceMeters>9181.1668152985</DistanceMeters>
          </Trackpoint>
          <Trackpoint>
            <Time>2019-07-14T12:15:39.000Z</Time>
            <Position>
              <LatitudeDegrees>37.0553356222808361053466796875</LatitudeDegrees>
              <LongitudeDegrees>-3.3269012533128261566162109375</LongitudeDegrees>
            </Position>
            <AltitudeMeters>3075.199951171875</AltitudeMeters>
            <DistanceMeters>9182.2034343688</DistanceMeters>
          </Trackpoint>
          <Trackpoint>
            <Time>2019-07-14T12:15:40.000Z</Time>
            <Position>
              <LatitudeDegrees>37.05532615073025226593017578125</LatitudeDegrees>
              <LongitudeDegrees>-3.3268925361335277557373046875</LongitudeDegrees>
            </Position>
            <AltitudeMeters>3075.199951171875</AltitudeMeters>
            <DistanceMeters>9183.5063750319</DistanceMeters>
          </Trackpoint>
          <Trackpoint>
            <Time>2019-07-14T12:15:41.000Z</Time>
            <Position>
              <LatitudeDegrees>37.0553165115416049957275390625</LatitudeDegrees>
              <LongitudeDegrees>-3.3268846571445465087890625</LongitudeDegrees>
            </Position>
            <AltitudeMeters>3075.199951171875</AltitudeMeters>
            <DistanceMeters>9184.7848287214</DistanceMeters>
          </Trackpoint>
          <Trackpoint>
            <Time>2019-07-14T12:16:02.000Z</Time>
            <Position>
              <LatitudeDegrees>37.05517980270087718963623046875</LatitudeDegrees>
              <LongitudeDegrees>-3.3267248980700969696044921875</LongitudeDegrees>
            </Position>
            <AltitudeMeters>3074.39990234375</AltitudeMeters>
            <DistanceMeters>9205.5909055897</DistanceMeters>
          </Trackpoint>
          <Trackpoint>
            <Time>2019-07-14T12:16:18.000Z</Time>
            <Position>
              <LatitudeDegrees>37.05505977384746074676513671875</LatitudeDegrees>
              <LongitudeDegrees>-3.3266313560307025909423828125</LongitudeDegrees>
            </Position>
            <AltitudeMeters>3071.60009765625</AltitudeMeters>
            <DistanceMeters>9221.3234958192</DistanceMeters>
          </Trackpoint>
          <Trackpoint>
            <Time>2019-07-14T12:16:19.000Z</Time>
            <Position>
              <LatitudeDegrees>37.0550496317446231842041015625</LatitudeDegrees>
              <LongitudeDegrees>-3.32662372849881649017333984375</LongitudeDegrees>
            </Position>
            <AltitudeMeters>3071.39990234375</AltitudeMeters>
            <DistanceMeters>9222.6402245981</DistanceMeters>
          </Trackpoint>
          <Trackpoint>
            <Time>2019-07-14T12:16:20.000Z</Time>
            <Position>
              <LatitudeDegrees>37.05503915436565876007080078125</LatitudeDegrees>
              <LongitudeDegrees>-3.326618112623691558837890625</LongitudeDegrees>
            </Position>
            <AltitudeMeters>3071.199951171875</AltitudeMeters>
            <DistanceMeters>9223.9080390983</DistanceMeters>
          </Trackpoint>
          <Trackpoint>
            <Time>2019-07-14T12:16:21.000Z</Time>
            <Position>
              <LatitudeDegrees>37.055031359195709228515625</LatitudeDegrees>
              <LongitudeDegrees>-3.32661299966275691986083984375</LongitudeDegrees>
            </Position>
            <AltitudeMeters>3071</AltitudeMeters>
            <DistanceMeters>9224.8955856825</DistanceMeters>
          </Trackpoint>
          <Trackpoint>
            <Time>2019-07-14T12:16:22.000Z</Time>
            <Position>
              <LatitudeDegrees>37.0550228096544742584228515625</LatitudeDegrees>
              <LongitudeDegrees>-3.3266057074069976806640625</LongitudeDegrees>
            </Position>
            <AltitudeMeters>3070.800048828125</AltitudeMeters>
            <DistanceMeters>9226.0477233641</DistanceMeters>
          </Trackpoint>
          <Trackpoint>
            <Time>2019-07-14T12:16:23.000Z</Time>
            <Position>
              <LatitudeDegrees>37.055016942322254180908203125</LatitudeDegrees>
              <LongitudeDegrees>-3.3265944756567478179931640625</LongitudeDegrees>
            </Position>
            <AltitudeMeters>3070.800048828125</AltitudeMeters>
            <DistanceMeters>9227.242190642</DistanceMeters>
          </Trackpoint>
          <Trackpoint>
            <Time>2019-07-14T12:16:25.000Z</Time>
            <Position>
              <LatitudeDegrees>37.05499959178268909454345703125</LatitudeDegrees>
              <LongitudeDegrees>-3.3265948109328746795654296875</LongitudeDegrees>
            </Position>
            <AltitudeMeters>3070.199951171875</AltitudeMeters>
            <DistanceMeters>9229.1710222819</DistanceMeters>
          </Trackpoint>
          <Trackpoint>
            <Time>2019-07-14T12:16:28.000Z</Time>
            <Position>
              <LatitudeDegrees>37.0549728535115718841552734375</LatitudeDegrees>
              <LongitudeDegrees>-3.3265951462090015411376953125</LongitudeDegrees>
            </Position>
            <AltitudeMeters>3069.800048828125</AltitudeMeters>
            <DistanceMeters>9232.1488629539</DistanceMeters>
          </Trackpoint>
          <Trackpoint>
            <Time>2019-07-14T12:16:39.000Z</Time>
            <Position>
              <LatitudeDegrees>37.0548803173005580902099609375</LatitudeDegrees>
              <LongitudeDegrees>-3.32653672434389591217041015625</LongitudeDegrees>
            </Position>
            <AltitudeMeters>3069</AltitudeMeters>
            <DistanceMeters>9243.6819902843</DistanceMeters>
          </Trackpoint>
          <Trackpoint>
            <Time>2019-07-14T12:16:40.000Z</Time>
            <Position>
              <LatitudeDegrees>37.054874785244464874267578125</LatitudeDegrees>
              <LongitudeDegrees>-3.32652859389781951904296875</LongitudeDegrees>
            </Position>
            <AltitudeMeters>3068.800048828125</AltitudeMeters>
            <DistanceMeters>9244.632257428</DistanceMeters>
          </Trackpoint>
          <Trackpoint>
            <Time>2019-07-14T12:16:41.000Z</Time>
            <Position>
              <LatitudeDegrees>37.05487151630222797393798828125</LatitudeDegrees>
              <LongitudeDegrees>-3.3265203796327114105224609375</LongitudeDegrees>
            </Position>
            <AltitudeMeters>3068.800048828125</AltitudeMeters>
            <DistanceMeters>9245.4497081341</DistanceMeters>
          </Trackpoint>
          <Trackpoint>
            <Time>2019-07-14T12:16:44.000Z</Time>
            <Position>
              <LatitudeDegrees>37.05485098063945770263671875</LatitudeDegrees>
              <LongitudeDegrees>-3.3265049569308757781982421875</LongitudeDegrees>
            </Position>
            <AltitudeMeters>3069.39990234375</AltitudeMeters>
            <DistanceMeters>9248.113847786</DistanceMeters>
          </Trackpoint>
          <Trackpoint>
            <Time>2019-07-14T12:16:45.000Z</Time>
            <Position>
              <LatitudeDegrees>37.054839245975017547607421875</LatitudeDegrees>
              <LongitudeDegrees>-3.32651124335825443267822265625</LongitudeDegrees>
            </Position>
            <AltitudeMeters>3069.199951171875</AltitudeMeters>
            <DistanceMeters>9249.5328992463</DistanceMeters>
          </Trackpoint>
          <Trackpoint>
            <Time>2019-07-14T12:16:46.000Z</Time>
            <Position>
              <LatitudeDegrees>37.054831869900226593017578125</LatitudeDegrees>
              <LongitudeDegrees>-3.32650671713054180145263671875</LongitudeDegrees>
            </Position>
            <AltitudeMeters>3069.199951171875</AltitudeMeters>
            <DistanceMeters>9250.4542174247</DistanceMeters>
          </Trackpoint>
          <Trackpoint>
            <Time>2019-07-14T12:17:20.000Z</Time>
            <Position>
              <LatitudeDegrees>37.054908312857151031494140625</LatitudeDegrees>
              <LongitudeDegrees>-3.32629113458096981048583984375</LongitudeDegrees>
            </Position>
            <AltitudeMeters>3069.60009765625</AltitudeMeters>
            <DistanceMeters>9271.408415978</DistanceMeters>
          </Trackpoint>
          <Trackpoint>
            <Time>2019-07-14T12:17:23.000Z</Time>
            <Position>
              <LatitudeDegrees>37.054909653961658477783203125</LatitudeDegrees>
              <LongitudeDegrees>-3.32621787674725055694580078125</LongitudeDegrees>
            </Position>
            <AltitudeMeters>3068.60009765625</AltitudeMeters>
            <DistanceMeters>9277.9168788225</DistanceMeters>
          </Trackpoint>
          <Trackpoint>
            <Time>2019-07-14T12:17:39.000Z</Time>
            <Position>
              <LatitudeDegrees>37.05484871752560138702392578125</LatitudeDegrees>
              <LongitudeDegrees>-3.3257985301315784454345703125</LongitudeDegrees>
            </Position>
            <AltitudeMeters>3069</AltitudeMeters>
            <DistanceMeters>9315.7780786849</DistanceMeters>
          </Trackpoint>
          <Trackpoint>
            <Time>2019-07-14T12:17:44.000Z</Time>
            <Position>
              <LatitudeDegrees>37.0548216439783573150634765625</LatitudeDegrees>
              <LongitudeDegrees>-3.3258736319839954376220703125</LongitudeDegrees>
            </Position>
            <AltitudeMeters>3069</AltitudeMeters>
            <DistanceMeters>9323.0982203242</DistanceMeters>
          </Trackpoint>
          <Trackpoint>
            <Time>2019-07-14T12:17:45.000Z</Time>
            <Position>
              <LatitudeDegrees>37.0548213087022304534912109375</LatitudeDegrees>
              <LongitudeDegrees>-3.32588897086679935455322265625</LongitudeDegrees>
            </Position>
            <AltitudeMeters>3069.199951171875</AltitudeMeters>
            <DistanceMeters>9324.4621102565</DistanceMeters>
          </Trackpoint>
          <Trackpoint>
            <Time>2019-07-14T12:17:51.000Z</Time>
            <Position>
              <LatitudeDegrees>37.05481150187551975250244140625</LatitudeDegrees>
              <LongitudeDegrees>-3.32599307410418987274169921875</LongitudeDegrees>
            </Position>
            <AltitudeMeters>3069</AltitudeMeters>
            <DistanceMeters>9333.7727887421</DistanceMeters>
          </Trackpoint>
          <Trackpoint>
            <Time>2019-07-14T12:17:53.000Z</Time>
            <Position>
              <LatitudeDegrees>37.05480731092393398284912109375</LatitudeDegrees>
              <LongitudeDegrees>-3.32602928392589092254638671875</LongitudeDegrees>
            </Position>
            <AltitudeMeters>3069</AltitudeMeters>
            <DistanceMeters>9337.0232024756</DistanceMeters>
          </Trackpoint>
          <Trackpoint>
            <Time>2019-07-14T12:17:54.000Z</Time>
            <Position>
              <LatitudeDegrees>37.05481083132326602935791015625</LatitudeDegrees>
              <LongitudeDegrees>-3.326046466827392578125</LongitudeDegrees>
            </Position>
            <AltitudeMeters>3069</AltitudeMeters>
            <DistanceMeters>9338.5961744861</DistanceMeters>
          </Trackpoint>
          <Trackpoint>
            <Time>2019-07-14T12:17:57.000Z</Time>
            <Position>
              <LatitudeDegrees>37.05483245663344860076904296875</LatitudeDegrees>
              <LongitudeDegrees>-3.32609047181904315948486328125</LongitudeDegrees>
            </Position>
            <AltitudeMeters>3069.39990234375</AltitudeMeters>
            <DistanceMeters>9343.1860729974</DistanceMeters>
          </Trackpoint>
          <Trackpoint>
            <Time>2019-07-14T12:17:58.000Z</Time>
            <Position>
              <LatitudeDegrees>37.05482491292059421539306640625</LatitudeDegrees>
              <LongitudeDegrees>-3.32610120065510272979736328125</LongitudeDegrees>
            </Position>
            <AltitudeMeters>3069.39990234375</AltitudeMeters>
            <DistanceMeters>9344.4574437865</DistanceMeters>
          </Trackpoint>
          <Trackpoint>
            <Time>2019-07-14T12:18:19.000Z</Time>
            <Position>
              <LatitudeDegrees>37.05464436672627925872802734375</LatitudeDegrees>
              <LongitudeDegrees>-3.32636204548180103302001953125</LongitudeDegrees>
            </Position>
            <AltitudeMeters>3071</AltitudeMeters>
            <DistanceMeters>9375.127527469</DistanceMeters>
          </Trackpoint>
          <Trackpoint>
            <Time>2019-07-14T12:18:45.000Z</Time>
            <Position>
              <LatitudeDegrees>37.05458552576601505279541015625</LatitudeDegrees>
              <LongitudeDegrees>-3.3263379894196987152099609375</LongitudeDegrees>
            </Position>
            <AltitudeMeters>3070.60009765625</AltitudeMeters>
            <DistanceMeters>9382.0168004197</DistanceMeters>
          </Trackpoint>
          <Trackpoint>
            <Time>2019-07-14T12:18:46.000Z</Time>
            <Position>
              <LatitudeDegrees>37.05459508113563060760498046875</LatitudeDegrees>
              <LongitudeDegrees>-3.3263329602777957916259765625</LongitudeDegrees>
            </Position>
            <AltitudeMeters>3070.60009765625</AltitudeMeters>
            <DistanceMeters>9383.1689381013</DistanceMeters>
          </Trackpoint>
          <Trackpoint>
            <Time>2019-07-14T12:18:49.000Z</Time>
            <Position>
              <LatitudeDegrees>37.0546389184892177581787109375</LatitudeDegrees>
              <LongitudeDegrees>-3.32632818259298801422119140625</LongitudeDegrees>
            </Position>
            <AltitudeMeters>3070.39990234375</AltitudeMeters>
            <DistanceMeters>9388.0662723797</DistanceMeters>
          </Trackpoint>
          <Trackpoint>
            <Time>2019-07-14T12:18:50.000Z</Time>
            <Position>
              <LatitudeDegrees>37.0546493120491504669189453125</LatitudeDegrees>
              <LongitudeDegrees>-3.32632005214691162109375</LongitudeDegrees>
            </Position>
            <AltitudeMeters>3070.39990234375</AltitudeMeters>
            <DistanceMeters>9389.4301623121</DistanceMeters>
          </Trackpoint>
          <Trackpoint>
            <Time>2019-07-14T12:18:52.000Z</Time>
            <Position>
              <LatitudeDegrees>37.0546704344451427459716796875</LatitudeDegrees>
              <LongitudeDegrees>-3.3263064734637737274169921875</LongitudeDegrees>
            </Position>
            <AltitudeMeters>3070.60009765625</AltitudeMeters>
            <DistanceMeters>9392.0721784156</DistanceMeters>
          </Trackpoint>
          <Trackpoint>
            <Time>2019-07-14T12:18:56.000Z</Time>
            <Position>
              <LatitudeDegrees>37.05473564565181732177734375</LatitudeDegrees>
              <LongitudeDegrees>-3.326298259198665618896484375</LongitudeDegrees>
            </Position>
            <AltitudeMeters>3070.60009765625</AltitudeMeters>
            <DistanceMeters>9399.3663685973</DistanceMeters>
          </Trackpoint>
          <Trackpoint>
            <Time>2019-07-14T12:18:57.000Z</Time>
            <Position>
              <LatitudeDegrees>37.0547483861446380615234375</LatitudeDegrees>
              <LongitudeDegrees>-3.32629666663706302642822265625</LongitudeDegrees>
            </Position>
            <AltitudeMeters>3070.39990234375</AltitudeMeters>
            <DistanceMeters>9400.7885982284</DistanceMeters>
          </Trackpoint>
          <Trackpoint>
            <Time>2019-07-14T12:19:21.000Z</Time>
            <Position>
              <LatitudeDegrees>37.05483983270823955535888671875</LatitudeDegrees>
              <LongitudeDegrees>-3.3265254087746143341064453125</LongitudeDegrees>
            </Position>
            <AltitudeMeters>3070.39990234375</AltitudeMeters>
            <DistanceMeters>9423.5132987034</DistanceMeters>
          </Trackpoint>
          <Trackpoint>
            <Time>2019-07-14T12:19:22.000Z</Time>
            <Position>
              <LatitudeDegrees>37.05484234727919101715087890625</LatitudeDegrees>
              <LongitudeDegrees>-3.3265113271772861480712890625</LongitudeDegrees>
            </Position>
            <AltitudeMeters>3070.39990234375</AltitudeMeters>
            <DistanceMeters>9424.7917523929</DistanceMeters>
          </Trackpoint>
          <Trackpoint>
            <Time>2019-07-14T12:19:28.000Z</Time>
            <Position>
              <LatitudeDegrees>37.05483580939471721649169921875</LatitudeDegrees>
              <LongitudeDegrees>-3.32650235854089260101318359375</LongitudeDegrees>
            </Position>
            <AltitudeMeters>3070.199951171875</AltitudeMeters>
            <DistanceMeters>9425.8668569389</DistanceMeters>
          </Trackpoint>
          <Trackpoint>
            <Time>2019-07-14T12:19:29.000Z</Time>
            <Position>
              <LatitudeDegrees>37.0548343844711780548095703125</LatitudeDegrees>
              <LongitudeDegrees>-3.32648760639131069183349609375</LongitudeDegrees>
            </Position>
            <AltitudeMeters>3070.199951171875</AltitudeMeters>
            <DistanceMeters>9427.1835857178</DistanceMeters>
          </Trackpoint>
          <Trackpoint>
            <Time>2019-07-14T12:19:43.000Z</Time>
            <Position>
              <LatitudeDegrees>37.05477110110223293304443359375</LatitudeDegrees>
              <LongitudeDegrees>-3.32643731497228145599365234375</LongitudeDegrees>
            </Position>
            <AltitudeMeters>3070.60009765625</AltitudeMeters>
            <DistanceMeters>9435.5243116409</DistanceMeters>
          </Trackpoint>
          <Trackpoint>
            <Time>2019-07-14T12:19:44.000Z</Time>
            <Position>
              <LatitudeDegrees>37.05475886352360248565673828125</LatitudeDegrees>
              <LongitudeDegrees>-3.32644267939031124114990234375</LongitudeDegrees>
            </Position>
            <AltitudeMeters>3070.60009765625</AltitudeMeters>
            <DistanceMeters>9436.9654631188</DistanceMeters>
          </Trackpoint>
          <Trackpoint>
            <Time>2019-07-14T12:19:53.000Z</Time>
            <Position>
              <LatitudeDegrees>37.05473153851926326751708984375</LatitudeDegrees>
              <LongitudeDegrees>-3.32643228583037853240966796875</LongitudeDegrees>
            </Position>
            <AltitudeMeters>3069.800048828125</AltitudeMeters>
            <DistanceMeters>9440.1442452033</DistanceMeters>
          </Trackpoint>
          <Trackpoint>
            <Time>2019-07-14T12:20:07.000Z</Time>
            <Position>
              <LatitudeDegrees>37.0545738749206066131591796875</LatitudeDegrees>
              <LongitudeDegrees>-3.3264808170497417449951171875</LongitudeDegrees>
            </Position>
            <AltitudeMeters>3070</AltitudeMeters>
            <DistanceMeters>9458.2143189224</DistanceMeters>
          </Trackpoint>
          <Trackpoint>
            <Time>2019-07-14T12:20:31.000Z</Time>
            <Position>
              <LatitudeDegrees>37.05452500842511653900146484375</LatitudeDegrees>
              <LongitudeDegrees>-3.3264808170497417449951171875</LongitudeDegrees>
            </Position>
            <AltitudeMeters>3069.39990234375</AltitudeMeters>
            <DistanceMeters>9463.6533014036</DistanceMeters>
          </Trackpoint>
          <Trackpoint>
            <Time>2019-07-14T12:20:35.000Z</Time>
            <Position>
              <LatitudeDegrees>37.05454210750758647918701171875</LatitudeDegrees>
              <LongitudeDegrees>-3.32650956697762012481689453125</LongitudeDegrees>
            </Position>
            <AltitudeMeters>3069.800048828125</AltitudeMeters>
            <DistanceMeters>9466.8391774091</DistanceMeters>
          </Trackpoint>
          <Trackpoint>
            <Time>2019-07-14T12:20:43.000Z</Time>
            <Position>
              <LatitudeDegrees>37.05453171394765377044677734375</LatitudeDegrees>
              <LongitudeDegrees>-3.326478302478790283203125</LongitudeDegrees>
            </Position>
            <AltitudeMeters>3069.800048828125</AltitudeMeters>
            <DistanceMeters>9469.8471894764</DistanceMeters>
          </Trackpoint>
          <Trackpoint>
            <Time>2019-07-14T12:20:44.000Z</Time>
            <Position>
              <LatitudeDegrees>37.05452484078705310821533203125</LatitudeDegrees>
              <LongitudeDegrees>-3.326467238366603851318359375</LongitudeDegrees>
            </Position>
            <AltitudeMeters>3069.800048828125</AltitudeMeters>
            <DistanceMeters>9471.0934531517</DistanceMeters>
          </Trackpoint>
          <Trackpoint>
            <Time>2019-07-14T12:20:49.000Z</Time>
            <Position>
              <LatitudeDegrees>37.054513357579708099365234375</LatitudeDegrees>
              <LongitudeDegrees>-3.32642356865108013153076171875</LongitudeDegrees>
            </Position>
            <AltitudeMeters>3070.199951171875</AltitudeMeters>
            <DistanceMeters>9475.1784967584</DistanceMeters>
          </Trackpoint>
          <Trackpoint>
            <Time>2019-07-14T12:20:50.000Z</Time>
            <Position>
              <LatitudeDegrees>37.05452081747353076934814453125</LatitudeDegrees>
              <LongitudeDegrees>-3.32641116343438625335693359375</LongitudeDegrees>
            </Position>
            <AltitudeMeters>3070.199951171875</AltitudeMeters>
            <DistanceMeters>9476.5555646773</DistanceMeters>
          </Trackpoint>
          <Trackpoint>
            <Time>2019-07-14T12:21:19.000Z</Time>
            <Position>
              <LatitudeDegrees>37.05461787991225719451904296875</LatitudeDegrees>
              <LongitudeDegrees>-3.32646329887211322784423828125</LongitudeDegrees>
            </Position>
            <AltitudeMeters>3070</AltitudeMeters>
            <DistanceMeters>9488.3097200954</DistanceMeters>
          </Trackpoint>
          <Trackpoint>
            <Time>2019-07-14T12:21:20.000Z</Time>
            <Position>
              <LatitudeDegrees>37.054623663425445556640625</LatitudeDegrees>
              <LongitudeDegrees>-3.3264804817736148834228515625</LongitudeDegrees>
            </Position>
            <AltitudeMeters>3070</AltitudeMeters>
            <DistanceMeters>9489.9665674749</DistanceMeters>
          </Trackpoint>
          <Trackpoint>
            <Time>2019-07-14T12:21:21.000Z</Time>
            <Position>
              <LatitudeDegrees>37.0546302013099193572998046875</LatitudeDegrees>
              <LongitudeDegrees>-3.326496072113513946533203125</LongitudeDegrees>
            </Position>
            <AltitudeMeters>3070</AltitudeMeters>
            <DistanceMeters>9491.5280157256</DistanceMeters>
          </Trackpoint>
          <Trackpoint>
            <Time>2019-07-14T12:21:37.000Z</Time>
            <Position>
              <LatitudeDegrees>37.054725587368011474609375</LatitudeDegrees>
              <LongitudeDegrees>-3.32657754421234130859375</LongitudeDegrees>
            </Position>
            <AltitudeMeters>3070.60009765625</AltitudeMeters>
            <DistanceMeters>9504.3766676996</DistanceMeters>
          </Trackpoint>
          <Trackpoint>
            <Time>2019-07-14T12:21:38.000Z</Time>
            <Position>
              <LatitudeDegrees>37.05472164787352085113525390625</LatitudeDegrees>
              <LongitudeDegrees>-3.3265626244246959686279296875</LongitudeDegrees>
            </Position>
            <AltitudeMeters>3070.60009765625</AltitudeMeters>
            <DistanceMeters>9505.7732694725</DistanceMeters>
          </Trackpoint>
          <Trackpoint>
            <Time>2019-07-14T12:21:40.000Z</Time>
            <Position>
              <LatitudeDegrees>37.0547207258641719818115234375</LatitudeDegrees>
              <LongitudeDegrees>-3.32654695026576519012451171875</LongitudeDegrees>
            </Position>
            <AltitudeMeters>3070.60009765625</AltitudeMeters>
            <DistanceMeters>9507.1698712453</DistanceMeters>
          </Trackpoint>
          <Trackpoint>
            <Time>2019-07-14T12:21:41.000Z</Time>
            <Position>
              <LatitudeDegrees>37.05472223460674285888671875</LatitudeDegrees>
              <LongitudeDegrees>-3.32653664052486419677734375</LongitudeDegrees>
            </Position>
            <AltitudeMeters>3070.60009765625</AltitudeMeters>
            <DistanceMeters>9508.1009390939</DistanceMeters>
          </Trackpoint>
          <Trackpoint>
            <Time>2019-07-14T12:21:47.000Z</Time>
            <Position>
              <LatitudeDegrees>37.054739333689212799072265625</LatitudeDegrees>
              <LongitudeDegrees>-3.32650520838797092437744140625</LongitudeDegrees>
            </Position>
            <AltitudeMeters>3070.39990234375</AltitudeMeters>
            <DistanceMeters>9511.4794027425</DistanceMeters>
          </Trackpoint>
          <Trackpoint>
            <Time>2019-07-14T12:21:48.000Z</Time>
            <Position>
              <LatitudeDegrees>37.0547465421259403228759765625</LatitudeDegrees>
              <LongitudeDegrees>-3.32649665884673595428466796875</LongitudeDegrees>
            </Position>
            <AltitudeMeters>3070.39990234375</AltitudeMeters>
            <DistanceMeters>9512.5875951429</DistanceMeters>
          </Trackpoint>
          <Trackpoint>
            <Time>2019-07-14T12:22:08.000Z</Time>
            <Position>
              <LatitudeDegrees>37.05477721989154815673828125</LatitudeDegrees>
              <LongitudeDegrees>-3.32654007710516452789306640625</LongitudeDegrees>
            </Position>
            <AltitudeMeters>3071</AltitudeMeters>
            <DistanceMeters>9517.738358639</DistanceMeters>
          </Trackpoint>
          <Trackpoint>
            <Time>2019-07-14T12:22:13.000Z</Time>
            <Position>
              <LatitudeDegrees>37.05470605753362178802490234375</LatitudeDegrees>
              <LongitudeDegrees>-3.3265964873135089874267578125</LongitudeDegrees>
            </Position>
            <AltitudeMeters>3070.60009765625</AltitudeMeters>
            <DistanceMeters>9527.1104210358</DistanceMeters>
          </Trackpoint>
          <Trackpoint>
            <Time>2019-07-14T12:22:34.000Z</Time>
            <Position>
              <LatitudeDegrees>37.054738663136959075927734375</LatitudeDegrees>
              <LongitudeDegrees>-3.32646095193922519683837890625</LongitudeDegrees>
            </Position>
            <AltitudeMeters>3069.800048828125</AltitudeMeters>
            <DistanceMeters>9539.6848649016</DistanceMeters>
          </Trackpoint>
          <Trackpoint>
            <Time>2019-07-14T12:22:37.000Z</Time>
            <Position>
              <LatitudeDegrees>37.05472500063478946685791015625</LatitudeDegrees>
              <LongitudeDegrees>-3.32644083537161350250244140625</LongitudeDegrees>
            </Position>
            <AltitudeMeters>3069.60009765625</AltitudeMeters>
            <DistanceMeters>9542.0299270659</DistanceMeters>
          </Trackpoint>
          <Trackpoint>
            <Time>2019-07-14T12:22:43.000Z</Time>
            <Position>
              <LatitudeDegrees>37.05469951964914798736572265625</LatitudeDegrees>
              <LongitudeDegrees>-3.32642926834523677825927734375</LongitudeDegrees>
            </Position>
            <AltitudeMeters>3069.60009765625</AltitudeMeters>
            <DistanceMeters>9545.0469317155</DistanceMeters>
          </Trackpoint>
          <Trackpoint>
            <Time>2019-07-14T12:22:50.000Z</Time>
            <Position>
              <LatitudeDegrees>37.054697759449481964111328125</LatitudeDegrees>
              <LongitudeDegrees>-3.32643044181168079376220703125</LongitudeDegrees>
            </Position>
            <AltitudeMeters>3069</AltitudeMeters>
            <DistanceMeters>9545.2796986776</DistanceMeters>
          </Trackpoint>
          <Trackpoint>
            <Time>2019-07-14T12:22:57.000Z</Time>
            <Position>
              <LatitudeDegrees>37.05456188879907131195068359375</LatitudeDegrees>
              <LongitudeDegrees>-3.326480649411678314208984375</LongitudeDegrees>
            </Position>
            <AltitudeMeters>3069.199951171875</AltitudeMeters>
            <DistanceMeters>9561.0461169249</DistanceMeters>
          </Trackpoint>
          <Trackpoint>
            <Time>2019-07-14T12:22:58.000Z</Time>
            <Position>
              <LatitudeDegrees>37.054537497460842132568359375</LatitudeDegrees>
              <LongitudeDegrees>-3.326496072113513946533203125</LongitudeDegrees>
            </Position>
            <AltitudeMeters>3069.199951171875</AltitudeMeters>
            <DistanceMeters>9564.0869717848</DistanceMeters>
          </Trackpoint>
          <Trackpoint>
            <Time>2019-07-14T12:22:59.000Z</Time>
            <Position>
              <LatitudeDegrees>37.0545145310461521148681640625</LatitudeDegrees>
              <LongitudeDegrees>-3.32651040516793727874755859375</LongitudeDegrees>
            </Position>
            <AltitudeMeters>3069.199951171875</AltitudeMeters>
            <DistanceMeters>9566.9441013067</DistanceMeters>
          </Trackpoint>
          <Trackpoint>
            <Time>2019-07-14T12:23:15.000Z</Time>
            <Position>
              <LatitudeDegrees>37.05434462986886501312255859375</LatitudeDegrees>
              <LongitudeDegrees>-3.326706625521183013916015625</LongitudeDegrees>
            </Position>
            <AltitudeMeters>3069</AltitudeMeters>
            <DistanceMeters>9592.6616029153</DistanceMeters>
          </Trackpoint>
          <Trackpoint>
            <Time>2019-07-14T12:23:40.000Z</Time>
            <Position>
              <LatitudeDegrees>37.054387629032135009765625</LatitudeDegrees>
              <LongitudeDegrees>-3.32643873989582061767578125</LongitudeDegrees>
            </Position>
            <AltitudeMeters>3068</AltitudeMeters>
            <DistanceMeters>9616.9334423018</DistanceMeters>
          </Trackpoint>
          <Trackpoint>
            <Time>2019-07-14T12:23:49.000Z</Time>
            <Position>
              <LatitudeDegrees>37.05437061376869678497314453125</LatitudeDegrees>
              <LongitudeDegrees>-3.32628317177295684814453125</LongitudeDegrees>
            </Position>
            <AltitudeMeters>3068</AltitudeMeters>
            <DistanceMeters>9630.880696754</DistanceMeters>
          </Trackpoint>
          <Trackpoint>
            <Time>2019-07-14T12:24:28.000Z</Time>
            <Position>
              <LatitudeDegrees>37.05462441779673099517822265625</LatitudeDegrees>
              <LongitudeDegrees>-3.32617177627980709075927734375</LongitudeDegrees>
            </Position>
            <AltitudeMeters>3068.60009765625</AltitudeMeters>
            <DistanceMeters>9660.812452538</DistanceMeters>
          </Trackpoint>
          <Trackpoint>
            <Time>2019-07-14T12:24:29.000Z</Time>
            <Position>
              <LatitudeDegrees>37.0546338893473148345947265625</LatitudeDegrees>
              <LongitudeDegrees>-3.32616725005209445953369140625</LongitudeDegrees>
            </Position>
            <AltitudeMeters>3068.60009765625</AltitudeMeters>
            <DistanceMeters>9661.9408322518</DistanceMeters>
          </Trackpoint>
          <Trackpoint>
            <Time>2019-07-14T12:24:57.000Z</Time>
            <Position>
              <LatitudeDegrees>37.05492985434830188751220703125</LatitudeDegrees>
              <LongitudeDegrees>-3.3264871872961521148681640625</LongitudeDegrees>
            </Position>
            <AltitudeMeters>3068.800048828125</AltitudeMeters>
            <DistanceMeters>9705.4467770548</DistanceMeters>
          </Trackpoint>
          <Trackpoint>
            <Time>2019-07-14T12:25:16.000Z</Time>
            <Position>
              <LatitudeDegrees>37.05513135530054569244384765625</LatitudeDegrees>
              <LongitudeDegrees>-3.32630672492086887359619140625</LongitudeDegrees>
            </Position>
            <AltitudeMeters>3069</AltitudeMeters>
            <DistanceMeters>9733.0140252557</DistanceMeters>
          </Trackpoint>
          <Trackpoint>
            <Time>2019-07-14T12:25:42.000Z</Time>
            <Position>
              <LatitudeDegrees>37.05500378273427486419677734375</LatitudeDegrees>
              <LongitudeDegrees>-3.3262387476861476898193359375</LongitudeDegrees>
            </Position>
            <AltitudeMeters>3070.199951171875</AltitudeMeters>
            <DistanceMeters>9748.4435079226</DistanceMeters>
          </Trackpoint>
          <Trackpoint>
            <Time>2019-07-14T12:26:08.000Z</Time>
            <Position>
              <LatitudeDegrees>37.055072598159313201904296875</LatitudeDegrees>
              <LongitudeDegrees>-3.32628191448748111724853515625</LongitudeDegrees>
            </Position>
            <AltitudeMeters>3069.800048828125</AltitudeMeters>
            <DistanceMeters>9757.0091002026</DistanceMeters>
          </Trackpoint>
          <Trackpoint>
            <Time>2019-07-14T12:26:09.000Z</Time>
            <Position>
              <LatitudeDegrees>37.05506849102675914764404296875</LatitudeDegrees>
              <LongitudeDegrees>-3.32629096694290637969970703125</LongitudeDegrees>
            </Position>
            <AltitudeMeters>3069.800048828125</AltitudeMeters>
            <DistanceMeters>9757.9304183809</DistanceMeters>
          </Trackpoint>
          <Trackpoint>
            <Time>2019-07-14T12:26:30.000Z</Time>
            <Position>
              <LatitudeDegrees>37.05510939471423625946044921875</LatitudeDegrees>
              <LongitudeDegrees>-3.3264462836086750030517578125</LongitudeDegrees>
            </Position>
            <AltitudeMeters>3070</AltitudeMeters>
            <DistanceMeters>9772.4580109774</DistanceMeters>
          </Trackpoint>
          <Trackpoint>
            <Time>2019-07-14T12:26:32.000Z</Time>
            <Position>
              <LatitudeDegrees>37.05507695674896240234375</LatitudeDegrees>
              <LongitudeDegrees>-3.32644754089415073394775390625</LongitudeDegrees>
            </Position>
            <AltitudeMeters>3070</AltitudeMeters>
            <DistanceMeters>9776.0690261234</DistanceMeters>
          </Trackpoint>
          <Trackpoint>
            <Time>2019-07-14T12:26:33.000Z</Time>
            <Position>
              <LatitudeDegrees>37.05506413243710994720458984375</LatitudeDegrees>
              <LongitudeDegrees>-3.32645374350249767303466796875</LongitudeDegrees>
            </Position>
            <AltitudeMeters>3070</AltitudeMeters>
            <DistanceMeters>9777.6012858519</DistanceMeters>
          </Trackpoint>
          <Trackpoint>
            <Time>2019-07-14T12:26:35.000Z</Time>
            <Position>
              <LatitudeDegrees>37.05503613688051700592041015625</LatitudeDegrees>
              <LongitudeDegrees>-3.326464556157588958740234375</LongitudeDegrees>
            </Position>
            <AltitudeMeters>3069.800048828125</AltitudeMeters>
            <DistanceMeters>9780.86279318</DistanceMeters>
          </Trackpoint>
          <Trackpoint>
            <Time>2019-07-14T12:26:36.000Z</Time>
            <Position>
              <LatitudeDegrees>37.0550362206995487213134765625</LatitudeDegrees>
              <LongitudeDegrees>-3.32644904963672161102294921875</LongitudeDegrees>
            </Position>
            <AltitudeMeters>3069.800048828125</AltitudeMeters>
            <DistanceMeters>9782.2398610988</DistanceMeters>
          </Trackpoint>
          <Trackpoint>
            <Time>2019-07-14T12:26:42.000Z</Time>
            <Position>
              <LatitudeDegrees>37.05503378994762897491455078125</LatitudeDegrees>
              <LongitudeDegrees>-3.326353915035724639892578125</LongitudeDegrees>
            </Position>
            <AltitudeMeters>3070</AltitudeMeters>
            <DistanceMeters>9790.6940349233</DistanceMeters>
          </Trackpoint>
          <Trackpoint>
            <Time>2019-07-14T12:26:43.000Z</Time>
            <Position>
              <LatitudeDegrees>37.0550352148711681365966796875</LatitudeDegrees>
              <LongitudeDegrees>-3.326337151229381561279296875</LongitudeDegrees>
            </Position>
            <AltitudeMeters>3070</AltitudeMeters>
            <DistanceMeters>9792.1905171177</DistanceMeters>
          </Trackpoint>
          <Trackpoint>
            <Time>2019-07-15T08:42:31.000Z</Time>
            <Position>
              <LatitudeDegrees>37.0548315346240997314453125</LatitudeDegrees>
              <LongitudeDegrees>-3.32614763639867305755615234375</LongitudeDegrees>
            </Position>
            <AltitudeMeters>3070.199951171875</AltitudeMeters>
            <DistanceMeters>9820.4270461102</DistanceMeters>
          </Trackpoint>
          <Trackpoint>
            <Time>2019-07-15T08:42:32.000Z</Time>
            <Position>
              <LatitudeDegrees>37.05484972335398197174072265625</LatitudeDegrees>
              <LongitudeDegrees>-3.32613858394324779510498046875</LongitudeDegrees>
            </Position>
            <AltitudeMeters>3065.39990234375</AltitudeMeters>
            <DistanceMeters>9822.6064543348</DistanceMeters>
          </Trackpoint>
          <Trackpoint>
            <Time>2019-07-15T08:42:33.000Z</Time>
            <Position>
              <LatitudeDegrees>37.05485408194363117218017578125</LatitudeDegrees>
              <LongitudeDegrees>-3.326132297515869140625</LongitudeDegrees>
            </Position>
            <AltitudeMeters>3065.39990234375</AltitudeMeters>
            <DistanceMeters>9823.3425280992</DistanceMeters>
          </Trackpoint>
          <Trackpoint>
            <Time>2019-07-15T08:42:36.000Z</Time>
            <Position>
              <LatitudeDegrees>37.05485810525715351104736328125</LatitudeDegrees>
              <LongitudeDegrees>-3.3260935731232166290283203125</LongitudeDegrees>
            </Position>
            <AltitudeMeters>3069.39990234375</AltitudeMeters>
            <DistanceMeters>9826.8106777245</DistanceMeters>
          </Trackpoint>
          <Trackpoint>
            <Time>2019-07-15T08:42:37.000Z</Time>
            <Position>
              <LatitudeDegrees>37.054866738617420196533203125</LatitudeDegrees>
              <LongitudeDegrees>-3.3260799944400787353515625</LongitudeDegrees>
            </Position>
            <AltitudeMeters>3069.39990234375</AltitudeMeters>
            <DistanceMeters>9828.3517520591</DistanceMeters>
          </Trackpoint>
          <Trackpoint>
            <Time>2019-07-15T08:42:58.000Z</Time>
            <Position>
              <LatitudeDegrees>37.05488425679504871368408203125</LatitudeDegrees>
              <LongitudeDegrees>-3.3258461393415927886962890625</LongitudeDegrees>
            </Position>
            <AltitudeMeters>3068.39990234375</AltitudeMeters>
            <DistanceMeters>9849.2152561968</DistanceMeters>
          </Trackpoint>
          <Trackpoint>
            <Time>2019-07-15T08:43:18.000Z</Time>
            <Position>
              <LatitudeDegrees>37.05489255487918853759765625</LatitudeDegrees>
              <LongitudeDegrees>-3.3256134577095508575439453125</LongitudeDegrees>
            </Position>
            <AltitudeMeters>3068.39990234375</AltitudeMeters>
            <DistanceMeters>9869.9038180938</DistanceMeters>
          </Trackpoint>
          <Trackpoint>
            <Time>2019-07-15T08:43:39.000Z</Time>
            <Position>
              <LatitudeDegrees>37.05481938086450099945068359375</LatitudeDegrees>
              <LongitudeDegrees>-3.32539628259837627410888671875</LongitudeDegrees>
            </Position>
            <AltitudeMeters>3069.199951171875</AltitudeMeters>
            <DistanceMeters>9890.8433594406</DistanceMeters>
          </Trackpoint>
          <Trackpoint>
            <Time>2019-07-15T08:43:43.000Z</Time>
            <Position>
              <LatitudeDegrees>37.05481611192226409912109375</LatitudeDegrees>
              <LongitudeDegrees>-3.3253546245396137237548828125</LongitudeDegrees>
            </Position>
            <AltitudeMeters>3069.60009765625</AltitudeMeters>
            <DistanceMeters>9894.5603497499</DistanceMeters>
          </Trackpoint>
          <Trackpoint>
            <Time>2019-07-15T08:44:03.000Z</Time>
            <Position>
              <LatitudeDegrees>37.05486732535064220428466796875</LatitudeDegrees>
              <LongitudeDegrees>-3.32516510970890522003173828125</LongitudeDegrees>
            </Position>
            <AltitudeMeters>3068.60009765625</AltitudeMeters>
            <DistanceMeters>9912.3328859767</DistanceMeters>
          </Trackpoint>
          <Trackpoint>
            <Time>2019-07-15T08:44:18.000Z</Time>
            <Position>
              <LatitudeDegrees>37.05491996370255947113037109375</LatitudeDegrees>
              <LongitudeDegrees>-3.32499009557068347930908203125</LongitudeDegrees>
            </Position>
            <AltitudeMeters>3066.800048828125</AltitudeMeters>
            <DistanceMeters>9928.9457191594</DistanceMeters>
          </Trackpoint>
          <Trackpoint>
            <Time>2019-07-15T08:44:19.000Z</Time>
            <Position>
              <LatitudeDegrees>37.05492365173995494842529296875</LatitudeDegrees>
              <LongitudeDegrees>-3.32497693598270416259765625</LongitudeDegrees>
            </Position>
            <AltitudeMeters>3067</AltitudeMeters>
            <DistanceMeters>9930.1847159291</DistanceMeters>
          </Trackpoint>
          <Trackpoint>
            <Time>2019-07-15T08:44:23.000Z</Time>
            <Position>
              <LatitudeDegrees>37.0549359731376171112060546875</LatitudeDegrees>
              <LongitudeDegrees>-3.32492203451693058013916015625</LongitudeDegrees>
            </Position>
            <AltitudeMeters>3067</AltitudeMeters>
            <DistanceMeters>9935.2506291986</DistanceMeters>
          </Trackpoint>
          <Trackpoint>
            <Time>2019-07-15T08:44:44.000Z</Time>
            <Position>
              <LatitudeDegrees>37.05497193150222301483154296875</LatitudeDegrees>
              <LongitudeDegrees>-3.32467476837337017059326171875</LongitudeDegrees>
            </Position>
            <AltitudeMeters>3068.39990234375</AltitudeMeters>
            <DistanceMeters>9957.5758407166</DistanceMeters>
          </Trackpoint>
          <Trackpoint>
            <Time>2019-07-15T08:44:51.000Z</Time>
            <Position>
              <LatitudeDegrees>37.05496623180806636810302734375</LatitudeDegrees>
              <LongitudeDegrees>-3.3245992474257946014404296875</LongitudeDegrees>
            </Position>
            <AltitudeMeters>3068.60009765625</AltitudeMeters>
            <DistanceMeters>9964.3140321921</DistanceMeters>
          </Trackpoint>
          <Trackpoint>
            <Time>2019-07-15T08:44:52.000Z</Time>
            <Position>
              <LatitudeDegrees>37.054972015321254730224609375</LatitudeDegrees>
              <LongitudeDegrees>-3.32458793185651302337646484375</LongitudeDegrees>
            </Position>
            <AltitudeMeters>3068.60009765625</AltitudeMeters>
            <DistanceMeters>9965.5122734677</DistanceMeters>
          </Trackpoint>
          <Trackpoint>
            <Time>2019-07-15T08:45:19.000Z</Time>
            <Position>
              <LatitudeDegrees>37.0550479553639888763427734375</LatitudeDegrees>
              <LongitudeDegrees>-3.32437134347856044769287109375</LongitudeDegrees>
            </Position>
            <AltitudeMeters>3070.800048828125</AltitudeMeters>
            <DistanceMeters>9986.5258580765</DistanceMeters>
          </Trackpoint>
          <Trackpoint>
            <Time>2019-07-15T08:45:32.000Z</Time>
            <Position>
              <LatitudeDegrees>37.05510956235229969024658203125</LatitudeDegrees>
              <LongitudeDegrees>-3.32429565489292144775390625</LongitudeDegrees>
            </Position>
            <AltitudeMeters>3073.800048828125</AltitudeMeters>
            <DistanceMeters>9996.12919972</DistanceMeters>
          </Trackpoint>
          <Trackpoint>
            <Time>2019-07-15T08:45:55.000Z</Time>
            <Position>
              <LatitudeDegrees>37.055106125771999359130859375</LatitudeDegrees>
              <LongitudeDegrees>-3.3241593651473522186279296875</LongitudeDegrees>
            </Position>
            <AltitudeMeters>3077</AltitudeMeters>
            <DistanceMeters>10008.240912722</DistanceMeters>
          </Trackpoint>
          <Trackpoint>
            <Time>2019-07-15T08:46:16.000Z</Time>
            <Position>
              <LatitudeDegrees>37.05512498505413532257080078125</LatitudeDegrees>
              <LongitudeDegrees>-3.32410999573767185211181640625</LongitudeDegrees>
            </Position>
            <AltitudeMeters>3080</AltitudeMeters>
            <DistanceMeters>10013.103087146</DistanceMeters>
          </Trackpoint>
          <Trackpoint>
            <Time>2019-07-15T08:46:27.000Z</Time>
            <Position>
              <LatitudeDegrees>37.055159099400043487548828125</LatitudeDegrees>
              <LongitudeDegrees>-3.32404294051229953765869140625</LongitudeDegrees>
            </Position>
            <AltitudeMeters>3081.60009765625</AltitudeMeters>
            <DistanceMeters>10020.167094679</DistanceMeters>
          </Trackpoint>
          <Trackpoint>
            <Time>2019-07-15T08:46:38.000Z</Time>
            <Position>
              <LatitudeDegrees>37.0551277510821819305419921875</LatitudeDegrees>
              <LongitudeDegrees>-3.323981501162052154541015625</LongitudeDegrees>
            </Position>
            <AltitudeMeters>3083</AltitudeMeters>
            <DistanceMeters>10026.644264984</DistanceMeters>
          </Trackpoint>
          <Trackpoint>
            <Time>2019-07-15T08:46:56.000Z</Time>
            <Position>
              <LatitudeDegrees>37.05515767447650432586669921875</LatitudeDegrees>
              <LongitudeDegrees>-3.32389340735971927642822265625</LongitudeDegrees>
            </Position>
            <AltitudeMeters>3086.199951171875</AltitudeMeters>
            <DistanceMeters>10035.1484923</DistanceMeters>
          </Trackpoint>
          <Trackpoint>
            <Time>2019-07-15T08:47:37.000Z</Time>
            <Position>
              <LatitudeDegrees>37.05509799532592296600341796875</LatitudeDegrees>
              <LongitudeDegrees>-3.3237751387059688568115234375</LongitudeDegrees>
            </Position>
            <AltitudeMeters>3089.199951171875</AltitudeMeters>
            <DistanceMeters>10047.577390792</DistanceMeters>
          </Trackpoint>
          <Trackpoint>
            <Time>2019-07-15T08:48:11.000Z</Time>
            <Position>
              <LatitudeDegrees>37.0550353825092315673828125</LatitudeDegrees>
              <LongitudeDegrees>-3.323583193123340606689453125</LongitudeDegrees>
            </Position>
            <AltitudeMeters>3092</AltitudeMeters>
            <DistanceMeters>10065.995911684</DistanceMeters>
          </Trackpoint>
          <Trackpoint>
            <Time>2019-07-15T08:48:36.000Z</Time>
            <Position>
              <LatitudeDegrees>37.054990120232105255126953125</LatitudeDegrees>
              <LongitudeDegrees>-3.32349945791065692901611328125</LongitudeDegrees>
            </Position>
            <AltitudeMeters>3094.39990234375</AltitudeMeters>
            <DistanceMeters>10074.979329362</DistanceMeters>
          </Trackpoint>
          <Trackpoint>
            <Time>2019-07-15T08:48:44.000Z</Time>
            <Position>
              <LatitudeDegrees>37.05501786433160305023193359375</LatitudeDegrees>
              <LongitudeDegrees>-3.32355360500514507293701171875</LongitudeDegrees>
            </Position>
            <AltitudeMeters>3094</AltitudeMeters>
            <DistanceMeters>10080.694378486</DistanceMeters>
          </Trackpoint>
          <Trackpoint>
            <Time>2019-07-15T08:48:45.000Z</Time>
            <Position>
              <LatitudeDegrees>37.05502641387283802032470703125</LatitudeDegrees>
              <LongitudeDegrees>-3.32354857586324214935302734375</LongitudeDegrees>
            </Position>
            <AltitudeMeters>3094</AltitudeMeters>
            <DistanceMeters>10081.743982853</DistanceMeters>
          </Trackpoint>
          <Trackpoint>
            <Time>2019-07-15T08:48:46.000Z</Time>
            <Position>
              <LatitudeDegrees>37.05503328703343868255615234375</LatitudeDegrees>
              <LongitudeDegrees>-3.32353834994137287139892578125</LongitudeDegrees>
            </Position>
            <AltitudeMeters>3094.39990234375</AltitudeMeters>
            <DistanceMeters>10082.930866135</DistanceMeters>
          </Trackpoint>
          <Trackpoint>
            <Time>2019-07-15T08:48:47.000Z</Time>
            <Position>
              <LatitudeDegrees>37.05503739416599273681640625</LatitudeDegrees>
              <LongitudeDegrees>-3.32353047095239162445068359375</LongitudeDegrees>
            </Position>
            <AltitudeMeters>3094.800048828125</AltitudeMeters>
            <DistanceMeters>10083.764722169</DistanceMeters>
          </Trackpoint>
          <Trackpoint>
            <Time>2019-07-15T08:49:03.000Z</Time>
            <Position>
              <LatitudeDegrees>37.05510738305747509002685546875</LatitudeDegrees>
              <LongitudeDegrees>-3.32346123643219470977783203125</LongitudeDegrees>
            </Position>
            <AltitudeMeters>3098.199951171875</AltitudeMeters>
            <DistanceMeters>10093.689442511</DistanceMeters>
          </Trackpoint>
          <Trackpoint>
            <Time>2019-07-15T08:49:29.000Z</Time>
            <Position>
              <LatitudeDegrees>37.05514744855463504791259765625</LatitudeDegrees>
              <LongitudeDegrees>-3.32337322644889354705810546875</LongitudeDegrees>
            </Position>
            <AltitudeMeters>3101.199951171875</AltitudeMeters>
            <DistanceMeters>10102.689430605</DistanceMeters>
          </Trackpoint>
          <Trackpoint>
            <Time>2019-07-15T08:49:50.000Z</Time>
            <Position>
              <LatitudeDegrees>37.05521534197032451629638671875</LatitudeDegrees>
              <LongitudeDegrees>-3.32331840880215167999267578125</LongitudeDegrees>
            </Position>
            <AltitudeMeters>3104.39990234375</AltitudeMeters>
            <DistanceMeters>10111.67837515</DistanceMeters>
          </Trackpoint>
          <Trackpoint>
            <Time>2019-07-15T08:50:14.000Z</Time>
            <Position>
              <LatitudeDegrees>37.05516270361840724945068359375</LatitudeDegrees>
              <LongitudeDegrees>-3.3232363499701023101806640625</LongitudeDegrees>
            </Position>
            <AltitudeMeters>3107.199951171875</AltitudeMeters>
            <DistanceMeters>10121.030664732</DistanceMeters>
          </Trackpoint>
          <Trackpoint>
            <Time>2019-07-15T08:50:37.000Z</Time>
            <Position>
              <LatitudeDegrees>37.055051140487194061279296875</LatitudeDegrees>
              <LongitudeDegrees>-3.32306426949799060821533203125</LongitudeDegrees>
            </Position>
            <AltitudeMeters>3108.800048828125</AltitudeMeters>
            <DistanceMeters>10140.723905276</DistanceMeters>
          </Trackpoint>
          <Trackpoint>
            <Time>2019-07-15T08:50:58.000Z</Time>
            <Position>
              <LatitudeDegrees>37.05492935143411159515380859375</LatitudeDegrees>
              <LongitudeDegrees>-3.3229091204702854156494140625</LongitudeDegrees>
            </Position>
            <AltitudeMeters>3109</AltitudeMeters>
            <DistanceMeters>10160.054310426</DistanceMeters>
          </Trackpoint>
          <Trackpoint>
            <Time>2019-07-15T08:51:11.000Z</Time>
            <Position>
              <LatitudeDegrees>37.0548353902995586395263671875</LatitudeDegrees>
              <LongitudeDegrees>-3.322835527360439300537109375</LongitudeDegrees>
            </Position>
            <AltitudeMeters>3106.800048828125</AltitudeMeters>
            <DistanceMeters>10172.387299018</DistanceMeters>
          </Trackpoint>
          <Trackpoint>
            <Time>2019-07-15T08:51:35.000Z</Time>
            <Position>
              <LatitudeDegrees>37.05482759512960910797119140625</LatitudeDegrees>
              <LongitudeDegrees>-3.3226548135280609130859375</LongitudeDegrees>
            </Position>
            <AltitudeMeters>3109.800048828125</AltitudeMeters>
            <DistanceMeters>10188.462550108</DistanceMeters>
          </Trackpoint>
          <Trackpoint>
            <Time>2019-07-15T08:52:10.000Z</Time>
            <Position>
              <LatitudeDegrees>37.05484134145081043243408203125</LatitudeDegrees>
              <LongitudeDegrees>-3.32252279855310916900634765625</LongitudeDegrees>
            </Position>
            <AltitudeMeters>3113</AltitudeMeters>
            <DistanceMeters>10200.288318323</DistanceMeters>
          </Trackpoint>
          <Trackpoint>
            <Time>2019-07-15T08:52:52.000Z</Time>
            <Position>
              <LatitudeDegrees>37.05478794872760772705078125</LatitudeDegrees>
              <LongitudeDegrees>-3.322337977588176727294921875</LongitudeDegrees>
            </Position>
            <AltitudeMeters>3114.800048828125</AltitudeMeters>
            <DistanceMeters>10217.7476508</DistanceMeters>
          </Trackpoint>
          <Trackpoint>
            <Time>2019-07-15T08:53:49.000Z</Time>
            <Position>
              <LatitudeDegrees>37.0547462068498134613037109375</LatitudeDegrees>
              <LongitudeDegrees>-3.3222368918359279632568359375</LongitudeDegrees>
            </Position>
            <AltitudeMeters>3117</AltitudeMeters>
            <DistanceMeters>10227.857171322</DistanceMeters>
          </Trackpoint>
          <Trackpoint>
            <Time>2019-07-15T08:54:13.000Z</Time>
            <Position>
              <LatitudeDegrees>37.0546841807663440704345703125</LatitudeDegrees>
              <LongitudeDegrees>-3.3220360614359378814697265625</LongitudeDegrees>
            </Position>
            <AltitudeMeters>3120</AltitudeMeters>
            <DistanceMeters>10246.985413986</DistanceMeters>
          </Trackpoint>
          <Trackpoint>
            <Time>2019-07-15T08:54:32.000Z</Time>
            <Position>
              <LatitudeDegrees>37.05464436672627925872802734375</LatitudeDegrees>
              <LongitudeDegrees>-3.3218945749104022979736328125</LongitudeDegrees>
            </Position>
            <AltitudeMeters>3122.800048828125</AltitudeMeters>
            <DistanceMeters>10260.311534328</DistanceMeters>
          </Trackpoint>
          <Trackpoint>
            <Time>2019-07-15T08:54:33.000Z</Time>
            <Position>
              <LatitudeDegrees>37.05464252270758152008056640625</LatitudeDegrees>
              <LongitudeDegrees>-3.321884684264659881591796875</LongitudeDegrees>
            </Position>
            <AltitudeMeters>3123</AltitudeMeters>
            <DistanceMeters>10261.213036896</DistanceMeters>
          </Trackpoint>
          <Trackpoint>
            <Time>2019-07-15T08:54:58.000Z</Time>
            <Position>
              <LatitudeDegrees>37.05457546748220920562744140625</LatitudeDegrees>
              <LongitudeDegrees>-3.321725428104400634765625</LongitudeDegrees>
            </Position>
            <AltitudeMeters>3126</AltitudeMeters>
            <DistanceMeters>10277.206910895</DistanceMeters>
          </Trackpoint>
          <Trackpoint>
            <Time>2019-07-15T08:55:19.000Z</Time>
            <Position>
              <LatitudeDegrees>37.05457731150090694427490234375</LatitudeDegrees>
              <LongitudeDegrees>-3.3216189779341220855712890625</LongitudeDegrees>
            </Position>
            <AltitudeMeters>3129</AltitudeMeters>
            <DistanceMeters>10286.664814323</DistanceMeters>
          </Trackpoint>
          <Trackpoint>
            <Time>2019-07-15T08:55:44.000Z</Time>
            <Position>
              <LatitudeDegrees>37.0545628108084201812744140625</LatitudeDegrees>
              <LongitudeDegrees>-3.32148092798888683319091796875</LongitudeDegrees>
            </Position>
            <AltitudeMeters>3132.199951171875</AltitudeMeters>
            <DistanceMeters>10299.033263095</DistanceMeters>
          </Trackpoint>
          <Trackpoint>
            <Time>2019-07-15T08:56:04.000Z</Time>
            <Position>
              <LatitudeDegrees>37.0545257627964019775390625</LatitudeDegrees>
              <LongitudeDegrees>-3.32138084806501865386962890625</LongitudeDegrees>
            </Position>
            <AltitudeMeters>3135.199951171875</AltitudeMeters>
            <DistanceMeters>10308.833461719</DistanceMeters>
          </Trackpoint>
          <Trackpoint>
            <Time>2019-07-15T08:56:10.000Z</Time>
            <Position>
              <LatitudeDegrees>37.0544997788965702056884765625</LatitudeDegrees>
              <LongitudeDegrees>-3.32133592106401920318603515625</LongitudeDegrees>
            </Position>
            <AltitudeMeters>3136</AltitudeMeters>
            <DistanceMeters>10313.762042207</DistanceMeters>
          </Trackpoint>
          <Trackpoint>
            <Time>2019-07-15T08:56:11.000Z</Time>
            <Position>
              <LatitudeDegrees>37.054494582116603851318359375</LatitudeDegrees>
              <LongitudeDegrees>-3.32132670097053050994873046875</LongitudeDegrees>
            </Position>
            <AltitudeMeters>3135.800048828125</AltitudeMeters>
            <DistanceMeters>10314.767710424</DistanceMeters>
          </Trackpoint>
          <Trackpoint>
            <Time>2019-07-15T08:56:42.000Z</Time>
            <Position>
              <LatitudeDegrees>37.0544203184545040130615234375</LatitudeDegrees>
              <LongitudeDegrees>-3.321162499487400054931640625</LongitudeDegrees>
            </Position>
            <AltitudeMeters>3139</AltitudeMeters>
            <DistanceMeters>10331.532318956</DistanceMeters>
          </Trackpoint>
          <Trackpoint>
            <Time>2019-07-15T08:56:47.000Z</Time>
            <Position>
              <LatitudeDegrees>37.0544075779616832733154296875</LatitudeDegrees>
              <LongitudeDegrees>-3.32112687639892101287841796875</LongitudeDegrees>
            </Position>
            <AltitudeMeters>3139.800048828125</AltitudeMeters>
            <DistanceMeters>10335.000468582</DistanceMeters>
          </Trackpoint>
          <Trackpoint>
            <Time>2019-07-15T08:57:02.000Z</Time>
            <Position>
              <LatitudeDegrees>37.0543720386922359466552734375</LatitudeDegrees>
              <LongitudeDegrees>-3.3210146427154541015625</LongitudeDegrees>
            </Position>
            <AltitudeMeters>3142.39990234375</AltitudeMeters>
            <DistanceMeters>10345.725444747</DistanceMeters>
          </Trackpoint>
          <Trackpoint>
            <Time>2019-07-15T08:57:30.000Z</Time>
            <Position>
              <LatitudeDegrees>37.0542945899069309234619140625</LatitudeDegrees>
              <LongitudeDegrees>-3.3208143152296543121337890625</LongitudeDegrees>
            </Position>
            <AltitudeMeters>3145.199951171875</AltitudeMeters>
            <DistanceMeters>10365.497853036</DistanceMeters>
          </Trackpoint>
          <Trackpoint>
            <Time>2019-07-15T08:57:53.000Z</Time>
            <Position>
              <LatitudeDegrees>37.05423197709023952484130859375</LatitudeDegrees>
              <LongitudeDegrees>-3.32068749703466892242431640625</LongitudeDegrees>
            </Position>
            <AltitudeMeters>3148.39990234375</AltitudeMeters>
            <DistanceMeters>10378.744454316</DistanceMeters>
          </Trackpoint>
          <Trackpoint>
            <Time>2019-07-15T08:58:26.000Z</Time>
            <Position>
              <LatitudeDegrees>37.05421202816069126129150390625</LatitudeDegrees>
              <LongitudeDegrees>-3.32069747149944305419921875</LongitudeDegrees>
            </Position>
            <AltitudeMeters>3148.60009765625</AltitudeMeters>
            <DistanceMeters>10381.137165846</DistanceMeters>
          </Trackpoint>
          <Trackpoint>
            <Time>2019-07-15T08:59:01.000Z</Time>
            <Position>
              <LatitudeDegrees>37.05414514057338237762451171875</LatitudeDegrees>
              <LongitudeDegrees>-3.32057735882699489593505859375</LongitudeDegrees>
            </Position>
            <AltitudeMeters>3150.800048828125</AltitudeMeters>
            <DistanceMeters>10394.146805456</DistanceMeters>
          </Trackpoint>
          <Trackpoint>
            <Time>2019-07-15T08:59:26.000Z</Time>
            <Position>
              <LatitudeDegrees>37.05403651110827922821044921875</LatitudeDegrees>
              <LongitudeDegrees>-3.32040133886039257049560546875</LongitudeDegrees>
            </Position>
            <AltitudeMeters>3153.800048828125</AltitudeMeters>
            <DistanceMeters>10413.911676744</DistanceMeters>
          </Trackpoint>
          <Trackpoint>
            <Time>2019-07-15T08:59:44.000Z</Time>
            <Position>
              <LatitudeDegrees>37.0539807714521884918212890625</LatitudeDegrees>
              <LongitudeDegrees>-3.3202704973518848419189453125</LongitudeDegrees>
            </Position>
            <AltitudeMeters>3156.800048828125</AltitudeMeters>
            <DistanceMeters>10427.086506132</DistanceMeters>
          </Trackpoint>
          <Trackpoint>
            <Time>2019-07-15T09:00:01.000Z</Time>
            <Position>
              <LatitudeDegrees>37.05391882918775081634521484375</LatitudeDegrees>
              <LongitudeDegrees>-3.3201444335281848907470703125</LongitudeDegrees>
            </Position>
            <AltitudeMeters>3160</AltitudeMeters>
            <DistanceMeters>10440.236637839</DistanceMeters>
          </Trackpoint>
          <Trackpoint>
            <Time>2019-07-15T09:00:16.000Z</Time>
            <Position>
              <LatitudeDegrees>37.0538962818682193756103515625</LatitudeDegrees>
              <LongitudeDegrees>-3.32004879601299762725830078125</LongitudeDegrees>
            </Position>
            <AltitudeMeters>3161.800048828125</AltitudeMeters>
            <DistanceMeters>10449.095044259</DistanceMeters>
          </Trackpoint>
          <Trackpoint>
            <Time>2019-07-15T09:00:37.000Z</Time>
            <Position>
              <LatitudeDegrees>37.0538855530321598052978515625</LatitudeDegrees>
              <LongitudeDegrees>-3.31994720734655857086181640625</LongitudeDegrees>
            </Position>
            <AltitudeMeters>3165</AltitudeMeters>
            <DistanceMeters>10458.197294056</DistanceMeters>
          </Trackpoint>
          <Trackpoint>
            <Time>2019-07-15T09:00:58.000Z</Time>
            <Position>
              <LatitudeDegrees>37.05385395325720310211181640625</LatitudeDegrees>
              <LongitudeDegrees>-3.31980823539197444915771484375</LongitudeDegrees>
            </Position>
            <AltitudeMeters>3168</AltitudeMeters>
            <DistanceMeters>10471.033289335</DistanceMeters>
          </Trackpoint>
          <Trackpoint>
            <Time>2019-07-15T09:01:58.000Z</Time>
            <Position>
              <LatitudeDegrees>37.05378991551697254180908203125</LatitudeDegrees>
              <LongitudeDegrees>-3.31966607831418514251708984375</LongitudeDegrees>
            </Position>
            <AltitudeMeters>3171.39990234375</AltitudeMeters>
            <DistanceMeters>10485.533506572</DistanceMeters>
          </Trackpoint>
          <Trackpoint>
            <Time>2019-07-15T09:01:59.000Z</Time>
            <Position>
              <LatitudeDegrees>37.053790502250194549560546875</LatitudeDegrees>
              <LongitudeDegrees>-3.31965350545942783355712890625</LongitudeDegrees>
            </Position>
            <AltitudeMeters>3171.60009765625</AltitudeMeters>
            <DistanceMeters>10486.657877819</DistanceMeters>
          </Trackpoint>
          <Trackpoint>
            <Time>2019-07-15T09:02:12.000Z</Time>
            <Position>
              <LatitudeDegrees>37.05380760133266448974609375</LatitudeDegrees>
              <LongitudeDegrees>-3.31956155598163604736328125</LongitudeDegrees>
            </Position>
            <AltitudeMeters>3174.800048828125</AltitudeMeters>
            <DistanceMeters>10495.045028438</DistanceMeters>
          </Trackpoint>
          <Trackpoint>
            <Time>2019-07-15T09:02:35.000Z</Time>
            <Position>
              <LatitudeDegrees>37.05379477702081203460693359375</LatitudeDegrees>
              <LongitudeDegrees>-3.31949274055659770965576171875</LongitudeDegrees>
            </Position>
            <AltitudeMeters>3177.800048828125</AltitudeMeters>
            <DistanceMeters>10501.322548139</DistanceMeters>
          </Trackpoint>
          <Trackpoint>
            <Time>2019-07-15T09:03:08.000Z</Time>
            <Position>
              <LatitudeDegrees>37.05382243730127811431884765625</LatitudeDegrees>
              <LongitudeDegrees>-3.31952023319900035858154296875</LongitudeDegrees>
            </Position>
            <AltitudeMeters>3178</AltitudeMeters>
            <DistanceMeters>10505.25210673</DistanceMeters>
          </Trackpoint>
          <Trackpoint>
            <Time>2019-07-15T09:03:26.000Z</Time>
            <Position>
              <LatitudeDegrees>37.05384758301079273223876953125</LatitudeDegrees>
              <LongitudeDegrees>-3.3195018768310546875</LongitudeDegrees>
            </Position>
            <AltitudeMeters>3178.199951171875</AltitudeMeters>
            <DistanceMeters>10508.491388877</DistanceMeters>
          </Trackpoint>
          <Trackpoint>
            <Time>2019-07-15T09:03:47.000Z</Time>
            <Position>
              <LatitudeDegrees>37.05376778729259967803955078125</LatitudeDegrees>
              <LongitudeDegrees>-3.319384194910526275634765625</LongitudeDegrees>
            </Position>
            <AltitudeMeters>3179.800048828125</AltitudeMeters>
            <DistanceMeters>10522.208191449</DistanceMeters>
          </Trackpoint>
          <Trackpoint>
            <Time>2019-07-15T09:03:51.000Z</Time>
            <Position>
              <LatitudeDegrees>37.053746916353702545166015625</LatitudeDegrees>
              <LongitudeDegrees>-3.31935100257396697998046875</LongitudeDegrees>
            </Position>
            <AltitudeMeters>3180.199951171875</AltitudeMeters>
            <DistanceMeters>10525.960242778</DistanceMeters>
          </Trackpoint>
          <Trackpoint>
            <Time>2019-07-15T09:03:52.000Z</Time>
            <Position>
              <LatitudeDegrees>37.0537427254021167755126953125</LatitudeDegrees>
              <LongitudeDegrees>-3.31934086047112941741943359375</LongitudeDegrees>
            </Position>
            <AltitudeMeters>3180.39990234375</AltitudeMeters>
            <DistanceMeters>10526.974850443</DistanceMeters>
          </Trackpoint>
          <Trackpoint>
            <Time>2019-07-15T09:04:10.000Z</Time>
            <Position>
              <LatitudeDegrees>37.05364239402115345001220703125</LatitudeDegrees>
              <LongitudeDegrees>-3.31920976750552654266357421875</LongitudeDegrees>
            </Position>
            <AltitudeMeters>3183.39990234375</AltitudeMeters>
            <DistanceMeters>10543.108696345</DistanceMeters>
          </Trackpoint>
          <Trackpoint>
            <Time>2019-07-15T09:04:29.000Z</Time>
            <Position>
              <LatitudeDegrees>37.05355086363852024078369140625</LatitudeDegrees>
              <LongitudeDegrees>-3.3190740644931793212890625</LongitudeDegrees>
            </Position>
            <AltitudeMeters>3186.60009765625</AltitudeMeters>
            <DistanceMeters>10558.891143196</DistanceMeters>
          </Trackpoint>
          <Trackpoint>
            <Time>2019-07-15T09:04:43.000Z</Time>
            <Position>
              <LatitudeDegrees>37.05353745259344577789306640625</LatitudeDegrees>
              <LongitudeDegrees>-3.31898328848183155059814453125</LongitudeDegrees>
            </Position>
            <AltitudeMeters>3190</AltitudeMeters>
            <DistanceMeters>10567.091568751</DistanceMeters>
          </Trackpoint>
          <Trackpoint>
            <Time>2019-07-15T09:05:08.000Z</Time>
            <Position>
              <LatitudeDegrees>37.0535063557326793670654296875</LatitudeDegrees>
              <LongitudeDegrees>-3.318841047585010528564453125</LongitudeDegrees>
            </Position>
            <AltitudeMeters>3193.199951171875</AltitudeMeters>
            <DistanceMeters>10580.191820765</DistanceMeters>
          </Trackpoint>
          <Trackpoint>
            <Time>2019-07-15T09:06:11.000Z</Time>
            <Position>
              <LatitudeDegrees>37.05351498909294605255126953125</LatitudeDegrees>
              <LongitudeDegrees>-3.31881933845579624176025390625</LongitudeDegrees>
            </Position>
            <AltitudeMeters>3193.800048828125</AltitudeMeters>
            <DistanceMeters>10582.346225391</DistanceMeters>
          </Trackpoint>
          <Trackpoint>
            <Time>2019-07-15T09:06:27.000Z</Time>
            <Position>
              <LatitudeDegrees>37.0535100437700748443603515625</LatitudeDegrees>
              <LongitudeDegrees>-3.3186985552310943603515625</LongitudeDegrees>
            </Position>
            <AltitudeMeters>3197</AltitudeMeters>
            <DistanceMeters>10593.088868313</DistanceMeters>
          </Trackpoint>
          <Trackpoint>
            <Time>2019-07-15T09:06:38.000Z</Time>
            <Position>
              <LatitudeDegrees>37.053482718765735626220703125</LatitudeDegrees>
              <LongitudeDegrees>-3.31862353719770908355712890625</LongitudeDegrees>
            </Position>
            <AltitudeMeters>3200</AltitudeMeters>
            <DistanceMeters>10600.413942663</DistanceMeters>
          </Trackpoint>
          <Trackpoint>
            <Time>2019-07-15T09:06:40.000Z</Time>
            <Position>
              <LatitudeDegrees>37.05346788279712200164794921875</LatitudeDegrees>
              <LongitudeDegrees>-3.31860660575330257415771484375</LongitudeDegrees>
            </Position>
            <AltitudeMeters>3200.39990234375</AltitudeMeters>
            <DistanceMeters>10602.646564932</DistanceMeters>
          </Trackpoint>
          <Trackpoint>
            <Time>2019-07-15T09:06:41.000Z</Time>
            <Position>
              <LatitudeDegrees>37.0534594170749187469482421875</LatitudeDegrees>
              <LongitudeDegrees>-3.318598978221416473388671875</LongitudeDegrees>
            </Position>
            <AltitudeMeters>3200.199951171875</AltitudeMeters>
            <DistanceMeters>10603.810399743</DistanceMeters>
          </Trackpoint>
          <Trackpoint>
            <Time>2019-07-15T09:07:02.000Z</Time>
            <Position>
              <LatitudeDegrees>37.05330527387559413909912109375</LatitudeDegrees>
              <LongitudeDegrees>-3.318452127277851104736328125</LongitudeDegrees>
            </Position>
            <AltitudeMeters>3201.39990234375</AltitudeMeters>
            <DistanceMeters>10625.362827269</DistanceMeters>
          </Trackpoint>
          <Trackpoint>
            <Time>2019-07-15T09:07:25.000Z</Time>
            <Position>
              <LatitudeDegrees>37.05321810208261013031005859375</LatitudeDegrees>
              <LongitudeDegrees>-3.318299241364002227783203125</LongitudeDegrees>
            </Position>
            <AltitudeMeters>3204.39990234375</AltitudeMeters>
            <DistanceMeters>10642.052938058</DistanceMeters>
          </Trackpoint>
          <Trackpoint>
            <Time>2019-07-15T09:07:44.000Z</Time>
            <Position>
              <LatitudeDegrees>37.05314132384955883026123046875</LatitudeDegrees>
              <LongitudeDegrees>-3.3181834034621715545654296875</LongitudeDegrees>
            </Position>
            <AltitudeMeters>3207.60009765625</AltitudeMeters>
            <DistanceMeters>10655.428433357</DistanceMeters>
          </Trackpoint>
          <Trackpoint>
            <Time>2019-07-15T09:09:01.000Z</Time>
            <Position>
              <LatitudeDegrees>37.0530344545841217041015625</LatitudeDegrees>
              <LongitudeDegrees>-3.31807167269289493560791015625</LongitudeDegrees>
            </Position>
            <AltitudeMeters>3210.60009765625</AltitudeMeters>
            <DistanceMeters>10670.919828116</DistanceMeters>
          </Trackpoint>
          <Trackpoint>
            <Time>2019-07-15T09:09:24.000Z</Time>
            <Position>
              <LatitudeDegrees>37.052953653037548065185546875</LatitudeDegrees>
              <LongitudeDegrees>-3.31791996024549007415771484375</LongitudeDegrees>
            </Position>
            <AltitudeMeters>3214</AltitudeMeters>
            <DistanceMeters>10687.121255895</DistanceMeters>
          </Trackpoint>
          <Trackpoint>
            <Time>2019-07-15T09:09:46.000Z</Time>
            <Position>
              <LatitudeDegrees>37.05287796445190906524658203125</LatitudeDegrees>
              <LongitudeDegrees>-3.31779222004115581512451171875</LongitudeDegrees>
            </Position>
            <AltitudeMeters>3217</AltitudeMeters>
            <DistanceMeters>10701.25374438</DistanceMeters>
          </Trackpoint>
          <Trackpoint>
            <Time>2019-07-15T09:10:02.000Z</Time>
            <Position>
              <LatitudeDegrees>37.05283219926059246063232421875</LatitudeDegrees>
              <LongitudeDegrees>-3.3177059702575206756591796875</LongitudeDegrees>
            </Position>
            <AltitudeMeters>3219.800048828125</AltitudeMeters>
            <DistanceMeters>10710.454175706</DistanceMeters>
          </Trackpoint>
          <Trackpoint>
            <Time>2019-07-15T09:10:05.000Z</Time>
            <Position>
              <LatitudeDegrees>37.052826918661594390869140625</LatitudeDegrees>
              <LongitudeDegrees>-3.31769381649792194366455078125</LongitudeDegrees>
            </Position>
            <AltitudeMeters>3220</AltitudeMeters>
            <DistanceMeters>10711.685862697</DistanceMeters>
          </Trackpoint>
          <Trackpoint>
            <Time>2019-07-15T09:10:29.000Z</Time>
            <Position>
              <LatitudeDegrees>37.05275424756109714508056640625</LatitudeDegrees>
              <LongitudeDegrees>-3.3175943233072757720947265625</LongitudeDegrees>
            </Position>
            <AltitudeMeters>3223.199951171875</AltitudeMeters>
            <DistanceMeters>10723.666768136</DistanceMeters>
          </Trackpoint>
          <Trackpoint>
            <Time>2019-07-15T09:10:58.000Z</Time>
            <Position>
              <LatitudeDegrees>37.052649557590484619140625</LatitudeDegrees>
              <LongitudeDegrees>-3.31749784760177135467529296875</LongitudeDegrees>
            </Position>
            <AltitudeMeters>3226.199951171875</AltitudeMeters>
            <DistanceMeters>10738.13082051</DistanceMeters>
          </Trackpoint>
          <Trackpoint>
            <Time>2019-07-15T09:11:08.000Z</Time>
            <Position>
              <LatitudeDegrees>37.0526094920933246612548828125</LatitudeDegrees>
              <LongitudeDegrees>-3.317450322210788726806640625</LongitudeDegrees>
            </Position>
            <AltitudeMeters>3229.199951171875</AltitudeMeters>
            <DistanceMeters>10744.271634725</DistanceMeters>
          </Trackpoint>
          <Trackpoint>
            <Time>2019-07-15T09:11:30.000Z</Time>
            <Position>
              <LatitudeDegrees>37.05252240411937236785888671875</LatitudeDegrees>
              <LongitudeDegrees>-3.31734362058341503143310546875</LongitudeDegrees>
            </Position>
            <AltitudeMeters>3230.800048828125</AltitudeMeters>
            <DistanceMeters>10757.828520277</DistanceMeters>
          </Trackpoint>
          <Trackpoint>
            <Time>2019-07-15T09:11:55.000Z</Time>
            <Position>
              <LatitudeDegrees>37.05248250626027584075927734375</LatitudeDegrees>
              <LongitudeDegrees>-3.3172325603663921356201171875</LongitudeDegrees>
            </Position>
            <AltitudeMeters>3234</AltitudeMeters>
            <DistanceMeters>10768.647803106</DistanceMeters>
          </Trackpoint>
          <Trackpoint>
            <Time>2019-07-15T09:12:13.000Z</Time>
            <Position>
              <LatitudeDegrees>37.0524666644632816314697265625</LatitudeDegrees>
              <LongitudeDegrees>-3.317161984741687774658203125</LongitudeDegrees>
            </Position>
            <AltitudeMeters>3237.199951171875</AltitudeMeters>
            <DistanceMeters>10775.160426929</DistanceMeters>
          </Trackpoint>
          <Trackpoint>
            <Time>2019-07-15T09:12:35.000Z</Time>
            <Position>
              <LatitudeDegrees>37.05240556038916110992431640625</LatitudeDegrees>
              <LongitudeDegrees>-3.3170830272138118743896484375</LongitudeDegrees>
            </Position>
            <AltitudeMeters>3240.199951171875</AltitudeMeters>
            <DistanceMeters>10784.93017145</DistanceMeters>
          </Trackpoint>
          <Trackpoint>
            <Time>2019-07-15T09:13:02.000Z</Time>
            <Position>
              <LatitudeDegrees>37.0523818396031856536865234375</LatitudeDegrees>
              <LongitudeDegrees>-3.317000381648540496826171875</LongitudeDegrees>
            </Position>
            <AltitudeMeters>3243.39990234375</AltitudeMeters>
            <DistanceMeters>10792.731627419</DistanceMeters>
          </Trackpoint>
          <Trackpoint>
            <Time>2019-07-15T09:13:19.000Z</Time>
            <Position>
              <LatitudeDegrees>37.052338086068630218505859375</LatitudeDegrees>
              <LongitudeDegrees>-3.31692066974937915802001953125</LongitudeDegrees>
            </Position>
            <AltitudeMeters>3246.39990234375</AltitudeMeters>
            <DistanceMeters>10801.325111297</DistanceMeters>
          </Trackpoint>
          <Trackpoint>
            <Time>2019-07-15T09:13:39.000Z</Time>
            <Position>
              <LatitudeDegrees>37.0522896386682987213134765625</LatitudeDegrees>
              <LongitudeDegrees>-3.3168355934321880340576171875</LongitudeDegrees>
            </Position>
            <AltitudeMeters>3249.60009765625</AltitudeMeters>
            <DistanceMeters>10810.609080257</DistanceMeters>
          </Trackpoint>
          <Trackpoint>
            <Time>2019-07-15T09:14:01.000Z</Time>
            <Position>
              <LatitudeDegrees>37.05234252847731113433837890625</LatitudeDegrees>
              <LongitudeDegrees>-3.3167620003223419189453125</LongitudeDegrees>
            </Position>
            <AltitudeMeters>3252.60009765625</AltitudeMeters>
            <DistanceMeters>10819.405598037</DistanceMeters>
          </Trackpoint>
          <Trackpoint>
            <Time>2019-07-15T09:16:12.000Z</Time>
            <Position>
              <LatitudeDegrees>37.05232861451804637908935546875</LatitudeDegrees>
              <LongitudeDegrees>-3.316784799098968505859375</LongitudeDegrees>
            </Position>
            <AltitudeMeters>3252.199951171875</AltitudeMeters>
            <DistanceMeters>10821.955432353</DistanceMeters>
          </Trackpoint>
          <Trackpoint>
            <Time>2019-07-15T09:16:35.000Z</Time>
            <Position>
              <LatitudeDegrees>37.0523191429674625396728515625</LatitudeDegrees>
              <LongitudeDegrees>-3.31678756512701511383056640625</LongitudeDegrees>
            </Position>
            <AltitudeMeters>3252.800048828125</AltitudeMeters>
            <DistanceMeters>10823.034728356</DistanceMeters>
          </Trackpoint>
          <Trackpoint>
            <Time>2019-07-15T09:16:49.000Z</Time>
            <Position>
              <LatitudeDegrees>37.0523245073854923248291015625</LatitudeDegrees>
              <LongitudeDegrees>-3.31678605638444423675537109375</LongitudeDegrees>
            </Position>
            <AltitudeMeters>3252.39990234375</AltitudeMeters>
            <DistanceMeters>10823.650571851</DistanceMeters>
          </Trackpoint>
          <Trackpoint>
            <Time>2019-07-15T09:17:07.000Z</Time>
            <Position>
              <LatitudeDegrees>37.05231587402522563934326171875</LatitudeDegrees>
              <LongitudeDegrees>-3.31677968613803386688232421875</LongitudeDegrees>
            </Position>
            <AltitudeMeters>3252</AltitudeMeters>
            <DistanceMeters>10824.766882986</DistanceMeters>
          </Trackpoint>
          <Trackpoint>
            <Time>2019-07-15T09:17:37.000Z</Time>
            <Position>
              <LatitudeDegrees>37.05233037471771240234375</LatitudeDegrees>
              <LongitudeDegrees>-3.316762335598468780517578125</LongitudeDegrees>
            </Position>
            <AltitudeMeters>3252.199951171875</AltitudeMeters>
            <DistanceMeters>10826.997482035</DistanceMeters>
          </Trackpoint>
          <Trackpoint>
            <Time>2019-07-15T09:17:56.000Z</Time>
            <Position>
              <LatitudeDegrees>37.0523141138255596160888671875</LatitudeDegrees>
              <LongitudeDegrees>-3.31665429286658763885498046875</LongitudeDegrees>
            </Position>
            <AltitudeMeters>3255.199951171875</AltitudeMeters>
            <DistanceMeters>10836.763528697</DistanceMeters>
          </Trackpoint>
          <Trackpoint>
            <Time>2019-07-15T09:18:16.000Z</Time>
            <Position>
              <LatitudeDegrees>37.0522494055330753326416015625</LatitudeDegrees>
              <LongitudeDegrees>-3.31659427843987941741943359375</LongitudeDegrees>
            </Position>
            <AltitudeMeters>3258.39990234375</AltitudeMeters>
            <DistanceMeters>10845.72379709</DistanceMeters>
          </Trackpoint>
          <Trackpoint>
            <Time>2019-07-15T09:18:37.000Z</Time>
            <Position>
              <LatitudeDegrees>37.05223239026963710784912109375</LatitudeDegrees>
              <LongitudeDegrees>-3.31652789376676082611083984375</LongitudeDegrees>
            </Position>
            <AltitudeMeters>3261.39990234375</AltitudeMeters>
            <DistanceMeters>10851.917323124</DistanceMeters>
          </Trackpoint>
          <Trackpoint>
            <Time>2019-07-15T09:18:55.000Z</Time>
            <Position>
              <LatitudeDegrees>37.0521964319050312042236328125</LatitudeDegrees>
              <LongitudeDegrees>-3.31648648716509342193603515625</LongitudeDegrees>
            </Position>
            <AltitudeMeters>3264.39990234375</AltitudeMeters>
            <DistanceMeters>10857.353814658</DistanceMeters>
          </Trackpoint>
          <Trackpoint>
            <Time>2019-07-15T09:19:24.000Z</Time>
            <Position>
              <LatitudeDegrees>37.0521756447851657867431640625</LatitudeDegrees>
              <LongitudeDegrees>-3.31638137809932231903076171875</LongitudeDegrees>
            </Position>
            <AltitudeMeters>3267.60009765625</AltitudeMeters>
            <DistanceMeters>10866.972658832</DistanceMeters>
          </Trackpoint>
          <Trackpoint>
            <Time>2019-07-15T09:19:45.000Z</Time>
            <Position>
              <LatitudeDegrees>37.05218612216413021087646484375</LatitudeDegrees>
              <LongitudeDegrees>-3.3162877522408962249755859375</LongitudeDegrees>
            </Position>
            <AltitudeMeters>3270.60009765625</AltitudeMeters>
            <DistanceMeters>10875.370569109</DistanceMeters>
          </Trackpoint>
          <Trackpoint>
            <Time>2019-07-15T09:20:06.000Z</Time>
            <Position>
              <LatitudeDegrees>37.05213197506964206695556640625</LatitudeDegrees>
              <LongitudeDegrees>-3.31621306948363780975341796875</LongitudeDegrees>
            </Position>
            <AltitudeMeters>3273.800048828125</AltitudeMeters>
            <DistanceMeters>10884.333356625</DistanceMeters>
          </Trackpoint>
          <Trackpoint>
            <Time>2019-07-15T09:20:29.000Z</Time>
            <Position>
              <LatitudeDegrees>37.05209903419017791748046875</LatitudeDegrees>
              <LongitudeDegrees>-3.31614735536277294158935546875</LongitudeDegrees>
            </Position>
            <AltitudeMeters>3276.800048828125</AltitudeMeters>
            <DistanceMeters>10891.226560687</DistanceMeters>
          </Trackpoint>
          <Trackpoint>
            <Time>2019-07-15T09:20:51.000Z</Time>
            <Position>
              <LatitudeDegrees>37.05214597284793853759765625</LatitudeDegrees>
              <LongitudeDegrees>-3.31607392989099025726318359375</LongitudeDegrees>
            </Position>
            <AltitudeMeters>3280</AltitudeMeters>
            <DistanceMeters>10899.582970272</DistanceMeters>
          </Trackpoint>
          <Trackpoint>
            <Time>2019-07-15T09:21:12.000Z</Time>
            <Position>
              <LatitudeDegrees>37.0520804263651371002197265625</LatitudeDegrees>
              <LongitudeDegrees>-3.31602447666227817535400390625</LongitudeDegrees>
            </Position>
            <AltitudeMeters>3283</AltitudeMeters>
            <DistanceMeters>10908.098339544</DistanceMeters>
          </Trackpoint>
          <Trackpoint>
            <Time>2019-07-15T09:21:35.000Z</Time>
            <Position>
              <LatitudeDegrees>37.052110098302364349365234375</LatitudeDegrees>
              <LongitudeDegrees>-3.3159390650689601898193359375</LongitudeDegrees>
            </Position>
            <AltitudeMeters>3286</AltitudeMeters>
            <DistanceMeters>10916.373305989</DistanceMeters>
          </Trackpoint>
          <Trackpoint>
            <Time>2019-07-15T09:21:58.000Z</Time>
            <Position>
              <LatitudeDegrees>37.05202049575746059417724609375</LatitudeDegrees>
              <LongitudeDegrees>-3.3158488757908344268798828125</LongitudeDegrees>
            </Position>
            <AltitudeMeters>3289.199951171875</AltitudeMeters>
            <DistanceMeters>10929.165610134</DistanceMeters>
          </Trackpoint>
          <Trackpoint>
            <Time>2019-07-15T09:22:18.000Z</Time>
            <Position>
              <LatitudeDegrees>37.0519577153027057647705078125</LatitudeDegrees>
              <LongitudeDegrees>-3.3157858438789844512939453125</LongitudeDegrees>
            </Position>
            <AltitudeMeters>3292.199951171875</AltitudeMeters>
            <DistanceMeters>10938.119325489</DistanceMeters>
          </Trackpoint>
          <Trackpoint>
            <Time>2019-07-15T09:22:32.000Z</Time>
            <Position>
              <LatitudeDegrees>37.0519550330936908721923828125</LatitudeDegrees>
              <LongitudeDegrees>-3.315710239112377166748046875</LongitudeDegrees>
            </Position>
            <AltitudeMeters>3295.199951171875</AltitudeMeters>
            <DistanceMeters>10944.841416126</DistanceMeters>
          </Trackpoint>
          <Trackpoint>
            <Time>2019-07-15T09:22:57.000Z</Time>
            <Position>
              <LatitudeDegrees>37.0518920011818408966064453125</LatitudeDegrees>
              <LongitudeDegrees>-3.31564779393374919891357421875</LongitudeDegrees>
            </Position>
            <AltitudeMeters>3298.199951171875</AltitudeMeters>
            <DistanceMeters>10953.784535663</DistanceMeters>
          </Trackpoint>
          <Trackpoint>
            <Time>2019-07-15T09:25:33.000Z</Time>
            <Position>
              <LatitudeDegrees>37.051887474954128265380859375</LatitudeDegrees>
              <LongitudeDegrees>-3.31562248058617115020751953125</LongitudeDegrees>
            </Position>
            <AltitudeMeters>3297.39990234375</AltitudeMeters>
            <DistanceMeters>10956.086850775</DistanceMeters>
          </Trackpoint>
          <Trackpoint>
            <Time>2019-07-15T09:25:56.000Z</Time>
            <Position>
              <LatitudeDegrees>37.0518829487264156341552734375</LatitudeDegrees>
              <LongitudeDegrees>-3.3156285993754863739013671875</LongitudeDegrees>
            </Position>
            <AltitudeMeters>3298.199951171875</AltitudeMeters>
            <DistanceMeters>10956.822924539</DistanceMeters>
          </Trackpoint>
          <Trackpoint>
            <Time>2019-07-15T09:26:13.000Z</Time>
            <Position>
              <LatitudeDegrees>37.05189158208668231964111328125</LatitudeDegrees>
              <LongitudeDegrees>-3.31563136540353298187255859375</LongitudeDegrees>
            </Position>
            <AltitudeMeters>3297.199951171875</AltitudeMeters>
            <DistanceMeters>10957.810471123</DistanceMeters>
          </Trackpoint>
          <Trackpoint>
            <Time>2019-07-15T09:26:45.000Z</Time>
            <Position>
              <LatitudeDegrees>37.051943130791187286376953125</LatitudeDegrees>
              <LongitudeDegrees>-3.31559901125729084014892578125</LongitudeDegrees>
            </Position>
            <AltitudeMeters>3299.800048828125</AltitudeMeters>
            <DistanceMeters>10964.227413431</DistanceMeters>
          </Trackpoint>
          <Trackpoint>
            <Time>2019-07-15T09:27:02.000Z</Time>
            <Position>
              <LatitudeDegrees>37.0519178174436092376708984375</LatitudeDegrees>
              <LongitudeDegrees>-3.31551251001656055450439453125</LongitudeDegrees>
            </Position>
            <AltitudeMeters>3303</AltitudeMeters>
            <DistanceMeters>10972.411304742</DistanceMeters>
          </Trackpoint>
          <Trackpoint>
            <Time>2019-07-15T09:27:20.000Z</Time>
            <Position>
              <LatitudeDegrees>37.05195545218884944915771484375</LatitudeDegrees>
              <LongitudeDegrees>-3.31544562242925167083740234375</LongitudeDegrees>
            </Position>
            <AltitudeMeters>3306.199951171875</AltitudeMeters>
            <DistanceMeters>10979.681935217</DistanceMeters>
          </Trackpoint>
          <Trackpoint>
            <Time>2019-07-15T09:27:43.000Z</Time>
            <Position>
              <LatitudeDegrees>37.05198235809803009033203125</LatitudeDegrees>
              <LongitudeDegrees>-3.3153654076159000396728515625</LongitudeDegrees>
            </Position>
            <AltitudeMeters>3309.199951171875</AltitudeMeters>
            <DistanceMeters>10987.411293907</DistanceMeters>
          </Trackpoint>
          <Trackpoint>
            <Time>2019-07-15T09:28:26.000Z</Time>
            <Position>
              <LatitudeDegrees>37.05199333839118480682373046875</LatitudeDegrees>
              <LongitudeDegrees>-3.315325342118740081787109375</LongitudeDegrees>
            </Position>
            <AltitudeMeters>3311</AltitudeMeters>
            <DistanceMeters>10991.174159818</DistanceMeters>
          </Trackpoint>
          <Trackpoint>
            <Time>2019-07-15T09:28:43.000Z</Time>
            <Position>
              <LatitudeDegrees>37.05199870280921459197998046875</LatitudeDegrees>
              <LongitudeDegrees>-3.315305225551128387451171875</LongitudeDegrees>
            </Position>
            <AltitudeMeters>3312.199951171875</AltitudeMeters>
            <DistanceMeters>10993.060386241</DistanceMeters>
          </Trackpoint>
          <Trackpoint>
            <Time>2019-07-15T09:29:01.000Z</Time>
            <Position>
              <LatitudeDegrees>37.0519617386162281036376953125</LatitudeDegrees>
              <LongitudeDegrees>-3.315209336578845977783203125</LongitudeDegrees>
            </Position>
            <AltitudeMeters>3315.39990234375</AltitudeMeters>
            <DistanceMeters>11002.520199006</DistanceMeters>
          </Trackpoint>
          <Trackpoint>
            <Time>2019-07-15T09:29:21.000Z</Time>
            <Position>
              <LatitudeDegrees>37.05190717242658138275146484375</LatitudeDegrees>
              <LongitudeDegrees>-3.315166421234607696533203125</LongitudeDegrees>
            </Position>
            <AltitudeMeters>3318.60009765625</AltitudeMeters>
            <DistanceMeters>11009.691411271</DistanceMeters>
          </Trackpoint>
          <Trackpoint>
            <Time>2019-07-15T09:29:42.000Z</Time>
            <Position>
              <LatitudeDegrees>37.05192561261355876922607421875</LatitudeDegrees>
              <LongitudeDegrees>-3.31511579453945159912109375</LongitudeDegrees>
            </Position>
            <AltitudeMeters>3321.60009765625</AltitudeMeters>
            <DistanceMeters>11014.635540814</DistanceMeters>
          </Trackpoint>
          <Trackpoint>
            <Time>2019-07-15T09:30:16.000Z</Time>
            <Position>
              <LatitudeDegrees>37.0520693622529506683349609375</LatitudeDegrees>
              <LongitudeDegrees>-3.31504999659955501556396484375</LongitudeDegrees>
            </Position>
            <AltitudeMeters>3324.60009765625</AltitudeMeters>
            <DistanceMeters>11031.669460395</DistanceMeters>
          </Trackpoint>
          <Trackpoint>
            <Time>2019-07-15T09:30:46.000Z</Time>
            <Position>
              <LatitudeDegrees>37.05216751433908939361572265625</LatitudeDegrees>
              <LongitudeDegrees>-3.3149949274957180023193359375</LongitudeDegrees>
            </Position>
            <AltitudeMeters>3327.60009765625</AltitudeMeters>
            <DistanceMeters>11043.639809304</DistanceMeters>
          </Trackpoint>
          <Trackpoint>
            <Time>2019-07-15T09:31:07.000Z</Time>
            <Position>
              <LatitudeDegrees>37.05213298089802265167236328125</LatitudeDegrees>
              <LongitudeDegrees>-3.314913623034954071044921875</LongitudeDegrees>
            </Position>
            <AltitudeMeters>3330.60009765625</AltitudeMeters>
            <DistanceMeters>11051.820941659</DistanceMeters>
          </Trackpoint>
          <Trackpoint>
            <Time>2019-07-15T09:31:29.000Z</Time>
            <Position>
              <LatitudeDegrees>37.05213063396513462066650390625</LatitudeDegrees>
              <LongitudeDegrees>-3.3148242719471454620361328125</LongitudeDegrees>
            </Position>
            <AltitudeMeters>3333.800048828125</AltitudeMeters>
            <DistanceMeters>11059.762355506</DistanceMeters>
          </Trackpoint>
          <Trackpoint>
            <Time>2019-07-15T09:31:55.000Z</Time>
            <Position>
              <LatitudeDegrees>37.05213197506964206695556640625</LatitudeDegrees>
              <LongitudeDegrees>-3.31473567523062229156494140625</LongitudeDegrees>
            </Position>
            <AltitudeMeters>3337</AltitudeMeters>
            <DistanceMeters>11067.633527876</DistanceMeters>
          </Trackpoint>
          <Trackpoint>
            <Time>2019-07-15T09:32:17.000Z</Time>
            <Position>
              <LatitudeDegrees>37.05212853848934173583984375</LatitudeDegrees>
              <LongitudeDegrees>-3.31465085037052631378173828125</LongitudeDegrees>
            </Position>
            <AltitudeMeters>3340</AltitudeMeters>
            <DistanceMeters>11075.177835122</DistanceMeters>
          </Trackpoint>
          <Trackpoint>
            <Time>2019-07-15T09:32:55.000Z</Time>
            <Position>
              <LatitudeDegrees>37.05206911079585552215576171875</LatitudeDegrees>
              <LongitudeDegrees>-3.31457264721393585205078125</LongitudeDegrees>
            </Position>
            <AltitudeMeters>3343</AltitudeMeters>
            <DistanceMeters>11084.770357156</DistanceMeters>
          </Trackpoint>
          <Trackpoint>
            <Time>2019-07-15T09:33:13.000Z</Time>
            <Position>
              <LatitudeDegrees>37.05210280604660511016845703125</LatitudeDegrees>
              <LongitudeDegrees>-3.3145091123878955841064453125</LongitudeDegrees>
            </Position>
            <AltitudeMeters>3346</AltitudeMeters>
            <DistanceMeters>11091.545968467</DistanceMeters>
          </Trackpoint>
          <Trackpoint>
            <Time>2019-07-15T09:33:32.000Z</Time>
            <Position>
              <LatitudeDegrees>37.05213256180286407470703125</LatitudeDegrees>
              <LongitudeDegrees>-3.31445236690342426300048828125</LongitudeDegrees>
            </Position>
            <AltitudeMeters>3349.199951171875</AltitudeMeters>
            <DistanceMeters>11097.576983963</DistanceMeters>
          </Trackpoint>
          <Trackpoint>
            <Time>2019-07-15T09:34:39.000Z</Time>
            <Position>
              <LatitudeDegrees>37.0521773211658000946044921875</LatitudeDegrees>
              <LongitudeDegrees>-3.31438489258289337158203125</LongitudeDegrees>
            </Position>
            <AltitudeMeters>3352.199951171875</AltitudeMeters>
            <DistanceMeters>11105.370333318</DistanceMeters>
          </Trackpoint>
          <Trackpoint>
            <Time>2019-07-15T09:34:54.000Z</Time>
            <Position>
              <LatitudeDegrees>37.05221361480653285980224609375</LatitudeDegrees>
              <LongitudeDegrees>-3.3143190108239650726318359375</LongitudeDegrees>
            </Position>
            <AltitudeMeters>3355.39990234375</AltitudeMeters>
            <DistanceMeters>11112.480846521</DistanceMeters>
          </Trackpoint>
          <Trackpoint>
            <Time>2019-07-15T09:35:04.000Z</Time>
            <Position>
              <LatitudeDegrees>37.05221705138683319091796875</LatitudeDegrees>
              <LongitudeDegrees>-3.31427936442196369171142578125</LongitudeDegrees>
            </Position>
            <AltitudeMeters>3357.199951171875</AltitudeMeters>
            <DistanceMeters>11116.023699362</DistanceMeters>
          </Trackpoint>
          <Trackpoint>
            <Time>2019-07-15T09:35:17.000Z</Time>
            <Position>
              <LatitudeDegrees>37.05220959149301052093505859375</LatitudeDegrees>
              <LongitudeDegrees>-3.31421331502497196197509765625</LongitudeDegrees>
            </Position>
            <AltitudeMeters>3359</AltitudeMeters>
            <DistanceMeters>11121.948978867</DistanceMeters>
          </Trackpoint>
          <Trackpoint>
            <Time>2019-07-15T09:35:18.000Z</Time>
            <Position>
              <LatitudeDegrees>37.052197940647602081298828125</LatitudeDegrees>
              <LongitudeDegrees>-3.3142058551311492919921875</LongitudeDegrees>
            </Position>
            <AltitudeMeters>3359.199951171875</AltitudeMeters>
            <DistanceMeters>11123.40260808</DistanceMeters>
          </Trackpoint>
          <Trackpoint>
            <Time>2019-07-15T09:35:42.000Z</Time>
            <Position>
              <LatitudeDegrees>37.052216045558452606201171875</LatitudeDegrees>
              <LongitudeDegrees>-3.3141647838056087493896484375</LongitudeDegrees>
            </Position>
            <AltitudeMeters>3362.199951171875</AltitudeMeters>
            <DistanceMeters>11127.570805182</DistanceMeters>
          </Trackpoint>
          <Trackpoint>
            <Time>2019-07-15T09:36:13.000Z</Time>
            <Position>
              <LatitudeDegrees>37.0522373355925083160400390625</LatitudeDegrees>
              <LongitudeDegrees>-3.31408322788774967193603515625</LongitudeDegrees>
            </Position>
            <AltitudeMeters>3365.39990234375</AltitudeMeters>
            <DistanceMeters>11135.19310876</DistanceMeters>
          </Trackpoint>
          <Trackpoint>
            <Time>2019-07-15T09:36:35.000Z</Time>
            <Position>
              <LatitudeDegrees>37.05220389179885387420654296875</LatitudeDegrees>
              <LongitudeDegrees>-3.31401701085269451141357421875</LongitudeDegrees>
            </Position>
            <AltitudeMeters>3368.60009765625</AltitudeMeters>
            <DistanceMeters>11142.153450714</DistanceMeters>
          </Trackpoint>
          <Trackpoint>
            <Time>2019-07-15T09:37:16.000Z</Time>
            <Position>
              <LatitudeDegrees>37.05227094702422618865966796875</LatitudeDegrees>
              <LongitudeDegrees>-3.3139512129127979278564453125</LongitudeDegrees>
            </Position>
            <AltitudeMeters>3371.800048828125</AltitudeMeters>
            <DistanceMeters>11151.632812016</DistanceMeters>
          </Trackpoint>
          <Trackpoint>
            <Time>2019-07-15T09:37:35.000Z</Time>
            <Position>
              <LatitudeDegrees>37.052232138812541961669921875</LatitudeDegrees>
              <LongitudeDegrees>-3.31387259066104888916015625</LongitudeDegrees>
            </Position>
            <AltitudeMeters>3374.800048828125</AltitudeMeters>
            <DistanceMeters>11159.844791734</DistanceMeters>
          </Trackpoint>
          <Trackpoint>
            <Time>2019-07-15T09:37:56.000Z</Time>
            <Position>
              <LatitudeDegrees>37.0522665046155452728271484375</LatitudeDegrees>
              <LongitudeDegrees>-3.31380612216889858245849609375</LongitudeDegrees>
            </Position>
            <AltitudeMeters>3377.800048828125</AltitudeMeters>
            <DistanceMeters>11166.880619977</DistanceMeters>
          </Trackpoint>
          <Trackpoint>
            <Time>2019-07-15T09:38:58.000Z</Time>
            <Position>
              <LatitudeDegrees>37.05230866558849811553955078125</LatitudeDegrees>
              <LongitudeDegrees>-3.31372884102165699005126953125</LongitudeDegrees>
            </Position>
            <AltitudeMeters>3380.800048828125</AltitudeMeters>
            <DistanceMeters>11175.195864732</DistanceMeters>
          </Trackpoint>
          <Trackpoint>
            <Time>2019-07-15T09:39:17.000Z</Time>
            <Position>
              <LatitudeDegrees>37.05229491926729679107666015625</LatitudeDegrees>
              <LongitudeDegrees>-3.31365591846406459808349609375</LongitudeDegrees>
            </Position>
            <AltitudeMeters>3384</AltitudeMeters>
            <DistanceMeters>11181.851806065</DistanceMeters>
          </Trackpoint>
          <Trackpoint>
            <Time>2019-07-15T09:39:38.000Z</Time>
            <Position>
              <LatitudeDegrees>37.052272371947765350341796875</LatitudeDegrees>
              <LongitudeDegrees>-3.3135862648487091064453125</LongitudeDegrees>
            </Position>
            <AltitudeMeters>3387</AltitudeMeters>
            <DistanceMeters>11188.528066795</DistanceMeters>
          </Trackpoint>
          <Trackpoint>
            <Time>2019-07-15T09:40:00.000Z</Time>
            <Position>
              <LatitudeDegrees>37.05234604887664318084716796875</LatitudeDegrees>
              <LongitudeDegrees>-3.31351040862500667572021484375</LongitudeDegrees>
            </Position>
            <AltitudeMeters>3390.199951171875</AltitudeMeters>
            <DistanceMeters>11199.142172208</DistanceMeters>
          </Trackpoint>
          <Trackpoint>
            <Time>2019-07-15T09:40:19.000Z</Time>
            <Position>
              <LatitudeDegrees>37.05235694535076618194580078125</LatitudeDegrees>
              <LongitudeDegrees>-3.31344209611415863037109375</LongitudeDegrees>
            </Position>
            <AltitudeMeters>3393.199951171875</AltitudeMeters>
            <DistanceMeters>11205.330593185</DistanceMeters>
          </Trackpoint>
          <Trackpoint>
            <Time>2019-07-15T09:40:47.000Z</Time>
            <Position>
              <LatitudeDegrees>37.05241008661687374114990234375</LatitudeDegrees>
              <LongitudeDegrees>-3.31338132731616497039794921875</LongitudeDegrees>
            </Position>
            <AltitudeMeters>3396.199951171875</AltitudeMeters>
            <DistanceMeters>11213.338814143</DistanceMeters>
          </Trackpoint>
          <Trackpoint>
            <Time>2019-07-15T09:41:05.000Z</Time>
            <Position>
              <LatitudeDegrees>37.0524170435965061187744140625</LatitudeDegrees>
              <LongitudeDegrees>-3.31330840475857257843017578125</LongitudeDegrees>
            </Position>
            <AltitudeMeters>3399.199951171875</AltitudeMeters>
            <DistanceMeters>11219.862520933</DistanceMeters>
          </Trackpoint>
          <Trackpoint>
            <Time>2019-07-15T09:41:30.000Z</Time>
            <Position>
              <LatitudeDegrees>37.0524482242763042449951171875</LatitudeDegrees>
              <LongitudeDegrees>-3.31321720965206623077392578125</LongitudeDegrees>
            </Position>
            <AltitudeMeters>3402.199951171875</AltitudeMeters>
            <DistanceMeters>11228.675448227</DistanceMeters>
          </Trackpoint>
          <Trackpoint>
            <Time>2019-07-15T09:41:54.000Z</Time>
            <Position>
              <LatitudeDegrees>37.05249038524925708770751953125</LatitudeDegrees>
              <LongitudeDegrees>-3.31313674338161945343017578125</LongitudeDegrees>
            </Position>
            <AltitudeMeters>3405.39990234375</AltitudeMeters>
            <DistanceMeters>11237.226268595</DistanceMeters>
          </Trackpoint>
          <Trackpoint>
            <Time>2019-07-15T09:42:11.000Z</Time>
            <Position>
              <LatitudeDegrees>37.05244227312505245208740234375</LatitudeDegrees>
              <LongitudeDegrees>-3.3130694366991519927978515625</LongitudeDegrees>
            </Position>
            <AltitudeMeters>3408.39990234375</AltitudeMeters>
            <DistanceMeters>11245.253073403</DistanceMeters>
          </Trackpoint>
          <Trackpoint>
            <Time>2019-07-15T09:42:39.000Z</Time>
            <Position>
              <LatitudeDegrees>37.05248451791703701019287109375</LatitudeDegrees>
              <LongitudeDegrees>-3.31299844197928905487060546875</LongitudeDegrees>
            </Position>
            <AltitudeMeters>3411.39990234375</AltitudeMeters>
            <DistanceMeters>11253.119081527</DistanceMeters>
          </Trackpoint>
          <Trackpoint>
            <Time>2019-07-15T09:43:11.000Z</Time>
            <Position>
              <LatitudeDegrees>37.052470184862613677978515625</LatitudeDegrees>
              <LongitudeDegrees>-3.3129048161208629608154296875</LongitudeDegrees>
            </Position>
            <AltitudeMeters>3414.39990234375</AltitudeMeters>
            <DistanceMeters>11261.587662702</DistanceMeters>
          </Trackpoint>
          <Trackpoint>
            <Time>2019-07-15T09:43:32.000Z</Time>
            <Position>
              <LatitudeDegrees>37.05246708355844020843505859375</LatitudeDegrees>
              <LongitudeDegrees>-3.312827534973621368408203125</LongitudeDegrees>
            </Position>
            <AltitudeMeters>3417.60009765625</AltitudeMeters>
            <DistanceMeters>11268.459874849</DistanceMeters>
          </Trackpoint>
          <Trackpoint>
            <Time>2019-07-15T09:44:25.000Z</Time>
            <Position>
              <LatitudeDegrees>37.0524468831717967987060546875</LatitudeDegrees>
              <LongitudeDegrees>-3.31276827491819858551025390625</LongitudeDegrees>
            </Position>
            <AltitudeMeters>3419</AltitudeMeters>
            <DistanceMeters>11274.183607664</DistanceMeters>
          </Trackpoint>
          <Trackpoint>
            <Time>2019-07-15T09:44:37.000Z</Time>
            <Position>
              <LatitudeDegrees>37.0524710230529308319091796875</LatitudeDegrees>
              <LongitudeDegrees>-3.31272301264107227325439453125</LongitudeDegrees>
            </Position>
            <AltitudeMeters>3420</AltitudeMeters>
            <DistanceMeters>11279.017843678</DistanceMeters>
          </Trackpoint>
          <Trackpoint>
            <Time>2019-07-15T09:44:56.000Z</Time>
            <Position>
              <LatitudeDegrees>37.05242752097547054290771484375</LatitudeDegrees>
              <LongitudeDegrees>-3.31264740787446498870849609375</LongitudeDegrees>
            </Position>
            <AltitudeMeters>3423.199951171875</AltitudeMeters>
            <DistanceMeters>11287.297719303</DistanceMeters>
          </Trackpoint>
          <Trackpoint>
            <Time>2019-07-15T09:45:16.000Z</Time>
            <Position>
              <LatitudeDegrees>37.0524633117020130157470703125</LatitudeDegrees>
              <LongitudeDegrees>-3.31259510479867458343505859375</LongitudeDegrees>
            </Position>
            <AltitudeMeters>3426.199951171875</AltitudeMeters>
            <DistanceMeters>11293.417911872</DistanceMeters>
          </Trackpoint>
          <Trackpoint>
            <Time>2019-07-15T09:45:39.000Z</Time>
            <Position>
              <LatitudeDegrees>37.05251821316778659820556640625</LatitudeDegrees>
              <LongitudeDegrees>-3.31253073178231716156005859375</LongitudeDegrees>
            </Position>
            <AltitudeMeters>3429.199951171875</AltitudeMeters>
            <DistanceMeters>11301.786739323</DistanceMeters>
          </Trackpoint>
          <Trackpoint>
            <Time>2019-07-15T09:46:48.000Z</Time>
            <Position>
              <LatitudeDegrees>37.052564062178134918212890625</LatitudeDegrees>
              <LongitudeDegrees>-3.3125068433582782745361328125</LongitudeDegrees>
            </Position>
            <AltitudeMeters>3430.800048828125</AltitudeMeters>
            <DistanceMeters>11307.313014609</DistanceMeters>
          </Trackpoint>
          <Trackpoint>
            <Time>2019-07-15T09:47:02.000Z</Time>
            <Position>
              <LatitudeDegrees>37.05257378518581390380859375</LatitudeDegrees>
              <LongitudeDegrees>-3.31250592134892940521240234375</LongitudeDegrees>
            </Position>
            <AltitudeMeters>3430.800048828125</AltitudeMeters>
            <DistanceMeters>11308.400645067</DistanceMeters>
          </Trackpoint>
          <Trackpoint>
            <Time>2019-07-15T09:47:57.000Z</Time>
            <Position>
              <LatitudeDegrees>37.05252843908965587615966796875</LatitudeDegrees>
              <LongitudeDegrees>-3.312432579696178436279296875</LongitudeDegrees>
            </Position>
            <AltitudeMeters>3434</AltitudeMeters>
            <DistanceMeters>11316.641713259</DistanceMeters>
          </Trackpoint>
          <Trackpoint>
            <Time>2019-07-15T09:48:19.000Z</Time>
            <Position>
              <LatitudeDegrees>37.0525491423904895782470703125</LatitudeDegrees>
              <LongitudeDegrees>-3.31232051365077495574951171875</LongitudeDegrees>
            </Position>
            <AltitudeMeters>3437</AltitudeMeters>
            <DistanceMeters>11326.85962615</DistanceMeters>
          </Trackpoint>
          <Trackpoint>
            <Time>2019-07-15T09:48:42.000Z</Time>
            <Position>
              <LatitudeDegrees>37.0525984279811382293701171875</LatitudeDegrees>
              <LongitudeDegrees>-3.31225781701505184173583984375</LongitudeDegrees>
            </Position>
            <AltitudeMeters>3440.199951171875</AltitudeMeters>
            <DistanceMeters>11334.676692562</DistanceMeters>
          </Trackpoint>
          <Trackpoint>
            <Time>2019-07-15T09:49:07.000Z</Time>
            <Position>
              <LatitudeDegrees>37.052681408822536468505859375</LatitudeDegrees>
              <LongitudeDegrees>-3.3121735788881778717041015625</LongitudeDegrees>
            </Position>
            <AltitudeMeters>3443.199951171875</AltitudeMeters>
            <DistanceMeters>11346.563011422</DistanceMeters>
          </Trackpoint>
          <Trackpoint>
            <Time>2019-07-15T09:49:32.000Z</Time>
            <Position>
              <LatitudeDegrees>37.05270613543689250946044921875</LatitudeDegrees>
              <LongitudeDegrees>-3.3120225369930267333984375</LongitudeDegrees>
            </Position>
            <AltitudeMeters>3446.39990234375</AltitudeMeters>
            <DistanceMeters>11360.25873148</DistanceMeters>
          </Trackpoint>
          <Trackpoint>
            <Time>2019-07-15T09:49:43.000Z</Time>
            <Position>
              <LatitudeDegrees>37.05274284817278385162353515625</LatitudeDegrees>
              <LongitudeDegrees>-3.31195615231990814208984375</LongitudeDegrees>
            </Position>
            <AltitudeMeters>3448</AltitudeMeters>
            <DistanceMeters>11367.433091084</DistanceMeters>
          </Trackpoint>
          <Trackpoint>
            <Time>2019-07-15T09:49:44.000Z</Time>
            <Position>
              <LatitudeDegrees>37.0527420938014984130859375</LatitudeDegrees>
              <LongitudeDegrees>-3.31194617785513401031494140625</LongitudeDegrees>
            </Position>
            <AltitudeMeters>3448.199951171875</AltitudeMeters>
            <DistanceMeters>11368.324520681</DistanceMeters>
          </Trackpoint>
          <Trackpoint>
            <Time>2019-07-15T09:50:34.000Z</Time>
            <Position>
              <LatitudeDegrees>37.05277486704289913177490234375</LatitudeDegrees>
              <LongitudeDegrees>-3.31185950897634029388427734375</LongitudeDegrees>
            </Position>
            <AltitudeMeters>3449</AltitudeMeters>
            <DistanceMeters>11376.843600701</DistanceMeters>
          </Trackpoint>
          <Trackpoint>
            <Time>2019-07-15T09:50:39.000Z</Time>
            <Position>
              <LatitudeDegrees>37.052804790437221527099609375</LatitudeDegrees>
              <LongitudeDegrees>-3.3118617720901966094970703125</LongitudeDegrees>
            </Position>
            <AltitudeMeters>3449.199951171875</AltitudeMeters>
            <DistanceMeters>11380.180378226</DistanceMeters>
          </Trackpoint>
          <Trackpoint>
            <Time>2019-07-15T09:50:56.000Z</Time>
            <Position>
              <LatitudeDegrees>37.0528673194348812103271484375</LatitudeDegrees>
              <LongitudeDegrees>-3.3118292503058910369873046875</LongitudeDegrees>
            </Position>
            <AltitudeMeters>3449</AltitudeMeters>
            <DistanceMeters>11387.715703082</DistanceMeters>
          </Trackpoint>
          <Trackpoint>
            <Time>2019-07-15T09:51:01.000Z</Time>
            <Position>
              <LatitudeDegrees>37.052871175110340118408203125</LatitudeDegrees>
              <LongitudeDegrees>-3.31183008849620819091796875</LongitudeDegrees>
            </Position>
            <AltitudeMeters>3452.199951171875</AltitudeMeters>
            <DistanceMeters>11388.161417881</DistanceMeters>
          </Trackpoint>
          <Trackpoint>
            <Time>2019-07-15T09:51:36.000Z</Time>
            <Position>
              <LatitudeDegrees>37.05297988839447498321533203125</LatitudeDegrees>
              <LongitudeDegrees>-3.311724476516246795654296875</LongitudeDegrees>
            </Position>
            <AltitudeMeters>3453.199951171875</AltitudeMeters>
            <DistanceMeters>11403.47192912</DistanceMeters>
          </Trackpoint>
          <Trackpoint>
            <Time>2019-07-15T09:52:20.000Z</Time>
            <Position>
              <LatitudeDegrees>37.0531006716191768646240234375</LatitudeDegrees>
              <LongitudeDegrees>-3.31164426170289516448974609375</LongitudeDegrees>
            </Position>
            <AltitudeMeters>3455.800048828125</AltitudeMeters>
            <DistanceMeters>11418.686890169</DistanceMeters>
          </Trackpoint>
          <Trackpoint>
            <Time>2019-07-15T09:52:27.000Z</Time>
            <Position>
              <LatitudeDegrees>37.05312070436775684356689453125</LatitudeDegrees>
              <LongitudeDegrees>-3.3116723410785198211669921875</LongitudeDegrees>
            </Position>
            <AltitudeMeters>3456.199951171875</AltitudeMeters>
            <DistanceMeters>11422.030426416</DistanceMeters>
          </Trackpoint>
          <Trackpoint>
            <Time>2019-07-15T09:52:52.000Z</Time>
            <Position>
              <LatitudeDegrees>37.0532022602856159210205078125</LatitudeDegrees>
              <LongitudeDegrees>-3.31162330694496631622314453125</LongitudeDegrees>
            </Position>
            <AltitudeMeters>3459.199951171875</AltitudeMeters>
            <DistanceMeters>11432.098774749</DistanceMeters>
          </Trackpoint>
          <Trackpoint>
            <Time>2019-07-15T09:52:59.000Z</Time>
            <Position>
              <LatitudeDegrees>37.05323218367993831634521484375</LatitudeDegrees>
              <LongitudeDegrees>-3.311607129871845245361328125</LongitudeDegrees>
            </Position>
            <AltitudeMeters>3460.800048828125</AltitudeMeters>
            <DistanceMeters>11435.727252592</DistanceMeters>
          </Trackpoint>
          <Trackpoint>
            <Time>2019-07-15T09:53:07.000Z</Time>
            <Position>
              <LatitudeDegrees>37.053272835910320281982421875</LatitudeDegrees>
              <LongitudeDegrees>-3.31159832887351512908935546875</LongitudeDegrees>
            </Position>
            <AltitudeMeters>3462.60009765625</AltitudeMeters>
            <DistanceMeters>11440.318134688</DistanceMeters>
          </Trackpoint>
          <Trackpoint>
            <Time>2019-07-15T09:54:32.000Z</Time>
            <Position>
              <LatitudeDegrees>37.05335673876106739044189453125</LatitudeDegrees>
              <LongitudeDegrees>-3.31151501275599002838134765625</LongitudeDegrees>
            </Position>
            <AltitudeMeters>3463.60009765625</AltitudeMeters>
            <DistanceMeters>11452.233287304</DistanceMeters>
          </Trackpoint>
          <Trackpoint>
            <Time>2019-07-15T09:55:39.000Z</Time>
            <Position>
              <LatitudeDegrees>37.0533417351543903350830078125</LatitudeDegrees>
              <LongitudeDegrees>-3.31152163445949554443359375</LongitudeDegrees>
            </Position>
            <AltitudeMeters>3463</AltitudeMeters>
            <DistanceMeters>11454.003438858</DistanceMeters>
          </Trackpoint>
          <Trackpoint>
            <Time>2019-07-15T09:56:51.000Z</Time>
            <Position>
              <LatitudeDegrees>37.053370065987110137939453125</LatitudeDegrees>
              <LongitudeDegrees>-3.3115311898291110992431640625</LongitudeDegrees>
            </Position>
            <AltitudeMeters>3462.800048828125</AltitudeMeters>
            <DistanceMeters>11457.269096569</DistanceMeters>
          </Trackpoint>
          <Trackpoint>
            <Time>2019-07-15T09:58:01.000Z</Time>
            <Position>
              <LatitudeDegrees>37.053356654942035675048828125</LatitudeDegrees>
              <LongitudeDegrees>-3.31152708269655704498291015625</LongitudeDegrees>
            </Position>
            <AltitudeMeters>3462.39990234375</AltitudeMeters>
            <DistanceMeters>11458.807238314</DistanceMeters>
          </Trackpoint>
          <Trackpoint>
            <Time>2019-07-15T09:58:02.000Z</Time>
            <Position>
              <LatitudeDegrees>37.0533685572445392608642578125</LatitudeDegrees>
              <LongitudeDegrees>-3.311533033847808837890625</LongitudeDegrees>
            </Position>
            <AltitudeMeters>3462.39990234375</AltitudeMeters>
            <DistanceMeters>11460.229467945</DistanceMeters>
          </Trackpoint>
          <Trackpoint>
            <Time>2019-07-15T09:58:34.000Z</Time>
            <Position>
              <LatitudeDegrees>37.05340049229562282562255859375</LatitudeDegrees>
              <LongitudeDegrees>-3.3115469478070735931396484375</LongitudeDegrees>
            </Position>
            <AltitudeMeters>3465.39990234375</AltitudeMeters>
            <DistanceMeters>11463.992333856</DistanceMeters>
          </Trackpoint>
          <Trackpoint>
            <Time>2019-07-15T09:59:13.000Z</Time>
            <Position>
              <LatitudeDegrees>37.0533595047891139984130859375</LatitudeDegrees>
              <LongitudeDegrees>-3.31154703162610530853271484375</LongitudeDegrees>
            </Position>
            <AltitudeMeters>3464.199951171875</AltitudeMeters>
            <DistanceMeters>11468.5546059</DistanceMeters>
          </Trackpoint>
          <Trackpoint>
            <Time>2019-07-15T09:59:58.000Z</Time>
            <Position>
              <LatitudeDegrees>37.0533973909914493560791015625</LatitudeDegrees>
              <LongitudeDegrees>-3.31154217012226581573486328125</LongitudeDegrees>
            </Position>
            <AltitudeMeters>3465.60009765625</AltitudeMeters>
            <DistanceMeters>11472.792626906</DistanceMeters>
          </Trackpoint>
          <Trackpoint>
            <Time>2019-07-15T10:00:15.000Z</Time>
            <Position>
              <LatitudeDegrees>37.05338020808994770050048828125</LatitudeDegrees>
              <LongitudeDegrees>-3.3115533180534839630126953125</LongitudeDegrees>
            </Position>
            <AltitudeMeters>3465.60009765625</AltitudeMeters>
            <DistanceMeters>11474.942835998</DistanceMeters>
          </Trackpoint>
          <Trackpoint>
            <Time>2019-07-15T10:00:29.000Z</Time>
            <Position>
              <LatitudeDegrees>37.05339244566857814788818359375</LatitudeDegrees>
              <LongitudeDegrees>-3.31154443323612213134765625</LongitudeDegrees>
            </Position>
            <AltitudeMeters>3465.199951171875</AltitudeMeters>
            <DistanceMeters>11476.515808008</DistanceMeters>
          </Trackpoint>
          <Trackpoint>
            <Time>2019-07-15T10:00:53.000Z</Time>
            <Position>
              <LatitudeDegrees>37.05339428968727588653564453125</LatitudeDegrees>
              <LongitudeDegrees>-3.31153026781976222991943359375</LongitudeDegrees>
            </Position>
            <AltitudeMeters>3464.39990234375</AltitudeMeters>
            <DistanceMeters>11477.790725166</DistanceMeters>
          </Trackpoint>
          <Trackpoint>
            <Time>2019-07-15T10:01:33.000Z</Time>
            <Position>
              <LatitudeDegrees>37.0533819682896137237548828125</LatitudeDegrees>
              <LongitudeDegrees>-3.3115301840007305145263671875</LongitudeDegrees>
            </Position>
            <AltitudeMeters>3464.800048828125</AltitudeMeters>
            <DistanceMeters>11479.164510439</DistanceMeters>
          </Trackpoint>
          <Trackpoint>
            <Time>2019-07-15T10:02:37.000Z</Time>
            <Position>
              <LatitudeDegrees>37.053389847278594970703125</LatitudeDegrees>
              <LongitudeDegrees>-3.3115342073142528533935546875</LongitudeDegrees>
            </Position>
            <AltitudeMeters>3465.199951171875</AltitudeMeters>
            <DistanceMeters>11480.110014309</DistanceMeters>
          </Trackpoint>
          <Trackpoint>
            <Time>2019-07-15T10:03:02.000Z</Time>
            <Position>
              <LatitudeDegrees>37.05340929329395294189453125</LatitudeDegrees>
              <LongitudeDegrees>-3.31151685677468776702880859375</LongitudeDegrees>
            </Position>
            <AltitudeMeters>3464.199951171875</AltitudeMeters>
            <DistanceMeters>11482.767366333</DistanceMeters>
          </Trackpoint>
          <Trackpoint>
            <Time>2019-07-15T10:03:10.000Z</Time>
            <Position>
              <LatitudeDegrees>37.0533885061740875244140625</LatitudeDegrees>
              <LongitudeDegrees>-3.3115048706531524658203125</LongitudeDegrees>
            </Position>
            <AltitudeMeters>3464.60009765625</AltitudeMeters>
            <DistanceMeters>11485.31365675</DistanceMeters>
          </Trackpoint>
          <Trackpoint>
            <Time>2019-07-15T10:03:45.000Z</Time>
            <Position>
              <LatitudeDegrees>37.0534010790288448333740234375</LatitudeDegrees>
              <LongitudeDegrees>-3.3115194551646709442138671875</LongitudeDegrees>
            </Position>
            <AltitudeMeters>3464.800048828125</AltitudeMeters>
            <DistanceMeters>11487.22367007</DistanceMeters>
          </Trackpoint>
          <Trackpoint>
            <Time>2019-07-15T10:04:38.000Z</Time>
            <Position>
              <LatitudeDegrees>37.05335003323853015899658203125</LatitudeDegrees>
              <LongitudeDegrees>-3.31152054481208324432373046875</LongitudeDegrees>
            </Position>
            <AltitudeMeters>3463</AltitudeMeters>
            <DistanceMeters>11492.906235808</DistanceMeters>
          </Trackpoint>
          <Trackpoint>
            <Time>2019-07-15T10:05:19.000Z</Time>
            <Position>
              <LatitudeDegrees>37.05336227081716060638427734375</LatitudeDegrees>
              <LongitudeDegrees>-3.31153102219104766845703125</LongitudeDegrees>
            </Position>
            <AltitudeMeters>3463.60009765625</AltitudeMeters>
            <DistanceMeters>11494.557624038</DistanceMeters>
          </Trackpoint>
          <Trackpoint>
            <Time>2019-07-15T10:05:44.000Z</Time>
            <Position>
              <LatitudeDegrees>37.05337719060480594635009765625</LatitudeDegrees>
              <LongitudeDegrees>-3.3115263283252716064453125</LongitudeDegrees>
            </Position>
            <AltitudeMeters>3464.60009765625</AltitudeMeters>
            <DistanceMeters>11496.268104897</DistanceMeters>
          </Trackpoint>
          <Trackpoint>
            <Time>2019-07-15T10:07:25.000Z</Time>
            <Position>
              <LatitudeDegrees>37.0534040965139865875244140625</LatitudeDegrees>
              <LongitudeDegrees>-3.31154334358870983123779296875</LongitudeDegrees>
            </Position>
            <AltitudeMeters>3465</AltitudeMeters>
            <DistanceMeters>11499.622426773</DistanceMeters>
          </Trackpoint>
          <Trackpoint>
            <Time>2019-07-15T10:10:43.000Z</Time>
            <Position>
              <LatitudeDegrees>37.05335103906691074371337890625</LatitudeDegrees>
              <LongitudeDegrees>-3.31153965555131435394287109375</LongitudeDegrees>
            </Position>
            <AltitudeMeters>3462.800048828125</AltitudeMeters>
            <DistanceMeters>11505.537028716</DistanceMeters>
          </Trackpoint>
          <Trackpoint>
            <Time>2019-07-15T10:12:17.000Z</Time>
            <Position>
              <LatitudeDegrees>37.0533509552478790283203125</LatitudeDegrees>
              <LongitudeDegrees>-3.31154300831258296966552734375</LongitudeDegrees>
            </Position>
            <AltitudeMeters>3462</AltitudeMeters>
            <DistanceMeters>11505.837529572</DistanceMeters>
          </Trackpoint>
          <Trackpoint>
            <Time>2019-07-15T10:12:58.000Z</Time>
            <Position>
              <LatitudeDegrees>37.0533558167517185211181640625</LatitudeDegrees>
              <LongitudeDegrees>-3.3115422539412975311279296875</LongitudeDegrees>
            </Position>
            <AltitudeMeters>3462.199951171875</AltitudeMeters>
            <DistanceMeters>11506.383416486</DistanceMeters>
          </Trackpoint>
          <Trackpoint>
            <Time>2019-07-15T10:14:05.000Z</Time>
            <Position>
              <LatitudeDegrees>37.0533120632171630859375</LatitudeDegrees>
              <LongitudeDegrees>-3.3116787113249301910400390625</LongitudeDegrees>
            </Position>
            <AltitudeMeters>3462.800048828125</AltitudeMeters>
            <DistanceMeters>11519.446392967</DistanceMeters>
          </Trackpoint>
          <Trackpoint>
            <Time>2019-07-15T10:15:03.000Z</Time>
            <Position>
              <LatitudeDegrees>37.0533001609146595001220703125</LatitudeDegrees>
              <LongitudeDegrees>-3.3118788711726665496826171875</LongitudeDegrees>
            </Position>
            <AltitudeMeters>3461.199951171875</AltitudeMeters>
            <DistanceMeters>11537.27523816</DistanceMeters>
          </Trackpoint>
          <Trackpoint>
            <Time>2019-07-15T10:16:26.000Z</Time>
            <Position>
              <LatitudeDegrees>37.05335472710430622100830078125</LatitudeDegrees>
              <LongitudeDegrees>-3.311854563653469085693359375</LongitudeDegrees>
            </Position>
            <AltitudeMeters>3459.39990234375</AltitudeMeters>
            <DistanceMeters>11543.721664441</DistanceMeters>
          </Trackpoint>
          <Trackpoint>
            <Time>2019-07-15T10:16:45.000Z</Time>
            <Position>
              <LatitudeDegrees>37.05337903462350368499755859375</LatitudeDegrees>
              <LongitudeDegrees>-3.31187644042074680328369140625</LongitudeDegrees>
            </Position>
            <AltitudeMeters>3459.800048828125</AltitudeMeters>
            <DistanceMeters>11547.053025116</DistanceMeters>
          </Trackpoint>
          <Trackpoint>
            <Time>2019-07-15T10:16:59.000Z</Time>
            <Position>
              <LatitudeDegrees>37.05338356085121631622314453125</LatitudeDegrees>
              <LongitudeDegrees>-3.31187359057366847991943359375</LongitudeDegrees>
            </Position>
            <AltitudeMeters>3459.60009765625</AltitudeMeters>
            <DistanceMeters>11547.61521074</DistanceMeters>
          </Trackpoint>
          <Trackpoint>
            <Time>2019-07-15T10:18:31.000Z</Time>
            <Position>
              <LatitudeDegrees>37.0532797090709209442138671875</LatitudeDegrees>
              <LongitudeDegrees>-3.31184291280806064605712890625</LongitudeDegrees>
            </Position>
            <AltitudeMeters>3460.199951171875</AltitudeMeters>
            <DistanceMeters>11559.49088899</DistanceMeters>
          </Trackpoint>
          <Trackpoint>
            <Time>2019-07-15T10:23:31.000Z</Time>
            <Position>
              <LatitudeDegrees>37.05327593721449375152587890625</LatitudeDegrees>
              <LongitudeDegrees>-3.31182262860238552093505859375</LongitudeDegrees>
            </Position>
            <AltitudeMeters>3460.39990234375</AltitudeMeters>
            <DistanceMeters>11561.340861685</DistanceMeters>
          </Trackpoint>
          <Trackpoint>
            <Time>2019-07-15T10:26:00.000Z</Time>
            <Position>
              <LatitudeDegrees>37.0532599277794361114501953125</LatitudeDegrees>
              <LongitudeDegrees>-3.311862945556640625</LongitudeDegrees>
            </Position>
            <AltitudeMeters>3460</AltitudeMeters>
            <DistanceMeters>11565.341023614</DistanceMeters>
          </Trackpoint>
          <Trackpoint>
            <Time>2019-07-15T10:28:14.000Z</Time>
            <Position>
              <LatitudeDegrees>37.0532538928091526031494140625</LatitudeDegrees>
              <LongitudeDegrees>-3.31187845207750797271728515625</LongitudeDegrees>
            </Position>
            <AltitudeMeters>3459.60009765625</AltitudeMeters>
            <DistanceMeters>11566.873283343</DistanceMeters>
          </Trackpoint>
          <Trackpoint>
            <Time>2019-07-15T10:28:46.000Z</Time>
            <Position>
              <LatitudeDegrees>37.05327794887125492095947265625</LatitudeDegrees>
              <LongitudeDegrees>-3.31185431219637393951416015625</LongitudeDegrees>
            </Position>
            <AltitudeMeters>3460.39990234375</AltitudeMeters>
            <DistanceMeters>11570.302154809</DistanceMeters>
          </Trackpoint>
          <Trackpoint>
            <Time>2019-07-15T10:29:34.000Z</Time>
            <Position>
              <LatitudeDegrees>37.05324056558310985565185546875</LatitudeDegrees>
              <LongitudeDegrees>-3.311890773475170135498046875</LongitudeDegrees>
            </Position>
            <AltitudeMeters>3459.60009765625</AltitudeMeters>
            <DistanceMeters>11575.575923428</DistanceMeters>
          </Trackpoint>
          <Trackpoint>
            <Time>2019-07-15T10:30:03.000Z</Time>
            <Position>
              <LatitudeDegrees>37.0531254820525646209716796875</LatitudeDegrees>
              <LongitudeDegrees>-3.31195615231990814208984375</LongitudeDegrees>
            </Position>
            <AltitudeMeters>3456.60009765625</AltitudeMeters>
            <DistanceMeters>11589.639877154</DistanceMeters>
          </Trackpoint>
          <Trackpoint>
            <Time>2019-07-15T10:30:17.000Z</Time>
            <Position>
              <LatitudeDegrees>37.05304719507694244384765625</LatitudeDegrees>
              <LongitudeDegrees>-3.31201122142374515533447265625</LongitudeDegrees>
            </Position>
            <AltitudeMeters>3453.39990234375</AltitudeMeters>
            <DistanceMeters>11599.632151932</DistanceMeters>
          </Trackpoint>
          <Trackpoint>
            <Time>2019-07-15T10:30:22.000Z</Time>
            <Position>
              <LatitudeDegrees>37.05302699469029903411865234375</LatitudeDegrees>
              <LongitudeDegrees>-3.3120297454297542572021484375</LongitudeDegrees>
            </Position>
            <AltitudeMeters>3452.60009765625</AltitudeMeters>
            <DistanceMeters>11602.418882228</DistanceMeters>
          </Trackpoint>
          <Trackpoint>
            <Time>2019-07-15T10:30:40.000Z</Time>
            <Position>
              <LatitudeDegrees>37.05294082872569561004638671875</LatitudeDegrees>
              <LongitudeDegrees>-3.31205531023442745208740234375</LongitudeDegrees>
            </Position>
            <AltitudeMeters>3449</AltitudeMeters>
            <DistanceMeters>11612.27512707</DistanceMeters>
          </Trackpoint>
          <Trackpoint>
            <Time>2019-07-15T10:31:05.000Z</Time>
            <Position>
              <LatitudeDegrees>37.052858434617519378662109375</LatitudeDegrees>
              <LongitudeDegrees>-3.31209772266447544097900390625</LongitudeDegrees>
            </Position>
            <AltitudeMeters>3446</AltitudeMeters>
            <DistanceMeters>11622.189833933</DistanceMeters>
          </Trackpoint>
          <Trackpoint>
            <Time>2019-07-15T10:31:15.000Z</Time>
            <Position>
              <LatitudeDegrees>37.05280990339815616607666015625</LatitudeDegrees>
              <LongitudeDegrees>-3.31214901991188526153564453125</LongitudeDegrees>
            </Position>
            <AltitudeMeters>3444.800048828125</AltitudeMeters>
            <DistanceMeters>11629.257036548</DistanceMeters>
          </Trackpoint>
          <Trackpoint>
            <Time>2019-07-15T10:31:27.000Z</Time>
            <Position>
              <LatitudeDegrees>37.05274435691535472869873046875</LatitudeDegrees>
              <LongitudeDegrees>-3.31218422390520572662353515625</LongitudeDegrees>
            </Position>
            <AltitudeMeters>3441.60009765625</AltitudeMeters>
            <DistanceMeters>11637.195038402</DistanceMeters>
          </Trackpoint>
          <Trackpoint>
            <Time>2019-07-15T10:31:47.000Z</Time>
            <Position>
              <LatitudeDegrees>37.05268182791769504547119140625</LatitudeDegrees>
              <LongitudeDegrees>-3.3122604154050350189208984375</LongitudeDegrees>
            </Position>
            <AltitudeMeters>3438.39990234375</AltitudeMeters>
            <DistanceMeters>11646.903123066</DistanceMeters>
          </Trackpoint>
          <Trackpoint>
            <Time>2019-07-15T10:32:05.000Z</Time>
            <Position>
              <LatitudeDegrees>37.0526669919490814208984375</LatitudeDegrees>
              <LongitudeDegrees>-3.31235001794993877410888671875</LongitudeDegrees>
            </Position>
            <AltitudeMeters>3435.39990234375</AltitudeMeters>
            <DistanceMeters>11655.031101859</DistanceMeters>
          </Trackpoint>
          <Trackpoint>
            <Time>2019-07-15T10:32:12.000Z</Time>
            <Position>
              <LatitudeDegrees>37.05263455398380756378173828125</LatitudeDegrees>
              <LongitudeDegrees>-3.31236510537564754486083984375</LongitudeDegrees>
            </Position>
            <AltitudeMeters>3434.199951171875</AltitudeMeters>
            <DistanceMeters>11658.88173629</DistanceMeters>
          </Trackpoint>
          <Trackpoint>
            <Time>2019-07-15T10:32:13.000Z</Time>
            <Position>
              <LatitudeDegrees>37.0526245795190334320068359375</LatitudeDegrees>
              <LongitudeDegrees>-3.31236409954726696014404296875</LongitudeDegrees>
            </Position>
            <AltitudeMeters>3434</AltitudeMeters>
            <DistanceMeters>11659.998047425</DistanceMeters>
          </Trackpoint>
          <Trackpoint>
            <Time>2019-07-15T10:32:14.000Z</Time>
            <Position>
              <LatitudeDegrees>37.052616365253925323486328125</LatitudeDegrees>
              <LongitudeDegrees>-3.31236912868916988372802734375</LongitudeDegrees>
            </Position>
            <AltitudeMeters>3433.800048828125</AltitudeMeters>
            <DistanceMeters>11661.01265509</DistanceMeters>
          </Trackpoint>
          <Trackpoint>
            <Time>2019-07-15T10:32:15.000Z</Time>
            <Position>
              <LatitudeDegrees>37.052608318626880645751953125</LatitudeDegrees>
              <LongitudeDegrees>-3.31237432546913623809814453125</LongitudeDegrees>
            </Position>
            <AltitudeMeters>3433.800048828125</AltitudeMeters>
            <DistanceMeters>11662.018323307</DistanceMeters>
          </Trackpoint>
          <Trackpoint>
            <Time>2019-07-15T10:32:35.000Z</Time>
            <Position>
              <LatitudeDegrees>37.0525704324245452880859375</LatitudeDegrees>
              <LongitudeDegrees>-3.3124749921262264251708984375</LongitudeDegrees>
            </Position>
            <AltitudeMeters>3430.800048828125</AltitudeMeters>
            <DistanceMeters>11671.904755799</DistanceMeters>
          </Trackpoint>
          <Trackpoint>
            <Time>2019-07-15T10:32:53.000Z</Time>
            <Position>
              <LatitudeDegrees>37.0525074005126953125</LatitudeDegrees>
              <LongitudeDegrees>-3.312557302415370941162109375</LongitudeDegrees>
            </Position>
            <AltitudeMeters>3427.800048828125</AltitudeMeters>
            <DistanceMeters>11682.038364698</DistanceMeters>
          </Trackpoint>
          <Trackpoint>
            <Time>2019-07-15T10:33:08.000Z</Time>
            <Position>
              <LatitudeDegrees>37.052458114922046661376953125</LatitudeDegrees>
              <LongitudeDegrees>-3.31262930296361446380615234375</LongitudeDegrees>
            </Position>
            <AltitudeMeters>3424.60009765625</AltitudeMeters>
            <DistanceMeters>11690.464185786</DistanceMeters>
          </Trackpoint>
          <Trackpoint>
            <Time>2019-07-15T10:33:20.000Z</Time>
            <Position>
              <LatitudeDegrees>37.052410505712032318115234375</LatitudeDegrees>
              <LongitudeDegrees>-3.31266802735626697540283203125</LongitudeDegrees>
            </Position>
            <AltitudeMeters>3421.60009765625</AltitudeMeters>
            <DistanceMeters>11696.781139784</DistanceMeters>
          </Trackpoint>
          <Trackpoint>
            <Time>2019-07-15T10:33:28.000Z</Time>
            <Position>
              <LatitudeDegrees>37.0523784868419170379638671875</LatitudeDegrees>
              <LongitudeDegrees>-3.3127360045909881591796875</LongitudeDegrees>
            </Position>
            <AltitudeMeters>3419.800048828125</AltitudeMeters>
            <DistanceMeters>11703.792540226</DistanceMeters>
          </Trackpoint>
          <Trackpoint>
            <Time>2019-07-15T10:33:30.000Z</Time>
            <Position>
              <LatitudeDegrees>37.052380330860614776611328125</LatitudeDegrees>
              <LongitudeDegrees>-3.31276391632854938507080078125</LongitudeDegrees>
            </Position>
            <AltitudeMeters>3418.800048828125</AltitudeMeters>
            <DistanceMeters>11706.28144208</DistanceMeters>
          </Trackpoint>
          <Trackpoint>
            <Time>2019-07-15T10:33:31.000Z</Time>
            <Position>
              <LatitudeDegrees>37.05238737165927886962890625</LatitudeDegrees>
              <LongitudeDegrees>-3.312773220241069793701171875</LongitudeDegrees>
            </Position>
            <AltitudeMeters>3418.39990234375</AltitudeMeters>
            <DistanceMeters>11707.421762653</DistanceMeters>
          </Trackpoint>
          <Trackpoint>
            <Time>2019-07-15T10:33:32.000Z</Time>
            <Position>
              <LatitudeDegrees>37.0523972623050212860107421875</LatitudeDegrees>
              <LongitudeDegrees>-3.31277883611619472503662109375</LongitudeDegrees>
            </Position>
            <AltitudeMeters>3418.199951171875</AltitudeMeters>
            <DistanceMeters>11708.623766077</DistanceMeters>
          </Trackpoint>
          <Trackpoint>
            <Time>2019-07-15T10:33:33.000Z</Time>
            <Position>
              <LatitudeDegrees>37.05240690149366855621337890625</LatitudeDegrees>
              <LongitudeDegrees>-3.31278805620968341827392578125</LongitudeDegrees>
            </Position>
            <AltitudeMeters>3418</AltitudeMeters>
            <DistanceMeters>11709.974349447</DistanceMeters>
          </Trackpoint>
          <Trackpoint>
            <Time>2019-07-15T10:33:34.000Z</Time>
            <Position>
              <LatitudeDegrees>37.052409835159778594970703125</LatitudeDegrees>
              <LongitudeDegrees>-3.31279777921736240386962890625</LongitudeDegrees>
            </Position>
            <AltitudeMeters>3417.800048828125</AltitudeMeters>
            <DistanceMeters>11710.90055529</DistanceMeters>
          </Trackpoint>
          <Trackpoint>
            <Time>2019-07-15T10:33:38.000Z</Time>
            <Position>
              <LatitudeDegrees>37.052381001412868499755859375</LatitudeDegrees>
              <LongitudeDegrees>-3.31282963044941425323486328125</LongitudeDegrees>
            </Position>
            <AltitudeMeters>3417</AltitudeMeters>
            <DistanceMeters>11715.179923821</DistanceMeters>
          </Trackpoint>
          <Trackpoint>
            <Time>2019-07-15T10:33:40.000Z</Time>
            <Position>
              <LatitudeDegrees>37.0523664169013500213623046875</LatitudeDegrees>
              <LongitudeDegrees>-3.31285142339766025543212890625</LongitudeDegrees>
            </Position>
            <AltitudeMeters>3416.199951171875</AltitudeMeters>
            <DistanceMeters>11717.708420236</DistanceMeters>
          </Trackpoint>
          <Trackpoint>
            <Time>2019-07-15T10:33:41.000Z</Time>
            <Position>
              <LatitudeDegrees>37.05236884765326976776123046875</LatitudeDegrees>
              <LongitudeDegrees>-3.31286282278597354888916015625</LongitudeDegrees>
            </Position>
            <AltitudeMeters>3416</AltitudeMeters>
            <DistanceMeters>11718.758024603</DistanceMeters>
          </Trackpoint>
          <Trackpoint>
            <Time>2019-07-15T10:33:53.000Z</Time>
            <Position>
              <LatitudeDegrees>37.05235778354108333587646484375</LatitudeDegrees>
              <LongitudeDegrees>-3.31292971037328243255615234375</LongitudeDegrees>
            </Position>
            <AltitudeMeters>3412.800048828125</AltitudeMeters>
            <DistanceMeters>11724.826356477</DistanceMeters>
          </Trackpoint>
          <Trackpoint>
            <Time>2019-07-15T10:34:06.000Z</Time>
            <Position>
              <LatitudeDegrees>37.0524063147604465484619140625</LatitudeDegrees>
              <LongitudeDegrees>-3.31301202066242694854736328125</LongitudeDegrees>
            </Position>
            <AltitudeMeters>3410.199951171875</AltitudeMeters>
            <DistanceMeters>11733.91619693</DistanceMeters>
          </Trackpoint>
          <Trackpoint>
            <Time>2019-07-15T10:34:07.000Z</Time>
            <Position>
              <LatitudeDegrees>37.05241226591169834136962890625</LatitudeDegrees>
              <LongitudeDegrees>-3.31302040256559848785400390625</LongitudeDegrees>
            </Position>
            <AltitudeMeters>3410.199951171875</AltitudeMeters>
            <DistanceMeters>11734.908304955</DistanceMeters>
          </Trackpoint>
          <Trackpoint>
            <Time>2019-07-15T10:34:21.000Z</Time>
            <Position>
              <LatitudeDegrees>37.0524277724325656890869140625</LatitudeDegrees>
              <LongitudeDegrees>-3.31308293156325817108154296875</LongitudeDegrees>
            </Position>
            <AltitudeMeters>3407</AltitudeMeters>
            <DistanceMeters>11740.725150873</DistanceMeters>
          </Trackpoint>
          <Trackpoint>
            <Time>2019-07-15T10:34:26.000Z</Time>
            <Position>
              <LatitudeDegrees>37.05239139497280120849609375</LatitudeDegrees>
              <LongitudeDegrees>-3.313099443912506103515625</LongitudeDegrees>
            </Position>
            <AltitudeMeters>3405.800048828125</AltitudeMeters>
            <DistanceMeters>11745.030815391</DistanceMeters>
          </Trackpoint>
          <Trackpoint>
            <Time>2019-07-15T10:34:27.000Z</Time>
            <Position>
              <LatitudeDegrees>37.05238334834575653076171875</LatitudeDegrees>
              <LongitudeDegrees>-3.31310573033988475799560546875</LongitudeDegrees>
            </Position>
            <AltitudeMeters>3405.60009765625</AltitudeMeters>
            <DistanceMeters>11746.080419757</DistanceMeters>
          </Trackpoint>
          <Trackpoint>
            <Time>2019-07-15T10:34:33.000Z</Time>
            <Position>
              <LatitudeDegrees>37.05241008661687374114990234375</LatitudeDegrees>
              <LongitudeDegrees>-3.31315451301634311676025390625</LongitudeDegrees>
            </Position>
            <AltitudeMeters>3404.39990234375</AltitudeMeters>
            <DistanceMeters>11751.337896718</DistanceMeters>
          </Trackpoint>
          <Trackpoint>
            <Time>2019-07-15T10:34:34.000Z</Time>
            <Position>
              <LatitudeDegrees>37.05241930671036243438720703125</LatitudeDegrees>
              <LongitudeDegrees>-3.313159458339214324951171875</LongitudeDegrees>
            </Position>
            <AltitudeMeters>3404.199951171875</AltitudeMeters>
            <DistanceMeters>11752.458245158</DistanceMeters>
          </Trackpoint>
          <Trackpoint>
            <Time>2019-07-15T10:34:51.000Z</Time>
            <Position>
              <LatitudeDegrees>37.0523801632225513458251953125</LatitudeDegrees>
              <LongitudeDegrees>-3.31324973143637180328369140625</LongitudeDegrees>
            </Position>
            <AltitudeMeters>3401</AltitudeMeters>
            <DistanceMeters>11761.584768325</DistanceMeters>
          </Trackpoint>
          <Trackpoint>
            <Time>2019-07-15T10:34:56.000Z</Time>
            <Position>
              <LatitudeDegrees>37.0523580349981784820556640625</LatitudeDegrees>
              <LongitudeDegrees>-3.31328677944839000701904296875</LongitudeDegrees>
            </Position>
            <AltitudeMeters>3399.39990234375</AltitudeMeters>
            <DistanceMeters>11765.69515432</DistanceMeters>
          </Trackpoint>
          <Trackpoint>
            <Time>2019-07-15T10:34:57.000Z</Time>
            <Position>
              <LatitudeDegrees>37.05235778354108333587646484375</LatitudeDegrees>
              <LongitudeDegrees>-3.313298933207988739013671875</LongitudeDegrees>
            </Position>
            <AltitudeMeters>3399.199951171875</AltitudeMeters>
            <DistanceMeters>11766.770258866</DistanceMeters>
          </Trackpoint>
          <Trackpoint>
            <Time>2019-07-15T10:34:58.000Z</Time>
            <Position>
              <LatitudeDegrees>37.0523607172071933746337890625</LatitudeDegrees>
              <LongitudeDegrees>-3.31330974586308002471923828125</LongitudeDegrees>
            </Position>
            <AltitudeMeters>3398.800048828125</AltitudeMeters>
            <DistanceMeters>11767.775927082</DistanceMeters>
          </Trackpoint>
          <Trackpoint>
            <Time>2019-07-15T10:35:09.000Z</Time>
            <Position>
              <LatitudeDegrees>37.05231897532939910888671875</LatitudeDegrees>
              <LongitudeDegrees>-3.31334176473319530487060546875</LongitudeDegrees>
            </Position>
            <AltitudeMeters>3395.800048828125</AltitudeMeters>
            <DistanceMeters>11773.223204493</DistanceMeters>
          </Trackpoint>
          <Trackpoint>
            <Time>2019-07-15T10:35:23.000Z</Time>
            <Position>
              <LatitudeDegrees>37.052319981157779693603515625</LatitudeDegrees>
              <LongitudeDegrees>-3.31343849189579486846923828125</LongitudeDegrees>
            </Position>
            <AltitudeMeters>3392.800048828125</AltitudeMeters>
            <DistanceMeters>11781.816162953</DistanceMeters>
          </Trackpoint>
          <Trackpoint>
            <Time>2019-07-15T10:35:26.000Z</Time>
            <Position>
              <LatitudeDegrees>37.05228955484926700592041015625</LatitudeDegrees>
              <LongitudeDegrees>-3.31345240585505962371826171875</LongitudeDegrees>
            </Position>
            <AltitudeMeters>3391.800048828125</AltitudeMeters>
            <DistanceMeters>11785.42092092</DistanceMeters>
          </Trackpoint>
          <Trackpoint>
            <Time>2019-07-15T10:35:27.000Z</Time>
            <Position>
              <LatitudeDegrees>37.05228268168866634368896484375</LatitudeDegrees>
              <LongitudeDegrees>-3.3134509809315204620361328125</LongitudeDegrees>
            </Position>
            <AltitudeMeters>3391.60009765625</AltitudeMeters>
            <DistanceMeters>11786.1987481</DistanceMeters>
          </Trackpoint>
          <Trackpoint>
            <Time>2019-07-15T10:35:32.000Z</Time>
            <Position>
              <LatitudeDegrees>37.0522520877420902252197265625</LatitudeDegrees>
              <LongitudeDegrees>-3.3134865202009677886962890625</LongitudeDegrees>
            </Position>
            <AltitudeMeters>3390.39990234375</AltitudeMeters>
            <DistanceMeters>11790.84243441</DistanceMeters>
          </Trackpoint>
          <Trackpoint>
            <Time>2019-07-15T10:35:33.000Z</Time>
            <Position>
              <LatitudeDegrees>37.0522544346749782562255859375</LatitudeDegrees>
              <LongitudeDegrees>-3.31349783577024936676025390625</LongitudeDegrees>
            </Position>
            <AltitudeMeters>3390.199951171875</AltitudeMeters>
            <DistanceMeters>11791.87905348</DistanceMeters>
          </Trackpoint>
          <Trackpoint>
            <Time>2019-07-15T10:35:34.000Z</Time>
            <Position>
              <LatitudeDegrees>37.0522634871304035186767578125</LatitudeDegrees>
              <LongitudeDegrees>-3.3135044574737548828125</LongitudeDegrees>
            </Position>
            <AltitudeMeters>3389.800048828125</AltitudeMeters>
            <DistanceMeters>11793.042888291</DistanceMeters>
          </Trackpoint>
          <Trackpoint>
            <Time>2019-07-15T10:35:58.000Z</Time>
            <Position>
              <LatitudeDegrees>37.0522698573768138885498046875</LatitudeDegrees>
              <LongitudeDegrees>-3.31357276998460292816162109375</LongitudeDegrees>
            </Position>
            <AltitudeMeters>3386.800048828125</AltitudeMeters>
            <DistanceMeters>11799.152004916</DistanceMeters>
          </Trackpoint>
          <Trackpoint>
            <Time>2019-07-15T10:36:07.000Z</Time>
            <Position>
              <LatitudeDegrees>37.05223239026963710784912109375</LatitudeDegrees>
              <LongitudeDegrees>-3.3135981671512126922607421875</LongitudeDegrees>
            </Position>
            <AltitudeMeters>3385.199951171875</AltitudeMeters>
            <DistanceMeters>11803.893828442</DistanceMeters>
          </Trackpoint>
          <Trackpoint>
            <Time>2019-07-15T10:36:08.000Z</Time>
            <Position>
              <LatitudeDegrees>37.0522229187190532684326171875</LatitudeDegrees>
              <LongitudeDegrees>-3.3136038668453693389892578125</LongitudeDegrees>
            </Position>
            <AltitudeMeters>3384.800048828125</AltitudeMeters>
            <DistanceMeters>11805.065396459</DistanceMeters>
          </Trackpoint>
          <Trackpoint>
            <Time>2019-07-15T10:36:09.000Z</Time>
            <Position>
              <LatitudeDegrees>37.05221571028232574462890625</LatitudeDegrees>
              <LongitudeDegrees>-3.31360043026506900787353515625</LongitudeDegrees>
            </Position>
            <AltitudeMeters>3384.60009765625</AltitudeMeters>
            <DistanceMeters>11805.920636889</DistanceMeters>
          </Trackpoint>
          <Trackpoint>
            <Time>2019-07-15T10:36:10.000Z</Time>
            <Position>
              <LatitudeDegrees>37.05220540054142475128173828125</LatitudeDegrees>
              <LongitudeDegrees>-3.3136058785021305084228515625</LongitudeDegrees>
            </Position>
            <AltitudeMeters>3384.39990234375</AltitudeMeters>
            <DistanceMeters>11807.166900564</DistanceMeters>
          </Trackpoint>
          <Trackpoint>
            <Time>2019-07-15T10:36:11.000Z</Time>
            <Position>
              <LatitudeDegrees>37.05219089984893798828125</LatitudeDegrees>
              <LongitudeDegrees>-3.313614428043365478515625</LongitudeDegrees>
            </Position>
            <AltitudeMeters>3384</AltitudeMeters>
            <DistanceMeters>11808.952290433</DistanceMeters>
          </Trackpoint>
          <Trackpoint>
            <Time>2019-07-15T10:36:12.000Z</Time>
            <Position>
              <LatitudeDegrees>37.052185535430908203125</LatitudeDegrees>
              <LongitudeDegrees>-3.31362582743167877197265625</LongitudeDegrees>
            </Position>
            <AltitudeMeters>3383.800048828125</AltitudeMeters>
            <DistanceMeters>11810.12385845</DistanceMeters>
          </Trackpoint>
          <Trackpoint>
            <Time>2019-07-15T10:36:13.000Z</Time>
            <Position>
              <LatitudeDegrees>37.05218696035444736480712890625</LatitudeDegrees>
              <LongitudeDegrees>-3.31363764591515064239501953125</LongitudeDegrees>
            </Position>
            <AltitudeMeters>3383.39990234375</AltitudeMeters>
            <DistanceMeters>11811.182031158</DistanceMeters>
          </Trackpoint>
          <Trackpoint>
            <Time>2019-07-15T10:36:14.000Z</Time>
            <Position>
              <LatitudeDegrees>37.052194587886333465576171875</LatitudeDegrees>
              <LongitudeDegrees>-3.313643932342529296875</LongitudeDegrees>
            </Position>
            <AltitudeMeters>3383.199951171875</AltitudeMeters>
            <DistanceMeters>11812.196638823</DistanceMeters>
          </Trackpoint>
          <Trackpoint>
            <Time>2019-07-15T10:36:17.000Z</Time>
            <Position>
              <LatitudeDegrees>37.05222501419484615325927734375</LatitudeDegrees>
              <LongitudeDegrees>-3.3136622048914432525634765625</LongitudeDegrees>
            </Position>
            <AltitudeMeters>3382.60009765625</AltitudeMeters>
            <DistanceMeters>11815.952298473</DistanceMeters>
          </Trackpoint>
          <Trackpoint>
            <Time>2019-07-15T10:36:23.000Z</Time>
            <Position>
              <LatitudeDegrees>37.0522136986255645751953125</LatitudeDegrees>
              <LongitudeDegrees>-3.31369229592382907867431640625</LongitudeDegrees>
            </Position>
            <AltitudeMeters>3381</AltitudeMeters>
            <DistanceMeters>11818.905780121</DistanceMeters>
          </Trackpoint>
          <Trackpoint>
            <Time>2019-07-15T10:36:31.000Z</Time>
            <Position>
              <LatitudeDegrees>37.05218486487865447998046875</LatitudeDegrees>
              <LongitudeDegrees>-3.31375314854085445404052734375</LongitudeDegrees>
            </Position>
            <AltitudeMeters>3379</AltitudeMeters>
            <DistanceMeters>11825.191924768</DistanceMeters>
          </Trackpoint>
          <Trackpoint>
            <Time>2019-07-15T10:36:32.000Z</Time>
            <Position>
              <LatitudeDegrees>37.05218461342155933380126953125</LatitudeDegrees>
              <LongitudeDegrees>-3.31376396119594573974609375</LongitudeDegrees>
            </Position>
            <AltitudeMeters>3378.800048828125</AltitudeMeters>
            <DistanceMeters>11826.151647539</DistanceMeters>
          </Trackpoint>
          <Trackpoint>
            <Time>2019-07-15T10:36:33.000Z</Time>
            <Position>
              <LatitudeDegrees>37.0521903969347476959228515625</LatitudeDegrees>
              <LongitudeDegrees>-3.31377603113651275634765625</LongitudeDegrees>
            </Position>
            <AltitudeMeters>3378.60009765625</AltitudeMeters>
            <DistanceMeters>11827.401528823</DistanceMeters>
          </Trackpoint>
          <Trackpoint>
            <Time>2019-07-15T10:36:34.000Z</Time>
            <Position>
              <LatitudeDegrees>37.05219986848533153533935546875</LatitudeDegrees>
              <LongitudeDegrees>-3.313784413039684295654296875</LongitudeDegrees>
            </Position>
            <AltitudeMeters>3378.39990234375</AltitudeMeters>
            <DistanceMeters>11828.690533891</DistanceMeters>
          </Trackpoint>
          <Trackpoint>
            <Time>2019-07-15T10:36:35.000Z</Time>
            <Position>
              <LatitudeDegrees>37.0522091723978519439697265625</LatitudeDegrees>
              <LongitudeDegrees>-3.313793800771236419677734375</LongitudeDegrees>
            </Position>
            <AltitudeMeters>3378.199951171875</AltitudeMeters>
            <DistanceMeters>11830.020907892</DistanceMeters>
          </Trackpoint>
          <Trackpoint>
            <Time>2019-07-15T10:36:36.000Z</Time>
            <Position>
              <LatitudeDegrees>37.0522165484726428985595703125</LatitudeDegrees>
              <LongitudeDegrees>-3.31379891373217105865478515625</LongitudeDegrees>
            </Position>
            <AltitudeMeters>3378</AltitudeMeters>
            <DistanceMeters>11830.96162437</DistanceMeters>
          </Trackpoint>
          <Trackpoint>
            <Time>2019-07-15T10:36:47.000Z</Time>
            <Position>
              <LatitudeDegrees>37.0521950908005237579345703125</LatitudeDegrees>
              <LongitudeDegrees>-3.31384216435253620147705078125</LongitudeDegrees>
            </Position>
            <AltitudeMeters>3375</AltitudeMeters>
            <DistanceMeters>11835.485135531</DistanceMeters>
          </Trackpoint>
          <Trackpoint>
            <Time>2019-07-15T10:36:52.000Z</Time>
            <Position>
              <LatitudeDegrees>37.05216181464493274688720703125</LatitudeDegrees>
              <LongitudeDegrees>-3.3138660527765750885009765625</LongitudeDegrees>
            </Position>
            <AltitudeMeters>3373.800048828125</AltitudeMeters>
            <DistanceMeters>11839.753940313</DistanceMeters>
          </Trackpoint>
          <Trackpoint>
            <Time>2019-07-15T10:36:53.000Z</Time>
            <Position>
              <LatitudeDegrees>37.0521528460085391998291015625</LatitudeDegrees>
              <LongitudeDegrees>-3.313868232071399688720703125</LongitudeDegrees>
            </Position>
            <AltitudeMeters>3373.199951171875</AltitudeMeters>
            <DistanceMeters>11840.768547978</DistanceMeters>
          </Trackpoint>
          <Trackpoint>
            <Time>2019-07-15T10:36:57.000Z</Time>
            <Position>
              <LatitudeDegrees>37.052118480205535888671875</LatitudeDegrees>
              <LongitudeDegrees>-3.31390905193984508514404296875</LongitudeDegrees>
            </Position>
            <AltitudeMeters>3371.800048828125</AltitudeMeters>
            <DistanceMeters>11846.038890959</DistanceMeters>
          </Trackpoint>
          <Trackpoint>
            <Time>2019-07-15T10:36:58.000Z</Time>
            <Position>
              <LatitudeDegrees>37.05212057568132877349853515625</LatitudeDegrees>
              <LongitudeDegrees>-3.3139257319271564483642578125</LongitudeDegrees>
            </Position>
            <AltitudeMeters>3371.39990234375</AltitudeMeters>
            <DistanceMeters>11847.535373154</DistanceMeters>
          </Trackpoint>
          <Trackpoint>
            <Time>2019-07-15T10:36:59.000Z</Time>
            <Position>
              <LatitudeDegrees>37.05212644301354885101318359375</LatitudeDegrees>
              <LongitudeDegrees>-3.31393872387707233428955078125</LongitudeDegrees>
            </Position>
            <AltitudeMeters>3371.39990234375</AltitudeMeters>
            <DistanceMeters>11848.862349004</DistanceMeters>
          </Trackpoint>
          <Trackpoint>
            <Time>2019-07-15T10:37:05.000Z</Time>
            <Position>
              <LatitudeDegrees>37.05216835252940654754638671875</LatitudeDegrees>
              <LongitudeDegrees>-3.3140038512647151947021484375</LongitudeDegrees>
            </Position>
            <AltitudeMeters>3369</AltitudeMeters>
            <DistanceMeters>11856.293292245</DistanceMeters>
          </Trackpoint>
          <Trackpoint>
            <Time>2019-07-15T10:37:14.000Z</Time>
            <Position>
              <LatitudeDegrees>37.052145637571811676025390625</LatitudeDegrees>
              <LongitudeDegrees>-3.31404550932347774505615234375</LongitudeDegrees>
            </Position>
            <AltitudeMeters>3367.39990234375</AltitudeMeters>
            <DistanceMeters>11860.774686003</DistanceMeters>
          </Trackpoint>
          <Trackpoint>
            <Time>2019-07-15T10:37:15.000Z</Time>
            <Position>
              <LatitudeDegrees>37.05214194953441619873046875</LatitudeDegrees>
              <LongitudeDegrees>-3.31406302750110626220703125</LongitudeDegrees>
            </Position>
            <AltitudeMeters>3367.199951171875</AltitudeMeters>
            <DistanceMeters>11862.384540636</DistanceMeters>
          </Trackpoint>
          <Trackpoint>
            <Time>2019-07-15T10:37:16.000Z</Time>
            <Position>
              <LatitudeDegrees>37.052140943706035614013671875</LatitudeDegrees>
              <LongitudeDegrees>-3.31407216377556324005126953125</LongitudeDegrees>
            </Position>
            <AltitudeMeters>3366.60009765625</AltitudeMeters>
            <DistanceMeters>11863.207496123</DistanceMeters>
          </Trackpoint>
          <Trackpoint>
            <Time>2019-07-15T10:37:31.000Z</Time>
            <Position>
              <LatitudeDegrees>37.05210976302623748779296875</LatitudeDegrees>
              <LongitudeDegrees>-3.3141057752072811126708984375</LongitudeDegrees>
            </Position>
            <AltitudeMeters>3363.60009765625</AltitudeMeters>
            <DistanceMeters>11867.786561257</DistanceMeters>
          </Trackpoint>
          <Trackpoint>
            <Time>2019-07-15T10:37:37.000Z</Time>
            <Position>
              <LatitudeDegrees>37.05213834531605243682861328125</LatitudeDegrees>
              <LongitudeDegrees>-3.31415900029242038726806640625</LongitudeDegrees>
            </Position>
            <AltitudeMeters>3362.199951171875</AltitudeMeters>
            <DistanceMeters>11873.485787956</DistanceMeters>
          </Trackpoint>
          <Trackpoint>
            <Time>2019-07-15T10:37:48.000Z</Time>
            <Position>
              <LatitudeDegrees>37.05217421986162662506103515625</LatitudeDegrees>
              <LongitudeDegrees>-3.31424809992313385009765625</LongitudeDegrees>
            </Position>
            <AltitudeMeters>3359</AltitudeMeters>
            <DistanceMeters>11882.350817865</DistanceMeters>
          </Trackpoint>
          <Trackpoint>
            <Time>2019-07-15T10:38:03.000Z</Time>
            <Position>
              <LatitudeDegrees>37.05210900865495204925537109375</LatitudeDegrees>
              <LongitudeDegrees>-3.31428757868707180023193359375</LongitudeDegrees>
            </Position>
            <AltitudeMeters>3356.800048828125</AltitudeMeters>
            <DistanceMeters>11890.411861848</DistanceMeters>
          </Trackpoint>
          <Trackpoint>
            <Time>2019-07-15T10:38:04.000Z</Time>
            <Position>
              <LatitudeDegrees>37.0521126128733158111572265625</LatitudeDegrees>
              <LongitudeDegrees>-3.3142983913421630859375</LongitudeDegrees>
            </Position>
            <AltitudeMeters>3356.60009765625</AltitudeMeters>
            <DistanceMeters>11891.452827348</DistanceMeters>
          </Trackpoint>
          <Trackpoint>
            <Time>2019-07-15T10:38:18.000Z</Time>
            <Position>
              <LatitudeDegrees>37.05214723013341426849365234375</LatitudeDegrees>
              <LongitudeDegrees>-3.3143639378249645233154296875</LongitudeDegrees>
            </Position>
            <AltitudeMeters>3353.60009765625</AltitudeMeters>
            <DistanceMeters>11898.434542943</DistanceMeters>
          </Trackpoint>
          <Trackpoint>
            <Time>2019-07-15T10:38:33.000Z</Time>
            <Position>
              <LatitudeDegrees>37.05211638472974300384521484375</LatitudeDegrees>
              <LongitudeDegrees>-3.31443342380225658416748046875</LongitudeDegrees>
            </Position>
            <AltitudeMeters>3350.199951171875</AltitudeMeters>
            <DistanceMeters>11905.497272039</DistanceMeters>
          </Trackpoint>
          <Trackpoint>
            <Time>2019-07-15T10:38:42.000Z</Time>
            <Position>
              <LatitudeDegrees>37.05207891762256622314453125</LatitudeDegrees>
              <LongitudeDegrees>-3.31447633914649486541748046875</LongitudeDegrees>
            </Position>
            <AltitudeMeters>3347.39990234375</AltitudeMeters>
            <DistanceMeters>11911.147966713</DistanceMeters>
          </Trackpoint>
          <Trackpoint>
            <Time>2019-07-15T10:38:43.000Z</Time>
            <Position>
              <LatitudeDegrees>37.05207279883325099945068359375</LatitudeDegrees>
              <LongitudeDegrees>-3.314484469592571258544921875</LongitudeDegrees>
            </Position>
            <AltitudeMeters>3347.199951171875</AltitudeMeters>
            <DistanceMeters>11912.140074738</DistanceMeters>
          </Trackpoint>
          <Trackpoint>
            <Time>2019-07-15T10:38:45.000Z</Time>
            <Position>
              <LatitudeDegrees>37.05207330174744129180908203125</LatitudeDegrees>
              <LongitudeDegrees>-3.31450827419757843017578125</LongitudeDegrees>
            </Position>
            <AltitudeMeters>3346.800048828125</AltitudeMeters>
            <DistanceMeters>11914.256420153</DistanceMeters>
          </Trackpoint>
          <Trackpoint>
            <Time>2019-07-15T10:38:48.000Z</Time>
            <Position>
              <LatitudeDegrees>37.05205771140754222869873046875</LatitudeDegrees>
              <LongitudeDegrees>-3.31452948041260242462158203125</LongitudeDegrees>
            </Position>
            <AltitudeMeters>3346</AltitudeMeters>
            <DistanceMeters>11916.818619516</DistanceMeters>
          </Trackpoint>
          <Trackpoint>
            <Time>2019-07-15T10:38:49.000Z</Time>
            <Position>
              <LatitudeDegrees>37.0520519278943538665771484375</LatitudeDegrees>
              <LongitudeDegrees>-3.31453333608806133270263671875</LongitudeDegrees>
            </Position>
            <AltitudeMeters>3345.800048828125</AltitudeMeters>
            <DistanceMeters>11917.542321411</DistanceMeters>
          </Trackpoint>
          <Trackpoint>
            <Time>2019-07-15T10:39:01.000Z</Time>
            <Position>
              <LatitudeDegrees>37.0520106889307498931884765625</LatitudeDegrees>
              <LongitudeDegrees>-3.31458471715450286865234375</LongitudeDegrees>
            </Position>
            <AltitudeMeters>3342.800048828125</AltitudeMeters>
            <DistanceMeters>11924.015307948</DistanceMeters>
          </Trackpoint>
          <Trackpoint>
            <Time>2019-07-15T10:39:02.000Z</Time>
            <Position>
              <LatitudeDegrees>37.05201596952974796295166015625</LatitudeDegrees>
              <LongitudeDegrees>-3.314595781266689300537109375</LongitudeDegrees>
            </Position>
            <AltitudeMeters>3342.39990234375</AltitudeMeters>
            <DistanceMeters>11925.15562852</DistanceMeters>
          </Trackpoint>
          <Trackpoint>
            <Time>2019-07-15T10:39:12.000Z</Time>
            <Position>
              <LatitudeDegrees>37.05198311246931552886962890625</LatitudeDegrees>
              <LongitudeDegrees>-3.31465889699757099151611328125</LongitudeDegrees>
            </Position>
            <AltitudeMeters>3339.39990234375</AltitudeMeters>
            <DistanceMeters>11931.8494495</DistanceMeters>
          </Trackpoint>
          <Trackpoint>
            <Time>2019-07-15T10:39:13.000Z</Time>
            <Position>
              <LatitudeDegrees>37.0519835315644741058349609375</LatitudeDegrees>
              <LongitudeDegrees>-3.314673565328121185302734375</LongitudeDegrees>
            </Position>
            <AltitudeMeters>3339.199951171875</AltitudeMeters>
            <DistanceMeters>11933.152390163</DistanceMeters>
          </Trackpoint>
          <Trackpoint>
            <Time>2019-07-15T10:39:25.000Z</Time>
            <Position>
              <LatitudeDegrees>37.052004821598529815673828125</LatitudeDegrees>
              <LongitudeDegrees>-3.3147364296019077301025390625</LongitudeDegrees>
            </Position>
            <AltitudeMeters>3336</AltitudeMeters>
            <DistanceMeters>11939.21923379</DistanceMeters>
          </Trackpoint>
          <Trackpoint>
            <Time>2019-07-15T10:39:28.000Z</Time>
            <Position>
              <LatitudeDegrees>37.051979340612888336181640625</LatitudeDegrees>
              <LongitudeDegrees>-3.31474992446601390838623046875</LongitudeDegrees>
            </Position>
            <AltitudeMeters>3335</AltitudeMeters>
            <DistanceMeters>11942.296984623</DistanceMeters>
          </Trackpoint>
          <Trackpoint>
            <Time>2019-07-15T10:39:40.000Z</Time>
            <Position>
              <LatitudeDegrees>37.0520190708339214324951171875</LatitudeDegrees>
              <LongitudeDegrees>-3.31482368521392345428466796875</LongitudeDegrees>
            </Position>
            <AltitudeMeters>3331.800048828125</AltitudeMeters>
            <DistanceMeters>11950.201356762</DistanceMeters>
          </Trackpoint>
          <Trackpoint>
            <Time>2019-07-15T10:39:54.000Z</Time>
            <Position>
              <LatitudeDegrees>37.05203508026897907257080078125</LatitudeDegrees>
              <LongitudeDegrees>-3.31488202325999736785888671875</LongitudeDegrees>
            </Position>
            <AltitudeMeters>3328.60009765625</AltitudeMeters>
            <DistanceMeters>11955.681688344</DistanceMeters>
          </Trackpoint>
          <Trackpoint>
            <Time>2019-07-15T10:39:56.000Z</Time>
            <Position>
              <LatitudeDegrees>37.05202753655612468719482421875</LatitudeDegrees>
              <LongitudeDegrees>-3.3149112761020660400390625</LongitudeDegrees>
            </Position>
            <AltitudeMeters>3328.199951171875</AltitudeMeters>
            <DistanceMeters>11958.412776615</DistanceMeters>
          </Trackpoint>
          <Trackpoint>
            <Time>2019-07-15T10:39:57.000Z</Time>
            <Position>
              <LatitudeDegrees>37.0520301349461078643798828125</LatitudeDegrees>
              <LongitudeDegrees>-3.31492058001458644866943359375</LongitudeDegrees>
            </Position>
            <AltitudeMeters>3327.800048828125</AltitudeMeters>
            <DistanceMeters>11959.288879633</DistanceMeters>
          </Trackpoint>
          <Trackpoint>
            <Time>2019-07-15T10:40:01.000Z</Time>
            <Position>
              <LatitudeDegrees>37.05202535726130008697509765625</LatitudeDegrees>
              <LongitudeDegrees>-3.31495662219822406768798828125</LongitudeDegrees>
            </Position>
            <AltitudeMeters>3326.60009765625</AltitudeMeters>
            <DistanceMeters>11962.533732346</DistanceMeters>
          </Trackpoint>
          <Trackpoint>
            <Time>2019-07-15T10:40:06.000Z</Time>
            <Position>
              <LatitudeDegrees>37.0520500838756561279296875</LatitudeDegrees>
              <LongitudeDegrees>-3.3150006271898746490478515625</LongitudeDegrees>
            </Position>
            <AltitudeMeters>3325.39990234375</AltitudeMeters>
            <DistanceMeters>11967.313491065</DistanceMeters>
          </Trackpoint>
          <Trackpoint>
            <Time>2019-07-15T10:40:16.000Z</Time>
            <Position>
              <LatitudeDegrees>37.05209056846797466278076171875</LatitudeDegrees>
              <LongitudeDegrees>-3.31509978510439395904541015625</LongitudeDegrees>
            </Position>
            <AltitudeMeters>3322.800048828125</AltitudeMeters>
            <DistanceMeters>11977.207227904</DistanceMeters>
          </Trackpoint>
          <Trackpoint>
            <Time>2019-07-15T10:40:17.000Z</Time>
            <Position>
              <LatitudeDegrees>37.0520861260592937469482421875</LatitudeDegrees>
              <LongitudeDegrees>-3.31511353142559528350830078125</LongitudeDegrees>
            </Position>
            <AltitudeMeters>3322.39990234375</AltitudeMeters>
            <DistanceMeters>11978.523956683</DistanceMeters>
          </Trackpoint>
          <Trackpoint>
            <Time>2019-07-15T10:40:18.000Z</Time>
            <Position>
              <LatitudeDegrees>37.05207346938550472259521484375</LatitudeDegrees>
              <LongitudeDegrees>-3.31512291915714740753173828125</LongitudeDegrees>
            </Position>
            <AltitudeMeters>3321.800048828125</AltitudeMeters>
            <DistanceMeters>11980.161617425</DistanceMeters>
          </Trackpoint>
          <Trackpoint>
            <Time>2019-07-15T10:40:19.000Z</Time>
            <Position>
              <LatitudeDegrees>37.05205603502690792083740234375</LatitudeDegrees>
              <LongitudeDegrees>-3.31512526609003543853759765625</LongitudeDegrees>
            </Position>
            <AltitudeMeters>3321.39990234375</AltitudeMeters>
            <DistanceMeters>11982.113716874</DistanceMeters>
          </Trackpoint>
          <Trackpoint>
            <Time>2019-07-15T10:40:20.000Z</Time>
            <Position>
              <LatitudeDegrees>37.05204128287732601165771484375</LatitudeDegrees>
              <LongitudeDegrees>-3.31512778066098690032958984375</LongitudeDegrees>
            </Position>
            <AltitudeMeters>3320.800048828125</AltitudeMeters>
            <DistanceMeters>11983.770564253</DistanceMeters>
          </Trackpoint>
          <Trackpoint>
            <Time>2019-07-15T10:40:21.000Z</Time>
            <Position>
              <LatitudeDegrees>37.05202351324260234832763671875</LatitudeDegrees>
              <LongitudeDegrees>-3.31512786448001861572265625</LongitudeDegrees>
            </Position>
            <AltitudeMeters>3320</AltitudeMeters>
            <DistanceMeters>11985.750224117</DistanceMeters>
          </Trackpoint>
          <Trackpoint>
            <Time>2019-07-15T10:40:22.000Z</Time>
            <Position>
              <LatitudeDegrees>37.0520044863224029541015625</LatitudeDegrees>
              <LongitudeDegrees>-3.31512979231774806976318359375</LongitudeDegrees>
            </Position>
            <AltitudeMeters>3319.800048828125</AltitudeMeters>
            <DistanceMeters>11987.875086047</DistanceMeters>
          </Trackpoint>
          <Trackpoint>
            <Time>2019-07-15T10:40:23.000Z</Time>
            <Position>
              <LatitudeDegrees>37.0519905723631381988525390625</LatitudeDegrees>
              <LongitudeDegrees>-3.31513012759387493133544921875</LongitudeDegrees>
            </Position>
            <AltitudeMeters>3319.800048828125</AltitudeMeters>
            <DistanceMeters>11989.422008882</DistanceMeters>
          </Trackpoint>
          <Trackpoint>
            <Time>2019-07-15T10:40:24.000Z</Time>
            <Position>
              <LatitudeDegrees>37.051979340612888336181640625</LatitudeDegrees>
              <LongitudeDegrees>-3.31512845121324062347412109375</LongitudeDegrees>
            </Position>
            <AltitudeMeters>3319.39990234375</AltitudeMeters>
            <DistanceMeters>11990.679094153</DistanceMeters>
          </Trackpoint>
          <Trackpoint>
            <Time>2019-07-15T10:40:25.000Z</Time>
            <Position>
              <LatitudeDegrees>37.0519674383103847503662109375</LatitudeDegrees>
              <LongitudeDegrees>-3.31512778066098690032958984375</LongitudeDegrees>
            </Position>
            <AltitudeMeters>3319.199951171875</AltitudeMeters>
            <DistanceMeters>11992.002663127</DistanceMeters>
          </Trackpoint>
          <Trackpoint>
            <Time>2019-07-15T10:40:26.000Z</Time>
            <Position>
              <LatitudeDegrees>37.05195511691272258758544921875</LatitudeDegrees>
              <LongitudeDegrees>-3.31512560136616230010986328125</LongitudeDegrees>
            </Position>
            <AltitudeMeters>3319</AltitudeMeters>
            <DistanceMeters>11993.386272973</DistanceMeters>
          </Trackpoint>
          <Trackpoint>
            <Time>2019-07-15T10:40:27.000Z</Time>
            <Position>
              <LatitudeDegrees>37.0519439689815044403076171875</LatitudeDegrees>
              <LongitudeDegrees>-3.3151223324239253997802734375</LongitudeDegrees>
            </Position>
            <AltitudeMeters>3318.800048828125</AltitudeMeters>
            <DistanceMeters>11994.661190131</DistanceMeters>
          </Trackpoint>
          <Trackpoint>
            <Time>2019-07-15T10:40:31.000Z</Time>
            <Position>
              <LatitudeDegrees>37.051909267902374267578125</LatitudeDegrees>
              <LongitudeDegrees>-3.31509961746633052825927734375</LongitudeDegrees>
            </Position>
            <AltitudeMeters>3318.39990234375</AltitudeMeters>
            <DistanceMeters>11999.017934407</DistanceMeters>
          </Trackpoint>
          <Trackpoint>
            <Time>2019-07-15T10:40:32.000Z</Time>
            <Position>
              <LatitudeDegrees>37.05190080218017101287841796875</LatitudeDegrees>
              <LongitudeDegrees>-3.31509324721992015838623046875</LongitudeDegrees>
            </Position>
            <AltitudeMeters>3318.39990234375</AltitudeMeters>
            <DistanceMeters>12000.117948154</DistanceMeters>
          </Trackpoint>
          <Trackpoint>
            <Time>2019-07-15T10:40:38.000Z</Time>
            <Position>
              <LatitudeDegrees>37.05185369588434696197509765625</LatitudeDegrees>
              <LongitudeDegrees>-3.315115459263324737548828125</LongitudeDegrees>
            </Position>
            <AltitudeMeters>3317.60009765625</AltitudeMeters>
            <DistanceMeters>12005.720496299</DistanceMeters>
          </Trackpoint>
          <Trackpoint>
            <Time>2019-07-15T10:40:44.000Z</Time>
            <Position>
              <LatitudeDegrees>37.05182067118585109710693359375</LatitudeDegrees>
              <LongitudeDegrees>-3.31514127552509307861328125</LongitudeDegrees>
            </Position>
            <AltitudeMeters>3316.199951171875</AltitudeMeters>
            <DistanceMeters>12010.052297178</DistanceMeters>
          </Trackpoint>
          <Trackpoint>
            <Time>2019-07-15T10:40:51.000Z</Time>
            <Position>
              <LatitudeDegrees>37.051787562668323516845703125</LatitudeDegrees>
              <LongitudeDegrees>-3.31519567407667636871337890625</LongitudeDegrees>
            </Position>
            <AltitudeMeters>3314.60009765625</AltitudeMeters>
            <DistanceMeters>12016.129550888</DistanceMeters>
          </Trackpoint>
          <Trackpoint>
            <Time>2019-07-15T10:40:52.000Z</Time>
            <Position>
              <LatitudeDegrees>37.05179250799119472503662109375</LatitudeDegrees>
              <LongitudeDegrees>-3.3152068220078945159912109375</LongitudeDegrees>
            </Position>
            <AltitudeMeters>3314.39990234375</AltitudeMeters>
            <DistanceMeters>12017.261924879</DistanceMeters>
          </Trackpoint>
          <Trackpoint>
            <Time>2019-07-15T10:41:00.000Z</Time>
            <Position>
              <LatitudeDegrees>37.05183525569736957550048828125</LatitudeDegrees>
              <LongitudeDegrees>-3.31527312286198139190673828125</LongitudeDegrees>
            </Position>
            <AltitudeMeters>3311.800048828125</AltitudeMeters>
            <DistanceMeters>12024.833115358</DistanceMeters>
          </Trackpoint>
          <Trackpoint>
            <Time>2019-07-15T10:41:01.000Z</Time>
            <Position>
              <LatitudeDegrees>37.0518447272479534149169921875</LatitudeDegrees>
              <LongitudeDegrees>-3.31527664326131343841552734375</LongitudeDegrees>
            </Position>
            <AltitudeMeters>3311.39990234375</AltitudeMeters>
            <DistanceMeters>12025.937226004</DistanceMeters>
          </Trackpoint>
          <Trackpoint>
            <Time>2019-07-15T10:41:14.000Z</Time>
            <Position>
              <LatitudeDegrees>37.051889486610889434814453125</LatitudeDegrees>
              <LongitudeDegrees>-3.31533933989703655242919921875</LongitudeDegrees>
            </Position>
            <AltitudeMeters>3308.199951171875</AltitudeMeters>
            <DistanceMeters>12033.409976015</DistanceMeters>
          </Trackpoint>
          <Trackpoint>
            <Time>2019-07-15T10:41:27.000Z</Time>
            <Position>
              <LatitudeDegrees>37.05188537947833538055419921875</LatitudeDegrees>
              <LongitudeDegrees>-3.3154187165200710296630859375</LongitudeDegrees>
            </Position>
            <AltitudeMeters>3305.199951171875</AltitudeMeters>
            <DistanceMeters>12040.475900771</DistanceMeters>
          </Trackpoint>
          <Trackpoint>
            <Time>2019-07-15T10:41:36.000Z</Time>
            <Position>
              <LatitudeDegrees>37.05187465064227581024169921875</LatitudeDegrees>
              <LongitudeDegrees>-3.31546657718718051910400390625</LongitudeDegrees>
            </Position>
            <AltitudeMeters>3302.800048828125</AltitudeMeters>
            <DistanceMeters>12044.890298235</DistanceMeters>
          </Trackpoint>
          <Trackpoint>
            <Time>2019-07-15T10:41:45.000Z</Time>
            <Position>
              <LatitudeDegrees>37.05182720907032489776611328125</LatitudeDegrees>
              <LongitudeDegrees>-3.3155290223658084869384765625</LongitudeDegrees>
            </Position>
            <AltitudeMeters>3299.39990234375</AltitudeMeters>
            <DistanceMeters>12052.548060077</DistanceMeters>
          </Trackpoint>
          <Trackpoint>
            <Time>2019-07-15T10:42:00.000Z</Time>
            <Position>
              <LatitudeDegrees>37.051868699491024017333984375</LatitudeDegrees>
              <LongitudeDegrees>-3.315621055662631988525390625</LongitudeDegrees>
            </Position>
            <AltitudeMeters>3296.39990234375</AltitudeMeters>
            <DistanceMeters>12061.936968759</DistanceMeters>
          </Trackpoint>
          <Trackpoint>
            <Time>2019-07-15T10:42:13.000Z</Time>
            <Position>
              <LatitudeDegrees>37.05182905308902263641357421875</LatitudeDegrees>
              <LongitudeDegrees>-3.3156869374215602874755859375</LongitudeDegrees>
            </Position>
            <AltitudeMeters>3293.199951171875</AltitudeMeters>
            <DistanceMeters>12069.265740463</DistanceMeters>
          </Trackpoint>
          <Trackpoint>
            <Time>2019-07-15T10:42:24.000Z</Time>
            <Position>
              <LatitudeDegrees>37.05186526291072368621826171875</LatitudeDegrees>
              <LongitudeDegrees>-3.3157791383564472198486328125</LongitudeDegrees>
            </Position>
            <AltitudeMeters>3290</AltitudeMeters>
            <DistanceMeters>12078.393747658</DistanceMeters>
          </Trackpoint>
          <Trackpoint>
            <Time>2019-07-15T10:42:40.000Z</Time>
            <Position>
              <LatitudeDegrees>37.05187515355646610260009765625</LatitudeDegrees>
              <LongitudeDegrees>-3.31583797931671142578125</LongitudeDegrees>
            </Position>
            <AltitudeMeters>3287</AltitudeMeters>
            <DistanceMeters>12083.736412877</DistanceMeters>
          </Trackpoint>
          <Trackpoint>
            <Time>2019-07-15T10:42:58.000Z</Time>
            <Position>
              <LatitudeDegrees>37.05193533562123775482177734375</LatitudeDegrees>
              <LongitudeDegrees>-3.3158733509480953216552734375</LongitudeDegrees>
            </Position>
            <AltitudeMeters>3283.800048828125</AltitudeMeters>
            <DistanceMeters>12091.135083257</DistanceMeters>
          </Trackpoint>
          <Trackpoint>
            <Time>2019-07-15T10:43:12.000Z</Time>
            <Position>
              <LatitudeDegrees>37.051975987851619720458984375</LatitudeDegrees>
              <LongitudeDegrees>-3.3158956468105316162109375</LongitudeDegrees>
            </Position>
            <AltitudeMeters>3284.199951171875</AltitudeMeters>
            <DistanceMeters>12096.073730489</DistanceMeters>
          </Trackpoint>
          <Trackpoint>
            <Time>2019-07-15T10:43:13.000Z</Time>
            <Position>
              <LatitudeDegrees>37.05198579467833042144775390625</LatitudeDegrees>
              <LongitudeDegrees>-3.31590092740952968597412109375</LongitudeDegrees>
            </Position>
            <AltitudeMeters>3284</AltitudeMeters>
            <DistanceMeters>12097.252981002</DistanceMeters>
          </Trackpoint>
          <Trackpoint>
            <Time>2019-07-15T10:43:14.000Z</Time>
            <Position>
              <LatitudeDegrees>37.05198763869702816009521484375</LatitudeDegrees>
              <LongitudeDegrees>-3.3159142546355724334716796875</LongitudeDegrees>
            </Position>
            <AltitudeMeters>3283.60009765625</AltitudeMeters>
            <DistanceMeters>12098.451222277</DistanceMeters>
          </Trackpoint>
          <Trackpoint>
            <Time>2019-07-15T10:43:15.000Z</Time>
            <Position>
              <LatitudeDegrees>37.0519912429153919219970703125</LatitudeDegrees>
              <LongitudeDegrees>-3.3159259893000125885009765625</LongitudeDegrees>
            </Position>
            <AltitudeMeters>3283.39990234375</AltitudeMeters>
            <DistanceMeters>12099.567533412</DistanceMeters>
          </Trackpoint>
          <Trackpoint>
            <Time>2019-07-15T10:43:16.000Z</Time>
            <Position>
              <LatitudeDegrees>37.05200021155178546905517578125</LatitudeDegrees>
              <LongitudeDegrees>-3.3159337006509304046630859375</LongitudeDegrees>
            </Position>
            <AltitudeMeters>3283.39990234375</AltitudeMeters>
            <DistanceMeters>12100.777026026</DistanceMeters>
          </Trackpoint>
          <Trackpoint>
            <Time>2019-07-15T10:43:17.000Z</Time>
            <Position>
              <LatitudeDegrees>37.05200507305562496185302734375</LatitudeDegrees>
              <LongitudeDegrees>-3.3159447647631168365478515625</LongitudeDegrees>
            </Position>
            <AltitudeMeters>3283.199951171875</AltitudeMeters>
            <DistanceMeters>12101.897374466</DistanceMeters>
          </Trackpoint>
          <Trackpoint>
            <Time>2019-07-15T10:43:18.000Z</Time>
            <Position>
              <LatitudeDegrees>37.05201244913041591644287109375</LatitudeDegrees>
              <LongitudeDegrees>-3.3159497939050197601318359375</LongitudeDegrees>
            </Position>
            <AltitudeMeters>3282.800048828125</AltitudeMeters>
            <DistanceMeters>12102.828442314</DistanceMeters>
          </Trackpoint>
          <Trackpoint>
            <Time>2019-07-15T10:43:19.000Z</Time>
            <Position>
              <LatitudeDegrees>37.05201697535812854766845703125</LatitudeDegrees>
              <LongitudeDegrees>-3.3159588463604450225830078125</LongitudeDegrees>
            </Position>
            <AltitudeMeters>3282.39990234375</AltitudeMeters>
            <DistanceMeters>12103.773946184</DistanceMeters>
          </Trackpoint>
          <Trackpoint>
            <Time>2019-07-15T10:43:20.000Z</Time>
            <Position>
              <LatitudeDegrees>37.05202384851872920989990234375</LatitudeDegrees>
              <LongitudeDegrees>-3.31596496514976024627685546875</LongitudeDegrees>
            </Position>
            <AltitudeMeters>3282</AltitudeMeters>
            <DistanceMeters>12104.709850781</DistanceMeters>
          </Trackpoint>
          <Trackpoint>
            <Time>2019-07-15T10:43:21.000Z</Time>
            <Position>
              <LatitudeDegrees>37.05202686600387096405029296875</LatitudeDegrees>
              <LongitudeDegrees>-3.31597586162388324737548828125</LongitudeDegrees>
            </Position>
            <AltitudeMeters>3281.800048828125</AltitudeMeters>
            <DistanceMeters>12105.733319817</DistanceMeters>
          </Trackpoint>
          <Trackpoint>
            <Time>2019-07-15T10:43:32.000Z</Time>
            <Position>
              <LatitudeDegrees>37.05199099145829677581787109375</LatitudeDegrees>
              <LongitudeDegrees>-3.31604056991636753082275390625</LongitudeDegrees>
            </Position>
            <AltitudeMeters>3278.800048828125</AltitudeMeters>
            <DistanceMeters>12112.731829275</DistanceMeters>
          </Trackpoint>
          <Trackpoint>
            <Time>2019-07-15T10:43:33.000Z</Time>
            <Position>
              <LatitudeDegrees>37.05198881216347217559814453125</LatitudeDegrees>
              <LongitudeDegrees>-3.31605347804725170135498046875</LongitudeDegrees>
            </Position>
            <AltitudeMeters>3278.60009765625</AltitudeMeters>
            <DistanceMeters>12113.903397292</DistanceMeters>
          </Trackpoint>
          <Trackpoint>
            <Time>2019-07-15T10:43:34.000Z</Time>
            <Position>
              <LatitudeDegrees>37.051995433866977691650390625</LatitudeDegrees>
              <LongitudeDegrees>-3.3160634525120258331298828125</LongitudeDegrees>
            </Position>
            <AltitudeMeters>3278.39990234375</AltitudeMeters>
            <DistanceMeters>12115.055534974</DistanceMeters>
          </Trackpoint>
          <Trackpoint>
            <Time>2019-07-15T10:43:35.000Z</Time>
            <Position>
              <LatitudeDegrees>37.05200021155178546905517578125</LatitudeDegrees>
              <LongitudeDegrees>-3.31607493571937084197998046875</LongitudeDegrees>
            </Position>
            <AltitudeMeters>3278.199951171875</AltitudeMeters>
            <DistanceMeters>12116.203747132</DistanceMeters>
          </Trackpoint>
          <Trackpoint>
            <Time>2019-07-15T10:43:36.000Z</Time>
            <Position>
              <LatitudeDegrees>37.0520044863224029541015625</LatitudeDegrees>
              <LongitudeDegrees>-3.31608164124190807342529296875</LongitudeDegrees>
            </Position>
            <AltitudeMeters>3277.60009765625</AltitudeMeters>
            <DistanceMeters>12116.963960847</DistanceMeters>
          </Trackpoint>
          <Trackpoint>
            <Time>2019-07-15T10:43:37.000Z</Time>
            <Position>
              <LatitudeDegrees>37.052016556262969970703125</LatitudeDegrees>
              <LongitudeDegrees>-3.3160885982215404510498046875</LongitudeDegrees>
            </Position>
            <AltitudeMeters>3277.199951171875</AltitudeMeters>
            <DistanceMeters>12118.439172162</DistanceMeters>
          </Trackpoint>
          <Trackpoint>
            <Time>2019-07-15T10:43:38.000Z</Time>
            <Position>
              <LatitudeDegrees>37.05202393233776092529296875</LatitudeDegrees>
              <LongitudeDegrees>-3.31609304063022136688232421875</LongitudeDegrees>
            </Position>
            <AltitudeMeters>3276.800048828125</AltitudeMeters>
            <DistanceMeters>12119.350636387</DistanceMeters>
          </Trackpoint>
          <Trackpoint>
            <Time>2019-07-15T10:43:39.000Z</Time>
            <Position>
              <LatitudeDegrees>37.05203273333609104156494140625</LatitudeDegrees>
              <LongitudeDegrees>-3.316097818315029144287109375</LongitudeDegrees>
            </Position>
            <AltitudeMeters>3276.60009765625</AltitudeMeters>
            <DistanceMeters>12120.421533071</DistanceMeters>
          </Trackpoint>
          <Trackpoint>
            <Time>2019-07-15T10:43:52.000Z</Time>
            <Position>
              <LatitudeDegrees>37.05202099867165088653564453125</LatitudeDegrees>
              <LongitudeDegrees>-3.3161566592752933502197265625</LongitudeDegrees>
            </Position>
            <AltitudeMeters>3273.199951171875</AltitudeMeters>
            <DistanceMeters>12125.808801924</DistanceMeters>
          </Trackpoint>
          <Trackpoint>
            <Time>2019-07-15T10:43:54.000Z</Time>
            <Position>
              <LatitudeDegrees>37.052004151046276092529296875</LatitudeDegrees>
              <LongitudeDegrees>-3.31615758128464221954345703125</LongitudeDegrees>
            </Position>
            <AltitudeMeters>3272.60009765625</AltitudeMeters>
            <DistanceMeters>12127.68783356</DistanceMeters>
          </Trackpoint>
          <Trackpoint>
            <Time>2019-07-15T10:43:57.000Z</Time>
            <Position>
              <LatitudeDegrees>37.05198361538350582122802734375</LatitudeDegrees>
              <LongitudeDegrees>-3.316182307898998260498046875</LongitudeDegrees>
            </Position>
            <AltitudeMeters>3271.60009765625</AltitudeMeters>
            <DistanceMeters>12130.859505857</DistanceMeters>
          </Trackpoint>
          <Trackpoint>
            <Time>2019-07-15T10:43:58.000Z</Time>
            <Position>
              <LatitudeDegrees>37.0519815199077129364013671875</LatitudeDegrees>
              <LongitudeDegrees>-3.31618943251669406890869140625</LongitudeDegrees>
            </Position>
            <AltitudeMeters>3271.39990234375</AltitudeMeters>
            <DistanceMeters>12131.544753239</DistanceMeters>
          </Trackpoint>
          <Trackpoint>
            <Time>2019-07-15T10:44:00.000Z</Time>
            <Position>
              <LatitudeDegrees>37.05198193900287151336669921875</LatitudeDegrees>
              <LongitudeDegrees>-3.316210471093654632568359375</LongitudeDegrees>
            </Position>
            <AltitudeMeters>3270.800048828125</AltitudeMeters>
            <DistanceMeters>12133.416562433</DistanceMeters>
          </Trackpoint>
          <Trackpoint>
            <Time>2019-07-15T10:44:12.000Z</Time>
            <Position>
              <LatitudeDegrees>37.052016220986843109130859375</LatitudeDegrees>
              <LongitudeDegrees>-3.31629035063087940216064453125</LongitudeDegrees>
            </Position>
            <AltitudeMeters>3267.800048828125</AltitudeMeters>
            <DistanceMeters>12141.473124323</DistanceMeters>
          </Trackpoint>
          <Trackpoint>
            <Time>2019-07-15T10:44:19.000Z</Time>
            <Position>
              <LatitudeDegrees>37.05204865895211696624755859375</LatitudeDegrees>
              <LongitudeDegrees>-3.31634047441184520721435546875</LongitudeDegrees>
            </Position>
            <AltitudeMeters>3265.800048828125</AltitudeMeters>
            <DistanceMeters>12147.206315254</DistanceMeters>
          </Trackpoint>
          <Trackpoint>
            <Time>2019-07-15T10:44:20.000Z</Time>
            <Position>
              <LatitudeDegrees>37.05205637030303478240966796875</LatitudeDegrees>
              <LongitudeDegrees>-3.3163489401340484619140625</LongitudeDegrees>
            </Position>
            <AltitudeMeters>3265.800048828125</AltitudeMeters>
            <DistanceMeters>12148.346635827</DistanceMeters>
          </Trackpoint>
          <Trackpoint>
            <Time>2019-07-15T10:44:32.000Z</Time>
            <Position>
              <LatitudeDegrees>37.05205477774143218994140625</LatitudeDegrees>
              <LongitudeDegrees>-3.31640853546559810638427734375</LongitudeDegrees>
            </Position>
            <AltitudeMeters>3262.60009765625</AltitudeMeters>
            <DistanceMeters>12153.64261708</DistanceMeters>
          </Trackpoint>
          <Trackpoint>
            <Time>2019-07-15T10:44:35.000Z</Time>
            <Position>
              <LatitudeDegrees>37.052037008106708526611328125</LatitudeDegrees>
              <LongitudeDegrees>-3.31641976721584796905517578125</LongitudeDegrees>
            </Position>
            <AltitudeMeters>3262</AltitudeMeters>
            <DistanceMeters>12155.856963826</DistanceMeters>
          </Trackpoint>
          <Trackpoint>
            <Time>2019-07-15T10:44:37.000Z</Time>
            <Position>
              <LatitudeDegrees>37.0520318113267421722412109375</LatitudeDegrees>
              <LongitudeDegrees>-3.31644189544022083282470703125</LongitudeDegrees>
            </Position>
            <AltitudeMeters>3262</AltitudeMeters>
            <DistanceMeters>12157.903901897</DistanceMeters>
          </Trackpoint>
          <Trackpoint>
            <Time>2019-07-15T10:44:38.000Z</Time>
            <Position>
              <LatitudeDegrees>37.05203474499285221099853515625</LatitudeDegrees>
              <LongitudeDegrees>-3.31645488739013671875</LongitudeDegrees>
            </Position>
            <AltitudeMeters>3261.60009765625</AltitudeMeters>
            <DistanceMeters>12159.102143173</DistanceMeters>
          </Trackpoint>
          <Trackpoint>
            <Time>2019-07-15T10:44:39.000Z</Time>
            <Position>
              <LatitudeDegrees>37.052038013935089111328125</LatitudeDegrees>
              <LongitudeDegrees>-3.31646704114973545074462890625</LongitudeDegrees>
            </Position>
            <AltitudeMeters>3261.199951171875</AltitudeMeters>
            <DistanceMeters>12160.242463745</DistanceMeters>
          </Trackpoint>
          <Trackpoint>
            <Time>2019-07-15T10:44:48.000Z</Time>
            <Position>
              <LatitudeDegrees>37.05208553932607173919677734375</LatitudeDegrees>
              <LongitudeDegrees>-3.31652940250933170318603515625</LongitudeDegrees>
            </Position>
            <AltitudeMeters>3258.199951171875</AltitudeMeters>
            <DistanceMeters>12167.902583636</DistanceMeters>
          </Trackpoint>
          <Trackpoint>
            <Time>2019-07-15T10:44:49.000Z</Time>
            <Position>
              <LatitudeDegrees>37.05209660343825817108154296875</LatitudeDegrees>
              <LongitudeDegrees>-3.31653510220348834991455078125</LongitudeDegrees>
            </Position>
            <AltitudeMeters>3257.800048828125</AltitudeMeters>
            <DistanceMeters>12169.23634713</DistanceMeters>
          </Trackpoint>
          <Trackpoint>
            <Time>2019-07-15T10:44:50.000Z</Time>
            <Position>
              <LatitudeDegrees>37.05210196785628795623779296875</LatitudeDegrees>
              <LongitudeDegrees>-3.31654750742018222808837890625</LongitudeDegrees>
            </Position>
            <AltitudeMeters>3257.60009765625</AltitudeMeters>
            <DistanceMeters>12170.489835583</DistanceMeters>
          </Trackpoint>
          <Trackpoint>
            <Time>2019-07-15T10:44:51.000Z</Time>
            <Position>
              <LatitudeDegrees>37.0521055720746517181396484375</LatitudeDegrees>
              <LongitudeDegrees>-3.31655790098011493682861328125</LongitudeDegrees>
            </Position>
            <AltitudeMeters>3257.199951171875</AltitudeMeters>
            <DistanceMeters>12171.4955038</DistanceMeters>
          </Trackpoint>
          <Trackpoint>
            <Time>2019-07-15T10:45:34.000Z</Time>
            <Position>
              <LatitudeDegrees>37.0521615631878376007080078125</LatitudeDegrees>
              <LongitudeDegrees>-3.31652529537677764892578125</LongitudeDegrees>
            </Position>
            <AltitudeMeters>3256.800048828125</AltitudeMeters>
            <DistanceMeters>12178.367715947</DistanceMeters>
          </Trackpoint>
          <Trackpoint>
            <Time>2019-07-15T10:46:01.000Z</Time>
            <Position>
              <LatitudeDegrees>37.05216198228299617767333984375</LatitudeDegrees>
              <LongitudeDegrees>-3.316532671451568603515625</LongitudeDegrees>
            </Position>
            <AltitudeMeters>3256.800048828125</AltitudeMeters>
            <DistanceMeters>12179.026080337</DistanceMeters>
          </Trackpoint>
          <Trackpoint>
            <Time>2019-07-15T10:47:52.000Z</Time>
            <Position>
              <LatitudeDegrees>37.05216567032039165496826171875</LatitudeDegrees>
              <LongitudeDegrees>-3.31656594760715961456298828125</LongitudeDegrees>
            </Position>
            <AltitudeMeters>3254.199951171875</AltitudeMeters>
            <DistanceMeters>12182.009979694</DistanceMeters>
          </Trackpoint>
          <Trackpoint>
            <Time>2019-07-15T10:48:02.000Z</Time>
            <Position>
              <LatitudeDegrees>37.05216751433908939361572265625</LatitudeDegrees>
              <LongitudeDegrees>-3.31662562675774097442626953125</LongitudeDegrees>
            </Position>
            <AltitudeMeters>3253.39990234375</AltitudeMeters>
            <DistanceMeters>12187.314479501</DistanceMeters>
          </Trackpoint>
          <Trackpoint>
            <Time>2019-07-15T10:48:03.000Z</Time>
            <Position>
              <LatitudeDegrees>37.052169106900691986083984375</LatitudeDegrees>
              <LongitudeDegrees>-3.31663551740348339080810546875</LongitudeDegrees>
            </Position>
            <AltitudeMeters>3253</AltitudeMeters>
            <DistanceMeters>12188.215982068</DistanceMeters>
          </Trackpoint>
          <Trackpoint>
            <Time>2019-07-15T10:48:04.000Z</Time>
            <Position>
              <LatitudeDegrees>37.05217187292873859405517578125</LatitudeDegrees>
              <LongitudeDegrees>-3.3166464976966381072998046875</LongitudeDegrees>
            </Position>
            <AltitudeMeters>3252.60009765625</AltitudeMeters>
            <DistanceMeters>12189.239451104</DistanceMeters>
          </Trackpoint>
          <Trackpoint>
            <Time>2019-07-15T10:48:05.000Z</Time>
            <Position>
              <LatitudeDegrees>37.0521773211658000946044921875</LatitudeDegrees>
              <LongitudeDegrees>-3.31665513105690479278564453125</LongitudeDegrees>
            </Position>
            <AltitudeMeters>3252</AltitudeMeters>
            <DistanceMeters>12190.217811009</DistanceMeters>
          </Trackpoint>
          <Trackpoint>
            <Time>2019-07-15T10:48:06.000Z</Time>
            <Position>
              <LatitudeDegrees>37.05218260176479816436767578125</LatitudeDegrees>
              <LongitudeDegrees>-3.31666334532201290130615234375</LongitudeDegrees>
            </Position>
            <AltitudeMeters>3251.60009765625</AltitudeMeters>
            <DistanceMeters>12191.148878858</DistanceMeters>
          </Trackpoint>
          <Trackpoint>
            <Time>2019-07-15T10:48:07.000Z</Time>
            <Position>
              <LatitudeDegrees>37.05218645744025707244873046875</LatitudeDegrees>
              <LongitudeDegrees>-3.316672481596469879150390625</LongitudeDegrees>
            </Position>
            <AltitudeMeters>3251.199951171875</AltitudeMeters>
            <DistanceMeters>12192.070197036</DistanceMeters>
          </Trackpoint>
          <Trackpoint>
            <Time>2019-07-15T10:48:17.000Z</Time>
            <Position>
              <LatitudeDegrees>37.052246890962123870849609375</LatitudeDegrees>
              <LongitudeDegrees>-3.3167700469493865966796875</LongitudeDegrees>
            </Position>
            <AltitudeMeters>3248</AltitudeMeters>
            <DistanceMeters>12203.040742093</DistanceMeters>
          </Trackpoint>
          <Trackpoint>
            <Time>2019-07-15T10:48:22.000Z</Time>
            <Position>
              <LatitudeDegrees>37.0522336475551128387451171875</LatitudeDegrees>
              <LongitudeDegrees>-3.31680550239980220794677734375</LongitudeDegrees>
            </Position>
            <AltitudeMeters>3247.199951171875</AltitudeMeters>
            <DistanceMeters>12206.519290991</DistanceMeters>
          </Trackpoint>
          <Trackpoint>
            <Time>2019-07-15T10:48:25.000Z</Time>
            <Position>
              <LatitudeDegrees>37.05222451128065586090087890625</LatitudeDegrees>
              <LongitudeDegrees>-3.31682343967258930206298828125</LongitudeDegrees>
            </Position>
            <AltitudeMeters>3245.800048828125</AltitudeMeters>
            <DistanceMeters>12208.41029873</DistanceMeters>
          </Trackpoint>
          <Trackpoint>
            <Time>2019-07-15T10:48:35.000Z</Time>
            <Position>
              <LatitudeDegrees>37.05217547714710235595703125</LatitudeDegrees>
              <LongitudeDegrees>-3.31688730977475643157958984375</LongitudeDegrees>
            </Position>
            <AltitudeMeters>3243.199951171875</AltitudeMeters>
            <DistanceMeters>12216.282044697</DistanceMeters>
          </Trackpoint>
          <Trackpoint>
            <Time>2019-07-15T10:48:36.000Z</Time>
            <Position>
              <LatitudeDegrees>37.05217455513775348663330078125</LatitudeDegrees>
              <LongitudeDegrees>-3.31689937971532344818115234375</LongitudeDegrees>
            </Position>
            <AltitudeMeters>3243</AltitudeMeters>
            <DistanceMeters>12217.357149243</DistanceMeters>
          </Trackpoint>
          <Trackpoint>
            <Time>2019-07-15T10:48:37.000Z</Time>
            <Position>
              <LatitudeDegrees>37.05217723734676837921142578125</LatitudeDegrees>
              <LongitudeDegrees>-3.316908180713653564453125</LongitudeDegrees>
            </Position>
            <AltitudeMeters>3242.800048828125</AltitudeMeters>
            <DistanceMeters>12218.185572933</DistanceMeters>
          </Trackpoint>
          <Trackpoint>
            <Time>2019-07-15T10:48:38.000Z</Time>
            <Position>
              <LatitudeDegrees>37.052180506289005279541015625</LatitudeDegrees>
              <LongitudeDegrees>-3.3169184066355228424072265625</LongitudeDegrees>
            </Position>
            <AltitudeMeters>3242.39990234375</AltitudeMeters>
            <DistanceMeters>12219.159306996</DistanceMeters>
          </Trackpoint>
          <Trackpoint>
            <Time>2019-07-15T10:48:39.000Z</Time>
            <Position>
              <LatitudeDegrees>37.05218293704092502593994140625</LatitudeDegrees>
              <LongitudeDegrees>-3.31692754290997982025146484375</LongitudeDegrees>
            </Position>
            <AltitudeMeters>3242</AltitudeMeters>
            <DistanceMeters>12220.009251768</DistanceMeters>
          </Trackpoint>
          <Trackpoint>
            <Time>2019-07-15T10:48:48.000Z</Time>
            <Position>
              <LatitudeDegrees>37.05222350545227527618408203125</LatitudeDegrees>
              <LongitudeDegrees>-3.317009098827838897705078125</LongitudeDegrees>
            </Position>
            <AltitudeMeters>3238.800048828125</AltitudeMeters>
            <DistanceMeters>12228.545803584</DistanceMeters>
          </Trackpoint>
          <Trackpoint>
            <Time>2019-07-15T10:49:00.000Z</Time>
            <Position>
              <LatitudeDegrees>37.0522628165781497955322265625</LatitudeDegrees>
              <LongitudeDegrees>-3.3171266131103038787841796875</LongitudeDegrees>
            </Position>
            <AltitudeMeters>3235.60009765625</AltitudeMeters>
            <DistanceMeters>12239.864757802</DistanceMeters>
          </Trackpoint>
          <Trackpoint>
            <Time>2019-07-15T10:49:07.000Z</Time>
            <Position>
              <LatitudeDegrees>37.0522903092205524444580078125</LatitudeDegrees>
              <LongitudeDegrees>-3.317181430757045745849609375</LongitudeDegrees>
            </Position>
            <AltitudeMeters>3232.60009765625</AltitudeMeters>
            <DistanceMeters>12245.61524821</DistanceMeters>
          </Trackpoint>
          <Trackpoint>
            <Time>2019-07-15T10:49:13.000Z</Time>
            <Position>
              <LatitudeDegrees>37.05231922678649425506591796875</LatitudeDegrees>
              <LongitudeDegrees>-3.317192494869232177734375</LongitudeDegrees>
            </Position>
            <AltitudeMeters>3230.800048828125</AltitudeMeters>
            <DistanceMeters>12248.980321146</DistanceMeters>
          </Trackpoint>
          <Trackpoint>
            <Time>2019-07-15T10:49:43.000Z</Time>
            <Position>
              <LatitudeDegrees>37.05237261950969696044921875</LatitudeDegrees>
              <LongitudeDegrees>-3.31726583652198314666748046875</LongitudeDegrees>
            </Position>
            <AltitudeMeters>3227.800048828125</AltitudeMeters>
            <DistanceMeters>12257.798370151</DistanceMeters>
          </Trackpoint>
          <Trackpoint>
            <Time>2019-07-15T10:49:49.000Z</Time>
            <Position>
              <LatitudeDegrees>37.05236515961587429046630859375</LatitudeDegrees>
              <LongitudeDegrees>-3.31732635386288166046142578125</LongitudeDegrees>
            </Position>
            <AltitudeMeters>3226.39990234375</AltitudeMeters>
            <DistanceMeters>12263.237352632</DistanceMeters>
          </Trackpoint>
          <Trackpoint>
            <Time>2019-07-15T10:49:50.000Z</Time>
            <Position>
              <LatitudeDegrees>37.052363567054271697998046875</LatitudeDegrees>
              <LongitudeDegrees>-3.31733934581279754638671875</LongitudeDegrees>
            </Position>
            <AltitudeMeters>3226.199951171875</AltitudeMeters>
            <DistanceMeters>12264.401187443</DistanceMeters>
          </Trackpoint>
          <Trackpoint>
            <Time>2019-07-15T10:49:56.000Z</Time>
            <Position>
              <LatitudeDegrees>37.05237471498548984527587890625</LatitudeDegrees>
              <LongitudeDegrees>-3.31740682013332843780517578125</LongitudeDegrees>
            </Position>
            <AltitudeMeters>3224.39990234375</AltitudeMeters>
            <DistanceMeters>12270.521380012</DistanceMeters>
          </Trackpoint>
          <Trackpoint>
            <Time>2019-07-15T10:49:57.000Z</Time>
            <Position>
              <LatitudeDegrees>37.05238468945026397705078125</LatitudeDegrees>
              <LongitudeDegrees>-3.31741687841713428497314453125</LongitudeDegrees>
            </Position>
            <AltitudeMeters>3224.199951171875</AltitudeMeters>
            <DistanceMeters>12271.949944773</DistanceMeters>
          </Trackpoint>
          <Trackpoint>
            <Time>2019-07-15T10:50:08.000Z</Time>
            <Position>
              <LatitudeDegrees>37.0524606294929981231689453125</LatitudeDegrees>
              <LongitudeDegrees>-3.3175291121006011962890625</LongitudeDegrees>
            </Position>
            <AltitudeMeters>3221.800048828125</AltitudeMeters>
            <DistanceMeters>12285.020177601</DistanceMeters>
          </Trackpoint>
          <Trackpoint>
            <Time>2019-07-15T10:50:09.000Z</Time>
            <Position>
              <LatitudeDegrees>37.05246708355844020843505859375</LatitudeDegrees>
              <LongitudeDegrees>-3.31754109822213649749755859375</LongitudeDegrees>
            </Position>
            <AltitudeMeters>3221.39990234375</AltitudeMeters>
            <DistanceMeters>12286.302158066</DistanceMeters>
          </Trackpoint>
          <Trackpoint>
            <Time>2019-07-15T10:50:10.000Z</Time>
            <Position>
              <LatitudeDegrees>37.0524738729000091552734375</LatitudeDegrees>
              <LongitudeDegrees>-3.31755031831562519073486328125</LongitudeDegrees>
            </Position>
            <AltitudeMeters>3220.800048828125</AltitudeMeters>
            <DistanceMeters>12287.418469201</DistanceMeters>
          </Trackpoint>
          <Trackpoint>
            <Time>2019-07-15T10:50:24.000Z</Time>
            <Position>
              <LatitudeDegrees>37.05257873050868511199951171875</LatitudeDegrees>
              <LongitudeDegrees>-3.31763698719441890716552734375</LongitudeDegrees>
            </Position>
            <AltitudeMeters>3217.800048828125</AltitudeMeters>
            <DistanceMeters>12301.399996115</DistanceMeters>
          </Trackpoint>
          <Trackpoint>
            <Time>2019-07-15T10:50:32.000Z</Time>
            <Position>
              <LatitudeDegrees>37.05263958312571048736572265625</LatitudeDegrees>
              <LongitudeDegrees>-3.31766121089458465576171875</LongitudeDegrees>
            </Position>
            <AltitudeMeters>3216.800048828125</AltitudeMeters>
            <DistanceMeters>12308.506063063</DistanceMeters>
          </Trackpoint>
          <Trackpoint>
            <Time>2019-07-15T10:50:37.000Z</Time>
            <Position>
              <LatitudeDegrees>37.05264125950634479522705078125</LatitudeDegrees>
              <LongitudeDegrees>-3.31770152784883975982666015625</LongitudeDegrees>
            </Position>
            <AltitudeMeters>3215.800048828125</AltitudeMeters>
            <DistanceMeters>12312.091983985</DistanceMeters>
          </Trackpoint>
          <Trackpoint>
            <Time>2019-07-15T10:50:38.000Z</Time>
            <Position>
              <LatitudeDegrees>37.0526468753814697265625</LatitudeDegrees>
              <LongitudeDegrees>-3.3177113346755504608154296875</LongitudeDegrees>
            </Position>
            <AltitudeMeters>3215.60009765625</AltitudeMeters>
            <DistanceMeters>12313.162880669</DistanceMeters>
          </Trackpoint>
          <Trackpoint>
            <Time>2019-07-15T10:50:39.000Z</Time>
            <Position>
              <LatitudeDegrees>37.052652575075626373291015625</LatitudeDegrees>
              <LongitudeDegrees>-3.3177213929593563079833984375</LongitudeDegrees>
            </Position>
            <AltitudeMeters>3215</AltitudeMeters>
            <DistanceMeters>12314.258782201</DistanceMeters>
          </Trackpoint>
          <Trackpoint>
            <Time>2019-07-15T10:50:47.000Z</Time>
            <Position>
              <LatitudeDegrees>37.05273471772670745849609375</LatitudeDegrees>
              <LongitudeDegrees>-3.31783748231828212738037109375</LongitudeDegrees>
            </Position>
            <AltitudeMeters>3211.60009765625</AltitudeMeters>
            <DistanceMeters>12328.040276962</DistanceMeters>
          </Trackpoint>
          <Trackpoint>
            <Time>2019-07-15T10:50:49.000Z</Time>
            <Position>
              <LatitudeDegrees>37.0527489669620990753173828125</LatitudeDegrees>
              <LongitudeDegrees>-3.31786648370325565338134765625</LongitudeDegrees>
            </Position>
            <AltitudeMeters>3210.60009765625</AltitudeMeters>
            <DistanceMeters>12331.06624747</DistanceMeters>
          </Trackpoint>
          <Trackpoint>
            <Time>2019-07-15T10:50:50.000Z</Time>
            <Position>
              <LatitudeDegrees>37.05275055952370166778564453125</LatitudeDegrees>
              <LongitudeDegrees>-3.3178831636905670166015625</LongitudeDegrees>
            </Position>
            <AltitudeMeters>3210.39990234375</AltitudeMeters>
            <DistanceMeters>12332.556683247</DistanceMeters>
          </Trackpoint>
          <Trackpoint>
            <Time>2019-07-15T10:50:51.000Z</Time>
            <Position>
              <LatitudeDegrees>37.05275475047528743743896484375</LatitudeDegrees>
              <LongitudeDegrees>-3.31789749674499034881591796875</LongitudeDegrees>
            </Position>
            <AltitudeMeters>3210.39990234375</AltitudeMeters>
            <DistanceMeters>12333.913936206</DistanceMeters>
          </Trackpoint>
          <Trackpoint>
            <Time>2019-07-15T10:50:54.000Z</Time>
            <Position>
              <LatitudeDegrees>37.05277000553905963897705078125</LatitudeDegrees>
              <LongitudeDegrees>-3.31793211400508880615234375</LongitudeDegrees>
            </Position>
            <AltitudeMeters>3209.199951171875</AltitudeMeters>
            <DistanceMeters>12337.42607009</DistanceMeters>
          </Trackpoint>
          <Trackpoint>
            <Time>2019-07-15T10:51:06.000Z</Time>
            <Position>
              <LatitudeDegrees>37.05282465554773807525634765625</LatitudeDegrees>
              <LongitudeDegrees>-3.31798299215734004974365234375</LongitudeDegrees>
            </Position>
            <AltitudeMeters>3207.60009765625</AltitudeMeters>
            <DistanceMeters>12345.004413325</DistanceMeters>
          </Trackpoint>
          <Trackpoint>
            <Time>2019-07-15T10:51:07.000Z</Time>
            <Position>
              <LatitudeDegrees>37.05283588729798793792724609375</LatitudeDegrees>
              <LongitudeDegrees>-3.31799120642244815826416015625</LongitudeDegrees>
            </Position>
            <AltitudeMeters>3207.60009765625</AltitudeMeters>
            <DistanceMeters>12346.451817116</DistanceMeters>
          </Trackpoint>
          <Trackpoint>
            <Time>2019-07-15T10:51:08.000Z</Time>
            <Position>
              <LatitudeDegrees>37.0528448559343814849853515625</LatitudeDegrees>
              <LongitudeDegrees>-3.3180073834955692291259765625</LongitudeDegrees>
            </Position>
            <AltitudeMeters>3207.60009765625</AltitudeMeters>
            <DistanceMeters>12348.201444481</DistanceMeters>
          </Trackpoint>
          <Trackpoint>
            <Time>2019-07-15T10:51:09.000Z</Time>
            <Position>
              <LatitudeDegrees>37.05285541713237762451171875</LatitudeDegrees>
              <LongitudeDegrees>-3.318017609417438507080078125</LongitudeDegrees>
            </Position>
            <AltitudeMeters>3207.800048828125</AltitudeMeters>
            <DistanceMeters>12349.685809211</DistanceMeters>
          </Trackpoint>
          <Trackpoint>
            <Time>2019-07-15T10:51:10.000Z</Time>
            <Position>
              <LatitudeDegrees>37.05286505632102489471435546875</LatitudeDegrees>
              <LongitudeDegrees>-3.3180251531302928924560546875</LongitudeDegrees>
            </Position>
            <AltitudeMeters>3207.60009765625</AltitudeMeters>
            <DistanceMeters>12350.953623711</DistanceMeters>
          </Trackpoint>
          <Trackpoint>
            <Time>2019-07-15T10:51:12.000Z</Time>
            <Position>
              <LatitudeDegrees>37.0528767071664333343505859375</LatitudeDegrees>
              <LongitudeDegrees>-3.318038396537303924560546875</LongitudeDegrees>
            </Position>
            <AltitudeMeters>3207.199951171875</AltitudeMeters>
            <DistanceMeters>12352.705829747</DistanceMeters>
          </Trackpoint>
          <Trackpoint>
            <Time>2019-07-15T10:51:13.000Z</Time>
            <Position>
              <LatitudeDegrees>37.0528797246515750885009765625</LatitudeDegrees>
              <LongitudeDegrees>-3.31804971210658550262451171875</LongitudeDegrees>
            </Position>
            <AltitudeMeters>3207</AltitudeMeters>
            <DistanceMeters>12353.764002454</DistanceMeters>
          </Trackpoint>
          <Trackpoint>
            <Time>2019-07-15T10:51:14.000Z</Time>
            <Position>
              <LatitudeDegrees>37.05288626253604888916015625</LatitudeDegrees>
              <LongitudeDegrees>-3.31805951893329620361328125</LongitudeDegrees>
            </Position>
            <AltitudeMeters>3206.60009765625</AltitudeMeters>
            <DistanceMeters>12354.896376445</DistanceMeters>
          </Trackpoint>
          <Trackpoint>
            <Time>2019-07-15T10:51:15.000Z</Time>
            <Position>
              <LatitudeDegrees>37.05289254896342754364013671875</LatitudeDegrees>
              <LongitudeDegrees>-3.31807024776935577392578125</LongitudeDegrees>
            </Position>
            <AltitudeMeters>3206.39990234375</AltitudeMeters>
            <DistanceMeters>12356.075626958</DistanceMeters>
          </Trackpoint>
          <Trackpoint>
            <Time>2019-07-15T10:51:16.000Z</Time>
            <Position>
              <LatitudeDegrees>37.05289623700082302093505859375</LatitudeDegrees>
              <LongitudeDegrees>-3.318081311881542205810546875</LongitudeDegrees>
            </Position>
            <AltitudeMeters>3205.800048828125</AltitudeMeters>
            <DistanceMeters>12357.142299181</DistanceMeters>
          </Trackpoint>
          <Trackpoint>
            <Time>2019-07-15T10:51:17.000Z</Time>
            <Position>
              <LatitudeDegrees>37.052900679409503936767578125</LatitudeDegrees>
              <LongitudeDegrees>-3.31809396855533123016357421875</LongitudeDegrees>
            </Position>
            <AltitudeMeters>3205.39990234375</AltitudeMeters>
            <DistanceMeters>12358.373986172</DistanceMeters>
          </Trackpoint>
          <Trackpoint>
            <Time>2019-07-15T10:51:18.000Z</Time>
            <Position>
              <LatitudeDegrees>37.05290973186492919921875</LatitudeDegrees>
              <LongitudeDegrees>-3.31810268573462963104248046875</LongitudeDegrees>
            </Position>
            <AltitudeMeters>3205</AltitudeMeters>
            <DistanceMeters>12359.641800672</DistanceMeters>
          </Trackpoint>
          <Trackpoint>
            <Time>2019-07-15T10:51:19.000Z</Time>
            <Position>
              <LatitudeDegrees>37.05292037688195705413818359375</LatitudeDegrees>
              <LongitudeDegrees>-3.31811073236167430877685546875</LongitudeDegrees>
            </Position>
            <AltitudeMeters>3204.60009765625</AltitudeMeters>
            <DistanceMeters>12361.025410518</DistanceMeters>
          </Trackpoint>
          <Trackpoint>
            <Time>2019-07-15T10:51:20.000Z</Time>
            <Position>
              <LatitudeDegrees>37.05293009988963603973388671875</LatitudeDegrees>
              <LongitudeDegrees>-3.31811727024614810943603515625</LongitudeDegrees>
            </Position>
            <AltitudeMeters>3204.199951171875</AltitudeMeters>
            <DistanceMeters>12362.253426302</DistanceMeters>
          </Trackpoint>
          <Trackpoint>
            <Time>2019-07-15T10:51:21.000Z</Time>
            <Position>
              <LatitudeDegrees>37.052935548126697540283203125</LatitudeDegrees>
              <LongitudeDegrees>-3.3181260712444782257080078125</LongitudeDegrees>
            </Position>
            <AltitudeMeters>3204</AltitudeMeters>
            <DistanceMeters>12363.250074891</DistanceMeters>
          </Trackpoint>
          <Trackpoint>
            <Time>2019-07-15T10:51:22.000Z</Time>
            <Position>
              <LatitudeDegrees>37.0529404096305370330810546875</LatitudeDegrees>
              <LongitudeDegrees>-3.31813755445182323455810546875</LongitudeDegrees>
            </Position>
            <AltitudeMeters>3203.800048828125</AltitudeMeters>
            <DistanceMeters>12364.406124766</DistanceMeters>
          </Trackpoint>
          <Trackpoint>
            <Time>2019-07-15T10:51:37.000Z</Time>
            <Position>
              <LatitudeDegrees>37.0530451834201812744140625</LatitudeDegrees>
              <LongitudeDegrees>-3.318302929401397705078125</LongitudeDegrees>
            </Position>
            <AltitudeMeters>3200.800048828125</AltitudeMeters>
            <DistanceMeters>12383.162289568</DistanceMeters>
          </Trackpoint>
          <Trackpoint>
            <Time>2019-07-15T10:51:38.000Z</Time>
            <Position>
              <LatitudeDegrees>37.0530490390956401824951171875</LatitudeDegrees>
              <LongitudeDegrees>-3.3183144964277744293212890625</LongitudeDegrees>
            </Position>
            <AltitudeMeters>3200.199951171875</AltitudeMeters>
            <DistanceMeters>12384.278600703</DistanceMeters>
          </Trackpoint>
          <Trackpoint>
            <Time>2019-07-15T10:51:40.000Z</Time>
            <Position>
              <LatitudeDegrees>37.0530641265213489532470703125</LatitudeDegrees>
              <LongitudeDegrees>-3.3183309249579906463623046875</LongitudeDegrees>
            </Position>
            <AltitudeMeters>3199.800048828125</AltitudeMeters>
            <DistanceMeters>12386.503119053</DistanceMeters>
          </Trackpoint>
          <Trackpoint>
            <Time>2019-07-15T10:51:41.000Z</Time>
            <Position>
              <LatitudeDegrees>37.0530728437006473541259765625</LatitudeDegrees>
              <LongitudeDegrees>-3.318339474499225616455078125</LongitudeDegrees>
            </Position>
            <AltitudeMeters>3199.60009765625</AltitudeMeters>
            <DistanceMeters>12387.734806044</DistanceMeters>
          </Trackpoint>
          <Trackpoint>
            <Time>2019-07-15T10:51:42.000Z</Time>
            <Position>
              <LatitudeDegrees>37.05307804048061370849609375</LatitudeDegrees>
              <LongitudeDegrees>-3.3183500356972217559814453125</LongitudeDegrees>
            </Position>
            <AltitudeMeters>3199.199951171875</AltitudeMeters>
            <DistanceMeters>12388.834819791</DistanceMeters>
          </Trackpoint>
          <Trackpoint>
            <Time>2019-07-15T10:51:54.000Z</Time>
            <Position>
              <LatitudeDegrees>37.05316009931266307830810546875</LatitudeDegrees>
              <LongitudeDegrees>-3.31844181753695011138916015625</LongitudeDegrees>
            </Position>
            <AltitudeMeters>3196.199951171875</AltitudeMeters>
            <DistanceMeters>12401.078155487</DistanceMeters>
          </Trackpoint>
          <Trackpoint>
            <Time>2019-07-15T10:51:56.000Z</Time>
            <Position>
              <LatitudeDegrees>37.053165547549724578857421875</LatitudeDegrees>
              <LongitudeDegrees>-3.3184583298861980438232421875</LongitudeDegrees>
            </Position>
            <AltitudeMeters>3195.60009765625</AltitudeMeters>
            <DistanceMeters>12402.665414548</DistanceMeters>
          </Trackpoint>
          <Trackpoint>
            <Time>2019-07-15T10:51:57.000Z</Time>
            <Position>
              <LatitudeDegrees>37.0531697385013103485107421875</LatitudeDegrees>
              <LongitudeDegrees>-3.318469561636447906494140625</LongitudeDegrees>
            </Position>
            <AltitudeMeters>3195.60009765625</AltitudeMeters>
            <DistanceMeters>12403.765428295</DistanceMeters>
          </Trackpoint>
          <Trackpoint>
            <Time>2019-07-15T10:51:58.000Z</Time>
            <Position>
              <LatitudeDegrees>37.05317501910030841827392578125</LatitudeDegrees>
              <LongitudeDegrees>-3.31848037429153919219970703125</LongitudeDegrees>
            </Position>
            <AltitudeMeters>3195.39990234375</AltitudeMeters>
            <DistanceMeters>12404.893808009</DistanceMeters>
          </Trackpoint>
          <Trackpoint>
            <Time>2019-07-15T10:51:59.000Z</Time>
            <Position>
              <LatitudeDegrees>37.05317988060414791107177734375</LatitudeDegrees>
              <LongitudeDegrees>-3.31848942674696445465087890625</LongitudeDegrees>
            </Position>
            <AltitudeMeters>3195.199951171875</AltitudeMeters>
            <DistanceMeters>12405.862894151</DistanceMeters>
          </Trackpoint>
          <Trackpoint>
            <Time>2019-07-15T10:52:00.000Z</Time>
            <Position>
              <LatitudeDegrees>37.05318524502217769622802734375</LatitudeDegrees>
              <LongitudeDegrees>-3.31849680282175540924072265625</LongitudeDegrees>
            </Position>
            <AltitudeMeters>3195</AltitudeMeters>
            <DistanceMeters>12406.749244336</DistanceMeters>
          </Trackpoint>
          <Trackpoint>
            <Time>2019-07-15T10:52:01.000Z</Time>
            <Position>
              <LatitudeDegrees>37.05319496802985668182373046875</LatitudeDegrees>
              <LongitudeDegrees>-3.31850417889654636383056640625</LongitudeDegrees>
            </Position>
            <AltitudeMeters>3194.800048828125</AltitudeMeters>
            <DistanceMeters>12408.013492544</DistanceMeters>
          </Trackpoint>
          <Trackpoint>
            <Time>2019-07-15T10:52:02.000Z</Time>
            <Position>
              <LatitudeDegrees>37.05320687033236026763916015625</LatitudeDegrees>
              <LongitudeDegrees>-3.318515829741954803466796875</LongitudeDegrees>
            </Position>
            <AltitudeMeters>3194.60009765625</AltitudeMeters>
            <DistanceMeters>12409.691998978</DistanceMeters>
          </Trackpoint>
          <Trackpoint>
            <Time>2019-07-15T10:52:03.000Z</Time>
            <Position>
              <LatitudeDegrees>37.053217850625514984130859375</LatitudeDegrees>
              <LongitudeDegrees>-3.31852815113961696624755859375</LongitudeDegrees>
            </Position>
            <AltitudeMeters>3194.39990234375</AltitudeMeters>
            <DistanceMeters>12411.332414407</DistanceMeters>
          </Trackpoint>
          <Trackpoint>
            <Time>2019-07-15T10:52:04.000Z</Time>
            <Position>
              <LatitudeDegrees>37.0532314293086528778076171875</LatitudeDegrees>
              <LongitudeDegrees>-3.31853385083377361297607421875</LongitudeDegrees>
            </Position>
            <AltitudeMeters>3194.60009765625</AltitudeMeters>
            <DistanceMeters>12412.928184302</DistanceMeters>
          </Trackpoint>
          <Trackpoint>
            <Time>2019-07-15T10:52:05.000Z</Time>
            <Position>
              <LatitudeDegrees>37.0532436668872833251953125</LatitudeDegrees>
              <LongitudeDegrees>-3.31853938288986682891845703125</LongitudeDegrees>
            </Position>
            <AltitudeMeters>3194.60009765625</AltitudeMeters>
            <DistanceMeters>12414.375588093</DistanceMeters>
          </Trackpoint>
          <Trackpoint>
            <Time>2019-07-15T10:52:06.000Z</Time>
            <Position>
              <LatitudeDegrees>37.053254730999469757080078125</LatitudeDegrees>
              <LongitudeDegrees>-3.3185475133359432220458984375</LongitudeDegrees>
            </Position>
            <AltitudeMeters>3194.60009765625</AltitudeMeters>
            <DistanceMeters>12415.804152854</DistanceMeters>
          </Trackpoint>
          <Trackpoint>
            <Time>2019-07-15T10:52:12.000Z</Time>
            <Position>
              <LatitudeDegrees>37.05331617034971714019775390625</LatitudeDegrees>
              <LongitudeDegrees>-3.318603336811065673828125</LongitudeDegrees>
            </Position>
            <AltitudeMeters>3193.39990234375</AltitudeMeters>
            <DistanceMeters>12424.250846526</DistanceMeters>
          </Trackpoint>
          <Trackpoint>
            <Time>2019-07-15T10:52:13.000Z</Time>
            <Position>
              <LatitudeDegrees>37.05332388170063495635986328125</LatitudeDegrees>
              <LongitudeDegrees>-3.3186127245426177978515625</LongitudeDegrees>
            </Position>
            <AltitudeMeters>3193.199951171875</AltitudeMeters>
            <DistanceMeters>12425.445313804</DistanceMeters>
          </Trackpoint>
          <Trackpoint>
            <Time>2019-07-15T10:52:14.000Z</Time>
            <Position>
              <LatitudeDegrees>37.05333343707025051116943359375</LatitudeDegrees>
              <LongitudeDegrees>-3.318623788654804229736328125</LongitudeDegrees>
            </Position>
            <AltitudeMeters>3193</AltitudeMeters>
            <DistanceMeters>12426.892717595</DistanceMeters>
          </Trackpoint>
          <Trackpoint>
            <Time>2019-07-15T10:52:15.000Z</Time>
            <Position>
              <LatitudeDegrees>37.0533430762588977813720703125</LatitudeDegrees>
              <LongitudeDegrees>-3.31863225437700748443603515625</LongitudeDegrees>
            </Position>
            <AltitudeMeters>3192.800048828125</AltitudeMeters>
            <DistanceMeters>12428.195658258</DistanceMeters>
          </Trackpoint>
          <Trackpoint>
            <Time>2019-07-15T10:52:16.000Z</Time>
            <Position>
              <LatitudeDegrees>37.05335003323853015899658203125</LatitudeDegrees>
              <LongitudeDegrees>-3.31864298321306705474853515625</LongitudeDegrees>
            </Position>
            <AltitudeMeters>3192.60009765625</AltitudeMeters>
            <DistanceMeters>12429.423674043</DistanceMeters>
          </Trackpoint>
          <Trackpoint>
            <Time>2019-07-15T10:52:17.000Z</Time>
            <Position>
              <LatitudeDegrees>37.05335824750363826751708984375</LatitudeDegrees>
              <LongitudeDegrees>-3.3186531253159046173095703125</LongitudeDegrees>
            </Position>
            <AltitudeMeters>3192.60009765625</AltitudeMeters>
            <DistanceMeters>12430.705654508</DistanceMeters>
          </Trackpoint>
          <Trackpoint>
            <Time>2019-07-15T10:52:18.000Z</Time>
            <Position>
              <LatitudeDegrees>37.0533655397593975067138671875</LatitudeDegrees>
              <LongitudeDegrees>-3.318662345409393310546875</LongitudeDegrees>
            </Position>
            <AltitudeMeters>3192.39990234375</AltitudeMeters>
            <DistanceMeters>12431.861704383</DistanceMeters>
          </Trackpoint>
          <Trackpoint>
            <Time>2019-07-15T10:52:19.000Z</Time>
            <Position>
              <LatitudeDegrees>37.0533698983490467071533203125</LatitudeDegrees>
              <LongitudeDegrees>-3.318673409521579742431640625</LongitudeDegrees>
            </Position>
            <AltitudeMeters>3192.199951171875</AltitudeMeters>
            <DistanceMeters>12432.96171813</DistanceMeters>
          </Trackpoint>
          <Trackpoint>
            <Time>2019-07-15T10:52:20.000Z</Time>
            <Position>
              <LatitudeDegrees>37.0533735863864421844482421875</LatitudeDegrees>
              <LongitudeDegrees>-3.3186863176524639129638671875</LongitudeDegrees>
            </Position>
            <AltitudeMeters>3191.800048828125</AltitudeMeters>
            <DistanceMeters>12434.178653846</DistanceMeters>
          </Trackpoint>
          <Trackpoint>
            <Time>2019-07-15T10:52:21.000Z</Time>
            <Position>
              <LatitudeDegrees>37.05338188447058200836181640625</LatitudeDegrees>
              <LongitudeDegrees>-3.3186972141265869140625</LongitudeDegrees>
            </Position>
            <AltitudeMeters>3191.60009765625</AltitudeMeters>
            <DistanceMeters>12435.515798242</DistanceMeters>
          </Trackpoint>
          <Trackpoint>
            <Time>2019-07-15T10:52:22.000Z</Time>
            <Position>
              <LatitudeDegrees>37.0533923618495464324951171875</LatitudeDegrees>
              <LongitudeDegrees>-3.31870534457266330718994140625</LongitudeDegrees>
            </Position>
            <AltitudeMeters>3191.60009765625</AltitudeMeters>
            <DistanceMeters>12436.892866161</DistanceMeters>
          </Trackpoint>
          <Trackpoint>
            <Time>2019-07-15T10:52:23.000Z</Time>
            <Position>
              <LatitudeDegrees>37.05339713953435420989990234375</LatitudeDegrees>
              <LongitudeDegrees>-3.318715989589691162109375</LongitudeDegrees>
            </Position>
            <AltitudeMeters>3191.199951171875</AltitudeMeters>
            <DistanceMeters>12437.980496619</DistanceMeters>
          </Trackpoint>
          <Trackpoint>
            <Time>2019-07-15T10:52:24.000Z</Time>
            <Position>
              <LatitudeDegrees>37.05340250395238399505615234375</LatitudeDegrees>
              <LongitudeDegrees>-3.318729065358638763427734375</LongitudeDegrees>
            </Position>
            <AltitudeMeters>3191</AltitudeMeters>
            <DistanceMeters>12439.290349483</DistanceMeters>
          </Trackpoint>
          <Trackpoint>
            <Time>2019-07-15T10:52:25.000Z</Time>
            <Position>
              <LatitudeDegrees>37.05340929329395294189453125</LatitudeDegrees>
              <LongitudeDegrees>-3.318745829164981842041015625</LongitudeDegrees>
            </Position>
            <AltitudeMeters>3190.60009765625</AltitudeMeters>
            <DistanceMeters>12440.96346744</DistanceMeters>
          </Trackpoint>
          <Trackpoint>
            <Time>2019-07-15T10:52:26.000Z</Time>
            <Position>
              <LatitudeDegrees>37.0534165017306804656982421875</LatitudeDegrees>
              <LongitudeDegrees>-3.31875957548618316650390625</LongitudeDegrees>
            </Position>
            <AltitudeMeters>3190.199951171875</AltitudeMeters>
            <DistanceMeters>12442.423295526</DistanceMeters>
          </Trackpoint>
          <Trackpoint>
            <Time>2019-07-15T10:52:27.000Z</Time>
            <Position>
              <LatitudeDegrees>37.0534201897680759429931640625</LatitudeDegrees>
              <LongitudeDegrees>-3.318774998188018798828125</LongitudeDegrees>
            </Position>
            <AltitudeMeters>3189.800048828125</AltitudeMeters>
            <DistanceMeters>12443.851860287</DistanceMeters>
          </Trackpoint>
          <Trackpoint>
            <Time>2019-07-15T10:52:28.000Z</Time>
            <Position>
              <LatitudeDegrees>37.053423039615154266357421875</LatitudeDegrees>
              <LongitudeDegrees>-3.31879754550755023956298828125</LongitudeDegrees>
            </Position>
            <AltitudeMeters>3189.39990234375</AltitudeMeters>
            <DistanceMeters>12445.881075617</DistanceMeters>
          </Trackpoint>
          <Trackpoint>
            <Time>2019-07-15T10:52:29.000Z</Time>
            <Position>
              <LatitudeDegrees>37.053431756794452667236328125</LatitudeDegrees>
              <LongitudeDegrees>-3.3188241161406040191650390625</LongitudeDegrees>
            </Position>
            <AltitudeMeters>3188.60009765625</AltitudeMeters>
            <DistanceMeters>12448.434448914</DistanceMeters>
          </Trackpoint>
          <Trackpoint>
            <Time>2019-07-15T10:52:30.000Z</Time>
            <Position>
              <LatitudeDegrees>37.0534372888505458831787109375</LatitudeDegrees>
              <LongitudeDegrees>-3.31885487772524356842041015625</LongitudeDegrees>
            </Position>
            <AltitudeMeters>3187.800048828125</AltitudeMeters>
            <DistanceMeters>12451.234110742</DistanceMeters>
          </Trackpoint>
          <Trackpoint>
            <Time>2019-07-15T10:52:31.000Z</Time>
            <Position>
              <LatitudeDegrees>37.0534460060298442840576171875</LatitudeDegrees>
              <LongitudeDegrees>-3.3188841305673122406005859375</LongitudeDegrees>
            </Position>
            <AltitudeMeters>3187.60009765625</AltitudeMeters>
            <DistanceMeters>12454.007849218</DistanceMeters>
          </Trackpoint>
          <Trackpoint>
            <Time>2019-07-15T10:52:32.000Z</Time>
            <Position>
              <LatitudeDegrees>37.053455896675586700439453125</LatitudeDegrees>
              <LongitudeDegrees>-3.31891070120036602020263671875</LongitudeDegrees>
            </Position>
            <AltitudeMeters>3187.199951171875</AltitudeMeters>
            <DistanceMeters>12456.610262969</DistanceMeters>
          </Trackpoint>
          <Trackpoint>
            <Time>2019-07-15T10:52:33.000Z</Time>
            <Position>
              <LatitudeDegrees>37.05346218310296535491943359375</LatitudeDegrees>
              <LongitudeDegrees>-3.31893450580537319183349609375</LongitudeDegrees>
            </Position>
            <AltitudeMeters>3186.39990234375</AltitudeMeters>
            <DistanceMeters>12458.83478132</DistanceMeters>
          </Trackpoint>
          <Trackpoint>
            <Time>2019-07-15T10:52:34.000Z</Time>
            <Position>
              <LatitudeDegrees>37.0534567348659038543701171875</LatitudeDegrees>
              <LongitudeDegrees>-3.3189578913152217864990234375</LongitudeDegrees>
            </Position>
            <AltitudeMeters>3185.39990234375</AltitudeMeters>
            <DistanceMeters>12460.997552597</DistanceMeters>
          </Trackpoint>
          <Trackpoint>
            <Time>2019-07-15T10:52:35.000Z</Time>
            <Position>
              <LatitudeDegrees>37.05344994552433490753173828125</LatitudeDegrees>
              <LongitudeDegrees>-3.3189863897860050201416015625</LongitudeDegrees>
            </Position>
            <AltitudeMeters>3185</AltitudeMeters>
            <DistanceMeters>12463.6395687</DistanceMeters>
          </Trackpoint>
          <Trackpoint>
            <Time>2019-07-15T10:52:36.000Z</Time>
            <Position>
              <LatitudeDegrees>37.05345212481915950775146484375</LatitudeDegrees>
              <LongitudeDegrees>-3.31901564262807369232177734375</LongitudeDegrees>
            </Position>
            <AltitudeMeters>3184.60009765625</AltitudeMeters>
            <DistanceMeters>12466.248912993</DistanceMeters>
          </Trackpoint>
          <Trackpoint>
            <Time>2019-07-15T10:52:37.000Z</Time>
            <Position>
              <LatitudeDegrees>37.0534620992839336395263671875</LatitudeDegrees>
              <LongitudeDegrees>-3.31904162652790546417236328125</LongitudeDegrees>
            </Position>
            <AltitudeMeters>3184.39990234375</AltitudeMeters>
            <DistanceMeters>12468.811112356</DistanceMeters>
          </Trackpoint>
          <Trackpoint>
            <Time>2019-07-15T10:52:38.000Z</Time>
            <Position>
              <LatitudeDegrees>37.0534701459109783172607421875</LatitudeDegrees>
              <LongitudeDegrees>-3.31906459294259548187255859375</LongitudeDegrees>
            </Position>
            <AltitudeMeters>3183.60009765625</AltitudeMeters>
            <DistanceMeters>12471.03968635</DistanceMeters>
          </Trackpoint>
          <Trackpoint>
            <Time>2019-07-15T10:52:39.000Z</Time>
            <Position>
              <LatitudeDegrees>37.05347073264420032501220703125</LatitudeDegrees>
              <LongitudeDegrees>-3.319089151918888092041015625</LongitudeDegrees>
            </Position>
            <AltitudeMeters>3182.39990234375</AltitudeMeters>
            <DistanceMeters>12473.223234005</DistanceMeters>
          </Trackpoint>
          <Trackpoint>
            <Time>2019-07-15T10:52:40.000Z</Time>
            <Position>
              <LatitudeDegrees>37.05347634851932525634765625</LatitudeDegrees>
              <LongitudeDegrees>-3.319112956523895263671875</LongitudeDegrees>
            </Position>
            <AltitudeMeters>3181.39990234375</AltitudeMeters>
            <DistanceMeters>12475.427362206</DistanceMeters>
          </Trackpoint>
          <Trackpoint>
            <Time>2019-07-15T10:52:41.000Z</Time>
            <Position>
              <LatitudeDegrees>37.053486406803131103515625</LatitudeDegrees>
              <LongitudeDegrees>-3.3191382698714733123779296875</LongitudeDegrees>
            </Position>
            <AltitudeMeters>3180.800048828125</AltitudeMeters>
            <DistanceMeters>12477.937938506</DistanceMeters>
          </Trackpoint>
          <Trackpoint>
            <Time>2019-07-15T10:52:42.000Z</Time>
            <Position>
              <LatitudeDegrees>37.0534983091056346893310546875</LatitudeDegrees>
              <LongitudeDegrees>-3.319162242114543914794921875</LongitudeDegrees>
            </Position>
            <AltitudeMeters>3180.39990234375</AltitudeMeters>
            <DistanceMeters>12480.444915411</DistanceMeters>
          </Trackpoint>
          <Trackpoint>
            <Time>2019-07-15T10:52:45.000Z</Time>
            <Position>
              <LatitudeDegrees>37.05354206264019012451171875</LatitudeDegrees>
              <LongitudeDegrees>-3.31921714358031749725341796875</LongitudeDegrees>
            </Position>
            <AltitudeMeters>3178.39990234375</AltitudeMeters>
            <DistanceMeters>12487.336809352</DistanceMeters>
          </Trackpoint>
          <Trackpoint>
            <Time>2019-07-15T10:52:46.000Z</Time>
            <Position>
              <LatitudeDegrees>37.05355337820947170257568359375</LatitudeDegrees>
              <LongitudeDegrees>-3.3192301355302333831787109375</LongitudeDegrees>
            </Position>
            <AltitudeMeters>3178.199951171875</AltitudeMeters>
            <DistanceMeters>12489.04464854</DistanceMeters>
          </Trackpoint>
          <Trackpoint>
            <Time>2019-07-15T10:52:47.000Z</Time>
            <Position>
              <LatitudeDegrees>37.05356578342616558074951171875</LatitudeDegrees>
              <LongitudeDegrees>-3.31924371421337127685546875</LongitudeDegrees>
            </Position>
            <AltitudeMeters>3178</AltitudeMeters>
            <DistanceMeters>12490.877457433</DistanceMeters>
          </Trackpoint>
          <Trackpoint>
            <Time>2019-07-15T10:52:48.000Z</Time>
            <Position>
              <LatitudeDegrees>37.05357818864285945892333984375</LatitudeDegrees>
              <LongitudeDegrees>-3.31925670616328716278076171875</LongitudeDegrees>
            </Position>
            <AltitudeMeters>3177.60009765625</AltitudeMeters>
            <DistanceMeters>12492.677956654</DistanceMeters>
          </Trackpoint>
          <Trackpoint>
            <Time>2019-07-15T10:52:49.000Z</Time>
            <Position>
              <LatitudeDegrees>37.0535895042121410369873046875</LatitudeDegrees>
              <LongitudeDegrees>-3.31926743499934673309326171875</LongitudeDegrees>
            </Position>
            <AltitudeMeters>3177.199951171875</AltitudeMeters>
            <DistanceMeters>12494.256659</DistanceMeters>
          </Trackpoint>
          <Trackpoint>
            <Time>2019-07-15T10:52:50.000Z</Time>
            <Position>
              <LatitudeDegrees>37.0536022447049617767333984375</LatitudeDegrees>
              <LongitudeDegrees>-3.31927615217864513397216796875</LongitudeDegrees>
            </Position>
            <AltitudeMeters>3177</AltitudeMeters>
            <DistanceMeters>12495.869315819</DistanceMeters>
          </Trackpoint>
          <Trackpoint>
            <Time>2019-07-15T10:52:51.000Z</Time>
            <Position>
              <LatitudeDegrees>37.053615488111972808837890625</LatitudeDegrees>
              <LongitudeDegrees>-3.31928553991019725799560546875</LongitudeDegrees>
            </Position>
            <AltitudeMeters>3176.800048828125</AltitudeMeters>
            <DistanceMeters>12497.563884882</DistanceMeters>
          </Trackpoint>
          <Trackpoint>
            <Time>2019-07-15T10:52:52.000Z</Time>
            <Position>
              <LatitudeDegrees>37.05362479202449321746826171875</LatitudeDegrees>
              <LongitudeDegrees>-3.31929735839366912841796875</LongitudeDegrees>
            </Position>
            <AltitudeMeters>3176.800048828125</AltitudeMeters>
            <DistanceMeters>12499.039096197</DistanceMeters>
          </Trackpoint>
          <Trackpoint>
            <Time>2019-07-15T10:52:53.000Z</Time>
            <Position>
              <LatitudeDegrees>37.05362848006188869476318359375</LatitudeDegrees>
              <LongitudeDegrees>-3.31931211054325103759765625</LongitudeDegrees>
            </Position>
            <AltitudeMeters>3176.60009765625</AltitudeMeters>
            <DistanceMeters>12500.41288147</DistanceMeters>
          </Trackpoint>
          <Trackpoint>
            <Time>2019-07-15T10:52:54.000Z</Time>
            <Position>
              <LatitudeDegrees>37.05363191664218902587890625</LatitudeDegrees>
              <LongitudeDegrees>-3.31932694651186466217041015625</LongitudeDegrees>
            </Position>
            <AltitudeMeters>3176.60009765625</AltitudeMeters>
            <DistanceMeters>12501.783376235</DistanceMeters>
          </Trackpoint>
          <Trackpoint>
            <Time>2019-07-15T10:52:55.000Z</Time>
            <Position>
              <LatitudeDegrees>37.0536379516124725341796875</LatitudeDegrees>
              <LongitudeDegrees>-3.31933817826211452484130859375</LongitudeDegrees>
            </Position>
            <AltitudeMeters>3176.39990234375</AltitudeMeters>
            <DistanceMeters>12502.985379658</DistanceMeters>
          </Trackpoint>
          <Trackpoint>
            <Time>2019-07-15T10:52:56.000Z</Time>
            <Position>
              <LatitudeDegrees>37.0536431483924388885498046875</LatitudeDegrees>
              <LongitudeDegrees>-3.3193501643836498260498046875</LongitudeDegrees>
            </Position>
            <AltitudeMeters>3175.800048828125</AltitudeMeters>
            <DistanceMeters>12504.194872273</DistanceMeters>
          </Trackpoint>
          <Trackpoint>
            <Time>2019-07-15T10:52:57.000Z</Time>
            <Position>
              <LatitudeDegrees>37.05365111120045185089111328125</LatitudeDegrees>
              <LongitudeDegrees>-3.31935795955359935760498046875</LongitudeDegrees>
            </Position>
            <AltitudeMeters>3175.39990234375</AltitudeMeters>
            <DistanceMeters>12505.31924352</DistanceMeters>
          </Trackpoint>
          <Trackpoint>
            <Time>2019-07-15T10:52:58.000Z</Time>
            <Position>
              <LatitudeDegrees>37.0536605827510356903076171875</LatitudeDegrees>
              <LongitudeDegrees>-3.31936365924775600433349609375</LongitudeDegrees>
            </Position>
            <AltitudeMeters>3175.39990234375</AltitudeMeters>
            <DistanceMeters>12506.490811538</DistanceMeters>
          </Trackpoint>
          <Trackpoint>
            <Time>2019-07-15T10:52:59.000Z</Time>
            <Position>
              <LatitudeDegrees>37.05367122776806354522705078125</LatitudeDegrees>
              <LongitudeDegrees>-3.3193712867796421051025390625</LongitudeDegrees>
            </Position>
            <AltitudeMeters>3175.39990234375</AltitudeMeters>
            <DistanceMeters>12507.858007875</DistanceMeters>
          </Trackpoint>
          <Trackpoint>
            <Time>2019-07-15T10:53:00.000Z</Time>
            <Position>
              <LatitudeDegrees>37.0536820404231548309326171875</LatitudeDegrees>
              <LongitudeDegrees>-3.31937958486378192901611328125</LongitudeDegrees>
            </Position>
            <AltitudeMeters>3175.199951171875</AltitudeMeters>
            <DistanceMeters>12509.267481825</DistanceMeters>
          </Trackpoint>
          <Trackpoint>
            <Time>2019-07-15T10:53:01.000Z</Time>
            <Position>
              <LatitudeDegrees>37.0536900870501995086669921875</LatitudeDegrees>
              <LongitudeDegrees>-3.3193897269666194915771484375</LongitudeDegrees>
            </Position>
            <AltitudeMeters>3174.800048828125</AltitudeMeters>
            <DistanceMeters>12510.535296326</DistanceMeters>
          </Trackpoint>
          <Trackpoint>
            <Time>2019-07-15T10:53:02.000Z</Time>
            <Position>
              <LatitudeDegrees>37.0536984689533710479736328125</LatitudeDegrees>
              <LongitudeDegrees>-3.3193997852504253387451171875</LongitudeDegrees>
            </Position>
            <AltitudeMeters>3174.39990234375</AltitudeMeters>
            <DistanceMeters>12511.827799379</DistanceMeters>
          </Trackpoint>
          <Trackpoint>
            <Time>2019-07-15T10:53:12.000Z</Time>
            <Position>
              <LatitudeDegrees>37.05374850891530513763427734375</LatitudeDegrees>
              <LongitudeDegrees>-3.319504223763942718505859375</LongitudeDegrees>
            </Position>
            <AltitudeMeters>3171.199951171875</AltitudeMeters>
            <DistanceMeters>12522.648334078</DistanceMeters>
          </Trackpoint>
          <Trackpoint>
            <Time>2019-07-15T10:53:29.000Z</Time>
            <Position>
              <LatitudeDegrees>37.05379645340144634246826171875</LatitudeDegrees>
              <LongitudeDegrees>-3.319574631750583648681640625</LongitudeDegrees>
            </Position>
            <AltitudeMeters>3169</AltitudeMeters>
            <DistanceMeters>12530.869655272</DistanceMeters>
          </Trackpoint>
          <Trackpoint>
            <Time>2019-07-15T10:53:32.000Z</Time>
            <Position>
              <LatitudeDegrees>37.05381204374134540557861328125</LatitudeDegrees>
              <LongitudeDegrees>-3.31960304640233516693115234375</LongitudeDegrees>
            </Position>
            <AltitudeMeters>3170</AltitudeMeters>
            <DistanceMeters>12533.934174729</DistanceMeters>
          </Trackpoint>
          <Trackpoint>
            <Time>2019-07-15T10:53:43.000Z</Time>
            <Position>
              <LatitudeDegrees>37.05387356691062450408935546875</LatitudeDegrees>
              <LongitudeDegrees>-3.31972693093121051788330078125</LongitudeDegrees>
            </Position>
            <AltitudeMeters>3168.60009765625</AltitudeMeters>
            <DistanceMeters>12546.89548416</DistanceMeters>
          </Trackpoint>
          <Trackpoint>
            <Time>2019-07-15T10:53:44.000Z</Time>
            <Position>
              <LatitudeDegrees>37.0538754947483539581298828125</LatitudeDegrees>
              <LongitudeDegrees>-3.3197407610714435577392578125</LongitudeDegrees>
            </Position>
            <AltitudeMeters>3168.199951171875</AltitudeMeters>
            <DistanceMeters>12548.141747835</DistanceMeters>
          </Trackpoint>
          <Trackpoint>
            <Time>2019-07-15T10:53:45.000Z</Time>
            <Position>
              <LatitudeDegrees>37.05387742258608341217041015625</LatitudeDegrees>
              <LongitudeDegrees>-3.3197568543255329132080078125</LongitudeDegrees>
            </Position>
            <AltitudeMeters>3167.39990234375</AltitudeMeters>
            <DistanceMeters>12549.589151626</DistanceMeters>
          </Trackpoint>
          <Trackpoint>
            <Time>2019-07-15T10:53:46.000Z</Time>
            <Position>
              <LatitudeDegrees>37.05388161353766918182373046875</LatitudeDegrees>
              <LongitudeDegrees>-3.31977169029414653778076171875</LongitudeDegrees>
            </Position>
            <AltitudeMeters>3166.800048828125</AltitudeMeters>
            <DistanceMeters>12550.985753399</DistanceMeters>
          </Trackpoint>
          <Trackpoint>
            <Time>2019-07-15T10:53:47.000Z</Time>
            <Position>
              <LatitudeDegrees>37.05388496629893779754638671875</LatitudeDegrees>
              <LongitudeDegrees>-3.319785185158252716064453125</LongitudeDegrees>
            </Position>
            <AltitudeMeters>3166.39990234375</AltitudeMeters>
            <DistanceMeters>12552.239241852</DistanceMeters>
          </Trackpoint>
          <Trackpoint>
            <Time>2019-07-15T10:53:48.000Z</Time>
            <Position>
              <LatitudeDegrees>37.0538865588605403900146484375</LatitudeDegrees>
              <LongitudeDegrees>-3.31980069167912006378173828125</LongitudeDegrees>
            </Position>
            <AltitudeMeters>3166.39990234375</AltitudeMeters>
            <DistanceMeters>12553.622851698</DistanceMeters>
          </Trackpoint>
          <Trackpoint>
            <Time>2019-07-15T10:53:49.000Z</Time>
            <Position>
              <LatitudeDegrees>37.05389569513499736785888671875</LatitudeDegrees>
              <LongitudeDegrees>-3.319812007248401641845703125</LongitudeDegrees>
            </Position>
            <AltitudeMeters>3166.199951171875</AltitudeMeters>
            <DistanceMeters>12555.051416459</DistanceMeters>
          </Trackpoint>
          <Trackpoint>
            <Time>2019-07-15T10:53:50.000Z</Time>
            <Position>
              <LatitudeDegrees>37.0539034903049468994140625</LatitudeDegrees>
              <LongitudeDegrees>-3.3198235742747783660888671875</LongitudeDegrees>
            </Position>
            <AltitudeMeters>3166.199951171875</AltitudeMeters>
            <DistanceMeters>12556.395297142</DistanceMeters>
          </Trackpoint>
          <Trackpoint>
            <Time>2019-07-15T10:53:51.000Z</Time>
            <Position>
              <LatitudeDegrees>37.05391027964651584625244140625</LatitudeDegrees>
              <LongitudeDegrees>-3.319837152957916259765625</LongitudeDegrees>
            </Position>
            <AltitudeMeters>3166</AltitudeMeters>
            <DistanceMeters>12557.817526773</DistanceMeters>
          </Trackpoint>
          <Trackpoint>
            <Time>2019-07-15T10:53:53.000Z</Time>
            <Position>
              <LatitudeDegrees>37.05391698516905307769775390625</LatitudeDegrees>
              <LongitudeDegrees>-3.319857604801654815673828125</LongitudeDegrees>
            </Position>
            <AltitudeMeters>3165.800048828125</AltitudeMeters>
            <DistanceMeters>12559.783454726</DistanceMeters>
          </Trackpoint>
          <Trackpoint>
            <Time>2019-07-15T10:53:57.000Z</Time>
            <Position>
              <LatitudeDegrees>37.05392151139676570892333984375</LatitudeDegrees>
              <LongitudeDegrees>-3.3198956586420536041259765625</LongitudeDegrees>
            </Position>
            <AltitudeMeters>3164.60009765625</AltitudeMeters>
            <DistanceMeters>12563.201775793</DistanceMeters>
          </Trackpoint>
          <Trackpoint>
            <Time>2019-07-15T10:53:58.000Z</Time>
            <Position>
              <LatitudeDegrees>37.053923942148685455322265625</LatitudeDegrees>
              <LongitudeDegrees>-3.31990798003971576690673828125</LongitudeDegrees>
            </Position>
            <AltitudeMeters>3164.199951171875</AltitudeMeters>
            <DistanceMeters>12564.326147041</DistanceMeters>
          </Trackpoint>
          <Trackpoint>
            <Time>2019-07-15T10:54:01.000Z</Time>
            <Position>
              <LatitudeDegrees>37.05393458716571331024169921875</LatitudeDegrees>
              <LongitudeDegrees>-3.319949470460414886474609375</LongitudeDegrees>
            </Position>
            <AltitudeMeters>3162.800048828125</AltitudeMeters>
            <DistanceMeters>12568.195496695</DistanceMeters>
          </Trackpoint>
          <Trackpoint>
            <Time>2019-07-15T10:54:02.000Z</Time>
            <Position>
              <LatitudeDegrees>37.0539395324885845184326171875</LatitudeDegrees>
              <LongitudeDegrees>-3.319961540400981903076171875</LongitudeDegrees>
            </Position>
            <AltitudeMeters>3162.39990234375</AltitudeMeters>
            <DistanceMeters>12569.397500119</DistanceMeters>
          </Trackpoint>
          <Trackpoint>
            <Time>2019-07-15T10:54:08.000Z</Time>
            <Position>
              <LatitudeDegrees>37.05399208702147006988525390625</LatitudeDegrees>
              <LongitudeDegrees>-3.32002650015056133270263671875</LongitudeDegrees>
            </Position>
            <AltitudeMeters>3161.39990234375</AltitudeMeters>
            <DistanceMeters>12577.613877148</DistanceMeters>
          </Trackpoint>
          <Trackpoint>
            <Time>2019-07-15T10:54:17.000Z</Time>
            <Position>
              <LatitudeDegrees>37.05404388718307018280029296875</LatitudeDegrees>
              <LongitudeDegrees>-3.32011702470481395721435546875</LongitudeDegrees>
            </Position>
            <AltitudeMeters>3159.39990234375</AltitudeMeters>
            <DistanceMeters>12587.507613988</DistanceMeters>
          </Trackpoint>
          <Trackpoint>
            <Time>2019-07-15T10:54:18.000Z</Time>
            <Position>
              <LatitudeDegrees>37.054044641554355621337890625</LatitudeDegrees>
              <LongitudeDegrees>-3.3201296813786029815673828125</LongitudeDegrees>
            </Position>
            <AltitudeMeters>3159.199951171875</AltitudeMeters>
            <DistanceMeters>12588.631985235</DistanceMeters>
          </Trackpoint>
          <Trackpoint>
            <Time>2019-07-15T10:54:19.000Z</Time>
            <Position>
              <LatitudeDegrees>37.054047323763370513916015625</LatitudeDegrees>
              <LongitudeDegrees>-3.32014149986207485198974609375</LongitudeDegrees>
            </Position>
            <AltitudeMeters>3158.60009765625</AltitudeMeters>
            <DistanceMeters>12589.723759063</DistanceMeters>
          </Trackpoint>
          <Trackpoint>
            <Time>2019-07-15T10:54:20.000Z</Time>
            <Position>
              <LatitudeDegrees>37.054052017629146575927734375</LatitudeDegrees>
              <LongitudeDegrees>-3.320153318345546722412109375</LongitudeDegrees>
            </Position>
            <AltitudeMeters>3158.199951171875</AltitudeMeters>
            <DistanceMeters>12590.89532708</DistanceMeters>
          </Trackpoint>
          <Trackpoint>
            <Time>2019-07-15T10:54:21.000Z</Time>
            <Position>
              <LatitudeDegrees>37.05405780114233493804931640625</LatitudeDegrees>
              <LongitudeDegrees>-3.32016329281032085418701171875</LongitudeDegrees>
            </Position>
            <AltitudeMeters>3157.800048828125</AltitudeMeters>
            <DistanceMeters>12591.987100908</DistanceMeters>
          </Trackpoint>
          <Trackpoint>
            <Time>2019-07-15T10:54:22.000Z</Time>
            <Position>
              <LatitudeDegrees>37.05406182445585727691650390625</LatitudeDegrees>
              <LongitudeDegrees>-3.32017402164638042449951171875</LongitudeDegrees>
            </Position>
            <AltitudeMeters>3157.60009765625</AltitudeMeters>
            <DistanceMeters>12593.040998153</DistanceMeters>
          </Trackpoint>
          <Trackpoint>
            <Time>2019-07-15T10:54:23.000Z</Time>
            <Position>
              <LatitudeDegrees>37.0540669374167919158935546875</LatitudeDegrees>
              <LongitudeDegrees>-3.32018407993018627166748046875</LongitudeDegrees>
            </Position>
            <AltitudeMeters>3157.39990234375</AltitudeMeters>
            <DistanceMeters>12594.09917086</DistanceMeters>
          </Trackpoint>
          <Trackpoint>
            <Time>2019-07-15T10:54:24.000Z</Time>
            <Position>
              <LatitudeDegrees>37.05407288856804370880126953125</LatitudeDegrees>
              <LongitudeDegrees>-3.320193551480770111083984375</LongitudeDegrees>
            </Position>
            <AltitudeMeters>3157</AltitudeMeters>
            <DistanceMeters>12595.165843084</DistanceMeters>
          </Trackpoint>
          <Trackpoint>
            <Time>2019-07-15T10:54:25.000Z</Time>
            <Position>
              <LatitudeDegrees>37.05407875590026378631591796875</LatitudeDegrees>
              <LongitudeDegrees>-3.32020453177392482757568359375</LongitudeDegrees>
            </Position>
            <AltitudeMeters>3156.60009765625</AltitudeMeters>
            <DistanceMeters>12596.337411101</DistanceMeters>
          </Trackpoint>
          <Trackpoint>
            <Time>2019-07-15T10:54:26.000Z</Time>
            <Position>
              <LatitudeDegrees>37.0540840364992618560791015625</LatitudeDegrees>
              <LongitudeDegrees>-3.3202148415148258209228515625</LongitudeDegrees>
            </Position>
            <AltitudeMeters>3156.39990234375</AltitudeMeters>
            <DistanceMeters>12597.42504156</DistanceMeters>
          </Trackpoint>
          <Trackpoint>
            <Time>2019-07-15T10:54:27.000Z</Time>
            <Position>
              <LatitudeDegrees>37.05408730544149875640869140625</LatitudeDegrees>
              <LongitudeDegrees>-3.32022615708410739898681640625</LongitudeDegrees>
            </Position>
            <AltitudeMeters>3156.199951171875</AltitudeMeters>
            <DistanceMeters>12598.495938244</DistanceMeters>
          </Trackpoint>
          <Trackpoint>
            <Time>2019-07-15T10:54:28.000Z</Time>
            <Position>
              <LatitudeDegrees>37.0540914125740528106689453125</LatitudeDegrees>
              <LongitudeDegrees>-3.320239149034023284912109375</LongitudeDegrees>
            </Position>
            <AltitudeMeters>3155.800048828125</AltitudeMeters>
            <DistanceMeters>12599.738573778</DistanceMeters>
          </Trackpoint>
          <Trackpoint>
            <Time>2019-07-15T10:54:29.000Z</Time>
            <Position>
              <LatitudeDegrees>37.05409769900143146514892578125</LatitudeDegrees>
              <LongitudeDegrees>-3.32025096751749515533447265625</LongitudeDegrees>
            </Position>
            <AltitudeMeters>3155.39990234375</AltitudeMeters>
            <DistanceMeters>12600.999245605</DistanceMeters>
          </Trackpoint>
          <Trackpoint>
            <Time>2019-07-15T10:54:30.000Z</Time>
            <Position>
              <LatitudeDegrees>37.0541054941713809967041015625</LatitudeDegrees>
              <LongitudeDegrees>-3.3202631212770938873291015625</LongitudeDegrees>
            </Position>
            <AltitudeMeters>3155.199951171875</AltitudeMeters>
            <DistanceMeters>12602.382855451</DistanceMeters>
          </Trackpoint>
          <Trackpoint>
            <Time>2019-07-15T10:54:45.000Z</Time>
            <Position>
              <LatitudeDegrees>37.05423767678439617156982421875</LatitudeDegrees>
              <LongitudeDegrees>-3.3204160071909427642822265625</LongitudeDegrees>
            </Position>
            <AltitudeMeters>3153.39990234375</AltitudeMeters>
            <DistanceMeters>12622.404873672</DistanceMeters>
          </Trackpoint>
          <Trackpoint>
            <Time>2019-07-15T10:54:46.000Z</Time>
            <Position>
              <LatitudeDegrees>37.0542489923536777496337890625</LatitudeDegrees>
              <LongitudeDegrees>-3.32042547874152660369873046875</LongitudeDegrees>
            </Position>
            <AltitudeMeters>3153</AltitudeMeters>
            <DistanceMeters>12623.919350287</DistanceMeters>
          </Trackpoint>
          <Trackpoint>
            <Time>2019-07-15T10:54:48.000Z</Time>
            <Position>
              <LatitudeDegrees>37.0542674325406551361083984375</LatitudeDegrees>
              <LongitudeDegrees>-3.320437967777252197265625</LongitudeDegrees>
            </Position>
            <AltitudeMeters>3152.39990234375</AltitudeMeters>
            <DistanceMeters>12626.25089613</DistanceMeters>
          </Trackpoint>
          <Trackpoint>
            <Time>2019-07-15T10:54:51.000Z</Time>
            <Position>
              <LatitudeDegrees>37.05428411252796649932861328125</LatitudeDegrees>
              <LongitudeDegrees>-3.320460431277751922607421875</LongitudeDegrees>
            </Position>
            <AltitudeMeters>3152</AltitudeMeters>
            <DistanceMeters>12628.977020286</DistanceMeters>
          </Trackpoint>
          <Trackpoint>
            <Time>2019-07-15T10:54:52.000Z</Time>
            <Position>
              <LatitudeDegrees>37.0542922429740428924560546875</LatitudeDegrees>
              <LongitudeDegrees>-3.32047174684703350067138671875</LongitudeDegrees>
            </Position>
            <AltitudeMeters>3152</AltitudeMeters>
            <DistanceMeters>12630.334273245</DistanceMeters>
          </Trackpoint>
          <Trackpoint>
            <Time>2019-07-15T10:54:56.000Z</Time>
            <Position>
              <LatitudeDegrees>37.05430573783814907073974609375</LatitudeDegrees>
              <LongitudeDegrees>-3.3205118961632251739501953125</LongitudeDegrees>
            </Position>
            <AltitudeMeters>3151.39990234375</AltitudeMeters>
            <DistanceMeters>12634.203622899</DistanceMeters>
          </Trackpoint>
          <Trackpoint>
            <Time>2019-07-15T10:55:00.000Z</Time>
            <Position>
              <LatitudeDegrees>37.054320909082889556884765625</LatitudeDegrees>
              <LongitudeDegrees>-3.32054869271814823150634765625</LongitudeDegrees>
            </Position>
            <AltitudeMeters>3149.60009765625</AltitudeMeters>
            <DistanceMeters>12637.882764727</DistanceMeters>
          </Trackpoint>
          <Trackpoint>
            <Time>2019-07-15T10:55:05.000Z</Time>
            <Position>
              <LatitudeDegrees>37.05435351468622684478759765625</LatitudeDegrees>
              <LongitudeDegrees>-3.32060351036489009857177734375</LongitudeDegrees>
            </Position>
            <AltitudeMeters>3148.60009765625</AltitudeMeters>
            <DistanceMeters>12643.955559158</DistanceMeters>
          </Trackpoint>
          <Trackpoint>
            <Time>2019-07-15T10:55:06.000Z</Time>
            <Position>
              <LatitudeDegrees>37.05436223186552524566650390625</LatitudeDegrees>
              <LongitudeDegrees>-3.32061239518225193023681640625</LongitudeDegrees>
            </Position>
            <AltitudeMeters>3148.199951171875</AltitudeMeters>
            <DistanceMeters>12645.205440442</DistanceMeters>
          </Trackpoint>
          <Trackpoint>
            <Time>2019-07-15T10:55:07.000Z</Time>
            <Position>
              <LatitudeDegrees>37.0543706975877285003662109375</LatitudeDegrees>
              <LongitudeDegrees>-3.32062245346605777740478515625</LongitudeDegrees>
            </Position>
            <AltitudeMeters>3148</AltitudeMeters>
            <DistanceMeters>12646.504911217</DistanceMeters>
          </Trackpoint>
          <Trackpoint>
            <Time>2019-07-15T10:55:15.000Z</Time>
            <Position>
              <LatitudeDegrees>37.05446935258805751800537109375</LatitudeDegrees>
              <LongitudeDegrees>-3.32067190669476985931396484375</LongitudeDegrees>
            </Position>
            <AltitudeMeters>3147.199951171875</AltitudeMeters>
            <DistanceMeters>12658.331824767</DistanceMeters>
          </Trackpoint>
          <Trackpoint>
            <Time>2019-07-15T10:55:16.000Z</Time>
            <Position>
              <LatitudeDegrees>37.0544813387095928192138671875</LatitudeDegrees>
              <LongitudeDegrees>-3.32067509181797504425048828125</LongitudeDegrees>
            </Position>
            <AltitudeMeters>3147</AltitudeMeters>
            <DistanceMeters>12659.695714699</DistanceMeters>
          </Trackpoint>
          <Trackpoint>
            <Time>2019-07-15T10:55:17.000Z</Time>
            <Position>
              <LatitudeDegrees>37.0544967614114284515380859375</LatitudeDegrees>
              <LongitudeDegrees>-3.32067559473216533660888671875</LongitudeDegrees>
            </Position>
            <AltitudeMeters>3146.800048828125</AltitudeMeters>
            <DistanceMeters>12661.411466698</DistanceMeters>
          </Trackpoint>
          <Trackpoint>
            <Time>2019-07-15T10:55:18.000Z</Time>
            <Position>
              <LatitudeDegrees>37.05451427958905696868896484375</LatitudeDegrees>
              <LongitudeDegrees>-3.3206785283982753753662109375</LongitudeDegrees>
            </Position>
            <AltitudeMeters>3146.60009765625</AltitudeMeters>
            <DistanceMeters>12663.381982587</DistanceMeters>
          </Trackpoint>
          <Trackpoint>
            <Time>2019-07-15T10:55:19.000Z</Time>
            <Position>
              <LatitudeDegrees>37.05452752299606800079345703125</LatitudeDegrees>
              <LongitudeDegrees>-3.32068230025470256805419921875</LongitudeDegrees>
            </Position>
            <AltitudeMeters>3146.39990234375</AltitudeMeters>
            <DistanceMeters>12664.893475009</DistanceMeters>
          </Trackpoint>
          <Trackpoint>
            <Time>2019-07-15T10:55:20.000Z</Time>
            <Position>
              <LatitudeDegrees>37.05454160459339618682861328125</LatitudeDegrees>
              <LongitudeDegrees>-3.32068406045436859130859375</LongitudeDegrees>
            </Position>
            <AltitudeMeters>3146.199951171875</AltitudeMeters>
            <DistanceMeters>12666.469314792</DistanceMeters>
          </Trackpoint>
          <Trackpoint>
            <Time>2019-07-15T10:55:25.000Z</Time>
            <Position>
              <LatitudeDegrees>37.0545886270701885223388671875</LatitudeDegrees>
              <LongitudeDegrees>-3.3207076974213123321533203125</LongitudeDegrees>
            </Position>
            <AltitudeMeters>3147.199951171875</AltitudeMeters>
            <DistanceMeters>12672.108812042</DistanceMeters>
          </Trackpoint>
          <Trackpoint>
            <Time>2019-07-15T10:55:30.000Z</Time>
            <Position>
              <LatitudeDegrees>37.054634727537631988525390625</LatitudeDegrees>
              <LongitudeDegrees>-3.32065849564969539642333984375</LongitudeDegrees>
            </Position>
            <AltitudeMeters>3146.800048828125</AltitudeMeters>
            <DistanceMeters>12678.848343518</DistanceMeters>
          </Trackpoint>
          <Trackpoint>
            <Time>2019-07-15T10:55:35.000Z</Time>
            <Position>
              <LatitudeDegrees>37.05466314218938350677490234375</LatitudeDegrees>
              <LongitudeDegrees>-3.32060853950679302215576171875</LongitudeDegrees>
            </Position>
            <AltitudeMeters>3146.800048828125</AltitudeMeters>
            <DistanceMeters>12684.2972784</DistanceMeters>
          </Trackpoint>
          <Trackpoint>
            <Time>2019-07-15T10:55:36.000Z</Time>
            <Position>
              <LatitudeDegrees>37.05465995706617832183837890625</LatitudeDegrees>
              <LongitudeDegrees>-3.32059445790946483612060546875</LongitudeDegrees>
            </Position>
            <AltitudeMeters>3146.800048828125</AltitudeMeters>
            <DistanceMeters>12685.593269997</DistanceMeters>
          </Trackpoint>
          <Trackpoint>
            <Time>2019-07-15T10:55:57.000Z</Time>
            <Position>
              <LatitudeDegrees>37.05467722378671169281005859375</LatitudeDegrees>
              <LongitudeDegrees>-3.320528157055377960205078125</LongitudeDegrees>
            </Position>
            <AltitudeMeters>3146</AltitudeMeters>
            <DistanceMeters>12691.788253845</DistanceMeters>
          </Trackpoint>
          <Trackpoint>
            <Time>2019-07-15T10:56:09.000Z</Time>
            <Position>
              <LatitudeDegrees>37.05467353574931621551513671875</LatitudeDegrees>
              <LongitudeDegrees>-3.3204844035208225250244140625</LongitudeDegrees>
            </Position>
            <AltitudeMeters>3145.39990234375</AltitudeMeters>
            <DistanceMeters>12695.697075835</DistanceMeters>
          </Trackpoint>
          <Trackpoint>
            <Time>2019-07-15T10:56:46.000Z</Time>
            <Position>
              <LatitudeDegrees>37.05466750077903270721435546875</LatitudeDegrees>
              <LongitudeDegrees>-3.32049337215721607208251953125</LongitudeDegrees>
            </Position>
            <AltitudeMeters>3146.39990234375</AltitudeMeters>
            <DistanceMeters>12696.738041335</DistanceMeters>
          </Trackpoint>
          <Trackpoint>
            <Time>2019-07-15T10:57:15.000Z</Time>
            <Position>
              <LatitudeDegrees>37.054685018956661224365234375</LatitudeDegrees>
              <LongitudeDegrees>-3.32050628028810024261474609375</LongitudeDegrees>
            </Position>
            <AltitudeMeters>3145.199951171875</AltitudeMeters>
            <DistanceMeters>12699.000794822</DistanceMeters>
          </Trackpoint>
          <Trackpoint>
            <Time>2019-07-15T10:59:23.000Z</Time>
            <Position>
              <LatitudeDegrees>37.05467320047318935394287109375</LatitudeDegrees>
              <LongitudeDegrees>-3.320463784039020538330078125</LongitudeDegrees>
            </Position>
            <AltitudeMeters>3147.39990234375</AltitudeMeters>
            <DistanceMeters>12702.997569175</DistanceMeters>
          </Trackpoint>
          <Trackpoint>
            <Time>2019-07-15T10:59:44.000Z</Time>
            <Position>
              <LatitudeDegrees>37.054596841335296630859375</LatitudeDegrees>
              <LongitudeDegrees>-3.320555649697780609130859375</LongitudeDegrees>
            </Position>
            <AltitudeMeters>3148</AltitudeMeters>
            <DistanceMeters>12714.779348969</DistanceMeters>
          </Trackpoint>
          <Trackpoint>
            <Time>2019-07-15T10:59:53.000Z</Time>
            <Position>
              <LatitudeDegrees>37.0545269362628459930419921875</LatitudeDegrees>
              <LongitudeDegrees>-3.320634104311466217041015625</LongitudeDegrees>
            </Position>
            <AltitudeMeters>3147</AltitudeMeters>
            <DistanceMeters>12725.224509743</DistanceMeters>
          </Trackpoint>
          <Trackpoint>
            <Time>2019-07-15T10:59:54.000Z</Time>
            <Position>
              <LatitudeDegrees>37.05451763235032558441162109375</LatitudeDegrees>
              <LongitudeDegrees>-3.32063787616789340972900390625</LongitudeDegrees>
            </Position>
            <AltitudeMeters>3147</AltitudeMeters>
            <DistanceMeters>12726.31628357</DistanceMeters>
          </Trackpoint>
          <Trackpoint>
            <Time>2019-07-15T10:59:55.000Z</Time>
            <Position>
              <LatitudeDegrees>37.05450765788555145263671875</LatitudeDegrees>
              <LongitudeDegrees>-3.32064516842365264892578125</LongitudeDegrees>
            </Position>
            <AltitudeMeters>3146.60009765625</AltitudeMeters>
            <DistanceMeters>12727.601781135</DistanceMeters>
          </Trackpoint>
          <Trackpoint>
            <Time>2019-07-15T10:59:56.000Z</Time>
            <Position>
              <LatitudeDegrees>37.05450036562979221343994140625</LatitudeDegrees>
              <LongitudeDegrees>-3.3206533826887607574462890625</LongitudeDegrees>
            </Position>
            <AltitudeMeters>3146.39990234375</AltitudeMeters>
            <DistanceMeters>12728.693554963</DistanceMeters>
          </Trackpoint>
          <Trackpoint>
            <Time>2019-07-15T10:59:57.000Z</Time>
            <Position>
              <LatitudeDegrees>37.05449181608855724334716796875</LatitudeDegrees>
              <LongitudeDegrees>-3.3206587471067905426025390625</LongitudeDegrees>
            </Position>
            <AltitudeMeters>3146.199951171875</AltitudeMeters>
            <DistanceMeters>12729.755985928</DistanceMeters>
          </Trackpoint>
          <Trackpoint>
            <Time>2019-07-15T11:00:06.000Z</Time>
            <Position>
              <LatitudeDegrees>37.05441570840775966644287109375</LatitudeDegrees>
              <LongitudeDegrees>-3.3207209408283233642578125</LongitudeDegrees>
            </Position>
            <AltitudeMeters>3144.39990234375</AltitudeMeters>
            <DistanceMeters>12739.868632254</DistanceMeters>
          </Trackpoint>
          <Trackpoint>
            <Time>2019-07-15T11:00:07.000Z</Time>
            <Position>
              <LatitudeDegrees>37.0544129423797130584716796875</LatitudeDegrees>
              <LongitudeDegrees>-3.320736698806285858154296875</LongitudeDegrees>
            </Position>
            <AltitudeMeters>3144.199951171875</AltitudeMeters>
            <DistanceMeters>12741.303504175</DistanceMeters>
          </Trackpoint>
          <Trackpoint>
            <Time>2019-07-15T11:00:08.000Z</Time>
            <Position>
              <LatitudeDegrees>37.05441621132194995880126953125</LatitudeDegrees>
              <LongitudeDegrees>-3.32075270824134349822998046875</LongitudeDegrees>
            </Position>
            <AltitudeMeters>3144</AltitudeMeters>
            <DistanceMeters>12742.769504923</DistanceMeters>
          </Trackpoint>
          <Trackpoint>
            <Time>2019-07-15T11:00:22.000Z</Time>
            <Position>
              <LatitudeDegrees>37.05442492850124835968017578125</LatitudeDegrees>
              <LongitudeDegrees>-3.3208897523581981658935546875</LongitudeDegrees>
            </Position>
            <AltitudeMeters>3141</AltitudeMeters>
            <DistanceMeters>12754.981084772</DistanceMeters>
          </Trackpoint>
          <Trackpoint>
            <Time>2019-07-15T11:00:24.000Z</Time>
            <Position>
              <LatitudeDegrees>37.05441621132194995880126953125</LatitudeDegrees>
              <LongitudeDegrees>-3.32091179676353931427001953125</LongitudeDegrees>
            </Position>
            <AltitudeMeters>3140.39990234375</AltitudeMeters>
            <DistanceMeters>12757.164632427</DistanceMeters>
          </Trackpoint>
          <Trackpoint>
            <Time>2019-07-15T11:00:25.000Z</Time>
            <Position>
              <LatitudeDegrees>37.05441704951226711273193359375</LatitudeDegrees>
              <LongitudeDegrees>-3.3209229446947574615478515625</LongitudeDegrees>
            </Position>
            <AltitudeMeters>3140</AltitudeMeters>
            <DistanceMeters>12758.156740452</DistanceMeters>
          </Trackpoint>
          <Trackpoint>
            <Time>2019-07-15T11:00:32.000Z</Time>
            <Position>
              <LatitudeDegrees>37.05440975725650787353515625</LatitudeDegrees>
              <LongitudeDegrees>-3.32099930383265018463134765625</LongitudeDegrees>
            </Position>
            <AltitudeMeters>3138.60009765625</AltitudeMeters>
            <DistanceMeters>12764.988097203</DistanceMeters>
          </Trackpoint>
          <Trackpoint>
            <Time>2019-07-15T11:00:33.000Z</Time>
            <Position>
              <LatitudeDegrees>37.0544132776558399200439453125</LatitudeDegrees>
              <LongitudeDegrees>-3.32101221196353435516357421875</LongitudeDegrees>
            </Position>
            <AltitudeMeters>3138.199951171875</AltitudeMeters>
            <DistanceMeters>12766.201317076</DistanceMeters>
          </Trackpoint>
          <Trackpoint>
            <Time>2019-07-15T11:00:38.000Z</Time>
            <Position>
              <LatitudeDegrees>37.0544273592531681060791015625</LatitudeDegrees>
              <LongitudeDegrees>-3.32105864770710468292236328125</LongitudeDegrees>
            </Position>
            <AltitudeMeters>3137</AltitudeMeters>
            <DistanceMeters>12770.613668469</DistanceMeters>
          </Trackpoint>
          <Trackpoint>
            <Time>2019-07-15T11:00:47.000Z</Time>
            <Position>
              <LatitudeDegrees>37.0544578693807125091552734375</LatitudeDegrees>
              <LongitudeDegrees>-3.32114405930042266845703125</LongitudeDegrees>
            </Position>
            <AltitudeMeters>3135.60009765625</AltitudeMeters>
            <DistanceMeters>12778.925654686</DistanceMeters>
          </Trackpoint>
          <Trackpoint>
            <Time>2019-07-15T11:00:48.000Z</Time>
            <Position>
              <LatitudeDegrees>37.054466418921947479248046875</LatitudeDegrees>
              <LongitudeDegrees>-3.32115671597421169281005859375</LongitudeDegrees>
            </Position>
            <AltitudeMeters>3135.39990234375</AltitudeMeters>
            <DistanceMeters>12780.397802214</DistanceMeters>
          </Trackpoint>
          <Trackpoint>
            <Time>2019-07-15T11:00:49.000Z</Time>
            <Position>
              <LatitudeDegrees>37.05447320826351642608642578125</LatitudeDegrees>
              <LongitudeDegrees>-3.3211661875247955322265625</LongitudeDegrees>
            </Position>
            <AltitudeMeters>3135.199951171875</AltitudeMeters>
            <DistanceMeters>12781.522173462</DistanceMeters>
          </Trackpoint>
          <Trackpoint>
            <Time>2019-07-15T11:01:09.000Z</Time>
            <Position>
              <LatitudeDegrees>37.0545591227710247039794921875</LatitudeDegrees>
              <LongitudeDegrees>-3.3213541097939014434814453125</LongitudeDegrees>
            </Position>
            <AltitudeMeters>3132.199951171875</AltitudeMeters>
            <DistanceMeters>12800.759392409</DistanceMeters>
          </Trackpoint>
          <Trackpoint>
            <Time>2019-07-15T11:01:28.000Z</Time>
            <Position>
              <LatitudeDegrees>37.0546234957873821258544921875</LatitudeDegrees>
              <LongitudeDegrees>-3.32154194824397563934326171875</LongitudeDegrees>
            </Position>
            <AltitudeMeters>3129</AltitudeMeters>
            <DistanceMeters>12818.917702112</DistanceMeters>
          </Trackpoint>
          <Trackpoint>
            <Time>2019-07-15T11:01:38.000Z</Time>
            <Position>
              <LatitudeDegrees>37.05467655323445796966552734375</LatitudeDegrees>
              <LongitudeDegrees>-3.3216223306953907012939453125</LongitudeDegrees>
            </Position>
            <AltitudeMeters>3127.39990234375</AltitudeMeters>
            <DistanceMeters>12828.183659528</DistanceMeters>
          </Trackpoint>
          <Trackpoint>
            <Time>2019-07-15T11:01:39.000Z</Time>
            <Position>
              <LatitudeDegrees>37.05468309111893177032470703125</LatitudeDegrees>
              <LongitudeDegrees>-3.321631886065006256103515625</LongitudeDegrees>
            </Position>
            <AltitudeMeters>3127.199951171875</AltitudeMeters>
            <DistanceMeters>12829.299970663</DistanceMeters>
          </Trackpoint>
          <Trackpoint>
            <Time>2019-07-15T11:01:40.000Z</Time>
            <Position>
              <LatitudeDegrees>37.0546895451843738555908203125</LatitudeDegrees>
              <LongitudeDegrees>-3.32164135761559009552001953125</LongitudeDegrees>
            </Position>
            <AltitudeMeters>3127</AltitudeMeters>
            <DistanceMeters>12830.39998441</DistanceMeters>
          </Trackpoint>
          <Trackpoint>
            <Time>2019-07-15T11:01:41.000Z</Time>
            <Position>
              <LatitudeDegrees>37.0546955801546573638916015625</LatitudeDegrees>
              <LongitudeDegrees>-3.3216514997184276580810546875</LongitudeDegrees>
            </Position>
            <AltitudeMeters>3126.800048828125</AltitudeMeters>
            <DistanceMeters>12831.524355657</DistanceMeters>
          </Trackpoint>
          <Trackpoint>
            <Time>2019-07-15T11:01:42.000Z</Time>
            <Position>
              <LatitudeDegrees>37.05470019020140171051025390625</LatitudeDegrees>
              <LongitudeDegrees>-3.3216625638306140899658203125</LongitudeDegrees>
            </Position>
            <AltitudeMeters>3126.800048828125</AltitudeMeters>
            <DistanceMeters>12832.632548057</DistanceMeters>
          </Trackpoint>
          <Trackpoint>
            <Time>2019-07-15T11:01:43.000Z</Time>
            <Position>
              <LatitudeDegrees>37.05470572225749492645263671875</LatitudeDegrees>
              <LongitudeDegrees>-3.32167086191475391387939453125</LongitudeDegrees>
            </Position>
            <AltitudeMeters>3126.60009765625</AltitudeMeters>
            <DistanceMeters>12833.592270829</DistanceMeters>
          </Trackpoint>
          <Trackpoint>
            <Time>2019-07-15T11:01:57.000Z</Time>
            <Position>
              <LatitudeDegrees>37.05475718714296817779541015625</LatitudeDegrees>
              <LongitudeDegrees>-3.3218030445277690887451171875</LongitudeDegrees>
            </Position>
            <AltitudeMeters>3124.199951171875</AltitudeMeters>
            <DistanceMeters>12846.656284178</DistanceMeters>
          </Trackpoint>
          <Trackpoint>
            <Time>2019-07-15T11:02:07.000Z</Time>
            <Position>
              <LatitudeDegrees>37.05478887073695659637451171875</LatitudeDegrees>
              <LongitudeDegrees>-3.32188996486365795135498046875</LongitudeDegrees>
            </Position>
            <AltitudeMeters>3122.800048828125</AltitudeMeters>
            <DistanceMeters>12855.144037112</DistanceMeters>
          </Trackpoint>
          <Trackpoint>
            <Time>2019-07-15T11:02:08.000Z</Time>
            <Position>
              <LatitudeDegrees>37.05479792319238185882568359375</LatitudeDegrees>
              <LongitudeDegrees>-3.321896754205226898193359375</LongitudeDegrees>
            </Position>
            <AltitudeMeters>3122.800048828125</AltitudeMeters>
            <DistanceMeters>12856.319452654</DistanceMeters>
          </Trackpoint>
          <Trackpoint>
            <Time>2019-07-15T11:02:25.000Z</Time>
            <Position>
              <LatitudeDegrees>37.05487302504479885101318359375</LatitudeDegrees>
              <LongitudeDegrees>-3.32203379832208156585693359375</LongitudeDegrees>
            </Position>
            <AltitudeMeters>3121</AltitudeMeters>
            <DistanceMeters>12871.086249394</DistanceMeters>
          </Trackpoint>
          <Trackpoint>
            <Time>2019-07-15T11:02:28.000Z</Time>
            <Position>
              <LatitudeDegrees>37.05487788654863834381103515625</LatitudeDegrees>
              <LongitudeDegrees>-3.32206263206899166107177734375</LongitudeDegrees>
            </Position>
            <AltitudeMeters>3120.60009765625</AltitudeMeters>
            <DistanceMeters>12873.705955121</DistanceMeters>
          </Trackpoint>
          <Trackpoint>
            <Time>2019-07-15T11:02:29.000Z</Time>
            <Position>
              <LatitudeDegrees>37.05487805418670177459716796875</LatitudeDegrees>
              <LongitudeDegrees>-3.322073780000209808349609375</LongitudeDegrees>
            </Position>
            <AltitudeMeters>3120.39990234375</AltitudeMeters>
            <DistanceMeters>12874.693501705</DistanceMeters>
          </Trackpoint>
          <Trackpoint>
            <Time>2019-07-15T11:02:48.000Z</Time>
            <Position>
              <LatitudeDegrees>37.0548994280397891998291015625</LatitudeDegrees>
              <LongitudeDegrees>-3.32223035395145416259765625</LongitudeDegrees>
            </Position>
            <AltitudeMeters>3117.800048828125</AltitudeMeters>
            <DistanceMeters>12888.802968927</DistanceMeters>
          </Trackpoint>
          <Trackpoint>
            <Time>2019-07-15T11:03:06.000Z</Time>
            <Position>
              <LatitudeDegrees>37.054928429424762725830078125</LatitudeDegrees>
              <LongitudeDegrees>-3.32233822904527187347412109375</LongitudeDegrees>
            </Position>
            <AltitudeMeters>3114.39990234375</AltitudeMeters>
            <DistanceMeters>12898.914275742</DistanceMeters>
          </Trackpoint>
          <Trackpoint>
            <Time>2019-07-15T11:03:23.000Z</Time>
            <Position>
              <LatitudeDegrees>37.05491267144680023193359375</LatitudeDegrees>
              <LongitudeDegrees>-3.32244317047297954559326171875</LongitudeDegrees>
            </Position>
            <AltitudeMeters>3111.39990234375</AltitudeMeters>
            <DistanceMeters>12908.399826948</DistanceMeters>
          </Trackpoint>
          <Trackpoint>
            <Time>2019-07-15T11:03:40.000Z</Time>
            <Position>
              <LatitudeDegrees>37.054896242916584014892578125</LatitudeDegrees>
              <LongitudeDegrees>-3.3225557394325733184814453125</LongitudeDegrees>
            </Position>
            <AltitudeMeters>3108.39990234375</AltitudeMeters>
            <DistanceMeters>12918.565020736</DistanceMeters>
          </Trackpoint>
          <Trackpoint>
            <Time>2019-07-15T11:04:02.000Z</Time>
            <Position>
              <LatitudeDegrees>37.0548315346240997314453125</LatitudeDegrees>
              <LongitudeDegrees>-3.32258708775043487548828125</LongitudeDegrees>
            </Position>
            <AltitudeMeters>3105.39990234375</AltitudeMeters>
            <DistanceMeters>12926.287366548</DistanceMeters>
          </Trackpoint>
          <Trackpoint>
            <Time>2019-07-15T11:04:25.000Z</Time>
            <Position>
              <LatitudeDegrees>37.0548020303249359130859375</LatitudeDegrees>
              <LongitudeDegrees>-3.32273192703723907470703125</LongitudeDegrees>
            </Position>
            <AltitudeMeters>3102.199951171875</AltitudeMeters>
            <DistanceMeters>12939.565288542</DistanceMeters>
          </Trackpoint>
          <Trackpoint>
            <Time>2019-07-15T11:05:37.000Z</Time>
            <Position>
              <LatitudeDegrees>37.0548032037913799285888671875</LatitudeDegrees>
              <LongitudeDegrees>-3.3227622695267200469970703125</LongitudeDegrees>
            </Position>
            <AltitudeMeters>3099.60009765625</AltitudeMeters>
            <DistanceMeters>12942.263110185</DistanceMeters>
          </Trackpoint>
          <Trackpoint>
            <Time>2019-07-15T11:05:59.000Z</Time>
            <Position>
              <LatitudeDegrees>37.05480672419071197509765625</LatitudeDegrees>
              <LongitudeDegrees>-3.3227991499006748199462890625</LongitudeDegrees>
            </Position>
            <AltitudeMeters>3100</AltitudeMeters>
            <DistanceMeters>12945.561782966</DistanceMeters>
          </Trackpoint>
          <Trackpoint>
            <Time>2019-07-15T11:06:00.000Z</Time>
            <Position>
              <LatitudeDegrees>37.05480404198169708251953125</LatitudeDegrees>
              <LongitudeDegrees>-3.32281784154474735260009765625</LongitudeDegrees>
            </Position>
            <AltitudeMeters>3099.800048828125</AltitudeMeters>
            <DistanceMeters>12947.248339837</DistanceMeters>
          </Trackpoint>
          <Trackpoint>
            <Time>2019-07-15T11:06:01.000Z</Time>
            <Position>
              <LatitudeDegrees>37.0548042096197605133056640625</LatitudeDegrees>
              <LongitudeDegrees>-3.32283259369432926177978515625</LongitudeDegrees>
            </Position>
            <AltitudeMeters>3099.800048828125</AltitudeMeters>
            <DistanceMeters>12948.5581927</DistanceMeters>
          </Trackpoint>
          <Trackpoint>
            <Time>2019-07-15T11:06:02.000Z</Time>
            <Position>
              <LatitudeDegrees>37.0548048801720142364501953125</LatitudeDegrees>
              <LongitudeDegrees>-3.322845585644245147705078125</LongitudeDegrees>
            </Position>
            <AltitudeMeters>3099.60009765625</AltitudeMeters>
            <DistanceMeters>12949.718141574</DistanceMeters>
          </Trackpoint>
          <Trackpoint>
            <Time>2019-07-15T11:06:03.000Z</Time>
            <Position>
              <LatitudeDegrees>37.0548038743436336517333984375</LatitudeDegrees>
              <LongitudeDegrees>-3.3228581584990024566650390625</LongitudeDegrees>
            </Position>
            <AltitudeMeters>3099.60009765625</AltitudeMeters>
            <DistanceMeters>12950.838490014</DistanceMeters>
          </Trackpoint>
          <Trackpoint>
            <Time>2019-07-15T11:06:04.000Z</Time>
            <Position>
              <LatitudeDegrees>37.05480412580072879791259765625</LatitudeDegrees>
              <LongitudeDegrees>-3.32287098281085491180419921875</LongitudeDegrees>
            </Position>
            <AltitudeMeters>3099.39990234375</AltitudeMeters>
            <DistanceMeters>12951.974844242</DistanceMeters>
          </Trackpoint>
          <Trackpoint>
            <Time>2019-07-15T11:06:20.000Z</Time>
            <Position>
              <LatitudeDegrees>37.05482306890189647674560546875</LatitudeDegrees>
              <LongitudeDegrees>-3.32308120094239711761474609375</LongitudeDegrees>
            </Position>
            <AltitudeMeters>3096.39990234375</AltitudeMeters>
            <DistanceMeters>12970.76612172</DistanceMeters>
          </Trackpoint>
          <Trackpoint>
            <Time>2019-07-15T11:06:27.000Z</Time>
            <Position>
              <LatitudeDegrees>37.05484251491725444793701171875</LatitudeDegrees>
              <LongitudeDegrees>-3.3231552131474018096923828125</LongitudeDegrees>
            </Position>
            <AltitudeMeters>3094.39990234375</AltitudeMeters>
            <DistanceMeters>12977.687433412</DistanceMeters>
          </Trackpoint>
          <Trackpoint>
            <Time>2019-07-15T11:06:28.000Z</Time>
            <Position>
              <LatitudeDegrees>37.05484938807785511016845703125</LatitudeDegrees>
              <LongitudeDegrees>-3.32316577434539794921875</LongitudeDegrees>
            </Position>
            <AltitudeMeters>3094.199951171875</AltitudeMeters>
            <DistanceMeters>12978.896926026</DistanceMeters>
          </Trackpoint>
          <Trackpoint>
            <Time>2019-07-15T11:06:29.000Z</Time>
            <Position>
              <LatitudeDegrees>37.05485458485782146453857421875</LatitudeDegrees>
              <LongitudeDegrees>-3.32317583262920379638671875</LongitudeDegrees>
            </Position>
            <AltitudeMeters>3094</AltitudeMeters>
            <DistanceMeters>12979.963598249</DistanceMeters>
          </Trackpoint>
          <Trackpoint>
            <Time>2019-07-15T11:06:31.000Z</Time>
            <Position>
              <LatitudeDegrees>37.05485475249588489532470703125</LatitudeDegrees>
              <LongitudeDegrees>-3.32319670356810092926025390625</LongitudeDegrees>
            </Position>
            <AltitudeMeters>3093.800048828125</AltitudeMeters>
            <DistanceMeters>12981.818445716</DistanceMeters>
          </Trackpoint>
          <Trackpoint>
            <Time>2019-07-15T11:06:32.000Z</Time>
            <Position>
              <LatitudeDegrees>37.05485626123845577239990234375</LatitudeDegrees>
              <LongitudeDegrees>-3.323207683861255645751953125</LongitudeDegrees>
            </Position>
            <AltitudeMeters>3093.60009765625</AltitudeMeters>
            <DistanceMeters>12982.801409693</DistanceMeters>
          </Trackpoint>
          <Trackpoint>
            <Time>2019-07-15T11:06:49.000Z</Time>
            <Position>
              <LatitudeDegrees>37.0549021102488040924072265625</LatitudeDegrees>
              <LongitudeDegrees>-3.32334623672068119049072265625</LongitudeDegrees>
            </Position>
            <AltitudeMeters>3090.39990234375</AltitudeMeters>
            <DistanceMeters>12996.124480385</DistanceMeters>
          </Trackpoint>
          <Trackpoint>
            <Time>2019-07-15T11:07:09.000Z</Time>
            <Position>
              <LatitudeDegrees>37.05495449714362621307373046875</LatitudeDegrees>
              <LongitudeDegrees>-3.3235270343720912933349609375</LongitudeDegrees>
            </Position>
            <AltitudeMeters>3087.39990234375</AltitudeMeters>
            <DistanceMeters>13013.209744536</DistanceMeters>
          </Trackpoint>
          <Trackpoint>
            <Time>2019-07-15T11:07:11.000Z</Time>
            <Position>
              <LatitudeDegrees>37.05495550297200679779052734375</LatitudeDegrees>
              <LongitudeDegrees>-3.3235461451113224029541015625</LongitudeDegrees>
            </Position>
            <AltitudeMeters>3087</AltitudeMeters>
            <DistanceMeters>13014.90963408</DistanceMeters>
          </Trackpoint>
          <Trackpoint>
            <Time>2019-07-15T11:07:12.000Z</Time>
            <Position>
              <LatitudeDegrees>37.054961286485195159912109375</LatitudeDegrees>
              <LongitudeDegrees>-3.32356349565088748931884765625</LongitudeDegrees>
            </Position>
            <AltitudeMeters>3086.800048828125</AltitudeMeters>
            <DistanceMeters>13016.582752037</DistanceMeters>
          </Trackpoint>
          <Trackpoint>
            <Time>2019-07-15T11:07:13.000Z</Time>
            <Position>
              <LatitudeDegrees>37.05496723763644695281982421875</LatitudeDegrees>
              <LongitudeDegrees>-3.3235779963433742523193359375</LongitudeDegrees>
            </Position>
            <AltitudeMeters>3086.39990234375</AltitudeMeters>
            <DistanceMeters>13018.027033055</DistanceMeters>
          </Trackpoint>
          <Trackpoint>
            <Time>2019-07-15T11:07:14.000Z</Time>
            <Position>
              <LatitudeDegrees>37.05497629009187221527099609375</LatitudeDegrees>
              <LongitudeDegrees>-3.32359023392200469970703125</LongitudeDegrees>
            </Position>
            <AltitudeMeters>3086.199951171875</AltitudeMeters>
            <DistanceMeters>13019.508352931</DistanceMeters>
          </Trackpoint>
          <Trackpoint>
            <Time>2019-07-15T11:07:28.000Z</Time>
            <Position>
              <LatitudeDegrees>37.05500931479036808013916015625</LatitudeDegrees>
              <LongitudeDegrees>-3.3237040601670742034912109375</LongitudeDegrees>
            </Position>
            <AltitudeMeters>3083.800048828125</AltitudeMeters>
            <DistanceMeters>13030.266955064</DistanceMeters>
          </Trackpoint>
          <Trackpoint>
            <Time>2019-07-15T11:07:33.000Z</Time>
            <Position>
              <LatitudeDegrees>37.055027000606060028076171875</LatitudeDegrees>
              <LongitudeDegrees>-3.3237452991306781768798828125</LongitudeDegrees>
            </Position>
            <AltitudeMeters>3083.199951171875</AltitudeMeters>
            <DistanceMeters>13034.426477449</DistanceMeters>
          </Trackpoint>
          <Trackpoint>
            <Time>2019-07-15T11:07:45.000Z</Time>
            <Position>
              <LatitudeDegrees>37.05506622791290283203125</LatitudeDegrees>
              <LongitudeDegrees>-3.32384160719811916351318359375</LongitudeDegrees>
            </Position>
            <AltitudeMeters>3080.800048828125</AltitudeMeters>
            <DistanceMeters>13044.031229447</DistanceMeters>
          </Trackpoint>
          <Trackpoint>
            <Time>2019-07-15T11:07:46.000Z</Time>
            <Position>
              <LatitudeDegrees>37.05506882630288600921630859375</LatitudeDegrees>
              <LongitudeDegrees>-3.32385133020579814910888671875</LongitudeDegrees>
            </Position>
            <AltitudeMeters>3080.39990234375</AltitudeMeters>
            <DistanceMeters>13044.942693672</DistanceMeters>
          </Trackpoint>
          <Trackpoint>
            <Time>2019-07-15T11:07:50.000Z</Time>
            <Position>
              <LatitudeDegrees>37.05507670529186725616455078125</LatitudeDegrees>
              <LongitudeDegrees>-3.32388133741915225982666015625</LongitudeDegrees>
            </Position>
            <AltitudeMeters>3080.39990234375</AltitudeMeters>
            <DistanceMeters>13047.748798919</DistanceMeters>
          </Trackpoint>
          <Trackpoint>
            <Time>2019-07-15T11:07:51.000Z</Time>
            <Position>
              <LatitudeDegrees>37.05508173443377017974853515625</LatitudeDegrees>
              <LongitudeDegrees>-3.3238921500742435455322265625</LongitudeDegrees>
            </Position>
            <AltitudeMeters>3080.199951171875</AltitudeMeters>
            <DistanceMeters>13048.85699132</DistanceMeters>
          </Trackpoint>
          <Trackpoint>
            <Time>2019-07-15T11:08:16.000Z</Time>
            <Position>
              <LatitudeDegrees>37.05510771833360195159912109375</LatitudeDegrees>
              <LongitudeDegrees>-3.32401360385119915008544921875</LongitudeDegrees>
            </Position>
            <AltitudeMeters>3077</AltitudeMeters>
            <DistanceMeters>13060.02657216</DistanceMeters>
          </Trackpoint>
          <Trackpoint>
            <Time>2019-07-15T11:08:21.000Z</Time>
            <Position>
              <LatitudeDegrees>37.05510939471423625946044921875</LatitudeDegrees>
              <LongitudeDegrees>-3.3240460418164730072021484375</LongitudeDegrees>
            </Position>
            <AltitudeMeters>3076.39990234375</AltitudeMeters>
            <DistanceMeters>13062.915134196</DistanceMeters>
          </Trackpoint>
          <Trackpoint>
            <Time>2019-07-15T11:08:22.000Z</Time>
            <Position>
              <LatitudeDegrees>37.05511249601840972900390625</LatitudeDegrees>
              <LongitudeDegrees>-3.32405383698642253875732421875</LongitudeDegrees>
            </Position>
            <AltitudeMeters>3076.39990234375</AltitudeMeters>
            <DistanceMeters>13063.687134873</DistanceMeters>
          </Trackpoint>
          <Trackpoint>
            <Time>2019-07-15T11:08:23.000Z</Time>
            <Position>
              <LatitudeDegrees>37.05511677078902721405029296875</LatitudeDegrees>
              <LongitudeDegrees>-3.3240628056228160858154296875</LongitudeDegrees>
            </Position>
            <AltitudeMeters>3076</AltitudeMeters>
            <DistanceMeters>13064.618202721</DistanceMeters>
          </Trackpoint>
          <Trackpoint>
            <Time>2019-07-15T11:08:24.000Z</Time>
            <Position>
              <LatitudeDegrees>37.0551240630447864532470703125</LatitudeDegrees>
              <LongitudeDegrees>-3.32407328300178050994873046875</LongitudeDegrees>
            </Position>
            <AltitudeMeters>3075.800048828125</AltitudeMeters>
            <DistanceMeters>13065.853550008</DistanceMeters>
          </Trackpoint>
          <Trackpoint>
            <Time>2019-07-15T11:08:25.000Z</Time>
            <Position>
              <LatitudeDegrees>37.055132947862148284912109375</LatitudeDegrees>
              <LongitudeDegrees>-3.32408032380044460296630859375</LongitudeDegrees>
            </Position>
            <AltitudeMeters>3075.60009765625</AltitudeMeters>
            <DistanceMeters>13067.025118026</DistanceMeters>
          </Trackpoint>
          <Trackpoint>
            <Time>2019-07-15T11:08:26.000Z</Time>
            <Position>
              <LatitudeDegrees>37.0551371388137340545654296875</LatitudeDegrees>
              <LongitudeDegrees>-3.32408736459910869598388671875</LongitudeDegrees>
            </Position>
            <AltitudeMeters>3075.199951171875</AltitudeMeters>
            <DistanceMeters>13067.797118703</DistanceMeters>
          </Trackpoint>
          <Trackpoint>
            <Time>2019-07-15T11:08:36.000Z</Time>
            <Position>
              <LatitudeDegrees>37.05511257983744144439697265625</LatitudeDegrees>
              <LongitudeDegrees>-3.324153162539005279541015625</LongitudeDegrees>
            </Position>
            <AltitudeMeters>3073.39990234375</AltitudeMeters>
            <DistanceMeters>13074.249845451</DistanceMeters>
          </Trackpoint>
          <Trackpoint>
            <Time>2019-07-15T11:08:37.000Z</Time>
            <Position>
              <LatitudeDegrees>37.05510939471423625946044921875</LatitudeDegrees>
              <LongitudeDegrees>-3.324163891375064849853515625</LongitudeDegrees>
            </Position>
            <AltitudeMeters>3073</AltitudeMeters>
            <DistanceMeters>13075.268893433</DistanceMeters>
          </Trackpoint>
          <Trackpoint>
            <Time>2019-07-15T11:08:42.000Z</Time>
            <Position>
              <LatitudeDegrees>37.05508307553827762603759765625</LatitudeDegrees>
              <LongitudeDegrees>-3.32418811507523059844970703125</LongitudeDegrees>
            </Position>
            <AltitudeMeters>3071.60009765625</AltitudeMeters>
            <DistanceMeters>13078.903587621</DistanceMeters>
          </Trackpoint>
          <Trackpoint>
            <Time>2019-07-15T11:08:43.000Z</Time>
            <Position>
              <LatitudeDegrees>37.0550767891108989715576171875</LatitudeDegrees>
              <LongitudeDegrees>-3.32419331185519695281982421875</LongitudeDegrees>
            </Position>
            <AltitudeMeters>3071.39990234375</AltitudeMeters>
            <DistanceMeters>13079.742840838</DistanceMeters>
          </Trackpoint>
          <Trackpoint>
            <Time>2019-07-15T11:08:44.000Z</Time>
            <Position>
              <LatitudeDegrees>37.0550694130361080169677734375</LatitudeDegrees>
              <LongitudeDegrees>-3.32419968210160732269287109375</LongitudeDegrees>
            </Position>
            <AltitudeMeters>3071.39990234375</AltitudeMeters>
            <DistanceMeters>13080.748509055</DistanceMeters>
          </Trackpoint>
          <Trackpoint>
            <Time>2019-07-15T11:08:46.000Z</Time>
            <Position>
              <LatitudeDegrees>37.05506916157901287078857421875</LatitudeDegrees>
              <LongitudeDegrees>-3.324223570525646209716796875</LongitudeDegrees>
            </Position>
            <AltitudeMeters>3071</AltitudeMeters>
            <DistanceMeters>13082.873370985</DistanceMeters>
          </Trackpoint>
          <Trackpoint>
            <Time>2019-07-15T11:08:58.000Z</Time>
            <Position>
              <LatitudeDegrees>37.0550757832825183868408203125</LatitudeDegrees>
              <LongitudeDegrees>-3.32432918250560760498046875</LongitudeDegrees>
            </Position>
            <AltitudeMeters>3067.800048828125</AltitudeMeters>
            <DistanceMeters>13092.283415066</DistanceMeters>
          </Trackpoint>
          <Trackpoint>
            <Time>2019-07-15T11:09:03.000Z</Time>
            <Position>
              <LatitudeDegrees>37.0550630427896976470947265625</LatitudeDegrees>
              <LongitudeDegrees>-3.324359692633152008056640625</LongitudeDegrees>
            </Position>
            <AltitudeMeters>3066.800048828125</AltitudeMeters>
            <DistanceMeters>13095.342035539</DistanceMeters>
          </Trackpoint>
          <Trackpoint>
            <Time>2019-07-15T11:09:20.000Z</Time>
            <Position>
              <LatitudeDegrees>37.05502373166382312774658203125</LatitudeDegrees>
              <LongitudeDegrees>-3.324440158903598785400390625</LongitudeDegrees>
            </Position>
            <AltitudeMeters>3063.60009765625</AltitudeMeters>
            <DistanceMeters>13103.722723731</DistanceMeters>
          </Trackpoint>
          <Trackpoint>
            <Time>2019-07-15T11:09:41.000Z</Time>
            <Position>
              <LatitudeDegrees>37.05497796647250652313232421875</LatitudeDegrees>
              <LongitudeDegrees>-3.32468180917203426361083984375</LongitudeDegrees>
            </Position>
            <AltitudeMeters>3061.199951171875</AltitudeMeters>
            <DistanceMeters>13125.783252734</DistanceMeters>
          </Trackpoint>
          <Trackpoint>
            <Time>2019-07-15T11:10:03.000Z</Time>
            <Position>
              <LatitudeDegrees>37.05495097674429416656494140625</LatitudeDegrees>
              <LongitudeDegrees>-3.324928320944309234619140625</LongitudeDegrees>
            </Position>
            <AltitudeMeters>3059.800048828125</AltitudeMeters>
            <DistanceMeters>13147.884881299</DistanceMeters>
          </Trackpoint>
          <Trackpoint>
            <Time>2019-07-15T11:10:24.000Z</Time>
            <Position>
              <LatitudeDegrees>37.05489682964980602264404296875</LatitudeDegrees>
              <LongitudeDegrees>-3.32518774084746837615966796875</LongitudeDegrees>
            </Position>
            <AltitudeMeters>3061.199951171875</AltitudeMeters>
            <DistanceMeters>13171.703247166</DistanceMeters>
          </Trackpoint>
          <Trackpoint>
            <Time>2019-07-15T11:10:25.000Z</Time>
            <Position>
              <LatitudeDegrees>37.0548950694501399993896484375</LatitudeDegrees>
              <LongitudeDegrees>-3.325201235711574554443359375</LongitudeDegrees>
            </Position>
            <AltitudeMeters>3061.60009765625</AltitudeMeters>
            <DistanceMeters>13172.916467039</DistanceMeters>
          </Trackpoint>
          <Trackpoint>
            <Time>2019-07-15T11:10:26.000Z</Time>
            <Position>
              <LatitudeDegrees>37.0548957400023937225341796875</LatitudeDegrees>
              <LongitudeDegrees>-3.3252128027379512786865234375</LongitudeDegrees>
            </Position>
            <AltitudeMeters>3061.60009765625</AltitudeMeters>
            <DistanceMeters>13173.948721378</DistanceMeters>
          </Trackpoint>
          <Trackpoint>
            <Time>2019-07-15T11:10:41.000Z</Time>
            <Position>
              <LatitudeDegrees>37.05484025180339813232421875</LatitudeDegrees>
              <LongitudeDegrees>-3.325366191565990447998046875</LongitudeDegrees>
            </Position>
            <AltitudeMeters>3062</AltitudeMeters>
            <DistanceMeters>13188.908413371</DistanceMeters>
          </Trackpoint>
          <Trackpoint>
            <Time>2019-07-15T11:10:42.000Z</Time>
            <Position>
              <LatitudeDegrees>37.054838575422763824462890625</LatitudeDegrees>
              <LongitudeDegrees>-3.32538018934428691864013671875</LongitudeDegrees>
            </Position>
            <AltitudeMeters>3062</AltitudeMeters>
            <DistanceMeters>13190.161901824</DistanceMeters>
          </Trackpoint>
          <Trackpoint>
            <Time>2019-07-15T11:10:43.000Z</Time>
            <Position>
              <LatitudeDegrees>37.0548397488892078399658203125</LatitudeDegrees>
              <LongitudeDegrees>-3.3253945223987102508544921875</LongitudeDegrees>
            </Position>
            <AltitudeMeters>3062.199951171875</AltitudeMeters>
            <DistanceMeters>13191.443882289</DistanceMeters>
          </Trackpoint>
          <Trackpoint>
            <Time>2019-07-15T11:10:44.000Z</Time>
            <Position>
              <LatitudeDegrees>37.05484251491725444793701171875</LatitudeDegrees>
              <LongitudeDegrees>-3.3254106156527996063232421875</LongitudeDegrees>
            </Position>
            <AltitudeMeters>3062.199951171875</AltitudeMeters>
            <DistanceMeters>13192.906799961</DistanceMeters>
          </Trackpoint>
          <Trackpoint>
            <Time>2019-07-15T11:10:45.000Z</Time>
            <Position>
              <LatitudeDegrees>37.05484905280172824859619140625</LatitudeDegrees>
              <LongitudeDegrees>-3.32542209886014461517333984375</LongitudeDegrees>
            </Position>
            <AltitudeMeters>3062.199951171875</AltitudeMeters>
            <DistanceMeters>13194.160288414</DistanceMeters>
          </Trackpoint>
          <Trackpoint>
            <Time>2019-07-15T11:10:46.000Z</Time>
            <Position>
              <LatitudeDegrees>37.0548561774194240570068359375</LatitudeDegrees>
              <LongitudeDegrees>-3.32543299533426761627197265625</LongitudeDegrees>
            </Position>
            <AltitudeMeters>3062.199951171875</AltitudeMeters>
            <DistanceMeters>13195.413776867</DistanceMeters>
          </Trackpoint>
          <Trackpoint>
            <Time>2019-07-15T11:10:47.000Z</Time>
            <Position>
              <LatitudeDegrees>37.05486430786550045013427734375</LatitudeDegrees>
              <LongitudeDegrees>-3.32544422708451747894287109375</LongitudeDegrees>
            </Position>
            <AltitudeMeters>3062.199951171875</AltitudeMeters>
            <DistanceMeters>13196.757657549</DistanceMeters>
          </Trackpoint>
          <Trackpoint>
            <Time>2019-07-15T11:10:48.000Z</Time>
            <Position>
              <LatitudeDegrees>37.05487310886383056640625</LatitudeDegrees>
              <LongitudeDegrees>-3.32545277662575244903564453125</LongitudeDegrees>
            </Position>
            <AltitudeMeters>3062.39990234375</AltitudeMeters>
            <DistanceMeters>13197.996654319</DistanceMeters>
          </Trackpoint>
          <Trackpoint>
            <Time>2019-07-15T11:11:13.000Z</Time>
            <Position>
              <LatitudeDegrees>37.054954580962657928466796875</LatitudeDegrees>
              <LongitudeDegrees>-3.3256422914564609527587890625</LongitudeDegrees>
            </Position>
            <AltitudeMeters>3061.199951171875</AltitudeMeters>
            <DistanceMeters>13217.117342199</DistanceMeters>
          </Trackpoint>
          <Trackpoint>
            <Time>2019-07-15T11:11:14.000Z</Time>
            <Position>
              <LatitudeDegrees>37.0549577660858631134033203125</LatitudeDegrees>
              <LongitudeDegrees>-3.3256560377776622772216796875</LongitudeDegrees>
            </Position>
            <AltitudeMeters>3061.199951171875</AltitudeMeters>
            <DistanceMeters>13218.388712988</DistanceMeters>
          </Trackpoint>
          <Trackpoint>
            <Time>2019-07-15T11:11:39.000Z</Time>
            <Position>
              <LatitudeDegrees>37.05493203364312648773193359375</LatitudeDegrees>
              <LongitudeDegrees>-3.32591881044209003448486328125</LongitudeDegrees>
            </Position>
            <AltitudeMeters>3061.60009765625</AltitudeMeters>
            <DistanceMeters>13241.904705024</DistanceMeters>
          </Trackpoint>
          <Trackpoint>
            <Time>2019-07-15T11:12:02.000Z</Time>
            <Position>
              <LatitudeDegrees>37.05488928593695163726806640625</LatitudeDegrees>
              <LongitudeDegrees>-3.32613833248615264892578125</LongitudeDegrees>
            </Position>
            <AltitudeMeters>3064.199951171875</AltitudeMeters>
            <DistanceMeters>13261.975822838</DistanceMeters>
          </Trackpoint>
          <Trackpoint>
            <Time>2019-07-15T11:12:03.000Z</Time>
            <Position>
              <LatitudeDegrees>37.054887525737285614013671875</LatitudeDegrees>
              <LongitudeDegrees>-3.32615249790251255035400390625</LongitudeDegrees>
            </Position>
            <AltitudeMeters>3064.39990234375</AltitudeMeters>
            <DistanceMeters>13263.247193627</DistanceMeters>
          </Trackpoint>
          <Trackpoint>
            <Time>2019-07-15T11:12:18.000Z</Time>
            <Position>
              <LatitudeDegrees>37.05483195371925830841064453125</LatitudeDegrees>
              <LongitudeDegrees>-3.32630789838731288909912109375</LongitudeDegrees>
            </Position>
            <AltitudeMeters>3066.199951171875</AltitudeMeters>
            <DistanceMeters>13278.373166219</DistanceMeters>
          </Trackpoint>
          <Trackpoint>
            <Time>2019-07-15T11:12:21.000Z</Time>
            <Position>
              <LatitudeDegrees>37.05482281744480133056640625</LatitudeDegrees>
              <LongitudeDegrees>-3.3263321220874786376953125</LongitudeDegrees>
            </Position>
            <AltitudeMeters>3066.60009765625</AltitudeMeters>
            <DistanceMeters>13280.754528856</DistanceMeters>
          </Trackpoint>
          <Trackpoint>
            <Time>2019-07-15T11:12:25.000Z</Time>
            <Position>
              <LatitudeDegrees>37.05481602810323238372802734375</LatitudeDegrees>
              <LongitudeDegrees>-3.32635383121669292449951171875</LongitudeDegrees>
            </Position>
            <AltitudeMeters>3066.60009765625</AltitudeMeters>
            <DistanceMeters>13282.823406869</DistanceMeters>
          </Trackpoint>
          <Trackpoint>
            <Time>2019-07-15T12:10:37.000Z</Time>
            <Position>
              <LatitudeDegrees>37.05451092682778835296630859375</LatitudeDegrees>
              <LongitudeDegrees>-3.32666161470115184783935546875</LongitudeDegrees>
            </Position>
            <AltitudeMeters>3057.60009765625</AltitudeMeters>
            <DistanceMeters>13326.419235907</DistanceMeters>
          </Trackpoint>
          <Trackpoint>
            <Time>2019-07-15T12:10:38.000Z</Time>
            <Position>
              <LatitudeDegrees>37.054521404206752777099609375</LatitudeDegrees>
              <LongitudeDegrees>-3.32665105350315570831298828125</LongitudeDegrees>
            </Position>
            <AltitudeMeters>3063.39990234375</AltitudeMeters>
            <DistanceMeters>13327.912697953</DistanceMeters>
          </Trackpoint>
          <Trackpoint>
            <Time>2019-07-15T12:10:41.000Z</Time>
            <Position>
              <LatitudeDegrees>37.05453154630959033966064453125</LatitudeDegrees>
              <LongitudeDegrees>-3.326665721833705902099609375</LongitudeDegrees>
            </Position>
            <AltitudeMeters>3057.39990234375</AltitudeMeters>
            <DistanceMeters>13329.633704947</DistanceMeters>
          </Trackpoint>
          <Trackpoint>
            <Time>2019-07-15T12:10:45.000Z</Time>
            <Position>
              <LatitudeDegrees>37.05451679416000843048095703125</LatitudeDegrees>
              <LongitudeDegrees>-3.32669279538094997406005859375</LongitudeDegrees>
            </Position>
            <AltitudeMeters>3057.60009765625</AltitudeMeters>
            <DistanceMeters>13332.54716884</DistanceMeters>
          </Trackpoint>
          <Trackpoint>
            <Time>2019-07-15T12:10:48.000Z</Time>
            <Position>
              <LatitudeDegrees>37.0545096695423126220703125</LatitudeDegrees>
              <LongitudeDegrees>-3.32668709568679332733154296875</LongitudeDegrees>
            </Position>
            <AltitudeMeters>3056.800048828125</AltitudeMeters>
            <DistanceMeters>13333.487885318</DistanceMeters>
          </Trackpoint>
          <Trackpoint>
            <Time>2019-07-15T12:10:49.000Z</Time>
            <Position>
              <LatitudeDegrees>37.05451243557035923004150390625</LatitudeDegrees>
              <LongitudeDegrees>-3.32670117728412151336669921875</LongitudeDegrees>
            </Position>
            <AltitudeMeters>3056.39990234375</AltitudeMeters>
            <DistanceMeters>13334.769865783</DistanceMeters>
          </Trackpoint>
          <Trackpoint>
            <Time>2019-07-15T12:10:51.000Z</Time>
            <Position>
              <LatitudeDegrees>37.0544856972992420196533203125</LatitudeDegrees>
              <LongitudeDegrees>-3.32671643234789371490478515625</LongitudeDegrees>
            </Position>
            <AltitudeMeters>3056.199951171875</AltitudeMeters>
            <DistanceMeters>13338.039668607</DistanceMeters>
          </Trackpoint>
          <Trackpoint>
            <Time>2019-07-15T12:10:54.000Z</Time>
            <Position>
              <LatitudeDegrees>37.05443792045116424560546875</LatitudeDegrees>
              <LongitudeDegrees>-3.32674057222902774810791015625</LongitudeDegrees>
            </Position>
            <AltitudeMeters>3055.800048828125</AltitudeMeters>
            <DistanceMeters>13343.772859538</DistanceMeters>
          </Trackpoint>
          <Trackpoint>
            <Time>2019-07-15T12:11:19.000Z</Time>
            <Position>
              <LatitudeDegrees>37.05431110225617885589599609375</LatitudeDegrees>
              <LongitudeDegrees>-3.32683964632451534271240234375</LongitudeDegrees>
            </Position>
            <AltitudeMeters>3052.800048828125</AltitudeMeters>
            <DistanceMeters>13360.407149496</DistanceMeters>
          </Trackpoint>
          <Trackpoint>
            <Time>2019-07-15T12:11:39.000Z</Time>
            <Position>
              <LatitudeDegrees>37.0541923306882381439208984375</LatitudeDegrees>
              <LongitudeDegrees>-3.3268529735505580902099609375</LongitudeDegrees>
            </Position>
            <AltitudeMeters>3051.39990234375</AltitudeMeters>
            <DistanceMeters>13373.679629719</DistanceMeters>
          </Trackpoint>
          <Trackpoint>
            <Time>2019-07-15T12:12:03.000Z</Time>
            <Position>
              <LatitudeDegrees>37.05404631793498992919921875</LatitudeDegrees>
              <LongitudeDegrees>-3.326901085674762725830078125</LongitudeDegrees>
            </Position>
            <AltitudeMeters>3048.39990234375</AltitudeMeters>
            <DistanceMeters>13390.483781601</DistanceMeters>
          </Trackpoint>
          <Trackpoint>
            <Time>2019-07-15T12:12:26.000Z</Time>
            <Position>
              <LatitudeDegrees>37.05404254607856273651123046875</LatitudeDegrees>
              <LongitudeDegrees>-3.3270621858537197113037109375</LongitudeDegrees>
            </Position>
            <AltitudeMeters>3045.199951171875</AltitudeMeters>
            <DistanceMeters>13404.799738257</DistanceMeters>
          </Trackpoint>
          <Trackpoint>
            <Time>2019-07-15T12:12:27.000Z</Time>
            <Position>
              <LatitudeDegrees>37.05404539592564105987548828125</LatitudeDegrees>
              <LongitudeDegrees>-3.3270719088613986968994140625</LongitudeDegrees>
            </Position>
            <AltitudeMeters>3044.800048828125</AltitudeMeters>
            <DistanceMeters>13405.721056435</DistanceMeters>
          </Trackpoint>
          <Trackpoint>
            <Time>2019-07-15T12:12:32.000Z</Time>
            <Position>
              <LatitudeDegrees>37.05405696295201778411865234375</LatitudeDegrees>
              <LongitudeDegrees>-3.32711658440530300140380859375</LongitudeDegrees>
            </Position>
            <AltitudeMeters>3043.199951171875</AltitudeMeters>
            <DistanceMeters>13409.893584133</DistanceMeters>
          </Trackpoint>
          <Trackpoint>
            <Time>2019-07-15T12:12:33.000Z</Time>
            <Position>
              <LatitudeDegrees>37.05405377782881259918212890625</LatitudeDegrees>
              <LongitudeDegrees>-3.3271325938403606414794921875</LongitudeDegrees>
            </Position>
            <AltitudeMeters>3043</AltitudeMeters>
            <DistanceMeters>13411.359584881</DistanceMeters>
          </Trackpoint>
          <Trackpoint>
            <Time>2019-07-15T12:12:39.000Z</Time>
            <Position>
              <LatitudeDegrees>37.05402913503348827362060546875</LatitudeDegrees>
              <LongitudeDegrees>-3.3271584101021289825439453125</LongitudeDegrees>
            </Position>
            <AltitudeMeters>3042</AltitudeMeters>
            <DistanceMeters>13414.935418804</DistanceMeters>
          </Trackpoint>
          <Trackpoint>
            <Time>2019-07-15T12:12:57.000Z</Time>
            <Position>
              <LatitudeDegrees>37.05398739315569400787353515625</LatitudeDegrees>
              <LongitudeDegrees>-3.32726578228175640106201171875</LongitudeDegrees>
            </Position>
            <AltitudeMeters>3041.60009765625</AltitudeMeters>
            <DistanceMeters>13425.544418417</DistanceMeters>
          </Trackpoint>
          <Trackpoint>
            <Time>2019-07-15T12:13:14.000Z</Time>
            <Position>
              <LatitudeDegrees>37.0538845472037792205810546875</LatitudeDegrees>
              <LongitudeDegrees>-3.32736133597791194915771484375</LongitudeDegrees>
            </Position>
            <AltitudeMeters>3041</AltitudeMeters>
            <DistanceMeters>13439.794940834</DistanceMeters>
          </Trackpoint>
          <Trackpoint>
            <Time>2019-07-15T12:13:36.000Z</Time>
            <Position>
              <LatitudeDegrees>37.0536981336772441864013671875</LatitudeDegrees>
              <LongitudeDegrees>-3.32746803760528564453125</LongitudeDegrees>
            </Position>
            <AltitudeMeters>3038.800048828125</AltitudeMeters>
            <DistanceMeters>13462.605509322</DistanceMeters>
          </Trackpoint>
          <Trackpoint>
            <Time>2019-07-15T12:13:57.000Z</Time>
            <Position>
              <LatitudeDegrees>37.05356544815003871917724609375</LatitudeDegrees>
              <LongitudeDegrees>-3.32764548249542713165283203125</LongitudeDegrees>
            </Position>
            <AltitudeMeters>3036.800048828125</AltitudeMeters>
            <DistanceMeters>13484.204811844</DistanceMeters>
          </Trackpoint>
          <Trackpoint>
            <Time>2019-07-15T12:14:22.000Z</Time>
            <Position>
              <LatitudeDegrees>37.05342630855739116668701171875</LatitudeDegrees>
              <LongitudeDegrees>-3.327829129993915557861328125</LongitudeDegrees>
            </Position>
            <AltitudeMeters>3036.39990234375</AltitudeMeters>
            <DistanceMeters>13506.697857947</DistanceMeters>
          </Trackpoint>
          <Trackpoint>
            <Time>2019-07-15T12:14:40.000Z</Time>
            <Position>
              <LatitudeDegrees>37.05330695025622844696044921875</LatitudeDegrees>
              <LongitudeDegrees>-3.32804563455283641815185546875</LongitudeDegrees>
            </Position>
            <AltitudeMeters>3037</AltitudeMeters>
            <DistanceMeters>13530.071725513</DistanceMeters>
          </Trackpoint>
          <Trackpoint>
            <Time>2019-07-15T12:14:53.000Z</Time>
            <Position>
              <LatitudeDegrees>37.05324509181082248687744140625</LatitudeDegrees>
              <LongitudeDegrees>-3.328201957046985626220703125</LongitudeDegrees>
            </Position>
            <AltitudeMeters>3037</AltitudeMeters>
            <DistanceMeters>13545.570696239</DistanceMeters>
          </Trackpoint>
          <Trackpoint>
            <Time>2019-07-15T12:14:54.000Z</Time>
            <Position>
              <LatitudeDegrees>37.05323771573603153228759765625</LatitudeDegrees>
              <LongitudeDegrees>-3.32821159623563289642333984375</LongitudeDegrees>
            </Position>
            <AltitudeMeters>3036.800048828125</AltitudeMeters>
            <DistanceMeters>13546.757579521</DistanceMeters>
          </Trackpoint>
          <Trackpoint>
            <Time>2019-07-15T12:15:13.000Z</Time>
            <Position>
              <LatitudeDegrees>37.0531278289854526519775390625</LatitudeDegrees>
              <LongitudeDegrees>-3.32839264534413814544677734375</LongitudeDegrees>
            </Position>
            <AltitudeMeters>3035.39990234375</AltitudeMeters>
            <DistanceMeters>13566.961876978</DistanceMeters>
          </Trackpoint>
          <Trackpoint>
            <Time>2019-07-15T12:15:32.000Z</Time>
            <Position>
              <LatitudeDegrees>37.0529933832585811614990234375</LatitudeDegrees>
              <LongitudeDegrees>-3.32858660258352756500244140625</LongitudeDegrees>
            </Position>
            <AltitudeMeters>3034</AltitudeMeters>
            <DistanceMeters>13589.781746574</DistanceMeters>
          </Trackpoint>
          <Trackpoint>
            <Time>2019-07-15T12:15:53.000Z</Time>
            <Position>
              <LatitudeDegrees>37.05283370800316333770751953125</LatitudeDegrees>
              <LongitudeDegrees>-3.328667990863323211669921875</LongitudeDegrees>
            </Position>
            <AltitudeMeters>3033.800048828125</AltitudeMeters>
            <DistanceMeters>13608.968202638</DistanceMeters>
          </Trackpoint>
          <Trackpoint>
            <Time>2019-07-15T12:16:10.000Z</Time>
            <Position>
              <LatitudeDegrees>37.05264444462954998016357421875</LatitudeDegrees>
              <LongitudeDegrees>-3.3286584354937076568603515625</LongitudeDegrees>
            </Position>
            <AltitudeMeters>3033.60009765625</AltitudeMeters>
            <DistanceMeters>13630.050859557</DistanceMeters>
          </Trackpoint>
          <Trackpoint>
            <Time>2019-07-15T12:16:15.000Z</Time>
            <Position>
              <LatitudeDegrees>37.0525927282869815826416015625</LatitudeDegrees>
              <LongitudeDegrees>-3.32865349017083644866943359375</LongitudeDegrees>
            </Position>
            <AltitudeMeters>3033.800048828125</AltitudeMeters>
            <DistanceMeters>13635.824856632</DistanceMeters>
          </Trackpoint>
          <Trackpoint>
            <Time>2019-07-15T12:16:34.000Z</Time>
            <Position>
              <LatitudeDegrees>37.0524271018803119659423828125</LatitudeDegrees>
              <LongitudeDegrees>-3.32855005748569965362548828125</LongitudeDegrees>
            </Position>
            <AltitudeMeters>3035.60009765625</AltitudeMeters>
            <DistanceMeters>13656.422212081</DistanceMeters>
          </Trackpoint>
          <Trackpoint>
            <Time>2019-07-15T12:16:52.000Z</Time>
            <Position>
              <LatitudeDegrees>37.052241861820220947265625</LatitudeDegrees>
              <LongitudeDegrees>-3.328481577336788177490234375</LongitudeDegrees>
            </Position>
            <AltitudeMeters>3036.199951171875</AltitudeMeters>
            <DistanceMeters>13677.918422719</DistanceMeters>
          </Trackpoint>
          <Trackpoint>
            <Time>2019-07-15T12:17:09.000Z</Time>
            <Position>
              <LatitudeDegrees>37.05205586738884449005126953125</LatitudeDegrees>
              <LongitudeDegrees>-3.3284941501915454864501953125</LongitudeDegrees>
            </Position>
            <AltitudeMeters>3035.800048828125</AltitudeMeters>
            <DistanceMeters>13698.650368566</DistanceMeters>
          </Trackpoint>
          <Trackpoint>
            <Time>2019-07-15T12:17:31.000Z</Time>
            <Position>
              <LatitudeDegrees>37.0518648438155651092529296875</LatitudeDegrees>
              <LongitudeDegrees>-3.3285601995885372161865234375</LongitudeDegrees>
            </Position>
            <AltitudeMeters>3037</AltitudeMeters>
            <DistanceMeters>13720.706394459</DistanceMeters>
          </Trackpoint>
          <Trackpoint>
            <Time>2019-07-15T12:17:50.000Z</Time>
            <Position>
              <LatitudeDegrees>37.05167599953711032867431640625</LatitudeDegrees>
              <LongitudeDegrees>-3.32865701057016849517822265625</LongitudeDegrees>
            </Position>
            <AltitudeMeters>3037.60009765625</AltitudeMeters>
            <DistanceMeters>13743.416387546</DistanceMeters>
          </Trackpoint>
          <Trackpoint>
            <Time>2019-07-15T12:18:09.000Z</Time>
            <Position>
              <LatitudeDegrees>37.0515055954456329345703125</LatitudeDegrees>
              <LongitudeDegrees>-3.32879799418151378631591796875</LongitudeDegrees>
            </Position>
            <AltitudeMeters>3038.39990234375</AltitudeMeters>
            <DistanceMeters>13766.144266745</DistanceMeters>
          </Trackpoint>
          <Trackpoint>
            <Time>2019-07-15T12:18:23.000Z</Time>
            <Position>
              <LatitudeDegrees>37.05139721743762493133544921875</LatitudeDegrees>
              <LongitudeDegrees>-3.32891550846397876739501953125</LongitudeDegrees>
            </Position>
            <AltitudeMeters>3038.60009765625</AltitudeMeters>
            <DistanceMeters>13782.096305931</DistanceMeters>
          </Trackpoint>
          <Trackpoint>
            <Time>2019-07-15T12:18:24.000Z</Time>
            <Position>
              <LatitudeDegrees>37.05139151774346828460693359375</LatitudeDegrees>
              <LongitudeDegrees>-3.32892640493810176849365234375</LongitudeDegrees>
            </Position>
            <AltitudeMeters>3038.800048828125</AltitudeMeters>
            <DistanceMeters>13783.252355806</DistanceMeters>
          </Trackpoint>
          <Trackpoint>
            <Time>2019-07-15T12:18:25.000Z</Time>
            <Position>
              <LatitudeDegrees>37.05138514749705791473388671875</LatitudeDegrees>
              <LongitudeDegrees>-3.32893478684127330780029296875</LongitudeDegrees>
            </Position>
            <AltitudeMeters>3038.800048828125</AltitudeMeters>
            <DistanceMeters>13784.275824842</DistanceMeters>
          </Trackpoint>
          <Trackpoint>
            <Time>2019-07-15T12:18:26.000Z</Time>
            <Position>
              <LatitudeDegrees>37.05137710087001323699951171875</LatitudeDegrees>
              <LongitudeDegrees>-3.3289424143731594085693359375</LongitudeDegrees>
            </Position>
            <AltitudeMeters>3038.800048828125</AltitudeMeters>
            <DistanceMeters>13785.40019609</DistanceMeters>
          </Trackpoint>
          <Trackpoint>
            <Time>2019-07-15T12:18:27.000Z</Time>
            <Position>
              <LatitudeDegrees>37.05137190409004688262939453125</LatitudeDegrees>
              <LongitudeDegrees>-3.328950293362140655517578125</LongitudeDegrees>
            </Position>
            <AltitudeMeters>3038.800048828125</AltitudeMeters>
            <DistanceMeters>13786.311660314</DistanceMeters>
          </Trackpoint>
          <Trackpoint>
            <Time>2019-07-15T12:18:28.000Z</Time>
            <Position>
              <LatitudeDegrees>37.0513662882149219512939453125</LatitudeDegrees>
              <LongitudeDegrees>-3.32895859144628047943115234375</LongitudeDegrees>
            </Position>
            <AltitudeMeters>3039</AltitudeMeters>
            <DistanceMeters>13787.280746456</DistanceMeters>
          </Trackpoint>
          <Trackpoint>
            <Time>2019-07-15T12:18:29.000Z</Time>
            <Position>
              <LatitudeDegrees>37.05135916359722614288330078125</LatitudeDegrees>
              <LongitudeDegrees>-3.32896999083459377288818359375</LongitudeDegrees>
            </Position>
            <AltitudeMeters>3039</AltitudeMeters>
            <DistanceMeters>13788.566244021</DistanceMeters>
          </Trackpoint>
          <Trackpoint>
            <Time>2019-07-15T12:18:30.000Z</Time>
            <Position>
              <LatitudeDegrees>37.05135195516049861907958984375</LatitudeDegrees>
              <LongitudeDegrees>-3.32897954620420932769775390625</LongitudeDegrees>
            </Position>
            <AltitudeMeters>3039</AltitudeMeters>
            <DistanceMeters>13789.733951837</DistanceMeters>
          </Trackpoint>
          <Trackpoint>
            <Time>2019-07-15T12:18:50.000Z</Time>
            <Position>
              <LatitudeDegrees>37.0512160845100879669189453125</LatitudeDegrees>
              <LongitudeDegrees>-3.32914508879184722900390625</LongitudeDegrees>
            </Position>
            <AltitudeMeters>3039.800048828125</AltitudeMeters>
            <DistanceMeters>13810.82752803</DistanceMeters>
          </Trackpoint>
          <Trackpoint>
            <Time>2019-07-15T12:19:06.000Z</Time>
            <Position>
              <LatitudeDegrees>37.05106831155717372894287109375</LatitudeDegrees>
              <LongitudeDegrees>-3.3292250521481037139892578125</LongitudeDegrees>
            </Position>
            <AltitudeMeters>3040.60009765625</AltitudeMeters>
            <DistanceMeters>13828.743025152</DistanceMeters>
          </Trackpoint>
          <Trackpoint>
            <Time>2019-07-15T12:19:07.000Z</Time>
            <Position>
              <LatitudeDegrees>37.0510595105588436126708984375</LatitudeDegrees>
              <LongitudeDegrees>-3.32923628389835357666015625</LongitudeDegrees>
            </Position>
            <AltitudeMeters>3040.39990234375</AltitudeMeters>
            <DistanceMeters>13830.139626925</DistanceMeters>
          </Trackpoint>
          <Trackpoint>
            <Time>2019-07-15T12:19:08.000Z</Time>
            <Position>
              <LatitudeDegrees>37.05105171538889408111572265625</LatitudeDegrees>
              <LongitudeDegrees>-3.3292458392679691314697265625</LongitudeDegrees>
            </Position>
            <AltitudeMeters>3040.199951171875</AltitudeMeters>
            <DistanceMeters>13831.356562641</DistanceMeters>
          </Trackpoint>
          <Trackpoint>
            <Time>2019-07-15T12:19:09.000Z</Time>
            <Position>
              <LatitudeDegrees>37.05104333348572254180908203125</LatitudeDegrees>
              <LongitudeDegrees>-3.3292525447905063629150390625</LongitudeDegrees>
            </Position>
            <AltitudeMeters>3040</AltitudeMeters>
            <DistanceMeters>13832.464755041</DistanceMeters>
          </Trackpoint>
          <Trackpoint>
            <Time>2019-07-15T12:19:10.000Z</Time>
            <Position>
              <LatitudeDegrees>37.05103377811610698699951171875</LatitudeDegrees>
              <LongitudeDegrees>-3.329257406294345855712890625</LongitudeDegrees>
            </Position>
            <AltitudeMeters>3040.199951171875</AltitudeMeters>
            <DistanceMeters>13833.605075614</DistanceMeters>
          </Trackpoint>
          <Trackpoint>
            <Time>2019-07-15T12:19:13.000Z</Time>
            <Position>
              <LatitudeDegrees>37.0510067045688629150390625</LatitudeDegrees>
              <LongitudeDegrees>-3.32927207462489604949951171875</LongitudeDegrees>
            </Position>
            <AltitudeMeters>3040.800048828125</AltitudeMeters>
            <DistanceMeters>13836.888657693</DistanceMeters>
          </Trackpoint>
          <Trackpoint>
            <Time>2019-07-15T12:19:14.000Z</Time>
            <Position>
              <LatitudeDegrees>37.0509978197515010833740234375</LatitudeDegrees>
              <LongitudeDegrees>-3.3292766846716403961181640625</LongitudeDegrees>
            </Position>
            <AltitudeMeters>3040.800048828125</AltitudeMeters>
            <DistanceMeters>13837.955329917</DistanceMeters>
          </Trackpoint>
          <Trackpoint>
            <Time>2019-07-15T12:19:15.000Z</Time>
            <Position>
              <LatitudeDegrees>37.05098859965801239013671875</LatitudeDegrees>
              <LongitudeDegrees>-3.32928121089935302734375</LongitudeDegrees>
            </Position>
            <AltitudeMeters>3040.800048828125</AltitudeMeters>
            <DistanceMeters>13839.055343663</DistanceMeters>
          </Trackpoint>
          <Trackpoint>
            <Time>2019-07-15T12:19:16.000Z</Time>
            <Position>
              <LatitudeDegrees>37.05097946338355541229248046875</LatitudeDegrees>
              <LongitudeDegrees>-3.329283893108367919921875</LongitudeDegrees>
            </Position>
            <AltitudeMeters>3041</AltitudeMeters>
            <DistanceMeters>13840.100637522</DistanceMeters>
          </Trackpoint>
          <Trackpoint>
            <Time>2019-07-15T12:19:17.000Z</Time>
            <Position>
              <LatitudeDegrees>37.05097024329006671905517578125</LatitudeDegrees>
              <LongitudeDegrees>-3.32929520867764949798583984375</LongitudeDegrees>
            </Position>
            <AltitudeMeters>3040.800048828125</AltitudeMeters>
            <DistanceMeters>13841.535509442</DistanceMeters>
          </Trackpoint>
          <Trackpoint>
            <Time>2019-07-15T12:19:18.000Z</Time>
            <Position>
              <LatitudeDegrees>37.05096018500626087188720703125</LatitudeDegrees>
              <LongitudeDegrees>-3.32930040545761585235595703125</LongitudeDegrees>
            </Position>
            <AltitudeMeters>3040.800048828125</AltitudeMeters>
            <DistanceMeters>13842.745002057</DistanceMeters>
          </Trackpoint>
          <Trackpoint>
            <Time>2019-07-15T12:19:19.000Z</Time>
            <Position>
              <LatitudeDegrees>37.050949037075042724609375</LatitudeDegrees>
              <LongitudeDegrees>-3.3292984776198863983154296875</LongitudeDegrees>
            </Position>
            <AltitudeMeters>3040.60009765625</AltitudeMeters>
            <DistanceMeters>13843.998490509</DistanceMeters>
          </Trackpoint>
          <Trackpoint>
            <Time>2019-07-15T12:19:20.000Z</Time>
            <Position>
              <LatitudeDegrees>37.0509404875338077545166015625</LatitudeDegrees>
              <LongitudeDegrees>-3.329300321638584136962890625</LongitudeDegrees>
            </Position>
            <AltitudeMeters>3040.39990234375</AltitudeMeters>
            <DistanceMeters>13844.962906329</DistanceMeters>
          </Trackpoint>
          <Trackpoint>
            <Time>2019-07-15T12:19:21.000Z</Time>
            <Position>
              <LatitudeDegrees>37.05093269236385822296142578125</LatitudeDegrees>
              <LongitudeDegrees>-3.32930333912372589111328125</LongitudeDegrees>
            </Position>
            <AltitudeMeters>3040.39990234375</AltitudeMeters>
            <DistanceMeters>13845.86940341</DistanceMeters>
          </Trackpoint>
          <Trackpoint>
            <Time>2019-07-15T12:19:28.000Z</Time>
            <Position>
              <LatitudeDegrees>37.05086966045200824737548828125</LatitudeDegrees>
              <LongitudeDegrees>-3.32930929027497768402099609375</LongitudeDegrees>
            </Position>
            <AltitudeMeters>3041</AltitudeMeters>
            <DistanceMeters>13852.905231653</DistanceMeters>
          </Trackpoint>
          <Trackpoint>
            <Time>2019-07-15T12:19:29.000Z</Time>
            <Position>
              <LatitudeDegrees>37.0508606918156147003173828125</LatitudeDegrees>
              <LongitudeDegrees>-3.329311050474643707275390625</LongitudeDegrees>
            </Position>
            <AltitudeMeters>3041</AltitudeMeters>
            <DistanceMeters>13853.919839318</DistanceMeters>
          </Trackpoint>
          <Trackpoint>
            <Time>2019-07-15T12:19:30.000Z</Time>
            <Position>
              <LatitudeDegrees>37.05085314810276031494140625</LatitudeDegrees>
              <LongitudeDegrees>-3.3293189294636249542236328125</LongitudeDegrees>
            </Position>
            <AltitudeMeters>3041</AltitudeMeters>
            <DistanceMeters>13855.007469776</DistanceMeters>
          </Trackpoint>
          <Trackpoint>
            <Time>2019-07-15T12:19:31.000Z</Time>
            <Position>
              <LatitudeDegrees>37.05084585584700107574462890625</LatitudeDegrees>
              <LongitudeDegrees>-3.32932488061487674713134765625</LongitudeDegrees>
            </Position>
            <AltitudeMeters>3041.199951171875</AltitudeMeters>
            <DistanceMeters>13855.971885596</DistanceMeters>
          </Trackpoint>
          <Trackpoint>
            <Time>2019-07-15T12:19:32.000Z</Time>
            <Position>
              <LatitudeDegrees>37.0508378930389881134033203125</LatitudeDegrees>
              <LongitudeDegrees>-3.3293296582996845245361328125</LongitudeDegrees>
            </Position>
            <AltitudeMeters>3041.199951171875</AltitudeMeters>
            <DistanceMeters>13856.959432181</DistanceMeters>
          </Trackpoint>
          <Trackpoint>
            <Time>2019-07-15T12:19:33.000Z</Time>
            <Position>
              <LatitudeDegrees>37.05082925967872142791748046875</LatitudeDegrees>
              <LongitudeDegrees>-3.32933552563190460205078125</LongitudeDegrees>
            </Position>
            <AltitudeMeters>3041.199951171875</AltitudeMeters>
            <DistanceMeters>13858.059445927</DistanceMeters>
          </Trackpoint>
          <Trackpoint>
            <Time>2019-07-15T12:19:34.000Z</Time>
            <Position>
              <LatitudeDegrees>37.050821967422962188720703125</LatitudeDegrees>
              <LongitudeDegrees>-3.32934952341020107269287109375</LongitudeDegrees>
            </Position>
            <AltitudeMeters>3041.39990234375</AltitudeMeters>
            <DistanceMeters>13859.543810658</DistanceMeters>
          </Trackpoint>
          <Trackpoint>
            <Time>2019-07-15T12:19:35.000Z</Time>
            <Position>
              <LatitudeDegrees>37.0508140884339809417724609375</LatitudeDegrees>
              <LongitudeDegrees>-3.32935907877981662750244140625</LongitudeDegrees>
            </Position>
            <AltitudeMeters>3041.39990234375</AltitudeMeters>
            <DistanceMeters>13860.768144227</DistanceMeters>
          </Trackpoint>
          <Trackpoint>
            <Time>2019-07-15T12:19:43.000Z</Time>
            <Position>
              <LatitudeDegrees>37.0507473684847354888916015625</LatitudeDegrees>
              <LongitudeDegrees>-3.3293978869915008544921875</LongitudeDegrees>
            </Position>
            <AltitudeMeters>3042</AltitudeMeters>
            <DistanceMeters>13868.955345058</DistanceMeters>
          </Trackpoint>
          <Trackpoint>
            <Time>2019-07-15T12:19:57.000Z</Time>
            <Position>
              <LatitudeDegrees>37.05064988695085048675537109375</LatitudeDegrees>
              <LongitudeDegrees>-3.3294858969748020172119140625</LongitudeDegrees>
            </Position>
            <AltitudeMeters>3043.800048828125</AltitudeMeters>
            <DistanceMeters>13882.328477226</DistanceMeters>
          </Trackpoint>
          <Trackpoint>
            <Time>2019-07-15T12:19:58.000Z</Time>
            <Position>
              <LatitudeDegrees>37.0506430976092815399169921875</LatitudeDegrees>
              <LongitudeDegrees>-3.32949520088732242584228515625</LongitudeDegrees>
            </Position>
            <AltitudeMeters>3044</AltitudeMeters>
            <DistanceMeters>13883.452848473</DistanceMeters>
          </Trackpoint>
          <Trackpoint>
            <Time>2019-07-15T12:19:59.000Z</Time>
            <Position>
              <LatitudeDegrees>37.05063580535352230072021484375</LatitudeDegrees>
              <LongitudeDegrees>-3.3295023255050182342529296875</LongitudeDegrees>
            </Position>
            <AltitudeMeters>3044</AltitudeMeters>
            <DistanceMeters>13884.485102812</DistanceMeters>
          </Trackpoint>
          <Trackpoint>
            <Time>2019-07-15T12:20:20.000Z</Time>
            <Position>
              <LatitudeDegrees>37.0505096577107906341552734375</LatitudeDegrees>
              <LongitudeDegrees>-3.3297021500766277313232421875</LongitudeDegrees>
            </Position>
            <AltitudeMeters>3045.800048828125</AltitudeMeters>
            <DistanceMeters>13907.117426074</DistanceMeters>
          </Trackpoint>
          <Trackpoint>
            <Time>2019-07-15T12:20:40.000Z</Time>
            <Position>
              <LatitudeDegrees>37.05033891834318637847900390625</LatitudeDegrees>
              <LongitudeDegrees>-3.32972721196711063385009765625</LongitudeDegrees>
            </Position>
            <AltitudeMeters>3046.39990234375</AltitudeMeters>
            <DistanceMeters>13926.250860922</DistanceMeters>
          </Trackpoint>
          <Trackpoint>
            <Time>2019-07-15T12:20:59.000Z</Time>
            <Position>
              <LatitudeDegrees>37.0501535944640636444091796875</LatitudeDegrees>
              <LongitudeDegrees>-3.3296521939337253570556640625</LongitudeDegrees>
            </Position>
            <AltitudeMeters>3047</AltitudeMeters>
            <DistanceMeters>13947.927577181</DistanceMeters>
          </Trackpoint>
          <Trackpoint>
            <Time>2019-07-15T12:21:19.000Z</Time>
            <Position>
              <LatitudeDegrees>37.0500054024159908294677734375</LatitudeDegrees>
              <LongitudeDegrees>-3.329802565276622772216796875</LongitudeDegrees>
            </Position>
            <AltitudeMeters>3047.39990234375</AltitudeMeters>
            <DistanceMeters>13969.152171961</DistanceMeters>
          </Trackpoint>
          <Trackpoint>
            <Time>2019-07-15T12:21:36.000Z</Time>
            <Position>
              <LatitudeDegrees>37.04987280070781707763671875</LatitudeDegrees>
              <LongitudeDegrees>-3.32996492274105548858642578125</LongitudeDegrees>
            </Position>
            <AltitudeMeters>3047.199951171875</AltitudeMeters>
            <DistanceMeters>13989.788071383</DistanceMeters>
          </Trackpoint>
          <Trackpoint>
            <Time>2019-07-15T12:21:55.000Z</Time>
            <Position>
              <LatitudeDegrees>37.0496992953121662139892578125</LatitudeDegrees>
              <LongitudeDegrees>-3.3300847001373767852783203125</LongitudeDegrees>
            </Position>
            <AltitudeMeters>3047.199951171875</AltitudeMeters>
            <DistanceMeters>14011.836726567</DistanceMeters>
          </Trackpoint>
          <Trackpoint>
            <Time>2019-07-15T12:22:12.000Z</Time>
            <Position>
              <LatitudeDegrees>37.04950307495892047882080078125</LatitudeDegrees>
              <LongitudeDegrees>-3.3300568722188472747802734375</LongitudeDegrees>
            </Position>
            <AltitudeMeters>3046.60009765625</AltitudeMeters>
            <DistanceMeters>14033.815647592</DistanceMeters>
          </Trackpoint>
          <Trackpoint>
            <Time>2019-07-15T12:22:23.000Z</Time>
            <Position>
              <LatitudeDegrees>37.049386985599994659423828125</LatitudeDegrees>
              <LongitudeDegrees>-3.33008646033704280853271484375</LongitudeDegrees>
            </Position>
            <AltitudeMeters>3046.60009765625</AltitudeMeters>
            <DistanceMeters>14047.001096458</DistanceMeters>
          </Trackpoint>
          <Trackpoint>
            <Time>2019-07-15T12:22:24.000Z</Time>
            <Position>
              <LatitudeDegrees>37.04937466420233249664306640625</LatitudeDegrees>
              <LongitudeDegrees>-3.3300826884806156158447265625</LongitudeDegrees>
            </Position>
            <AltitudeMeters>3046.60009765625</AltitudeMeters>
            <DistanceMeters>14048.416962613</DistanceMeters>
          </Trackpoint>
          <Trackpoint>
            <Time>2019-07-15T12:22:25.000Z</Time>
            <Position>
              <LatitudeDegrees>37.04936225898563861846923828125</LatitudeDegrees>
              <LongitudeDegrees>-3.33007757551968097686767578125</LongitudeDegrees>
            </Position>
            <AltitudeMeters>3046.60009765625</AltitudeMeters>
            <DistanceMeters>14049.876790699</DistanceMeters>
          </Trackpoint>
          <Trackpoint>
            <Time>2019-07-15T12:22:26.000Z</Time>
            <Position>
              <LatitudeDegrees>37.049348093569278717041015625</LatitudeDegrees>
              <LongitudeDegrees>-3.33007045090198516845703125</LongitudeDegrees>
            </Position>
            <AltitudeMeters>3046.60009765625</AltitudeMeters>
            <DistanceMeters>14051.576680243</DistanceMeters>
          </Trackpoint>
          <Trackpoint>
            <Time>2019-07-15T12:22:27.000Z</Time>
            <Position>
              <LatitudeDegrees>37.049335353076457977294921875</LatitudeDegrees>
              <LongitudeDegrees>-3.33007086999714374542236328125</LongitudeDegrees>
            </Position>
            <AltitudeMeters>3046.60009765625</AltitudeMeters>
            <DistanceMeters>14052.992546399</DistanceMeters>
          </Trackpoint>
          <Trackpoint>
            <Time>2019-07-15T12:22:30.000Z</Time>
            <Position>
              <LatitudeDegrees>37.0493043400347232818603515625</LatitudeDegrees>
              <LongitudeDegrees>-3.3300766535103321075439453125</LongitudeDegrees>
            </Position>
            <AltitudeMeters>3046.39990234375</AltitudeMeters>
            <DistanceMeters>14056.481463573</DistanceMeters>
          </Trackpoint>
          <Trackpoint>
            <Time>2019-07-15T12:22:35.000Z</Time>
            <Position>
              <LatitudeDegrees>37.04924424178898334503173828125</LatitudeDegrees>
              <LongitudeDegrees>-3.33006986416876316070556640625</LongitudeDegrees>
            </Position>
            <AltitudeMeters>3046.60009765625</AltitudeMeters>
            <DistanceMeters>14063.197506443</DistanceMeters>
          </Trackpoint>
          <Trackpoint>
            <Time>2019-07-15T12:23:16.000Z</Time>
            <Position>
              <LatitudeDegrees>37.049081213772296905517578125</LatitudeDegrees>
              <LongitudeDegrees>-3.33014563657343387603759765625</LongitudeDegrees>
            </Position>
            <AltitudeMeters>3048</AltitudeMeters>
            <DistanceMeters>14082.551254682</DistanceMeters>
          </Trackpoint>
          <Trackpoint>
            <Time>2019-07-15T12:23:33.000Z</Time>
            <Position>
              <LatitudeDegrees>37.0488931238651275634765625</LatitudeDegrees>
              <LongitudeDegrees>-3.33016960881650447845458984375</LongitudeDegrees>
            </Position>
            <AltitudeMeters>3049.39990234375</AltitudeMeters>
            <DistanceMeters>14103.594040346</DistanceMeters>
          </Trackpoint>
          <Trackpoint>
            <Time>2019-07-15T12:23:53.000Z</Time>
            <Position>
              <LatitudeDegrees>37.048716433346271514892578125</LatitudeDegrees>
              <LongitudeDegrees>-3.33026616834104061126708984375</LongitudeDegrees>
            </Position>
            <AltitudeMeters>3052.39990234375</AltitudeMeters>
            <DistanceMeters>14125.049464764</DistanceMeters>
          </Trackpoint>
          <Trackpoint>
            <Time>2019-07-15T12:24:17.000Z</Time>
            <Position>
              <LatitudeDegrees>37.0485417544841766357421875</LatitudeDegrees>
              <LongitudeDegrees>-3.33038820885121822357177734375</LongitudeDegrees>
            </Position>
            <AltitudeMeters>3055.39990234375</AltitudeMeters>
            <DistanceMeters>14147.310068416</DistanceMeters>
          </Trackpoint>
          <Trackpoint>
            <Time>2019-07-15T12:24:24.000Z</Time>
            <Position>
              <LatitudeDegrees>37.0484923012554645538330078125</LatitudeDegrees>
              <LongitudeDegrees>-3.33042391575872898101806640625</LongitudeDegrees>
            </Position>
            <AltitudeMeters>3056.199951171875</AltitudeMeters>
            <DistanceMeters>14153.662659354</DistanceMeters>
          </Trackpoint>
          <Trackpoint>
            <Time>2019-07-15T12:24:25.000Z</Time>
            <Position>
              <LatitudeDegrees>37.04848551191389560699462890625</LatitudeDegrees>
              <LongitudeDegrees>-3.33043062128126621246337890625</LongitudeDegrees>
            </Position>
            <AltitudeMeters>3056.39990234375</AltitudeMeters>
            <DistanceMeters>14154.622382125</DistanceMeters>
          </Trackpoint>
          <Trackpoint>
            <Time>2019-07-15T12:24:49.000Z</Time>
            <Position>
              <LatitudeDegrees>37.048317454755306243896484375</LatitudeDegrees>
              <LongitudeDegrees>-3.33054277114570140838623046875</LongitudeDegrees>
            </Position>
            <AltitudeMeters>3059.39990234375</AltitudeMeters>
            <DistanceMeters>14175.815256922</DistanceMeters>
          </Trackpoint>
          <Trackpoint>
            <Time>2019-07-15T12:25:11.000Z</Time>
            <Position>
              <LatitudeDegrees>37.0481335557997226715087890625</LatitudeDegrees>
              <LongitudeDegrees>-3.33059423603117465972900390625</LongitudeDegrees>
            </Position>
            <AltitudeMeters>3060.800048828125</AltitudeMeters>
            <DistanceMeters>14196.787977861</DistanceMeters>
          </Trackpoint>
          <Trackpoint>
            <Time>2019-07-15T12:25:32.000Z</Time>
            <Position>
              <LatitudeDegrees>37.04794563353061676025390625</LatitudeDegrees>
              <LongitudeDegrees>-3.33064704202115535736083984375</LongitudeDegrees>
            </Position>
            <AltitudeMeters>3062.199951171875</AltitudeMeters>
            <DistanceMeters>14218.223611973</DistanceMeters>
          </Trackpoint>
          <Trackpoint>
            <Time>2019-07-15T12:25:42.000Z</Time>
            <Position>
              <LatitudeDegrees>37.04786240123212337493896484375</LatitudeDegrees>
              <LongitudeDegrees>-3.33070001564919948577880859375</LongitudeDegrees>
            </Position>
            <AltitudeMeters>3063</AltitudeMeters>
            <DistanceMeters>14228.614165085</DistanceMeters>
          </Trackpoint>
          <Trackpoint>
            <Time>2019-07-15T12:25:44.000Z</Time>
            <Position>
              <LatitudeDegrees>37.04784798435866832733154296875</LatitudeDegrees>
              <LongitudeDegrees>-3.33071057684719562530517578125</LongitudeDegrees>
            </Position>
            <AltitudeMeters>3063</AltitudeMeters>
            <DistanceMeters>14230.47144514</DistanceMeters>
          </Trackpoint>
          <Trackpoint>
            <Time>2019-07-15T12:25:45.000Z</Time>
            <Position>
              <LatitudeDegrees>37.04784178175032138824462890625</LatitudeDegrees>
              <LongitudeDegrees>-3.3307180367410182952880859375</LongitudeDegrees>
            </Position>
            <AltitudeMeters>3063</AltitudeMeters>
            <DistanceMeters>14231.4264518</DistanceMeters>
          </Trackpoint>
          <Trackpoint>
            <Time>2019-07-15T12:25:46.000Z</Time>
            <Position>
              <LatitudeDegrees>37.0478351600468158721923828125</LatitudeDegrees>
              <LongitudeDegrees>-3.33072784356772899627685546875</LongitudeDegrees>
            </Position>
            <AltitudeMeters>3063.199951171875</AltitudeMeters>
            <DistanceMeters>14232.562806028</DistanceMeters>
          </Trackpoint>
          <Trackpoint>
            <Time>2019-07-15T12:25:53.000Z</Time>
            <Position>
              <LatitudeDegrees>37.04779668711125850677490234375</LatitudeDegrees>
              <LongitudeDegrees>-3.330789618194103240966796875</LongitudeDegrees>
            </Position>
            <AltitudeMeters>3062.800048828125</AltitudeMeters>
            <DistanceMeters>14239.522499271</DistanceMeters>
          </Trackpoint>
          <Trackpoint>
            <Time>2019-07-15T12:25:54.000Z</Time>
            <Position>
              <LatitudeDegrees>37.0477915741503238677978515625</LatitudeDegrees>
              <LongitudeDegrees>-3.3308005146682262420654296875</LongitudeDegrees>
            </Position>
            <AltitudeMeters>3062.60009765625</AltitudeMeters>
            <DistanceMeters>14240.646870519</DistanceMeters>
          </Trackpoint>
          <Trackpoint>
            <Time>2019-07-15T12:25:55.000Z</Time>
            <Position>
              <LatitudeDegrees>37.04778545536100864410400390625</LatitudeDegrees>
              <LongitudeDegrees>-3.3308102376759052276611328125</LongitudeDegrees>
            </Position>
            <AltitudeMeters>3062.199951171875</AltitudeMeters>
            <DistanceMeters>14241.746884266</DistanceMeters>
          </Trackpoint>
          <Trackpoint>
            <Time>2019-07-15T12:25:56.000Z</Time>
            <Position>
              <LatitudeDegrees>37.04777824692428112030029296875</LatitudeDegrees>
              <LongitudeDegrees>-3.33082054741680622100830078125</LongitudeDegrees>
            </Position>
            <AltitudeMeters>3062.199951171875</AltitudeMeters>
            <DistanceMeters>14242.963819982</DistanceMeters>
          </Trackpoint>
          <Trackpoint>
            <Time>2019-07-15T12:25:57.000Z</Time>
            <Position>
              <LatitudeDegrees>37.047770954668521881103515625</LatitudeDegrees>
              <LongitudeDegrees>-3.33083194680511951446533203125</LongitudeDegrees>
            </Position>
            <AltitudeMeters>3062.60009765625</AltitudeMeters>
            <DistanceMeters>14244.259811578</DistanceMeters>
          </Trackpoint>
          <Trackpoint>
            <Time>2019-07-15T12:25:58.000Z</Time>
            <Position>
              <LatitudeDegrees>37.047764249145984649658203125</LatitudeDegrees>
              <LongitudeDegrees>-3.33084317855536937713623046875</LongitudeDegrees>
            </Position>
            <AltitudeMeters>3062.60009765625</AltitudeMeters>
            <DistanceMeters>14245.506075254</DistanceMeters>
          </Trackpoint>
          <Trackpoint>
            <Time>2019-07-15T12:26:03.000Z</Time>
            <Position>
              <LatitudeDegrees>37.04773918725550174713134765625</LatitudeDegrees>
              <LongitudeDegrees>-3.33090000785887241363525390625</LongitudeDegrees>
            </Position>
            <AltitudeMeters>3063.39990234375</AltitudeMeters>
            <DistanceMeters>14251.273813252</DistanceMeters>
          </Trackpoint>
          <Trackpoint>
            <Time>2019-07-15T12:26:04.000Z</Time>
            <Position>
              <LatitudeDegrees>37.04773315228521823883056640625</LatitudeDegrees>
              <LongitudeDegrees>-3.33091006614267826080322265625</LongitudeDegrees>
            </Position>
            <AltitudeMeters>3063.60009765625</AltitudeMeters>
            <DistanceMeters>14252.390124387</DistanceMeters>
          </Trackpoint>
          <Trackpoint>
            <Time>2019-07-15T12:26:05.000Z</Time>
            <Position>
              <LatitudeDegrees>37.0477285422384738922119140625</LatitudeDegrees>
              <LongitudeDegrees>-3.3309212140738964080810546875</LongitudeDegrees>
            </Position>
            <AltitudeMeters>3063.60009765625</AltitudeMeters>
            <DistanceMeters>14253.498316787</DistanceMeters>
          </Trackpoint>
          <Trackpoint>
            <Time>2019-07-15T12:26:16.000Z</Time>
            <Position>
              <LatitudeDegrees>37.04767816700041294097900390625</LatitudeDegrees>
              <LongitudeDegrees>-3.33106194622814655303955078125</LongitudeDegrees>
            </Position>
            <AltitudeMeters>3063.800048828125</AltitudeMeters>
            <DistanceMeters>14267.199969581</DistanceMeters>
          </Trackpoint>
          <Trackpoint>
            <Time>2019-07-15T12:26:17.000Z</Time>
            <Position>
              <LatitudeDegrees>37.04767816700041294097900390625</LatitudeDegrees>
              <LongitudeDegrees>-3.3310754410922527313232421875</LongitudeDegrees>
            </Position>
            <AltitudeMeters>3063.800048828125</AltitudeMeters>
            <DistanceMeters>14268.394436858</DistanceMeters>
          </Trackpoint>
          <Trackpoint>
            <Time>2019-07-15T12:26:18.000Z</Time>
            <Position>
              <LatitudeDegrees>37.0476762391626834869384765625</LatitudeDegrees>
              <LongitudeDegrees>-3.3310885168612003326416015625</LongitudeDegrees>
            </Position>
            <AltitudeMeters>3064</AltitudeMeters>
            <DistanceMeters>14269.577509912</DistanceMeters>
          </Trackpoint>
          <Trackpoint>
            <Time>2019-07-15T12:26:19.000Z</Time>
            <Position>
              <LatitudeDegrees>37.0476762391626834869384765625</LatitudeDegrees>
              <LongitudeDegrees>-3.331101424992084503173828125</LongitudeDegrees>
            </Position>
            <AltitudeMeters>3064</AltitudeMeters>
            <DistanceMeters>14270.72572207</DistanceMeters>
          </Trackpoint>
          <Trackpoint>
            <Time>2019-07-15T12:26:20.000Z</Time>
            <Position>
              <LatitudeDegrees>37.0476765744388103485107421875</LatitudeDegrees>
              <LongitudeDegrees>-3.33111458458006381988525390625</LongitudeDegrees>
            </Position>
            <AltitudeMeters>3064</AltitudeMeters>
            <DistanceMeters>14271.897290087</DistanceMeters>
          </Trackpoint>
          <Trackpoint>
            <Time>2019-07-15T12:26:21.000Z</Time>
            <Position>
              <LatitudeDegrees>37.04767464660108089447021484375</LatitudeDegrees>
              <LongitudeDegrees>-3.331128247082233428955078125</LongitudeDegrees>
            </Position>
            <AltitudeMeters>3064</AltitudeMeters>
            <DistanceMeters>14273.132637374</DistanceMeters>
          </Trackpoint>
          <Trackpoint>
            <Time>2019-07-15T12:26:22.000Z</Time>
            <Position>
              <LatitudeDegrees>37.04767213203012943267822265625</LatitudeDegrees>
              <LongitudeDegrees>-3.3311404846608638763427734375</LongitudeDegrees>
            </Position>
            <AltitudeMeters>3064.199951171875</AltitudeMeters>
            <DistanceMeters>14274.257008622</DistanceMeters>
          </Trackpoint>
          <Trackpoint>
            <Time>2019-07-15T12:26:35.000Z</Time>
            <Position>
              <LatitudeDegrees>37.047635503113269805908203125</LatitudeDegrees>
              <LongitudeDegrees>-3.33127702586352825164794921875</LongitudeDegrees>
            </Position>
            <AltitudeMeters>3065.60009765625</AltitudeMeters>
            <DistanceMeters>14287.05354746</DistanceMeters>
          </Trackpoint>
          <Trackpoint>
            <Time>2019-07-15T12:26:40.000Z</Time>
            <Position>
              <LatitudeDegrees>37.0476163923740386962890625</LatitudeDegrees>
              <LongitudeDegrees>-3.3313396386802196502685546875</LongitudeDegrees>
            </Position>
            <AltitudeMeters>3065.800048828125</AltitudeMeters>
            <DistanceMeters>14293.007712399</DistanceMeters>
          </Trackpoint>
          <Trackpoint>
            <Time>2019-07-15T12:26:41.000Z</Time>
            <Position>
              <LatitudeDegrees>37.04761262051761150360107421875</LatitudeDegrees>
              <LongitudeDegrees>-3.33135313354432582855224609375</LongitudeDegrees>
            </Position>
            <AltitudeMeters>3065.800048828125</AltitudeMeters>
            <DistanceMeters>14294.275526899</DistanceMeters>
          </Trackpoint>
          <Trackpoint>
            <Time>2019-07-15T12:26:42.000Z</Time>
            <Position>
              <LatitudeDegrees>37.0476088486611843109130859375</LatitudeDegrees>
              <LongitudeDegrees>-3.33136403001844882965087890625</LongitudeDegrees>
            </Position>
            <AltitudeMeters>3065.800048828125</AltitudeMeters>
            <DistanceMeters>14295.333699606</DistanceMeters>
          </Trackpoint>
          <Trackpoint>
            <Time>2019-07-15T12:26:53.000Z</Time>
            <Position>
              <LatitudeDegrees>37.047558724880218505859375</LatitudeDegrees>
              <LongitudeDegrees>-3.33148154430091381072998046875</LongitudeDegrees>
            </Position>
            <AltitudeMeters>3066.60009765625</AltitudeMeters>
            <DistanceMeters>14307.170534745</DistanceMeters>
          </Trackpoint>
          <Trackpoint>
            <Time>2019-07-15T12:26:54.000Z</Time>
            <Position>
              <LatitudeDegrees>37.047553360462188720703125</LatitudeDegrees>
              <LongitudeDegrees>-3.3314915187656879425048828125</LongitudeDegrees>
            </Position>
            <AltitudeMeters>3066.60009765625</AltitudeMeters>
            <DistanceMeters>14308.237206969</DistanceMeters>
          </Trackpoint>
          <Trackpoint>
            <Time>2019-07-15T12:26:55.000Z</Time>
            <Position>
              <LatitudeDegrees>37.047549001872539520263671875</LatitudeDegrees>
              <LongitudeDegrees>-3.33150099031627178192138671875</LongitudeDegrees>
            </Position>
            <AltitudeMeters>3066.800048828125</AltitudeMeters>
            <DistanceMeters>14309.201622789</DistanceMeters>
          </Trackpoint>
          <Trackpoint>
            <Time>2019-07-15T12:27:33.000Z</Time>
            <Position>
              <LatitudeDegrees>37.047500722110271453857421875</LatitudeDegrees>
              <LongitudeDegrees>-3.33160442300140857696533203125</LongitudeDegrees>
            </Position>
            <AltitudeMeters>3067.199951171875</AltitudeMeters>
            <DistanceMeters>14319.845887401</DistanceMeters>
          </Trackpoint>
          <Trackpoint>
            <Time>2019-07-15T12:27:39.000Z</Time>
            <Position>
              <LatitudeDegrees>37.04751673154532909393310546875</LatitudeDegrees>
              <LongitudeDegrees>-3.3315900899469852447509765625</LongitudeDegrees>
            </Position>
            <AltitudeMeters>3067</AltitudeMeters>
            <DistanceMeters>14322.033566654</DistanceMeters>
          </Trackpoint>
          <Trackpoint>
            <Time>2019-07-15T12:27:46.000Z</Time>
            <Position>
              <LatitudeDegrees>37.04752385616302490234375</LatitudeDegrees>
              <LongitudeDegrees>-3.33157919347286224365234375</LongitudeDegrees>
            </Position>
            <AltitudeMeters>3066.800048828125</AltitudeMeters>
            <DistanceMeters>14323.287055107</DistanceMeters>
          </Trackpoint>
          <Trackpoint>
            <Time>2019-07-15T12:27:51.000Z</Time>
            <Position>
              <LatitudeDegrees>37.04750818200409412384033203125</LatitudeDegrees>
              <LongitudeDegrees>-3.33163342438638210296630859375</LongitudeDegrees>
            </Position>
            <AltitudeMeters>3067.39990234375</AltitudeMeters>
            <DistanceMeters>14328.411453833</DistanceMeters>
          </Trackpoint>
          <Trackpoint>
            <Time>2019-07-15T12:27:52.000Z</Time>
            <Position>
              <LatitudeDegrees>37.0475049130618572235107421875</LatitudeDegrees>
              <LongitudeDegrees>-3.3316454105079174041748046875</LongitudeDegrees>
            </Position>
            <AltitudeMeters>3067.39990234375</AltitudeMeters>
            <DistanceMeters>14329.53582508</DistanceMeters>
          </Trackpoint>
          <Trackpoint>
            <Time>2019-07-15T12:27:53.000Z</Time>
            <Position>
              <LatitudeDegrees>37.0475012250244617462158203125</LatitudeDegrees>
              <LongitudeDegrees>-3.331657312810420989990234375</LongitudeDegrees>
            </Position>
            <AltitudeMeters>3067.39990234375</AltitudeMeters>
            <DistanceMeters>14330.676145653</DistanceMeters>
          </Trackpoint>
          <Trackpoint>
            <Time>2019-07-15T12:27:54.000Z</Time>
            <Position>
              <LatitudeDegrees>37.0474941842257976531982421875</LatitudeDegrees>
              <LongitudeDegrees>-3.331670053303241729736328125</LongitudeDegrees>
            </Position>
            <AltitudeMeters>3067.60009765625</AltitudeMeters>
            <DistanceMeters>14332.053213572</DistanceMeters>
          </Trackpoint>
          <Trackpoint>
            <Time>2019-07-15T12:27:55.000Z</Time>
            <Position>
              <LatitudeDegrees>37.0474871434271335601806640625</LatitudeDegrees>
              <LongitudeDegrees>-3.33168136887252330780029296875</LongitudeDegrees>
            </Position>
            <AltitudeMeters>3067.800048828125</AltitudeMeters>
            <DistanceMeters>14333.32813073</DistanceMeters>
          </Trackpoint>
          <Trackpoint>
            <Time>2019-07-15T12:27:56.000Z</Time>
            <Position>
              <LatitudeDegrees>37.04748186282813549041748046875</LatitudeDegrees>
              <LongitudeDegrees>-3.33169561810791492462158203125</LongitudeDegrees>
            </Position>
            <AltitudeMeters>3067.800048828125</AltitudeMeters>
            <DistanceMeters>14334.724732502</DistanceMeters>
          </Trackpoint>
          <Trackpoint>
            <Time>2019-07-15T12:27:57.000Z</Time>
            <Position>
              <LatitudeDegrees>37.047475911676883697509765625</LatitudeDegrees>
              <LongitudeDegrees>-3.33171196281909942626953125</LongitudeDegrees>
            </Position>
            <AltitudeMeters>3068</AltitudeMeters>
            <DistanceMeters>14336.31483357</DistanceMeters>
          </Trackpoint>
          <Trackpoint>
            <Time>2019-07-15T12:28:17.000Z</Time>
            <Position>
              <LatitudeDegrees>37.0474388636648654937744140625</LatitudeDegrees>
              <LongitudeDegrees>-3.33196216262876987457275390625</LongitudeDegrees>
            </Position>
            <AltitudeMeters>3070.39990234375</AltitudeMeters>
            <DistanceMeters>14358.920408678</DistanceMeters>
          </Trackpoint>
          <Trackpoint>
            <Time>2019-07-15T12:28:23.000Z</Time>
            <Position>
              <LatitudeDegrees>37.04743844456970691680908203125</LatitudeDegrees>
              <LongitudeDegrees>-3.33203759975731372833251953125</LongitudeDegrees>
            </Position>
            <AltitudeMeters>3071.199951171875</AltitudeMeters>
            <DistanceMeters>14365.621645143</DistanceMeters>
          </Trackpoint>
          <Trackpoint>
            <Time>2019-07-15T12:28:24.000Z</Time>
            <Position>
              <LatitudeDegrees>37.04743869602680206298828125</LatitudeDegrees>
              <LongitudeDegrees>-3.3320504240691661834716796875</LongitudeDegrees>
            </Position>
            <AltitudeMeters>3071.199951171875</AltitudeMeters>
            <DistanceMeters>14366.761965715</DistanceMeters>
          </Trackpoint>
          <Trackpoint>
            <Time>2019-07-15T12:28:25.000Z</Time>
            <Position>
              <LatitudeDegrees>37.04743844456970691680908203125</LatitudeDegrees>
              <LongitudeDegrees>-3.33206157200038433074951171875</LongitudeDegrees>
            </Position>
            <AltitudeMeters>3071.199951171875</AltitudeMeters>
            <DistanceMeters>14367.749512299</DistanceMeters>
          </Trackpoint>
          <Trackpoint>
            <Time>2019-07-15T12:28:47.000Z</Time>
            <Position>
              <LatitudeDegrees>37.04745470546185970306396484375</LatitudeDegrees>
              <LongitudeDegrees>-3.3323161303997039794921875</LongitudeDegrees>
            </Position>
            <AltitudeMeters>3073.199951171875</AltitudeMeters>
            <DistanceMeters>14390.435237253</DistanceMeters>
          </Trackpoint>
          <Trackpoint>
            <Time>2019-07-15T12:29:06.000Z</Time>
            <Position>
              <LatitudeDegrees>37.047427631914615631103515625</LatitudeDegrees>
              <LongitudeDegrees>-3.332567922770977020263671875</LongitudeDegrees>
            </Position>
            <AltitudeMeters>3074.800048828125</AltitudeMeters>
            <DistanceMeters>14413.00523221</DistanceMeters>
          </Trackpoint>
          <Trackpoint>
            <Time>2019-07-15T12:29:17.000Z</Time>
            <Position>
              <LatitudeDegrees>37.04737692140042781829833984375</LatitudeDegrees>
              <LongitudeDegrees>-3.33269004710018634796142578125</LongitudeDegrees>
            </Position>
            <AltitudeMeters>3075</AltitudeMeters>
            <DistanceMeters>14425.234546421</DistanceMeters>
          </Trackpoint>
          <Trackpoint>
            <Time>2019-07-15T12:29:40.000Z</Time>
            <Position>
              <LatitudeDegrees>37.047258652746677398681640625</LatitudeDegrees>
              <LongitudeDegrees>-3.33285382948815822601318359375</LongitudeDegrees>
            </Position>
            <AltitudeMeters>3075.800048828125</AltitudeMeters>
            <DistanceMeters>14444.855204385</DistanceMeters>
          </Trackpoint>
          <Trackpoint>
            <Time>2019-07-15T12:29:59.000Z</Time>
            <Position>
              <LatitudeDegrees>37.04712546430528163909912109375</LatitudeDegrees>
              <LongitudeDegrees>-3.33300939761102199554443359375</LongitudeDegrees>
            </Position>
            <AltitudeMeters>3076.60009765625</AltitudeMeters>
            <DistanceMeters>14465.121976628</DistanceMeters>
          </Trackpoint>
          <Trackpoint>
            <Time>2019-07-15T12:30:03.000Z</Time>
            <Position>
              <LatitudeDegrees>37.04709671437740325927734375</LatitudeDegrees>
              <LongitudeDegrees>-3.3330371417105197906494140625</LongitudeDegrees>
            </Position>
            <AltitudeMeters>3077</AltitudeMeters>
            <DistanceMeters>14469.160332489</DistanceMeters>
          </Trackpoint>
          <Trackpoint>
            <Time>2019-07-15T12:30:04.000Z</Time>
            <Position>
              <LatitudeDegrees>37.04709327779710292816162109375</LatitudeDegrees>
              <LongitudeDegrees>-3.33304996602237224578857421875</LongitudeDegrees>
            </Position>
            <AltitudeMeters>3077.199951171875</AltitudeMeters>
            <DistanceMeters>14470.362335913</DistanceMeters>
          </Trackpoint>
          <Trackpoint>
            <Time>2019-07-15T12:30:05.000Z</Time>
            <Position>
              <LatitudeDegrees>37.0470874942839145660400390625</LatitudeDegrees>
              <LongitudeDegrees>-3.333060108125209808349609375</LongitudeDegrees>
            </Position>
            <AltitudeMeters>3077.199951171875</AltitudeMeters>
            <DistanceMeters>14471.470528313</DistanceMeters>
          </Trackpoint>
          <Trackpoint>
            <Time>2019-07-15T12:30:06.000Z</Time>
            <Position>
              <LatitudeDegrees>37.04707986675202846527099609375</LatitudeDegrees>
              <LongitudeDegrees>-3.33306505344808101654052734375</LongitudeDegrees>
            </Position>
            <AltitudeMeters>3077.199951171875</AltitudeMeters>
            <DistanceMeters>14472.430251084</DistanceMeters>
          </Trackpoint>
          <Trackpoint>
            <Time>2019-07-15T12:30:07.000Z</Time>
            <Position>
              <LatitudeDegrees>37.0470720715820789337158203125</LatitudeDegrees>
              <LongitudeDegrees>-3.33307125605642795562744140625</LongitudeDegrees>
            </Position>
            <AltitudeMeters>3077.199951171875</AltitudeMeters>
            <DistanceMeters>14473.458122158</DistanceMeters>
          </Trackpoint>
          <Trackpoint>
            <Time>2019-07-15T12:30:08.000Z</Time>
            <Position>
              <LatitudeDegrees>37.04706427641212940216064453125</LatitudeDegrees>
              <LongitudeDegrees>-3.3330773748457431793212890625</LongitudeDegrees>
            </Position>
            <AltitudeMeters>3077.199951171875</AltitudeMeters>
            <DistanceMeters>14474.481591194</DistanceMeters>
          </Trackpoint>
          <Trackpoint>
            <Time>2019-07-15T12:30:15.000Z</Time>
            <Position>
              <LatitudeDegrees>37.04701733775436878204345703125</LatitudeDegrees>
              <LongitudeDegrees>-3.33313286304473876953125</LongitudeDegrees>
            </Position>
            <AltitudeMeters>3077.800048828125</AltitudeMeters>
            <DistanceMeters>14481.664127426</DistanceMeters>
          </Trackpoint>
          <Trackpoint>
            <Time>2019-07-15T12:30:16.000Z</Time>
            <Position>
              <LatitudeDegrees>37.04700694419443607330322265625</LatitudeDegrees>
              <LongitudeDegrees>-3.3331347070634365081787109375</LongitudeDegrees>
            </Position>
            <AltitudeMeters>3077.800048828125</AltitudeMeters>
            <DistanceMeters>14482.831835241</DistanceMeters>
          </Trackpoint>
          <Trackpoint>
            <Time>2019-07-15T12:30:17.000Z</Time>
            <Position>
              <LatitudeDegrees>37.046998478472232818603515625</LatitudeDegrees>
              <LongitudeDegrees>-3.3331400714814662933349609375</LongitudeDegrees>
            </Position>
            <AltitudeMeters>3077.800048828125</AltitudeMeters>
            <DistanceMeters>14483.890007949</DistanceMeters>
          </Trackpoint>
          <Trackpoint>
            <Time>2019-07-15T12:30:18.000Z</Time>
            <Position>
              <LatitudeDegrees>37.0469895936548709869384765625</LatitudeDegrees>
              <LongitudeDegrees>-3.3331444300711154937744140625</LongitudeDegrees>
            </Position>
            <AltitudeMeters>3077.800048828125</AltitudeMeters>
            <DistanceMeters>14484.956680172</DistanceMeters>
          </Trackpoint>
          <Trackpoint>
            <Time>2019-07-15T12:30:19.000Z</Time>
            <Position>
              <LatitudeDegrees>37.046981044113636016845703125</LatitudeDegrees>
              <LongitudeDegrees>-3.33315406925976276397705078125</LongitudeDegrees>
            </Position>
            <AltitudeMeters>3077.800048828125</AltitudeMeters>
            <DistanceMeters>14486.238660637</DistanceMeters>
          </Trackpoint>
          <Trackpoint>
            <Time>2019-07-15T12:30:20.000Z</Time>
            <Position>
              <LatitudeDegrees>37.046974338591098785400390625</LatitudeDegrees>
              <LongitudeDegrees>-3.33316664211452007293701171875</LongitudeDegrees>
            </Position>
            <AltitudeMeters>3077.800048828125</AltitudeMeters>
            <DistanceMeters>14487.58254132</DistanceMeters>
          </Trackpoint>
          <Trackpoint>
            <Time>2019-07-15T12:30:39.000Z</Time>
            <Position>
              <LatitudeDegrees>37.04682220704853534698486328125</LatitudeDegrees>
              <LongitudeDegrees>-3.33330259658396244049072265625</LongitudeDegrees>
            </Position>
            <AltitudeMeters>3078.800048828125</AltitudeMeters>
            <DistanceMeters>14508.3810216</DistanceMeters>
          </Trackpoint>
          <Trackpoint>
            <Time>2019-07-15T12:31:00.000Z</Time>
            <Position>
              <LatitudeDegrees>37.046641074120998382568359375</LatitudeDegrees>
              <LongitudeDegrees>-3.3334361203014850616455078125</LongitudeDegrees>
            </Position>
            <AltitudeMeters>3080</AltitudeMeters>
            <DistanceMeters>14531.772074629</DistanceMeters>
          </Trackpoint>
          <Trackpoint>
            <Time>2019-07-15T12:31:11.000Z</Time>
            <Position>
              <LatitudeDegrees>37.04653470776975154876708984375</LatitudeDegrees>
              <LongitudeDegrees>-3.33349236287176609039306640625</LongitudeDegrees>
            </Position>
            <AltitudeMeters>3080.800048828125</AltitudeMeters>
            <DistanceMeters>14544.622132133</DistanceMeters>
          </Trackpoint>
          <Trackpoint>
            <Time>2019-07-15T12:31:12.000Z</Time>
            <Position>
              <LatitudeDegrees>37.0465242303907871246337890625</LatitudeDegrees>
              <LongitudeDegrees>-3.33350074477493762969970703125</LongitudeDegrees>
            </Position>
            <AltitudeMeters>3080.800048828125</AltitudeMeters>
            <DistanceMeters>14546.005741979</DistanceMeters>
          </Trackpoint>
          <Trackpoint>
            <Time>2019-07-15T12:31:13.000Z</Time>
            <Position>
              <LatitudeDegrees>37.046517692506313323974609375</LatitudeDegrees>
              <LongitudeDegrees>-3.3335102163255214691162109375</LongitudeDegrees>
            </Position>
            <AltitudeMeters>3080.800048828125</AltitudeMeters>
            <DistanceMeters>14547.11393438</DistanceMeters>
          </Trackpoint>
          <Trackpoint>
            <Time>2019-07-15T12:31:34.000Z</Time>
            <Position>
              <LatitudeDegrees>37.04634242691099643707275390625</LatitudeDegrees>
              <LongitudeDegrees>-3.3336111344397068023681640625</LongitudeDegrees>
            </Position>
            <AltitudeMeters>3082.199951171875</AltitudeMeters>
            <DistanceMeters>14568.58282261</DistanceMeters>
          </Trackpoint>
          <Trackpoint>
            <Time>2019-07-15T12:31:38.000Z</Time>
            <Position>
              <LatitudeDegrees>37.04630420543253421783447265625</LatitudeDegrees>
              <LongitudeDegrees>-3.33363167010247707366943359375</LongitudeDegrees>
            </Position>
            <AltitudeMeters>3082.800048828125</AltitudeMeters>
            <DistanceMeters>14573.211901504</DistanceMeters>
          </Trackpoint>
          <Trackpoint>
            <Time>2019-07-15T12:31:59.000Z</Time>
            <Position>
              <LatitudeDegrees>37.04614796675741672515869140625</LatitudeDegrees>
              <LongitudeDegrees>-3.333800733089447021484375</LongitudeDegrees>
            </Position>
            <AltitudeMeters>3085.60009765625</AltitudeMeters>
            <DistanceMeters>14596.189510377</DistanceMeters>
          </Trackpoint>
          <Trackpoint>
            <Time>2019-07-15T12:32:11.000Z</Time>
            <Position>
              <LatitudeDegrees>37.0460548438131809234619140625</LatitudeDegrees>
              <LongitudeDegrees>-3.33390290848910808563232421875</LongitudeDegrees>
            </Position>
            <AltitudeMeters>3086.60009765625</AltitudeMeters>
            <DistanceMeters>14609.967073185</DistanceMeters>
          </Trackpoint>
          <Trackpoint>
            <Time>2019-07-15T12:32:12.000Z</Time>
            <Position>
              <LatitudeDegrees>37.046046294271945953369140625</LatitudeDegrees>
              <LongitudeDegrees>-3.3339098654687404632568359375</LongitudeDegrees>
            </Position>
            <AltitudeMeters>3086.60009765625</AltitudeMeters>
            <DistanceMeters>14611.099447176</DistanceMeters>
          </Trackpoint>
          <Trackpoint>
            <Time>2019-07-15T12:32:14.000Z</Time>
            <Position>
              <LatitudeDegrees>37.046031542122364044189453125</LatitudeDegrees>
              <LongitudeDegrees>-3.3339286409318447113037109375</LongitudeDegrees>
            </Position>
            <AltitudeMeters>3086.800048828125</AltitudeMeters>
            <DistanceMeters>14613.438726194</DistanceMeters>
          </Trackpoint>
          <Trackpoint>
            <Time>2019-07-15T12:32:15.000Z</Time>
            <Position>
              <LatitudeDegrees>37.04602626152336597442626953125</LatitudeDegrees>
              <LongitudeDegrees>-3.333939202129840850830078125</LongitudeDegrees>
            </Position>
            <AltitudeMeters>3087</AltitudeMeters>
            <DistanceMeters>14614.538739941</DistanceMeters>
          </Trackpoint>
          <Trackpoint>
            <Time>2019-07-15T12:32:16.000Z</Time>
            <Position>
              <LatitudeDegrees>37.04601938836276531219482421875</LatitudeDegrees>
              <LongitudeDegrees>-3.333950601518154144287109375</LongitudeDegrees>
            </Position>
            <AltitudeMeters>3087</AltitudeMeters>
            <DistanceMeters>14615.806554441</DistanceMeters>
          </Trackpoint>
          <Trackpoint>
            <Time>2019-07-15T12:32:17.000Z</Time>
            <Position>
              <LatitudeDegrees>37.0460152812302112579345703125</LatitudeDegrees>
              <LongitudeDegrees>-3.33396367728710174560546875</LongitudeDegrees>
            </Position>
            <AltitudeMeters>3087</AltitudeMeters>
            <DistanceMeters>14617.060042894</DistanceMeters>
          </Trackpoint>
          <Trackpoint>
            <Time>2019-07-15T12:32:18.000Z</Time>
            <Position>
              <LatitudeDegrees>37.0460129342973232269287109375</LatitudeDegrees>
              <LongitudeDegrees>-3.33398153074085712432861328125</LongitudeDegrees>
            </Position>
            <AltitudeMeters>3087.199951171875</AltitudeMeters>
            <DistanceMeters>14618.667090455</DistanceMeters>
          </Trackpoint>
          <Trackpoint>
            <Time>2019-07-15T12:32:19.000Z</Time>
            <Position>
              <LatitudeDegrees>37.04600983299314975738525390625</LatitudeDegrees>
              <LongitudeDegrees>-3.33399846218526363372802734375</LongitudeDegrees>
            </Position>
            <AltitudeMeters>3087.39990234375</AltitudeMeters>
            <DistanceMeters>14620.208164789</DistanceMeters>
          </Trackpoint>
          <Trackpoint>
            <Time>2019-07-15T12:32:25.000Z</Time>
            <Position>
              <LatitudeDegrees>37.04598787240684032440185546875</LatitudeDegrees>
              <LongitudeDegrees>-3.33406451158225536346435546875</LongitudeDegrees>
            </Position>
            <AltitudeMeters>3087.39990234375</AltitudeMeters>
            <DistanceMeters>14626.564308432</DistanceMeters>
          </Trackpoint>
          <Trackpoint>
            <Time>2019-07-15T12:32:26.000Z</Time>
            <Position>
              <LatitudeDegrees>37.04598896205425262451171875</LatitudeDegrees>
              <LongitudeDegrees>-3.33407658152282238006591796875</LongitudeDegrees>
            </Position>
            <AltitudeMeters>3087.199951171875</AltitudeMeters>
            <DistanceMeters>14627.639412978</DistanceMeters>
          </Trackpoint>
          <Trackpoint>
            <Time>2019-07-15T12:32:29.000Z</Time>
            <Position>
              <LatitudeDegrees>37.04598468728363513946533203125</LatitudeDegrees>
              <LongitudeDegrees>-3.33411991596221923828125</LongitudeDegrees>
            </Position>
            <AltitudeMeters>3086.800048828125</AltitudeMeters>
            <DistanceMeters>14631.51808638</DistanceMeters>
          </Trackpoint>
          <Trackpoint>
            <Time>2019-07-15T12:32:30.000Z</Time>
            <Position>
              <LatitudeDegrees>37.0459827594459056854248046875</LatitudeDegrees>
              <LongitudeDegrees>-3.33413341082632541656494140625</LongitudeDegrees>
            </Position>
            <AltitudeMeters>3086.800048828125</AltitudeMeters>
            <DistanceMeters>14632.735022096</DistanceMeters>
          </Trackpoint>
          <Trackpoint>
            <Time>2019-07-15T12:32:31.000Z</Time>
            <Position>
              <LatitudeDegrees>37.0459842681884765625</LatitudeDegrees>
              <LongitudeDegrees>-3.33414799533784389495849609375</LongitudeDegrees>
            </Position>
            <AltitudeMeters>3086.800048828125</AltitudeMeters>
            <DistanceMeters>14634.044874959</DistanceMeters>
          </Trackpoint>
          <Trackpoint>
            <Time>2019-07-15T12:32:33.000Z</Time>
            <Position>
              <LatitudeDegrees>37.0459841005504131317138671875</LatitudeDegrees>
              <LongitudeDegrees>-3.33417666144669055938720703125</LongitudeDegrees>
            </Position>
            <AltitudeMeters>3086.60009765625</AltitudeMeters>
            <DistanceMeters>14636.591165376</DistanceMeters>
          </Trackpoint>
          <Trackpoint>
            <Time>2019-07-15T12:32:35.000Z</Time>
            <Position>
              <LatitudeDegrees>37.04597513191401958465576171875</LatitudeDegrees>
              <LongitudeDegrees>-3.33419292233884334564208984375</LongitudeDegrees>
            </Position>
            <AltitudeMeters>3086.39990234375</AltitudeMeters>
            <DistanceMeters>14638.348517402</DistanceMeters>
          </Trackpoint>
          <Trackpoint>
            <Time>2019-07-15T12:32:41.000Z</Time>
            <Position>
              <LatitudeDegrees>37.04593841917812824249267578125</LatitudeDegrees>
              <LongitudeDegrees>-3.3342531882226467132568359375</LongitudeDegrees>
            </Position>
            <AltitudeMeters>3086</AltitudeMeters>
            <DistanceMeters>14645.083357711</DistanceMeters>
          </Trackpoint>
          <Trackpoint>
            <Time>2019-07-15T12:32:51.000Z</Time>
            <Position>
              <LatitudeDegrees>37.045928947627544403076171875</LatitudeDegrees>
              <LongitudeDegrees>-3.33438050933182239532470703125</LongitudeDegrees>
            </Position>
            <AltitudeMeters>3083.60009765625</AltitudeMeters>
            <DistanceMeters>14656.442528557</DistanceMeters>
          </Trackpoint>
          <Trackpoint>
            <Time>2019-07-15T12:32:52.000Z</Time>
            <Position>
              <LatitudeDegrees>37.04592249356210231781005859375</LatitudeDegrees>
              <LongitudeDegrees>-3.33438553847372531890869140625</LongitudeDegrees>
            </Position>
            <AltitudeMeters>3083.39990234375</AltitudeMeters>
            <DistanceMeters>14657.287144469</DistanceMeters>
          </Trackpoint>
          <Trackpoint>
            <Time>2019-07-15T12:32:53.000Z</Time>
            <Position>
              <LatitudeDegrees>37.04591394402086734771728515625</LatitudeDegrees>
              <LongitudeDegrees>-3.33439811132848262786865234375</LongitudeDegrees>
            </Position>
            <AltitudeMeters>3083.199951171875</AltitudeMeters>
            <DistanceMeters>14658.753145217</DistanceMeters>
          </Trackpoint>
          <Trackpoint>
            <Time>2019-07-15T12:32:58.000Z</Time>
            <Position>
              <LatitudeDegrees>37.04587371088564395904541015625</LatitudeDegrees>
              <LongitudeDegrees>-3.334412612020969390869140625</LongitudeDegrees>
            </Position>
            <AltitudeMeters>3083</AltitudeMeters>
            <DistanceMeters>14663.412362294</DistanceMeters>
          </Trackpoint>
          <Trackpoint>
            <Time>2019-07-15T12:33:01.000Z</Time>
            <Position>
              <LatitudeDegrees>37.04585074447095394134521484375</LatitudeDegrees>
              <LongitudeDegrees>-3.3344243466854095458984375</LongitudeDegrees>
            </Position>
            <AltitudeMeters>3082.60009765625</AltitudeMeters>
            <DistanceMeters>14666.17304781</DistanceMeters>
          </Trackpoint>
          <Trackpoint>
            <Time>2019-07-15T12:33:57.000Z</Time>
            <Position>
              <LatitudeDegrees>37.04571244306862354278564453125</LatitudeDegrees>
              <LongitudeDegrees>-3.3344613946974277496337890625</LongitudeDegrees>
            </Position>
            <AltitudeMeters>3080.60009765625</AltitudeMeters>
            <DistanceMeters>14681.914245275</DistanceMeters>
          </Trackpoint>
          <Trackpoint>
            <Time>2019-07-15T12:34:05.000Z</Time>
            <Position>
              <LatitudeDegrees>37.04575502313673496246337890625</LatitudeDegrees>
              <LongitudeDegrees>-3.33443582989275455474853515625</LongitudeDegrees>
            </Position>
            <AltitudeMeters>3080.39990234375</AltitudeMeters>
            <DistanceMeters>14687.170004387</DistanceMeters>
          </Trackpoint>
          <Trackpoint>
            <Time>2019-07-15T12:35:00.000Z</Time>
            <Position>
              <LatitudeDegrees>37.04581235535442829132080078125</LatitudeDegrees>
              <LongitudeDegrees>-3.33436491899192333221435546875</LongitudeDegrees>
            </Position>
            <AltitudeMeters>3081</AltitudeMeters>
            <DistanceMeters>14696.136821027</DistanceMeters>
          </Trackpoint>
          <Trackpoint>
            <Time>2019-07-15T12:35:01.000Z</Time>
            <Position>
              <LatitudeDegrees>37.04580791294574737548828125</LatitudeDegrees>
              <LongitudeDegrees>-3.33437480963766574859619140625</LongitudeDegrees>
            </Position>
            <AltitudeMeters>3081</AltitudeMeters>
            <DistanceMeters>14697.142489243</DistanceMeters>
          </Trackpoint>
          <Trackpoint>
            <Time>2019-07-15T12:35:07.000Z</Time>
            <Position>
              <LatitudeDegrees>37.0457859523594379425048828125</LatitudeDegrees>
              <LongitudeDegrees>-3.3343829400837421417236328125</LongitudeDegrees>
            </Position>
            <AltitudeMeters>3081</AltitudeMeters>
            <DistanceMeters>14699.692323559</DistanceMeters>
          </Trackpoint>
          <Trackpoint>
            <Time>2019-07-15T12:36:32.000Z</Time>
            <Position>
              <LatitudeDegrees>37.04583364538848400115966796875</LatitudeDegrees>
              <LongitudeDegrees>-3.334357626736164093017578125</LongitudeDegrees>
            </Position>
            <AltitudeMeters>3081</AltitudeMeters>
            <DistanceMeters>14705.456929471</DistanceMeters>
          </Trackpoint>
          <Trackpoint>
            <Time>2019-07-15T12:36:44.000Z</Time>
            <Position>
              <LatitudeDegrees>37.04580917023122310638427734375</LatitudeDegrees>
              <LongitudeDegrees>-3.3343701995909214019775390625</LongitudeDegrees>
            </Position>
            <AltitudeMeters>3081</AltitudeMeters>
            <DistanceMeters>14708.401224528</DistanceMeters>
          </Trackpoint>
          <Trackpoint>
            <Time>2019-07-15T12:37:09.000Z</Time>
            <Position>
              <LatitudeDegrees>37.0458429493010044097900390625</LatitudeDegrees>
              <LongitudeDegrees>-3.33437271416187286376953125</LongitudeDegrees>
            </Position>
            <AltitudeMeters>3080.60009765625</AltitudeMeters>
            <DistanceMeters>14712.168886956</DistanceMeters>
          </Trackpoint>
          <Trackpoint>
            <Time>2019-07-15T12:37:22.000Z</Time>
            <Position>
              <LatitudeDegrees>37.04579190351068973541259765625</LatitudeDegrees>
              <LongitudeDegrees>-3.33437665365636348724365234375</LongitudeDegrees>
            </Position>
            <AltitudeMeters>3080.800048828125</AltitudeMeters>
            <DistanceMeters>14717.860979215</DistanceMeters>
          </Trackpoint>
          <Trackpoint>
            <Time>2019-07-15T12:37:23.000Z</Time>
            <Position>
              <LatitudeDegrees>37.04578109085559844970703125</LatitudeDegrees>
              <LongitudeDegrees>-3.334376402199268341064453125</LongitudeDegrees>
            </Position>
            <AltitudeMeters>3080.800048828125</AltitudeMeters>
            <DistanceMeters>14719.062982639</DistanceMeters>
          </Trackpoint>
          <Trackpoint>
            <Time>2019-07-15T12:37:53.000Z</Time>
            <Position>
              <LatitudeDegrees>37.04576407559216022491455078125</LatitudeDegrees>
              <LongitudeDegrees>-3.334371037781238555908203125</LongitudeDegrees>
            </Position>
            <AltitudeMeters>3081.199951171875</AltitudeMeters>
            <DistanceMeters>14721.015082088</DistanceMeters>
          </Trackpoint>
          <Trackpoint>
            <Time>2019-07-15T12:38:28.000Z</Time>
            <Position>
              <LatitudeDegrees>37.04576742835342884063720703125</LatitudeDegrees>
              <LongitudeDegrees>-3.33438453264534473419189453125</LongitudeDegrees>
            </Position>
            <AltitudeMeters>3081.199951171875</AltitudeMeters>
            <DistanceMeters>14722.268570541</DistanceMeters>
          </Trackpoint>
          <Trackpoint>
            <Time>2019-07-15T12:39:33.000Z</Time>
            <Position>
              <LatitudeDegrees>37.045740522444248199462890625</LatitudeDegrees>
              <LongitudeDegrees>-3.33437246270477771759033203125</LongitudeDegrees>
            </Position>
            <AltitudeMeters>3080.60009765625</AltitudeMeters>
            <DistanceMeters>14725.448772675</DistanceMeters>
          </Trackpoint>
          <Trackpoint>
            <Time>2019-07-15T12:39:43.000Z</Time>
            <Position>
              <LatitudeDegrees>37.045769356191158294677734375</LatitudeDegrees>
              <LongitudeDegrees>-3.3343601413071155548095703125</LongitudeDegrees>
            </Position>
            <AltitudeMeters>3081</AltitudeMeters>
            <DistanceMeters>14728.840574171</DistanceMeters>
          </Trackpoint>
          <Trackpoint>
            <Time>2019-07-15T12:40:04.000Z</Time>
            <Position>
              <LatitudeDegrees>37.04577731899917125701904296875</LatitudeDegrees>
              <LongitudeDegrees>-3.33439014852046966552734375</LongitudeDegrees>
            </Position>
            <AltitudeMeters>3080.800048828125</AltitudeMeters>
            <DistanceMeters>14731.649895586</DistanceMeters>
          </Trackpoint>
          <Trackpoint>
            <Time>2019-07-15T12:40:43.000Z</Time>
            <Position>
              <LatitudeDegrees>37.04576541669666767120361328125</LatitudeDegrees>
              <LongitudeDegrees>-3.33435771055519580841064453125</LongitudeDegrees>
            </Position>
            <AltitudeMeters>3081.199951171875</AltitudeMeters>
            <DistanceMeters>14734.821567883</DistanceMeters>
          </Trackpoint>
          <Trackpoint>
            <Time>2019-07-15T12:40:44.000Z</Time>
            <Position>
              <LatitudeDegrees>37.04577581025660037994384765625</LatitudeDegrees>
              <LongitudeDegrees>-3.3343577943742275238037109375</LongitudeDegrees>
            </Position>
            <AltitudeMeters>3081.199951171875</AltitudeMeters>
            <DistanceMeters>14735.981516757</DistanceMeters>
          </Trackpoint>
          <Trackpoint>
            <Time>2019-07-15T12:40:49.000Z</Time>
            <Position>
              <LatitudeDegrees>37.045812271535396575927734375</LatitudeDegrees>
              <LongitudeDegrees>-3.3343490771949291229248046875</LongitudeDegrees>
            </Position>
            <AltitudeMeters>3081.199951171875</AltitudeMeters>
            <DistanceMeters>14740.112720514</DistanceMeters>
          </Trackpoint>
          <Trackpoint>
            <Time>2019-07-15T12:41:06.000Z</Time>
            <Position>
              <LatitudeDegrees>37.045796178281307220458984375</LatitudeDegrees>
              <LongitudeDegrees>-3.33437095396220684051513671875</LongitudeDegrees>
            </Position>
            <AltitudeMeters>3081.199951171875</AltitudeMeters>
            <DistanceMeters>14742.756445002</DistanceMeters>
          </Trackpoint>
          <Trackpoint>
            <Time>2019-07-15T12:41:19.000Z</Time>
            <Position>
              <LatitudeDegrees>37.04579710029065608978271484375</LatitudeDegrees>
              <LongitudeDegrees>-3.33439039997756481170654296875</LongitudeDegrees>
            </Position>
            <AltitudeMeters>3080.39990234375</AltitudeMeters>
            <DistanceMeters>14744.487914141</DistanceMeters>
          </Trackpoint>
          <Trackpoint>
            <Time>2019-07-15T12:42:11.000Z</Time>
            <Position>
              <LatitudeDegrees>37.04576156102120876312255859375</LatitudeDegrees>
              <LongitudeDegrees>-3.3343581296503543853759765625</LongitudeDegrees>
            </Position>
            <AltitudeMeters>3080.800048828125</AltitudeMeters>
            <DistanceMeters>14749.374172639</DistanceMeters>
          </Trackpoint>
          <Trackpoint>
            <Time>2019-07-15T12:42:15.000Z</Time>
            <Position>
              <LatitudeDegrees>37.04573440365493297576904296875</LatitudeDegrees>
              <LongitudeDegrees>-3.334369361400604248046875</LongitudeDegrees>
            </Position>
            <AltitudeMeters>3081.39990234375</AltitudeMeters>
            <DistanceMeters>14752.55579419</DistanceMeters>
          </Trackpoint>
          <Trackpoint>
            <Time>2019-07-15T12:43:27.000Z</Time>
            <Position>
              <LatitudeDegrees>37.04579073004424571990966796875</LatitudeDegrees>
              <LongitudeDegrees>-3.33437313325703144073486328125</LongitudeDegrees>
            </Position>
            <AltitudeMeters>3080.800048828125</AltitudeMeters>
            <DistanceMeters>14758.833313892</DistanceMeters>
          </Trackpoint>
          <Trackpoint>
            <Time>2019-07-15T12:44:28.000Z</Time>
            <Position>
              <LatitudeDegrees>37.045766003429889678955078125</LatitudeDegrees>
              <LongitudeDegrees>-3.334388472139835357666015625</LongitudeDegrees>
            </Position>
            <AltitudeMeters>3081.199951171875</AltitudeMeters>
            <DistanceMeters>14761.903721</DistanceMeters>
          </Trackpoint>
          <Trackpoint>
            <Time>2019-07-15T12:45:37.000Z</Time>
            <Position>
              <LatitudeDegrees>37.04579676501452922821044921875</LatitudeDegrees>
              <LongitudeDegrees>-3.33434329368174076080322265625</LongitudeDegrees>
            </Position>
            <AltitudeMeters>3080.199951171875</AltitudeMeters>
            <DistanceMeters>14767.179201603</DistanceMeters>
          </Trackpoint>
          <Trackpoint>
            <Time>2019-07-15T12:45:54.000Z</Time>
            <Position>
              <LatitudeDegrees>37.04578645527362823486328125</LatitudeDegrees>
              <LongitudeDegrees>-3.3343581296503543853759765625</LongitudeDegrees>
            </Position>
            <AltitudeMeters>3080.800048828125</AltitudeMeters>
            <DistanceMeters>14768.926246491</DistanceMeters>
          </Trackpoint>
          <Trackpoint>
            <Time>2019-07-15T12:46:09.000Z</Time>
            <Position>
              <LatitudeDegrees>37.04576374031603336334228515625</LatitudeDegrees>
              <LongitudeDegrees>-3.33438654430210590362548828125</LongitudeDegrees>
            </Position>
            <AltitudeMeters>3081.39990234375</AltitudeMeters>
            <DistanceMeters>14772.499554215</DistanceMeters>
          </Trackpoint>
          <Trackpoint>
            <Time>2019-07-15T12:46:42.000Z</Time>
            <Position>
              <LatitudeDegrees>37.0458013750612735748291015625</LatitudeDegrees>
              <LongitudeDegrees>-3.334379084408283233642578125</LongitudeDegrees>
            </Position>
            <AltitudeMeters>3081.39990234375</AltitudeMeters>
            <DistanceMeters>14776.739705415</DistanceMeters>
          </Trackpoint>
          <Trackpoint>
            <Time>2019-07-15T12:47:48.000Z</Time>
            <Position>
              <LatitudeDegrees>37.0457785762846469879150390625</LatitudeDegrees>
              <LongitudeDegrees>-3.33434714935719966888427734375</LongitudeDegrees>
            </Position>
            <AltitudeMeters>3081.60009765625</AltitudeMeters>
            <DistanceMeters>14780.54552236</DistanceMeters>
          </Trackpoint>
          <Trackpoint>
            <Time>2019-07-15T12:48:04.000Z</Time>
            <Position>
              <LatitudeDegrees>37.04577061347663402557373046875</LatitudeDegrees>
              <LongitudeDegrees>-3.334358632564544677734375</LongitudeDegrees>
            </Position>
            <AltitudeMeters>3081.800048828125</AltitudeMeters>
            <DistanceMeters>14781.89610573</DistanceMeters>
          </Trackpoint>
          <Trackpoint>
            <Time>2019-07-15T12:48:26.000Z</Time>
            <Position>
              <LatitudeDegrees>37.045765332877635955810546875</LatitudeDegrees>
              <LongitudeDegrees>-3.3344261907041072845458984375</LongitudeDegrees>
            </Position>
            <AltitudeMeters>3081.39990234375</AltitudeMeters>
            <DistanceMeters>14787.927121227</DistanceMeters>
          </Trackpoint>
          <Trackpoint>
            <Time>2019-07-15T12:48:46.000Z</Time>
            <Position>
              <LatitudeDegrees>37.04580564983189105987548828125</LatitudeDegrees>
              <LongitudeDegrees>-3.334460221230983734130859375</LongitudeDegrees>
            </Position>
            <AltitudeMeters>3081</AltitudeMeters>
            <DistanceMeters>14793.338640229</DistanceMeters>
          </Trackpoint>
          <Trackpoint>
            <Time>2019-07-15T12:48:47.000Z</Time>
            <Position>
              <LatitudeDegrees>37.0458181388676166534423828125</LatitudeDegrees>
              <LongitudeDegrees>-3.334456197917461395263671875</LongitudeDegrees>
            </Position>
            <AltitudeMeters>3081</AltitudeMeters>
            <DistanceMeters>14794.776655356</DistanceMeters>
          </Trackpoint>
          <Trackpoint>
            <Time>2019-07-15T12:48:48.000Z</Time>
            <Position>
              <LatitudeDegrees>37.04582727514207363128662109375</LatitudeDegrees>
              <LongitudeDegrees>-3.3344513364136219024658203125</LongitudeDegrees>
            </Position>
            <AltitudeMeters>3080.800048828125</AltitudeMeters>
            <DistanceMeters>14795.880766002</DistanceMeters>
          </Trackpoint>
          <Trackpoint>
            <Time>2019-07-15T12:48:51.000Z</Time>
            <Position>
              <LatitudeDegrees>37.0458523370325565338134765625</LatitudeDegrees>
              <LongitudeDegrees>-3.33443163894116878509521484375</LongitudeDegrees>
            </Position>
            <AltitudeMeters>3081.60009765625</AltitudeMeters>
            <DistanceMeters>14799.175329992</DistanceMeters>
          </Trackpoint>
          <Trackpoint>
            <Time>2019-07-15T12:49:00.000Z</Time>
            <Position>
              <LatitudeDegrees>37.0459073223173618316650390625</LatitudeDegrees>
              <LongitudeDegrees>-3.334402553737163543701171875</LongitudeDegrees>
            </Position>
            <AltitudeMeters>3082.39990234375</AltitudeMeters>
            <DistanceMeters>14805.819049858</DistanceMeters>
          </Trackpoint>
          <Trackpoint>
            <Time>2019-07-15T12:49:01.000Z</Time>
            <Position>
              <LatitudeDegrees>37.0459158718585968017578125</LatitudeDegrees>
              <LongitudeDegrees>-3.33439811132848262786865234375</LongitudeDegrees>
            </Position>
            <AltitudeMeters>3082.60009765625</AltitudeMeters>
            <DistanceMeters>14806.851304197</DistanceMeters>
          </Trackpoint>
          <Trackpoint>
            <Time>2019-07-15T12:49:02.000Z</Time>
            <Position>
              <LatitudeDegrees>37.04592249356210231781005859375</LatitudeDegrees>
              <LongitudeDegrees>-3.3343929983675479888916015625</LongitudeDegrees>
            </Position>
            <AltitudeMeters>3082.800048828125</AltitudeMeters>
            <DistanceMeters>14807.717038767</DistanceMeters>
          </Trackpoint>
          <Trackpoint>
            <Time>2019-07-15T12:49:11.000Z</Time>
            <Position>
              <LatitudeDegrees>37.04598602838814258575439453125</LatitudeDegrees>
              <LongitudeDegrees>-3.3343410305678844451904296875</LongitudeDegrees>
            </Position>
            <AltitudeMeters>3083.39990234375</AltitudeMeters>
            <DistanceMeters>14816.162128687</DistanceMeters>
          </Trackpoint>
          <Trackpoint>
            <Time>2019-07-15T12:49:12.000Z</Time>
            <Position>
              <LatitudeDegrees>37.04599558375775814056396484375</LatitudeDegrees>
              <LongitudeDegrees>-3.3343423716723918914794921875</LongitudeDegrees>
            </Position>
            <AltitudeMeters>3083.39990234375</AltitudeMeters>
            <DistanceMeters>14817.22880091</DistanceMeters>
          </Trackpoint>
          <Trackpoint>
            <Time>2019-07-15T12:49:13.000Z</Time>
            <Position>
              <LatitudeDegrees>37.0460042171180248260498046875</LatitudeDegrees>
              <LongitudeDegrees>-3.33434346131980419158935546875</LongitudeDegrees>
            </Position>
            <AltitudeMeters>3083.60009765625</AltitudeMeters>
            <DistanceMeters>14818.19321673</DistanceMeters>
          </Trackpoint>
          <Trackpoint>
            <Time>2019-07-15T12:49:29.000Z</Time>
            <Position>
              <LatitudeDegrees>37.04609365202486515045166015625</LatitudeDegrees>
              <LongitudeDegrees>-3.33436458371579647064208984375</LongitudeDegrees>
            </Position>
            <AltitudeMeters>3086.60009765625</AltitudeMeters>
            <DistanceMeters>14828.322814878</DistanceMeters>
          </Trackpoint>
          <Trackpoint>
            <Time>2019-07-15T12:49:36.000Z</Time>
            <Position>
              <LatitudeDegrees>37.0461443625390529632568359375</LatitudeDegrees>
              <LongitudeDegrees>-3.3343827724456787109375</LongitudeDegrees>
            </Position>
            <AltitudeMeters>3086.199951171875</AltitudeMeters>
            <DistanceMeters>14834.193743406</DistanceMeters>
          </Trackpoint>
          <Trackpoint>
            <Time>2019-07-15T12:49:37.000Z</Time>
            <Position>
              <LatitudeDegrees>37.046150900423526763916015625</LatitudeDegrees>
              <LongitudeDegrees>-3.3343894779682159423828125</LongitudeDegrees>
            </Position>
            <AltitudeMeters>3085.800048828125</AltitudeMeters>
            <DistanceMeters>14835.129648003</DistanceMeters>
          </Trackpoint>
          <Trackpoint>
            <Time>2019-07-15T12:49:38.000Z</Time>
            <Position>
              <LatitudeDegrees>37.046161629259586334228515625</LatitudeDegrees>
              <LongitudeDegrees>-3.33439609967172145843505859375</LongitudeDegrees>
            </Position>
            <AltitudeMeters>3085.800048828125</AltitudeMeters>
            <DistanceMeters>14836.460022005</DistanceMeters>
          </Trackpoint>
          <Trackpoint>
            <Time>2019-07-15T12:49:39.000Z</Time>
            <Position>
              <LatitudeDegrees>37.0461708493530750274658203125</LatitudeDegrees>
              <LongitudeDegrees>-3.33440515212714672088623046875</LongitudeDegrees>
            </Position>
            <AltitudeMeters>3086.199951171875</AltitudeMeters>
            <DistanceMeters>14837.762962668</DistanceMeters>
          </Trackpoint>
          <Trackpoint>
            <Time>2019-07-15T12:49:40.000Z</Time>
            <Position>
              <LatitudeDegrees>37.04618048854172229766845703125</LatitudeDegrees>
              <LongitudeDegrees>-3.33441160619258880615234375</LongitudeDegrees>
            </Position>
            <AltitudeMeters>3086.39990234375</AltitudeMeters>
            <DistanceMeters>14838.976182541</DistanceMeters>
          </Trackpoint>
          <Trackpoint>
            <Time>2019-07-15T12:49:41.000Z</Time>
            <Position>
              <LatitudeDegrees>37.04619037918746471405029296875</LatitudeDegrees>
              <LongitudeDegrees>-3.33441806025803089141845703125</LongitudeDegrees>
            </Position>
            <AltitudeMeters>3086.60009765625</AltitudeMeters>
            <DistanceMeters>14840.211529828</DistanceMeters>
          </Trackpoint>
          <Trackpoint>
            <Time>2019-07-15T12:49:59.000Z</Time>
            <Position>
              <LatitudeDegrees>37.04637478105723857879638671875</LatitudeDegrees>
              <LongitudeDegrees>-3.33450523205101490020751953125</LongitudeDegrees>
            </Position>
            <AltitudeMeters>3088</AltitudeMeters>
            <DistanceMeters>14862.148092313</DistanceMeters>
          </Trackpoint>
          <Trackpoint>
            <Time>2019-07-15T12:50:05.000Z</Time>
            <Position>
              <LatitudeDegrees>37.04643496312201023101806640625</LatitudeDegrees>
              <LongitudeDegrees>-3.33451847545802593231201171875</LongitudeDegrees>
            </Position>
            <AltitudeMeters>3088.199951171875</AltitudeMeters>
            <DistanceMeters>14868.948978399</DistanceMeters>
          </Trackpoint>
          <Trackpoint>
            <Time>2019-07-15T12:50:06.000Z</Time>
            <Position>
              <LatitudeDegrees>37.04644468612968921661376953125</LatitudeDegrees>
              <LongitudeDegrees>-3.3345167152583599090576171875</LongitudeDegrees>
            </Position>
            <AltitudeMeters>3088.39990234375</AltitudeMeters>
            <DistanceMeters>14870.040752226</DistanceMeters>
          </Trackpoint>
          <Trackpoint>
            <Time>2019-07-15T12:50:07.000Z</Time>
            <Position>
              <LatitudeDegrees>37.046453654766082763671875</LatitudeDegrees>
              <LongitudeDegrees>-3.33451763726770877838134765625</LongitudeDegrees>
            </Position>
            <AltitudeMeters>3088.39990234375</AltitudeMeters>
            <DistanceMeters>14871.041920786</DistanceMeters>
          </Trackpoint>
          <Trackpoint>
            <Time>2019-07-15T12:50:08.000Z</Time>
            <Position>
              <LatitudeDegrees>37.0464625395834445953369140625</LatitudeDegrees>
              <LongitudeDegrees>-3.3345167152583599090576171875</LongitudeDegrees>
            </Position>
            <AltitudeMeters>3088.39990234375</AltitudeMeters>
            <DistanceMeters>14872.034028811</DistanceMeters>
          </Trackpoint>
          <Trackpoint>
            <Time>2019-07-15T12:50:09.000Z</Time>
            <Position>
              <LatitudeDegrees>37.04647050239145755767822265625</LatitudeDegrees>
              <LongitudeDegrees>-3.33451730199158191680908203125</LongitudeDegrees>
            </Position>
            <AltitudeMeters>3088.39990234375</AltitudeMeters>
            <DistanceMeters>14872.920378996</DistanceMeters>
          </Trackpoint>
          <Trackpoint>
            <Time>2019-07-15T12:50:10.000Z</Time>
            <Position>
              <LatitudeDegrees>37.0464803092181682586669921875</LatitudeDegrees>
              <LongitudeDegrees>-3.33452023565769195556640625</LongitudeDegrees>
            </Position>
            <AltitudeMeters>3088.199951171875</AltitudeMeters>
            <DistanceMeters>14874.044750243</DistanceMeters>
          </Trackpoint>
          <Trackpoint>
            <Time>2019-07-15T12:50:11.000Z</Time>
            <Position>
              <LatitudeDegrees>37.0464903675019741058349609375</LatitudeDegrees>
              <LongitudeDegrees>-3.334522247314453125</LongitudeDegrees>
            </Position>
            <AltitudeMeters>3088.39990234375</AltitudeMeters>
            <DistanceMeters>14875.177124234</DistanceMeters>
          </Trackpoint>
          <Trackpoint>
            <Time>2019-07-15T12:50:12.000Z</Time>
            <Position>
              <LatitudeDegrees>37.0465005934238433837890625</LatitudeDegrees>
              <LongitudeDegrees>-3.33452350459992885589599609375</LongitudeDegrees>
            </Position>
            <AltitudeMeters>3088.39990234375</AltitudeMeters>
            <DistanceMeters>14876.317444807</DistanceMeters>
          </Trackpoint>
          <Trackpoint>
            <Time>2019-07-15T12:50:30.000Z</Time>
            <Position>
              <LatitudeDegrees>37.04668809659779071807861328125</LatitudeDegrees>
              <LongitudeDegrees>-3.3345737121999263763427734375</LongitudeDegrees>
            </Position>
            <AltitudeMeters>3089</AltitudeMeters>
            <DistanceMeters>14897.658083864</DistanceMeters>
          </Trackpoint>
          <Trackpoint>
            <Time>2019-07-15T12:50:31.000Z</Time>
            <Position>
              <LatitudeDegrees>37.0466955564916133880615234375</LatitudeDegrees>
              <LongitudeDegrees>-3.33458150736987590789794921875</LongitudeDegrees>
            </Position>
            <AltitudeMeters>3088.800048828125</AltitudeMeters>
            <DistanceMeters>14898.73318841</DistanceMeters>
          </Trackpoint>
          <Trackpoint>
            <Time>2019-07-15T12:50:32.000Z</Time>
            <Position>
              <LatitudeDegrees>37.0467009209096431732177734375</LatitudeDegrees>
              <LongitudeDegrees>-3.334592320024967193603515625</LongitudeDegrees>
            </Position>
            <AltitudeMeters>3088.800048828125</AltitudeMeters>
            <DistanceMeters>14899.857559657</DistanceMeters>
          </Trackpoint>
          <Trackpoint>
            <Time>2019-07-15T12:50:33.000Z</Time>
            <Position>
              <LatitudeDegrees>37.04670821316540241241455078125</LatitudeDegrees>
              <LongitudeDegrees>-3.33460078574717044830322265625</LongitudeDegrees>
            </Position>
            <AltitudeMeters>3089.39990234375</AltitudeMeters>
            <DistanceMeters>14900.965752058</DistanceMeters>
          </Trackpoint>
          <Trackpoint>
            <Time>2019-07-15T12:50:34.000Z</Time>
            <Position>
              <LatitudeDegrees>37.04671910963952541351318359375</LatitudeDegrees>
              <LongitudeDegrees>-3.33460874855518341064453125</LongitudeDegrees>
            </Position>
            <AltitudeMeters>3090</AltitudeMeters>
            <DistanceMeters>14902.368804682</DistanceMeters>
          </Trackpoint>
          <Trackpoint>
            <Time>2019-07-15T12:50:35.000Z</Time>
            <Position>
              <LatitudeDegrees>37.04672883264720439910888671875</LatitudeDegrees>
              <LongitudeDegrees>-3.33461335860192775726318359375</LongitudeDegrees>
            </Position>
            <AltitudeMeters>3090.39990234375</AltitudeMeters>
            <DistanceMeters>14903.524854557</DistanceMeters>
          </Trackpoint>
          <Trackpoint>
            <Time>2019-07-15T12:50:36.000Z</Time>
            <Position>
              <LatitudeDegrees>37.046738304197788238525390625</LatitudeDegrees>
              <LongitudeDegrees>-3.334617130458354949951171875</LongitudeDegrees>
            </Position>
            <AltitudeMeters>3090.39990234375</AltitudeMeters>
            <DistanceMeters>14904.633046957</DistanceMeters>
          </Trackpoint>
          <Trackpoint>
            <Time>2019-07-15T12:50:37.000Z</Time>
            <Position>
              <LatitudeDegrees>37.04674936830997467041015625</LatitudeDegrees>
              <LongitudeDegrees>-3.33461905829608440399169921875</LongitudeDegrees>
            </Position>
            <AltitudeMeters>3090.60009765625</AltitudeMeters>
            <DistanceMeters>14905.872043727</DistanceMeters>
          </Trackpoint>
          <Trackpoint>
            <Time>2019-07-15T12:50:38.000Z</Time>
            <Position>
              <LatitudeDegrees>37.04675867222249507904052734375</LatitudeDegrees>
              <LongitudeDegrees>-3.33462308160960674285888671875</LongitudeDegrees>
            </Position>
            <AltitudeMeters>3090.60009765625</AltitudeMeters>
            <DistanceMeters>14906.963817554</DistanceMeters>
          </Trackpoint>
          <Trackpoint>
            <Time>2019-07-15T12:50:39.000Z</Time>
            <Position>
              <LatitudeDegrees>37.04676680266857147216796875</LatitudeDegrees>
              <LongitudeDegrees>-3.3346281945705413818359375</LongitudeDegrees>
            </Position>
            <AltitudeMeters>3090.800048828125</AltitudeMeters>
            <DistanceMeters>14907.973965384</DistanceMeters>
          </Trackpoint>
          <Trackpoint>
            <Time>2019-07-15T12:50:40.000Z</Time>
            <Position>
              <LatitudeDegrees>37.0467768609523773193359375</LatitudeDegrees>
              <LongitudeDegrees>-3.33463196642696857452392578125</LongitudeDegrees>
            </Position>
            <AltitudeMeters>3090.800048828125</AltitudeMeters>
            <DistanceMeters>14909.145533402</DistanceMeters>
          </Trackpoint>
          <Trackpoint>
            <Time>2019-07-15T12:50:41.000Z</Time>
            <Position>
              <LatitudeDegrees>37.0467870868742465972900390625</LatitudeDegrees>
              <LongitudeDegrees>-3.3346354030072689056396484375</LongitudeDegrees>
            </Position>
            <AltitudeMeters>3090.800048828125</AltitudeMeters>
            <DistanceMeters>14910.324783915</DistanceMeters>
          </Trackpoint>
          <Trackpoint>
            <Time>2019-07-15T12:50:42.000Z</Time>
            <Position>
              <LatitudeDegrees>37.04679991118609905242919921875</LatitudeDegrees>
              <LongitudeDegrees>-3.33463833667337894439697265625</LongitudeDegrees>
            </Position>
            <AltitudeMeters>3091</AltitudeMeters>
            <DistanceMeters>14911.778413127</DistanceMeters>
          </Trackpoint>
          <Trackpoint>
            <Time>2019-07-15T12:50:46.000Z</Time>
            <Position>
              <LatitudeDegrees>37.0468425750732421875</LatitudeDegrees>
              <LongitudeDegrees>-3.334633894264698028564453125</LongitudeDegrees>
            </Position>
            <AltitudeMeters>3091</AltitudeMeters>
            <DistanceMeters>14916.543034013</DistanceMeters>
          </Trackpoint>
          <Trackpoint>
            <Time>2019-07-15T12:51:04.000Z</Time>
            <Position>
              <LatitudeDegrees>37.0470184274017810821533203125</LatitudeDegrees>
              <LongitudeDegrees>-3.3346132747828960418701171875</LongitudeDegrees>
            </Position>
            <AltitudeMeters>3090.800048828125</AltitudeMeters>
            <DistanceMeters>14936.200935512</DistanceMeters>
          </Trackpoint>
          <Trackpoint>
            <Time>2019-07-15T12:51:05.000Z</Time>
            <Position>
              <LatitudeDegrees>37.0470227859914302825927734375</LatitudeDegrees>
              <LongitudeDegrees>-3.3346159569919109344482421875</LongitudeDegrees>
            </Position>
            <AltitudeMeters>3090.60009765625</AltitudeMeters>
            <DistanceMeters>14936.738487785</DistanceMeters>
          </Trackpoint>
          <Trackpoint>
            <Time>2019-07-15T12:51:06.000Z</Time>
            <Position>
              <LatitudeDegrees>37.0470315031707286834716796875</LatitudeDegrees>
              <LongitudeDegrees>-3.33461922593414783477783203125</LongitudeDegrees>
            </Position>
            <AltitudeMeters>3091</AltitudeMeters>
            <DistanceMeters>14937.757535767</DistanceMeters>
          </Trackpoint>
          <Trackpoint>
            <Time>2019-07-15T12:51:07.000Z</Time>
            <Position>
              <LatitudeDegrees>37.04704181291162967681884765625</LatitudeDegrees>
              <LongitudeDegrees>-3.33462056703865528106689453125</LongitudeDegrees>
            </Position>
            <AltitudeMeters>3091.60009765625</AltitudeMeters>
            <DistanceMeters>14938.909673449</DistanceMeters>
          </Trackpoint>
          <Trackpoint>
            <Time>2019-07-15T12:51:20.000Z</Time>
            <Position>
              <LatitudeDegrees>37.04711976461112499237060546875</LatitudeDegrees>
              <LongitudeDegrees>-3.33460950292646884918212890625</LongitudeDegrees>
            </Position>
            <AltitudeMeters>3092.199951171875</AltitudeMeters>
            <DistanceMeters>14947.640761888</DistanceMeters>
          </Trackpoint>
          <Trackpoint>
            <Time>2019-07-15T12:51:31.000Z</Time>
            <Position>
              <LatitudeDegrees>37.047163434326648712158203125</LatitudeDegrees>
              <LongitudeDegrees>-3.3346094191074371337890625</LongitudeDegrees>
            </Position>
            <AltitudeMeters>3093.39990234375</AltitudeMeters>
            <DistanceMeters>14952.5001497</DistanceMeters>
          </Trackpoint>
          <Trackpoint>
            <Time>2019-07-15T12:51:32.000Z</Time>
            <Position>
              <LatitudeDegrees>37.04717642627656459808349609375</LatitudeDegrees>
              <LongitudeDegrees>-3.3346109278500080108642578125</LongitudeDegrees>
            </Position>
            <AltitudeMeters>3093.39990234375</AltitudeMeters>
            <DistanceMeters>14953.950669541</DistanceMeters>
          </Trackpoint>
          <Trackpoint>
            <Time>2019-07-15T12:51:33.000Z</Time>
            <Position>
              <LatitudeDegrees>37.0471877418458461761474609375</LatitudeDegrees>
              <LongitudeDegrees>-3.334613107144832611083984375</LongitudeDegrees>
            </Position>
            <AltitudeMeters>3093.199951171875</AltitudeMeters>
            <DistanceMeters>14955.222040331</DistanceMeters>
          </Trackpoint>
          <Trackpoint>
            <Time>2019-07-15T12:51:41.000Z</Time>
            <Position>
              <LatitudeDegrees>37.04727332107722759246826171875</LatitudeDegrees>
              <LongitudeDegrees>-3.33462174050509929656982421875</LongitudeDegrees>
            </Position>
            <AltitudeMeters>3093.39990234375</AltitudeMeters>
            <DistanceMeters>14964.777306048</DistanceMeters>
          </Trackpoint>
          <Trackpoint>
            <Time>2019-07-15T12:51:42.000Z</Time>
            <Position>
              <LatitudeDegrees>37.04728153534233570098876953125</LatitudeDegrees>
              <LongitudeDegrees>-3.33462475799024105072021484375</LongitudeDegrees>
            </Position>
            <AltitudeMeters>3093.39990234375</AltitudeMeters>
            <DistanceMeters>14965.727573191</DistanceMeters>
          </Trackpoint>
          <Trackpoint>
            <Time>2019-07-15T12:51:43.000Z</Time>
            <Position>
              <LatitudeDegrees>37.0472913421690464019775390625</LatitudeDegrees>
              <LongitudeDegrees>-3.33462576381862163543701171875</LongitudeDegrees>
            </Position>
            <AltitudeMeters>3093.60009765625</AltitudeMeters>
            <DistanceMeters>14966.827586938</DistanceMeters>
          </Trackpoint>
          <Trackpoint>
            <Time>2019-07-15T12:51:44.000Z</Time>
            <Position>
              <LatitudeDegrees>37.0472998917102813720703125</LatitudeDegrees>
              <LongitudeDegrees>-3.33462492562830448150634765625</LongitudeDegrees>
            </Position>
            <AltitudeMeters>3094</AltitudeMeters>
            <DistanceMeters>14967.787309709</DistanceMeters>
          </Trackpoint>
          <Trackpoint>
            <Time>2019-07-15T12:51:45.000Z</Time>
            <Position>
              <LatitudeDegrees>37.04731003381311893463134765625</LatitudeDegrees>
              <LongitudeDegrees>-3.33462442271411418914794921875</LongitudeDegrees>
            </Position>
            <AltitudeMeters>3094</AltitudeMeters>
            <DistanceMeters>14968.911680957</DistanceMeters>
          </Trackpoint>
          <Trackpoint>
            <Time>2019-07-15T12:51:54.000Z</Time>
            <Position>
              <LatitudeDegrees>37.047395445406436920166015625</LatitudeDegrees>
              <LongitudeDegrees>-3.33462492562830448150634765625</LongitudeDegrees>
            </Position>
            <AltitudeMeters>3094.39990234375</AltitudeMeters>
            <DistanceMeters>14978.417677747</DistanceMeters>
          </Trackpoint>
          <Trackpoint>
            <Time>2019-07-15T12:51:55.000Z</Time>
            <Position>
              <LatitudeDegrees>37.04740508459508419036865234375</LatitudeDegrees>
              <LongitudeDegrees>-3.33462417125701904296875</LongitudeDegrees>
            </Position>
            <AltitudeMeters>3094.60009765625</AltitudeMeters>
            <DistanceMeters>14979.492782293</DistanceMeters>
          </Trackpoint>
          <Trackpoint>
            <Time>2019-07-15T12:51:56.000Z</Time>
            <Position>
              <LatitudeDegrees>37.04741430468857288360595703125</LatitudeDegrees>
              <LongitudeDegrees>-3.33462484180927276611328125</LongitudeDegrees>
            </Position>
            <AltitudeMeters>3094.800048828125</AltitudeMeters>
            <DistanceMeters>14980.520653367</DistanceMeters>
          </Trackpoint>
          <Trackpoint>
            <Time>2019-07-15T12:51:57.000Z</Time>
            <Position>
              <LatitudeDegrees>37.04742386005818843841552734375</LatitudeDegrees>
              <LongitudeDegrees>-3.33462375216186046600341796875</LongitudeDegrees>
            </Position>
            <AltitudeMeters>3094.800048828125</AltitudeMeters>
            <DistanceMeters>14981.58732559</DistanceMeters>
          </Trackpoint>
          <Trackpoint>
            <Time>2019-07-15T12:51:58.000Z</Time>
            <Position>
              <LatitudeDegrees>37.04743308015167713165283203125</LatitudeDegrees>
              <LongitudeDegrees>-3.33462324924767017364501953125</LongitudeDegrees>
            </Position>
            <AltitudeMeters>3094.800048828125</AltitudeMeters>
            <DistanceMeters>14982.615196664</DistanceMeters>
          </Trackpoint>
          <Trackpoint>
            <Time>2019-07-15T12:51:59.000Z</Time>
            <Position>
              <LatitudeDegrees>37.0474425517022609710693359375</LatitudeDegrees>
              <LongitudeDegrees>-3.33462593145668506622314453125</LongitudeDegrees>
            </Position>
            <AltitudeMeters>3094.800048828125</AltitudeMeters>
            <DistanceMeters>14983.69030121</DistanceMeters>
          </Trackpoint>
          <Trackpoint>
            <Time>2019-07-15T12:52:01.000Z</Time>
            <Position>
              <LatitudeDegrees>37.0474626682698726654052734375</LatitudeDegrees>
              <LongitudeDegrees>-3.33463029004633426666259765625</LongitudeDegrees>
            </Position>
            <AltitudeMeters>3095</AltitudeMeters>
            <DistanceMeters>14985.963009666</DistanceMeters>
          </Trackpoint>
          <Trackpoint>
            <Time>2019-07-15T12:52:02.000Z</Time>
            <Position>
              <LatitudeDegrees>37.047473229467868804931640625</LatitudeDegrees>
              <LongitudeDegrees>-3.33463146351277828216552734375</LongitudeDegrees>
            </Position>
            <AltitudeMeters>3095</AltitudeMeters>
            <DistanceMeters>14987.142260179</DistanceMeters>
          </Trackpoint>
          <Trackpoint>
            <Time>2019-07-15T12:52:03.000Z</Time>
            <Position>
              <LatitudeDegrees>37.04748420976102352142333984375</LatitudeDegrees>
              <LongitudeDegrees>-3.3346320502460002899169921875</LongitudeDegrees>
            </Position>
            <AltitudeMeters>3095.199951171875</AltitudeMeters>
            <DistanceMeters>14988.366593748</DistanceMeters>
          </Trackpoint>
          <Trackpoint>
            <Time>2019-07-15T12:52:04.000Z</Time>
            <Position>
              <LatitudeDegrees>37.04749644733965396881103515625</LatitudeDegrees>
              <LongitudeDegrees>-3.3346323855221271514892578125</LongitudeDegrees>
            </Position>
            <AltitudeMeters>3095.199951171875</AltitudeMeters>
            <DistanceMeters>14989.73048368</DistanceMeters>
          </Trackpoint>
          <Trackpoint>
            <Time>2019-07-15T12:52:05.000Z</Time>
            <Position>
              <LatitudeDegrees>37.0475064218044281005859375</LatitudeDegrees>
              <LongitudeDegrees>-3.33463213406503200531005859375</LongitudeDegrees>
            </Position>
            <AltitudeMeters>3095.199951171875</AltitudeMeters>
            <DistanceMeters>14990.838676081</DistanceMeters>
          </Trackpoint>
          <Trackpoint>
            <Time>2019-07-15T12:52:18.000Z</Time>
            <Position>
              <LatitudeDegrees>37.04763323999941349029541015625</LatitudeDegrees>
              <LongitudeDegrees>-3.33463154733180999755859375</LongitudeDegrees>
            </Position>
            <AltitudeMeters>3096.199951171875</AltitudeMeters>
            <DistanceMeters>15004.953902139</DistanceMeters>
          </Trackpoint>
          <Trackpoint>
            <Time>2019-07-15T12:52:20.000Z</Time>
            <Position>
              <LatitudeDegrees>37.0476470701396465301513671875</LatitudeDegrees>
              <LongitudeDegrees>-3.33462894894182682037353515625</LongitudeDegrees>
            </Position>
            <AltitudeMeters>3096.199951171875</AltitudeMeters>
            <DistanceMeters>15006.509556498</DistanceMeters>
          </Trackpoint>
          <Trackpoint>
            <Time>2019-07-15T12:52:21.000Z</Time>
            <Position>
              <LatitudeDegrees>37.04765587113797664642333984375</LatitudeDegrees>
              <LongitudeDegrees>-3.3346293680369853973388671875</LongitudeDegrees>
            </Position>
            <AltitudeMeters>3096.60009765625</AltitudeMeters>
            <DistanceMeters>15007.487916403</DistanceMeters>
          </Trackpoint>
          <Trackpoint>
            <Time>2019-07-15T12:52:41.000Z</Time>
            <Position>
              <LatitudeDegrees>37.0478551089763641357421875</LatitudeDegrees>
              <LongitudeDegrees>-3.33460464142262935638427734375</LongitudeDegrees>
            </Position>
            <AltitudeMeters>3099.199951171875</AltitudeMeters>
            <DistanceMeters>15029.771832884</DistanceMeters>
          </Trackpoint>
          <Trackpoint>
            <Time>2019-07-15T12:52:59.000Z</Time>
            <Position>
              <LatitudeDegrees>37.0480467192828655242919921875</LatitudeDegrees>
              <LongitudeDegrees>-3.33458586595952510833740234375</LongitudeDegrees>
            </Position>
            <AltitudeMeters>3100.199951171875</AltitudeMeters>
            <DistanceMeters>15051.163610601</DistanceMeters>
          </Trackpoint>
          <Trackpoint>
            <Time>2019-07-15T12:53:02.000Z</Time>
            <Position>
              <LatitudeDegrees>37.04807546921074390411376953125</LatitudeDegrees>
              <LongitudeDegrees>-3.3345881290733814239501953125</LongitudeDegrees>
            </Position>
            <AltitudeMeters>3100.39990234375</AltitudeMeters>
            <DistanceMeters>15054.369266071</DistanceMeters>
          </Trackpoint>
          <Trackpoint>
            <Time>2019-07-15T12:53:14.000Z</Time>
            <Position>
              <LatitudeDegrees>37.048192061483860015869140625</LatitudeDegrees>
              <LongitudeDegrees>-3.33457513712346553802490234375</LongitudeDegrees>
            </Position>
            <AltitudeMeters>3100.199951171875</AltitudeMeters>
            <DistanceMeters>15067.397979629</DistanceMeters>
          </Trackpoint>
          <Trackpoint>
            <Time>2019-07-15T12:53:15.000Z</Time>
            <Position>
              <LatitudeDegrees>37.0482029579579830169677734375</LatitudeDegrees>
              <LongitudeDegrees>-3.33457983098924160003662109375</LongitudeDegrees>
            </Position>
            <AltitudeMeters>3100.60009765625</AltitudeMeters>
            <DistanceMeters>15068.683477194</DistanceMeters>
          </Trackpoint>
          <Trackpoint>
            <Time>2019-07-15T12:53:19.000Z</Time>
            <Position>
              <LatitudeDegrees>37.04824578948318958282470703125</LatitudeDegrees>
              <LongitudeDegrees>-3.33457077853381633758544921875</LongitudeDegrees>
            </Position>
            <AltitudeMeters>3101.39990234375</AltitudeMeters>
            <DistanceMeters>15073.517713208</DistanceMeters>
          </Trackpoint>
          <Trackpoint>
            <Time>2019-07-15T12:53:20.000Z</Time>
            <Position>
              <LatitudeDegrees>37.04825542867183685302734375</LatitudeDegrees>
              <LongitudeDegrees>-3.33457094617187976837158203125</LongitudeDegrees>
            </Position>
            <AltitudeMeters>3101.39990234375</AltitudeMeters>
            <DistanceMeters>15074.592817754</DistanceMeters>
          </Trackpoint>
          <Trackpoint>
            <Time>2019-07-15T12:53:26.000Z</Time>
            <Position>
              <LatitudeDegrees>37.04832944087684154510498046875</LatitudeDegrees>
              <LongitudeDegrees>-3.3345638215541839599609375</LongitudeDegrees>
            </Position>
            <AltitudeMeters>3102</AltitudeMeters>
            <DistanceMeters>15082.855225267</DistanceMeters>
          </Trackpoint>
          <Trackpoint>
            <Time>2019-07-15T12:53:27.000Z</Time>
            <Position>
              <LatitudeDegrees>37.04833966679871082305908203125</LatitudeDegrees>
              <LongitudeDegrees>-3.33456306718289852142333984375</LongitudeDegrees>
            </Position>
            <AltitudeMeters>3101.60009765625</AltitudeMeters>
            <DistanceMeters>15083.999498436</DistanceMeters>
          </Trackpoint>
          <Trackpoint>
            <Time>2019-07-15T12:53:28.000Z</Time>
            <Position>
              <LatitudeDegrees>37.0483513176441192626953125</LatitudeDegrees>
              <LongitudeDegrees>-3.33456558175384998321533203125</LongitudeDegrees>
            </Position>
            <AltitudeMeters>3101.60009765625</AltitudeMeters>
            <DistanceMeters>15085.316227215</DistanceMeters>
          </Trackpoint>
          <Trackpoint>
            <Time>2019-07-15T12:53:29.000Z</Time>
            <Position>
              <LatitudeDegrees>37.04836330376565456390380859375</LatitudeDegrees>
              <LongitudeDegrees>-3.33456641994416713714599609375</LongitudeDegrees>
            </Position>
            <AltitudeMeters>3101.800048828125</AltitudeMeters>
            <DistanceMeters>15086.653371611</DistanceMeters>
          </Trackpoint>
          <Trackpoint>
            <Time>2019-07-15T12:53:30.000Z</Time>
            <Position>
              <LatitudeDegrees>37.04837319441139698028564453125</LatitudeDegrees>
              <LongitudeDegrees>-3.33456725813448429107666015625</LongitudeDegrees>
            </Position>
            <AltitudeMeters>3102.199951171875</AltitudeMeters>
            <DistanceMeters>15087.761564011</DistanceMeters>
          </Trackpoint>
          <Trackpoint>
            <Time>2019-07-15T12:53:40.000Z</Time>
            <Position>
              <LatitudeDegrees>37.0484681613743305206298828125</LatitudeDegrees>
              <LongitudeDegrees>-3.334591649472713470458984375</LongitudeDegrees>
            </Position>
            <AltitudeMeters>3103.39990234375</AltitudeMeters>
            <DistanceMeters>15098.551595318</DistanceMeters>
          </Trackpoint>
          <Trackpoint>
            <Time>2019-07-15T12:53:41.000Z</Time>
            <Position>
              <LatitudeDegrees>37.04848014749586582183837890625</LatitudeDegrees>
              <LongitudeDegrees>-3.33459139801561832427978515625</LongitudeDegrees>
            </Position>
            <AltitudeMeters>3103.60009765625</AltitudeMeters>
            <DistanceMeters>15099.881969319</DistanceMeters>
          </Trackpoint>
          <Trackpoint>
            <Time>2019-07-15T12:53:42.000Z</Time>
            <Position>
              <LatitudeDegrees>37.0484902895987033843994140625</LatitudeDegrees>
              <LongitudeDegrees>-3.3345914818346500396728515625</LongitudeDegrees>
            </Position>
            <AltitudeMeters>3103.800048828125</AltitudeMeters>
            <DistanceMeters>15101.010349033</DistanceMeters>
          </Trackpoint>
          <Trackpoint>
            <Time>2019-07-15T12:53:43.000Z</Time>
            <Position>
              <LatitudeDegrees>37.0485015213489532470703125</LatitudeDegrees>
              <LongitudeDegrees>-3.33459072746336460113525390625</LongitudeDegrees>
            </Position>
            <AltitudeMeters>3103.800048828125</AltitudeMeters>
            <DistanceMeters>15102.263837485</DistanceMeters>
          </Trackpoint>
          <Trackpoint>
            <Time>2019-07-15T12:53:44.000Z</Time>
            <Position>
              <LatitudeDegrees>37.04850965179502964019775390625</LatitudeDegrees>
              <LongitudeDegrees>-3.334589302539825439453125</LongitudeDegrees>
            </Position>
            <AltitudeMeters>3103.800048828125</AltitudeMeters>
            <DistanceMeters>15103.185155664</DistanceMeters>
          </Trackpoint>
          <Trackpoint>
            <Time>2019-07-15T12:53:45.000Z</Time>
            <Position>
              <LatitudeDegrees>37.048518620431423187255859375</LatitudeDegrees>
              <LongitudeDegrees>-3.33458821289241313934326171875</LongitudeDegrees>
            </Position>
            <AltitudeMeters>3103.800048828125</AltitudeMeters>
            <DistanceMeters>15104.19082388</DistanceMeters>
          </Trackpoint>
          <Trackpoint>
            <Time>2019-07-15T12:53:46.000Z</Time>
            <Position>
              <LatitudeDegrees>37.0485288463532924652099609375</LatitudeDegrees>
              <LongitudeDegrees>-3.33458838053047657012939453125</LongitudeDegrees>
            </Position>
            <AltitudeMeters>3103.800048828125</AltitudeMeters>
            <DistanceMeters>15105.323197871</DistanceMeters>
          </Trackpoint>
          <Trackpoint>
            <Time>2019-07-15T12:53:47.000Z</Time>
            <Position>
              <LatitudeDegrees>37.04853982664644718170166015625</LatitudeDegrees>
              <LongitudeDegrees>-3.334588296711444854736328125</LongitudeDegrees>
            </Position>
            <AltitudeMeters>3103.800048828125</AltitudeMeters>
            <DistanceMeters>15106.540133587</DistanceMeters>
          </Trackpoint>
          <Trackpoint>
            <Time>2019-07-15T12:54:04.000Z</Time>
            <Position>
              <LatitudeDegrees>37.0487082190811634063720703125</LatitudeDegrees>
              <LongitudeDegrees>-3.33455183543264865875244140625</LongitudeDegrees>
            </Position>
            <AltitudeMeters>3104.60009765625</AltitudeMeters>
            <DistanceMeters>15125.560199899</DistanceMeters>
          </Trackpoint>
          <Trackpoint>
            <Time>2019-07-15T12:54:12.000Z</Time>
            <Position>
              <LatitudeDegrees>37.0487893559038639068603515625</LatitudeDegrees>
              <LongitudeDegrees>-3.3345267735421657562255859375</LongitudeDegrees>
            </Position>
            <AltitudeMeters>3103.800048828125</AltitudeMeters>
            <DistanceMeters>15134.861660129</DistanceMeters>
          </Trackpoint>
          <Trackpoint>
            <Time>2019-07-15T12:54:13.000Z</Time>
            <Position>
              <LatitudeDegrees>37.04880184493958950042724609375</LatitudeDegrees>
              <LongitudeDegrees>-3.33452467806637287139892578125</LongitudeDegrees>
            </Position>
            <AltitudeMeters>3104</AltitudeMeters>
            <DistanceMeters>15136.264712752</DistanceMeters>
          </Trackpoint>
          <Trackpoint>
            <Time>2019-07-15T12:54:14.000Z</Time>
            <Position>
              <LatitudeDegrees>37.04881466925144195556640625</LatitudeDegrees>
              <LongitudeDegrees>-3.33452367223799228668212890625</LongitudeDegrees>
            </Position>
            <AltitudeMeters>3104</AltitudeMeters>
            <DistanceMeters>15137.699584673</DistanceMeters>
          </Trackpoint>
          <Trackpoint>
            <Time>2019-07-15T12:54:15.000Z</Time>
            <Position>
              <LatitudeDegrees>37.04882833175361156463623046875</LatitudeDegrees>
              <LongitudeDegrees>-3.3345209062099456787109375</LongitudeDegrees>
            </Position>
            <AltitudeMeters>3104</AltitudeMeters>
            <DistanceMeters>15139.237726418</DistanceMeters>
          </Trackpoint>
          <Trackpoint>
            <Time>2019-07-15T12:54:16.000Z</Time>
            <Position>
              <LatitudeDegrees>37.0488409884274005889892578125</LatitudeDegrees>
              <LongitudeDegrees>-3.3345153741538524627685546875</LongitudeDegrees>
            </Position>
            <AltitudeMeters>3104.199951171875</AltitudeMeters>
            <DistanceMeters>15140.728162195</DistanceMeters>
          </Trackpoint>
          <Trackpoint>
            <Time>2019-07-15T12:54:17.000Z</Time>
            <Position>
              <LatitudeDegrees>37.04885062761604785919189453125</LatitudeDegrees>
              <LongitudeDegrees>-3.33451294340193271636962890625</LongitudeDegrees>
            </Position>
            <AltitudeMeters>3104.39990234375</AltitudeMeters>
            <DistanceMeters>15141.819936023</DistanceMeters>
          </Trackpoint>
          <Trackpoint>
            <Time>2019-07-15T12:54:18.000Z</Time>
            <Position>
              <LatitudeDegrees>37.04886118881404399871826171875</LatitudeDegrees>
              <LongitudeDegrees>-3.33451059646904468536376953125</LongitudeDegrees>
            </Position>
            <AltitudeMeters>3104.60009765625</AltitudeMeters>
            <DistanceMeters>15143.014403301</DistanceMeters>
          </Trackpoint>
          <Trackpoint>
            <Time>2019-07-15T12:54:19.000Z</Time>
            <Position>
              <LatitudeDegrees>37.04886940307915210723876953125</LatitudeDegrees>
              <LongitudeDegrees>-3.3345093391835689544677734375</LongitudeDegrees>
            </Position>
            <AltitudeMeters>3104.39990234375</AltitudeMeters>
            <DistanceMeters>15143.935721479</DistanceMeters>
          </Trackpoint>
          <Trackpoint>
            <Time>2019-07-15T12:54:29.000Z</Time>
            <Position>
              <LatitudeDegrees>37.048975937068462371826171875</LatitudeDegrees>
              <LongitudeDegrees>-3.33450120873749256134033203125</LongitudeDegrees>
            </Position>
            <AltitudeMeters>3104.60009765625</AltitudeMeters>
            <DistanceMeters>15155.815581106</DistanceMeters>
          </Trackpoint>
          <Trackpoint>
            <Time>2019-07-15T12:54:30.000Z</Time>
            <Position>
              <LatitudeDegrees>37.04898658208549022674560546875</LatitudeDegrees>
              <LongitudeDegrees>-3.3344969339668750762939453125</LongitudeDegrees>
            </Position>
            <AltitudeMeters>3104.199951171875</AltitudeMeters>
            <DistanceMeters>15157.061844781</DistanceMeters>
          </Trackpoint>
          <Trackpoint>
            <Time>2019-07-15T12:54:53.000Z</Time>
            <Position>
              <LatitudeDegrees>37.04904240556061267852783203125</LatitudeDegrees>
              <LongitudeDegrees>-3.33448310382664203643798828125</LongitudeDegrees>
            </Position>
            <AltitudeMeters>3104</AltitudeMeters>
            <DistanceMeters>15163.395216676</DistanceMeters>
          </Trackpoint>
          <Trackpoint>
            <Time>2019-07-15T12:54:54.000Z</Time>
            <Position>
              <LatitudeDegrees>37.0490522123873233795166015625</LatitudeDegrees>
              <LongitudeDegrees>-3.33448176272213459014892578125</LongitudeDegrees>
            </Position>
            <AltitudeMeters>3104.39990234375</AltitudeMeters>
            <DistanceMeters>15164.486990504</DistanceMeters>
          </Trackpoint>
          <Trackpoint>
            <Time>2019-07-15T12:54:55.000Z</Time>
            <Position>
              <LatitudeDegrees>37.04906185157597064971923828125</LatitudeDegrees>
              <LongitudeDegrees>-3.33448310382664203643798828125</LongitudeDegrees>
            </Position>
            <AltitudeMeters>3104.60009765625</AltitudeMeters>
            <DistanceMeters>15165.56209505</DistanceMeters>
          </Trackpoint>
          <Trackpoint>
            <Time>2019-07-15T12:55:11.000Z</Time>
            <Position>
              <LatitudeDegrees>37.0492329262197017669677734375</LatitudeDegrees>
              <LongitudeDegrees>-3.33451193757355213165283203125</LongitudeDegrees>
            </Position>
            <AltitudeMeters>3106.39990234375</AltitudeMeters>
            <DistanceMeters>15184.774654348</DistanceMeters>
          </Trackpoint>
          <Trackpoint>
            <Time>2019-07-15T12:55:25.000Z</Time>
            <Position>
              <LatitudeDegrees>37.04940567724406719207763671875</LatitudeDegrees>
              <LongitudeDegrees>-3.3345549367368221282958984375</LongitudeDegrees>
            </Position>
            <AltitudeMeters>3106.39990234375</AltitudeMeters>
            <DistanceMeters>15204.378045974</DistanceMeters>
          </Trackpoint>
          <Trackpoint>
            <Time>2019-07-15T12:55:26.000Z</Time>
            <Position>
              <LatitudeDegrees>37.04941439442336559295654296875</LatitudeDegrees>
              <LongitudeDegrees>-3.3345609717071056365966796875</LongitudeDegrees>
            </Position>
            <AltitudeMeters>3106.60009765625</AltitudeMeters>
            <DistanceMeters>15205.486238374</DistanceMeters>
          </Trackpoint>
          <Trackpoint>
            <Time>2019-07-15T12:55:27.000Z</Time>
            <Position>
              <LatitudeDegrees>37.04942512325942516326904296875</LatitudeDegrees>
              <LongitudeDegrees>-3.33456541411578655242919921875</LongitudeDegrees>
            </Position>
            <AltitudeMeters>3106.800048828125</AltitudeMeters>
            <DistanceMeters>15206.739726827</DistanceMeters>
          </Trackpoint>
          <Trackpoint>
            <Time>2019-07-15T12:55:28.000Z</Time>
            <Position>
              <LatitudeDegrees>37.0494327507913112640380859375</LatitudeDegrees>
              <LongitudeDegrees>-3.33457052707672119140625</LongitudeDegrees>
            </Position>
            <AltitudeMeters>3106.800048828125</AltitudeMeters>
            <DistanceMeters>15207.699449598</DistanceMeters>
          </Trackpoint>
          <Trackpoint>
            <Time>2019-07-15T12:55:29.000Z</Time>
            <Position>
              <LatitudeDegrees>37.0494429767131805419921875</LatitudeDegrees>
              <LongitudeDegrees>-3.33457748405635356903076171875</LongitudeDegrees>
            </Position>
            <AltitudeMeters>3106.800048828125</AltitudeMeters>
            <DistanceMeters>15208.988454666</DistanceMeters>
          </Trackpoint>
          <Trackpoint>
            <Time>2019-07-15T12:55:30.000Z</Time>
            <Position>
              <LatitudeDegrees>37.0494548790156841278076171875</LatitudeDegrees>
              <LongitudeDegrees>-3.33458326756954193115234375</LongitudeDegrees>
            </Position>
            <AltitudeMeters>3106.800048828125</AltitudeMeters>
            <DistanceMeters>15210.404320822</DistanceMeters>
          </Trackpoint>
          <Trackpoint>
            <Time>2019-07-15T12:55:31.000Z</Time>
            <Position>
              <LatitudeDegrees>37.04946787096560001373291015625</LatitudeDegrees>
              <LongitudeDegrees>-3.33459072746336460113525390625</LongitudeDegrees>
            </Position>
            <AltitudeMeters>3106.800048828125</AltitudeMeters>
            <DistanceMeters>15211.991579883</DistanceMeters>
          </Trackpoint>
          <Trackpoint>
            <Time>2019-07-15T12:55:32.000Z</Time>
            <Position>
              <LatitudeDegrees>37.04948262311518192291259765625</LatitudeDegrees>
              <LongitudeDegrees>-3.33459558896720409393310546875</LongitudeDegrees>
            </Position>
            <AltitudeMeters>3107</AltitudeMeters>
            <DistanceMeters>15213.688811272</DistanceMeters>
          </Trackpoint>
          <Trackpoint>
            <Time>2019-07-15T12:55:33.000Z</Time>
            <Position>
              <LatitudeDegrees>37.04949838109314441680908203125</LatitudeDegrees>
              <LongitudeDegrees>-3.3345944993197917938232421875</LongitudeDegrees>
            </Position>
            <AltitudeMeters>3107</AltitudeMeters>
            <DistanceMeters>15215.443592189</DistanceMeters>
          </Trackpoint>
          <Trackpoint>
            <Time>2019-07-15T12:55:34.000Z</Time>
            <Position>
              <LatitudeDegrees>37.0495132170617580413818359375</LatitudeDegrees>
              <LongitudeDegrees>-3.334589637815952301025390625</LongitudeDegrees>
            </Position>
            <AltitudeMeters>3107</AltitudeMeters>
            <DistanceMeters>15217.148785613</DistanceMeters>
          </Trackpoint>
          <Trackpoint>
            <Time>2019-07-15T12:55:35.000Z</Time>
            <Position>
              <LatitudeDegrees>37.04952570609748363494873046875</LatitudeDegrees>
              <LongitudeDegrees>-3.334589302539825439453125</LongitudeDegrees>
            </Position>
            <AltitudeMeters>3107.39990234375</AltitudeMeters>
            <DistanceMeters>15218.5389066</DistanceMeters>
          </Trackpoint>
          <Trackpoint>
            <Time>2019-07-15T12:55:36.000Z</Time>
            <Position>
              <LatitudeDegrees>37.04953475855290889739990234375</LatitudeDegrees>
              <LongitudeDegrees>-3.334594331681728363037109375</LongitudeDegrees>
            </Position>
            <AltitudeMeters>3107.39990234375</AltitudeMeters>
            <DistanceMeters>15219.638920347</DistanceMeters>
          </Trackpoint>
          <Trackpoint>
            <Time>2019-07-15T12:55:37.000Z</Time>
            <Position>
              <LatitudeDegrees>37.049543224275112152099609375</LatitudeDegrees>
              <LongitudeDegrees>-3.33460078574717044830322265625</LongitudeDegrees>
            </Position>
            <AltitudeMeters>3107.39990234375</AltitudeMeters>
            <DistanceMeters>15220.738934094</DistanceMeters>
          </Trackpoint>
          <Trackpoint>
            <Time>2019-07-15T12:55:53.000Z</Time>
            <Position>
              <LatitudeDegrees>37.04970709048211574554443359375</LatitudeDegrees>
              <LongitudeDegrees>-3.33467538468539714813232421875</LongitudeDegrees>
            </Position>
            <AltitudeMeters>3107.199951171875</AltitudeMeters>
            <DistanceMeters>15240.144403629</DistanceMeters>
          </Trackpoint>
          <Trackpoint>
            <Time>2019-07-15T12:56:10.000Z</Time>
            <Position>
              <LatitudeDegrees>37.049885876476764678955078125</LatitudeDegrees>
              <LongitudeDegrees>-3.3347272686660289764404296875</LongitudeDegrees>
            </Position>
            <AltitudeMeters>3107.39990234375</AltitudeMeters>
            <DistanceMeters>15260.570505852</DistanceMeters>
          </Trackpoint>
          <Trackpoint>
            <Time>2019-07-15T12:56:26.000Z</Time>
            <Position>
              <LatitudeDegrees>37.05006063915789127349853515625</LatitudeDegrees>
              <LongitudeDegrees>-3.334718383848667144775390625</LongitudeDegrees>
            </Position>
            <AltitudeMeters>3108.199951171875</AltitudeMeters>
            <DistanceMeters>15280.037766784</DistanceMeters>
          </Trackpoint>
          <Trackpoint>
            <Time>2019-07-15T12:56:35.000Z</Time>
            <Position>
              <LatitudeDegrees>37.05016071908175945281982421875</LatitudeDegrees>
              <LongitudeDegrees>-3.3347249217331409454345703125</LongitudeDegrees>
            </Position>
            <AltitudeMeters>3109.199951171875</AltitudeMeters>
            <DistanceMeters>15291.192381225</DistanceMeters>
          </Trackpoint>
          <Trackpoint>
            <Time>2019-07-15T12:56:36.000Z</Time>
            <Position>
              <LatitudeDegrees>37.0501727052032947540283203125</LatitudeDegrees>
              <LongitudeDegrees>-3.33472140133380889892578125</LongitudeDegrees>
            </Position>
            <AltitudeMeters>3108.800048828125</AltitudeMeters>
            <DistanceMeters>15292.566166498</DistanceMeters>
          </Trackpoint>
          <Trackpoint>
            <Time>2019-07-15T12:56:37.000Z</Time>
            <Position>
              <LatitudeDegrees>37.0501827634871006011962890625</LatitudeDegrees>
              <LongitudeDegrees>-3.33472140133380889892578125</LongitudeDegrees>
            </Position>
            <AltitudeMeters>3108</AltitudeMeters>
            <DistanceMeters>15293.690537745</DistanceMeters>
          </Trackpoint>
          <Trackpoint>
            <Time>2019-07-15T12:56:38.000Z</Time>
            <Position>
              <LatitudeDegrees>37.0501913130283355712890625</LatitudeDegrees>
              <LongitudeDegrees>-3.33472416736185550689697265625</LongitudeDegrees>
            </Position>
            <AltitudeMeters>3107.39990234375</AltitudeMeters>
            <DistanceMeters>15294.673501722</DistanceMeters>
          </Trackpoint>
          <Trackpoint>
            <Time>2019-07-15T12:56:39.000Z</Time>
            <Position>
              <LatitudeDegrees>37.0502048917114734649658203125</LatitudeDegrees>
              <LongitudeDegrees>-3.3347235806286334991455078125</LongitudeDegrees>
            </Position>
            <AltitudeMeters>3107.800048828125</AltitudeMeters>
            <DistanceMeters>15296.187978337</DistanceMeters>
          </Trackpoint>
          <Trackpoint>
            <Time>2019-07-15T12:56:40.000Z</Time>
            <Position>
              <LatitudeDegrees>37.0502181351184844970703125</LatitudeDegrees>
              <LongitudeDegrees>-3.33472349680960178375244140625</LongitudeDegrees>
            </Position>
            <AltitudeMeters>3108</AltitudeMeters>
            <DistanceMeters>15297.666247088</DistanceMeters>
          </Trackpoint>
          <Trackpoint>
            <Time>2019-07-15T12:56:41.000Z</Time>
            <Position>
              <LatitudeDegrees>37.05023062415421009063720703125</LatitudeDegrees>
              <LongitudeDegrees>-3.33472617901861667633056640625</LongitudeDegrees>
            </Position>
            <AltitudeMeters>3108.199951171875</AltitudeMeters>
            <DistanceMeters>15299.07251404</DistanceMeters>
          </Trackpoint>
          <Trackpoint>
            <Time>2019-07-15T12:56:54.000Z</Time>
            <Position>
              <LatitudeDegrees>37.0503809116780757904052734375</LatitudeDegrees>
              <LongitudeDegrees>-3.334723412990570068359375</LongitudeDegrees>
            </Position>
            <AltitudeMeters>3108.39990234375</AltitudeMeters>
            <DistanceMeters>15315.801264713</DistanceMeters>
          </Trackpoint>
          <Trackpoint>
            <Time>2019-07-15T12:56:55.000Z</Time>
            <Position>
              <LatitudeDegrees>37.0503929816186428070068359375</LatitudeDegrees>
              <LongitudeDegrees>-3.33472634665668010711669921875</LongitudeDegrees>
            </Position>
            <AltitudeMeters>3108.39990234375</AltitudeMeters>
            <DistanceMeters>15317.171759478</DistanceMeters>
          </Trackpoint>
          <Trackpoint>
            <Time>2019-07-15T12:56:56.000Z</Time>
            <Position>
              <LatitudeDegrees>37.0504060573875904083251953125</LatitudeDegrees>
              <LongitudeDegrees>-3.3347242511808872222900390625</LongitudeDegrees>
            </Position>
            <AltitudeMeters>3108.60009765625</AltitudeMeters>
            <DistanceMeters>15318.640836831</DistanceMeters>
          </Trackpoint>
          <Trackpoint>
            <Time>2019-07-15T12:56:57.000Z</Time>
            <Position>
              <LatitudeDegrees>37.0504174567759037017822265625</LatitudeDegrees>
              <LongitudeDegrees>-3.33472182042896747589111328125</LongitudeDegrees>
            </Position>
            <AltitudeMeters>3108.39990234375</AltitudeMeters>
            <DistanceMeters>15319.929841899</DistanceMeters>
          </Trackpoint>
          <Trackpoint>
            <Time>2019-07-15T12:57:15.000Z</Time>
            <Position>
              <LatitudeDegrees>37.05060797743499279022216796875</LatitudeDegrees>
              <LongitudeDegrees>-3.334719724953174591064453125</LongitudeDegrees>
            </Position>
            <AltitudeMeters>3109</AltitudeMeters>
            <DistanceMeters>15341.136134291</DistanceMeters>
          </Trackpoint>
          <Trackpoint>
            <Time>2019-07-15T12:57:27.000Z</Time>
            <Position>
              <LatitudeDegrees>37.05073337070643901824951171875</LatitudeDegrees>
              <LongitudeDegrees>-3.33470639772713184356689453125</LongitudeDegrees>
            </Position>
            <AltitudeMeters>3108.60009765625</AltitudeMeters>
            <DistanceMeters>15355.142827006</DistanceMeters>
          </Trackpoint>
          <Trackpoint>
            <Time>2019-07-15T12:57:28.000Z</Time>
            <Position>
              <LatitudeDegrees>37.05074544064700603485107421875</LatitudeDegrees>
              <LongitudeDegrees>-3.33470396697521209716796875</LongitudeDegrees>
            </Position>
            <AltitudeMeters>3108.39990234375</AltitudeMeters>
            <DistanceMeters>15356.500079965</DistanceMeters>
          </Trackpoint>
          <Trackpoint>
            <Time>2019-07-15T12:57:29.000Z</Time>
            <Position>
              <LatitudeDegrees>37.0507567562162876129150390625</LatitudeDegrees>
              <LongitudeDegrees>-3.3347031287848949432373046875</LongitudeDegrees>
            </Position>
            <AltitudeMeters>3108</AltitudeMeters>
            <DistanceMeters>15357.760751791</DistanceMeters>
          </Trackpoint>
          <Trackpoint>
            <Time>2019-07-15T12:57:30.000Z</Time>
            <Position>
              <LatitudeDegrees>37.05076773650944232940673828125</LatitudeDegrees>
              <LongitudeDegrees>-3.33470237441360950469970703125</LongitudeDegrees>
            </Position>
            <AltitudeMeters>3108</AltitudeMeters>
            <DistanceMeters>15358.985085361</DistanceMeters>
          </Trackpoint>
          <Trackpoint>
            <Time>2019-07-15T12:57:31.000Z</Time>
            <Position>
              <LatitudeDegrees>37.05077880062162876129150390625</LatitudeDegrees>
              <LongitudeDegrees>-3.3346984349191188812255859375</LongitudeDegrees>
            </Position>
            <AltitudeMeters>3107.60009765625</AltitudeMeters>
            <DistanceMeters>15360.267065826</DistanceMeters>
          </Trackpoint>
          <Trackpoint>
            <Time>2019-07-15T12:57:32.000Z</Time>
            <Position>
              <LatitudeDegrees>37.05078969709575176239013671875</LatitudeDegrees>
              <LongitudeDegrees>-3.3346944116055965423583984375</LongitudeDegrees>
            </Position>
            <AltitudeMeters>3107.39990234375</AltitudeMeters>
            <DistanceMeters>15361.527737652</DistanceMeters>
          </Trackpoint>
          <Trackpoint>
            <Time>2019-07-15T12:57:33.000Z</Time>
            <Position>
              <LatitudeDegrees>37.05080126412212848663330078125</LatitudeDegrees>
              <LongitudeDegrees>-3.33469047211110591888427734375</LongitudeDegrees>
            </Position>
            <AltitudeMeters>3107.60009765625</AltitudeMeters>
            <DistanceMeters>15362.854713503</DistanceMeters>
          </Trackpoint>
          <Trackpoint>
            <Time>2019-07-15T12:57:50.000Z</Time>
            <Position>
              <LatitudeDegrees>37.05099421553313732147216796875</LatitudeDegrees>
              <LongitudeDegrees>-3.3346764743328094482421875</LongitudeDegrees>
            </Position>
            <AltitudeMeters>3109.60009765625</AltitudeMeters>
            <DistanceMeters>15384.366461396</DistanceMeters>
          </Trackpoint>
          <Trackpoint>
            <Time>2019-07-15T12:57:51.000Z</Time>
            <Position>
              <LatitudeDegrees>37.051004357635974884033203125</LatitudeDegrees>
              <LongitudeDegrees>-3.33467907272279262542724609375</LongitudeDegrees>
            </Position>
            <AltitudeMeters>3109.60009765625</AltitudeMeters>
            <DistanceMeters>15385.518599078</DistanceMeters>
          </Trackpoint>
          <Trackpoint>
            <Time>2019-07-15T12:57:52.000Z</Time>
            <Position>
              <LatitudeDegrees>37.051015086472034454345703125</LatitudeDegrees>
              <LongitudeDegrees>-3.33468125201761722564697265625</LongitudeDegrees>
            </Position>
            <AltitudeMeters>3109.800048828125</AltitudeMeters>
            <DistanceMeters>15386.728091692</DistanceMeters>
          </Trackpoint>
          <Trackpoint>
            <Time>2019-07-15T12:57:53.000Z</Time>
            <Position>
              <LatitudeDegrees>37.0510246418416500091552734375</LatitudeDegrees>
              <LongitudeDegrees>-3.334680497646331787109375</LongitudeDegrees>
            </Position>
            <AltitudeMeters>3110</AltitudeMeters>
            <DistanceMeters>15387.794763915</DistanceMeters>
          </Trackpoint>
          <Trackpoint>
            <Time>2019-07-15T12:57:54.000Z</Time>
            <Position>
              <LatitudeDegrees>37.05103394575417041778564453125</LatitudeDegrees>
              <LongitudeDegrees>-3.33467974327504634857177734375</LongitudeDegrees>
            </Position>
            <AltitudeMeters>3110</AltitudeMeters>
            <DistanceMeters>15388.835729416</DistanceMeters>
          </Trackpoint>
          <Trackpoint>
            <Time>2019-07-15T12:58:09.000Z</Time>
            <Position>
              <LatitudeDegrees>37.05120393075048923492431640625</LatitudeDegrees>
              <LongitudeDegrees>-3.3346813358366489410400390625</LongitudeDegrees>
            </Position>
            <AltitudeMeters>3110.199951171875</AltitudeMeters>
            <DistanceMeters>15407.755832227</DistanceMeters>
          </Trackpoint>
          <Trackpoint>
            <Time>2019-07-15T12:58:27.000Z</Time>
            <Position>
              <LatitudeDegrees>37.0513951219618320465087890625</LatitudeDegrees>
              <LongitudeDegrees>-3.3346739597618579864501953125</LongitudeDegrees>
            </Position>
            <AltitudeMeters>3109.60009765625</AltitudeMeters>
            <DistanceMeters>15429.046058088</DistanceMeters>
          </Trackpoint>
          <Trackpoint>
            <Time>2019-07-15T12:58:29.000Z</Time>
            <Position>
              <LatitudeDegrees>37.05141565762460231781005859375</LatitudeDegrees>
              <LongitudeDegrees>-3.334675133228302001953125</LongitudeDegrees>
            </Position>
            <AltitudeMeters>3109.60009765625</AltitudeMeters>
            <DistanceMeters>15431.332630689</DistanceMeters>
          </Trackpoint>
          <Trackpoint>
            <Time>2019-07-15T12:58:30.000Z</Time>
            <Position>
              <LatitudeDegrees>37.0514266379177570343017578125</LatitudeDegrees>
              <LongitudeDegrees>-3.334672451019287109375</LongitudeDegrees>
            </Position>
            <AltitudeMeters>3109.60009765625</AltitudeMeters>
            <DistanceMeters>15432.578894364</DistanceMeters>
          </Trackpoint>
          <Trackpoint>
            <Time>2019-07-15T12:58:31.000Z</Time>
            <Position>
              <LatitudeDegrees>37.05143761821091175079345703125</LatitudeDegrees>
              <LongitudeDegrees>-3.334671445190906524658203125</LongitudeDegrees>
            </Position>
            <AltitudeMeters>3109.39990234375</AltitudeMeters>
            <DistanceMeters>15433.803227934</DistanceMeters>
          </Trackpoint>
          <Trackpoint>
            <Time>2019-07-15T12:58:42.000Z</Time>
            <Position>
              <LatitudeDegrees>37.05155010335147380828857421875</LatitudeDegrees>
              <LongitudeDegrees>-3.3346927352249622344970703125</LongitudeDegrees>
            </Position>
            <AltitudeMeters>3109.199951171875</AltitudeMeters>
            <DistanceMeters>15446.464980466</DistanceMeters>
          </Trackpoint>
          <Trackpoint>
            <Time>2019-07-15T12:58:43.000Z</Time>
            <Position>
              <LatitudeDegrees>37.0515587367117404937744140625</LatitudeDegrees>
              <LongitudeDegrees>-3.3346987701952457427978515625</LongitudeDegrees>
            </Position>
            <AltitudeMeters>3109.199951171875</AltitudeMeters>
            <DistanceMeters>15447.564994213</DistanceMeters>
          </Trackpoint>
          <Trackpoint>
            <Time>2019-07-15T12:58:44.000Z</Time>
            <Position>
              <LatitudeDegrees>37.05156954936683177947998046875</LatitudeDegrees>
              <LongitudeDegrees>-3.33469885401427745819091796875</LongitudeDegrees>
            </Position>
            <AltitudeMeters>3109.39990234375</AltitudeMeters>
            <DistanceMeters>15448.766997637</DistanceMeters>
          </Trackpoint>
          <Trackpoint>
            <Time>2019-07-15T12:58:45.000Z</Time>
            <Position>
              <LatitudeDegrees>37.05158061347901821136474609375</LatitudeDegrees>
              <LongitudeDegrees>-3.33469952456653118133544921875</LongitudeDegrees>
            </Position>
            <AltitudeMeters>3108.60009765625</AltitudeMeters>
            <DistanceMeters>15450.002344924</DistanceMeters>
          </Trackpoint>
          <Trackpoint>
            <Time>2019-07-15T12:58:46.000Z</Time>
            <Position>
              <LatitudeDegrees>37.0515915937721729278564453125</LatitudeDegrees>
              <LongitudeDegrees>-3.33469751290977001190185546875</LongitudeDegrees>
            </Position>
            <AltitudeMeters>3108.39990234375</AltitudeMeters>
            <DistanceMeters>15451.241341693</DistanceMeters>
          </Trackpoint>
          <Trackpoint>
            <Time>2019-07-15T12:58:47.000Z</Time>
            <Position>
              <LatitudeDegrees>37.051601819694042205810546875</LatitudeDegrees>
              <LongitudeDegrees>-3.3346952497959136962890625</LongitudeDegrees>
            </Position>
            <AltitudeMeters>3108.39990234375</AltitudeMeters>
            <DistanceMeters>15452.397391568</DistanceMeters>
          </Trackpoint>
          <Trackpoint>
            <Time>2019-07-15T12:58:48.000Z</Time>
            <Position>
              <LatitudeDegrees>37.05161229707300662994384765625</LatitudeDegrees>
              <LongitudeDegrees>-3.33469868637621402740478515625</LongitudeDegrees>
            </Position>
            <AltitudeMeters>3108.60009765625</AltitudeMeters>
            <DistanceMeters>15453.599394992</DistanceMeters>
          </Trackpoint>
          <Trackpoint>
            <Time>2019-07-15T12:58:49.000Z</Time>
            <Position>
              <LatitudeDegrees>37.05162386409938335418701171875</LatitudeDegrees>
              <LongitudeDegrees>-3.33470262587070465087890625</LongitudeDegrees>
            </Position>
            <AltitudeMeters>3108.800048828125</AltitudeMeters>
            <DistanceMeters>15454.929768994</DistanceMeters>
          </Trackpoint>
          <Trackpoint>
            <Time>2019-07-15T12:59:05.000Z</Time>
            <Position>
              <LatitudeDegrees>37.05181337893009185791015625</LatitudeDegrees>
              <LongitudeDegrees>-3.3347542583942413330078125</LongitudeDegrees>
            </Position>
            <AltitudeMeters>3108.800048828125</AltitudeMeters>
            <DistanceMeters>15476.515689046</DistanceMeters>
          </Trackpoint>
          <Trackpoint>
            <Time>2019-07-15T12:59:10.000Z</Time>
            <Position>
              <LatitudeDegrees>37.0518735609948635101318359375</LatitudeDegrees>
              <LongitudeDegrees>-3.33476926200091838836669921875</LongitudeDegrees>
            </Position>
            <AltitudeMeters>3108.199951171875</AltitudeMeters>
            <DistanceMeters>15483.345723812</DistanceMeters>
          </Trackpoint>
          <Trackpoint>
            <Time>2019-07-15T12:59:11.000Z</Time>
            <Position>
              <LatitudeDegrees>37.05188755877315998077392578125</LatitudeDegrees>
              <LongitudeDegrees>-3.334770686924457550048828125</LongitudeDegrees>
            </Position>
            <AltitudeMeters>3107.800048828125</AltitudeMeters>
            <DistanceMeters>15484.910060961</DistanceMeters>
          </Trackpoint>
          <Trackpoint>
            <Time>2019-07-15T12:59:27.000Z</Time>
            <Position>
              <LatitudeDegrees>37.05206659622490406036376953125</LatitudeDegrees>
              <LongitudeDegrees>-3.3348318748176097869873046875</LongitudeDegrees>
            </Position>
            <AltitudeMeters>3107.60009765625</AltitudeMeters>
            <DistanceMeters>15505.56476821</DistanceMeters>
          </Trackpoint>
          <Trackpoint>
            <Time>2019-07-15T12:59:36.000Z</Time>
            <Position>
              <LatitudeDegrees>37.052165754139423370361328125</LatitudeDegrees>
              <LongitudeDegrees>-3.33485475741326808929443359375</LongitudeDegrees>
            </Position>
            <AltitudeMeters>3107.199951171875</AltitudeMeters>
            <DistanceMeters>15516.786775432</DistanceMeters>
          </Trackpoint>
          <Trackpoint>
            <Time>2019-07-15T12:59:37.000Z</Time>
            <Position>
              <LatitudeDegrees>37.05217623151838779449462890625</LatitudeDegrees>
              <LongitudeDegrees>-3.33486112765967845916748046875</LongitudeDegrees>
            </Position>
            <AltitudeMeters>3107</AltitudeMeters>
            <DistanceMeters>15518.089716095</DistanceMeters>
          </Trackpoint>
          <Trackpoint>
            <Time>2019-07-15T12:59:53.000Z</Time>
            <Position>
              <LatitudeDegrees>37.05234722234308719635009765625</LatitudeDegrees>
              <LongitudeDegrees>-3.33494159393012523651123046875</LongitudeDegrees>
            </Position>
            <AltitudeMeters>3106.199951171875</AltitudeMeters>
            <DistanceMeters>15538.419215319</DistanceMeters>
          </Trackpoint>
          <Trackpoint>
            <Time>2019-07-15T13:00:08.000Z</Time>
            <Position>
              <LatitudeDegrees>37.052519805729389190673828125</LatitudeDegrees>
              <LongitudeDegrees>-3.33502172492444515228271484375</LongitudeDegrees>
            </Position>
            <AltitudeMeters>3105</AltitudeMeters>
            <DistanceMeters>15558.904471297</DistanceMeters>
          </Trackpoint>
          <Trackpoint>
            <Time>2019-07-15T13:00:24.000Z</Time>
            <Position>
              <LatitudeDegrees>37.0526738651096820831298828125</LatitudeDegrees>
              <LongitudeDegrees>-3.33512281067669391632080078125</LongitudeDegrees>
            </Position>
            <AltitudeMeters>3104.60009765625</AltitudeMeters>
            <DistanceMeters>15578.260319033</DistanceMeters>
          </Trackpoint>
          <Trackpoint>
            <Time>2019-07-15T13:00:37.000Z</Time>
            <Position>
              <LatitudeDegrees>37.0528039522469043731689453125</LatitudeDegrees>
              <LongitudeDegrees>-3.33520629443228244781494140625</LongitudeDegrees>
            </Position>
            <AltitudeMeters>3104</AltitudeMeters>
            <DistanceMeters>15594.527937798</DistanceMeters>
          </Trackpoint>
          <Trackpoint>
            <Time>2019-07-15T13:00:38.000Z</Time>
            <Position>
              <LatitudeDegrees>37.05281292088329792022705078125</LatitudeDegrees>
              <LongitudeDegrees>-3.33521551452577114105224609375</LongitudeDegrees>
            </Position>
            <AltitudeMeters>3103.60009765625</AltitudeMeters>
            <DistanceMeters>15595.823929394</DistanceMeters>
          </Trackpoint>
          <Trackpoint>
            <Time>2019-07-15T13:00:53.000Z</Time>
            <Position>
              <LatitudeDegrees>37.05295608378946781158447265625</LatitudeDegrees>
              <LongitudeDegrees>-3.3353438414633274078369140625</LongitudeDegrees>
            </Position>
            <AltitudeMeters>3102.800048828125</AltitudeMeters>
            <DistanceMeters>15615.415801673</DistanceMeters>
          </Trackpoint>
          <Trackpoint>
            <Time>2019-07-15T13:00:56.000Z</Time>
            <Position>
              <LatitudeDegrees>37.0529819838702678680419921875</LatitudeDegrees>
              <LongitudeDegrees>-3.3353659696877002716064453125</LongitudeDegrees>
            </Position>
            <AltitudeMeters>3102.39990234375</AltitudeMeters>
            <DistanceMeters>15618.906012716</DistanceMeters>
          </Trackpoint>
          <Trackpoint>
            <Time>2019-07-15T13:00:57.000Z</Time>
            <Position>
              <LatitudeDegrees>37.05298877321183681488037109375</LatitudeDegrees>
              <LongitudeDegrees>-3.3353733457624912261962890625</LongitudeDegrees>
            </Position>
            <AltitudeMeters>3102.60009765625</AltitudeMeters>
            <DistanceMeters>15619.911680933</DistanceMeters>
          </Trackpoint>
          <Trackpoint>
            <Time>2019-07-15T13:01:14.000Z</Time>
            <Position>
              <LatitudeDegrees>37.053116597235202789306640625</LatitudeDegrees>
              <LongitudeDegrees>-3.335555233061313629150390625</LongitudeDegrees>
            </Position>
            <AltitudeMeters>3101.199951171875</AltitudeMeters>
            <DistanceMeters>15641.439584066</DistanceMeters>
          </Trackpoint>
          <Trackpoint>
            <Time>2019-07-15T13:01:31.000Z</Time>
            <Position>
              <LatitudeDegrees>37.05321592278778553009033203125</LatitudeDegrees>
              <LongitudeDegrees>-3.33575178869068622589111328125</LongitudeDegrees>
            </Position>
            <AltitudeMeters>3099.199951171875</AltitudeMeters>
            <DistanceMeters>15662.104999747</DistanceMeters>
          </Trackpoint>
          <Trackpoint>
            <Time>2019-07-15T13:01:49.000Z</Time>
            <Position>
              <LatitudeDegrees>37.0533187687397003173828125</LatitudeDegrees>
              <LongitudeDegrees>-3.3359540440142154693603515625</LongitudeDegrees>
            </Position>
            <AltitudeMeters>3098</AltitudeMeters>
            <DistanceMeters>15683.407734119</DistanceMeters>
          </Trackpoint>
          <Trackpoint>
            <Time>2019-07-15T13:02:07.000Z</Time>
            <Position>
              <LatitudeDegrees>37.05342496745288372039794921875</LatitudeDegrees>
              <LongitudeDegrees>-3.3361409604549407958984375</LongitudeDegrees>
            </Position>
            <AltitudeMeters>3097.800048828125</AltitudeMeters>
            <DistanceMeters>15703.788693773</DistanceMeters>
          </Trackpoint>
          <Trackpoint>
            <Time>2019-07-15T13:02:08.000Z</Time>
            <Position>
              <LatitudeDegrees>37.0534329302608966827392578125</LatitudeDegrees>
              <LongitudeDegrees>-3.33615328185260295867919921875</LongitudeDegrees>
            </Position>
            <AltitudeMeters>3097.800048828125</AltitudeMeters>
            <DistanceMeters>15705.194960725</DistanceMeters>
          </Trackpoint>
          <Trackpoint>
            <Time>2019-07-15T13:02:09.000Z</Time>
            <Position>
              <LatitudeDegrees>37.0534393005073070526123046875</LatitudeDegrees>
              <LongitudeDegrees>-3.3361651003360748291015625</LongitudeDegrees>
            </Position>
            <AltitudeMeters>3097.60009765625</AltitudeMeters>
            <DistanceMeters>15706.462775225</DistanceMeters>
          </Trackpoint>
          <Trackpoint>
            <Time>2019-07-15T13:02:10.000Z</Time>
            <Position>
              <LatitudeDegrees>37.05344575457274913787841796875</LatitudeDegrees>
              <LongitudeDegrees>-3.3361780084669589996337890625</LongitudeDegrees>
            </Position>
            <AltitudeMeters>3097.199951171875</AltitudeMeters>
            <DistanceMeters>15707.816697497</DistanceMeters>
          </Trackpoint>
          <Trackpoint>
            <Time>2019-07-15T13:02:11.000Z</Time>
            <Position>
              <LatitudeDegrees>37.05345128662884235382080078125</LatitudeDegrees>
              <LongitudeDegrees>-3.33619183860719203948974609375</LongitudeDegrees>
            </Position>
            <AltitudeMeters>3096.800048828125</AltitudeMeters>
            <DistanceMeters>15709.187192262</DistanceMeters>
          </Trackpoint>
          <Trackpoint>
            <Time>2019-07-15T13:02:12.000Z</Time>
            <Position>
              <LatitudeDegrees>37.0534582436084747314453125</LatitudeDegrees>
              <LongitudeDegrees>-3.3362051658332347869873046875</LongitudeDegrees>
            </Position>
            <AltitudeMeters>3096.800048828125</AltitudeMeters>
            <DistanceMeters>15710.603058417</DistanceMeters>
          </Trackpoint>
          <Trackpoint>
            <Time>2019-07-15T13:02:13.000Z</Time>
            <Position>
              <LatitudeDegrees>37.0534641109406948089599609375</LatitudeDegrees>
              <LongitudeDegrees>-3.33621941506862640380859375</LongitudeDegrees>
            </Position>
            <AltitudeMeters>3096.800048828125</AltitudeMeters>
            <DistanceMeters>15712.025288048</DistanceMeters>
          </Trackpoint>
          <Trackpoint>
            <Time>2019-07-15T13:02:14.000Z</Time>
            <Position>
              <LatitudeDegrees>37.05346696078777313232421875</LatitudeDegrees>
              <LongitudeDegrees>-3.33623307757079601287841796875</LongitudeDegrees>
            </Position>
            <AltitudeMeters>3096.60009765625</AltitudeMeters>
            <DistanceMeters>15713.275169333</DistanceMeters>
          </Trackpoint>
          <Trackpoint>
            <Time>2019-07-15T13:02:15.000Z</Time>
            <Position>
              <LatitudeDegrees>37.05347157083451747894287109375</LatitudeDegrees>
              <LongitudeDegrees>-3.33624497987329959869384765625</LongitudeDegrees>
            </Position>
            <AltitudeMeters>3096.39990234375</AltitudeMeters>
            <DistanceMeters>15714.44673735</DistanceMeters>
          </Trackpoint>
          <Trackpoint>
            <Time>2019-07-15T13:02:16.000Z</Time>
            <Position>
              <LatitudeDegrees>37.05347609706223011016845703125</LatitudeDegrees>
              <LongitudeDegrees>-3.3362564630806446075439453125</LongitudeDegrees>
            </Position>
            <AltitudeMeters>3096</AltitudeMeters>
            <DistanceMeters>15715.587057923</DistanceMeters>
          </Trackpoint>
          <Trackpoint>
            <Time>2019-07-15T13:02:17.000Z</Time>
            <Position>
              <LatitudeDegrees>37.05347810871899127960205078125</LatitudeDegrees>
              <LongitudeDegrees>-3.33627171814441680908203125</LongitudeDegrees>
            </Position>
            <AltitudeMeters>3095.60009765625</AltitudeMeters>
            <DistanceMeters>15716.957552687</DistanceMeters>
          </Trackpoint>
          <Trackpoint>
            <Time>2019-07-15T13:02:18.000Z</Time>
            <Position>
              <LatitudeDegrees>37.05348280258476734161376953125</LatitudeDegrees>
              <LongitudeDegrees>-3.33628722466528415679931640625</LongitudeDegrees>
            </Position>
            <AltitudeMeters>3095.39990234375</AltitudeMeters>
            <DistanceMeters>15718.429700216</DistanceMeters>
          </Trackpoint>
          <Trackpoint>
            <Time>2019-07-15T13:02:19.000Z</Time>
            <Position>
              <LatitudeDegrees>37.053487412631511688232421875</LatitudeDegrees>
              <LongitudeDegrees>-3.33630214445292949676513671875</LongitudeDegrees>
            </Position>
            <AltitudeMeters>3095.39990234375</AltitudeMeters>
            <DistanceMeters>15719.845566372</DistanceMeters>
          </Trackpoint>
          <Trackpoint>
            <Time>2019-07-15T13:02:28.000Z</Time>
            <Position>
              <LatitudeDegrees>37.053529657423496246337890625</LatitudeDegrees>
              <LongitudeDegrees>-3.3364200778305530548095703125</LongitudeDegrees>
            </Position>
            <AltitudeMeters>3095</AltitudeMeters>
            <DistanceMeters>15731.327687956</DistanceMeters>
          </Trackpoint>
          <Trackpoint>
            <Time>2019-07-15T13:02:29.000Z</Time>
            <Position>
              <LatitudeDegrees>37.05353611148893833160400390625</LatitudeDegrees>
              <LongitudeDegrees>-3.33643239922821521759033203125</LongitudeDegrees>
            </Position>
            <AltitudeMeters>3094.800048828125</AltitudeMeters>
            <DistanceMeters>15732.630628619</DistanceMeters>
          </Trackpoint>
          <Trackpoint>
            <Time>2019-07-15T13:02:30.000Z</Time>
            <Position>
              <LatitudeDegrees>37.053543068468570709228515625</LatitudeDegrees>
              <LongitudeDegrees>-3.336445055902004241943359375</LongitudeDegrees>
            </Position>
            <AltitudeMeters>3094.60009765625</AltitudeMeters>
            <DistanceMeters>15733.994518552</DistanceMeters>
          </Trackpoint>
          <Trackpoint>
            <Time>2019-07-15T13:02:47.000Z</Time>
            <Position>
              <LatitudeDegrees>37.05361892469227313995361328125</LatitudeDegrees>
              <LongitudeDegrees>-3.3366648294031620025634765625</LongitudeDegrees>
            </Position>
            <AltitudeMeters>3094</AltitudeMeters>
            <DistanceMeters>15755.263951306</DistanceMeters>
          </Trackpoint>
          <Trackpoint>
            <Time>2019-07-15T13:03:04.000Z</Time>
            <Position>
              <LatitudeDegrees>37.05364800989627838134765625</LatitudeDegrees>
              <LongitudeDegrees>-3.3368954993784427642822265625</LongitudeDegrees>
            </Position>
            <AltitudeMeters>3092.199951171875</AltitudeMeters>
            <DistanceMeters>15776.007871687</DistanceMeters>
          </Trackpoint>
          <Trackpoint>
            <Time>2019-07-15T13:03:05.000Z</Time>
            <Position>
              <LatitudeDegrees>37.05365161411464214324951171875</LatitudeDegrees>
              <LongitudeDegrees>-3.33690513856709003448486328125</LongitudeDegrees>
            </Position>
            <AltitudeMeters>3092</AltitudeMeters>
            <DistanceMeters>15776.948588165</DistanceMeters>
          </Trackpoint>
          <Trackpoint>
            <Time>2019-07-15T13:03:06.000Z</Time>
            <Position>
              <LatitudeDegrees>37.05365563742816448211669921875</LatitudeDegrees>
              <LongitudeDegrees>-3.33691435866057872772216796875</LongitudeDegrees>
            </Position>
            <AltitudeMeters>3092</AltitudeMeters>
            <DistanceMeters>15777.884492762</DistanceMeters>
          </Trackpoint>
          <Trackpoint>
            <Time>2019-07-15T13:03:22.000Z</Time>
            <Position>
              <LatitudeDegrees>37.05373895354568958282470703125</LatitudeDegrees>
              <LongitudeDegrees>-3.33711929619312286376953125</LongitudeDegrees>
            </Position>
            <AltitudeMeters>3090.60009765625</AltitudeMeters>
            <DistanceMeters>15798.314352363</DistanceMeters>
          </Trackpoint>
          <Trackpoint>
            <Time>2019-07-15T13:03:23.000Z</Time>
            <Position>
              <LatitudeDegrees>37.0537423901259899139404296875</LatitudeDegrees>
              <LongitudeDegrees>-3.3371328748762607574462890625</LongitudeDegrees>
            </Position>
            <AltitudeMeters>3090.199951171875</AltitudeMeters>
            <DistanceMeters>15799.582166863</DistanceMeters>
          </Trackpoint>
          <Trackpoint>
            <Time>2019-07-15T13:03:24.000Z</Time>
            <Position>
              <LatitudeDegrees>37.05374658107757568359375</LatitudeDegrees>
              <LongitudeDegrees>-3.33714804612100124359130859375</LongitudeDegrees>
            </Position>
            <AltitudeMeters>3090</AltitudeMeters>
            <DistanceMeters>15801.007567579</DistanceMeters>
          </Trackpoint>
          <Trackpoint>
            <Time>2019-07-15T13:03:25.000Z</Time>
            <Position>
              <LatitudeDegrees>37.0537551306188106536865234375</LatitudeDegrees>
              <LongitudeDegrees>-3.33716128952801227569580078125</LongitudeDegrees>
            </Position>
            <AltitudeMeters>3090</AltitudeMeters>
            <DistanceMeters>15802.519060001</DistanceMeters>
          </Trackpoint>
          <Trackpoint>
            <Time>2019-07-15T13:03:26.000Z</Time>
            <Position>
              <LatitudeDegrees>37.053759992122650146484375</LatitudeDegrees>
              <LongitudeDegrees>-3.3371774666011333465576171875</LongitudeDegrees>
            </Position>
            <AltitudeMeters>3089.800048828125</AltitudeMeters>
            <DistanceMeters>15804.054263554</DistanceMeters>
          </Trackpoint>
          <Trackpoint>
            <Time>2019-07-15T13:03:27.000Z</Time>
            <Position>
              <LatitudeDegrees>37.053763680160045623779296875</LatitudeDegrees>
              <LongitudeDegrees>-3.33719213493168354034423828125</LongitudeDegrees>
            </Position>
            <AltitudeMeters>3089.60009765625</AltitudeMeters>
            <DistanceMeters>15805.418153487</DistanceMeters>
          </Trackpoint>
          <Trackpoint>
            <Time>2019-07-15T13:03:28.000Z</Time>
            <Position>
              <LatitudeDegrees>37.05376711674034595489501953125</LatitudeDegrees>
              <LongitudeDegrees>-3.33720252849161624908447265625</LongitudeDegrees>
            </Position>
            <AltitudeMeters>3089.60009765625</AltitudeMeters>
            <DistanceMeters>15806.414802075</DistanceMeters>
          </Trackpoint>
          <Trackpoint>
            <Time>2019-07-15T13:03:29.000Z</Time>
            <Position>
              <LatitudeDegrees>37.05377046950161457061767578125</LatitudeDegrees>
              <LongitudeDegrees>-3.33721359260380268096923828125</LongitudeDegrees>
            </Position>
            <AltitudeMeters>3089.39990234375</AltitudeMeters>
            <DistanceMeters>15807.464406442</DistanceMeters>
          </Trackpoint>
          <Trackpoint>
            <Time>2019-07-15T13:03:30.000Z</Time>
            <Position>
              <LatitudeDegrees>37.05377398990094661712646484375</LatitudeDegrees>
              <LongitudeDegrees>-3.33722465671598911285400390625</LongitudeDegrees>
            </Position>
            <AltitudeMeters>3089.199951171875</AltitudeMeters>
            <DistanceMeters>15808.522579149</DistanceMeters>
          </Trackpoint>
          <Trackpoint>
            <Time>2019-07-15T13:03:46.000Z</Time>
            <Position>
              <LatitudeDegrees>37.05380718223750591278076171875</LatitudeDegrees>
              <LongitudeDegrees>-3.33745297975838184356689453125</LongitudeDegrees>
            </Position>
            <AltitudeMeters>3089</AltitudeMeters>
            <DistanceMeters>15829.13746352</DistanceMeters>
          </Trackpoint>
          <Trackpoint>
            <Time>2019-07-15T13:03:58.000Z</Time>
            <Position>
              <LatitudeDegrees>37.053848169744014739990234375</LatitudeDegrees>
              <LongitudeDegrees>-3.3376000821590423583984375</LongitudeDegrees>
            </Position>
            <AltitudeMeters>3087.39990234375</AltitudeMeters>
            <DistanceMeters>15842.977477303</DistanceMeters>
          </Trackpoint>
          <Trackpoint>
            <Time>2019-07-15T13:04:15.000Z</Time>
            <Position>
              <LatitudeDegrees>37.053852863609790802001953125</LatitudeDegrees>
              <LongitudeDegrees>-3.33783502690494060516357421875</LongitudeDegrees>
            </Position>
            <AltitudeMeters>3086</AltitudeMeters>
            <DistanceMeters>15863.853096795</DistanceMeters>
          </Trackpoint>
          <Trackpoint>
            <Time>2019-07-15T13:04:23.000Z</Time>
            <Position>
              <LatitudeDegrees>37.05386132933199405670166015625</LatitudeDegrees>
              <LongitudeDegrees>-3.33791792392730712890625</LongitudeDegrees>
            </Position>
            <AltitudeMeters>3085.60009765625</AltitudeMeters>
            <DistanceMeters>15871.276137039</DistanceMeters>
          </Trackpoint>
          <Trackpoint>
            <Time>2019-07-15T13:04:24.000Z</Time>
            <Position>
              <LatitudeDegrees>37.0538610778748989105224609375</LatitudeDegrees>
              <LongitudeDegrees>-3.3379298262298107147216796875</LongitudeDegrees>
            </Position>
            <AltitudeMeters>3085.39990234375</AltitudeMeters>
            <DistanceMeters>15872.334309747</DistanceMeters>
          </Trackpoint>
          <Trackpoint>
            <Time>2019-07-15T13:04:25.000Z</Time>
            <Position>
              <LatitudeDegrees>37.05386132933199405670166015625</LatitudeDegrees>
              <LongitudeDegrees>-3.33794399164617061614990234375</LongitudeDegrees>
            </Position>
            <AltitudeMeters>3085.199951171875</AltitudeMeters>
            <DistanceMeters>15873.5877982</DistanceMeters>
          </Trackpoint>
          <Trackpoint>
            <Time>2019-07-15T13:04:38.000Z</Time>
            <Position>
              <LatitudeDegrees>37.05387004651129245758056640625</LatitudeDegrees>
              <LongitudeDegrees>-3.3381427265703678131103515625</LongitudeDegrees>
            </Position>
            <AltitudeMeters>3083.39990234375</AltitudeMeters>
            <DistanceMeters>15891.267364541</DistanceMeters>
          </Trackpoint>
          <Trackpoint>
            <Time>2019-07-15T13:04:39.000Z</Time>
            <Position>
              <LatitudeDegrees>37.05387490801513195037841796875</LatitudeDegrees>
              <LongitudeDegrees>-3.33815471269190311431884765625</LongitudeDegrees>
            </Position>
            <AltitudeMeters>3083.199951171875</AltitudeMeters>
            <DistanceMeters>15892.45804586</DistanceMeters>
          </Trackpoint>
          <Trackpoint>
            <Time>2019-07-15T13:04:40.000Z</Time>
            <Position>
              <LatitudeDegrees>37.0538761653006076812744140625</LatitudeDegrees>
              <LongitudeDegrees>-3.33816611208021640777587890625</LongitudeDegrees>
            </Position>
            <AltitudeMeters>3083.199951171875</AltitudeMeters>
            <DistanceMeters>15893.481514896</DistanceMeters>
          </Trackpoint>
          <Trackpoint>
            <Time>2019-07-15T13:04:41.000Z</Time>
            <Position>
              <LatitudeDegrees>37.05387457273900508880615234375</LatitudeDegrees>
              <LongitudeDegrees>-3.33817608654499053955078125</LongitudeDegrees>
            </Position>
            <AltitudeMeters>3083</AltitudeMeters>
            <DistanceMeters>15894.383017463</DistanceMeters>
          </Trackpoint>
          <Trackpoint>
            <Time>2019-07-15T13:04:42.000Z</Time>
            <Position>
              <LatitudeDegrees>37.05387138761579990386962890625</LatitudeDegrees>
              <LongitudeDegrees>-3.3381883241236209869384765625</LongitudeDegrees>
            </Position>
            <AltitudeMeters>3083</AltitudeMeters>
            <DistanceMeters>15895.531229622</DistanceMeters>
          </Trackpoint>
          <Trackpoint>
            <Time>2019-07-15T13:04:43.000Z</Time>
            <Position>
              <LatitudeDegrees>37.053871639072895050048828125</LatitudeDegrees>
              <LongitudeDegrees>-3.33820022642612457275390625</LongitudeDegrees>
            </Position>
            <AltitudeMeters>3082.800048828125</AltitudeMeters>
            <DistanceMeters>15896.589402329</DistanceMeters>
          </Trackpoint>
          <Trackpoint>
            <Time>2019-07-15T13:04:44.000Z</Time>
            <Position>
              <LatitudeDegrees>37.0538731478154659271240234375</LatitudeDegrees>
              <LongitudeDegrees>-3.338213302195072174072265625</LongitudeDegrees>
            </Position>
            <AltitudeMeters>3082.800048828125</AltitudeMeters>
            <DistanceMeters>15897.764817871</DistanceMeters>
          </Trackpoint>
          <Trackpoint>
            <Time>2019-07-15T13:04:45.000Z</Time>
            <Position>
              <LatitudeDegrees>37.0538734830915927886962890625</LatitudeDegrees>
              <LongitudeDegrees>-3.3382248692214488983154296875</LongitudeDegrees>
            </Position>
            <AltitudeMeters>3082.60009765625</AltitudeMeters>
            <DistanceMeters>15898.788286907</DistanceMeters>
          </Trackpoint>
          <Trackpoint>
            <Time>2019-07-15T13:04:46.000Z</Time>
            <Position>
              <LatitudeDegrees>37.0538741536438465118408203125</LatitudeDegrees>
              <LongitudeDegrees>-3.338237442076206207275390625</LongitudeDegrees>
            </Position>
            <AltitudeMeters>3082.60009765625</AltitudeMeters>
            <DistanceMeters>15899.904598042</DistanceMeters>
          </Trackpoint>
          <Trackpoint>
            <Time>2019-07-15T13:05:02.000Z</Time>
            <Position>
              <LatitudeDegrees>37.05390072427690029144287109375</LatitudeDegrees>
              <LongitudeDegrees>-3.3384642563760280609130859375</LongitudeDegrees>
            </Position>
            <AltitudeMeters>3081.199951171875</AltitudeMeters>
            <DistanceMeters>15920.26782741</DistanceMeters>
          </Trackpoint>
          <Trackpoint>
            <Time>2019-07-15T13:05:20.000Z</Time>
            <Position>
              <LatitudeDegrees>37.05393190495669841766357421875</LatitudeDegrees>
              <LongitudeDegrees>-3.338708169758319854736328125</LongitudeDegrees>
            </Position>
            <AltitudeMeters>3079.60009765625</AltitudeMeters>
            <DistanceMeters>15942.210152169</DistanceMeters>
          </Trackpoint>
          <Trackpoint>
            <Time>2019-07-15T13:05:37.000Z</Time>
            <Position>
              <LatitudeDegrees>37.05393509007990360260009765625</LatitudeDegrees>
              <LongitudeDegrees>-3.3389574475586414337158203125</LongitudeDegrees>
            </Position>
            <AltitudeMeters>3078.39990234375</AltitudeMeters>
            <DistanceMeters>15964.355658523</DistanceMeters>
          </Trackpoint>
          <Trackpoint>
            <Time>2019-07-15T13:05:41.000Z</Time>
            <Position>
              <LatitudeDegrees>37.0539311505854129791259765625</LatitudeDegrees>
              <LongitudeDegrees>-3.33900916390120983123779296875</LongitudeDegrees>
            </Position>
            <AltitudeMeters>3078</AltitudeMeters>
            <DistanceMeters>15968.971062117</DistanceMeters>
          </Trackpoint>
          <Trackpoint>
            <Time>2019-07-15T13:05:42.000Z</Time>
            <Position>
              <LatitudeDegrees>37.053930647671222686767578125</LatitudeDegrees>
              <LongitudeDegrees>-3.3390231616795063018798828125</LongitudeDegrees>
            </Position>
            <AltitudeMeters>3078</AltitudeMeters>
            <DistanceMeters>15970.217325792</DistanceMeters>
          </Trackpoint>
          <Trackpoint>
            <Time>2019-07-15T13:05:43.000Z</Time>
            <Position>
              <LatitudeDegrees>37.05392964184284210205078125</LatitudeDegrees>
              <LongitudeDegrees>-3.33903548307716846466064453125</LongitudeDegrees>
            </Position>
            <AltitudeMeters>3077.800048828125</AltitudeMeters>
            <DistanceMeters>15971.317339539</DistanceMeters>
          </Trackpoint>
          <Trackpoint>
            <Time>2019-07-15T13:05:44.000Z</Time>
            <Position>
              <LatitudeDegrees>37.0539288036525249481201171875</LatitudeDegrees>
              <LongitudeDegrees>-3.3390473015606403350830078125</LongitudeDegrees>
            </Position>
            <AltitudeMeters>3077.60009765625</AltitudeMeters>
            <DistanceMeters>15972.371236784</DistanceMeters>
          </Trackpoint>
          <Trackpoint>
            <Time>2019-07-15T13:05:47.000Z</Time>
            <Position>
              <LatitudeDegrees>37.05393056385219097137451171875</LatitudeDegrees>
              <LongitudeDegrees>-3.33907906897366046905517578125</LongitudeDegrees>
            </Position>
            <AltitudeMeters>3077.199951171875</AltitudeMeters>
            <DistanceMeters>15975.196584121</DistanceMeters>
          </Trackpoint>
          <Trackpoint>
            <Time>2019-07-15T13:05:48.000Z</Time>
            <Position>
              <LatitudeDegrees>37.0539329946041107177734375</LatitudeDegrees>
              <LongitudeDegrees>-3.3390922285616397857666015625</LongitudeDegrees>
            </Position>
            <AltitudeMeters>3077</AltitudeMeters>
            <DistanceMeters>15976.398587545</DistanceMeters>
          </Trackpoint>
          <Trackpoint>
            <Time>2019-07-15T13:05:49.000Z</Time>
            <Position>
              <LatitudeDegrees>37.05393500626087188720703125</LatitudeDegrees>
              <LongitudeDegrees>-3.3391096629202365875244140625</LongitudeDegrees>
            </Position>
            <AltitudeMeters>3077</AltitudeMeters>
            <DistanceMeters>15977.965808267</DistanceMeters>
          </Trackpoint>
          <Trackpoint>
            <Time>2019-07-15T13:05:54.000Z</Time>
            <Position>
              <LatitudeDegrees>37.05391824245452880859375</LatitudeDegrees>
              <LongitudeDegrees>-3.339184261858463287353515625</LongitudeDegrees>
            </Position>
            <AltitudeMeters>3076</AltitudeMeters>
            <DistanceMeters>15984.849836244</DistanceMeters>
          </Trackpoint>
          <Trackpoint>
            <Time>2019-07-15T13:05:55.000Z</Time>
            <Position>
              <LatitudeDegrees>37.053916566073894500732421875</LatitudeDegrees>
              <LongitudeDegrees>-3.33919591270387172698974609375</LongitudeDegrees>
            </Position>
            <AltitudeMeters>3075.800048828125</AltitudeMeters>
            <DistanceMeters>15985.89944061</DistanceMeters>
          </Trackpoint>
          <Trackpoint>
            <Time>2019-07-15T13:05:56.000Z</Time>
            <Position>
              <LatitudeDegrees>37.0539170689880847930908203125</LatitudeDegrees>
              <LongitudeDegrees>-3.3392085693776607513427734375</LongitudeDegrees>
            </Position>
            <AltitudeMeters>3075.800048828125</AltitudeMeters>
            <DistanceMeters>15987.023811858</DistanceMeters>
          </Trackpoint>
          <Trackpoint>
            <Time>2019-07-15T13:05:57.000Z</Time>
            <Position>
              <LatitudeDegrees>37.05391715280711650848388671875</LatitudeDegrees>
              <LongitudeDegrees>-3.339223153889179229736328125</LongitudeDegrees>
            </Position>
            <AltitudeMeters>3075.60009765625</AltitudeMeters>
            <DistanceMeters>15988.319803454</DistanceMeters>
          </Trackpoint>
          <Trackpoint>
            <Time>2019-07-15T13:05:58.000Z</Time>
            <Position>
              <LatitudeDegrees>37.05391581170260906219482421875</LatitudeDegrees>
              <LongitudeDegrees>-3.3392367325723171234130859375</LongitudeDegrees>
            </Position>
            <AltitudeMeters>3075.39990234375</AltitudeMeters>
            <DistanceMeters>15989.53673917</DistanceMeters>
          </Trackpoint>
          <Trackpoint>
            <Time>2019-07-15T13:05:59.000Z</Time>
            <Position>
              <LatitudeDegrees>37.05391396768391132354736328125</LatitudeDegrees>
              <LongitudeDegrees>-3.33925039507448673248291015625</LongitudeDegrees>
            </Position>
            <AltitudeMeters>3075.199951171875</AltitudeMeters>
            <DistanceMeters>15990.764754954</DistanceMeters>
          </Trackpoint>
          <Trackpoint>
            <Time>2019-07-15T13:06:00.000Z</Time>
            <Position>
              <LatitudeDegrees>37.0539153926074504852294921875</LatitudeDegrees>
              <LongitudeDegrees>-3.33926531486213207244873046875</LongitudeDegrees>
            </Position>
            <AltitudeMeters>3075</AltitudeMeters>
            <DistanceMeters>15992.098518449</DistanceMeters>
          </Trackpoint>
          <Trackpoint>
            <Time>2019-07-15T13:06:01.000Z</Time>
            <Position>
              <LatitudeDegrees>37.0539153926074504852294921875</LatitudeDegrees>
              <LongitudeDegrees>-3.33928124047815799713134765625</LongitudeDegrees>
            </Position>
            <AltitudeMeters>3074.800048828125</AltitudeMeters>
            <DistanceMeters>15993.514384605</DistanceMeters>
          </Trackpoint>
          <Trackpoint>
            <Time>2019-07-15T13:06:02.000Z</Time>
            <Position>
              <LatitudeDegrees>37.05391296185553073883056640625</LatitudeDegrees>
              <LongitudeDegrees>-3.33929666317999362945556640625</LongitudeDegrees>
            </Position>
            <AltitudeMeters>3074.39990234375</AltitudeMeters>
            <DistanceMeters>15994.910986377</DistanceMeters>
          </Trackpoint>
          <Trackpoint>
            <Time>2019-07-15T13:06:03.000Z</Time>
            <Position>
              <LatitudeDegrees>37.053910531103610992431640625</LatitudeDegrees>
              <LongitudeDegrees>-3.33930957131087779998779296875</LongitudeDegrees>
            </Position>
            <AltitudeMeters>3074.39990234375</AltitudeMeters>
            <DistanceMeters>15996.09023689</DistanceMeters>
          </Trackpoint>
          <Trackpoint>
            <Time>2019-07-15T13:06:08.000Z</Time>
            <Position>
              <LatitudeDegrees>37.053909189999103546142578125</LatitudeDegrees>
              <LongitudeDegrees>-3.3393892832100391387939453125</LongitudeDegrees>
            </Position>
            <AltitudeMeters>3073.800048828125</AltitudeMeters>
            <DistanceMeters>16003.172118319</DistanceMeters>
          </Trackpoint>
          <Trackpoint>
            <Time>2019-07-15T13:06:09.000Z</Time>
            <Position>
              <LatitudeDegrees>37.05391245894134044647216796875</LatitudeDegrees>
              <LongitudeDegrees>-3.33940713666379451751708984375</LongitudeDegrees>
            </Position>
            <AltitudeMeters>3073.39990234375</AltitudeMeters>
            <DistanceMeters>16004.795935526</DistanceMeters>
          </Trackpoint>
          <Trackpoint>
            <Time>2019-07-15T13:06:10.000Z</Time>
            <Position>
              <LatitudeDegrees>37.05391447059810161590576171875</LatitudeDegrees>
              <LongitudeDegrees>-3.3394211344420909881591796875</LongitudeDegrees>
            </Position>
            <AltitudeMeters>3073.199951171875</AltitudeMeters>
            <DistanceMeters>16006.060183734</DistanceMeters>
          </Trackpoint>
          <Trackpoint>
            <Time>2019-07-15T13:06:17.000Z</Time>
            <Position>
              <LatitudeDegrees>37.05392201431095600128173828125</LatitudeDegrees>
              <LongitudeDegrees>-3.3395098149776458740234375</LongitudeDegrees>
            </Position>
            <AltitudeMeters>3072.39990234375</AltitudeMeters>
            <DistanceMeters>16013.982243522</DistanceMeters>
          </Trackpoint>
          <Trackpoint>
            <Time>2019-07-15T13:06:18.000Z</Time>
            <Position>
              <LatitudeDegrees>37.053920924663543701171875</LatitudeDegrees>
              <LongitudeDegrees>-3.339522890746593475341796875</LongitudeDegrees>
            </Position>
            <AltitudeMeters>3072.39990234375</AltitudeMeters>
            <DistanceMeters>16015.153811539</DistanceMeters>
          </Trackpoint>
          <Trackpoint>
            <Time>2019-07-15T13:06:19.000Z</Time>
            <Position>
              <LatitudeDegrees>37.0539194159209728240966796875</LatitudeDegrees>
              <LongitudeDegrees>-3.33953839726746082305908203125</LongitudeDegrees>
            </Position>
            <AltitudeMeters>3072.199951171875</AltitudeMeters>
            <DistanceMeters>16016.540680777</DistanceMeters>
          </Trackpoint>
          <Trackpoint>
            <Time>2019-07-15T13:06:28.000Z</Time>
            <Position>
              <LatitudeDegrees>37.0538956113159656524658203125</LatitudeDegrees>
              <LongitudeDegrees>-3.33965524099767208099365234375</LongitudeDegrees>
            </Position>
            <AltitudeMeters>3071.199951171875</AltitudeMeters>
            <DistanceMeters>16027.252176998</DistanceMeters>
          </Trackpoint>
          <Trackpoint>
            <Time>2019-07-15T13:06:29.000Z</Time>
            <Position>
              <LatitudeDegrees>37.05389351584017276763916015625</LatitudeDegrees>
              <LongitudeDegrees>-3.33966915495693683624267578125</LongitudeDegrees>
            </Position>
            <AltitudeMeters>3071</AltitudeMeters>
            <DistanceMeters>16028.512848825</DistanceMeters>
          </Trackpoint>
          <Trackpoint>
            <Time>2019-07-15T13:06:30.000Z</Time>
            <Position>
              <LatitudeDegrees>37.0538925938308238983154296875</LatitudeDegrees>
              <LongitudeDegrees>-3.33968122489750385284423828125</LongitudeDegrees>
            </Position>
            <AltitudeMeters>3070.60009765625</AltitudeMeters>
            <DistanceMeters>16029.587953371</DistanceMeters>
          </Trackpoint>
          <Trackpoint>
            <Time>2019-07-15T13:06:31.000Z</Time>
            <Position>
              <LatitudeDegrees>37.05389452166855335235595703125</LatitudeDegrees>
              <LongitudeDegrees>-3.3396937139332294464111328125</LongitudeDegrees>
            </Position>
            <AltitudeMeters>3070.60009765625</AltitudeMeters>
            <DistanceMeters>16030.716333085</DistanceMeters>
          </Trackpoint>
          <Trackpoint>
            <Time>2019-07-15T13:06:32.000Z</Time>
            <Position>
              <LatitudeDegrees>37.0538979582488536834716796875</LatitudeDegrees>
              <LongitudeDegrees>-3.33970754407346248626708984375</LongitudeDegrees>
            </Position>
            <AltitudeMeters>3070.60009765625</AltitudeMeters>
            <DistanceMeters>16032.001830649</DistanceMeters>
          </Trackpoint>
          <Trackpoint>
            <Time>2019-07-15T13:06:33.000Z</Time>
            <Position>
              <LatitudeDegrees>37.05390013754367828369140625</LatitudeDegrees>
              <LongitudeDegrees>-3.3397228829562664031982421875</LongitudeDegrees>
            </Position>
            <AltitudeMeters>3070.60009765625</AltitudeMeters>
            <DistanceMeters>16033.388699887</DistanceMeters>
          </Trackpoint>
          <Trackpoint>
            <Time>2019-07-15T13:06:34.000Z</Time>
            <Position>
              <LatitudeDegrees>37.05390424467623233795166015625</LatitudeDegrees>
              <LongitudeDegrees>-3.3397352881729602813720703125</LongitudeDegrees>
            </Position>
            <AltitudeMeters>3070.39990234375</AltitudeMeters>
            <DistanceMeters>16034.583167165</DistanceMeters>
          </Trackpoint>
          <Trackpoint>
            <Time>2019-07-15T13:06:35.000Z</Time>
            <Position>
              <LatitudeDegrees>37.05390742979943752288818359375</LatitudeDegrees>
              <LongitudeDegrees>-3.3397480286657810211181640625</LongitudeDegrees>
            </Position>
            <AltitudeMeters>3070.39990234375</AltitudeMeters>
            <DistanceMeters>16035.770050447</DistanceMeters>
          </Trackpoint>
          <Trackpoint>
            <Time>2019-07-15T13:06:36.000Z</Time>
            <Position>
              <LatitudeDegrees>37.05391078256070613861083984375</LatitudeDegrees>
              <LongitudeDegrees>-3.33976202644407749176025390625</LongitudeDegrees>
            </Position>
            <AltitudeMeters>3070.199951171875</AltitudeMeters>
            <DistanceMeters>16037.066042044</DistanceMeters>
          </Trackpoint>
          <Trackpoint>
            <Time>2019-07-15T13:06:40.000Z</Time>
            <Position>
              <LatitudeDegrees>37.053929306566715240478515625</LatitudeDegrees>
              <LongitudeDegrees>-3.33981969393789768218994140625</LongitudeDegrees>
            </Position>
            <AltitudeMeters>3069.800048828125</AltitudeMeters>
            <DistanceMeters>16042.588230754</DistanceMeters>
          </Trackpoint>
          <Trackpoint>
            <Time>2019-07-15T13:06:41.000Z</Time>
            <Position>
              <LatitudeDegrees>37.0539371855556964874267578125</LatitudeDegrees>
              <LongitudeDegrees>-3.339835703372955322265625</LongitudeDegrees>
            </Position>
            <AltitudeMeters>3069.800048828125</AltitudeMeters>
            <DistanceMeters>16044.258647954</DistanceMeters>
          </Trackpoint>
          <Trackpoint>
            <Time>2019-07-15T13:06:47.000Z</Time>
            <Position>
              <LatitudeDegrees>37.05395503900945186614990234375</LatitudeDegrees>
              <LongitudeDegrees>-3.3399148285388946533203125</LongitudeDegrees>
            </Position>
            <AltitudeMeters>3069.199951171875</AltitudeMeters>
            <DistanceMeters>16051.562735277</DistanceMeters>
          </Trackpoint>
          <Trackpoint>
            <Time>2019-07-15T13:06:48.000Z</Time>
            <Position>
              <LatitudeDegrees>37.053958475589752197265625</LatitudeDegrees>
              <LongitudeDegrees>-3.339930586516857147216796875</LongitudeDegrees>
            </Position>
            <AltitudeMeters>3069.199951171875</AltitudeMeters>
            <DistanceMeters>16053.01636449</DistanceMeters>
          </Trackpoint>
          <Trackpoint>
            <Time>2019-07-15T13:06:49.000Z</Time>
            <Position>
              <LatitudeDegrees>37.05396258272230625152587890625</LatitudeDegrees>
              <LongitudeDegrees>-3.33994676358997821807861328125</LongitudeDegrees>
            </Position>
            <AltitudeMeters>3069</AltitudeMeters>
            <DistanceMeters>16054.524866815</DistanceMeters>
          </Trackpoint>
          <Trackpoint>
            <Time>2019-07-15T13:06:50.000Z</Time>
            <Position>
              <LatitudeDegrees>37.05396627075970172882080078125</LatitudeDegrees>
              <LongitudeDegrees>-3.33996084518730640411376953125</LongitudeDegrees>
            </Position>
            <AltitudeMeters>3069</AltitudeMeters>
            <DistanceMeters>16055.838162136</DistanceMeters>
          </Trackpoint>
          <Trackpoint>
            <Time>2019-07-15T13:06:51.000Z</Time>
            <Position>
              <LatitudeDegrees>37.05397146753966808319091796875</LatitudeDegrees>
              <LongitudeDegrees>-3.3399733342230319976806640625</LongitudeDegrees>
            </Position>
            <AltitudeMeters>3068.800048828125</AltitudeMeters>
            <DistanceMeters>16057.08804342</DistanceMeters>
          </Trackpoint>
          <Trackpoint>
            <Time>2019-07-15T13:06:52.000Z</Time>
            <Position>
              <LatitudeDegrees>37.053975574672222137451171875</LatitudeDegrees>
              <LongitudeDegrees>-3.339985571801662445068359375</LongitudeDegrees>
            </Position>
            <AltitudeMeters>3068.800048828125</AltitudeMeters>
            <DistanceMeters>16058.267293933</DistanceMeters>
          </Trackpoint>
          <Trackpoint>
            <Time>2019-07-15T13:06:53.000Z</Time>
            <Position>
              <LatitudeDegrees>37.05397767014801502227783203125</LatitudeDegrees>
              <LongitudeDegrees>-3.33999789319932460784912109375</LongitudeDegrees>
            </Position>
            <AltitudeMeters>3068.60009765625</AltitudeMeters>
            <DistanceMeters>16059.383605068</DistanceMeters>
          </Trackpoint>
          <Trackpoint>
            <Time>2019-07-15T13:06:59.000Z</Time>
            <Position>
              <LatitudeDegrees>37.053999714553356170654296875</LatitudeDegrees>
              <LongitudeDegrees>-3.34007500670850276947021484375</LongitudeDegrees>
            </Position>
            <AltitudeMeters>3068.199951171875</AltitudeMeters>
            <DistanceMeters>16066.659201821</DistanceMeters>
          </Trackpoint>
          <Trackpoint>
            <Time>2019-07-15T13:07:00.000Z</Time>
            <Position>
              <LatitudeDegrees>37.05400415696203708648681640625</LatitudeDegrees>
              <LongitudeDegrees>-3.34008657373487949371337890625</LongitudeDegrees>
            </Position>
            <AltitudeMeters>3068</AltitudeMeters>
            <DistanceMeters>16067.799522394</DistanceMeters>
          </Trackpoint>
          <Trackpoint>
            <Time>2019-07-15T13:07:01.000Z</Time>
            <Position>
              <LatitudeDegrees>37.0540065877139568328857421875</LatitudeDegrees>
              <LongitudeDegrees>-3.34009788930416107177734375</LongitudeDegrees>
            </Position>
            <AltitudeMeters>3068</AltitudeMeters>
            <DistanceMeters>16068.840487894</DistanceMeters>
          </Trackpoint>
          <Trackpoint>
            <Time>2019-07-15T13:07:02.000Z</Time>
            <Position>
              <LatitudeDegrees>37.05400734208524227142333984375</LatitudeDegrees>
              <LongitudeDegrees>-3.34011037833988666534423828125</LongitudeDegrees>
            </Position>
            <AltitudeMeters>3067.800048828125</AltitudeMeters>
            <DistanceMeters>16069.952747069</DistanceMeters>
          </Trackpoint>
          <Trackpoint>
            <Time>2019-07-15T13:07:03.000Z</Time>
            <Position>
              <LatitudeDegrees>37.05400683917105197906494140625</LatitudeDegrees>
              <LongitudeDegrees>-3.3401232026517391204833984375</LongitudeDegrees>
            </Position>
            <AltitudeMeters>3067.800048828125</AltitudeMeters>
            <DistanceMeters>16071.100959228</DistanceMeters>
          </Trackpoint>
          <Trackpoint>
            <Time>2019-07-15T13:07:04.000Z</Time>
            <Position>
              <LatitudeDegrees>37.05400968901813030242919921875</LatitudeDegrees>
              <LongitudeDegrees>-3.34013636223971843719482421875</LongitudeDegrees>
            </Position>
            <AltitudeMeters>3067.800048828125</AltitudeMeters>
            <DistanceMeters>16072.317894944</DistanceMeters>
          </Trackpoint>
          <Trackpoint>
            <Time>2019-07-15T13:07:05.000Z</Time>
            <Position>
              <LatitudeDegrees>37.05401203595101833343505859375</LatitudeDegrees>
              <LongitudeDegrees>-3.3401500247418880462646484375</LongitudeDegrees>
            </Position>
            <AltitudeMeters>3067.800048828125</AltitudeMeters>
            <DistanceMeters>16073.556891713</DistanceMeters>
          </Trackpoint>
          <Trackpoint>
            <Time>2019-07-15T13:07:06.000Z</Time>
            <Position>
              <LatitudeDegrees>37.0540166459977626800537109375</LatitudeDegrees>
              <LongitudeDegrees>-3.34016385488212108612060546875</LongitudeDegrees>
            </Position>
            <AltitudeMeters>3067.800048828125</AltitudeMeters>
            <DistanceMeters>16074.887265715</DistanceMeters>
          </Trackpoint>
          <Trackpoint>
            <Time>2019-07-15T13:07:07.000Z</Time>
            <Position>
              <LatitudeDegrees>37.05402075313031673431396484375</LatitudeDegrees>
              <LongitudeDegrees>-3.3401763439178466796875</LongitudeDegrees>
            </Position>
            <AltitudeMeters>3067.800048828125</AltitudeMeters>
            <DistanceMeters>16076.089269138</DistanceMeters>
          </Trackpoint>
          <Trackpoint>
            <Time>2019-07-15T13:07:08.000Z</Time>
            <Position>
              <LatitudeDegrees>37.05402326770126819610595703125</LatitudeDegrees>
              <LongitudeDegrees>-3.3401915989816188812255859375</LongitudeDegrees>
            </Position>
            <AltitudeMeters>3067.800048828125</AltitudeMeters>
            <DistanceMeters>16077.472878985</DistanceMeters>
          </Trackpoint>
          <Trackpoint>
            <Time>2019-07-15T13:07:09.000Z</Time>
            <Position>
              <LatitudeDegrees>37.0540223456919193267822265625</LatitudeDegrees>
              <LongitudeDegrees>-3.340205848217010498046875</LongitudeDegrees>
            </Position>
            <AltitudeMeters>3067.800048828125</AltitudeMeters>
            <DistanceMeters>16078.744249774</DistanceMeters>
          </Trackpoint>
          <Trackpoint>
            <Time>2019-07-15T13:07:11.000Z</Time>
            <Position>
              <LatitudeDegrees>37.05402628518640995025634765625</LatitudeDegrees>
              <LongitudeDegrees>-3.34022822789847850799560546875</LongitudeDegrees>
            </Position>
            <AltitudeMeters>3067.800048828125</AltitudeMeters>
            <DistanceMeters>16080.780129212</DistanceMeters>
          </Trackpoint>
          <Trackpoint>
            <Time>2019-07-15T13:07:12.000Z</Time>
            <Position>
              <LatitudeDegrees>37.0540280453860759735107421875</LatitudeDegrees>
              <LongitudeDegrees>-3.3402395434677600860595703125</LongitudeDegrees>
            </Position>
            <AltitudeMeters>3067.800048828125</AltitudeMeters>
            <DistanceMeters>16081.803598248</DistanceMeters>
          </Trackpoint>
          <Trackpoint>
            <Time>2019-07-15T13:07:13.000Z</Time>
            <Position>
              <LatitudeDegrees>37.054029889404773712158203125</LatitudeDegrees>
              <LongitudeDegrees>-3.34025748074054718017578125</LongitudeDegrees>
            </Position>
            <AltitudeMeters>3067.800048828125</AltitudeMeters>
            <DistanceMeters>16083.410645809</DistanceMeters>
          </Trackpoint>
          <Trackpoint>
            <Time>2019-07-15T13:07:14.000Z</Time>
            <Position>
              <LatitudeDegrees>37.05403114669024944305419921875</LatitudeDegrees>
              <LongitudeDegrees>-3.340275250375270843505859375</LongitudeDegrees>
            </Position>
            <AltitudeMeters>3067.800048828125</AltitudeMeters>
            <DistanceMeters>16084.995057767</DistanceMeters>
          </Trackpoint>
          <Trackpoint>
            <Time>2019-07-15T13:07:15.000Z</Time>
            <Position>
              <LatitudeDegrees>37.0540307275950908660888671875</LatitudeDegrees>
              <LongitudeDegrees>-3.3402931876480579376220703125</LongitudeDegrees>
            </Position>
            <AltitudeMeters>3068</AltitudeMeters>
            <DistanceMeters>16086.587995769</DistanceMeters>
          </Trackpoint>
          <Trackpoint>
            <Time>2019-07-15T13:07:16.000Z</Time>
            <Position>
              <LatitudeDegrees>37.0540293864905834197998046875</LatitudeDegrees>
              <LongitudeDegrees>-3.34030919708311557769775390625</LongitudeDegrees>
            </Position>
            <AltitudeMeters>3068</AltitudeMeters>
            <DistanceMeters>16088.01656053</DistanceMeters>
          </Trackpoint>
          <Trackpoint>
            <Time>2019-07-15T13:07:17.000Z</Time>
            <Position>
              <LatitudeDegrees>37.05402879975736141204833984375</LatitudeDegrees>
              <LongitudeDegrees>-3.34032260812819004058837890625</LongitudeDegrees>
            </Position>
            <AltitudeMeters>3068</AltitudeMeters>
            <DistanceMeters>16089.207241849</DistanceMeters>
          </Trackpoint>
          <Trackpoint>
            <Time>2019-07-15T13:07:35.000Z</Time>
            <Position>
              <LatitudeDegrees>37.0540461502969264984130859375</LatitudeDegrees>
              <LongitudeDegrees>-3.3405858837068080902099609375</LongitudeDegrees>
            </Position>
            <AltitudeMeters>3067.60009765625</AltitudeMeters>
            <DistanceMeters>16112.672683914</DistanceMeters>
          </Trackpoint>
          <Trackpoint>
            <Time>2019-07-15T13:07:47.000Z</Time>
            <Position>
              <LatitudeDegrees>37.05405897460877895355224609375</LatitudeDegrees>
              <LongitudeDegrees>-3.340736590325832366943359375</LongitudeDegrees>
            </Position>
            <AltitudeMeters>3068.39990234375</AltitudeMeters>
            <DistanceMeters>16126.135658859</DistanceMeters>
          </Trackpoint>
          <Trackpoint>
            <Time>2019-07-15T13:07:48.000Z</Time>
            <Position>
              <LatitudeDegrees>37.05405863933265209197998046875</LatitudeDegrees>
              <LongitudeDegrees>-3.34074673242866992950439453125</LongitudeDegrees>
            </Position>
            <AltitudeMeters>3068.39990234375</AltitudeMeters>
            <DistanceMeters>16127.037161427</DistanceMeters>
          </Trackpoint>
          <Trackpoint>
            <Time>2019-07-15T13:07:49.000Z</Time>
            <Position>
              <LatitudeDegrees>37.05406148917973041534423828125</LatitudeDegrees>
              <LongitudeDegrees>-3.3407555334270000457763671875</LongitudeDegrees>
            </Position>
            <AltitudeMeters>3068.39990234375</AltitudeMeters>
            <DistanceMeters>16127.887106199</DistanceMeters>
          </Trackpoint>
          <Trackpoint>
            <Time>2019-07-15T13:07:50.000Z</Time>
            <Position>
              <LatitudeDegrees>37.05406651832163333892822265625</LatitudeDegrees>
              <LongitudeDegrees>-3.34076416678726673126220703125</LongitudeDegrees>
            </Position>
            <AltitudeMeters>3068.60009765625</AltitudeMeters>
            <DistanceMeters>16128.837373343</DistanceMeters>
          </Trackpoint>
          <Trackpoint>
            <Time>2019-07-15T13:07:51.000Z</Time>
            <Position>
              <LatitudeDegrees>37.0540659315884113311767578125</LatitudeDegrees>
              <LongitudeDegrees>-3.34077539853751659393310546875</LongitudeDegrees>
            </Position>
            <AltitudeMeters>3068.60009765625</AltitudeMeters>
            <DistanceMeters>16129.834021932</DistanceMeters>
          </Trackpoint>
          <Trackpoint>
            <Time>2019-07-15T13:07:52.000Z</Time>
            <Position>
              <LatitudeDegrees>37.05406366847455501556396484375</LatitudeDegrees>
              <LongitudeDegrees>-3.34078780375421047210693359375</LongitudeDegrees>
            </Position>
            <AltitudeMeters>3068.60009765625</AltitudeMeters>
            <DistanceMeters>16130.962401645</DistanceMeters>
          </Trackpoint>
          <Trackpoint>
            <Time>2019-07-15T13:08:10.000Z</Time>
            <Position>
              <LatitudeDegrees>37.0540563762187957763671875</LatitudeDegrees>
              <LongitudeDegrees>-3.3410012908279895782470703125</LongitudeDegrees>
            </Position>
            <AltitudeMeters>3070.199951171875</AltitudeMeters>
            <DistanceMeters>16149.943021493</DistanceMeters>
          </Trackpoint>
          <Trackpoint>
            <Time>2019-07-15T13:08:27.000Z</Time>
            <Position>
              <LatitudeDegrees>37.0539837889373302459716796875</LatitudeDegrees>
              <LongitudeDegrees>-3.3411996066570281982421875</LongitudeDegrees>
            </Position>
            <AltitudeMeters>3070</AltitudeMeters>
            <DistanceMeters>16169.323113586</DistanceMeters>
          </Trackpoint>
          <Trackpoint>
            <Time>2019-07-15T13:08:45.000Z</Time>
            <Position>
              <LatitudeDegrees>37.0539385266602039337158203125</LatitudeDegrees>
              <LongitudeDegrees>-3.34140873514115810394287109375</LongitudeDegrees>
            </Position>
            <AltitudeMeters>3070</AltitudeMeters>
            <DistanceMeters>16188.570187547</DistanceMeters>
          </Trackpoint>
          <Trackpoint>
            <Time>2019-07-15T13:08:52.000Z</Time>
            <Position>
              <LatitudeDegrees>37.053923942148685455322265625</LatitudeDegrees>
              <LongitudeDegrees>-3.34149741567671298980712890625</LongitudeDegrees>
            </Position>
            <AltitudeMeters>3070.39990234375</AltitudeMeters>
            <DistanceMeters>16196.612726795</DistanceMeters>
          </Trackpoint>
          <Trackpoint>
            <Time>2019-07-15T13:08:59.000Z</Time>
            <Position>
              <LatitudeDegrees>37.05391162075102329254150390625</LatitudeDegrees>
              <LongitudeDegrees>-3.34159431047737598419189453125</LongitudeDegrees>
            </Position>
            <AltitudeMeters>3070.39990234375</AltitudeMeters>
            <DistanceMeters>16205.327769708</DistanceMeters>
          </Trackpoint>
          <Trackpoint>
            <Time>2019-07-15T13:09:00.000Z</Time>
            <Position>
              <LatitudeDegrees>37.05391354858875274658203125</LatitudeDegrees>
              <LongitudeDegrees>-3.34160956554114818572998046875</LongitudeDegrees>
            </Position>
            <AltitudeMeters>3070.199951171875</AltitudeMeters>
            <DistanceMeters>16206.698264473</DistanceMeters>
          </Trackpoint>
          <Trackpoint>
            <Time>2019-07-15T13:09:19.000Z</Time>
            <Position>
              <LatitudeDegrees>37.053925283253192901611328125</LatitudeDegrees>
              <LongitudeDegrees>-3.3418512158095836639404296875</LongitudeDegrees>
            </Position>
            <AltitudeMeters>3070.60009765625</AltitudeMeters>
            <DistanceMeters>16228.202875022</DistanceMeters>
          </Trackpoint>
          <Trackpoint>
            <Time>2019-07-15T13:09:38.000Z</Time>
            <Position>
              <LatitudeDegrees>37.05390726216137409210205078125</LatitudeDegrees>
              <LongitudeDegrees>-3.34209672175347805023193359375</LongitudeDegrees>
            </Position>
            <AltitudeMeters>3070.39990234375</AltitudeMeters>
            <DistanceMeters>16250.102564289</DistanceMeters>
          </Trackpoint>
          <Trackpoint>
            <Time>2019-07-15T13:09:56.000Z</Time>
            <Position>
              <LatitudeDegrees>37.05388379283249378204345703125</LatitudeDegrees>
              <LongitudeDegrees>-3.34235086105763912200927734375</LongitudeDegrees>
            </Position>
            <AltitudeMeters>3070.60009765625</AltitudeMeters>
            <DistanceMeters>16272.827662129</DistanceMeters>
          </Trackpoint>
          <Trackpoint>
            <Time>2019-07-15T13:10:03.000Z</Time>
            <Position>
              <LatitudeDegrees>37.0538778416812419891357421875</LatitudeDegrees>
              <LongitudeDegrees>-3.34245446138083934783935546875</LongitudeDegrees>
            </Position>
            <AltitudeMeters>3070.39990234375</AltitudeMeters>
            <DistanceMeters>16282.053576748</DistanceMeters>
          </Trackpoint>
          <Trackpoint>
            <Time>2019-07-15T13:10:04.000Z</Time>
            <Position>
              <LatitudeDegrees>37.0538781769573688507080078125</LatitudeDegrees>
              <LongitudeDegrees>-3.3424677886068820953369140625</LongitudeDegrees>
            </Position>
            <AltitudeMeters>3069.800048828125</AltitudeMeters>
            <DistanceMeters>16283.24046003</DistanceMeters>
          </Trackpoint>
          <Trackpoint>
            <Time>2019-07-15T13:10:05.000Z</Time>
            <Position>
              <LatitudeDegrees>37.05387691967189311981201171875</LatitudeDegrees>
              <LongitudeDegrees>-3.3424798585474491119384765625</LongitudeDegrees>
            </Position>
            <AltitudeMeters>3069.60009765625</AltitudeMeters>
            <DistanceMeters>16284.323931275</DistanceMeters>
          </Trackpoint>
          <Trackpoint>
            <Time>2019-07-15T13:10:11.000Z</Time>
            <Position>
              <LatitudeDegrees>37.053862921893596649169921875</LatitudeDegrees>
              <LongitudeDegrees>-3.34256610833108425140380859375</LongitudeDegrees>
            </Position>
            <AltitudeMeters>3069.800048828125</AltitudeMeters>
            <DistanceMeters>16292.142730257</DistanceMeters>
          </Trackpoint>
          <Trackpoint>
            <Time>2019-07-15T13:10:12.000Z</Time>
            <Position>
              <LatitudeDegrees>37.0538620837032794952392578125</LatitudeDegrees>
              <LongitudeDegrees>-3.3425814472138881683349609375</LongitudeDegrees>
            </Position>
            <AltitudeMeters>3070</AltitudeMeters>
            <DistanceMeters>16293.513225022</DistanceMeters>
          </Trackpoint>
          <Trackpoint>
            <Time>2019-07-15T13:10:13.000Z</Time>
            <Position>
              <LatitudeDegrees>37.05385864712297916412353515625</LatitudeDegrees>
              <LongitudeDegrees>-3.342594690620899200439453125</LongitudeDegrees>
            </Position>
            <AltitudeMeters>3070</AltitudeMeters>
            <DistanceMeters>16294.752221792</DistanceMeters>
          </Trackpoint>
          <Trackpoint>
            <Time>2019-07-15T13:10:14.000Z</Time>
            <Position>
              <LatitudeDegrees>37.05385596491396427154541015625</LatitudeDegrees>
              <LongitudeDegrees>-3.34260843694210052490234375</LongitudeDegrees>
            </Position>
            <AltitudeMeters>3070</AltitudeMeters>
            <DistanceMeters>16296.009307062</DistanceMeters>
          </Trackpoint>
          <Trackpoint>
            <Time>2019-07-15T13:10:15.000Z</Time>
            <Position>
              <LatitudeDegrees>37.053854875266551971435546875</LatitudeDegrees>
              <LongitudeDegrees>-3.3426223509013652801513671875</LongitudeDegrees>
            </Position>
            <AltitudeMeters>3069.800048828125</AltitudeMeters>
            <DistanceMeters>16297.251942597</DistanceMeters>
          </Trackpoint>
          <Trackpoint>
            <Time>2019-07-15T13:10:16.000Z</Time>
            <Position>
              <LatitudeDegrees>37.0538553781807422637939453125</LatitudeDegrees>
              <LongitudeDegrees>-3.3426354266703128814697265625</LongitudeDegrees>
            </Position>
            <AltitudeMeters>3069.800048828125</AltitudeMeters>
            <DistanceMeters>16298.415777408</DistanceMeters>
          </Trackpoint>
          <Trackpoint>
            <Time>2019-07-15T13:10:17.000Z</Time>
            <Position>
              <LatitudeDegrees>37.05385630019009113311767578125</LatitudeDegrees>
              <LongitudeDegrees>-3.34264858625829219818115234375</LongitudeDegrees>
            </Position>
            <AltitudeMeters>3069.60009765625</AltitudeMeters>
            <DistanceMeters>16299.591192949</DistanceMeters>
          </Trackpoint>
          <Trackpoint>
            <Time>2019-07-15T13:10:18.000Z</Time>
            <Position>
              <LatitudeDegrees>37.05385428853332996368408203125</LatitudeDegrees>
              <LongitudeDegrees>-3.34266467951238155364990234375</LongitudeDegrees>
            </Position>
            <AltitudeMeters>3069.60009765625</AltitudeMeters>
            <DistanceMeters>16301.038596741</DistanceMeters>
          </Trackpoint>
          <Trackpoint>
            <Time>2019-07-15T13:10:19.000Z</Time>
            <Position>
              <LatitudeDegrees>37.053853534162044525146484375</LatitudeDegrees>
              <LongitudeDegrees>-3.3426816947758197784423828125</LongitudeDegrees>
            </Position>
            <AltitudeMeters>3069.60009765625</AltitudeMeters>
            <DistanceMeters>16302.553073355</DistanceMeters>
          </Trackpoint>
          <Trackpoint>
            <Time>2019-07-15T13:10:20.000Z</Time>
            <Position>
              <LatitudeDegrees>37.053851522505283355712890625</LatitudeDegrees>
              <LongitudeDegrees>-3.34269887767732143402099609375</LongitudeDegrees>
            </Position>
            <AltitudeMeters>3069.60009765625</AltitudeMeters>
            <DistanceMeters>16304.09414769</DistanceMeters>
          </Trackpoint>
          <Trackpoint>
            <Time>2019-07-15T13:10:21.000Z</Time>
            <Position>
              <LatitudeDegrees>37.053848169744014739990234375</LatitudeDegrees>
              <LongitudeDegrees>-3.34271614439785480499267578125</LongitudeDegrees>
            </Position>
            <AltitudeMeters>3069.60009765625</AltitudeMeters>
            <DistanceMeters>16305.669987473</DistanceMeters>
          </Trackpoint>
          <Trackpoint>
            <Time>2019-07-15T13:10:35.000Z</Time>
            <Position>
              <LatitudeDegrees>37.053844146430492401123046875</LatitudeDegrees>
              <LongitudeDegrees>-3.34293977357447147369384765625</LongitudeDegrees>
            </Position>
            <AltitudeMeters>3069.199951171875</AltitudeMeters>
            <DistanceMeters>16325.539434927</DistanceMeters>
          </Trackpoint>
          <Trackpoint>
            <Time>2019-07-15T13:10:36.000Z</Time>
            <Position>
              <LatitudeDegrees>37.0538412965834140777587890625</LatitudeDegrees>
              <LongitudeDegrees>-3.3429537713527679443359375</LongitudeDegrees>
            </Position>
            <AltitudeMeters>3069</AltitudeMeters>
            <DistanceMeters>16326.821415392</DistanceMeters>
          </Trackpoint>
          <Trackpoint>
            <Time>2019-07-15T13:10:37.000Z</Time>
            <Position>
              <LatitudeDegrees>37.0538402907550334930419921875</LatitudeDegrees>
              <LongitudeDegrees>-3.34296776913106441497802734375</LongitudeDegrees>
            </Position>
            <AltitudeMeters>3069</AltitudeMeters>
            <DistanceMeters>16328.067679068</DistanceMeters>
          </Trackpoint>
          <Trackpoint>
            <Time>2019-07-15T13:10:38.000Z</Time>
            <Position>
              <LatitudeDegrees>37.05384054221212863922119140625</LatitudeDegrees>
              <LongitudeDegrees>-3.34298118017613887786865234375</LongitudeDegrees>
            </Position>
            <AltitudeMeters>3069</AltitudeMeters>
            <DistanceMeters>16329.25456235</DistanceMeters>
          </Trackpoint>
          <Trackpoint>
            <Time>2019-07-15T13:10:39.000Z</Time>
            <Position>
              <LatitudeDegrees>37.0538417994976043701171875</LatitudeDegrees>
              <LongitudeDegrees>-3.34299526177346706390380859375</LongitudeDegrees>
            </Position>
            <AltitudeMeters>3068.800048828125</AltitudeMeters>
            <DistanceMeters>16330.508050802</DistanceMeters>
          </Trackpoint>
          <Trackpoint>
            <Time>2019-07-15T13:10:40.000Z</Time>
            <Position>
              <LatitudeDegrees>37.05384381115436553955078125</LatitudeDegrees>
              <LongitudeDegrees>-3.34300900809466838836669921875</LongitudeDegrees>
            </Position>
            <AltitudeMeters>3068.60009765625</AltitudeMeters>
            <DistanceMeters>16331.747047572</DistanceMeters>
          </Trackpoint>
          <Trackpoint>
            <Time>2019-07-15T13:10:41.000Z</Time>
            <Position>
              <LatitudeDegrees>37.0538469962775707244873046875</LatitudeDegrees>
              <LongitudeDegrees>-3.34301990456879138946533203125</LongitudeDegrees>
            </Position>
            <AltitudeMeters>3068.39990234375</AltitudeMeters>
            <DistanceMeters>16332.779301911</DistanceMeters>
          </Trackpoint>
          <Trackpoint>
            <Time>2019-07-15T13:10:53.000Z</Time>
            <Position>
              <LatitudeDegrees>37.053870968520641326904296875</LatitudeDegrees>
              <LongitudeDegrees>-3.34317865781486034393310546875</LongitudeDegrees>
            </Position>
            <AltitudeMeters>3067.800048828125</AltitudeMeters>
            <DistanceMeters>16347.131167424</DistanceMeters>
          </Trackpoint>
          <Trackpoint>
            <Time>2019-07-15T13:10:54.000Z</Time>
            <Position>
              <LatitudeDegrees>37.05387792550027370452880859375</LatitudeDegrees>
              <LongitudeDegrees>-3.34319089539349079132080078125</LongitudeDegrees>
            </Position>
            <AltitudeMeters>3067.39990234375</AltitudeMeters>
            <DistanceMeters>16348.46831182</DistanceMeters>
          </Trackpoint>
          <Trackpoint>
            <Time>2019-07-15T13:11:08.000Z</Time>
            <Position>
              <LatitudeDegrees>37.053938694298267364501953125</LatitudeDegrees>
              <LongitudeDegrees>-3.343369849026203155517578125</LongitudeDegrees>
            </Position>
            <AltitudeMeters>3067</AltitudeMeters>
            <DistanceMeters>16365.743321699</DistanceMeters>
          </Trackpoint>
          <Trackpoint>
            <Time>2019-07-15T13:11:09.000Z</Time>
            <Position>
              <LatitudeDegrees>37.05394028685986995697021484375</LatitudeDegrees>
              <LongitudeDegrees>-3.34338636137545108795166015625</LongitudeDegrees>
            </Position>
            <AltitudeMeters>3067</AltitudeMeters>
            <DistanceMeters>16367.221590449</DistanceMeters>
          </Trackpoint>
          <Trackpoint>
            <Time>2019-07-15T13:11:29.000Z</Time>
            <Position>
              <LatitudeDegrees>37.053942047059535980224609375</LatitudeDegrees>
              <LongitudeDegrees>-3.3436509780585765838623046875</LongitudeDegrees>
            </Position>
            <AltitudeMeters>3066.800048828125</AltitudeMeters>
            <DistanceMeters>16390.727596436</DistanceMeters>
          </Trackpoint>
          <Trackpoint>
            <Time>2019-07-15T13:11:42.000Z</Time>
            <Position>
              <LatitudeDegrees>37.05395386554300785064697265625</LatitudeDegrees>
              <LongitudeDegrees>-3.3437342941761016845703125</LongitudeDegrees>
            </Position>
            <AltitudeMeters>3066.800048828125</AltitudeMeters>
            <DistanceMeters>16398.243722981</DistanceMeters>
          </Trackpoint>
          <Trackpoint>
            <Time>2019-07-15T13:11:43.000Z</Time>
            <Position>
              <LatitudeDegrees>37.0539562962949275970458984375</LatitudeDegrees>
              <LongitudeDegrees>-3.34374678321182727813720703125</LongitudeDegrees>
            </Position>
            <AltitudeMeters>3066.800048828125</AltitudeMeters>
            <DistanceMeters>16399.384043553</DistanceMeters>
          </Trackpoint>
          <Trackpoint>
            <Time>2019-07-15T13:12:01.000Z</Time>
            <Position>
              <LatitudeDegrees>37.05393693409860134124755859375</LatitudeDegrees>
              <LongitudeDegrees>-3.3439899422228336334228515625</LongitudeDegrees>
            </Position>
            <AltitudeMeters>3066.60009765625</AltitudeMeters>
            <DistanceMeters>16421.090524813</DistanceMeters>
          </Trackpoint>
          <Trackpoint>
            <Time>2019-07-15T13:12:12.000Z</Time>
            <Position>
              <LatitudeDegrees>37.05391581170260906219482421875</LatitudeDegrees>
              <LongitudeDegrees>-3.34412254393100738525390625</LongitudeDegrees>
            </Position>
            <AltitudeMeters>3066.60009765625</AltitudeMeters>
            <DistanceMeters>16433.101540643</DistanceMeters>
          </Trackpoint>
          <Trackpoint>
            <Time>2019-07-15T13:12:31.000Z</Time>
            <Position>
              <LatitudeDegrees>37.05384355969727039337158203125</LatitudeDegrees>
              <LongitudeDegrees>-3.344366289675235748291015625</LongitudeDegrees>
            </Position>
            <AltitudeMeters>3068</AltitudeMeters>
            <DistanceMeters>16456.197724436</DistanceMeters>
          </Trackpoint>
          <Trackpoint>
            <Time>2019-07-15T13:12:53.000Z</Time>
            <Position>
              <LatitudeDegrees>37.05385311506688594818115234375</LatitudeDegrees>
              <LongitudeDegrees>-3.34462302736937999725341796875</LongitudeDegrees>
            </Position>
            <AltitudeMeters>3069.39990234375</AltitudeMeters>
            <DistanceMeters>16479.027682435</DistanceMeters>
          </Trackpoint>
          <Trackpoint>
            <Time>2019-07-15T13:13:05.000Z</Time>
            <Position>
              <LatitudeDegrees>37.053873650729656219482421875</LatitudeDegrees>
              <LongitudeDegrees>-3.34476619027554988861083984375</LongitudeDegrees>
            </Position>
            <AltitudeMeters>3070.199951171875</AltitudeMeters>
            <DistanceMeters>16491.948170941</DistanceMeters>
          </Trackpoint>
          <Trackpoint>
            <Time>2019-07-15T13:13:06.000Z</Time>
            <Position>
              <LatitudeDegrees>37.053874321281909942626953125</LatitudeDegrees>
              <LongitudeDegrees>-3.34477826021611690521240234375</LongitudeDegrees>
            </Position>
            <AltitudeMeters>3070.199951171875</AltitudeMeters>
            <DistanceMeters>16493.023275487</DistanceMeters>
          </Trackpoint>
          <Trackpoint>
            <Time>2019-07-15T13:13:29.000Z</Time>
            <Position>
              <LatitudeDegrees>37.05390323884785175323486328125</LatitudeDegrees>
              <LongitudeDegrees>-3.34504094906151294708251953125</LongitudeDegrees>
            </Position>
            <AltitudeMeters>3072.199951171875</AltitudeMeters>
            <DistanceMeters>16516.578210998</DistanceMeters>
          </Trackpoint>
          <Trackpoint>
            <Time>2019-07-15T13:13:43.000Z</Time>
            <Position>
              <LatitudeDegrees>37.05391866154968738555908203125</LatitudeDegrees>
              <LongitudeDegrees>-3.34520841948688030242919921875</LongitudeDegrees>
            </Position>
            <AltitudeMeters>3073.199951171875</AltitudeMeters>
            <DistanceMeters>16531.552684554</DistanceMeters>
          </Trackpoint>
          <Trackpoint>
            <Time>2019-07-15T13:13:44.000Z</Time>
            <Position>
              <LatitudeDegrees>37.053917236626148223876953125</LatitudeDegrees>
              <LongitudeDegrees>-3.3452210761606693267822265625</LongitudeDegrees>
            </Position>
            <AltitudeMeters>3073.39990234375</AltitudeMeters>
            <DistanceMeters>16532.693005126</DistanceMeters>
          </Trackpoint>
          <Trackpoint>
            <Time>2019-07-15T13:13:45.000Z</Time>
            <Position>
              <LatitudeDegrees>37.0539163984358310699462890625</LatitudeDegrees>
              <LongitudeDegrees>-3.345234654843807220458984375</LongitudeDegrees>
            </Position>
            <AltitudeMeters>3073.39990234375</AltitudeMeters>
            <DistanceMeters>16533.90249774</DistanceMeters>
          </Trackpoint>
          <Trackpoint>
            <Time>2019-07-15T13:13:46.000Z</Time>
            <Position>
              <LatitudeDegrees>37.05391648225486278533935546875</LatitudeDegrees>
              <LongitudeDegrees>-3.345249406993389129638671875</LongitudeDegrees>
            </Position>
            <AltitudeMeters>3073.60009765625</AltitudeMeters>
            <DistanceMeters>16535.212350604</DistanceMeters>
          </Trackpoint>
          <Trackpoint>
            <Time>2019-07-15T13:13:47.000Z</Time>
            <Position>
              <LatitudeDegrees>37.05391681753098964691162109375</LatitudeDegrees>
              <LongitudeDegrees>-3.3452629856765270233154296875</LongitudeDegrees>
            </Position>
            <AltitudeMeters>3073.60009765625</AltitudeMeters>
            <DistanceMeters>16536.421843218</DistanceMeters>
          </Trackpoint>
          <Trackpoint>
            <Time>2019-07-15T13:14:08.000Z</Time>
            <Position>
              <LatitudeDegrees>37.0539096929132938385009765625</LatitudeDegrees>
              <LongitudeDegrees>-3.34551854990422725677490234375</LongitudeDegrees>
            </Position>
            <AltitudeMeters>3075.199951171875</AltitudeMeters>
            <DistanceMeters>16559.136607312</DistanceMeters>
          </Trackpoint>
          <Trackpoint>
            <Time>2019-07-15T13:14:29.000Z</Time>
            <Position>
              <LatitudeDegrees>37.05387423746287822723388671875</LatitudeDegrees>
              <LongitudeDegrees>-3.34576011635363101959228515625</LongitudeDegrees>
            </Position>
            <AltitudeMeters>3076.60009765625</AltitudeMeters>
            <DistanceMeters>16580.953880046</DistanceMeters>
          </Trackpoint>
          <Trackpoint>
            <Time>2019-07-15T13:14:51.000Z</Time>
            <Position>
              <LatitudeDegrees>37.0538044162094593048095703125</LatitudeDegrees>
              <LongitudeDegrees>-3.346002437174320220947265625</LongitudeDegrees>
            </Position>
            <AltitudeMeters>3078.39990234375</AltitudeMeters>
            <DistanceMeters>16603.838356954</DistanceMeters>
          </Trackpoint>
          <Trackpoint>
            <Time>2019-07-15T13:15:04.000Z</Time>
            <Position>
              <LatitudeDegrees>37.0537591539323329925537109375</LatitudeDegrees>
              <LongitudeDegrees>-3.34614224731922149658203125</LongitudeDegrees>
            </Position>
            <AltitudeMeters>3079.60009765625</AltitudeMeters>
            <DistanceMeters>16617.240829883</DistanceMeters>
          </Trackpoint>
          <Trackpoint>
            <Time>2019-07-15T13:15:05.000Z</Time>
            <Position>
              <LatitudeDegrees>37.0537561364471912384033203125</LatitudeDegrees>
              <LongitudeDegrees>-3.34615490399301052093505859375</LongitudeDegrees>
            </Position>
            <AltitudeMeters>3079.60009765625</AltitudeMeters>
            <DistanceMeters>16618.420080396</DistanceMeters>
          </Trackpoint>
          <Trackpoint>
            <Time>2019-07-15T13:15:06.000Z</Time>
            <Position>
              <LatitudeDegrees>37.05375370569527149200439453125</LatitudeDegrees>
              <LongitudeDegrees>-3.34616563282907009124755859375</LongitudeDegrees>
            </Position>
            <AltitudeMeters>3079.800048828125</AltitudeMeters>
            <DistanceMeters>16619.416728985</DistanceMeters>
          </Trackpoint>
          <Trackpoint>
            <Time>2019-07-15T13:15:28.000Z</Time>
            <Position>
              <LatitudeDegrees>37.05370894633233547210693359375</LatitudeDegrees>
              <LongitudeDegrees>-3.34640719927847385406494140625</LongitudeDegrees>
            </Position>
            <AltitudeMeters>3081.800048828125</AltitudeMeters>
            <DistanceMeters>16641.445102004</DistanceMeters>
          </Trackpoint>
          <Trackpoint>
            <Time>2019-07-15T13:15:29.000Z</Time>
            <Position>
              <LatitudeDegrees>37.05370743758976459503173828125</LatitudeDegrees>
              <LongitudeDegrees>-3.34641809575259685516357421875</LongitudeDegrees>
            </Position>
            <AltitudeMeters>3081.800048828125</AltitudeMeters>
            <DistanceMeters>16642.432648588</DistanceMeters>
          </Trackpoint>
          <Trackpoint>
            <Time>2019-07-15T13:15:50.000Z</Time>
            <Position>
              <LatitudeDegrees>37.05370173789560794830322265625</LatitudeDegrees>
              <LongitudeDegrees>-3.3466565608978271484375</LongitudeDegrees>
            </Position>
            <AltitudeMeters>3083.60009765625</AltitudeMeters>
            <DistanceMeters>16663.624671188</DistanceMeters>
          </Trackpoint>
          <Trackpoint>
            <Time>2019-07-15T13:16:06.000Z</Time>
            <Position>
              <LatitudeDegrees>37.05374188721179962158203125</LatitudeDegrees>
              <LongitudeDegrees>-3.3468367718160152435302734375</LongitudeDegrees>
            </Position>
            <AltitudeMeters>3084.800048828125</AltitudeMeters>
            <DistanceMeters>16680.244297485</DistanceMeters>
          </Trackpoint>
          <Trackpoint>
            <Time>2019-07-15T13:16:07.000Z</Time>
            <Position>
              <LatitudeDegrees>37.05373920500278472900390625</LatitudeDegrees>
              <LongitudeDegrees>-3.346848674118518829345703125</LongitudeDegrees>
            </Position>
            <AltitudeMeters>3084.800048828125</AltitudeMeters>
            <DistanceMeters>16681.344311232</DistanceMeters>
          </Trackpoint>
          <Trackpoint>
            <Time>2019-07-15T13:16:08.000Z</Time>
            <Position>
              <LatitudeDegrees>37.05373744480311870574951171875</LatitudeDegrees>
              <LongitudeDegrees>-3.34685982204973697662353515625</LongitudeDegrees>
            </Position>
            <AltitudeMeters>3085.199951171875</AltitudeMeters>
            <DistanceMeters>16682.345479792</DistanceMeters>
          </Trackpoint>
          <Trackpoint>
            <Time>2019-07-15T13:16:09.000Z</Time>
            <Position>
              <LatitudeDegrees>37.0537383668124675750732421875</LatitudeDegrees>
              <LongitudeDegrees>-3.34687138907611370086669921875</LongitudeDegrees>
            </Position>
            <AltitudeMeters>3085.39990234375</AltitudeMeters>
            <DistanceMeters>16683.377734131</DistanceMeters>
          </Trackpoint>
          <Trackpoint>
            <Time>2019-07-15T13:16:10.000Z</Time>
            <Position>
              <LatitudeDegrees>37.05373995937407016754150390625</LatitudeDegrees>
              <LongitudeDegrees>-3.3468827046453952789306640625</LongitudeDegrees>
            </Position>
            <AltitudeMeters>3085.60009765625</AltitudeMeters>
            <DistanceMeters>16684.401203167</DistanceMeters>
          </Trackpoint>
          <Trackpoint>
            <Time>2019-07-15T13:16:11.000Z</Time>
            <Position>
              <LatitudeDegrees>37.05373794771730899810791015625</LatitudeDegrees>
              <LongitudeDegrees>-3.34689670242369174957275390625</LongitudeDegrees>
            </Position>
            <AltitudeMeters>3085.60009765625</AltitudeMeters>
            <DistanceMeters>16685.661874993</DistanceMeters>
          </Trackpoint>
          <Trackpoint>
            <Time>2019-07-15T13:16:12.000Z</Time>
            <Position>
              <LatitudeDegrees>37.0537360198795795440673828125</LatitudeDegrees>
              <LongitudeDegrees>-3.34691070020198822021484375</LongitudeDegrees>
            </Position>
            <AltitudeMeters>3085.800048828125</AltitudeMeters>
            <DistanceMeters>16686.918960264</DistanceMeters>
          </Trackpoint>
          <Trackpoint>
            <Time>2019-07-15T13:16:31.000Z</Time>
            <Position>
              <LatitudeDegrees>37.0536977984011173248291015625</LatitudeDegrees>
              <LongitudeDegrees>-3.34715737961232662200927734375</LongitudeDegrees>
            </Position>
            <AltitudeMeters>3086.800048828125</AltitudeMeters>
            <DistanceMeters>16709.239722071</DistanceMeters>
          </Trackpoint>
          <Trackpoint>
            <Time>2019-07-15T13:16:40.000Z</Time>
            <Position>
              <LatitudeDegrees>37.0537024922668933868408203125</LatitudeDegrees>
              <LongitudeDegrees>-3.34727539680898189544677734375</LongitudeDegrees>
            </Position>
            <AltitudeMeters>3087.199951171875</AltitudeMeters>
            <DistanceMeters>16719.735765736</DistanceMeters>
          </Trackpoint>
          <Trackpoint>
            <Time>2019-07-15T13:16:58.000Z</Time>
            <Position>
              <LatitudeDegrees>37.0536585710942745208740234375</LatitudeDegrees>
              <LongitudeDegrees>-3.347514532506465911865234375</LongitudeDegrees>
            </Position>
            <AltitudeMeters>3088.199951171875</AltitudeMeters>
            <DistanceMeters>16741.532541001</DistanceMeters>
          </Trackpoint>
          <Trackpoint>
            <Time>2019-07-15T13:17:09.000Z</Time>
            <Position>
              <LatitudeDegrees>37.05361448228359222412109375</LatitudeDegrees>
              <LongitudeDegrees>-3.34765233099460601806640625</LongitudeDegrees>
            </Position>
            <AltitudeMeters>3088.800048828125</AltitudeMeters>
            <DistanceMeters>16754.719701884</DistanceMeters>
          </Trackpoint>
          <Trackpoint>
            <Time>2019-07-15T13:17:10.000Z</Time>
            <Position>
              <LatitudeDegrees>37.0536109618842601776123046875</LatitudeDegrees>
              <LongitudeDegrees>-3.34766364656388759613037109375</LongitudeDegrees>
            </Position>
            <AltitudeMeters>3089</AltitudeMeters>
            <DistanceMeters>16755.798997887</DistanceMeters>
          </Trackpoint>
          <Trackpoint>
            <Time>2019-07-15T13:17:16.000Z</Time>
            <Position>
              <LatitudeDegrees>37.0535952039062976837158203125</LatitudeDegrees>
              <LongitudeDegrees>-3.34773707203567028045654296875</LongitudeDegrees>
            </Position>
            <AltitudeMeters>3089.39990234375</AltitudeMeters>
            <DistanceMeters>16762.55325182</DistanceMeters>
          </Trackpoint>
          <Trackpoint>
            <Time>2019-07-15T13:17:17.000Z</Time>
            <Position>
              <LatitudeDegrees>37.05358858220279216766357421875</LatitudeDegrees>
              <LongitudeDegrees>-3.34774880670011043548583984375</LongitudeDegrees>
            </Position>
            <AltitudeMeters>3089.39990234375</AltitudeMeters>
            <DistanceMeters>16763.828168978</DistanceMeters>
          </Trackpoint>
          <Trackpoint>
            <Time>2019-07-15T13:17:18.000Z</Time>
            <Position>
              <LatitudeDegrees>37.05358388833701610565185546875</LatitudeDegrees>
              <LongitudeDegrees>-3.34775920026004314422607421875</LongitudeDegrees>
            </Position>
            <AltitudeMeters>3089.60009765625</AltitudeMeters>
            <DistanceMeters>16764.886341685</DistanceMeters>
          </Trackpoint>
          <Trackpoint>
            <Time>2019-07-15T13:17:19.000Z</Time>
            <Position>
              <LatitudeDegrees>37.05358053557574748992919921875</LatitudeDegrees>
              <LongitudeDegrees>-3.3477683365345001220703125</LongitudeDegrees>
            </Position>
            <AltitudeMeters>3089.60009765625</AltitudeMeters>
            <DistanceMeters>16765.777771283</DistanceMeters>
          </Trackpoint>
          <Trackpoint>
            <Time>2019-07-15T13:17:20.000Z</Time>
            <Position>
              <LatitudeDegrees>37.05357450060546398162841796875</LatitudeDegrees>
              <LongitudeDegrees>-3.34777780808508396148681640625</LongitudeDegrees>
            </Position>
            <AltitudeMeters>3089.60009765625</AltitudeMeters>
            <DistanceMeters>16766.852875829</DistanceMeters>
          </Trackpoint>
          <Trackpoint>
            <Time>2019-07-15T13:17:21.000Z</Time>
            <Position>
              <LatitudeDegrees>37.0535673759877681732177734375</LatitudeDegrees>
              <LongitudeDegrees>-3.3477889560163021087646484375</LongitudeDegrees>
            </Position>
            <AltitudeMeters>3089.60009765625</AltitudeMeters>
            <DistanceMeters>16768.120690329</DistanceMeters>
          </Trackpoint>
          <Trackpoint>
            <Time>2019-07-15T13:17:22.000Z</Time>
            <Position>
              <LatitudeDegrees>37.05356108956038951873779296875</LatitudeDegrees>
              <LongitudeDegrees>-3.347802199423313140869140625</LongitudeDegrees>
            </Position>
            <AltitudeMeters>3089.800048828125</AltitudeMeters>
            <DistanceMeters>16769.484580261</DistanceMeters>
          </Trackpoint>
          <Trackpoint>
            <Time>2019-07-15T13:17:23.000Z</Time>
            <Position>
              <LatitudeDegrees>37.0535559765994548797607421875</LatitudeDegrees>
              <LongitudeDegrees>-3.3478147722780704498291015625</LongitudeDegrees>
            </Position>
            <AltitudeMeters>3090</AltitudeMeters>
            <DistanceMeters>16770.738068714</DistanceMeters>
          </Trackpoint>
          <Trackpoint>
            <Time>2019-07-15T13:17:24.000Z</Time>
            <Position>
              <LatitudeDegrees>37.05355153419077396392822265625</LatitudeDegrees>
              <LongitudeDegrees>-3.3478246629238128662109375</LongitudeDegrees>
            </Position>
            <AltitudeMeters>3090</AltitudeMeters>
            <DistanceMeters>16771.743736931</DistanceMeters>
          </Trackpoint>
          <Trackpoint>
            <Time>2019-07-15T13:17:43.000Z</Time>
            <Position>
              <LatitudeDegrees>37.0534540526568889617919921875</LatitudeDegrees>
              <LongitudeDegrees>-3.34802658297121524810791015625</LongitudeDegrees>
            </Position>
            <AltitudeMeters>3091.60009765625</AltitudeMeters>
            <DistanceMeters>16792.706121812</DistanceMeters>
          </Trackpoint>
          <Trackpoint>
            <Time>2019-07-15T13:17:53.000Z</Time>
            <Position>
              <LatitudeDegrees>37.053403593599796295166015625</LatitudeDegrees>
              <LongitudeDegrees>-3.3481433428823947906494140625</LongitudeDegrees>
            </Position>
            <AltitudeMeters>3092.60009765625</AltitudeMeters>
            <DistanceMeters>16804.500541154</DistanceMeters>
          </Trackpoint>
          <Trackpoint>
            <Time>2019-07-15T13:17:54.000Z</Time>
            <Position>
              <LatitudeDegrees>37.0533965528011322021484375</LatitudeDegrees>
              <LongitudeDegrees>-3.34814912639558315277099609375</LongitudeDegrees>
            </Position>
            <AltitudeMeters>3092.60009765625</AltitudeMeters>
            <DistanceMeters>16805.431609003</DistanceMeters>
          </Trackpoint>
          <Trackpoint>
            <Time>2019-07-15T13:17:55.000Z</Time>
            <Position>
              <LatitudeDegrees>37.053390182554721832275390625</LatitudeDegrees>
              <LongitudeDegrees>-3.34815599955618381500244140625</LongitudeDegrees>
            </Position>
            <AltitudeMeters>3092.60009765625</AltitudeMeters>
            <DistanceMeters>16806.362676851</DistanceMeters>
          </Trackpoint>
          <Trackpoint>
            <Time>2019-07-15T13:17:56.000Z</Time>
            <Position>
              <LatitudeDegrees>37.0533833093941211700439453125</LatitudeDegrees>
              <LongitudeDegrees>-3.34816622547805309295654296875</LongitudeDegrees>
            </Position>
            <AltitudeMeters>3092.60009765625</AltitudeMeters>
            <DistanceMeters>16807.549560133</DistanceMeters>
          </Trackpoint>
          <Trackpoint>
            <Time>2019-07-15T13:17:57.000Z</Time>
            <Position>
              <LatitudeDegrees>37.05337685532867908477783203125</LatitudeDegrees>
              <LongitudeDegrees>-3.34817611612379550933837890625</LongitudeDegrees>
            </Position>
            <AltitudeMeters>3092.800048828125</AltitudeMeters>
            <DistanceMeters>16808.685914361</DistanceMeters>
          </Trackpoint>
          <Trackpoint>
            <Time>2019-07-15T13:17:58.000Z</Time>
            <Position>
              <LatitudeDegrees>37.05337107181549072265625</LatitudeDegrees>
              <LongitudeDegrees>-3.34818877279758453369140625</LongitudeDegrees>
            </Position>
            <AltitudeMeters>3093.199951171875</AltitudeMeters>
            <DistanceMeters>16809.981905958</DistanceMeters>
          </Trackpoint>
          <Trackpoint>
            <Time>2019-07-15T13:17:59.000Z</Time>
            <Position>
              <LatitudeDegrees>37.05336495302617549896240234375</LatitudeDegrees>
              <LongitudeDegrees>-3.34819950163364410400390625</LongitudeDegrees>
            </Position>
            <AltitudeMeters>3093.199951171875</AltitudeMeters>
            <DistanceMeters>16811.153473975</DistanceMeters>
          </Trackpoint>
          <Trackpoint>
            <Time>2019-07-15T13:18:00.000Z</Time>
            <Position>
              <LatitudeDegrees>37.05335791222751140594482421875</LatitudeDegrees>
              <LongitudeDegrees>-3.34820847027003765106201171875</LongitudeDegrees>
            </Position>
            <AltitudeMeters>3093.199951171875</AltitudeMeters>
            <DistanceMeters>16812.26978511</DistanceMeters>
          </Trackpoint>
          <Trackpoint>
            <Time>2019-07-15T13:18:01.000Z</Time>
            <Position>
              <LatitudeDegrees>37.0533487759530544281005859375</LatitudeDegrees>
              <LongitudeDegrees>-3.34821618162095546722412109375</LongitudeDegrees>
            </Position>
            <AltitudeMeters>3093.199951171875</AltitudeMeters>
            <DistanceMeters>16813.49411868</DistanceMeters>
          </Trackpoint>
          <Trackpoint>
            <Time>2019-07-15T13:18:02.000Z</Time>
            <Position>
              <LatitudeDegrees>37.053343914449214935302734375</LatitudeDegrees>
              <LongitudeDegrees>-3.34822473116219043731689453125</LongitudeDegrees>
            </Position>
            <AltitudeMeters>3093</AltitudeMeters>
            <DistanceMeters>16814.425186528</DistanceMeters>
          </Trackpoint>
          <Trackpoint>
            <Time>2019-07-15T13:18:22.000Z</Time>
            <Position>
              <LatitudeDegrees>37.0532481931149959564208984375</LatitudeDegrees>
              <LongitudeDegrees>-3.34843327291309833526611328125</LongitudeDegrees>
            </Position>
            <AltitudeMeters>3095</AltitudeMeters>
            <DistanceMeters>16835.794579729</DistanceMeters>
          </Trackpoint>
          <Trackpoint>
            <Time>2019-07-15T13:18:42.000Z</Time>
            <Position>
              <LatitudeDegrees>37.0531388930976390838623046875</LatitudeDegrees>
              <LongitudeDegrees>-3.34862597286701202392578125</LongitudeDegrees>
            </Position>
            <AltitudeMeters>3096.199951171875</AltitudeMeters>
            <DistanceMeters>16856.79419361</DistanceMeters>
          </Trackpoint>
          <Trackpoint>
            <Time>2019-07-15T13:18:47.000Z</Time>
            <Position>
              <LatitudeDegrees>37.053106538951396942138671875</LatitudeDegrees>
              <LongitudeDegrees>-3.34867383353412151336669921875</LongitudeDegrees>
            </Position>
            <AltitudeMeters>3096.60009765625</AltitudeMeters>
            <DistanceMeters>16862.365223383</DistanceMeters>
          </Trackpoint>
          <Trackpoint>
            <Time>2019-07-15T13:18:48.000Z</Time>
            <Position>
              <LatitudeDegrees>37.05310142599046230316162109375</LatitudeDegrees>
              <LongitudeDegrees>-3.34868255071341991424560546875</LongitudeDegrees>
            </Position>
            <AltitudeMeters>3096.800048828125</AltitudeMeters>
            <DistanceMeters>16863.324946154</DistanceMeters>
          </Trackpoint>
          <Trackpoint>
            <Time>2019-07-15T13:18:49.000Z</Time>
            <Position>
              <LatitudeDegrees>37.053094804286956787109375</LatitudeDegrees>
              <LongitudeDegrees>-3.3486938662827014923095703125</LongitudeDegrees>
            </Position>
            <AltitudeMeters>3097</AltitudeMeters>
            <DistanceMeters>16864.57120983</DistanceMeters>
          </Trackpoint>
          <Trackpoint>
            <Time>2019-07-15T13:19:35.000Z</Time>
            <Position>
              <LatitudeDegrees>37.0530124939978122711181640625</LatitudeDegrees>
              <LongitudeDegrees>-3.3488722331821918487548828125</LongitudeDegrees>
            </Position>
            <AltitudeMeters>3098.800048828125</AltitudeMeters>
            <DistanceMeters>16882.873167529</DistanceMeters>
          </Trackpoint>
          <Trackpoint>
            <Time>2019-07-15T13:19:59.000Z</Time>
            <Position>
              <LatitudeDegrees>37.0529942214488983154296875</LatitudeDegrees>
              <LongitudeDegrees>-3.3489218540489673614501953125</LongitudeDegrees>
            </Position>
            <AltitudeMeters>3098.800048828125</AltitudeMeters>
            <DistanceMeters>16887.727907431</DistanceMeters>
          </Trackpoint>
          <Trackpoint>
            <Time>2019-07-15T13:20:00.000Z</Time>
            <Position>
              <LatitudeDegrees>37.05299061723053455352783203125</LatitudeDegrees>
              <LongitudeDegrees>-3.34893174469470977783203125</LongitudeDegrees>
            </Position>
            <AltitudeMeters>3098.800048828125</AltitudeMeters>
            <DistanceMeters>16888.692323251</DistanceMeters>
          </Trackpoint>
          <Trackpoint>
            <Time>2019-07-15T13:20:03.000Z</Time>
            <Position>
              <LatitudeDegrees>37.0529793016612529754638671875</LatitudeDegrees>
              <LongitudeDegrees>-3.34895814768970012664794921875</LongitudeDegrees>
            </Position>
            <AltitudeMeters>3099.60009765625</AltitudeMeters>
            <DistanceMeters>16891.356462903</DistanceMeters>
          </Trackpoint>
          <Trackpoint>
            <Time>2019-07-15T13:20:05.000Z</Time>
            <Position>
              <LatitudeDegrees>37.0529754459857940673828125</LatitudeDegrees>
              <LongitudeDegrees>-3.34897910244762897491455078125</LongitudeDegrees>
            </Position>
            <AltitudeMeters>3099.800048828125</AltitudeMeters>
            <DistanceMeters>16893.266476223</DistanceMeters>
          </Trackpoint>
          <Trackpoint>
            <Time>2019-07-15T13:20:11.000Z</Time>
            <Position>
              <LatitudeDegrees>37.05295222811400890350341796875</LatitudeDegrees>
              <LongitudeDegrees>-3.34902939386665821075439453125</LongitudeDegrees>
            </Position>
            <AltitudeMeters>3101</AltitudeMeters>
            <DistanceMeters>16898.427747918</DistanceMeters>
          </Trackpoint>
          <Trackpoint>
            <Time>2019-07-15T13:20:12.000Z</Time>
            <Position>
              <LatitudeDegrees>37.05294753424823284149169921875</LatitudeDegrees>
              <LongitudeDegrees>-3.3490397036075592041015625</LongitudeDegrees>
            </Position>
            <AltitudeMeters>3101.199951171875</AltitudeMeters>
            <DistanceMeters>16899.481645163</DistanceMeters>
          </Trackpoint>
          <Trackpoint>
            <Time>2019-07-15T13:20:13.000Z</Time>
            <Position>
              <LatitudeDegrees>37.05294133163988590240478515625</LatitudeDegrees>
              <LongitudeDegrees>-3.349051438271999359130859375</LongitudeDegrees>
            </Position>
            <AltitudeMeters>3101.39990234375</AltitudeMeters>
            <DistanceMeters>16900.735133616</DistanceMeters>
          </Trackpoint>
          <Trackpoint>
            <Time>2019-07-15T13:20:14.000Z</Time>
            <Position>
              <LatitudeDegrees>37.05293563194572925567626953125</LatitudeDegrees>
              <LongitudeDegrees>-3.34906241856515407562255859375</LongitudeDegrees>
            </Position>
            <AltitudeMeters>3101.60009765625</AltitudeMeters>
            <DistanceMeters>16901.898968426</DistanceMeters>
          </Trackpoint>
          <Trackpoint>
            <Time>2019-07-15T13:20:15.000Z</Time>
            <Position>
              <LatitudeDegrees>37.0529283396899700164794921875</LatitudeDegrees>
              <LongitudeDegrees>-3.3490720577538013458251953125</LongitudeDegrees>
            </Position>
            <AltitudeMeters>3101.800048828125</AltitudeMeters>
            <DistanceMeters>16903.078218939</DistanceMeters>
          </Trackpoint>
          <Trackpoint>
            <Time>2019-07-15T13:20:16.000Z</Time>
            <Position>
              <LatitudeDegrees>37.05292188562452793121337890625</LatitudeDegrees>
              <LongitudeDegrees>-3.34908287040889263153076171875</LongitudeDegrees>
            </Position>
            <AltitudeMeters>3102</AltitudeMeters>
            <DistanceMeters>16904.276460215</DistanceMeters>
          </Trackpoint>
          <Trackpoint>
            <Time>2019-07-15T13:21:16.000Z</Time>
            <Position>
              <LatitudeDegrees>37.05284745432436466217041015625</LatitudeDegrees>
              <LongitudeDegrees>-3.34931588731706142425537109375</LongitudeDegrees>
            </Position>
            <AltitudeMeters>3104.60009765625</AltitudeMeters>
            <DistanceMeters>16926.571112663</DistanceMeters>
          </Trackpoint>
          <Trackpoint>
            <Time>2019-07-15T13:21:19.000Z</Time>
            <Position>
              <LatitudeDegrees>37.0528425090014934539794921875</LatitudeDegrees>
              <LongitudeDegrees>-3.3493476547300815582275390625</LongitudeDegrees>
            </Position>
            <AltitudeMeters>3104.60009765625</AltitudeMeters>
            <DistanceMeters>16929.445572603</DistanceMeters>
          </Trackpoint>
          <Trackpoint>
            <Time>2019-07-15T13:21:34.000Z</Time>
            <Position>
              <LatitudeDegrees>37.0529065467417240142822265625</LatitudeDegrees>
              <LongitudeDegrees>-3.34946927614510059356689453125</LongitudeDegrees>
            </Position>
            <AltitudeMeters>3106</AltitudeMeters>
            <DistanceMeters>16942.388057605</DistanceMeters>
          </Trackpoint>
          <Trackpoint>
            <Time>2019-07-15T13:21:35.000Z</Time>
            <Position>
              <LatitudeDegrees>37.05291233025491237640380859375</LatitudeDegrees>
              <LongitudeDegrees>-3.34947631694376468658447265625</LongitudeDegrees>
            </Position>
            <AltitudeMeters>3106.199951171875</AltitudeMeters>
            <DistanceMeters>16943.289560173</DistanceMeters>
          </Trackpoint>
          <Trackpoint>
            <Time>2019-07-15T13:21:36.000Z</Time>
            <Position>
              <LatitudeDegrees>37.05291953869163990020751953125</LatitudeDegrees>
              <LongitudeDegrees>-3.34948025643825531005859375</LongitudeDegrees>
            </Position>
            <AltitudeMeters>3106.199951171875</AltitudeMeters>
            <DistanceMeters>16944.160494396</DistanceMeters>
          </Trackpoint>
          <Trackpoint>
            <Time>2019-07-15T13:21:44.000Z</Time>
            <Position>
              <LatitudeDegrees>37.052969746291637420654296875</LatitudeDegrees>
              <LongitudeDegrees>-3.3495199866592884063720703125</LongitudeDegrees>
            </Position>
            <AltitudeMeters>3105.800048828125</AltitudeMeters>
            <DistanceMeters>16950.768780837</DistanceMeters>
          </Trackpoint>
          <Trackpoint>
            <Time>2019-07-15T13:21:45.000Z</Time>
            <Position>
              <LatitudeDegrees>37.05297871492803096771240234375</LatitudeDegrees>
              <LongitudeDegrees>-3.3495216630399227142333984375</LongitudeDegrees>
            </Position>
            <AltitudeMeters>3105.800048828125</AltitudeMeters>
            <DistanceMeters>16951.778928667</DistanceMeters>
          </Trackpoint>
          <Trackpoint>
            <Time>2019-07-15T13:21:46.000Z</Time>
            <Position>
              <LatitudeDegrees>37.0529861748218536376953125</LatitudeDegrees>
              <LongitudeDegrees>-3.3495219983160495758056640625</LongitudeDegrees>
            </Position>
            <AltitudeMeters>3105.800048828125</AltitudeMeters>
            <DistanceMeters>16952.612784701</DistanceMeters>
          </Trackpoint>
          <Trackpoint>
            <Time>2019-07-15T13:22:09.000Z</Time>
            <Position>
              <LatitudeDegrees>37.05313570797443389892578125</LatitudeDegrees>
              <LongitudeDegrees>-3.34959936328232288360595703125</LongitudeDegrees>
            </Position>
            <AltitudeMeters>3104.800048828125</AltitudeMeters>
            <DistanceMeters>16970.61928144</DistanceMeters>
          </Trackpoint>
          <Trackpoint>
            <Time>2019-07-15T13:22:26.000Z</Time>
            <Position>
              <LatitudeDegrees>37.0532629452645778656005859375</LatitudeDegrees>
              <LongitudeDegrees>-3.3497788198292255401611328125</LongitudeDegrees>
            </Position>
            <AltitudeMeters>3103.39990234375</AltitudeMeters>
            <DistanceMeters>16991.941717717</DistanceMeters>
          </Trackpoint>
          <Trackpoint>
            <Time>2019-07-15T13:22:50.000Z</Time>
            <Position>
              <LatitudeDegrees>37.05339982174336910247802734375</LatitudeDegrees>
              <LongitudeDegrees>-3.3499181270599365234375</LongitudeDegrees>
            </Position>
            <AltitudeMeters>3104.800048828125</AltitudeMeters>
            <DistanceMeters>17011.568587845</DistanceMeters>
          </Trackpoint>
          <Trackpoint>
            <Time>2019-07-15T13:22:55.000Z</Time>
            <Position>
              <LatitudeDegrees>37.05343787558376789093017578125</LatitudeDegrees>
              <LongitudeDegrees>-3.34995768964290618896484375</LongitudeDegrees>
            </Position>
            <AltitudeMeters>3104.199951171875</AltitudeMeters>
            <DistanceMeters>17017.071939224</DistanceMeters>
          </Trackpoint>
          <Trackpoint>
            <Time>2019-07-15T13:23:08.000Z</Time>
            <Position>
              <LatitudeDegrees>37.0535475946962833404541015625</LatitudeDegrees>
              <LongitudeDegrees>-3.3500839211046695709228515625</LongitudeDegrees>
            </Position>
            <AltitudeMeters>3104.60009765625</AltitudeMeters>
            <DistanceMeters>17033.650765081</DistanceMeters>
          </Trackpoint>
          <Trackpoint>
            <Time>2019-07-15T13:23:27.000Z</Time>
            <Position>
              <LatitudeDegrees>37.05370140261948108673095703125</LatitudeDegrees>
              <LongitudeDegrees>-3.35021392442286014556884765625</LongitudeDegrees>
            </Position>
            <AltitudeMeters>3105.39990234375</AltitudeMeters>
            <DistanceMeters>17054.300881301</DistanceMeters>
          </Trackpoint>
          <Trackpoint>
            <Time>2019-07-15T13:23:36.000Z</Time>
            <Position>
              <LatitudeDegrees>37.05377533100545406341552734375</LatitudeDegrees>
              <LongitudeDegrees>-3.35027243010699748992919921875</LongitudeDegrees>
            </Position>
            <AltitudeMeters>3106</AltitudeMeters>
            <DistanceMeters>17064.033120089</DistanceMeters>
          </Trackpoint>
          <Trackpoint>
            <Time>2019-07-15T13:23:37.000Z</Time>
            <Position>
              <LatitudeDegrees>37.05378287471830844879150390625</LatitudeDegrees>
              <LongitudeDegrees>-3.35028081201016902923583984375</LongitudeDegrees>
            </Position>
            <AltitudeMeters>3106</AltitudeMeters>
            <DistanceMeters>17065.153468528</DistanceMeters>
          </Trackpoint>
          <Trackpoint>
            <Time>2019-07-15T13:23:38.000Z</Time>
            <Position>
              <LatitudeDegrees>37.05379293300211429595947265625</LatitudeDegrees>
              <LongitudeDegrees>-3.350288607180118560791015625</LongitudeDegrees>
            </Position>
            <AltitudeMeters>3106</AltitudeMeters>
            <DistanceMeters>17066.46676385</DistanceMeters>
          </Trackpoint>
          <Trackpoint>
            <Time>2019-07-15T13:23:39.000Z</Time>
            <Position>
              <LatitudeDegrees>37.053802572190761566162109375</LatitudeDegrees>
              <LongitudeDegrees>-3.35029874928295612335205078125</LongitudeDegrees>
            </Position>
            <AltitudeMeters>3106</AltitudeMeters>
            <DistanceMeters>17067.869816473</DistanceMeters>
          </Trackpoint>
          <Trackpoint>
            <Time>2019-07-15T13:23:40.000Z</Time>
            <Position>
              <LatitudeDegrees>37.05381103791296482086181640625</LatitudeDegrees>
              <LongitudeDegrees>-3.35030972957611083984375</LongitudeDegrees>
            </Position>
            <AltitudeMeters>3105.800048828125</AltitudeMeters>
            <DistanceMeters>17069.227069432</DistanceMeters>
          </Trackpoint>
          <Trackpoint>
            <Time>2019-07-15T13:24:02.000Z</Time>
            <Position>
              <LatitudeDegrees>37.05394280143082141876220703125</LatitudeDegrees>
              <LongitudeDegrees>-3.3505073748528957366943359375</LongitudeDegrees>
            </Position>
            <AltitudeMeters>3105.199951171875</AltitudeMeters>
            <DistanceMeters>17092.102666253</DistanceMeters>
          </Trackpoint>
          <Trackpoint>
            <Time>2019-07-15T13:24:16.000Z</Time>
            <Position>
              <LatitudeDegrees>37.0539928413927555084228515625</LatitudeDegrees>
              <LongitudeDegrees>-3.3507031761109828948974609375</LongitudeDegrees>
            </Position>
            <AltitudeMeters>3106.60009765625</AltitudeMeters>
            <DistanceMeters>17110.365109775</DistanceMeters>
          </Trackpoint>
          <Trackpoint>
            <Time>2019-07-15T13:24:29.000Z</Time>
            <Position>
              <LatitudeDegrees>37.05400683917105197906494140625</LatitudeDegrees>
              <LongitudeDegrees>-3.35088062100112438201904296875</LongitudeDegrees>
            </Position>
            <AltitudeMeters>3107.39990234375</AltitudeMeters>
            <DistanceMeters>17126.203814068</DistanceMeters>
          </Trackpoint>
          <Trackpoint>
            <Time>2019-07-15T13:24:30.000Z</Time>
            <Position>
              <LatitudeDegrees>37.05400700680911540985107421875</LatitudeDegrees>
              <LongitudeDegrees>-3.35089235566556453704833984375</LongitudeDegrees>
            </Position>
            <AltitudeMeters>3107.39990234375</AltitudeMeters>
            <DistanceMeters>17127.244779569</DistanceMeters>
          </Trackpoint>
          <Trackpoint>
            <Time>2019-07-15T13:24:43.000Z</Time>
            <Position>
              <LatitudeDegrees>37.05403567291796207427978515625</LatitudeDegrees>
              <LongitudeDegrees>-3.35106267593801021575927734375</LongitudeDegrees>
            </Position>
            <AltitudeMeters>3108.199951171875</AltitudeMeters>
            <DistanceMeters>17142.706417379</DistanceMeters>
          </Trackpoint>
          <Trackpoint>
            <Time>2019-07-15T13:24:47.000Z</Time>
            <Position>
              <LatitudeDegrees>37.0540590584278106689453125</LatitudeDegrees>
              <LongitudeDegrees>-3.35110559128224849700927734375</LongitudeDegrees>
            </Position>
            <AltitudeMeters>3108.39990234375</AltitudeMeters>
            <DistanceMeters>17147.322799123</DistanceMeters>
          </Trackpoint>
          <Trackpoint>
            <Time>2019-07-15T13:24:50.000Z</Time>
            <Position>
              <LatitudeDegrees>37.0540696196258068084716796875</LatitudeDegrees>
              <LongitudeDegrees>-3.35113861598074436187744140625</LongitudeDegrees>
            </Position>
            <AltitudeMeters>3108.60009765625</AltitudeMeters>
            <DistanceMeters>17150.484490858</DistanceMeters>
          </Trackpoint>
          <Trackpoint>
            <Time>2019-07-15T13:24:51.000Z</Time>
            <Position>
              <LatitudeDegrees>37.05407523550093173980712890625</LatitudeDegrees>
              <LongitudeDegrees>-3.3511490933597087860107421875</LongitudeDegrees>
            </Position>
            <AltitudeMeters>3108.60009765625</AltitudeMeters>
            <DistanceMeters>17151.608862105</DistanceMeters>
          </Trackpoint>
          <Trackpoint>
            <Time>2019-07-15T13:24:56.000Z</Time>
            <Position>
              <LatitudeDegrees>37.05409954302012920379638671875</LatitudeDegrees>
              <LongitudeDegrees>-3.351208604872226715087890625</LongitudeDegrees>
            </Position>
            <AltitudeMeters>3108.800048828125</AltitudeMeters>
            <DistanceMeters>17157.547841697</DistanceMeters>
          </Trackpoint>
          <Trackpoint>
            <Time>2019-07-15T13:25:15.000Z</Time>
            <Position>
              <LatitudeDegrees>37.0541725493967533111572265625</LatitudeDegrees>
              <LongitudeDegrees>-3.35144522599875926971435546875</LongitudeDegrees>
            </Position>
            <AltitudeMeters>3110.60009765625</AltitudeMeters>
            <DistanceMeters>17180.082200324</DistanceMeters>
          </Trackpoint>
          <Trackpoint>
            <Time>2019-07-15T13:25:22.000Z</Time>
            <Position>
              <LatitudeDegrees>37.054202891886234283447265625</LatitudeDegrees>
              <LongitudeDegrees>-3.351521752774715423583984375</LongitudeDegrees>
            </Position>
            <AltitudeMeters>3111.39990234375</AltitudeMeters>
            <DistanceMeters>17187.67244984</DistanceMeters>
          </Trackpoint>
          <Trackpoint>
            <Time>2019-07-15T13:25:42.000Z</Time>
            <Position>
              <LatitudeDegrees>37.0543274469673633575439453125</LatitudeDegrees>
              <LongitudeDegrees>-3.35171478800475597381591796875</LongitudeDegrees>
            </Position>
            <AltitudeMeters>3112.39990234375</AltitudeMeters>
            <DistanceMeters>17209.722333647</DistanceMeters>
          </Trackpoint>
          <Trackpoint>
            <Time>2019-07-15T13:25:49.000Z</Time>
            <Position>
              <LatitudeDegrees>37.05436843447387218475341796875</LatitudeDegrees>
              <LongitudeDegrees>-3.35177497006952762603759765625</LongitudeDegrees>
            </Position>
            <AltitudeMeters>3113</AltitudeMeters>
            <DistanceMeters>17216.75045702</DistanceMeters>
          </Trackpoint>
          <Trackpoint>
            <Time>2019-07-15T13:25:53.000Z</Time>
            <Position>
              <LatitudeDegrees>37.05438427627086639404296875</LatitudeDegrees>
              <LongitudeDegrees>-3.35181352682411670684814453125</LongitudeDegrees>
            </Position>
            <AltitudeMeters>3113.39990234375</AltitudeMeters>
            <DistanceMeters>17220.603435825</DistanceMeters>
          </Trackpoint>
          <Trackpoint>
            <Time>2019-07-15T13:25:54.000Z</Time>
            <Position>
              <LatitudeDegrees>37.05438620410859584808349609375</LatitudeDegrees>
              <LongitudeDegrees>-3.35182643495500087738037109375</LongitudeDegrees>
            </Position>
            <AltitudeMeters>3113.39990234375</AltitudeMeters>
            <DistanceMeters>17221.771143641</DistanceMeters>
          </Trackpoint>
          <Trackpoint>
            <Time>2019-07-15T13:25:55.000Z</Time>
            <Position>
              <LatitudeDegrees>37.0543911494314670562744140625</LatitudeDegrees>
              <LongitudeDegrees>-3.3518364094197750091552734375</LongitudeDegrees>
            </Position>
            <AltitudeMeters>3113.60009765625</AltitudeMeters>
            <DistanceMeters>17222.812109142</DistanceMeters>
          </Trackpoint>
          <Trackpoint>
            <Time>2019-07-15T13:25:56.000Z</Time>
            <Position>
              <LatitudeDegrees>37.054395340383052825927734375</LatitudeDegrees>
              <LongitudeDegrees>-3.35184705443680286407470703125</LongitudeDegrees>
            </Position>
            <AltitudeMeters>3113.60009765625</AltitudeMeters>
            <DistanceMeters>17223.866006386</DistanceMeters>
          </Trackpoint>
          <Trackpoint>
            <Time>2019-07-15T13:25:57.000Z</Time>
            <Position>
              <LatitudeDegrees>37.05439961515367031097412109375</LatitudeDegrees>
              <LongitudeDegrees>-3.35185795091092586517333984375</LongitudeDegrees>
            </Position>
            <AltitudeMeters>3113.800048828125</AltitudeMeters>
            <DistanceMeters>17224.949477631</DistanceMeters>
          </Trackpoint>
          <Trackpoint>
            <Time>2019-07-15T13:25:58.000Z</Time>
            <Position>
              <LatitudeDegrees>37.0544038899242877960205078125</LatitudeDegrees>
              <LongitudeDegrees>-3.35187102667987346649169921875</LongitudeDegrees>
            </Position>
            <AltitudeMeters>3113.800048828125</AltitudeMeters>
            <DistanceMeters>17226.210149458</DistanceMeters>
          </Trackpoint>
          <Trackpoint>
            <Time>2019-07-15T13:26:23.000Z</Time>
            <Position>
              <LatitudeDegrees>37.05446918494999408721923828125</LatitudeDegrees>
              <LongitudeDegrees>-3.35204922594130039215087890625</LongitudeDegrees>
            </Position>
            <AltitudeMeters>3115.199951171875</AltitudeMeters>
            <DistanceMeters>17243.627278614</DistanceMeters>
          </Trackpoint>
          <Trackpoint>
            <Time>2019-07-15T13:26:41.000Z</Time>
            <Position>
              <LatitudeDegrees>37.05457781441509723663330078125</LatitudeDegrees>
              <LongitudeDegrees>-3.35225977934896945953369140625</LongitudeDegrees>
            </Position>
            <AltitudeMeters>3116.39990234375</AltitudeMeters>
            <DistanceMeters>17265.897615805</DistanceMeters>
          </Trackpoint>
          <Trackpoint>
            <Time>2019-07-15T13:26:54.000Z</Time>
            <Position>
              <LatitudeDegrees>37.0546540059149265289306640625</LatitudeDegrees>
              <LongitudeDegrees>-3.352388106286525726318359375</LongitudeDegrees>
            </Position>
            <AltitudeMeters>3117.60009765625</AltitudeMeters>
            <DistanceMeters>17280.10530136</DistanceMeters>
          </Trackpoint>
          <Trackpoint>
            <Time>2019-07-15T13:26:55.000Z</Time>
            <Position>
              <LatitudeDegrees>37.05465962179005146026611328125</LatitudeDegrees>
              <LongitudeDegrees>-3.3524006791412830352783203125</LongitudeDegrees>
            </Position>
            <AltitudeMeters>3117.60009765625</AltitudeMeters>
            <DistanceMeters>17281.387281825</DistanceMeters>
          </Trackpoint>
          <Trackpoint>
            <Time>2019-07-15T13:26:56.000Z</Time>
            <Position>
              <LatitudeDegrees>37.05466632731258869171142578125</LatitudeDegrees>
              <LongitudeDegrees>-3.352410905063152313232421875</LongitudeDegrees>
            </Position>
            <AltitudeMeters>3117.800048828125</AltitudeMeters>
            <DistanceMeters>17282.558849843</DistanceMeters>
          </Trackpoint>
          <Trackpoint>
            <Time>2019-07-15T13:26:57.000Z</Time>
            <Position>
              <LatitudeDegrees>37.05467219464480876922607421875</LatitudeDegrees>
              <LongitudeDegrees>-3.3524219691753387451171875</LongitudeDegrees>
            </Position>
            <AltitudeMeters>3117.800048828125</AltitudeMeters>
            <DistanceMeters>17283.738100356</DistanceMeters>
          </Trackpoint>
          <Trackpoint>
            <Time>2019-07-15T13:26:58.000Z</Time>
            <Position>
              <LatitudeDegrees>37.05467957071959972381591796875</LatitudeDegrees>
              <LongitudeDegrees>-3.35243294946849346160888671875</LongitudeDegrees>
            </Position>
            <AltitudeMeters>3117.800048828125</AltitudeMeters>
            <DistanceMeters>17285.013017514</DistanceMeters>
          </Trackpoint>
          <Trackpoint>
            <Time>2019-07-15T13:26:59.000Z</Time>
            <Position>
              <LatitudeDegrees>37.05468543805181980133056640625</LatitudeDegrees>
              <LongitudeDegrees>-3.3524442650377750396728515625</LongitudeDegrees>
            </Position>
            <AltitudeMeters>3117.800048828125</AltitudeMeters>
            <DistanceMeters>17286.211258789</DistanceMeters>
          </Trackpoint>
          <Trackpoint>
            <Time>2019-07-15T13:27:00.000Z</Time>
            <Position>
              <LatitudeDegrees>37.05469298176467418670654296875</LatitudeDegrees>
              <LongitudeDegrees>-3.35245239548385143280029296875</LongitudeDegrees>
            </Position>
            <AltitudeMeters>3118</AltitudeMeters>
            <DistanceMeters>17287.323517965</DistanceMeters>
          </Trackpoint>
          <Trackpoint>
            <Time>2019-07-15T13:27:01.000Z</Time>
            <Position>
              <LatitudeDegrees>37.0547009445726871490478515625</LatitudeDegrees>
              <LongitudeDegrees>-3.35246153175830841064453125</LongitudeDegrees>
            </Position>
            <AltitudeMeters>3118</AltitudeMeters>
            <DistanceMeters>17288.525521388</DistanceMeters>
          </Trackpoint>
          <Trackpoint>
            <Time>2019-07-15T13:27:02.000Z</Time>
            <Position>
              <LatitudeDegrees>37.05470857210457324981689453125</LatitudeDegrees>
              <LongitudeDegrees>-3.35246999748051166534423828125</LongitudeDegrees>
            </Position>
            <AltitudeMeters>3118</AltitudeMeters>
            <DistanceMeters>17289.657895379</DistanceMeters>
          </Trackpoint>
          <Trackpoint>
            <Time>2019-07-15T13:27:03.000Z</Time>
            <Position>
              <LatitudeDegrees>37.0547160319983959197998046875</LatitudeDegrees>
              <LongitudeDegrees>-3.35247787646949291229248046875</LongitudeDegrees>
            </Position>
            <AltitudeMeters>3118.199951171875</AltitudeMeters>
            <DistanceMeters>17290.741366624</DistanceMeters>
          </Trackpoint>
          <Trackpoint>
            <Time>2019-07-15T13:27:23.000Z</Time>
            <Position>
              <LatitudeDegrees>37.0548798143863677978515625</LatitudeDegrees>
              <LongitudeDegrees>-3.35262321867048740386962890625</LongitudeDegrees>
            </Position>
            <AltitudeMeters>3118.60009765625</AltitudeMeters>
            <DistanceMeters>17313.078911341</DistanceMeters>
          </Trackpoint>
          <Trackpoint>
            <Time>2019-07-15T13:27:32.000Z</Time>
            <Position>
              <LatitudeDegrees>37.05496271140873432159423828125</LatitudeDegrees>
              <LongitudeDegrees>-3.35265942849218845367431640625</LongitudeDegrees>
            </Position>
            <AltitudeMeters>3119.60009765625</AltitudeMeters>
            <DistanceMeters>17322.850504267</DistanceMeters>
          </Trackpoint>
          <Trackpoint>
            <Time>2019-07-15T13:27:33.000Z</Time>
            <Position>
              <LatitudeDegrees>37.05497059039771556854248046875</LatitudeDegrees>
              <LongitudeDegrees>-3.35266462527215480804443359375</LongitudeDegrees>
            </Position>
            <AltitudeMeters>3119.39990234375</AltitudeMeters>
            <DistanceMeters>17323.842612292</DistanceMeters>
          </Trackpoint>
          <Trackpoint>
            <Time>2019-07-15T13:27:55.000Z</Time>
            <Position>
              <LatitudeDegrees>37.05515080131590366363525390625</LatitudeDegrees>
              <LongitudeDegrees>-3.352787084877490997314453125</LongitudeDegrees>
            </Position>
            <AltitudeMeters>3118.199951171875</AltitudeMeters>
            <DistanceMeters>17346.660107497</DistanceMeters>
          </Trackpoint>
          <Trackpoint>
            <Time>2019-07-15T13:28:15.000Z</Time>
            <Position>
              <LatitudeDegrees>37.05533486790955066680908203125</LatitudeDegrees>
              <LongitudeDegrees>-3.3529222011566162109375</LongitudeDegrees>
            </Position>
            <AltitudeMeters>3118.199951171875</AltitudeMeters>
            <DistanceMeters>17370.40385894</DistanceMeters>
          </Trackpoint>
          <Trackpoint>
            <Time>2019-07-15T13:28:16.000Z</Time>
            <Position>
              <LatitudeDegrees>37.05534039996564388275146484375</LatitudeDegrees>
              <LongitudeDegrees>-3.352932594716548919677734375</LongitudeDegrees>
            </Position>
            <AltitudeMeters>3118.199951171875</AltitudeMeters>
            <DistanceMeters>17371.51205134</DistanceMeters>
          </Trackpoint>
          <Trackpoint>
            <Time>2019-07-15T13:28:17.000Z</Time>
            <Position>
              <LatitudeDegrees>37.055346854031085968017578125</LatitudeDegrees>
              <LongitudeDegrees>-3.35294256918132305145263671875</LongitudeDegrees>
            </Position>
            <AltitudeMeters>3118</AltitudeMeters>
            <DistanceMeters>17372.652371912</DistanceMeters>
          </Trackpoint>
          <Trackpoint>
            <Time>2019-07-15T13:28:18.000Z</Time>
            <Position>
              <LatitudeDegrees>37.0553564094007015228271484375</LatitudeDegrees>
              <LongitudeDegrees>-3.352951705455780029296875</LongitudeDegrees>
            </Position>
            <AltitudeMeters>3117.800048828125</AltitudeMeters>
            <DistanceMeters>17373.989516308</DistanceMeters>
          </Trackpoint>
          <Trackpoint>
            <Time>2019-07-15T13:28:21.000Z</Time>
            <Position>
              <LatitudeDegrees>37.05538474023342132568359375</LatitudeDegrees>
              <LongitudeDegrees>-3.3529847301542758941650390625</LongitudeDegrees>
            </Position>
            <AltitudeMeters>3117.199951171875</AltitudeMeters>
            <DistanceMeters>17378.296229326</DistanceMeters>
          </Trackpoint>
          <Trackpoint>
            <Time>2019-07-15T13:28:22.000Z</Time>
            <Position>
              <LatitudeDegrees>37.0553912781178951263427734375</LatitudeDegrees>
              <LongitudeDegrees>-3.35299738682806491851806640625</LongitudeDegrees>
            </Position>
            <AltitudeMeters>3117.199951171875</AltitudeMeters>
            <DistanceMeters>17379.640110009</DistanceMeters>
          </Trackpoint>
          <Trackpoint>
            <Time>2019-07-15T13:28:23.000Z</Time>
            <Position>
              <LatitudeDegrees>37.05539739690721035003662109375</LatitudeDegrees>
              <LongitudeDegrees>-3.3530081994831562042236328125</LongitudeDegrees>
            </Position>
            <AltitudeMeters>3117.199951171875</AltitudeMeters>
            <DistanceMeters>17380.819360522</DistanceMeters>
          </Trackpoint>
          <Trackpoint>
            <Time>2019-07-15T13:28:25.000Z</Time>
            <Position>
              <LatitudeDegrees>37.0554130710661411285400390625</LatitudeDegrees>
              <LongitudeDegrees>-3.35302521474659442901611328125</LongitudeDegrees>
            </Position>
            <AltitudeMeters>3117.199951171875</AltitudeMeters>
            <DistanceMeters>17383.127551394</DistanceMeters>
          </Trackpoint>
          <Trackpoint>
            <Time>2019-07-15T13:28:51.000Z</Time>
            <Position>
              <LatitudeDegrees>37.055512480437755584716796875</LatitudeDegrees>
              <LongitudeDegrees>-3.3530749194324016571044921875</LongitudeDegrees>
            </Position>
            <AltitudeMeters>3116</AltitudeMeters>
            <DistanceMeters>17395.040051187</DistanceMeters>
          </Trackpoint>
          <Trackpoint>
            <Time>2019-07-15T13:29:17.000Z</Time>
            <Position>
              <LatitudeDegrees>37.05553201027214527130126953125</LatitudeDegrees>
              <LongitudeDegrees>-3.35309143178164958953857421875</LongitudeDegrees>
            </Position>
            <AltitudeMeters>3116.39990234375</AltitudeMeters>
            <DistanceMeters>17397.661479838</DistanceMeters>
          </Trackpoint>
          <Trackpoint>
            <Time>2019-07-15T13:29:45.000Z</Time>
            <Position>
              <LatitudeDegrees>37.05552144907414913177490234375</LatitudeDegrees>
              <LongitudeDegrees>-3.35313535295426845550537109375</LongitudeDegrees>
            </Position>
            <AltitudeMeters>3116</AltitudeMeters>
            <DistanceMeters>17401.735455845</DistanceMeters>
          </Trackpoint>
          <Trackpoint>
            <Time>2019-07-15T13:29:49.000Z</Time>
            <Position>
              <LatitudeDegrees>37.05553318373858928680419921875</LatitudeDegrees>
              <LongitudeDegrees>-3.35318505764007568359375</LongitudeDegrees>
            </Position>
            <AltitudeMeters>3116</AltitudeMeters>
            <DistanceMeters>17406.340086068</DistanceMeters>
          </Trackpoint>
          <Trackpoint>
            <Time>2019-07-15T13:29:50.000Z</Time>
            <Position>
              <LatitudeDegrees>37.055534608662128448486328125</LatitudeDegrees>
              <LongitudeDegrees>-3.35319872014224529266357421875</LongitudeDegrees>
            </Position>
            <AltitudeMeters>3115.800048828125</AltitudeMeters>
            <DistanceMeters>17407.564419637</DistanceMeters>
          </Trackpoint>
          <Trackpoint>
            <Time>2019-07-15T13:30:05.000Z</Time>
            <Position>
              <LatitudeDegrees>37.05558992922306060791015625</LatitudeDegrees>
              <LongitudeDegrees>-3.35338362492620944976806640625</LongitudeDegrees>
            </Position>
            <AltitudeMeters>3116.39990234375</AltitudeMeters>
            <DistanceMeters>17425.104765544</DistanceMeters>
          </Trackpoint>
          <Trackpoint>
            <Time>2019-07-15T13:30:06.000Z</Time>
            <Position>
              <LatitudeDegrees>37.05559705384075641632080078125</LatitudeDegrees>
              <LongitudeDegrees>-3.35339770652353763580322265625</LongitudeDegrees>
            </Position>
            <AltitudeMeters>3116.39990234375</AltitudeMeters>
            <DistanceMeters>17426.589130274</DistanceMeters>
          </Trackpoint>
          <Trackpoint>
            <Time>2019-07-15T13:30:07.000Z</Time>
            <Position>
              <LatitudeDegrees>37.05560577102005481719970703125</LatitudeDegrees>
              <LongitudeDegrees>-3.35341262631118297576904296875</LongitudeDegrees>
            </Position>
            <AltitudeMeters>3116.39990234375</AltitudeMeters>
            <DistanceMeters>17428.229545703</DistanceMeters>
          </Trackpoint>
          <Trackpoint>
            <Time>2019-07-15T13:30:08.000Z</Time>
            <Position>
              <LatitudeDegrees>37.05561163835227489471435546875</LatitudeDegrees>
              <LongitudeDegrees>-3.353429138660430908203125</LongitudeDegrees>
            </Position>
            <AltitudeMeters>3116.199951171875</AltitudeMeters>
            <DistanceMeters>17429.836593264</DistanceMeters>
          </Trackpoint>
          <Trackpoint>
            <Time>2019-07-15T13:30:09.000Z</Time>
            <Position>
              <LatitudeDegrees>37.05561700277030467987060546875</LatitudeDegrees>
              <LongitudeDegrees>-3.353444226086139678955078125</LongitudeDegrees>
            </Position>
            <AltitudeMeters>3116</AltitudeMeters>
            <DistanceMeters>17431.302594012</DistanceMeters>
          </Trackpoint>
          <Trackpoint>
            <Time>2019-07-15T13:30:10.000Z</Time>
            <Position>
              <LatitudeDegrees>37.05562119372189044952392578125</LatitudeDegrees>
              <LongitudeDegrees>-3.35345529019832611083984375</LongitudeDegrees>
            </Position>
            <AltitudeMeters>3116</AltitudeMeters>
            <DistanceMeters>17432.390224471</DistanceMeters>
          </Trackpoint>
          <Trackpoint>
            <Time>2019-07-15T13:30:33.000Z</Time>
            <Position>
              <LatitudeDegrees>37.055660672485828399658203125</LatitudeDegrees>
              <LongitudeDegrees>-3.35368637926876544952392578125</LongitudeDegrees>
            </Position>
            <AltitudeMeters>3117.60009765625</AltitudeMeters>
            <DistanceMeters>17453.381881631</DistanceMeters>
          </Trackpoint>
          <Trackpoint>
            <Time>2019-07-15T13:30:53.000Z</Time>
            <Position>
              <LatitudeDegrees>37.05565958283841609954833984375</LatitudeDegrees>
              <LongitudeDegrees>-3.3539315499365329742431640625</LongitudeDegrees>
            </Position>
            <AltitudeMeters>3118.60009765625</AltitudeMeters>
            <DistanceMeters>17475.159384124</DistanceMeters>
          </Trackpoint>
          <Trackpoint>
            <Time>2019-07-15T13:31:12.000Z</Time>
            <Position>
              <LatitudeDegrees>37.05564759671688079833984375</LatitudeDegrees>
              <LongitudeDegrees>-3.35417504422366619110107421875</LongitudeDegrees>
            </Position>
            <AltitudeMeters>3119.39990234375</AltitudeMeters>
            <DistanceMeters>17496.828600653</DistanceMeters>
          </Trackpoint>
          <Trackpoint>
            <Time>2019-07-15T13:31:34.000Z</Time>
            <Position>
              <LatitudeDegrees>37.05560141243040561676025390625</LatitudeDegrees>
              <LongitudeDegrees>-3.354421220719814300537109375</LongitudeDegrees>
            </Position>
            <AltitudeMeters>3120.199951171875</AltitudeMeters>
            <DistanceMeters>17519.291115013</DistanceMeters>
          </Trackpoint>
          <Trackpoint>
            <Time>2019-07-15T13:31:53.000Z</Time>
            <Position>
              <LatitudeDegrees>37.05554424785077571868896484375</LatitudeDegrees>
              <LongitudeDegrees>-3.3546748571097850799560546875</LongitudeDegrees>
            </Position>
            <AltitudeMeters>3120.800048828125</AltitudeMeters>
            <DistanceMeters>17542.701269635</DistanceMeters>
          </Trackpoint>
          <Trackpoint>
            <Time>2019-07-15T13:32:09.000Z</Time>
            <Position>
              <LatitudeDegrees>37.05547467805445194244384765625</LatitudeDegrees>
              <LongitudeDegrees>-3.35486755706369876861572265625</LongitudeDegrees>
            </Position>
            <AltitudeMeters>3121.199951171875</AltitudeMeters>
            <DistanceMeters>17561.487741037</DistanceMeters>
          </Trackpoint>
          <Trackpoint>
            <Time>2019-07-15T13:32:10.000Z</Time>
            <Position>
              <LatitudeDegrees>37.05547082237899303436279296875</LatitudeDegrees>
              <LongitudeDegrees>-3.35487820208072662353515625</LongitudeDegrees>
            </Position>
            <AltitudeMeters>3121.199951171875</AltitudeMeters>
            <DistanceMeters>17562.528706537</DistanceMeters>
          </Trackpoint>
          <Trackpoint>
            <Time>2019-07-15T13:32:11.000Z</Time>
            <Position>
              <LatitudeDegrees>37.0554677210748195648193359375</LatitudeDegrees>
              <LongitudeDegrees>-3.3548890985548496246337890625</LongitudeDegrees>
            </Position>
            <AltitudeMeters>3121.199951171875</AltitudeMeters>
            <DistanceMeters>17563.560960876</DistanceMeters>
          </Trackpoint>
          <Trackpoint>
            <Time>2019-07-15T13:32:29.000Z</Time>
            <Position>
              <LatitudeDegrees>37.0553698204457759857177734375</LatitudeDegrees>
              <LongitudeDegrees>-3.35511289536952972412109375</LongitudeDegrees>
            </Position>
            <AltitudeMeters>3122</AltitudeMeters>
            <DistanceMeters>17586.230359863</DistanceMeters>
          </Trackpoint>
          <Trackpoint>
            <Time>2019-07-15T13:32:46.000Z</Time>
            <Position>
              <LatitudeDegrees>37.0552575029432773590087890625</LatitudeDegrees>
              <LongitudeDegrees>-3.35527910850942134857177734375</LongitudeDegrees>
            </Position>
            <AltitudeMeters>3122.199951171875</AltitudeMeters>
            <DistanceMeters>17605.575941225</DistanceMeters>
          </Trackpoint>
          <Trackpoint>
            <Time>2019-07-15T13:32:49.000Z</Time>
            <Position>
              <LatitudeDegrees>37.05524685792624950408935546875</LatitudeDegrees>
              <LongitudeDegrees>-3.35532478988170623779296875</LongitudeDegrees>
            </Position>
            <AltitudeMeters>3122.60009765625</AltitudeMeters>
            <DistanceMeters>17609.803295158</DistanceMeters>
          </Trackpoint>
          <Trackpoint>
            <Time>2019-07-15T13:33:07.000Z</Time>
            <Position>
              <LatitudeDegrees>37.05513923428952693939208984375</LatitudeDegrees>
              <LongitudeDegrees>-3.3555247820913791656494140625</LongitudeDegrees>
            </Position>
            <AltitudeMeters>3123</AltitudeMeters>
            <DistanceMeters>17631.229237991</DistanceMeters>
          </Trackpoint>
          <Trackpoint>
            <Time>2019-07-15T13:33:25.000Z</Time>
            <Position>
              <LatitudeDegrees>37.0550251565873622894287109375</LatitudeDegrees>
              <LongitudeDegrees>-3.35572921670973300933837890625</LongitudeDegrees>
            </Position>
            <AltitudeMeters>3123.800048828125</AltitudeMeters>
            <DistanceMeters>17653.386770033</DistanceMeters>
          </Trackpoint>
          <Trackpoint>
            <Time>2019-07-15T13:33:43.000Z</Time>
            <Position>
              <LatitudeDegrees>37.05495969392359256744384765625</LatitudeDegrees>
              <LongitudeDegrees>-3.35594572126865386962890625</LongitudeDegrees>
            </Position>
            <AltitudeMeters>3124.60009765625</AltitudeMeters>
            <DistanceMeters>17673.951877138</DistanceMeters>
          </Trackpoint>
          <Trackpoint>
            <Time>2019-07-15T13:34:01.000Z</Time>
            <Position>
              <LatitudeDegrees>37.054916359484195709228515625</LatitudeDegrees>
              <LongitudeDegrees>-3.35617697797715663909912109375</LongitudeDegrees>
            </Position>
            <AltitudeMeters>3126.199951171875</AltitudeMeters>
            <DistanceMeters>17695.051659811</DistanceMeters>
          </Trackpoint>
          <Trackpoint>
            <Time>2019-07-15T13:34:18.000Z</Time>
            <Position>
              <LatitudeDegrees>37.054870426654815673828125</LatitudeDegrees>
              <LongitudeDegrees>-3.3563995175063610076904296875</LongitudeDegrees>
            </Position>
            <AltitudeMeters>3127.199951171875</AltitudeMeters>
            <DistanceMeters>17715.468918416</DistanceMeters>
          </Trackpoint>
          <Trackpoint>
            <Time>2019-07-15T13:34:36.000Z</Time>
            <Position>
              <LatitudeDegrees>37.05483044497668743133544921875</LatitudeDegrees>
              <LongitudeDegrees>-3.35664703510701656341552734375</LongitudeDegrees>
            </Position>
            <AltitudeMeters>3127.39990234375</AltitudeMeters>
            <DistanceMeters>17737.900658199</DistanceMeters>
          </Trackpoint>
          <Trackpoint>
            <Time>2019-07-15T13:34:56.000Z</Time>
            <Position>
              <LatitudeDegrees>37.05480965785682201385498046875</LatitudeDegrees>
              <LongitudeDegrees>-3.35688960738480091094970703125</LongitudeDegrees>
            </Position>
            <AltitudeMeters>3127.39990234375</AltitudeMeters>
            <DistanceMeters>17759.570916513</DistanceMeters>
          </Trackpoint>
          <Trackpoint>
            <Time>2019-07-15T13:35:14.000Z</Time>
            <Position>
              <LatitudeDegrees>37.054766826331615447998046875</LatitudeDegrees>
              <LongitudeDegrees>-3.35711457766592502593994140625</LongitudeDegrees>
            </Position>
            <AltitudeMeters>3128.199951171875</AltitudeMeters>
            <DistanceMeters>17780.114716377</DistanceMeters>
          </Trackpoint>
          <Trackpoint>
            <Time>2019-07-15T13:35:22.000Z</Time>
            <Position>
              <LatitudeDegrees>37.0547485537827014923095703125</LatitudeDegrees>
              <LongitudeDegrees>-3.35720392875373363494873046875</LongitudeDegrees>
            </Position>
            <AltitudeMeters>3129.60009765625</AltitudeMeters>
            <DistanceMeters>17788.307981189</DistanceMeters>
          </Trackpoint>
          <Trackpoint>
            <Time>2019-07-15T13:35:32.000Z</Time>
            <Position>
              <LatitudeDegrees>37.05471443943679332733154296875</LatitudeDegrees>
              <LongitudeDegrees>-3.35732311941683292388916015625</LongitudeDegrees>
            </Position>
            <AltitudeMeters>3130.60009765625</AltitudeMeters>
            <DistanceMeters>17799.555708558</DistanceMeters>
          </Trackpoint>
          <Trackpoint>
            <Time>2019-07-15T13:35:33.000Z</Time>
            <Position>
              <LatitudeDegrees>37.05470941029489040374755859375</LatitudeDegrees>
              <LongitudeDegrees>-3.35733468644320964813232421875</LongitudeDegrees>
            </Position>
            <AltitudeMeters>3130.39990234375</AltitudeMeters>
            <DistanceMeters>17800.727276576</DistanceMeters>
          </Trackpoint>
          <Trackpoint>
            <Time>2019-07-15T13:35:51.000Z</Time>
            <Position>
              <LatitudeDegrees>37.0546464622020721435546875</LatitudeDegrees>
              <LongitudeDegrees>-3.35755596868693828582763671875</LongitudeDegrees>
            </Position>
            <AltitudeMeters>3129.199951171875</AltitudeMeters>
            <DistanceMeters>17821.594242961</DistanceMeters>
          </Trackpoint>
          <Trackpoint>
            <Time>2019-07-15T13:36:09.000Z</Time>
            <Position>
              <LatitudeDegrees>37.0545571111142635345458984375</LatitudeDegrees>
              <LongitudeDegrees>-3.35775730200111865997314453125</LongitudeDegrees>
            </Position>
            <AltitudeMeters>3128.60009765625</AltitudeMeters>
            <DistanceMeters>17842.057225999</DistanceMeters>
          </Trackpoint>
          <Trackpoint>
            <Time>2019-07-15T13:36:27.000Z</Time>
            <Position>
              <LatitudeDegrees>37.05443750135600566864013671875</LatitudeDegrees>
              <LongitudeDegrees>-3.357946984469890594482421875</LongitudeDegrees>
            </Position>
            <AltitudeMeters>3129.199951171875</AltitudeMeters>
            <DistanceMeters>17863.530740465</DistanceMeters>
          </Trackpoint>
          <Trackpoint>
            <Time>2019-07-15T13:36:45.000Z</Time>
            <Position>
              <LatitudeDegrees>37.05433608032763004302978515625</LatitudeDegrees>
              <LongitudeDegrees>-3.35813666693866252899169921875</LongitudeDegrees>
            </Position>
            <AltitudeMeters>3129.800048828125</AltitudeMeters>
            <DistanceMeters>17883.811320384</DistanceMeters>
          </Trackpoint>
          <Trackpoint>
            <Time>2019-07-15T13:37:04.000Z</Time>
            <Position>
              <LatitudeDegrees>37.0542479865252971649169921875</LatitudeDegrees>
              <LongitudeDegrees>-3.35833917371928691864013671875</LongitudeDegrees>
            </Position>
            <AltitudeMeters>3130.39990234375</AltitudeMeters>
            <DistanceMeters>17904.298119135</DistanceMeters>
          </Trackpoint>
          <Trackpoint>
            <Time>2019-07-15T13:37:05.000Z</Time>
            <Position>
              <LatitudeDegrees>37.05423968844115734100341796875</LatitudeDegrees>
              <LongitudeDegrees>-3.3583484776318073272705078125</LongitudeDegrees>
            </Position>
            <AltitudeMeters>3130.60009765625</AltitudeMeters>
            <DistanceMeters>17905.537115904</DistanceMeters>
          </Trackpoint>
          <Trackpoint>
            <Time>2019-07-15T13:37:23.000Z</Time>
            <Position>
              <LatitudeDegrees>37.0541376806795597076416015625</LatitudeDegrees>
              <LongitudeDegrees>-3.35854746401309967041015625</LongitudeDegrees>
            </Position>
            <AltitudeMeters>3131.199951171875</AltitudeMeters>
            <DistanceMeters>17926.544683493</DistanceMeters>
          </Trackpoint>
          <Trackpoint>
            <Time>2019-07-15T13:37:42.000Z</Time>
            <Position>
              <LatitudeDegrees>37.0540069229900836944580078125</LatitudeDegrees>
              <LongitudeDegrees>-3.3587300218641757965087890625</LongitudeDegrees>
            </Position>
            <AltitudeMeters>3131.800048828125</AltitudeMeters>
            <DistanceMeters>17948.333793137</DistanceMeters>
          </Trackpoint>
          <Trackpoint>
            <Time>2019-07-15T13:37:56.000Z</Time>
            <Position>
              <LatitudeDegrees>37.0539115369319915771484375</LatitudeDegrees>
              <LongitudeDegrees>-3.3588674850761890411376953125</LongitudeDegrees>
            </Position>
            <AltitudeMeters>3132.39990234375</AltitudeMeters>
            <DistanceMeters>17964.514585344</DistanceMeters>
          </Trackpoint>
          <Trackpoint>
            <Time>2019-07-15T13:37:57.000Z</Time>
            <Position>
              <LatitudeDegrees>37.05390290357172489166259765625</LatitudeDegrees>
              <LongitudeDegrees>-3.35887561552226543426513671875</LongitudeDegrees>
            </Position>
            <AltitudeMeters>3132.39990234375</AltitudeMeters>
            <DistanceMeters>17965.716588767</DistanceMeters>
          </Trackpoint>
          <Trackpoint>
            <Time>2019-07-15T13:37:58.000Z</Time>
            <Position>
              <LatitudeDegrees>37.053895778954029083251953125</LatitudeDegrees>
              <LongitudeDegrees>-3.3588860929012298583984375</LongitudeDegrees>
            </Position>
            <AltitudeMeters>3132.60009765625</AltitudeMeters>
            <DistanceMeters>17966.940922337</DistanceMeters>
          </Trackpoint>
          <Trackpoint>
            <Time>2019-07-15T13:38:17.000Z</Time>
            <Position>
              <LatitudeDegrees>37.0537873171269893646240234375</LatitudeDegrees>
              <LongitudeDegrees>-3.3590901084244251251220703125</LongitudeDegrees>
            </Position>
            <AltitudeMeters>3133.39990234375</AltitudeMeters>
            <DistanceMeters>17988.715522075</DistanceMeters>
          </Trackpoint>
          <Trackpoint>
            <Time>2019-07-15T13:38:26.000Z</Time>
            <Position>
              <LatitudeDegrees>37.0537437312304973602294921875</LatitudeDegrees>
              <LongitudeDegrees>-3.3591863326728343963623046875</LongitudeDegrees>
            </Position>
            <AltitudeMeters>3133.60009765625</AltitudeMeters>
            <DistanceMeters>17998.543324355</DistanceMeters>
          </Trackpoint>
          <Trackpoint>
            <Time>2019-07-15T13:38:37.000Z</Time>
            <Position>
              <LatitudeDegrees>37.05368698574602603912353515625</LatitudeDegrees>
              <LongitudeDegrees>-3.35929756052792072296142578125</LongitudeDegrees>
            </Position>
            <AltitudeMeters>3134.199951171875</AltitudeMeters>
            <DistanceMeters>18010.269020238</DistanceMeters>
          </Trackpoint>
          <Trackpoint>
            <Time>2019-07-15T13:38:57.000Z</Time>
            <Position>
              <LatitudeDegrees>37.0535425655543804168701171875</LatitudeDegrees>
              <LongitudeDegrees>-3.35946586914360523223876953125</LongitudeDegrees>
            </Position>
            <AltitudeMeters>3134.800048828125</AltitudeMeters>
            <DistanceMeters>18032.221013984</DistanceMeters>
          </Trackpoint>
          <Trackpoint>
            <Time>2019-07-15T13:39:25.000Z</Time>
            <Position>
              <LatitudeDegrees>37.053416334092617034912109375</LatitudeDegrees>
              <LongitudeDegrees>-3.35964448750019073486328125</LongitudeDegrees>
            </Position>
            <AltitudeMeters>3135.199951171875</AltitudeMeters>
            <DistanceMeters>18053.413675735</DistanceMeters>
          </Trackpoint>
          <Trackpoint>
            <Time>2019-07-15T13:39:44.000Z</Time>
            <Position>
              <LatitudeDegrees>37.0532743446528911590576171875</LatitudeDegrees>
              <LongitudeDegrees>-3.35980139672756195068359375</LongitudeDegrees>
            </Position>
            <AltitudeMeters>3135.39990234375</AltitudeMeters>
            <DistanceMeters>18074.485621988</DistanceMeters>
          </Trackpoint>
          <Trackpoint>
            <Time>2019-07-15T13:40:10.000Z</Time>
            <Position>
              <LatitudeDegrees>37.05313428305089473724365234375</LatitudeDegrees>
              <LongitudeDegrees>-3.35995453409850597381591796875</LongitudeDegrees>
            </Position>
            <AltitudeMeters>3137.39990234375</AltitudeMeters>
            <DistanceMeters>18095.17505682</DistanceMeters>
          </Trackpoint>
          <Trackpoint>
            <Time>2019-07-15T13:40:26.000Z</Time>
            <Position>
              <LatitudeDegrees>37.0530356280505657196044921875</LatitudeDegrees>
              <LongitudeDegrees>-3.3600877225399017333984375</LongitudeDegrees>
            </Position>
            <AltitudeMeters>3137.60009765625</AltitudeMeters>
            <DistanceMeters>18111.316177152</DistanceMeters>
          </Trackpoint>
          <Trackpoint>
            <Time>2019-07-15T13:40:27.000Z</Time>
            <Position>
              <LatitudeDegrees>37.05302766524255275726318359375</LatitudeDegrees>
              <LongitudeDegrees>-3.3600986190140247344970703125</LongitudeDegrees>
            </Position>
            <AltitudeMeters>3137.60009765625</AltitudeMeters>
            <DistanceMeters>18112.632905931</DistanceMeters>
          </Trackpoint>
          <Trackpoint>
            <Time>2019-07-15T13:40:28.000Z</Time>
            <Position>
              <LatitudeDegrees>37.0530212111771106719970703125</LatitudeDegrees>
              <LongitudeDegrees>-3.3601083420217037200927734375</LongitudeDegrees>
            </Position>
            <AltitudeMeters>3137.800048828125</AltitudeMeters>
            <DistanceMeters>18113.757277178</DistanceMeters>
          </Trackpoint>
          <Trackpoint>
            <Time>2019-07-15T13:40:29.000Z</Time>
            <Position>
              <LatitudeDegrees>37.05301492474973201751708984375</LatitudeDegrees>
              <LongitudeDegrees>-3.36011630482971668243408203125</LongitudeDegrees>
            </Position>
            <AltitudeMeters>3137.800048828125</AltitudeMeters>
            <DistanceMeters>18114.753925767</DistanceMeters>
          </Trackpoint>
          <Trackpoint>
            <Time>2019-07-15T13:40:30.000Z</Time>
            <Position>
              <LatitudeDegrees>37.0530071295797824859619140625</LatitudeDegrees>
              <LongitudeDegrees>-3.36012334562838077545166015625</LongitudeDegrees>
            </Position>
            <AltitudeMeters>3138</AltitudeMeters>
            <DistanceMeters>18115.82059799</DistanceMeters>
          </Trackpoint>
          <Trackpoint>
            <Time>2019-07-15T13:40:31.000Z</Time>
            <Position>
              <LatitudeDegrees>37.05300000496208667755126953125</LatitudeDegrees>
              <LongitudeDegrees>-3.36013189516961574554443359375</LongitudeDegrees>
            </Position>
            <AltitudeMeters>3138</AltitudeMeters>
            <DistanceMeters>18116.912371818</DistanceMeters>
          </Trackpoint>
          <Trackpoint>
            <Time>2019-07-15T13:41:06.000Z</Time>
            <Position>
              <LatitudeDegrees>37.05287821590900421142578125</LatitudeDegrees>
              <LongitudeDegrees>-3.3603115193545818328857421875</LongitudeDegrees>
            </Position>
            <AltitudeMeters>3138.60009765625</AltitudeMeters>
            <DistanceMeters>18137.848462919</DistanceMeters>
          </Trackpoint>
          <Trackpoint>
            <Time>2019-07-15T13:41:21.000Z</Time>
            <Position>
              <LatitudeDegrees>37.05278257839381694793701171875</LatitudeDegrees>
              <LongitudeDegrees>-3.3604399301111698150634765625</LongitudeDegrees>
            </Position>
            <AltitudeMeters>3140</AltitudeMeters>
            <DistanceMeters>18153.450217327</DistanceMeters>
          </Trackpoint>
          <Trackpoint>
            <Time>2019-07-15T13:41:22.000Z</Time>
            <Position>
              <LatitudeDegrees>37.05277536995708942413330078125</LatitudeDegrees>
              <LongitudeDegrees>-3.36044772528111934661865234375</LongitudeDegrees>
            </Position>
            <AltitudeMeters>3140.199951171875</AltitudeMeters>
            <DistanceMeters>18154.508390035</DistanceMeters>
          </Trackpoint>
          <Trackpoint>
            <Time>2019-07-15T13:41:23.000Z</Time>
            <Position>
              <LatitudeDegrees>37.05276983790099620819091796875</LatitudeDegrees>
              <LongitudeDegrees>-3.36045677773654460906982421875</LongitudeDegrees>
            </Position>
            <AltitudeMeters>3140.199951171875</AltitudeMeters>
            <DistanceMeters>18155.514058251</DistanceMeters>
          </Trackpoint>
          <Trackpoint>
            <Time>2019-07-15T13:41:29.000Z</Time>
            <Position>
              <LatitudeDegrees>37.0527322031557559967041015625</LatitudeDegrees>
              <LongitudeDegrees>-3.360507488250732421875</LongitudeDegrees>
            </Position>
            <AltitudeMeters>3141.199951171875</AltitudeMeters>
            <DistanceMeters>18161.665157365</DistanceMeters>
          </Trackpoint>
          <Trackpoint>
            <Time>2019-07-15T13:41:31.000Z</Time>
            <Position>
              <LatitudeDegrees>37.0527187921106815338134765625</LatitudeDegrees>
              <LongitudeDegrees>-3.36051863618195056915283203125</LongitudeDegrees>
            </Position>
            <AltitudeMeters>3141.39990234375</AltitudeMeters>
            <DistanceMeters>18163.458117825</DistanceMeters>
          </Trackpoint>
          <Trackpoint>
            <Time>2019-07-15T13:41:33.000Z</Time>
            <Position>
              <LatitudeDegrees>37.0527045428752899169921875</LatitudeDegrees>
              <LongitudeDegrees>-3.36052936501801013946533203125</LongitudeDegrees>
            </Position>
            <AltitudeMeters>3141.60009765625</AltitudeMeters>
            <DistanceMeters>18165.31052951</DistanceMeters>
          </Trackpoint>
          <Trackpoint>
            <Time>2019-07-15T13:41:43.000Z</Time>
            <Position>
              <LatitudeDegrees>37.05264025367796421051025390625</LatitudeDegrees>
              <LongitudeDegrees>-3.36056473664939403533935546875</LongitudeDegrees>
            </Position>
            <AltitudeMeters>3143</AltitudeMeters>
            <DistanceMeters>18173.125285232</DistanceMeters>
          </Trackpoint>
          <Trackpoint>
            <Time>2019-07-15T13:41:48.000Z</Time>
            <Position>
              <LatitudeDegrees>37.05261393450200557708740234375</LatitudeDegrees>
              <LongitudeDegrees>-3.3605973422527313232421875</LongitudeDegrees>
            </Position>
            <AltitudeMeters>3144.199951171875</AltitudeMeters>
            <DistanceMeters>18177.245545383</DistanceMeters>
          </Trackpoint>
          <Trackpoint>
            <Time>2019-07-15T13:42:10.000Z</Time>
            <Position>
              <LatitudeDegrees>37.052460126578807830810546875</LatitudeDegrees>
              <LongitudeDegrees>-3.36073874495923519134521484375</LongitudeDegrees>
            </Position>
            <AltitudeMeters>3146.60009765625</AltitudeMeters>
            <DistanceMeters>18198.478434883</DistanceMeters>
          </Trackpoint>
          <Trackpoint>
            <Time>2019-07-15T13:42:11.000Z</Time>
            <Position>
              <LatitudeDegrees>37.05244998447597026824951171875</LatitudeDegrees>
              <LongitudeDegrees>-3.36074276827275753021240234375</LongitudeDegrees>
            </Position>
            <AltitudeMeters>3146.60009765625</AltitudeMeters>
            <DistanceMeters>18199.665318165</DistanceMeters>
          </Trackpoint>
          <Trackpoint>
            <Time>2019-07-15T13:42:12.000Z</Time>
            <Position>
              <LatitudeDegrees>37.052441351115703582763671875</LatitudeDegrees>
              <LongitudeDegrees>-3.360748551785945892333984375</LongitudeDegrees>
            </Position>
            <AltitudeMeters>3146.60009765625</AltitudeMeters>
            <DistanceMeters>18200.752948624</DistanceMeters>
          </Trackpoint>
          <Trackpoint>
            <Time>2019-07-15T13:42:13.000Z</Time>
            <Position>
              <LatitudeDegrees>37.05243355594575405120849609375</LatitudeDegrees>
              <LongitudeDegrees>-3.36075416766107082366943359375</LongitudeDegrees>
            </Position>
            <AltitudeMeters>3146.60009765625</AltitudeMeters>
            <DistanceMeters>18201.749597212</DistanceMeters>
          </Trackpoint>
          <Trackpoint>
            <Time>2019-07-15T13:42:14.000Z</Time>
            <Position>
              <LatitudeDegrees>37.052426598966121673583984375</LatitudeDegrees>
              <LongitudeDegrees>-3.3607607893645763397216796875</LongitudeDegrees>
            </Position>
            <AltitudeMeters>3146.60009765625</AltitudeMeters>
            <DistanceMeters>18202.718683354</DistanceMeters>
          </Trackpoint>
          <Trackpoint>
            <Time>2019-07-15T13:42:15.000Z</Time>
            <Position>
              <LatitudeDegrees>37.05241687595844268798828125</LatitudeDegrees>
              <LongitudeDegrees>-3.36076724343001842498779296875</LongitudeDegrees>
            </Position>
            <AltitudeMeters>3146.60009765625</AltitudeMeters>
            <DistanceMeters>18203.943016924</DistanceMeters>
          </Trackpoint>
          <Trackpoint>
            <Time>2019-07-15T13:42:16.000Z</Time>
            <Position>
              <LatitudeDegrees>37.052407152950763702392578125</LatitudeDegrees>
              <LongitudeDegrees>-3.360774032771587371826171875</LongitudeDegrees>
            </Position>
            <AltitudeMeters>3146.60009765625</AltitudeMeters>
            <DistanceMeters>18205.178364211</DistanceMeters>
          </Trackpoint>
          <Trackpoint>
            <Time>2019-07-15T13:42:17.000Z</Time>
            <Position>
              <LatitudeDegrees>37.05239768140017986297607421875</LatitudeDegrees>
              <LongitudeDegrees>-3.36077562533318996429443359375</LongitudeDegrees>
            </Position>
            <AltitudeMeters>3146.60009765625</AltitudeMeters>
            <DistanceMeters>18206.245036434</DistanceMeters>
          </Trackpoint>
          <Trackpoint>
            <Time>2019-07-15T13:42:30.000Z</Time>
            <Position>
              <LatitudeDegrees>37.0522812567651271820068359375</LatitudeDegrees>
              <LongitudeDegrees>-3.360818289220333099365234375</LongitudeDegrees>
            </Position>
            <AltitudeMeters>3146.60009765625</AltitudeMeters>
            <DistanceMeters>18219.746189092</DistanceMeters>
          </Trackpoint>
          <Trackpoint>
            <Time>2019-07-15T13:42:31.000Z</Time>
            <Position>
              <LatitudeDegrees>37.05227312631905078887939453125</LatitudeDegrees>
              <LongitudeDegrees>-3.3608231507241725921630859375</LongitudeDegrees>
            </Position>
            <AltitudeMeters>3146.60009765625</AltitudeMeters>
            <DistanceMeters>18220.747357652</DistanceMeters>
          </Trackpoint>
          <Trackpoint>
            <Time>2019-07-15T13:42:32.000Z</Time>
            <Position>
              <LatitudeDegrees>37.05226507969200611114501953125</LatitudeDegrees>
              <LongitudeDegrees>-3.36083077825605869293212890625</LongitudeDegrees>
            </Position>
            <AltitudeMeters>3146.60009765625</AltitudeMeters>
            <DistanceMeters>18221.871728899</DistanceMeters>
          </Trackpoint>
          <Trackpoint>
            <Time>2019-07-15T13:42:33.000Z</Time>
            <Position>
              <LatitudeDegrees>37.052255608141422271728515625</LatitudeDegrees>
              <LongitudeDegrees>-3.36083949543535709381103515625</LongitudeDegrees>
            </Position>
            <AltitudeMeters>3146.39990234375</AltitudeMeters>
            <DistanceMeters>18223.174669562</DistanceMeters>
          </Trackpoint>
          <Trackpoint>
            <Time>2019-07-15T13:42:34.000Z</Time>
            <Position>
              <LatitudeDegrees>37.0522457174956798553466796875</LatitudeDegrees>
              <LongitudeDegrees>-3.36084888316690921783447265625</LongitudeDegrees>
            </Position>
            <AltitudeMeters>3146.39990234375</AltitudeMeters>
            <DistanceMeters>18224.551737481</DistanceMeters>
          </Trackpoint>
          <Trackpoint>
            <Time>2019-07-15T13:42:52.000Z</Time>
            <Position>
              <LatitudeDegrees>37.0520670153200626373291015625</LatitudeDegrees>
              <LongitudeDegrees>-3.36095684207975864410400390625</LongitudeDegrees>
            </Position>
            <AltitudeMeters>3144</AltitudeMeters>
            <DistanceMeters>18246.63272359</DistanceMeters>
          </Trackpoint>
          <Trackpoint>
            <Time>2019-07-15T13:42:59.000Z</Time>
            <Position>
              <LatitudeDegrees>37.0519956015050411224365234375</LatitudeDegrees>
              <LongitudeDegrees>-3.36102641187608242034912109375</LongitudeDegrees>
            </Position>
            <AltitudeMeters>3143</AltitudeMeters>
            <DistanceMeters>18256.701071923</DistanceMeters>
          </Trackpoint>
          <Trackpoint>
            <Time>2019-07-15T13:43:00.000Z</Time>
            <Position>
              <LatitudeDegrees>37.05198462121188640594482421875</LatitudeDegrees>
              <LongitudeDegrees>-3.3610291779041290283203125</LongitudeDegrees>
            </Position>
            <AltitudeMeters>3142.800048828125</AltitudeMeters>
            <DistanceMeters>18257.947335598</DistanceMeters>
          </Trackpoint>
          <Trackpoint>
            <Time>2019-07-15T13:43:18.000Z</Time>
            <Position>
              <LatitudeDegrees>37.05188755877315998077392578125</LatitudeDegrees>
              <LongitudeDegrees>-3.361236043274402618408203125</LongitudeDegrees>
            </Position>
            <AltitudeMeters>3141.199951171875</AltitudeMeters>
            <DistanceMeters>18279.263418411</DistanceMeters>
          </Trackpoint>
          <Trackpoint>
            <Time>2019-07-15T13:43:28.000Z</Time>
            <Position>
              <LatitudeDegrees>37.0518650114536285400390625</LatitudeDegrees>
              <LongitudeDegrees>-3.36137174628674983978271484375</LongitudeDegrees>
            </Position>
            <AltitudeMeters>3140.800048828125</AltitudeMeters>
            <DistanceMeters>18291.575888649</DistanceMeters>
          </Trackpoint>
          <Trackpoint>
            <Time>2019-07-15T13:43:29.000Z</Time>
            <Position>
              <LatitudeDegrees>37.0518638379871845245361328125</LatitudeDegrees>
              <LongitudeDegrees>-3.36138482205569744110107421875</LongitudeDegrees>
            </Position>
            <AltitudeMeters>3140.800048828125</AltitudeMeters>
            <DistanceMeters>18292.747456666</DistanceMeters>
          </Trackpoint>
          <Trackpoint>
            <Time>2019-07-15T13:43:32.000Z</Time>
            <Position>
              <LatitudeDegrees>37.05186157487332820892333984375</LatitudeDegrees>
              <LongitudeDegrees>-3.3614256419241428375244140625</LongitudeDegrees>
            </Position>
            <AltitudeMeters>3140.60009765625</AltitudeMeters>
            <DistanceMeters>18296.380908436</DistanceMeters>
          </Trackpoint>
          <Trackpoint>
            <Time>2019-07-15T13:43:33.000Z</Time>
            <Position>
              <LatitudeDegrees>37.05186367034912109375</LatitudeDegrees>
              <LongitudeDegrees>-3.36143754422664642333984375</LongitudeDegrees>
            </Position>
            <AltitudeMeters>3140.39990234375</AltitudeMeters>
            <DistanceMeters>18297.46437968</DistanceMeters>
          </Trackpoint>
          <Trackpoint>
            <Time>2019-07-15T13:43:34.000Z</Time>
            <Position>
              <LatitudeDegrees>37.05186375416815280914306640625</LatitudeDegrees>
              <LongitudeDegrees>-3.361451625823974609375</LongitudeDegrees>
            </Position>
            <AltitudeMeters>3140.39990234375</AltitudeMeters>
            <DistanceMeters>18298.717868133</DistanceMeters>
          </Trackpoint>
          <Trackpoint>
            <Time>2019-07-15T13:43:46.000Z</Time>
            <Position>
              <LatitudeDegrees>37.05187800340354442596435546875</LatitudeDegrees>
              <LongitudeDegrees>-3.3616019971668720245361328125</LongitudeDegrees>
            </Position>
            <AltitudeMeters>3140.60009765625</AltitudeMeters>
            <DistanceMeters>18312.168764446</DistanceMeters>
          </Trackpoint>
          <Trackpoint>
            <Time>2019-07-15T13:43:47.000Z</Time>
            <Position>
              <LatitudeDegrees>37.05187900923192501068115234375</LatitudeDegrees>
              <LongitudeDegrees>-3.36161457002162933349609375</LongitudeDegrees>
            </Position>
            <AltitudeMeters>3140.60009765625</AltitudeMeters>
            <DistanceMeters>18313.285075581</DistanceMeters>
          </Trackpoint>
          <Trackpoint>
            <Time>2019-07-15T13:43:48.000Z</Time>
            <Position>
              <LatitudeDegrees>37.0518826134502887725830078125</LatitudeDegrees>
              <LongitudeDegrees>-3.3616258017718791961669921875</LongitudeDegrees>
            </Position>
            <AltitudeMeters>3140.60009765625</AltitudeMeters>
            <DistanceMeters>18314.360180127</DistanceMeters>
          </Trackpoint>
          <Trackpoint>
            <Time>2019-07-15T13:43:49.000Z</Time>
            <Position>
              <LatitudeDegrees>37.05188789404928684234619140625</LatitudeDegrees>
              <LongitudeDegrees>-3.36163678206503391265869140625</LongitudeDegrees>
            </Position>
            <AltitudeMeters>3140.800048828125</AltitudeMeters>
            <DistanceMeters>18315.500500699</DistanceMeters>
          </Trackpoint>
          <Trackpoint>
            <Time>2019-07-15T13:43:50.000Z</Time>
            <Position>
              <LatitudeDegrees>37.051894851028919219970703125</LatitudeDegrees>
              <LongitudeDegrees>-3.36164784617722034454345703125</LongitudeDegrees>
            </Position>
            <AltitudeMeters>3140.800048828125</AltitudeMeters>
            <DistanceMeters>18316.753989152</DistanceMeters>
          </Trackpoint>
          <Trackpoint>
            <Time>2019-07-15T13:43:52.000Z</Time>
            <Position>
              <LatitudeDegrees>37.05190566368401050567626953125</LatitudeDegrees>
              <LongitudeDegrees>-3.36166997440159320831298828125</LongitudeDegrees>
            </Position>
            <AltitudeMeters>3140.60009765625</AltitudeMeters>
            <DistanceMeters>18319.060223101</DistanceMeters>
          </Trackpoint>
          <Trackpoint>
            <Time>2019-07-15T13:43:53.000Z</Time>
            <Position>
              <LatitudeDegrees>37.05190801061689853668212890625</LatitudeDegrees>
              <LongitudeDegrees>-3.3616811223328113555908203125</LongitudeDegrees>
            </Position>
            <AltitudeMeters>3140.39990234375</AltitudeMeters>
            <DistanceMeters>18320.083692136</DistanceMeters>
          </Trackpoint>
          <Trackpoint>
            <Time>2019-07-15T13:43:54.000Z</Time>
            <Position>
              <LatitudeDegrees>37.05191195011138916015625</LatitudeDegrees>
              <LongitudeDegrees>-3.36169193498790264129638671875</LongitudeDegrees>
            </Position>
            <AltitudeMeters>3140.60009765625</AltitudeMeters>
            <DistanceMeters>18321.141864844</DistanceMeters>
          </Trackpoint>
          <Trackpoint>
            <Time>2019-07-15T13:44:03.000Z</Time>
            <Position>
              <LatitudeDegrees>37.0519416220486164093017578125</LatitudeDegrees>
              <LongitudeDegrees>-3.361787907779216766357421875</LongitudeDegrees>
            </Position>
            <AltitudeMeters>3141.800048828125</AltitudeMeters>
            <DistanceMeters>18330.284205221</DistanceMeters>
          </Trackpoint>
          <Trackpoint>
            <Time>2019-07-15T13:44:04.000Z</Time>
            <Position>
              <LatitudeDegrees>37.05194556154310703277587890625</LatitudeDegrees>
              <LongitudeDegrees>-3.36180031299591064453125</LongitudeDegrees>
            </Position>
            <AltitudeMeters>3142</AltitudeMeters>
            <DistanceMeters>18331.467278274</DistanceMeters>
          </Trackpoint>
          <Trackpoint>
            <Time>2019-07-15T13:44:05.000Z</Time>
            <Position>
              <LatitudeDegrees>37.051946483552455902099609375</LatitudeDegrees>
              <LongitudeDegrees>-3.3618112094700336456298828125</LongitudeDegrees>
            </Position>
            <AltitudeMeters>3142.199951171875</AltitudeMeters>
            <DistanceMeters>18332.441012337</DistanceMeters>
          </Trackpoint>
          <Trackpoint>
            <Time>2019-07-15T13:44:09.000Z</Time>
            <Position>
              <LatitudeDegrees>37.05196685157716274261474609375</LatitudeDegrees>
              <LongitudeDegrees>-3.3618392050266265869140625</LongitudeDegrees>
            </Position>
            <AltitudeMeters>3143</AltitudeMeters>
            <DistanceMeters>18335.806085273</DistanceMeters>
          </Trackpoint>
          <Trackpoint>
            <Time>2019-07-15T13:44:21.000Z</Time>
            <Position>
              <LatitudeDegrees>37.052000798285007476806640625</LatitudeDegrees>
              <LongitudeDegrees>-3.361937440931797027587890625</LongitudeDegrees>
            </Position>
            <AltitudeMeters>3144.60009765625</AltitudeMeters>
            <DistanceMeters>18345.315406253</DistanceMeters>
          </Trackpoint>
          <Trackpoint>
            <Time>2019-07-15T13:44:27.000Z</Time>
            <Position>
              <LatitudeDegrees>37.052007503807544708251953125</LatitudeDegrees>
              <LongitudeDegrees>-3.36200776509940624237060546875</LongitudeDegrees>
            </Position>
            <AltitudeMeters>3145.39990234375</AltitudeMeters>
            <DistanceMeters>18351.606576658</DistanceMeters>
          </Trackpoint>
          <Trackpoint>
            <Time>2019-07-15T13:44:28.000Z</Time>
            <Position>
              <LatitudeDegrees>37.0520076714456081390380859375</LatitudeDegrees>
              <LongitudeDegrees>-3.3620190806686878204345703125</LongitudeDegrees>
            </Position>
            <AltitudeMeters>3145.39990234375</AltitudeMeters>
            <DistanceMeters>18352.612244874</DistanceMeters>
          </Trackpoint>
          <Trackpoint>
            <Time>2019-07-15T13:44:29.000Z</Time>
            <Position>
              <LatitudeDegrees>37.05200725235044956207275390625</LatitudeDegrees>
              <LongitudeDegrees>-3.3620296418666839599609375</LongitudeDegrees>
            </Position>
            <AltitudeMeters>3145.39990234375</AltitudeMeters>
            <DistanceMeters>18353.552961352</DistanceMeters>
          </Trackpoint>
          <Trackpoint>
            <Time>2019-07-15T13:44:30.000Z</Time>
            <Position>
              <LatitudeDegrees>37.0520083419978618621826171875</LatitudeDegrees>
              <LongitudeDegrees>-3.3620415441691875457763671875</LongitudeDegrees>
            </Position>
            <AltitudeMeters>3145.39990234375</AltitudeMeters>
            <DistanceMeters>18354.619633575</DistanceMeters>
          </Trackpoint>
          <Trackpoint>
            <Time>2019-07-15T13:44:31.000Z</Time>
            <Position>
              <LatitudeDegrees>37.0520116947591304779052734375</LatitudeDegrees>
              <LongitudeDegrees>-3.3620549552142620086669921875</LongitudeDegrees>
            </Position>
            <AltitudeMeters>3145.60009765625</AltitudeMeters>
            <DistanceMeters>18355.86589725</DistanceMeters>
          </Trackpoint>
          <Trackpoint>
            <Time>2019-07-15T13:44:35.000Z</Time>
            <Position>
              <LatitudeDegrees>37.052020914852619171142578125</LatitudeDegrees>
              <LongitudeDegrees>-3.36210264824330806732177734375</LongitudeDegrees>
            </Position>
            <AltitudeMeters>3145.60009765625</AltitudeMeters>
            <DistanceMeters>18360.226784888</DistanceMeters>
          </Trackpoint>
          <Trackpoint>
            <Time>2019-07-15T13:44:37.000Z</Time>
            <Position>
              <LatitudeDegrees>37.05202988348901271820068359375</LatitudeDegrees>
              <LongitudeDegrees>-3.36212041787803173065185546875</LongitudeDegrees>
            </Position>
            <AltitudeMeters>3145.800048828125</AltitudeMeters>
            <DistanceMeters>18362.096180401</DistanceMeters>
          </Trackpoint>
          <Trackpoint>
            <Time>2019-07-15T13:44:38.000Z</Time>
            <Position>
              <LatitudeDegrees>37.0520331524312496185302734375</LatitudeDegrees>
              <LongitudeDegrees>-3.36213131435215473175048828125</LongitudeDegrees>
            </Position>
            <AltitudeMeters>3146</AltitudeMeters>
            <DistanceMeters>18363.132799472</DistanceMeters>
          </Trackpoint>
          <Trackpoint>
            <Time>2019-07-15T13:44:39.000Z</Time>
            <Position>
              <LatitudeDegrees>37.0520361699163913726806640625</LatitudeDegrees>
              <LongitudeDegrees>-3.3621424622833728790283203125</LongitudeDegrees>
            </Position>
            <AltitudeMeters>3146</AltitudeMeters>
            <DistanceMeters>18364.173764972</DistanceMeters>
          </Trackpoint>
          <Trackpoint>
            <Time>2019-07-15T13:44:40.000Z</Time>
            <Position>
              <LatitudeDegrees>37.05203868448734283447265625</LatitudeDegrees>
              <LongitudeDegrees>-3.36215369403362274169921875</LongitudeDegrees>
            </Position>
            <AltitudeMeters>3146.199951171875</AltitudeMeters>
            <DistanceMeters>18365.206019311</DistanceMeters>
          </Trackpoint>
          <Trackpoint>
            <Time>2019-07-15T13:44:41.000Z</Time>
            <Position>
              <LatitudeDegrees>37.05204061232507228851318359375</LatitudeDegrees>
              <LongitudeDegrees>-3.36216467432677745819091796875</LongitudeDegrees>
            </Position>
            <AltitudeMeters>3146</AltitudeMeters>
            <DistanceMeters>18366.2026679</DistanceMeters>
          </Trackpoint>
          <Trackpoint>
            <Time>2019-07-15T13:44:42.000Z</Time>
            <Position>
              <LatitudeDegrees>37.0520442165434360504150390625</LatitudeDegrees>
              <LongitudeDegrees>-3.36217540316283702850341796875</LongitudeDegrees>
            </Position>
            <AltitudeMeters>3146</AltitudeMeters>
            <DistanceMeters>18367.23928697</DistanceMeters>
          </Trackpoint>
          <Trackpoint>
            <Time>2019-07-15T13:44:43.000Z</Time>
            <Position>
              <LatitudeDegrees>37.05204731784760951995849609375</LatitudeDegrees>
              <LongitudeDegrees>-3.36218588054180145263671875</LongitudeDegrees>
            </Position>
            <AltitudeMeters>3146.199951171875</AltitudeMeters>
            <DistanceMeters>18368.235935558</DistanceMeters>
          </Trackpoint>
          <Trackpoint>
            <Time>2019-07-15T13:44:44.000Z</Time>
            <Position>
              <LatitudeDegrees>37.05204882659018039703369140625</LatitudeDegrees>
              <LongitudeDegrees>-3.3621974475681781768798828125</LongitudeDegrees>
            </Position>
            <AltitudeMeters>3146.199951171875</AltitudeMeters>
            <DistanceMeters>18369.281229416</DistanceMeters>
          </Trackpoint>
          <Trackpoint>
            <Time>2019-07-15T13:44:45.000Z</Time>
            <Position>
              <LatitudeDegrees>37.05205142498016357421875</LatitudeDegrees>
              <LongitudeDegrees>-3.3622093498706817626953125</LongitudeDegrees>
            </Position>
            <AltitudeMeters>3146.199951171875</AltitudeMeters>
            <DistanceMeters>18370.377130948</DistanceMeters>
          </Trackpoint>
          <Trackpoint>
            <Time>2019-07-15T13:44:46.000Z</Time>
            <Position>
              <LatitudeDegrees>37.05205687321722507476806640625</LatitudeDegrees>
              <LongitudeDegrees>-3.36221932433545589447021484375</LongitudeDegrees>
            </Position>
            <AltitudeMeters>3146.39990234375</AltitudeMeters>
            <DistanceMeters>18371.452235494</DistanceMeters>
          </Trackpoint>
          <Trackpoint>
            <Time>2019-07-15T13:45:07.000Z</Time>
            <Position>
              <LatitudeDegrees>37.0522172190248966217041015625</LatitudeDegrees>
              <LongitudeDegrees>-3.36230456829071044921875</LongitudeDegrees>
            </Position>
            <AltitudeMeters>3147.60009765625</AltitudeMeters>
            <DistanceMeters>18390.839082627</DistanceMeters>
          </Trackpoint>
          <Trackpoint>
            <Time>2019-07-15T13:45:22.000Z</Time>
            <Position>
              <LatitudeDegrees>37.0523292012512683868408203125</LatitudeDegrees>
              <LongitudeDegrees>-3.36238302290439605712890625</LongitudeDegrees>
            </Position>
            <AltitudeMeters>3148</AltitudeMeters>
            <DistanceMeters>18405.119040129</DistanceMeters>
          </Trackpoint>
          <Trackpoint>
            <Time>2019-07-15T13:45:23.000Z</Time>
            <Position>
              <LatitudeDegrees>37.05233632586896419525146484375</LatitudeDegrees>
              <LongitudeDegrees>-3.362391404807567596435546875</LongitudeDegrees>
            </Position>
            <AltitudeMeters>3148.199951171875</AltitudeMeters>
            <DistanceMeters>18406.202511373</DistanceMeters>
          </Trackpoint>
          <Trackpoint>
            <Time>2019-07-15T13:45:24.000Z</Time>
            <Position>
              <LatitudeDegrees>37.0523451268672943115234375</LatitudeDegrees>
              <LongitudeDegrees>-3.36239484138786792755126953125</LongitudeDegrees>
            </Position>
            <AltitudeMeters>3148.199951171875</AltitudeMeters>
            <DistanceMeters>18407.225980409</DistanceMeters>
          </Trackpoint>
          <Trackpoint>
            <Time>2019-07-15T13:45:25.000Z</Time>
            <Position>
              <LatitudeDegrees>37.0523509941995143890380859375</LatitudeDegrees>
              <LongitudeDegrees>-3.36240045726299285888671875</LongitudeDegrees>
            </Position>
            <AltitudeMeters>3148.199951171875</AltitudeMeters>
            <DistanceMeters>18408.043431115</DistanceMeters>
          </Trackpoint>
          <Trackpoint>
            <Time>2019-07-15T13:45:30.000Z</Time>
            <Position>
              <LatitudeDegrees>37.05237421207129955291748046875</LatitudeDegrees>
              <LongitudeDegrees>-3.362444378435611724853515625</LongitudeDegrees>
            </Position>
            <AltitudeMeters>3148.39990234375</AltitudeMeters>
            <DistanceMeters>18412.723918852</DistanceMeters>
          </Trackpoint>
          <Trackpoint>
            <Time>2019-07-15T13:45:52.000Z</Time>
            <Position>
              <LatitudeDegrees>37.052469514310359954833984375</LatitudeDegrees>
              <LongitudeDegrees>-3.36265887133777141571044921875</LongitudeDegrees>
            </Position>
            <AltitudeMeters>3150</AltitudeMeters>
            <DistanceMeters>18434.530634689</DistanceMeters>
          </Trackpoint>
          <Trackpoint>
            <Time>2019-07-15T13:46:12.000Z</Time>
            <Position>
              <LatitudeDegrees>37.05260337330400943756103515625</LatitudeDegrees>
              <LongitudeDegrees>-3.36282684467732906341552734375</LongitudeDegrees>
            </Position>
            <AltitudeMeters>3151</AltitudeMeters>
            <DistanceMeters>18455.616289619</DistanceMeters>
          </Trackpoint>
          <Trackpoint>
            <Time>2019-07-15T13:46:35.000Z</Time>
            <Position>
              <LatitudeDegrees>37.0527737773954868316650390625</LatitudeDegrees>
              <LongitudeDegrees>-3.36294402368366718292236328125</LongitudeDegrees>
            </Position>
            <AltitudeMeters>3152.39990234375</AltitudeMeters>
            <DistanceMeters>18477.251099125</DistanceMeters>
          </Trackpoint>
          <Trackpoint>
            <Time>2019-07-15T13:46:52.000Z</Time>
            <Position>
              <LatitudeDegrees>37.05291534774005413055419921875</LatitudeDegrees>
              <LongitudeDegrees>-3.36300194263458251953125</LongitudeDegrees>
            </Position>
            <AltitudeMeters>3154</AltitudeMeters>
            <DistanceMeters>18493.827201382</DistanceMeters>
          </Trackpoint>
          <Trackpoint>
            <Time>2019-07-15T13:46:54.000Z</Time>
            <Position>
              <LatitudeDegrees>37.05293194390833377838134765625</LatitudeDegrees>
              <LongitudeDegrees>-3.36300688795745372772216796875</LongitudeDegrees>
            </Position>
            <AltitudeMeters>3154.199951171875</AltitudeMeters>
            <DistanceMeters>18495.730109855</DistanceMeters>
          </Trackpoint>
          <Trackpoint>
            <Time>2019-07-15T13:46:55.000Z</Time>
            <Position>
              <LatitudeDegrees>37.052940912544727325439453125</LatitudeDegrees>
              <LongitudeDegrees>-3.363007642328739166259765625</LongitudeDegrees>
            </Position>
            <AltitudeMeters>3154.39990234375</AltitudeMeters>
            <DistanceMeters>18496.735778071</DistanceMeters>
          </Trackpoint>
          <Trackpoint>
            <Time>2019-07-15T13:47:16.000Z</Time>
            <Position>
              <LatitudeDegrees>37.05311634577810764312744140625</LatitudeDegrees>
              <LongitudeDegrees>-3.3630716800689697265625</LongitudeDegrees>
            </Position>
            <AltitudeMeters>3156.199951171875</AltitudeMeters>
            <DistanceMeters>18517.073715076</DistanceMeters>
          </Trackpoint>
          <Trackpoint>
            <Time>2019-07-15T13:47:31.000Z</Time>
            <Position>
              <LatitudeDegrees>37.0531901903450489044189453125</LatitudeDegrees>
              <LongitudeDegrees>-3.3630902878940105438232421875</LongitudeDegrees>
            </Position>
            <AltitudeMeters>3156.800048828125</AltitudeMeters>
            <DistanceMeters>18525.457635104</DistanceMeters>
          </Trackpoint>
          <Trackpoint>
            <Time>2019-07-15T13:48:00.000Z</Time>
            <Position>
              <LatitudeDegrees>37.0533672161400318145751953125</LatitudeDegrees>
              <LongitudeDegrees>-3.36315549910068511962890625</LongitudeDegrees>
            </Position>
            <AltitudeMeters>3158.199951171875</AltitudeMeters>
            <DistanceMeters>18545.994840623</DistanceMeters>
          </Trackpoint>
          <Trackpoint>
            <Time>2019-07-15T13:48:21.000Z</Time>
            <Position>
              <LatitudeDegrees>37.05356419086456298828125</LatitudeDegrees>
              <LongitudeDegrees>-3.3631741069257259368896484375</LongitudeDegrees>
            </Position>
            <AltitudeMeters>3159.60009765625</AltitudeMeters>
            <DistanceMeters>18567.980745018</DistanceMeters>
          </Trackpoint>
          <Trackpoint>
            <Time>2019-07-15T13:48:43.000Z</Time>
            <Position>
              <LatitudeDegrees>37.05373593606054782867431640625</LatitudeDegrees>
              <LongitudeDegrees>-3.363225571811199188232421875</LongitudeDegrees>
            </Position>
            <AltitudeMeters>3161.60009765625</AltitudeMeters>
            <DistanceMeters>18587.635430726</DistanceMeters>
          </Trackpoint>
          <Trackpoint>
            <Time>2019-07-15T13:48:52.000Z</Time>
            <Position>
              <LatitudeDegrees>37.05380114726722240447998046875</LatitudeDegrees>
              <LongitudeDegrees>-3.3632830716669559478759765625</LongitudeDegrees>
            </Position>
            <AltitudeMeters>3162.39990234375</AltitudeMeters>
            <DistanceMeters>18596.510640966</DistanceMeters>
          </Trackpoint>
          <Trackpoint>
            <Time>2019-07-15T13:48:53.000Z</Time>
            <Position>
              <LatitudeDegrees>37.05380684696137905120849609375</LatitudeDegrees>
              <LongitudeDegrees>-3.363291285932064056396484375</LongitudeDegrees>
            </Position>
            <AltitudeMeters>3162.39990234375</AltitudeMeters>
            <DistanceMeters>18597.479727108</DistanceMeters>
          </Trackpoint>
          <Trackpoint>
            <Time>2019-07-15T13:48:54.000Z</Time>
            <Position>
              <LatitudeDegrees>37.05381204374134540557861328125</LatitudeDegrees>
              <LongitudeDegrees>-3.3633010089397430419921875</LongitudeDegrees>
            </Position>
            <AltitudeMeters>3162.39990234375</AltitudeMeters>
            <DistanceMeters>18598.520692609</DistanceMeters>
          </Trackpoint>
          <Trackpoint>
            <Time>2019-07-15T13:48:55.000Z</Time>
            <Position>
              <LatitudeDegrees>37.053819335997104644775390625</LatitudeDegrees>
              <LongitudeDegrees>-3.363308720290660858154296875</LongitudeDegrees>
            </Position>
            <AltitudeMeters>3162.39990234375</AltitudeMeters>
            <DistanceMeters>18599.578865316</DistanceMeters>
          </Trackpoint>
          <Trackpoint>
            <Time>2019-07-15T13:48:56.000Z</Time>
            <Position>
              <LatitudeDegrees>37.05382746644318103790283203125</LatitudeDegrees>
              <LongitudeDegrees>-3.36331550963222980499267578125</LongitudeDegrees>
            </Position>
            <AltitudeMeters>3162.60009765625</AltitudeMeters>
            <DistanceMeters>18600.666495775</DistanceMeters>
          </Trackpoint>
          <Trackpoint>
            <Time>2019-07-15T13:48:57.000Z</Time>
            <Position>
              <LatitudeDegrees>37.05383534543216228485107421875</LatitudeDegrees>
              <LongitudeDegrees>-3.36332154460251331329345703125</LongitudeDegrees>
            </Position>
            <AltitudeMeters>3162.60009765625</AltitudeMeters>
            <DistanceMeters>18601.698750114</DistanceMeters>
          </Trackpoint>
          <Trackpoint>
            <Time>2019-07-15T13:49:18.000Z</Time>
            <Position>
              <LatitudeDegrees>37.0539985410869121551513671875</LatitudeDegrees>
              <LongitudeDegrees>-3.3634188584983348846435546875</LongitudeDegrees>
            </Position>
            <AltitudeMeters>3163.39990234375</AltitudeMeters>
            <DistanceMeters>18621.814808018</DistanceMeters>
          </Trackpoint>
          <Trackpoint>
            <Time>2019-07-15T13:49:59.000Z</Time>
            <Position>
              <LatitudeDegrees>37.05412519164383411407470703125</LatitudeDegrees>
              <LongitudeDegrees>-3.36353276856243610382080078125</LongitudeDegrees>
            </Position>
            <AltitudeMeters>3164.199951171875</AltitudeMeters>
            <DistanceMeters>18639.166748511</DistanceMeters>
          </Trackpoint>
          <Trackpoint>
            <Time>2019-07-15T13:50:21.000Z</Time>
            <Position>
              <LatitudeDegrees>37.05417816527187824249267578125</LatitudeDegrees>
              <LongitudeDegrees>-3.36374382488429546356201171875</LongitudeDegrees>
            </Position>
            <AltitudeMeters>3163.800048828125</AltitudeMeters>
            <DistanceMeters>18658.819366647</DistanceMeters>
          </Trackpoint>
          <Trackpoint>
            <Time>2019-07-15T13:50:46.000Z</Time>
            <Position>
              <LatitudeDegrees>37.05420213751494884490966796875</LatitudeDegrees>
              <LongitudeDegrees>-3.36398371495306491851806640625</LongitudeDegrees>
            </Position>
            <AltitudeMeters>3165.60009765625</AltitudeMeters>
            <DistanceMeters>18680.294352888</DistanceMeters>
          </Trackpoint>
          <Trackpoint>
            <Time>2019-07-15T13:50:47.000Z</Time>
            <Position>
              <LatitudeDegrees>37.05419761128723621368408203125</LatitudeDegrees>
              <LongitudeDegrees>-3.36399511434137821197509765625</LongitudeDegrees>
            </Position>
            <AltitudeMeters>3165.39990234375</AltitudeMeters>
            <DistanceMeters>18681.422732602</DistanceMeters>
          </Trackpoint>
          <Trackpoint>
            <Time>2019-07-15T13:50:48.000Z</Time>
            <Position>
              <LatitudeDegrees>37.05419459380209445953369140625</LatitudeDegrees>
              <LongitudeDegrees>-3.3640049211680889129638671875</LongitudeDegrees>
            </Position>
            <AltitudeMeters>3165.39990234375</AltitudeMeters>
            <DistanceMeters>18682.35380045</DistanceMeters>
          </Trackpoint>
          <Trackpoint>
            <Time>2019-07-15T13:50:49.000Z</Time>
            <Position>
              <LatitudeDegrees>37.05419593490660190582275390625</LatitudeDegrees>
              <LongitudeDegrees>-3.364016152918338775634765625</LongitudeDegrees>
            </Position>
            <AltitudeMeters>3165.39990234375</AltitudeMeters>
            <DistanceMeters>18683.359468667</DistanceMeters>
          </Trackpoint>
          <Trackpoint>
            <Time>2019-07-15T13:51:09.000Z</Time>
            <Position>
              <LatitudeDegrees>37.0541896484792232513427734375</LatitudeDegrees>
              <LongitudeDegrees>-3.3642312325537204742431640625</LongitudeDegrees>
            </Position>
            <AltitudeMeters>3166.60009765625</AltitudeMeters>
            <DistanceMeters>18702.477086562</DistanceMeters>
          </Trackpoint>
          <Trackpoint>
            <Time>2019-07-15T13:51:32.000Z</Time>
            <Position>
              <LatitudeDegrees>37.054145224392414093017578125</LatitudeDegrees>
              <LongitudeDegrees>-3.36447321809828281402587890625</LongitudeDegrees>
            </Position>
            <AltitudeMeters>3167.39990234375</AltitudeMeters>
            <DistanceMeters>18724.533317162</DistanceMeters>
          </Trackpoint>
          <Trackpoint>
            <Time>2019-07-15T13:51:53.000Z</Time>
            <Position>
              <LatitudeDegrees>37.0540541969239711761474609375</LatitudeDegrees>
              <LongitudeDegrees>-3.364675305783748626708984375</LongitudeDegrees>
            </Position>
            <AltitudeMeters>3169</AltitudeMeters>
            <DistanceMeters>18745.146011232</DistanceMeters>
          </Trackpoint>
          <Trackpoint>
            <Time>2019-07-15T13:52:20.000Z</Time>
            <Position>
              <LatitudeDegrees>37.0539589785039424896240234375</LatitudeDegrees>
              <LongitudeDegrees>-3.3648793213069438934326171875</LongitudeDegrees>
            </Position>
            <AltitudeMeters>3170.60009765625</AltitudeMeters>
            <DistanceMeters>18766.13938902</DistanceMeters>
          </Trackpoint>
          <Trackpoint>
            <Time>2019-07-15T13:52:27.000Z</Time>
            <Position>
              <LatitudeDegrees>37.0539502613246440887451171875</LatitudeDegrees>
              <LongitudeDegrees>-3.3649478852748870849609375</LongitudeDegrees>
            </Position>
            <AltitudeMeters>3172</AltitudeMeters>
            <DistanceMeters>18772.306615461</DistanceMeters>
          </Trackpoint>
          <Trackpoint>
            <Time>2019-07-15T13:52:40.000Z</Time>
            <Position>
              <LatitudeDegrees>37.05391866154968738555908203125</LatitudeDegrees>
              <LongitudeDegrees>-3.36506011895835399627685546875</LongitudeDegrees>
            </Position>
            <AltitudeMeters>3172.60009765625</AltitudeMeters>
            <DistanceMeters>18782.878524284</DistanceMeters>
          </Trackpoint>
          <Trackpoint>
            <Time>2019-07-15T13:52:41.000Z</Time>
            <Position>
              <LatitudeDegrees>37.053913213312625885009765625</LatitudeDegrees>
              <LongitudeDegrees>-3.36506791412830352783203125</LongitudeDegrees>
            </Position>
            <AltitudeMeters>3172.60009765625</AltitudeMeters>
            <DistanceMeters>18783.799842462</DistanceMeters>
          </Trackpoint>
          <Trackpoint>
            <Time>2019-07-15T13:52:48.000Z</Time>
            <Position>
              <LatitudeDegrees>37.0538708008825778961181640625</LatitudeDegrees>
              <LongitudeDegrees>-3.36513270623981952667236328125</LongitudeDegrees>
            </Position>
            <AltitudeMeters>3173.199951171875</AltitudeMeters>
            <DistanceMeters>18791.242927775</DistanceMeters>
          </Trackpoint>
          <Trackpoint>
            <Time>2019-07-15T13:53:18.000Z</Time>
            <Position>
              <LatitudeDegrees>37.0538392849266529083251953125</LatitudeDegrees>
              <LongitudeDegrees>-3.36529933847486972808837890625</LongitudeDegrees>
            </Position>
            <AltitudeMeters>3174.60009765625</AltitudeMeters>
            <DistanceMeters>18806.454327409</DistanceMeters>
          </Trackpoint>
          <Trackpoint>
            <Time>2019-07-15T13:53:38.000Z</Time>
            <Position>
              <LatitudeDegrees>37.05380181781947612762451171875</LatitudeDegrees>
              <LongitudeDegrees>-3.36543805897235870361328125</LongitudeDegrees>
            </Position>
            <AltitudeMeters>3177.60009765625</AltitudeMeters>
            <DistanceMeters>18819.462925817</DistanceMeters>
          </Trackpoint>
          <Trackpoint>
            <Time>2019-07-15T13:54:04.000Z</Time>
            <Position>
              <LatitudeDegrees>37.0537739060819149017333984375</LatitudeDegrees>
              <LongitudeDegrees>-3.365560434758663177490234375</LongitudeDegrees>
            </Position>
            <AltitudeMeters>3180.60009765625</AltitudeMeters>
            <DistanceMeters>18830.768309579</DistanceMeters>
          </Trackpoint>
          <Trackpoint>
            <Time>2019-07-15T13:54:45.000Z</Time>
            <Position>
              <LatitudeDegrees>37.0537135563790798187255859375</LatitudeDegrees>
              <LongitudeDegrees>-3.36560963653028011322021484375</LongitudeDegrees>
            </Position>
            <AltitudeMeters>3183.800048828125</AltitudeMeters>
            <DistanceMeters>18838.782166557</DistanceMeters>
          </Trackpoint>
          <Trackpoint>
            <Time>2019-07-15T13:55:48.000Z</Time>
            <Position>
              <LatitudeDegrees>37.05358472652733325958251953125</LatitudeDegrees>
              <LongitudeDegrees>-3.36563193239271640777587890625</LongitudeDegrees>
            </Position>
            <AltitudeMeters>3186.800048828125</AltitudeMeters>
            <DistanceMeters>18853.257452178</DistanceMeters>
          </Trackpoint>
          <Trackpoint>
            <Time>2019-07-15T13:55:51.000Z</Time>
            <Position>
              <LatitudeDegrees>37.05356217920780181884765625</LatitudeDegrees>
              <LongitudeDegrees>-3.3656586706638336181640625</LongitudeDegrees>
            </Position>
            <AltitudeMeters>3187.60009765625</AltitudeMeters>
            <DistanceMeters>18856.713865222</DistanceMeters>
          </Trackpoint>
          <Trackpoint>
            <Time>2019-07-15T13:56:21.000Z</Time>
            <Position>
              <LatitudeDegrees>37.05351683311164379119873046875</LatitudeDegrees>
              <LongitudeDegrees>-3.36564785800874233245849609375</LongitudeDegrees>
            </Position>
            <AltitudeMeters>3190.60009765625</AltitudeMeters>
            <DistanceMeters>18861.851463245</DistanceMeters>
          </Trackpoint>
          <Trackpoint>
            <Time>2019-07-15T13:56:33.000Z</Time>
            <Position>
              <LatitudeDegrees>37.05348397605121135711669921875</LatitudeDegrees>
              <LongitudeDegrees>-3.3656481094658374786376953125</LongitudeDegrees>
            </Position>
            <AltitudeMeters>3191</AltitudeMeters>
            <DistanceMeters>18865.508448782</DistanceMeters>
          </Trackpoint>
          <Trackpoint>
            <Time>2019-07-15T13:56:35.000Z</Time>
            <Position>
              <LatitudeDegrees>37.053465954959392547607421875</LatitudeDegrees>
              <LongitudeDegrees>-3.36565196514129638671875</LongitudeDegrees>
            </Position>
            <AltitudeMeters>3191</AltitudeMeters>
            <DistanceMeters>18867.54432822</DistanceMeters>
          </Trackpoint>
          <Trackpoint>
            <Time>2019-07-15T13:56:36.000Z</Time>
            <Position>
              <LatitudeDegrees>37.05345849506556987762451171875</LatitudeDegrees>
              <LongitudeDegrees>-3.36565607227385044097900390625</LongitudeDegrees>
            </Position>
            <AltitudeMeters>3191</AltitudeMeters>
            <DistanceMeters>18868.4508253</DistanceMeters>
          </Trackpoint>
          <Trackpoint>
            <Time>2019-07-15T13:56:57.000Z</Time>
            <Position>
              <LatitudeDegrees>37.0532823912799358367919921875</LatitudeDegrees>
              <LongitudeDegrees>-3.36567719466984272003173828125</LongitudeDegrees>
            </Position>
            <AltitudeMeters>3190.60009765625</AltitudeMeters>
            <DistanceMeters>18888.140855825</DistanceMeters>
          </Trackpoint>
          <Trackpoint>
            <Time>2019-07-15T13:56:59.000Z</Time>
            <Position>
              <LatitudeDegrees>37.05326520837843418121337890625</LatitudeDegrees>
              <LongitudeDegrees>-3.3656853251159191131591796875</LongitudeDegrees>
            </Position>
            <AltitudeMeters>3190.60009765625</AltitudeMeters>
            <DistanceMeters>18890.187793897</DistanceMeters>
          </Trackpoint>
          <Trackpoint>
            <Time>2019-07-15T13:57:00.000Z</Time>
            <Position>
              <LatitudeDegrees>37.0532582513988018035888671875</LatitudeDegrees>
              <LongitudeDegrees>-3.365693874657154083251953125</LongitudeDegrees>
            </Position>
            <AltitudeMeters>3190.60009765625</AltitudeMeters>
            <DistanceMeters>18891.271265141</DistanceMeters>
          </Trackpoint>
          <Trackpoint>
            <Time>2019-07-15T13:57:27.000Z</Time>
            <Position>
              <LatitudeDegrees>37.05310327000916004180908203125</LatitudeDegrees>
              <LongitudeDegrees>-3.36583762429654598236083984375</LongitudeDegrees>
            </Position>
            <AltitudeMeters>3189.39990234375</AltitudeMeters>
            <DistanceMeters>18912.732791396</DistanceMeters>
          </Trackpoint>
          <Trackpoint>
            <Time>2019-07-15T13:57:37.000Z</Time>
            <Position>
              <LatitudeDegrees>37.05302263610064983367919921875</LatitudeDegrees>
              <LongitudeDegrees>-3.365891017019748687744140625</LongitudeDegrees>
            </Position>
            <AltitudeMeters>3188.60009765625</AltitudeMeters>
            <DistanceMeters>18922.883761906</DistanceMeters>
          </Trackpoint>
          <Trackpoint>
            <Time>2019-07-15T13:57:38.000Z</Time>
            <Position>
              <LatitudeDegrees>37.05301408655941486358642578125</LatitudeDegrees>
              <LongitudeDegrees>-3.3658992312848567962646484375</LongitudeDegrees>
            </Position>
            <AltitudeMeters>3188.60009765625</AltitudeMeters>
            <DistanceMeters>18924.08576533</DistanceMeters>
          </Trackpoint>
          <Trackpoint>
            <Time>2019-07-15T13:57:39.000Z</Time>
            <Position>
              <LatitudeDegrees>37.0530034415423870086669921875</LatitudeDegrees>
              <LongitudeDegrees>-3.36590610444545745849609375</LongitudeDegrees>
            </Position>
            <AltitudeMeters>3188.800048828125</AltitudeMeters>
            <DistanceMeters>18925.416139331</DistanceMeters>
          </Trackpoint>
          <Trackpoint>
            <Time>2019-07-15T13:57:40.000Z</Time>
            <Position>
              <LatitudeDegrees>37.0529923774302005767822265625</LatitudeDegrees>
              <LongitudeDegrees>-3.3659134805202484130859375</LongitudeDegrees>
            </Position>
            <AltitudeMeters>3188.800048828125</AltitudeMeters>
            <DistanceMeters>18926.812741104</DistanceMeters>
          </Trackpoint>
          <Trackpoint>
            <Time>2019-07-15T13:57:41.000Z</Time>
            <Position>
              <LatitudeDegrees>37.0529803074896335601806640625</LatitudeDegrees>
              <LongitudeDegrees>-3.36591959930956363677978515625</LongitudeDegrees>
            </Position>
            <AltitudeMeters>3188.800048828125</AltitudeMeters>
            <DistanceMeters>18928.260144895</DistanceMeters>
          </Trackpoint>
          <Trackpoint>
            <Time>2019-07-15T13:57:42.000Z</Time>
            <Position>
              <LatitudeDegrees>37.05296915955841541290283203125</LatitudeDegrees>
              <LongitudeDegrees>-3.36592613719403743743896484375</LongitudeDegrees>
            </Position>
            <AltitudeMeters>3188.60009765625</AltitudeMeters>
            <DistanceMeters>18929.63063966</DistanceMeters>
          </Trackpoint>
          <Trackpoint>
            <Time>2019-07-15T13:57:45.000Z</Time>
            <Position>
              <LatitudeDegrees>37.0529444329440593719482421875</LatitudeDegrees>
              <LongitudeDegrees>-3.36594725959002971649169921875</LongitudeDegrees>
            </Position>
            <AltitudeMeters>3188.39990234375</AltitudeMeters>
            <DistanceMeters>18932.962000335</DistanceMeters>
          </Trackpoint>
          <Trackpoint>
            <Time>2019-07-15T13:57:52.000Z</Time>
            <Position>
              <LatitudeDegrees>37.0528793893754482269287109375</LatitudeDegrees>
              <LongitudeDegrees>-3.365993611514568328857421875</LongitudeDegrees>
            </Position>
            <AltitudeMeters>3188</AltitudeMeters>
            <DistanceMeters>18941.28972434</DistanceMeters>
          </Trackpoint>
          <Trackpoint>
            <Time>2019-07-15T13:58:05.000Z</Time>
            <Position>
              <LatitudeDegrees>37.05276128835976123809814453125</LatitudeDegrees>
              <LongitudeDegrees>-3.36605186574161052703857421875</LongitudeDegrees>
            </Position>
            <AltitudeMeters>3187.39990234375</AltitudeMeters>
            <DistanceMeters>18955.416461026</DistanceMeters>
          </Trackpoint>
          <Trackpoint>
            <Time>2019-07-15T13:58:06.000Z</Time>
            <Position>
              <LatitudeDegrees>37.05275190062820911407470703125</LatitudeDegrees>
              <LongitudeDegrees>-3.36605756543576717376708984375</LongitudeDegrees>
            </Position>
            <AltitudeMeters>3187</AltitudeMeters>
            <DistanceMeters>18956.5764099</DistanceMeters>
          </Trackpoint>
          <Trackpoint>
            <Time>2019-07-15T13:58:07.000Z</Time>
            <Position>
              <LatitudeDegrees>37.05274485982954502105712890625</LatitudeDegrees>
              <LongitudeDegrees>-3.36606577970087528228759765625</LongitudeDegrees>
            </Position>
            <AltitudeMeters>3187</AltitudeMeters>
            <DistanceMeters>18957.647306584</DistanceMeters>
          </Trackpoint>
          <Trackpoint>
            <Time>2019-07-15T13:58:08.000Z</Time>
            <Position>
              <LatitudeDegrees>37.0527367293834686279296875</LatitudeDegrees>
              <LongitudeDegrees>-3.36607240140438079833984375</LongitudeDegrees>
            </Position>
            <AltitudeMeters>3187.199951171875</AltitudeMeters>
            <DistanceMeters>18958.72241113</DistanceMeters>
          </Trackpoint>
          <Trackpoint>
            <Time>2019-07-15T13:58:09.000Z</Time>
            <Position>
              <LatitudeDegrees>37.05272776074707508087158203125</LatitudeDegrees>
              <LongitudeDegrees>-3.36607868783175945281982421875</LongitudeDegrees>
            </Position>
            <AltitudeMeters>3187.199951171875</AltitudeMeters>
            <DistanceMeters>18959.862731703</DistanceMeters>
          </Trackpoint>
          <Trackpoint>
            <Time>2019-07-15T13:58:10.000Z</Time>
            <Position>
              <LatitudeDegrees>37.0527206361293792724609375</LatitudeDegrees>
              <LongitudeDegrees>-3.3660883270204067230224609375</LongitudeDegrees>
            </Position>
            <AltitudeMeters>3187</AltitudeMeters>
            <DistanceMeters>18961.030439519</DistanceMeters>
          </Trackpoint>
          <Trackpoint>
            <Time>2019-07-15T13:58:17.000Z</Time>
            <Position>
              <LatitudeDegrees>37.0526701770722866058349609375</LatitudeDegrees>
              <LongitudeDegrees>-3.3661329187452793121337890625</LongitudeDegrees>
            </Position>
            <AltitudeMeters>3184.800048828125</AltitudeMeters>
            <DistanceMeters>18967.902651666</DistanceMeters>
          </Trackpoint>
          <Trackpoint>
            <Time>2019-07-15T13:58:20.000Z</Time>
            <Position>
              <LatitudeDegrees>37.05265165306627750396728515625</LatitudeDegrees>
              <LongitudeDegrees>-3.36615915410220623016357421875</LongitudeDegrees>
            </Position>
            <AltitudeMeters>3183.800048828125</AltitudeMeters>
            <DistanceMeters>18971.013960386</DistanceMeters>
          </Trackpoint>
          <Trackpoint>
            <Time>2019-07-15T13:58:21.000Z</Time>
            <Position>
              <LatitudeDegrees>37.0526455342769622802734375</LatitudeDegrees>
              <LongitudeDegrees>-3.36616703309118747711181640625</LongitudeDegrees>
            </Position>
            <AltitudeMeters>3183.800048828125</AltitudeMeters>
            <DistanceMeters>18971.99232029</DistanceMeters>
          </Trackpoint>
          <Trackpoint>
            <Time>2019-07-15T13:58:44.000Z</Time>
            <Position>
              <LatitudeDegrees>37.05254520289599895477294921875</LatitudeDegrees>
              <LongitudeDegrees>-3.366390578448772430419921875</LongitudeDegrees>
            </Position>
            <AltitudeMeters>3182</AltitudeMeters>
            <DistanceMeters>18994.773971759</DistanceMeters>
          </Trackpoint>
          <Trackpoint>
            <Time>2019-07-15T13:59:08.000Z</Time>
            <Position>
              <LatitudeDegrees>37.05250195227563381195068359375</LatitudeDegrees>
              <LongitudeDegrees>-3.36651773191988468170166015625</LongitudeDegrees>
            </Position>
            <AltitudeMeters>3184.199951171875</AltitudeMeters>
            <DistanceMeters>19007.051187893</DistanceMeters>
          </Trackpoint>
          <Trackpoint>
            <Time>2019-07-15T13:59:09.000Z</Time>
            <Position>
              <LatitudeDegrees>37.05249474383890628814697265625</LatitudeDegrees>
              <LongitudeDegrees>-3.36652594618499279022216796875</LongitudeDegrees>
            </Position>
            <AltitudeMeters>3184.39990234375</AltitudeMeters>
            <DistanceMeters>19008.134659137</DistanceMeters>
          </Trackpoint>
          <Trackpoint>
            <Time>2019-07-15T13:59:10.000Z</Time>
            <Position>
              <LatitudeDegrees>37.05248518846929073333740234375</LatitudeDegrees>
              <LongitudeDegrees>-3.36653315462172031402587890625</LongitudeDegrees>
            </Position>
            <AltitudeMeters>3184.60009765625</AltitudeMeters>
            <DistanceMeters>19009.373655907</DistanceMeters>
          </Trackpoint>
          <Trackpoint>
            <Time>2019-07-15T13:59:19.000Z</Time>
            <Position>
              <LatitudeDegrees>37.05240824259817600250244140625</LatitudeDegrees>
              <LongitudeDegrees>-3.36661496199667453765869140625</LongitudeDegrees>
            </Position>
            <AltitudeMeters>3186.199951171875</AltitudeMeters>
            <DistanceMeters>19020.605315086</DistanceMeters>
          </Trackpoint>
          <Trackpoint>
            <Time>2019-07-15T13:59:23.000Z</Time>
            <Position>
              <LatitudeDegrees>37.05238091759383678436279296875</LatitudeDegrees>
              <LongitudeDegrees>-3.36664312519133090972900390625</LongitudeDegrees>
            </Position>
            <AltitudeMeters>3186.60009765625</AltitudeMeters>
            <DistanceMeters>19024.544054901</DistanceMeters>
          </Trackpoint>
          <Trackpoint>
            <Time>2019-07-15T13:59:24.000Z</Time>
            <Position>
              <LatitudeDegrees>37.05237287096679210662841796875</LatitudeDegrees>
              <LongitudeDegrees>-3.36664932779967784881591796875</LongitudeDegrees>
            </Position>
            <AltitudeMeters>3186.800048828125</AltitudeMeters>
            <DistanceMeters>19025.593659268</DistanceMeters>
          </Trackpoint>
          <Trackpoint>
            <Time>2019-07-15T13:59:39.000Z</Time>
            <Position>
              <LatitudeDegrees>37.05226105637848377227783203125</LatitudeDegrees>
              <LongitudeDegrees>-3.3667555265128612518310546875</LongitudeDegrees>
            </Position>
            <AltitudeMeters>3186.199951171875</AltitudeMeters>
            <DistanceMeters>19041.209876622</DistanceMeters>
          </Trackpoint>
          <Trackpoint>
            <Time>2019-07-15T13:59:40.000Z</Time>
            <Position>
              <LatitudeDegrees>37.052253596484661102294921875</LatitudeDegrees>
              <LongitudeDegrees>-3.36676063947379589080810546875</LongitudeDegrees>
            </Position>
            <AltitudeMeters>3186</AltitudeMeters>
            <DistanceMeters>19042.160143765</DistanceMeters>
          </Trackpoint>
          <Trackpoint>
            <Time>2019-07-15T13:59:41.000Z</Time>
            <Position>
              <LatitudeDegrees>37.05224680714309215545654296875</LatitudeDegrees>
              <LongitudeDegrees>-3.36676700972020626068115234375</LongitudeDegrees>
            </Position>
            <AltitudeMeters>3185.800048828125</AltitudeMeters>
            <DistanceMeters>19043.105647635</DistanceMeters>
          </Trackpoint>
          <Trackpoint>
            <Time>2019-07-15T13:59:42.000Z</Time>
            <Position>
              <LatitudeDegrees>37.05224010162055492401123046875</LatitudeDegrees>
              <LongitudeDegrees>-3.36677379906177520751953125</LongitudeDegrees>
            </Position>
            <AltitudeMeters>3185.60009765625</AltitudeMeters>
            <DistanceMeters>19044.060654295</DistanceMeters>
          </Trackpoint>
          <Trackpoint>
            <Time>2019-07-15T13:59:43.000Z</Time>
            <Position>
              <LatitudeDegrees>37.05223356373608112335205078125</LatitudeDegrees>
              <LongitudeDegrees>-3.3667843602597713470458984375</LongitudeDegrees>
            </Position>
            <AltitudeMeters>3185.60009765625</AltitudeMeters>
            <DistanceMeters>19045.239904808</DistanceMeters>
          </Trackpoint>
          <Trackpoint>
            <Time>2019-07-15T13:59:44.000Z</Time>
            <Position>
              <LatitudeDegrees>37.05222652293741703033447265625</LatitudeDegrees>
              <LongitudeDegrees>-3.36679399944841861724853515625</LongitudeDegrees>
            </Position>
            <AltitudeMeters>3185.60009765625</AltitudeMeters>
            <DistanceMeters>19046.399853682</DistanceMeters>
          </Trackpoint>
          <Trackpoint>
            <Time>2019-07-15T13:59:45.000Z</Time>
            <Position>
              <LatitudeDegrees>37.0522178895771503448486328125</LatitudeDegrees>
              <LongitudeDegrees>-3.36679919622838497161865234375</LongitudeDegrees>
            </Position>
            <AltitudeMeters>3185.60009765625</AltitudeMeters>
            <DistanceMeters>19047.466525906</DistanceMeters>
          </Trackpoint>
          <Trackpoint>
            <Time>2019-07-15T13:59:46.000Z</Time>
            <Position>
              <LatitudeDegrees>37.05221110023558139801025390625</LatitudeDegrees>
              <LongitudeDegrees>-3.36680523119866847991943359375</LongitudeDegrees>
            </Position>
            <AltitudeMeters>3185.39990234375</AltitudeMeters>
            <DistanceMeters>19048.397593754</DistanceMeters>
          </Trackpoint>
          <Trackpoint>
            <Time>2019-07-15T13:59:47.000Z</Time>
            <Position>
              <LatitudeDegrees>37.052206657826900482177734375</LatitudeDegrees>
              <LongitudeDegrees>-3.366814367473125457763671875</LongitudeDegrees>
            </Position>
            <AltitudeMeters>3185.199951171875</AltitudeMeters>
            <DistanceMeters>19049.347860898</DistanceMeters>
          </Trackpoint>
          <Trackpoint>
            <Time>2019-07-15T13:59:48.000Z</Time>
            <Position>
              <LatitudeDegrees>37.052201963961124420166015625</LatitudeDegrees>
              <LongitudeDegrees>-3.366825766861438751220703125</LongitudeDegrees>
            </Position>
            <AltitudeMeters>3185</AltitudeMeters>
            <DistanceMeters>19050.48818147</DistanceMeters>
          </Trackpoint>
          <Trackpoint>
            <Time>2019-07-15T13:59:49.000Z</Time>
            <Position>
              <LatitudeDegrees>37.052194587886333465576171875</LatitudeDegrees>
              <LongitudeDegrees>-3.366833813488483428955078125</LongitudeDegrees>
            </Position>
            <AltitudeMeters>3184.800048828125</AltitudeMeters>
            <DistanceMeters>19051.579955298</DistanceMeters>
          </Trackpoint>
          <Trackpoint>
            <Time>2019-07-15T13:59:50.000Z</Time>
            <Position>
              <LatitudeDegrees>37.0521868765354156494140625</LatitudeDegrees>
              <LongitudeDegrees>-3.3668420277535915374755859375</LongitudeDegrees>
            </Position>
            <AltitudeMeters>3184.60009765625</AltitudeMeters>
            <DistanceMeters>19052.708335012</DistanceMeters>
          </Trackpoint>
          <Trackpoint>
            <Time>2019-07-15T13:59:51.000Z</Time>
            <Position>
              <LatitudeDegrees>37.05218193121254444122314453125</LatitudeDegrees>
              <LongitudeDegrees>-3.36685149930417537689208984375</LongitudeDegrees>
            </Position>
            <AltitudeMeters>3184.39990234375</AltitudeMeters>
            <DistanceMeters>19053.709503572</DistanceMeters>
          </Trackpoint>
          <Trackpoint>
            <Time>2019-07-15T13:59:52.000Z</Time>
            <Position>
              <LatitudeDegrees>37.05217690207064151763916015625</LatitudeDegrees>
              <LongitudeDegrees>-3.36686004884541034698486328125</LongitudeDegrees>
            </Position>
            <AltitudeMeters>3184.199951171875</AltitudeMeters>
            <DistanceMeters>19054.650220049</DistanceMeters>
          </Trackpoint>
          <Trackpoint>
            <Time>2019-07-15T13:59:53.000Z</Time>
            <Position>
              <LatitudeDegrees>37.0521712861955165863037109375</LatitudeDegrees>
              <LongitudeDegrees>-3.3668681792914867401123046875</LongitudeDegrees>
            </Position>
            <AltitudeMeters>3184.199951171875</AltitudeMeters>
            <DistanceMeters>19055.60994282</DistanceMeters>
          </Trackpoint>
          <Trackpoint>
            <Time>2019-07-15T13:59:59.000Z</Time>
            <Position>
              <LatitudeDegrees>37.0521287061274051666259765625</LatitudeDegrees>
              <LongitudeDegrees>-3.3669325523078441619873046875</LongitudeDegrees>
            </Position>
            <AltitudeMeters>3183.800048828125</AltitudeMeters>
            <DistanceMeters>19063.036631647</DistanceMeters>
          </Trackpoint>
          <Trackpoint>
            <Time>2019-07-15T14:00:00.000Z</Time>
            <Position>
              <LatitudeDegrees>37.0521263591945171356201171875</LatitudeDegrees>
              <LongitudeDegrees>-3.3669479750096797943115234375</LongitudeDegrees>
            </Position>
            <AltitudeMeters>3183.60009765625</AltitudeMeters>
            <DistanceMeters>19064.433233419</DistanceMeters>
          </Trackpoint>
          <Trackpoint>
            <Time>2019-07-15T14:00:01.000Z</Time>
            <Position>
              <LatitudeDegrees>37.05212049186229705810546875</LatitudeDegrees>
              <LongitudeDegrees>-3.36696214042603969573974609375</LongitudeDegrees>
            </Position>
            <AltitudeMeters>3183.60009765625</AltitudeMeters>
            <DistanceMeters>19065.849099575</DistanceMeters>
          </Trackpoint>
          <Trackpoint>
            <Time>2019-07-15T14:00:02.000Z</Time>
            <Position>
              <LatitudeDegrees>37.0521163009107112884521484375</LatitudeDegrees>
              <LongitudeDegrees>-3.36697806604206562042236328125</LongitudeDegrees>
            </Position>
            <AltitudeMeters>3183.60009765625</AltitudeMeters>
            <DistanceMeters>19067.339535352</DistanceMeters>
          </Trackpoint>
          <Trackpoint>
            <Time>2019-07-15T14:00:03.000Z</Time>
            <Position>
              <LatitudeDegrees>37.05211118794977664947509765625</LatitudeDegrees>
              <LongitudeDegrees>-3.36699097417294979095458984375</LongitudeDegrees>
            </Position>
            <AltitudeMeters>3183.39990234375</AltitudeMeters>
            <DistanceMeters>19068.621515817</DistanceMeters>
          </Trackpoint>
          <Trackpoint>
            <Time>2019-07-15T14:00:04.000Z</Time>
            <Position>
              <LatitudeDegrees>37.052104733884334564208984375</LatitudeDegrees>
              <LongitudeDegrees>-3.3670039661228656768798828125</LongitudeDegrees>
            </Position>
            <AltitudeMeters>3183.199951171875</AltitudeMeters>
            <DistanceMeters>19069.985405749</DistanceMeters>
          </Trackpoint>
          <Trackpoint>
            <Time>2019-07-15T14:00:06.000Z</Time>
            <Position>
              <LatitudeDegrees>37.0520908199250698089599609375</LatitudeDegrees>
              <LongitudeDegrees>-3.36702349595725536346435546875</LongitudeDegrees>
            </Position>
            <AltitudeMeters>3183</AltitudeMeters>
            <DistanceMeters>19072.309192683</DistanceMeters>
          </Trackpoint>
          <Trackpoint>
            <Time>2019-07-15T14:00:07.000Z</Time>
            <Position>
              <LatitudeDegrees>37.05208252184092998504638671875</LatitudeDegrees>
              <LongitudeDegrees>-3.367033638060092926025390625</LongitudeDegrees>
            </Position>
            <AltitudeMeters>3182.800048828125</AltitudeMeters>
            <DistanceMeters>19073.598197751</DistanceMeters>
          </Trackpoint>
          <Trackpoint>
            <Time>2019-07-15T14:00:15.000Z</Time>
            <Position>
              <LatitudeDegrees>37.05202552489936351776123046875</LatitudeDegrees>
              <LongitudeDegrees>-3.36711234413087368011474609375</LongitudeDegrees>
            </Position>
            <AltitudeMeters>3182</AltitudeMeters>
            <DistanceMeters>19083.038899764</DistanceMeters>
          </Trackpoint>
          <Trackpoint>
            <Time>2019-07-15T14:00:16.000Z</Time>
            <Position>
              <LatitudeDegrees>37.05201990902423858642578125</LatitudeDegrees>
              <LongitudeDegrees>-3.3671226538717746734619140625</LongitudeDegrees>
            </Position>
            <AltitudeMeters>3181.800048828125</AltitudeMeters>
            <DistanceMeters>19084.147092165</DistanceMeters>
          </Trackpoint>
          <Trackpoint>
            <Time>2019-07-15T14:00:17.000Z</Time>
            <Position>
              <LatitudeDegrees>37.052015550434589385986328125</LatitudeDegrees>
              <LongitudeDegrees>-3.367129527032375335693359375</LongitudeDegrees>
            </Position>
            <AltitudeMeters>3181.800048828125</AltitudeMeters>
            <DistanceMeters>19084.924919345</DistanceMeters>
          </Trackpoint>
          <Trackpoint>
            <Time>2019-07-15T14:00:20.000Z</Time>
            <Position>
              <LatitudeDegrees>37.05200440250337123870849609375</LatitudeDegrees>
              <LongitudeDegrees>-3.3671545051038265228271484375</LongitudeDegrees>
            </Position>
            <AltitudeMeters>3181.800048828125</AltitudeMeters>
            <DistanceMeters>19087.467660923</DistanceMeters>
          </Trackpoint>
          <Trackpoint>
            <Time>2019-07-15T14:00:21.000Z</Time>
            <Position>
              <LatitudeDegrees>37.05199954099953174591064453125</LatitudeDegrees>
              <LongitudeDegrees>-3.36716431193053722381591796875</LongitudeDegrees>
            </Position>
            <AltitudeMeters>3181.800048828125</AltitudeMeters>
            <DistanceMeters>19088.491129959</DistanceMeters>
          </Trackpoint>
          <Trackpoint>
            <Time>2019-07-15T14:00:41.000Z</Time>
            <Position>
              <LatitudeDegrees>37.05186140723526477813720703125</LatitudeDegrees>
              <LongitudeDegrees>-3.3673194609582424163818359375</LongitudeDegrees>
            </Position>
            <AltitudeMeters>3180.199951171875</AltitudeMeters>
            <DistanceMeters>19109.138403603</DistanceMeters>
          </Trackpoint>
          <Trackpoint>
            <Time>2019-07-15T14:00:57.000Z</Time>
            <Position>
              <LatitudeDegrees>37.05171883106231689453125</LatitudeDegrees>
              <LongitudeDegrees>-3.36744929663836956024169921875</LongitudeDegrees>
            </Position>
            <AltitudeMeters>3178.60009765625</AltitudeMeters>
            <DistanceMeters>19128.755379357</DistanceMeters>
          </Trackpoint>
          <Trackpoint>
            <Time>2019-07-15T14:01:06.000Z</Time>
            <Position>
              <LatitudeDegrees>37.05164515413343906402587890625</LatitudeDegrees>
              <LongitudeDegrees>-3.36752523668110370635986328125</LongitudeDegrees>
            </Position>
            <AltitudeMeters>3177.60009765625</AltitudeMeters>
            <DistanceMeters>19139.373737727</DistanceMeters>
          </Trackpoint>
          <Trackpoint>
            <Time>2019-07-15T14:01:09.000Z</Time>
            <Position>
              <LatitudeDegrees>37.05162738449871540069580078125</LatitudeDegrees>
              <LongitudeDegrees>-3.36754736490547657012939453125</LongitudeDegrees>
            </Position>
            <AltitudeMeters>3177.39990234375</AltitudeMeters>
            <DistanceMeters>19142.162087744</DistanceMeters>
          </Trackpoint>
          <Trackpoint>
            <Time>2019-07-15T14:01:10.000Z</Time>
            <Position>
              <LatitudeDegrees>37.05162025988101959228515625</LatitudeDegrees>
              <LongitudeDegrees>-3.3675548247992992401123046875</LongitudeDegrees>
            </Position>
            <AltitudeMeters>3177.199951171875</AltitudeMeters>
            <DistanceMeters>19143.194342083</DistanceMeters>
          </Trackpoint>
          <Trackpoint>
            <Time>2019-07-15T14:01:12.000Z</Time>
            <Position>
              <LatitudeDegrees>37.0516039989888668060302734375</LatitudeDegrees>
              <LongitudeDegrees>-3.36756362579762935638427734375</LongitudeDegrees>
            </Position>
            <AltitudeMeters>3177.199951171875</AltitudeMeters>
            <DistanceMeters>19145.16714794</DistanceMeters>
          </Trackpoint>
          <Trackpoint>
            <Time>2019-07-15T14:01:13.000Z</Time>
            <Position>
              <LatitudeDegrees>37.0515959523618221282958984375</LatitudeDegrees>
              <LongitudeDegrees>-3.367569409310817718505859375</LongitudeDegrees>
            </Position>
            <AltitudeMeters>3177.199951171875</AltitudeMeters>
            <DistanceMeters>19146.199402279</DistanceMeters>
          </Trackpoint>
          <Trackpoint>
            <Time>2019-07-15T14:01:15.000Z</Time>
            <Position>
              <LatitudeDegrees>37.05158513970673084259033203125</LatitudeDegrees>
              <LongitudeDegrees>-3.3675839938223361968994140625</LongitudeDegrees>
            </Position>
            <AltitudeMeters>3177</AltitudeMeters>
            <DistanceMeters>19147.969553833</DistanceMeters>
          </Trackpoint>
          <Trackpoint>
            <Time>2019-07-15T14:01:16.000Z</Time>
            <Position>
              <LatitudeDegrees>37.0515805296599864959716796875</LatitudeDegrees>
              <LongitudeDegrees>-3.367593549191951751708984375</LongitudeDegrees>
            </Position>
            <AltitudeMeters>3177</AltitudeMeters>
            <DistanceMeters>19148.966202422</DistanceMeters>
          </Trackpoint>
          <Trackpoint>
            <Time>2019-07-15T14:01:17.000Z</Time>
            <Position>
              <LatitudeDegrees>37.05157508142292499542236328125</LatitudeDegrees>
              <LongitudeDegrees>-3.3676024340093135833740234375</LongitudeDegrees>
            </Position>
            <AltitudeMeters>3177</AltitudeMeters>
            <DistanceMeters>19149.96285101</DistanceMeters>
          </Trackpoint>
          <Trackpoint>
            <Time>2019-07-15T14:01:18.000Z</Time>
            <Position>
              <LatitudeDegrees>37.0515687949955463409423828125</LatitudeDegrees>
              <LongitudeDegrees>-3.36761140264570713043212890625</LongitudeDegrees>
            </Position>
            <AltitudeMeters>3177</AltitudeMeters>
            <DistanceMeters>19151.021023718</DistanceMeters>
          </Trackpoint>
          <Trackpoint>
            <Time>2019-07-15T14:01:19.000Z</Time>
            <Position>
              <LatitudeDegrees>37.05156083218753337860107421875</LatitudeDegrees>
              <LongitudeDegrees>-3.3676208741962909698486328125</LongitudeDegrees>
            </Position>
            <AltitudeMeters>3176.800048828125</AltitudeMeters>
            <DistanceMeters>19152.241663965</DistanceMeters>
          </Trackpoint>
          <Trackpoint>
            <Time>2019-07-15T14:01:20.000Z</Time>
            <Position>
              <LatitudeDegrees>37.051551528275012969970703125</LatitudeDegrees>
              <LongitudeDegrees>-3.3676285855472087860107421875</LongitudeDegrees>
            </Position>
            <AltitudeMeters>3176.800048828125</AltitudeMeters>
            <DistanceMeters>19153.484299499</DistanceMeters>
          </Trackpoint>
          <Trackpoint>
            <Time>2019-07-15T14:01:21.000Z</Time>
            <Position>
              <LatitudeDegrees>37.0515419729053974151611328125</LatitudeDegrees>
              <LongitudeDegrees>-3.367637135088443756103515625</LongitudeDegrees>
            </Position>
            <AltitudeMeters>3176.800048828125</AltitudeMeters>
            <DistanceMeters>19154.794152363</DistanceMeters>
          </Trackpoint>
          <Trackpoint>
            <Time>2019-07-15T14:01:44.000Z</Time>
            <Position>
              <LatitudeDegrees>37.0513941161334514617919921875</LatitudeDegrees>
              <LongitudeDegrees>-3.36780854500830173492431640625</LongitudeDegrees>
            </Position>
            <AltitudeMeters>3177</AltitudeMeters>
            <DistanceMeters>19177.214416307</DistanceMeters>
          </Trackpoint>
          <Trackpoint>
            <Time>2019-07-15T14:01:52.000Z</Time>
            <Position>
              <LatitudeDegrees>37.05134642310440540313720703125</LatitudeDegrees>
              <LongitudeDegrees>-3.36787962354719638824462890625</LongitudeDegrees>
            </Position>
            <AltitudeMeters>3177</AltitudeMeters>
            <DistanceMeters>19185.463698463</DistanceMeters>
          </Trackpoint>
          <Trackpoint>
            <Time>2019-07-15T14:01:59.000Z</Time>
            <Position>
              <LatitudeDegrees>37.051332257688045501708984375</LatitudeDegrees>
              <LongitudeDegrees>-3.36795053444802761077880859375</LongitudeDegrees>
            </Position>
            <AltitudeMeters>3176.199951171875</AltitudeMeters>
            <DistanceMeters>19191.956881574</DistanceMeters>
          </Trackpoint>
          <Trackpoint>
            <Time>2019-07-15T14:02:00.000Z</Time>
            <Position>
              <LatitudeDegrees>37.05132924020290374755859375</LatitudeDegrees>
              <LongitudeDegrees>-3.3679625205695629119873046875</LongitudeDegrees>
            </Position>
            <AltitudeMeters>3176</AltitudeMeters>
            <DistanceMeters>19193.073192709</DistanceMeters>
          </Trackpoint>
          <Trackpoint>
            <Time>2019-07-15T14:02:03.000Z</Time>
            <Position>
              <LatitudeDegrees>37.0513151586055755615234375</LatitudeDegrees>
              <LongitudeDegrees>-3.36798775009810924530029296875</LongitudeDegrees>
            </Position>
            <AltitudeMeters>3175.800048828125</AltitudeMeters>
            <DistanceMeters>19195.809236088</DistanceMeters>
          </Trackpoint>
          <Trackpoint>
            <Time>2019-07-15T14:02:04.000Z</Time>
            <Position>
              <LatitudeDegrees>37.051313817501068115234375</LatitudeDegrees>
              <LongitudeDegrees>-3.36800367571413516998291015625</LongitudeDegrees>
            </Position>
            <AltitudeMeters>3175.800048828125</AltitudeMeters>
            <DistanceMeters>19197.234636803</DistanceMeters>
          </Trackpoint>
          <Trackpoint>
            <Time>2019-07-15T14:02:05.000Z</Time>
            <Position>
              <LatitudeDegrees>37.05130903981626033782958984375</LatitudeDegrees>
              <LongitudeDegrees>-3.368013314902782440185546875</LongitudeDegrees>
            </Position>
            <AltitudeMeters>3175.39990234375</AltitudeMeters>
            <DistanceMeters>19198.244784633</DistanceMeters>
          </Trackpoint>
          <Trackpoint>
            <Time>2019-07-15T14:02:06.000Z</Time>
            <Position>
              <LatitudeDegrees>37.05130266956984996795654296875</LatitudeDegrees>
              <LongitudeDegrees>-3.3680191822350025177001953125</LongitudeDegrees>
            </Position>
            <AltitudeMeters>3175.39990234375</AltitudeMeters>
            <DistanceMeters>19199.120887651</DistanceMeters>
          </Trackpoint>
          <Trackpoint>
            <Time>2019-07-15T14:02:07.000Z</Time>
            <Position>
              <LatitudeDegrees>37.05129764042794704437255859375</LatitudeDegrees>
              <LongitudeDegrees>-3.36802580393850803375244140625</LongitudeDegrees>
            </Position>
            <AltitudeMeters>3175.199951171875</AltitudeMeters>
            <DistanceMeters>19199.927216061</DistanceMeters>
          </Trackpoint>
          <Trackpoint>
            <Time>2019-07-15T14:02:08.000Z</Time>
            <Position>
              <LatitudeDegrees>37.05129294656217098236083984375</LatitudeDegrees>
              <LongitudeDegrees>-3.36803443729877471923828125</LongitudeDegrees>
            </Position>
            <AltitudeMeters>3175</AltitudeMeters>
            <DistanceMeters>19200.853421903</DistanceMeters>
          </Trackpoint>
          <Trackpoint>
            <Time>2019-07-15T14:02:09.000Z</Time>
            <Position>
              <LatitudeDegrees>37.05128825269639492034912109375</LatitudeDegrees>
              <LongitudeDegrees>-3.3680453337728977203369140625</LongitudeDegrees>
            </Position>
            <AltitudeMeters>3175</AltitudeMeters>
            <DistanceMeters>19201.95343565</DistanceMeters>
          </Trackpoint>
          <Trackpoint>
            <Time>2019-07-15T14:02:10.000Z</Time>
            <Position>
              <LatitudeDegrees>37.0512834750115871429443359375</LatitudeDegrees>
              <LongitudeDegrees>-3.36805916391313076019287109375</LongitudeDegrees>
            </Position>
            <AltitudeMeters>3174.800048828125</AltitudeMeters>
            <DistanceMeters>19203.290580046</DistanceMeters>
          </Trackpoint>
          <Trackpoint>
            <Time>2019-07-15T14:02:11.000Z</Time>
            <Position>
              <LatitudeDegrees>37.05127961933612823486328125</LatitudeDegrees>
              <LongitudeDegrees>-3.36807391606271266937255859375</LongitudeDegrees>
            </Position>
            <AltitudeMeters>3174.800048828125</AltitudeMeters>
            <DistanceMeters>19204.667647965</DistanceMeters>
          </Trackpoint>
          <Trackpoint>
            <Time>2019-07-15T14:02:12.000Z</Time>
            <Position>
              <LatitudeDegrees>37.051277942955493927001953125</LatitudeDegrees>
              <LongitudeDegrees>-3.36808866821229457855224609375</LongitudeDegrees>
            </Position>
            <AltitudeMeters>3174.60009765625</AltitudeMeters>
            <DistanceMeters>19205.991216939</DistanceMeters>
          </Trackpoint>
          <Trackpoint>
            <Time>2019-07-15T14:02:13.000Z</Time>
            <Position>
              <LatitudeDegrees>37.05127417109906673431396484375</LatitudeDegrees>
              <LongitudeDegrees>-3.368101157248020172119140625</LongitudeDegrees>
            </Position>
            <AltitudeMeters>3174.60009765625</AltitudeMeters>
            <DistanceMeters>19207.174289992</DistanceMeters>
          </Trackpoint>
          <Trackpoint>
            <Time>2019-07-15T14:02:14.000Z</Time>
            <Position>
              <LatitudeDegrees>37.05126847140491008758544921875</LatitudeDegrees>
              <LongitudeDegrees>-3.36811062879860401153564453125</LongitudeDegrees>
            </Position>
            <AltitudeMeters>3174.39990234375</AltitudeMeters>
            <DistanceMeters>19208.223894359</DistanceMeters>
          </Trackpoint>
          <Trackpoint>
            <Time>2019-07-15T14:02:15.000Z</Time>
            <Position>
              <LatitudeDegrees>37.05126327462494373321533203125</LatitudeDegrees>
              <LongitudeDegrees>-3.36812018416821956634521484375</LongitudeDegrees>
            </Position>
            <AltitudeMeters>3174.39990234375</AltitudeMeters>
            <DistanceMeters>19209.251765432</DistanceMeters>
          </Trackpoint>
          <Trackpoint>
            <Time>2019-07-15T14:02:16.000Z</Time>
            <Position>
              <LatitudeDegrees>37.0512596704065799713134765625</LatitudeDegrees>
              <LongitudeDegrees>-3.36813124828040599822998046875</LongitudeDegrees>
            </Position>
            <AltitudeMeters>3174.199951171875</AltitudeMeters>
            <DistanceMeters>19210.30993814</DistanceMeters>
          </Trackpoint>
          <Trackpoint>
            <Time>2019-07-15T14:02:17.000Z</Time>
            <Position>
              <LatitudeDegrees>37.0512579940259456634521484375</LatitudeDegrees>
              <LongitudeDegrees>-3.368143402040004730224609375</LongitudeDegrees>
            </Position>
            <AltitudeMeters>3174</AltitudeMeters>
            <DistanceMeters>19211.401711967</DistanceMeters>
          </Trackpoint>
          <Trackpoint>
            <Time>2019-07-15T14:02:18.000Z</Time>
            <Position>
              <LatitudeDegrees>37.05125656910240650177001953125</LatitudeDegrees>
              <LongitudeDegrees>-3.3681546337902545928955078125</LongitudeDegrees>
            </Position>
            <AltitudeMeters>3174</AltitudeMeters>
            <DistanceMeters>19212.407380184</DistanceMeters>
          </Trackpoint>
          <Trackpoint>
            <Time>2019-07-15T14:02:19.000Z</Time>
            <Position>
              <LatitudeDegrees>37.05125506035983562469482421875</LatitudeDegrees>
              <LongitudeDegrees>-3.36816494353115558624267578125</LongitudeDegrees>
            </Position>
            <AltitudeMeters>3173.800048828125</AltitudeMeters>
            <DistanceMeters>19213.338448032</DistanceMeters>
          </Trackpoint>
          <Trackpoint>
            <Time>2019-07-15T14:02:23.000Z</Time>
            <Position>
              <LatitudeDegrees>37.0512613467872142791748046875</LatitudeDegrees>
              <LongitudeDegrees>-3.36821020580828189849853515625</LongitudeDegrees>
            </Position>
            <AltitudeMeters>3173.39990234375</AltitudeMeters>
            <DistanceMeters>19217.419068201</DistanceMeters>
          </Trackpoint>
          <Trackpoint>
            <Time>2019-07-15T14:02:24.000Z</Time>
            <Position>
              <LatitudeDegrees>37.0512630231678485870361328125</LatitudeDegrees>
              <LongitudeDegrees>-3.3682223595678806304931640625</LongitudeDegrees>
            </Position>
            <AltitudeMeters>3173.199951171875</AltitudeMeters>
            <DistanceMeters>19218.510842029</DistanceMeters>
          </Trackpoint>
          <Trackpoint>
            <Time>2019-07-15T14:02:25.000Z</Time>
            <Position>
              <LatitudeDegrees>37.05126729793846607208251953125</LatitudeDegrees>
              <LongitudeDegrees>-3.36823652498424053192138671875</LongitudeDegrees>
            </Position>
            <AltitudeMeters>3173.199951171875</AltitudeMeters>
            <DistanceMeters>19219.854722711</DistanceMeters>
          </Trackpoint>
          <Trackpoint>
            <Time>2019-07-15T14:02:26.000Z</Time>
            <Position>
              <LatitudeDegrees>37.0512703992426395416259765625</LatitudeDegrees>
              <LongitudeDegrees>-3.36825010366737842559814453125</LongitudeDegrees>
            </Position>
            <AltitudeMeters>3173.199951171875</AltitudeMeters>
            <DistanceMeters>19221.108211164</DistanceMeters>
          </Trackpoint>
          <Trackpoint>
            <Time>2019-07-15T14:02:27.000Z</Time>
            <Position>
              <LatitudeDegrees>37.05127316527068614959716796875</LatitudeDegrees>
              <LongitudeDegrees>-3.36826435290277004241943359375</LongitudeDegrees>
            </Position>
            <AltitudeMeters>3173.199951171875</AltitudeMeters>
            <DistanceMeters>19222.407681939</DistanceMeters>
          </Trackpoint>
          <Trackpoint>
            <Time>2019-07-15T14:02:28.000Z</Time>
            <Position>
              <LatitudeDegrees>37.051273919641971588134765625</LatitudeDegrees>
              <LongitudeDegrees>-3.3682796917855739593505859375</LongitudeDegrees>
            </Position>
            <AltitudeMeters>3173.199951171875</AltitudeMeters>
            <DistanceMeters>19223.771571871</DistanceMeters>
          </Trackpoint>
          <Trackpoint>
            <Time>2019-07-15T14:02:29.000Z</Time>
            <Position>
              <LatitudeDegrees>37.05127693712711334228515625</LatitudeDegrees>
              <LongitudeDegrees>-3.3682934381067752838134765625</LongitudeDegrees>
            </Position>
            <AltitudeMeters>3173.199951171875</AltitudeMeters>
            <DistanceMeters>19225.039386372</DistanceMeters>
          </Trackpoint>
          <Trackpoint>
            <Time>2019-07-15T14:03:11.000Z</Time>
            <Position>
              <LatitudeDegrees>37.051328234374523162841796875</LatitudeDegrees>
              <LongitudeDegrees>-3.3681791089475154876708984375</LongitudeDegrees>
            </Position>
            <AltitudeMeters>3174.800048828125</AltitudeMeters>
            <DistanceMeters>19236.690142103</DistanceMeters>
          </Trackpoint>
          <Trackpoint>
            <Time>2019-07-15T14:03:25.000Z</Time>
            <Position>
              <LatitudeDegrees>37.05133820883929729461669921875</LatitudeDegrees>
              <LongitudeDegrees>-3.368167541921138763427734375</LongitudeDegrees>
            </Position>
            <AltitudeMeters>3174.800048828125</AltitudeMeters>
            <DistanceMeters>19238.204618718</DistanceMeters>
          </Trackpoint>
          <Trackpoint>
            <Time>2019-07-15T14:03:26.000Z</Time>
            <Position>
              <LatitudeDegrees>37.05133820883929729461669921875</LatitudeDegrees>
              <LongitudeDegrees>-3.3681526221334934234619140625</LongitudeDegrees>
            </Position>
            <AltitudeMeters>3175</AltitudeMeters>
            <DistanceMeters>19239.528187692</DistanceMeters>
          </Trackpoint>
          <Trackpoint>
            <Time>2019-07-15T14:03:27.000Z</Time>
            <Position>
              <LatitudeDegrees>37.0513381250202655792236328125</LatitudeDegrees>
              <LongitudeDegrees>-3.3681370317935943603515625</LongitudeDegrees>
            </Position>
            <AltitudeMeters>3175.199951171875</AltitudeMeters>
            <DistanceMeters>19240.911797538</DistanceMeters>
          </Trackpoint>
          <Trackpoint>
            <Time>2019-07-15T14:03:28.000Z</Time>
            <Position>
              <LatitudeDegrees>37.05133636482059955596923828125</LatitudeDegrees>
              <LongitudeDegrees>-3.36812085472047328948974609375</LongitudeDegrees>
            </Position>
            <AltitudeMeters>3175.199951171875</AltitudeMeters>
            <DistanceMeters>19242.365426751</DistanceMeters>
          </Trackpoint>
          <Trackpoint>
            <Time>2019-07-15T14:03:29.000Z</Time>
            <Position>
              <LatitudeDegrees>37.0513374544680118560791015625</LatitudeDegrees>
              <LongitudeDegrees>-3.3681073598563671112060546875</LongitudeDegrees>
            </Position>
            <AltitudeMeters>3175.39990234375</AltitudeMeters>
            <DistanceMeters>19243.571180584</DistanceMeters>
          </Trackpoint>
          <Trackpoint>
            <Time>2019-07-15T14:03:30.000Z</Time>
            <Position>
              <LatitudeDegrees>37.051340974867343902587890625</LatitudeDegrees>
              <LongitudeDegrees>-3.36809554137289524078369140625</LongitudeDegrees>
            </Position>
            <AltitudeMeters>3175.39990234375</AltitudeMeters>
            <DistanceMeters>19244.687491719</DistanceMeters>
          </Trackpoint>
          <Trackpoint>
            <Time>2019-07-15T14:04:00.000Z</Time>
            <Position>
              <LatitudeDegrees>37.0513501949608325958251953125</LatitudeDegrees>
              <LongitudeDegrees>-3.36799194104969501495361328125</LongitudeDegrees>
            </Position>
            <AltitudeMeters>3176</AltitudeMeters>
            <DistanceMeters>19253.947600029</DistanceMeters>
          </Trackpoint>
          <Trackpoint>
            <Time>2019-07-15T14:04:02.000Z</Time>
            <Position>
              <LatitudeDegrees>37.05134055577218532562255859375</LatitudeDegrees>
              <LongitudeDegrees>-3.36801105178892612457275390625</LongitudeDegrees>
            </Position>
            <AltitudeMeters>3176</AltitudeMeters>
            <DistanceMeters>19255.956690413</DistanceMeters>
          </Trackpoint>
          <Trackpoint>
            <Time>2019-07-15T14:04:06.000Z</Time>
            <Position>
              <LatitudeDegrees>37.0513232052326202392578125</LatitudeDegrees>
              <LongitudeDegrees>-3.36804742924869060516357421875</LongitudeDegrees>
            </Position>
            <AltitudeMeters>3175.60009765625</AltitudeMeters>
            <DistanceMeters>19259.720756026</DistanceMeters>
          </Trackpoint>
          <Trackpoint>
            <Time>2019-07-15T14:04:07.000Z</Time>
            <Position>
              <LatitudeDegrees>37.0513159967958927154541015625</LatitudeDegrees>
              <LongitudeDegrees>-3.3680597506463527679443359375</LongitudeDegrees>
            </Position>
            <AltitudeMeters>3175.60009765625</AltitudeMeters>
            <DistanceMeters>19261.078008985</DistanceMeters>
          </Trackpoint>
          <Trackpoint>
            <Time>2019-07-15T14:04:08.000Z</Time>
            <Position>
              <LatitudeDegrees>37.051310129463672637939453125</LatitudeDegrees>
              <LongitudeDegrees>-3.36807207204401493072509765625</LongitudeDegrees>
            </Position>
            <AltitudeMeters>3175.39990234375</AltitudeMeters>
            <DistanceMeters>19262.349379774</DistanceMeters>
          </Trackpoint>
          <Trackpoint>
            <Time>2019-07-15T14:04:09.000Z</Time>
            <Position>
              <LatitudeDegrees>37.05130870454013347625732421875</LatitudeDegrees>
              <LongitudeDegrees>-3.3680855669081211090087890625</LongitudeDegrees>
            </Position>
            <AltitudeMeters>3175.199951171875</AltitudeMeters>
            <DistanceMeters>19263.558872388</DistanceMeters>
          </Trackpoint>
          <Trackpoint>
            <Time>2019-07-15T14:04:10.000Z</Time>
            <Position>
              <LatitudeDegrees>37.05130820162594318389892578125</LatitudeDegrees>
              <LongitudeDegrees>-3.36809805594384670257568359375</LongitudeDegrees>
            </Position>
            <AltitudeMeters>3174.800048828125</AltitudeMeters>
            <DistanceMeters>19264.667064789</DistanceMeters>
          </Trackpoint>
          <Trackpoint>
            <Time>2019-07-15T14:04:11.000Z</Time>
            <Position>
              <LatitudeDegrees>37.051304765045642852783203125</LatitudeDegrees>
              <LongitudeDegrees>-3.36810928769409656524658203125</LongitudeDegrees>
            </Position>
            <AltitudeMeters>3174.60009765625</AltitudeMeters>
            <DistanceMeters>19265.737961473</DistanceMeters>
          </Trackpoint>
          <Trackpoint>
            <Time>2019-07-15T14:04:12.000Z</Time>
            <Position>
              <LatitudeDegrees>37.05130317248404026031494140625</LatitudeDegrees>
              <LongitudeDegrees>-3.36812051944434642791748046875</LongitudeDegrees>
            </Position>
            <AltitudeMeters>3174.39990234375</AltitudeMeters>
            <DistanceMeters>19266.748109303</DistanceMeters>
          </Trackpoint>
          <Trackpoint>
            <Time>2019-07-15T14:04:13.000Z</Time>
            <Position>
              <LatitudeDegrees>37.05130241811275482177734375</LatitudeDegrees>
              <LongitudeDegrees>-3.3681331761181354522705078125</LongitudeDegrees>
            </Position>
            <AltitudeMeters>3174.199951171875</AltitudeMeters>
            <DistanceMeters>19267.876489017</DistanceMeters>
          </Trackpoint>
          <Trackpoint>
            <Time>2019-07-15T14:04:27.000Z</Time>
            <Position>
              <LatitudeDegrees>37.051329575479030609130859375</LatitudeDegrees>
              <LongitudeDegrees>-3.3683222718536853790283203125</LongitudeDegrees>
            </Position>
            <AltitudeMeters>3173.60009765625</AltitudeMeters>
            <DistanceMeters>19284.943244589</DistanceMeters>
          </Trackpoint>
          <Trackpoint>
            <Time>2019-07-15T14:04:28.000Z</Time>
            <Position>
              <LatitudeDegrees>37.05133250914514064788818359375</LatitudeDegrees>
              <LongitudeDegrees>-3.3683355152606964111328125</LongitudeDegrees>
            </Position>
            <AltitudeMeters>3173.60009765625</AltitudeMeters>
            <DistanceMeters>19286.167578159</DistanceMeters>
          </Trackpoint>
          <Trackpoint>
            <Time>2019-07-15T14:04:44.000Z</Time>
            <Position>
              <LatitudeDegrees>37.05134156160056591033935546875</LatitudeDegrees>
              <LongitudeDegrees>-3.36853710003197193145751953125</LongitudeDegrees>
            </Position>
            <AltitudeMeters>3175.39990234375</AltitudeMeters>
            <DistanceMeters>19304.102470214</DistanceMeters>
          </Trackpoint>
          <Trackpoint>
            <Time>2019-07-15T14:04:45.000Z</Time>
            <Position>
              <LatitudeDegrees>37.0513361133635044097900390625</LatitudeDegrees>
              <LongitudeDegrees>-3.36854808032512664794921875</LongitudeDegrees>
            </Position>
            <AltitudeMeters>3175.39990234375</AltitudeMeters>
            <DistanceMeters>19305.242790786</DistanceMeters>
          </Trackpoint>
          <Trackpoint>
            <Time>2019-07-15T14:04:46.000Z</Time>
            <Position>
              <LatitudeDegrees>37.05133183859288692474365234375</LatitudeDegrees>
              <LongitudeDegrees>-3.36856149137020111083984375</LongitudeDegrees>
            </Position>
            <AltitudeMeters>3175.39990234375</AltitudeMeters>
            <DistanceMeters>19306.524771251</DistanceMeters>
          </Trackpoint>
          <Trackpoint>
            <Time>2019-07-15T14:04:47.000Z</Time>
            <Position>
              <LatitudeDegrees>37.05132798291742801666259765625</LatitudeDegrees>
              <LongitudeDegrees>-3.36857490241527557373046875</LongitudeDegrees>
            </Position>
            <AltitudeMeters>3175.60009765625</AltitudeMeters>
            <DistanceMeters>19307.792585751</DistanceMeters>
          </Trackpoint>
          <Trackpoint>
            <Time>2019-07-15T14:04:48.000Z</Time>
            <Position>
              <LatitudeDegrees>37.05132312141358852386474609375</LatitudeDegrees>
              <LongitudeDegrees>-3.368586637079715728759765625</LongitudeDegrees>
            </Position>
            <AltitudeMeters>3175.60009765625</AltitudeMeters>
            <DistanceMeters>19308.964153769</DistanceMeters>
          </Trackpoint>
          <Trackpoint>
            <Time>2019-07-15T14:05:02.000Z</Time>
            <Position>
              <LatitudeDegrees>37.05128272064030170440673828125</LatitudeDegrees>
              <LongitudeDegrees>-3.36875863373279571533203125</LongitudeDegrees>
            </Position>
            <AltitudeMeters>3175.60009765625</AltitudeMeters>
            <DistanceMeters>19324.890132143</DistanceMeters>
          </Trackpoint>
          <Trackpoint>
            <Time>2019-07-15T14:05:03.000Z</Time>
            <Position>
              <LatitudeDegrees>37.051278613507747650146484375</LatitudeDegrees>
              <LongitudeDegrees>-3.3687702007591724395751953125</LongitudeDegrees>
            </Position>
            <AltitudeMeters>3175.60009765625</AltitudeMeters>
            <DistanceMeters>19326.01450339</DistanceMeters>
          </Trackpoint>
          <Trackpoint>
            <Time>2019-07-15T14:05:04.000Z</Time>
            <Position>
              <LatitudeDegrees>37.05127467401325702667236328125</LatitudeDegrees>
              <LongitudeDegrees>-3.3687816001474857330322265625</LongitudeDegrees>
            </Position>
            <AltitudeMeters>3175.60009765625</AltitudeMeters>
            <DistanceMeters>19327.114517137</DistanceMeters>
          </Trackpoint>
          <Trackpoint>
            <Time>2019-07-15T14:05:23.000Z</Time>
            <Position>
              <LatitudeDegrees>37.0511959679424762725830078125</LatitudeDegrees>
              <LongitudeDegrees>-3.36901704780757427215576171875</LongitudeDegrees>
            </Position>
            <AltitudeMeters>3177.60009765625</AltitudeMeters>
            <DistanceMeters>19349.789890402</DistanceMeters>
          </Trackpoint>
          <Trackpoint>
            <Time>2019-07-15T14:05:41.000Z</Time>
            <Position>
              <LatitudeDegrees>37.05115430988371372222900390625</LatitudeDegrees>
              <LongitudeDegrees>-3.369257859885692596435546875</LongitudeDegrees>
            </Position>
            <AltitudeMeters>3179</AltitudeMeters>
            <DistanceMeters>19371.677824879</DistanceMeters>
          </Trackpoint>
          <Trackpoint>
            <Time>2019-07-15T14:05:58.000Z</Time>
            <Position>
              <LatitudeDegrees>37.0510581694543361663818359375</LatitudeDegrees>
              <LongitudeDegrees>-3.3694732747972011566162109375</LongitudeDegrees>
            </Position>
            <AltitudeMeters>3178.800048828125</AltitudeMeters>
            <DistanceMeters>19393.602034537</DistanceMeters>
          </Trackpoint>
          <Trackpoint>
            <Time>2019-07-15T14:06:01.000Z</Time>
            <Position>
              <LatitudeDegrees>37.05103562213480472564697265625</LatitudeDegrees>
              <LongitudeDegrees>-3.3695111609995365142822265625</LongitudeDegrees>
            </Position>
            <AltitudeMeters>3179</AltitudeMeters>
            <DistanceMeters>19397.800452003</DistanceMeters>
          </Trackpoint>
          <Trackpoint>
            <Time>2019-07-15T14:06:02.000Z</Time>
            <Position>
              <LatitudeDegrees>37.05102824606001377105712890625</LatitudeDegrees>
              <LongitudeDegrees>-3.3695218898355960845947265625</LongitudeDegrees>
            </Position>
            <AltitudeMeters>3179</AltitudeMeters>
            <DistanceMeters>19399.057537273</DistanceMeters>
          </Trackpoint>
          <Trackpoint>
            <Time>2019-07-15T14:06:03.000Z</Time>
            <Position>
              <LatitudeDegrees>37.05102187581360340118408203125</LatitudeDegrees>
              <LongitudeDegrees>-3.36953287012875080108642578125</LongitudeDegrees>
            </Position>
            <AltitudeMeters>3179</AltitudeMeters>
            <DistanceMeters>19400.259540697</DistanceMeters>
          </Trackpoint>
          <Trackpoint>
            <Time>2019-07-15T14:06:04.000Z</Time>
            <Position>
              <LatitudeDegrees>37.05101676285266876220703125</LatitudeDegrees>
              <LongitudeDegrees>-3.36954259313642978668212890625</LongitudeDegrees>
            </Position>
            <AltitudeMeters>3178.800048828125</AltitudeMeters>
            <DistanceMeters>19401.296159767</DistanceMeters>
          </Trackpoint>
          <Trackpoint>
            <Time>2019-07-15T14:06:05.000Z</Time>
            <Position>
              <LatitudeDegrees>37.05101248808205127716064453125</LatitudeDegrees>
              <LongitudeDegrees>-3.36955483071506023406982421875</LongitudeDegrees>
            </Position>
            <AltitudeMeters>3178.800048828125</AltitudeMeters>
            <DistanceMeters>19402.483043049</DistanceMeters>
          </Trackpoint>
          <Trackpoint>
            <Time>2019-07-15T14:06:06.000Z</Time>
            <Position>
              <LatitudeDegrees>37.05100779421627521514892578125</LatitudeDegrees>
              <LongitudeDegrees>-3.3695671521127223968505859375</LongitudeDegrees>
            </Position>
            <AltitudeMeters>3178.800048828125</AltitudeMeters>
            <DistanceMeters>19403.696262922</DistanceMeters>
          </Trackpoint>
          <Trackpoint>
            <Time>2019-07-15T14:06:07.000Z</Time>
            <Position>
              <LatitudeDegrees>37.05100092105567455291748046875</LatitudeDegrees>
              <LongitudeDegrees>-3.3695775456726551055908203125</LongitudeDegrees>
            </Position>
            <AltitudeMeters>3179</AltitudeMeters>
            <DistanceMeters>19404.898266346</DistanceMeters>
          </Trackpoint>
          <Trackpoint>
            <Time>2019-07-15T14:06:08.000Z</Time>
            <Position>
              <LatitudeDegrees>37.0509906113147735595703125</LatitudeDegrees>
              <LongitudeDegrees>-3.3695886097848415374755859375</LongitudeDegrees>
            </Position>
            <AltitudeMeters>3179</AltitudeMeters>
            <DistanceMeters>19406.409758768</DistanceMeters>
          </Trackpoint>
          <Trackpoint>
            <Time>2019-07-15T14:06:09.000Z</Time>
            <Position>
              <LatitudeDegrees>37.0509827323257923126220703125</LatitudeDegrees>
              <LongitudeDegrees>-3.36959950625896453857421875</LongitudeDegrees>
            </Position>
            <AltitudeMeters>3179</AltitudeMeters>
            <DistanceMeters>19407.712699431</DistanceMeters>
          </Trackpoint>
          <Trackpoint>
            <Time>2019-07-15T14:06:10.000Z</Time>
            <Position>
              <LatitudeDegrees>37.05097896046936511993408203125</LatitudeDegrees>
              <LongitudeDegrees>-3.36961283348500728607177734375</LongitudeDegrees>
            </Position>
            <AltitudeMeters>3179</AltitudeMeters>
            <DistanceMeters>19408.969784702</DistanceMeters>
          </Trackpoint>
          <Trackpoint>
            <Time>2019-07-15T14:06:11.000Z</Time>
            <Position>
              <LatitudeDegrees>37.05097527243196964263916015625</LatitudeDegrees>
              <LongitudeDegrees>-3.36962741799652576446533203125</LongitudeDegrees>
            </Position>
            <AltitudeMeters>3179.199951171875</AltitudeMeters>
            <DistanceMeters>19410.330360194</DistanceMeters>
          </Trackpoint>
          <Trackpoint>
            <Time>2019-07-15T14:06:12.000Z</Time>
            <Position>
              <LatitudeDegrees>37.0509723387658596038818359375</LatitudeDegrees>
              <LongitudeDegrees>-3.3696395717561244964599609375</LongitudeDegrees>
            </Position>
            <AltitudeMeters>3179.199951171875</AltitudeMeters>
            <DistanceMeters>19411.454731442</DistanceMeters>
          </Trackpoint>
          <Trackpoint>
            <Time>2019-07-15T14:06:31.000Z</Time>
            <Position>
              <LatitudeDegrees>37.05086010508239269256591796875</LatitudeDegrees>
              <LongitudeDegrees>-3.36983696557581424713134765625</LongitudeDegrees>
            </Position>
            <AltitudeMeters>3181</AltitudeMeters>
            <DistanceMeters>19432.983683198</DistanceMeters>
          </Trackpoint>
          <Trackpoint>
            <Time>2019-07-15T14:06:48.000Z</Time>
            <Position>
              <LatitudeDegrees>37.0507611148059368133544921875</LatitudeDegrees>
              <LongitudeDegrees>-3.37000108323991298675537109375</LongitudeDegrees>
            </Position>
            <AltitudeMeters>3182.39990234375</AltitudeMeters>
            <DistanceMeters>19451.257495797</DistanceMeters>
          </Trackpoint>
          <Trackpoint>
            <Time>2019-07-15T14:07:02.000Z</Time>
            <Position>
              <LatitudeDegrees>37.05067075788974761962890625</LatitudeDegrees>
              <LongitudeDegrees>-3.3701057732105255126953125</LongitudeDegrees>
            </Position>
            <AltitudeMeters>3184.39990234375</AltitudeMeters>
            <DistanceMeters>19464.954534462</DistanceMeters>
          </Trackpoint>
          <Trackpoint>
            <Time>2019-07-15T14:07:22.000Z</Time>
            <Position>
              <LatitudeDegrees>37.0505183748900890350341796875</LatitudeDegrees>
              <LongitudeDegrees>-3.37025455199182033538818359375</LongitudeDegrees>
            </Position>
            <AltitudeMeters>3185.199951171875</AltitudeMeters>
            <DistanceMeters>19486.456205415</DistanceMeters>
          </Trackpoint>
          <Trackpoint>
            <Time>2019-07-15T14:07:40.000Z</Time>
            <Position>
              <LatitudeDegrees>37.050361298024654388427734375</LatitudeDegrees>
              <LongitudeDegrees>-3.37039603851735591888427734375</LongitudeDegrees>
            </Position>
            <AltitudeMeters>3186.199951171875</AltitudeMeters>
            <DistanceMeters>19507.98788335</DistanceMeters>
          </Trackpoint>
          <Trackpoint>
            <Time>2019-07-15T14:07:54.000Z</Time>
            <Position>
              <LatitudeDegrees>37.0502441190183162689208984375</LatitudeDegrees>
              <LongitudeDegrees>-3.37048958055675029754638671875</LongitudeDegrees>
            </Position>
            <AltitudeMeters>3186.39990234375</AltitudeMeters>
            <DistanceMeters>19523.451857108</DistanceMeters>
          </Trackpoint>
          <Trackpoint>
            <Time>2019-07-15T14:08:03.000Z</Time>
            <Position>
              <LatitudeDegrees>37.0501737110316753387451171875</LatitudeDegrees>
              <LongitudeDegrees>-3.3705726452171802520751953125</LongitudeDegrees>
            </Position>
            <AltitudeMeters>3187.199951171875</AltitudeMeters>
            <DistanceMeters>19534.216332986</DistanceMeters>
          </Trackpoint>
          <Trackpoint>
            <Time>2019-07-15T14:08:04.000Z</Time>
            <Position>
              <LatitudeDegrees>37.0501673407852649688720703125</LatitudeDegrees>
              <LongitudeDegrees>-3.370584882795810699462890625</LongitudeDegrees>
            </Position>
            <AltitudeMeters>3187.39990234375</AltitudeMeters>
            <DistanceMeters>19535.512324583</DistanceMeters>
          </Trackpoint>
          <Trackpoint>
            <Time>2019-07-15T14:08:05.000Z</Time>
            <Position>
              <LatitudeDegrees>37.05016071908175945281982421875</LatitudeDegrees>
              <LongitudeDegrees>-3.37059594690799713134765625</LongitudeDegrees>
            </Position>
            <AltitudeMeters>3187.199951171875</AltitudeMeters>
            <DistanceMeters>19536.744011574</DistanceMeters>
          </Trackpoint>
          <Trackpoint>
            <Time>2019-07-15T14:08:08.000Z</Time>
            <Position>
              <LatitudeDegrees>37.05014361999928951263427734375</LatitudeDegrees>
              <LongitudeDegrees>-3.3706289716064929962158203125</LongitudeDegrees>
            </Position>
            <AltitudeMeters>3187.39990234375</AltitudeMeters>
            <DistanceMeters>19540.240684779</DistanceMeters>
          </Trackpoint>
          <Trackpoint>
            <Time>2019-07-15T14:08:09.000Z</Time>
            <Position>
              <LatitudeDegrees>37.0501363277435302734375</LatitudeDegrees>
              <LongitudeDegrees>-3.3706368505954742431640625</LongitudeDegrees>
            </Position>
            <AltitudeMeters>3187.39990234375</AltitudeMeters>
            <DistanceMeters>19541.311581463</DistanceMeters>
          </Trackpoint>
          <Trackpoint>
            <Time>2019-07-15T14:08:12.000Z</Time>
            <Position>
              <LatitudeDegrees>37.05012098886072635650634765625</LatitudeDegrees>
              <LongitudeDegrees>-3.3706564642488956451416015625</LongitudeDegrees>
            </Position>
            <AltitudeMeters>3187.199951171875</AltitudeMeters>
            <DistanceMeters>19543.749160241</DistanceMeters>
          </Trackpoint>
          <Trackpoint>
            <Time>2019-07-15T14:08:14.000Z</Time>
            <Position>
              <LatitudeDegrees>37.050108499825000762939453125</LatitudeDegrees>
              <LongitudeDegrees>-3.3706712163984775543212890625</LongitudeDegrees>
            </Position>
            <AltitudeMeters>3187.199951171875</AltitudeMeters>
            <DistanceMeters>19545.656808219</DistanceMeters>
          </Trackpoint>
          <Trackpoint>
            <Time>2019-07-15T14:08:15.000Z</Time>
            <Position>
              <LatitudeDegrees>37.05010120756924152374267578125</LatitudeDegrees>
              <LongitudeDegrees>-3.37067582644522190093994140625</LongitudeDegrees>
            </Position>
            <AltitudeMeters>3187.39990234375</AltitudeMeters>
            <DistanceMeters>19546.558310787</DistanceMeters>
          </Trackpoint>
          <Trackpoint>
            <Time>2019-07-15T14:08:16.000Z</Time>
            <Position>
              <LatitudeDegrees>37.0500939153134822845458984375</LatitudeDegrees>
              <LongitudeDegrees>-3.3706822805106639862060546875</LongitudeDegrees>
            </Position>
            <AltitudeMeters>3187.39990234375</AltitudeMeters>
            <DistanceMeters>19547.550418812</DistanceMeters>
          </Trackpoint>
          <Trackpoint>
            <Time>2019-07-15T14:08:17.000Z</Time>
            <Position>
              <LatitudeDegrees>37.05008645541965961456298828125</LatitudeDegrees>
              <LongitudeDegrees>-3.37069074623286724090576171875</LongitudeDegrees>
            </Position>
            <AltitudeMeters>3187.60009765625</AltitudeMeters>
            <DistanceMeters>19548.670767251</DistanceMeters>
          </Trackpoint>
          <Trackpoint>
            <Time>2019-07-15T14:08:18.000Z</Time>
            <Position>
              <LatitudeDegrees>37.0500791631639003753662109375</LatitudeDegrees>
              <LongitudeDegrees>-3.370698206126689910888671875</LongitudeDegrees>
            </Position>
            <AltitudeMeters>3187.60009765625</AltitudeMeters>
            <DistanceMeters>19549.716061109</DistanceMeters>
          </Trackpoint>
          <Trackpoint>
            <Time>2019-07-15T14:08:19.000Z</Time>
            <Position>
              <LatitudeDegrees>37.05007187090814113616943359375</LatitudeDegrees>
              <LongitudeDegrees>-3.37070466019213199615478515625</LongitudeDegrees>
            </Position>
            <AltitudeMeters>3187.800048828125</AltitudeMeters>
            <DistanceMeters>19550.712709698</DistanceMeters>
          </Trackpoint>
          <Trackpoint>
            <Time>2019-07-15T14:08:20.000Z</Time>
            <Position>
              <LatitudeDegrees>37.0500664226710796356201171875</LatitudeDegrees>
              <LongitudeDegrees>-3.370711617171764373779296875</LongitudeDegrees>
            </Position>
            <AltitudeMeters>3187.800048828125</AltitudeMeters>
            <DistanceMeters>19551.573213195</DistanceMeters>
          </Trackpoint>
          <Trackpoint>
            <Time>2019-07-15T14:08:21.000Z</Time>
            <Position>
              <LatitudeDegrees>37.050060220062732696533203125</LatitudeDegrees>
              <LongitudeDegrees>-3.37071807123720645904541015625</LongitudeDegrees>
            </Position>
            <AltitudeMeters>3188</AltitudeMeters>
            <DistanceMeters>19552.464642792</DistanceMeters>
          </Trackpoint>
          <Trackpoint>
            <Time>2019-07-15T14:08:22.000Z</Time>
            <Position>
              <LatitudeDegrees>37.05005242489278316497802734375</LatitudeDegrees>
              <LongitudeDegrees>-3.3707248605787754058837890625</LongitudeDegrees>
            </Position>
            <AltitudeMeters>3188.199951171875</AltitudeMeters>
            <DistanceMeters>19553.5228155</DistanceMeters>
          </Trackpoint>
          <Trackpoint>
            <Time>2019-07-15T14:08:23.000Z</Time>
            <Position>
              <LatitudeDegrees>37.0500459708273410797119140625</LatitudeDegrees>
              <LongitudeDegrees>-3.37073332630097866058349609375</LongitudeDegrees>
            </Position>
            <AltitudeMeters>3188.39990234375</AltitudeMeters>
            <DistanceMeters>19554.55943457</DistanceMeters>
          </Trackpoint>
          <Trackpoint>
            <Time>2019-07-15T14:08:41.000Z</Time>
            <Position>
              <LatitudeDegrees>37.0499712042510509490966796875</LatitudeDegrees>
              <LongitudeDegrees>-3.37084212340414524078369140625</LongitudeDegrees>
            </Position>
            <AltitudeMeters>3190.60009765625</AltitudeMeters>
            <DistanceMeters>19567.312855166</DistanceMeters>
          </Trackpoint>
          <Trackpoint>
            <Time>2019-07-15T14:08:51.000Z</Time>
            <Position>
              <LatitudeDegrees>37.049961984157562255859375</LatitudeDegrees>
              <LongitudeDegrees>-3.37088822387158870697021484375</LongitudeDegrees>
            </Position>
            <AltitudeMeters>3192.199951171875</AltitudeMeters>
            <DistanceMeters>19571.534865458</DistanceMeters>
          </Trackpoint>
          <Trackpoint>
            <Time>2019-07-15T14:09:07.000Z</Time>
            <Position>
              <LatitudeDegrees>37.0499058254063129425048828125</LatitudeDegrees>
              <LongitudeDegrees>-3.370949327945709228515625</LongitudeDegrees>
            </Position>
            <AltitudeMeters>3195.39990234375</AltitudeMeters>
            <DistanceMeters>19579.813650405</DistanceMeters>
          </Trackpoint>
          <Trackpoint>
            <Time>2019-07-15T14:09:30.000Z</Time>
            <Position>
              <LatitudeDegrees>37.049811780452728271484375</LatitudeDegrees>
              <LongitudeDegrees>-3.37109592743217945098876953125</LongitudeDegrees>
            </Position>
            <AltitudeMeters>3197.60009765625</AltitudeMeters>
            <DistanceMeters>19596.521876321</DistanceMeters>
          </Trackpoint>
          <Trackpoint>
            <Time>2019-07-15T14:09:40.000Z</Time>
            <Position>
              <LatitudeDegrees>37.04973609186708927154541015625</LatitudeDegrees>
              <LongitudeDegrees>-3.37112258188426494598388671875</LongitudeDegrees>
            </Position>
            <AltitudeMeters>3198.60009765625</AltitudeMeters>
            <DistanceMeters>19605.273109281</DistanceMeters>
          </Trackpoint>
          <Trackpoint>
            <Time>2019-07-15T14:09:41.000Z</Time>
            <Position>
              <LatitudeDegrees>37.049732320010662078857421875</LatitudeDegrees>
              <LongitudeDegrees>-3.37113238871097564697265625</LongitudeDegrees>
            </Position>
            <AltitudeMeters>3198.60009765625</AltitudeMeters>
            <DistanceMeters>19606.242195423</DistanceMeters>
          </Trackpoint>
          <Trackpoint>
            <Time>2019-07-15T14:10:02.000Z</Time>
            <Position>
              <LatitudeDegrees>37.049707509577274322509765625</LatitudeDegrees>
              <LongitudeDegrees>-3.37132274173200130462646484375</LongitudeDegrees>
            </Position>
            <AltitudeMeters>3199.60009765625</AltitudeMeters>
            <DistanceMeters>19623.375488307</DistanceMeters>
          </Trackpoint>
          <Trackpoint>
            <Time>2019-07-15T14:10:03.000Z</Time>
            <Position>
              <LatitudeDegrees>37.0497254468500614166259765625</LatitudeDegrees>
              <LongitudeDegrees>-3.37133078835904598236083984375</LongitudeDegrees>
            </Position>
            <AltitudeMeters>3199.800048828125</AltitudeMeters>
            <DistanceMeters>19625.498224312</DistanceMeters>
          </Trackpoint>
          <Trackpoint>
            <Time>2019-07-15T14:10:04.000Z</Time>
            <Position>
              <LatitudeDegrees>37.0497334934771060943603515625</LatitudeDegrees>
              <LongitudeDegrees>-3.37134051136672496795654296875</LongitudeDegrees>
            </Position>
            <AltitudeMeters>3199.800048828125</AltitudeMeters>
            <DistanceMeters>19626.744487987</DistanceMeters>
          </Trackpoint>
          <Trackpoint>
            <Time>2019-07-15T14:10:29.000Z</Time>
            <Position>
              <LatitudeDegrees>37.04968948848545551300048828125</LatitudeDegrees>
              <LongitudeDegrees>-3.3713773079216480255126953125</LongitudeDegrees>
            </Position>
            <AltitudeMeters>3199.60009765625</AltitudeMeters>
            <DistanceMeters>19632.631544415</DistanceMeters>
          </Trackpoint>
          <Trackpoint>
            <Time>2019-07-15T14:10:33.000Z</Time>
            <Position>
              <LatitudeDegrees>37.04967297613620758056640625</LatitudeDegrees>
              <LongitudeDegrees>-3.37135727517306804656982421875</LongitudeDegrees>
            </Position>
            <AltitudeMeters>3200</AltitudeMeters>
            <DistanceMeters>19635.188451795</DistanceMeters>
          </Trackpoint>
          <Trackpoint>
            <Time>2019-07-15T14:10:39.000Z</Time>
            <Position>
              <LatitudeDegrees>37.04968898557126522064208984375</LatitudeDegrees>
              <LongitudeDegrees>-3.37135660462081432342529296875</LongitudeDegrees>
            </Position>
            <AltitudeMeters>3199.800048828125</AltitudeMeters>
            <DistanceMeters>19636.971310989</DistanceMeters>
          </Trackpoint>
          <Trackpoint>
            <Time>2019-07-15T14:10:40.000Z</Time>
            <Position>
              <LatitudeDegrees>37.04969719983637332916259765625</LatitudeDegrees>
              <LongitudeDegrees>-3.37135727517306804656982421875</LongitudeDegrees>
            </Position>
            <AltitudeMeters>3199.39990234375</AltitudeMeters>
            <DistanceMeters>19637.892629168</DistanceMeters>
          </Trackpoint>
          <Trackpoint>
            <Time>2019-07-15T14:11:06.000Z</Time>
            <Position>
              <LatitudeDegrees>37.0497425459325313568115234375</LatitudeDegrees>
              <LongitudeDegrees>-3.37128619663417339324951171875</LongitudeDegrees>
            </Position>
            <AltitudeMeters>3199.39990234375</AltitudeMeters>
            <DistanceMeters>19645.976046338</DistanceMeters>
          </Trackpoint>
          <Trackpoint>
            <Time>2019-07-15T14:11:07.000Z</Time>
            <Position>
              <LatitudeDegrees>37.049731314182281494140625</LatitudeDegrees>
              <LongitudeDegrees>-3.3712411858141422271728515625</LongitudeDegrees>
            </Position>
            <AltitudeMeters>3199.60009765625</AltitudeMeters>
            <DistanceMeters>19650.164773893</DistanceMeters>
          </Trackpoint>
          <Trackpoint>
            <Time>2019-07-15T14:11:08.000Z</Time>
            <Position>
              <LatitudeDegrees>37.04972117207944393157958984375</LatitudeDegrees>
              <LongitudeDegrees>-3.3712049759924411773681640625</LongitudeDegrees>
            </Position>
            <AltitudeMeters>3199.60009765625</AltitudeMeters>
            <DistanceMeters>19653.572511897</DistanceMeters>
          </Trackpoint>
          <Trackpoint>
            <Time>2019-07-15T14:11:10.000Z</Time>
            <Position>
              <LatitudeDegrees>37.049710862338542938232421875</LatitudeDegrees>
              <LongitudeDegrees>-3.37116784416139125823974609375</LongitudeDegrees>
            </Position>
            <AltitudeMeters>3199.60009765625</AltitudeMeters>
            <DistanceMeters>19657.064016329</DistanceMeters>
          </Trackpoint>
          <Trackpoint>
            <Time>2019-07-15T14:11:11.000Z</Time>
            <Position>
              <LatitudeDegrees>37.0497174002230167388916015625</LatitudeDegrees>
              <LongitudeDegrees>-3.371160887181758880615234375</LongitudeDegrees>
            </Position>
            <AltitudeMeters>3199.60009765625</AltitudeMeters>
            <DistanceMeters>19658.014283473</DistanceMeters>
          </Trackpoint>
          <Trackpoint>
            <Time>2019-07-15T14:12:31.000Z</Time>
            <Position>
              <LatitudeDegrees>37.04970876686275005340576171875</LatitudeDegrees>
              <LongitudeDegrees>-3.3712267689406871795654296875</LongitudeDegrees>
            </Position>
            <AltitudeMeters>3198</AltitudeMeters>
            <DistanceMeters>19663.94489455</DistanceMeters>
          </Trackpoint>
          <Trackpoint>
            <Time>2019-07-15T14:12:34.000Z</Time>
            <Position>
              <LatitudeDegrees>37.04972636885941028594970703125</LatitudeDegrees>
              <LongitudeDegrees>-3.371211178600788116455078125</LongitudeDegrees>
            </Position>
            <AltitudeMeters>3197.800048828125</AltitudeMeters>
            <DistanceMeters>19666.341377102</DistanceMeters>
          </Trackpoint>
          <Trackpoint>
            <Time>2019-07-15T14:12:41.000Z</Time>
            <Position>
              <LatitudeDegrees>37.04963617958128452301025390625</LatitudeDegrees>
              <LongitudeDegrees>-3.37123137898743152618408203125</LongitudeDegrees>
            </Position>
            <AltitudeMeters>3197.60009765625</AltitudeMeters>
            <DistanceMeters>19676.538943494</DistanceMeters>
          </Trackpoint>
          <Trackpoint>
            <Time>2019-07-15T14:12:58.000Z</Time>
            <Position>
              <LatitudeDegrees>37.04966090619564056396484375</LatitudeDegrees>
              <LongitudeDegrees>-3.37110514752566814422607421875</LongitudeDegrees>
            </Position>
            <AltitudeMeters>3198.800048828125</AltitudeMeters>
            <DistanceMeters>19688.085373619</DistanceMeters>
          </Trackpoint>
          <Trackpoint>
            <Time>2019-07-15T14:13:02.000Z</Time>
            <Position>
              <LatitudeDegrees>37.04965344630181789398193359375</LatitudeDegrees>
              <LongitudeDegrees>-3.371128700673580169677734375</LongitudeDegrees>
            </Position>
            <AltitudeMeters>3198.800048828125</AltitudeMeters>
            <DistanceMeters>19690.338128146</DistanceMeters>
          </Trackpoint>
          <Trackpoint>
            <Time>2019-07-15T14:13:03.000Z</Time>
            <Position>
              <LatitudeDegrees>37.04964120872318744659423828125</LatitudeDegrees>
              <LongitudeDegrees>-3.37112702429294586181640625</LongitudeDegrees>
            </Position>
            <AltitudeMeters>3198.800048828125</AltitudeMeters>
            <DistanceMeters>19691.708622911</DistanceMeters>
          </Trackpoint>
          <Trackpoint>
            <Time>2019-07-15T14:13:05.000Z</Time>
            <Position>
              <LatitudeDegrees>37.04961271025240421295166015625</LatitudeDegrees>
              <LongitudeDegrees>-3.37112677283585071563720703125</LongitudeDegrees>
            </Position>
            <AltitudeMeters>3198.800048828125</AltitudeMeters>
            <DistanceMeters>19694.880295208</DistanceMeters>
          </Trackpoint>
          <Trackpoint>
            <Time>2019-07-15T14:13:15.000Z</Time>
            <Position>
              <LatitudeDegrees>37.04956275410950183868408203125</LatitudeDegrees>
              <LongitudeDegrees>-3.3711211569607257843017578125</LongitudeDegrees>
            </Position>
            <AltitudeMeters>3198.60009765625</AltitudeMeters>
            <DistanceMeters>19700.462659743</DistanceMeters>
          </Trackpoint>
          <Trackpoint>
            <Time>2019-07-15T14:13:19.000Z</Time>
            <Position>
              <LatitudeDegrees>37.049560658633708953857421875</LatitudeDegrees>
              <LongitudeDegrees>-3.37110866792500019073486328125</LongitudeDegrees>
            </Position>
            <AltitudeMeters>3198.60009765625</AltitudeMeters>
            <DistanceMeters>19701.599013971</DistanceMeters>
          </Trackpoint>
          <Trackpoint>
            <Time>2019-07-15T14:13:20.000Z</Time>
            <Position>
              <LatitudeDegrees>37.0495682023465633392333984375</LatitudeDegrees>
              <LongitudeDegrees>-3.3710981905460357666015625</LongitudeDegrees>
            </Position>
            <AltitudeMeters>3198.60009765625</AltitudeMeters>
            <DistanceMeters>19702.852502424</DistanceMeters>
          </Trackpoint>
          <Trackpoint>
            <Time>2019-07-15T14:13:22.000Z</Time>
            <Position>
              <LatitudeDegrees>37.04957046546041965484619140625</LatitudeDegrees>
              <LongitudeDegrees>-3.37108570151031017303466796875</LongitudeDegrees>
            </Position>
            <AltitudeMeters>3198.800048828125</AltitudeMeters>
            <DistanceMeters>19703.988856652</DistanceMeters>
          </Trackpoint>
          <Trackpoint>
            <Time>2019-07-15T14:13:23.000Z</Time>
            <Position>
              <LatitudeDegrees>37.04957499168813228607177734375</LatitudeDegrees>
              <LongitudeDegrees>-3.371076397597789764404296875</LongitudeDegrees>
            </Position>
            <AltitudeMeters>3198.800048828125</AltitudeMeters>
            <DistanceMeters>19704.957942794</DistanceMeters>
          </Trackpoint>
          <Trackpoint>
            <Time>2019-07-15T14:13:39.000Z</Time>
            <Position>
              <LatitudeDegrees>37.04968035221099853515625</LatitudeDegrees>
              <LongitudeDegrees>-3.3710346557199954986572265625</LongitudeDegrees>
            </Position>
            <AltitudeMeters>3198.60009765625</AltitudeMeters>
            <DistanceMeters>19717.25683748</DistanceMeters>
          </Trackpoint>
          <Trackpoint>
            <Time>2019-07-15T14:13:45.000Z</Time>
            <Position>
              <LatitudeDegrees>37.049736678600311279296875</LatitudeDegrees>
              <LongitudeDegrees>-3.3711620606482028961181640625</LongitudeDegrees>
            </Position>
            <AltitudeMeters>3198.60009765625</AltitudeMeters>
            <DistanceMeters>19730.194786585</DistanceMeters>
          </Trackpoint>
          <Trackpoint>
            <Time>2019-07-15T14:14:04.000Z</Time>
            <Position>
              <LatitudeDegrees>37.04979325644671916961669921875</LatitudeDegrees>
              <LongitudeDegrees>-3.37112140841782093048095703125</LongitudeDegrees>
            </Position>
            <AltitudeMeters>3198.39990234375</AltitudeMeters>
            <DistanceMeters>19737.454230512</DistanceMeters>
          </Trackpoint>
          <Trackpoint>
            <Time>2019-07-15T14:14:19.000Z</Time>
            <Position>
              <LatitudeDegrees>37.04985268414020538330078125</LatitudeDegrees>
              <LongitudeDegrees>-3.37116784416139125823974609375</LongitudeDegrees>
            </Position>
            <AltitudeMeters>3197.800048828125</AltitudeMeters>
            <DistanceMeters>19745.249896902</DistanceMeters>
          </Trackpoint>
          <Trackpoint>
            <Time>2019-07-15T14:14:22.000Z</Time>
            <Position>
              <LatitudeDegrees>37.04985804855823516845703125</LatitudeDegrees>
              <LongitudeDegrees>-3.3711878769099712371826171875</LongitudeDegrees>
            </Position>
            <AltitudeMeters>3198</AltitudeMeters>
            <DistanceMeters>19747.128928539</DistanceMeters>
          </Trackpoint>
          <Trackpoint>
            <Time>2019-07-15T14:14:25.000Z</Time>
            <Position>
              <LatitudeDegrees>37.04987280070781707763671875</LatitudeDegrees>
              <LongitudeDegrees>-3.371217213571071624755859375</LongitudeDegrees>
            </Position>
            <AltitudeMeters>3197.800048828125</AltitudeMeters>
            <DistanceMeters>19750.20961196</DistanceMeters>
          </Trackpoint>
          <Trackpoint>
            <Time>2019-07-15T14:14:51.000Z</Time>
            <Position>
              <LatitudeDegrees>37.04970440827310085296630859375</LatitudeDegrees>
              <LongitudeDegrees>-3.371041528880596160888671875</LongitudeDegrees>
            </Position>
            <AltitudeMeters>3197.60009765625</AltitudeMeters>
            <DistanceMeters>19774.599102641</DistanceMeters>
          </Trackpoint>
          <Trackpoint>
            <Time>2019-07-15T14:15:00.000Z</Time>
            <Position>
              <LatitudeDegrees>37.04973123036324977874755859375</LatitudeDegrees>
              <LongitudeDegrees>-3.3710101805627346038818359375</LongitudeDegrees>
            </Position>
            <AltitudeMeters>3197.60009765625</AltitudeMeters>
            <DistanceMeters>19778.681935128</DistanceMeters>
          </Trackpoint>
          <Trackpoint>
            <Time>2019-07-15T14:15:02.000Z</Time>
            <Position>
              <LatitudeDegrees>37.04974078573286533355712890625</LatitudeDegrees>
              <LongitudeDegrees>-3.37102702818810939788818359375</LongitudeDegrees>
            </Position>
            <AltitudeMeters>3197.800048828125</AltitudeMeters>
            <DistanceMeters>19780.519664322</DistanceMeters>
          </Trackpoint>
          <Trackpoint>
            <Time>2019-07-15T14:15:15.000Z</Time>
            <Position>
              <LatitudeDegrees>37.04973525367677211761474609375</LatitudeDegrees>
              <LongitudeDegrees>-3.3711734600365161895751953125</LongitudeDegrees>
            </Position>
            <AltitudeMeters>3198.199951171875</AltitudeMeters>
            <DistanceMeters>19793.542138572</DistanceMeters>
          </Trackpoint>
          <Trackpoint>
            <Time>2019-07-15T14:15:31.000Z</Time>
            <Position>
              <LatitudeDegrees>37.04974246211349964141845703125</LatitudeDegrees>
              <LongitudeDegrees>-3.37125954218208789825439453125</LongitudeDegrees>
            </Position>
            <AltitudeMeters>3197.60009765625</AltitudeMeters>
            <DistanceMeters>19801.231673055</DistanceMeters>
          </Trackpoint>
          <Trackpoint>
            <Time>2019-07-15T14:15:32.000Z</Time>
            <Position>
              <LatitudeDegrees>37.04973475076258182525634765625</LatitudeDegrees>
              <LongitudeDegrees>-3.37125384248793125152587890625</LongitudeDegrees>
            </Position>
            <AltitudeMeters>3197.60009765625</AltitudeMeters>
            <DistanceMeters>19802.228321643</DistanceMeters>
          </Trackpoint>
          <Trackpoint>
            <Time>2019-07-15T14:16:04.000Z</Time>
            <Position>
              <LatitudeDegrees>37.0493244566023349761962890625</LatitudeDegrees>
              <LongitudeDegrees>-3.3711848594248294830322265625</LongitudeDegrees>
            </Position>
            <AltitudeMeters>3199</AltitudeMeters>
            <DistanceMeters>19848.304128767</DistanceMeters>
          </Trackpoint>
          <Trackpoint>
            <Time>2019-07-15T14:16:13.000Z</Time>
            <Position>
              <LatitudeDegrees>37.049392350018024444580078125</LatitudeDegrees>
              <LongitudeDegrees>-3.3713342249393463134765625</LongitudeDegrees>
            </Position>
            <AltitudeMeters>3198.60009765625</AltitudeMeters>
            <DistanceMeters>19863.573594172</DistanceMeters>
          </Trackpoint>
          <Trackpoint>
            <Time>2019-07-15T14:16:15.000Z</Time>
            <Position>
              <LatitudeDegrees>37.0494065992534160614013671875</LatitudeDegrees>
              <LongitudeDegrees>-3.3713424392044544219970703125</LongitudeDegrees>
            </Position>
            <AltitudeMeters>3198.39990234375</AltitudeMeters>
            <DistanceMeters>19865.32063906</DistanceMeters>
          </Trackpoint>
          <Trackpoint>
            <Time>2019-07-15T14:16:17.000Z</Time>
            <Position>
              <LatitudeDegrees>37.0494226925075054168701171875</LatitudeDegrees>
              <LongitudeDegrees>-3.37134855799376964569091796875</LongitudeDegrees>
            </Position>
            <AltitudeMeters>3198.39990234375</AltitudeMeters>
            <DistanceMeters>19867.192448254</DistanceMeters>
          </Trackpoint>
          <Trackpoint>
            <Time>2019-07-15T14:16:32.000Z</Time>
            <Position>
              <LatitudeDegrees>37.0497646741569042205810546875</LatitudeDegrees>
              <LongitudeDegrees>-3.3712188899517059326171875</LongitudeDegrees>
            </Position>
            <AltitudeMeters>3198.800048828125</AltitudeMeters>
            <DistanceMeters>19906.960418633</DistanceMeters>
          </Trackpoint>
          <Trackpoint>
            <Time>2019-07-15T14:16:49.000Z</Time>
            <Position>
              <LatitudeDegrees>37.0500303804874420166015625</LatitudeDegrees>
              <LongitudeDegrees>-3.37119030766189098358154296875</LongitudeDegrees>
            </Position>
            <AltitudeMeters>3197.39990234375</AltitudeMeters>
            <DistanceMeters>19936.642846069</DistanceMeters>
          </Trackpoint>
          <Trackpoint>
            <Time>2019-07-15T14:17:09.000Z</Time>
            <Position>
              <LatitudeDegrees>37.04995972104370594024658203125</LatitudeDegrees>
              <LongitudeDegrees>-3.37115309201180934906005859375</LongitudeDegrees>
            </Position>
            <AltitudeMeters>3197.39990234375</AltitudeMeters>
            <DistanceMeters>19945.173577929</DistanceMeters>
          </Trackpoint>
          <Trackpoint>
            <Time>2019-07-15T14:17:10.000Z</Time>
            <Position>
              <LatitudeDegrees>37.0499524287879467010498046875</LatitudeDegrees>
              <LongitudeDegrees>-3.37114236317574977874755859375</LongitudeDegrees>
            </Position>
            <AltitudeMeters>3197.60009765625</AltitudeMeters>
            <DistanceMeters>19946.427066382</DistanceMeters>
          </Trackpoint>
          <Trackpoint>
            <Time>2019-07-15T14:17:19.000Z</Time>
            <Position>
              <LatitudeDegrees>37.0496775023639202117919921875</LatitudeDegrees>
              <LongitudeDegrees>-3.37143405340611934661865234375</LongitudeDegrees>
            </Position>
            <AltitudeMeters>3198</AltitudeMeters>
            <DistanceMeters>19986.523835957</DistanceMeters>
          </Trackpoint>
          <Trackpoint>
            <Time>2019-07-15T14:17:41.000Z</Time>
            <Position>
              <LatitudeDegrees>37.0495755784213542938232421875</LatitudeDegrees>
              <LongitudeDegrees>-3.3715327084064483642578125</LongitudeDegrees>
            </Position>
            <AltitudeMeters>3199.199951171875</AltitudeMeters>
            <DistanceMeters>20000.859333148</DistanceMeters>
          </Trackpoint>
          <Trackpoint>
            <Time>2019-07-15T14:17:45.000Z</Time>
            <Position>
              <LatitudeDegrees>37.04960592091083526611328125</LatitudeDegrees>
              <LongitudeDegrees>-3.37153069674968719482421875</LongitudeDegrees>
            </Position>
            <AltitudeMeters>3198.800048828125</AltitudeMeters>
            <DistanceMeters>20004.243138245</DistanceMeters>
          </Trackpoint>
          <Trackpoint>
            <Time>2019-07-15T14:18:03.000Z</Time>
            <Position>
              <LatitudeDegrees>37.04964322037994861602783203125</LatitudeDegrees>
              <LongitudeDegrees>-3.37115443311631679534912109375</LongitudeDegrees>
            </Position>
            <AltitudeMeters>3199.39990234375</AltitudeMeters>
            <DistanceMeters>20037.924177174</DistanceMeters>
          </Trackpoint>
          <Trackpoint>
            <Time>2019-07-15T14:18:04.000Z</Time>
            <Position>
              <LatitudeDegrees>37.04963810741901397705078125</LatitudeDegrees>
              <LongitudeDegrees>-3.37113398127257823944091796875</LongitudeDegrees>
            </Position>
            <AltitudeMeters>3199.199951171875</AltitudeMeters>
            <DistanceMeters>20039.829456873</DistanceMeters>
          </Trackpoint>
          <Trackpoint>
            <Time>2019-07-15T14:18:27.000Z</Time>
            <Position>
              <LatitudeDegrees>37.049682028591632843017578125</LatitudeDegrees>
              <LongitudeDegrees>-3.37103448808193206787109375</LongitudeDegrees>
            </Position>
            <AltitudeMeters>3197.800048828125</AltitudeMeters>
            <DistanceMeters>20049.929147141</DistanceMeters>
          </Trackpoint>
          <Trackpoint>
            <Time>2019-07-15T14:18:36.000Z</Time>
            <Position>
              <LatitudeDegrees>37.04970893450081348419189453125</LatitudeDegrees>
              <LongitudeDegrees>-3.37103406898677349090576171875</LongitudeDegrees>
            </Position>
            <AltitudeMeters>3197.800048828125</AltitudeMeters>
            <DistanceMeters>20052.92211153</DistanceMeters>
          </Trackpoint>
          <Trackpoint>
            <Time>2019-07-15T14:18:37.000Z</Time>
            <Position>
              <LatitudeDegrees>37.04971245490014553070068359375</LatitudeDegrees>
              <LongitudeDegrees>-3.37102451361715793609619140625</LongitudeDegrees>
            </Position>
            <AltitudeMeters>3198</AltitudeMeters>
            <DistanceMeters>20053.853179378</DistanceMeters>
          </Trackpoint>
          <Trackpoint>
            <Time>2019-07-15T14:18:39.000Z</Time>
            <Position>
              <LatitudeDegrees>37.04973793588578701019287109375</LatitudeDegrees>
              <LongitudeDegrees>-3.3710494078695774078369140625</LongitudeDegrees>
            </Position>
            <AltitudeMeters>3198</AltitudeMeters>
            <DistanceMeters>20057.449159004</DistanceMeters>
          </Trackpoint>
          <Trackpoint>
            <Time>2019-07-15T14:18:40.000Z</Time>
            <Position>
              <LatitudeDegrees>37.04975117929279804229736328125</LatitudeDegrees>
              <LongitudeDegrees>-3.37105602957308292388916015625</LongitudeDegrees>
            </Position>
            <AltitudeMeters>3197.800048828125</AltitudeMeters>
            <DistanceMeters>20059.033570961</DistanceMeters>
          </Trackpoint>
          <Trackpoint>
            <Time>2019-07-15T14:19:13.000Z</Time>
            <Position>
              <LatitudeDegrees>37.04990272410213947296142578125</LatitudeDegrees>
              <LongitudeDegrees>-3.3712985180318355560302734375</LongitudeDegrees>
            </Position>
            <AltitudeMeters>3197.39990234375</AltitudeMeters>
            <DistanceMeters>20086.392189464</DistanceMeters>
          </Trackpoint>
          <Trackpoint>
            <Time>2019-07-15T14:19:23.000Z</Time>
            <Position>
              <LatitudeDegrees>37.04972670413553714752197265625</LatitudeDegrees>
              <LongitudeDegrees>-3.3714279346168041229248046875</LongitudeDegrees>
            </Position>
            <AltitudeMeters>3197</AltitudeMeters>
            <DistanceMeters>20109.107549863</DistanceMeters>
          </Trackpoint>
          <Trackpoint>
            <Time>2019-07-15T14:19:24.000Z</Time>
            <Position>
              <LatitudeDegrees>37.0497170649468898773193359375</LatitudeDegrees>
              <LongitudeDegrees>-3.3714400045573711395263671875</LongitudeDegrees>
            </Position>
            <AltitudeMeters>3197</AltitudeMeters>
            <DistanceMeters>20110.627977293</DistanceMeters>
          </Trackpoint>
          <Trackpoint>
            <Time>2019-07-15T14:19:34.000Z</Time>
            <Position>
              <LatitudeDegrees>37.049665264785289764404296875</LatitudeDegrees>
              <LongitudeDegrees>-3.37152441032230854034423828125</LongitudeDegrees>
            </Position>
            <AltitudeMeters>3196.60009765625</AltitudeMeters>
            <DistanceMeters>20120.086835438</DistanceMeters>
          </Trackpoint>
          <Trackpoint>
            <Time>2019-07-15T14:19:35.000Z</Time>
            <Position>
              <LatitudeDegrees>37.04965545795857906341552734375</LatitudeDegrees>
              <LongitudeDegrees>-3.3715218119323253631591796875</LongitudeDegrees>
            </Position>
            <AltitudeMeters>3196.60009765625</AltitudeMeters>
            <DistanceMeters>20121.203146573</DistanceMeters>
          </Trackpoint>
          <Trackpoint>
            <Time>2019-07-15T14:19:52.000Z</Time>
            <Position>
              <LatitudeDegrees>37.04959527589380741119384765625</LatitudeDegrees>
              <LongitudeDegrees>-3.3715174533426761627197265625</LongitudeDegrees>
            </Position>
            <AltitudeMeters>3197.199951171875</AltitudeMeters>
            <DistanceMeters>20127.913136226</DistanceMeters>
          </Trackpoint>
          <Trackpoint>
            <Time>2019-07-15T14:20:12.000Z</Time>
            <Position>
              <LatitudeDegrees>37.04929972998797893524169921875</LatitudeDegrees>
              <LongitudeDegrees>-3.37150764651596546173095703125</LongitudeDegrees>
            </Position>
            <AltitudeMeters>3198</AltitudeMeters>
            <DistanceMeters>20160.819283472</DistanceMeters>
          </Trackpoint>
          <Trackpoint>
            <Time>2019-07-15T14:20:33.000Z</Time>
            <Position>
              <LatitudeDegrees>37.04920384101569652557373046875</LatitudeDegrees>
              <LongitudeDegrees>-3.37152591906487941741943359375</LongitudeDegrees>
            </Position>
            <AltitudeMeters>3198</AltitudeMeters>
            <DistanceMeters>20171.614753197</DistanceMeters>
          </Trackpoint>
          <Trackpoint>
            <Time>2019-07-15T14:20:50.000Z</Time>
            <Position>
              <LatitudeDegrees>37.049725614488124847412109375</LatitudeDegrees>
              <LongitudeDegrees>-3.37126306258141994476318359375</LongitudeDegrees>
            </Position>
            <AltitudeMeters>3198.60009765625</AltitudeMeters>
            <DistanceMeters>20234.207573925</DistanceMeters>
          </Trackpoint>
          <Trackpoint>
            <Time>2019-07-15T14:21:14.000Z</Time>
            <Position>
              <LatitudeDegrees>37.04991211183369159698486328125</LatitudeDegrees>
              <LongitudeDegrees>-3.37134218774735927581787109375</LongitudeDegrees>
            </Position>
            <AltitudeMeters>3198.199951171875</AltitudeMeters>
            <DistanceMeters>20256.122720416</DistanceMeters>
          </Trackpoint>
          <Trackpoint>
            <Time>2019-07-15T14:21:26.000Z</Time>
            <Position>
              <LatitudeDegrees>37.04973709769546985626220703125</LatitudeDegrees>
              <LongitudeDegrees>-3.37124210782349109649658203125</LongitudeDegrees>
            </Position>
            <AltitudeMeters>3198.60009765625</AltitudeMeters>
            <DistanceMeters>20277.535172433</DistanceMeters>
          </Trackpoint>
          <Trackpoint>
            <Time>2019-07-15T14:21:27.000Z</Time>
            <Position>
              <LatitudeDegrees>37.04972569830715656280517578125</LatitudeDegrees>
              <LongitudeDegrees>-3.37124101817607879638671875</LongitudeDegrees>
            </Position>
            <AltitudeMeters>3198.60009765625</AltitudeMeters>
            <DistanceMeters>20278.806543222</DistanceMeters>
          </Trackpoint>
          <Trackpoint>
            <Time>2019-07-15T14:21:30.000Z</Time>
            <Position>
              <LatitudeDegrees>37.0497066713869571685791015625</LatitudeDegrees>
              <LongitudeDegrees>-3.37122249417006969451904296875</LongitudeDegrees>
            </Position>
            <AltitudeMeters>3198.39990234375</AltitudeMeters>
            <DistanceMeters>20281.487576763</DistanceMeters>
          </Trackpoint>
          <Trackpoint>
            <Time>2019-07-15T14:21:31.000Z</Time>
            <Position>
              <LatitudeDegrees>37.0496979542076587677001953125</LatitudeDegrees>
              <LongitudeDegrees>-3.3712153695523738861083984375</LongitudeDegrees>
            </Position>
            <AltitudeMeters>3198.199951171875</AltitudeMeters>
            <DistanceMeters>20282.643626638</DistanceMeters>
          </Trackpoint>
          <Trackpoint>
            <Time>2019-07-15T14:21:34.000Z</Time>
            <Position>
              <LatitudeDegrees>37.04966568388044834136962890625</LatitudeDegrees>
              <LongitudeDegrees>-3.3712059818208217620849609375</LongitudeDegrees>
            </Position>
            <AltitudeMeters>3198.199951171875</AltitudeMeters>
            <DistanceMeters>20286.330124305</DistanceMeters>
          </Trackpoint>
          <Trackpoint>
            <Time>2019-07-15T14:21:35.000Z</Time>
            <Position>
              <LatitudeDegrees>37.0496563799679279327392578125</LatitudeDegrees>
              <LongitudeDegrees>-3.3712162077426910400390625</LongitudeDegrees>
            </Position>
            <AltitudeMeters>3198.60009765625</AltitudeMeters>
            <DistanceMeters>20287.707192224</DistanceMeters>
          </Trackpoint>
          <Trackpoint>
            <Time>2019-07-15T14:22:02.000Z</Time>
            <Position>
              <LatitudeDegrees>37.0495665259659290313720703125</LatitudeDegrees>
              <LongitudeDegrees>-3.371292985975742340087890625</LongitudeDegrees>
            </Position>
            <AltitudeMeters>3197.39990234375</AltitudeMeters>
            <DistanceMeters>20299.81182028</DistanceMeters>
          </Trackpoint>
          <Trackpoint>
            <Time>2019-07-15T14:22:07.000Z</Time>
            <Position>
              <LatitudeDegrees>37.0495609939098358154296875</LatitudeDegrees>
              <LongitudeDegrees>-3.37129156105220317840576171875</LongitudeDegrees>
            </Position>
            <AltitudeMeters>3198</AltitudeMeters>
            <DistanceMeters>20300.434952118</DistanceMeters>
          </Trackpoint>
          <Trackpoint>
            <Time>2019-07-15T14:22:08.000Z</Time>
            <Position>
              <LatitudeDegrees>37.049556635320186614990234375</LatitudeDegrees>
              <LongitudeDegrees>-3.37130111642181873321533203125</LongitudeDegrees>
            </Position>
            <AltitudeMeters>3198</AltitudeMeters>
            <DistanceMeters>20301.413312023</DistanceMeters>
          </Trackpoint>
          <Trackpoint>
            <Time>2019-07-15T14:22:15.000Z</Time>
            <Position>
              <LatitudeDegrees>37.0495527796447277069091796875</LatitudeDegrees>
              <LongitudeDegrees>-3.3713132701814174652099609375</LongitudeDegrees>
            </Position>
            <AltitudeMeters>3198.39990234375</AltitudeMeters>
            <DistanceMeters>20302.569361898</DistanceMeters>
          </Trackpoint>
          <Trackpoint>
            <Time>2019-07-15T14:22:16.000Z</Time>
            <Position>
              <LatitudeDegrees>37.04956241883337497711181640625</LatitudeDegrees>
              <LongitudeDegrees>-3.37130405008792877197265625</LongitudeDegrees>
            </Position>
            <AltitudeMeters>3198.39990234375</AltitudeMeters>
            <DistanceMeters>20303.919945269</DistanceMeters>
          </Trackpoint>
          <Trackpoint>
            <Time>2019-07-15T14:22:19.000Z</Time>
            <Position>
              <LatitudeDegrees>37.0495785959064960479736328125</LatitudeDegrees>
              <LongitudeDegrees>-3.3712861128151416778564453125</LongitudeDegrees>
            </Position>
            <AltitudeMeters>3198.39990234375</AltitudeMeters>
            <DistanceMeters>20306.323952116</DistanceMeters>
          </Trackpoint>
          <Trackpoint>
            <Time>2019-07-15T14:22:51.000Z</Time>
            <Position>
              <LatitudeDegrees>37.04982460476458072662353515625</LatitudeDegrees>
              <LongitudeDegrees>-3.3711893856525421142578125</LongitudeDegrees>
            </Position>
            <AltitudeMeters>3199.199951171875</AltitudeMeters>
            <DistanceMeters>20335.021705196</DistanceMeters>
          </Trackpoint>
          <Trackpoint>
            <Time>2019-07-15T14:22:52.000Z</Time>
            <Position>
              <LatitudeDegrees>37.04983516596257686614990234375</LatitudeDegrees>
              <LongitudeDegrees>-3.37118309922516345977783203125</LongitudeDegrees>
            </Position>
            <AltitudeMeters>3199.199951171875</AltitudeMeters>
            <DistanceMeters>20336.324645859</DistanceMeters>
          </Trackpoint>
          <Trackpoint>
            <Time>2019-07-15T14:23:18.000Z</Time>
            <Position>
              <LatitudeDegrees>37.04971480183303356170654296875</LatitudeDegrees>
              <LongitudeDegrees>-3.3710222505033016204833984375</LongitudeDegrees>
            </Position>
            <AltitudeMeters>3198</AltitudeMeters>
            <DistanceMeters>20355.911216964</DistanceMeters>
          </Trackpoint>
          <Trackpoint>
            <Time>2019-07-15T14:23:19.000Z</Time>
            <Position>
              <LatitudeDegrees>37.04970004968345165252685546875</LatitudeDegrees>
              <LongitudeDegrees>-3.37101931683719158172607421875</LongitudeDegrees>
            </Position>
            <AltitudeMeters>3197.800048828125</AltitudeMeters>
            <DistanceMeters>20357.573505565</DistanceMeters>
          </Trackpoint>
          <Trackpoint>
            <Time>2019-07-15T14:23:22.000Z</Time>
            <Position>
              <LatitudeDegrees>37.04966903664171695709228515625</LatitudeDegrees>
              <LongitudeDegrees>-3.37104580365121364593505859375</LongitudeDegrees>
            </Position>
            <AltitudeMeters>3197.800048828125</AltitudeMeters>
            <DistanceMeters>20361.751440194</DistanceMeters>
          </Trackpoint>
          <Trackpoint>
            <Time>2019-07-15T14:23:24.000Z</Time>
            <Position>
              <LatitudeDegrees>37.04967641271650791168212890625</LatitudeDegrees>
              <LongitudeDegrees>-3.37106307037174701690673828125</LongitudeDegrees>
            </Position>
            <AltitudeMeters>3197.800048828125</AltitudeMeters>
            <DistanceMeters>20363.493308641</DistanceMeters>
          </Trackpoint>
          <Trackpoint>
            <Time>2019-07-15T14:23:34.000Z</Time>
            <Position>
              <LatitudeDegrees>37.049736678600311279296875</LatitudeDegrees>
              <LongitudeDegrees>-3.37121687829494476318359375</LongitudeDegrees>
            </Position>
            <AltitudeMeters>3197.800048828125</AltitudeMeters>
            <DistanceMeters>20378.714203531</DistanceMeters>
          </Trackpoint>
          <Trackpoint>
            <Time>2019-07-15T14:23:38.000Z</Time>
            <Position>
              <LatitudeDegrees>37.0497787557542324066162109375</LatitudeDegrees>
              <LongitudeDegrees>-3.3712529204785823822021484375</LongitudeDegrees>
            </Position>
            <AltitudeMeters>3198</AltitudeMeters>
            <DistanceMeters>20384.38722675</DistanceMeters>
          </Trackpoint>
          <Trackpoint>
            <Time>2019-07-15T14:23:39.000Z</Time>
            <Position>
              <LatitudeDegrees>37.04978638328611850738525390625</LatitudeDegrees>
              <LongitudeDegrees>-3.37125753052532672882080078125</LongitudeDegrees>
            </Position>
            <AltitudeMeters>3197.800048828125</AltitudeMeters>
            <DistanceMeters>20385.327943228</DistanceMeters>
          </Trackpoint>
          <Trackpoint>
            <Time>2019-07-15T14:23:55.000Z</Time>
            <Position>
              <LatitudeDegrees>37.04990188591182231903076171875</LatitudeDegrees>
              <LongitudeDegrees>-3.37147143669426441192626953125</LongitudeDegrees>
            </Position>
            <AltitudeMeters>3198.60009765625</AltitudeMeters>
            <DistanceMeters>20408.269761717</DistanceMeters>
          </Trackpoint>
          <Trackpoint>
            <Time>2019-07-15T14:24:06.000Z</Time>
            <Position>
              <LatitudeDegrees>37.04999777488410472869873046875</LatitudeDegrees>
              <LongitudeDegrees>-3.37159615941345691680908203125</LongitudeDegrees>
            </Position>
            <AltitudeMeters>3197.800048828125</AltitudeMeters>
            <DistanceMeters>20423.653527298</DistanceMeters>
          </Trackpoint>
          <Trackpoint>
            <Time>2019-07-15T14:24:30.000Z</Time>
            <Position>
              <LatitudeDegrees>37.05007128417491912841796875</LatitudeDegrees>
              <LongitudeDegrees>-3.37158056907355785369873046875</LongitudeDegrees>
            </Position>
            <AltitudeMeters>3198.39990234375</AltitudeMeters>
            <DistanceMeters>20431.950834259</DistanceMeters>
          </Trackpoint>
          <Trackpoint>
            <Time>2019-07-15T14:24:31.000Z</Time>
            <Position>
              <LatitudeDegrees>37.050066925585269927978515625</LatitudeDegrees>
              <LongitudeDegrees>-3.37157092988491058349609375</LongitudeDegrees>
            </Position>
            <AltitudeMeters>3198.39990234375</AltitudeMeters>
            <DistanceMeters>20432.933798236</DistanceMeters>
          </Trackpoint>
          <Trackpoint>
            <Time>2019-07-15T14:24:40.000Z</Time>
            <Position>
              <LatitudeDegrees>37.04999861307442188262939453125</LatitudeDegrees>
              <LongitudeDegrees>-3.3714736998081207275390625</LongitudeDegrees>
            </Position>
            <AltitudeMeters>3198.800048828125</AltitudeMeters>
            <DistanceMeters>20444.441058595</DistanceMeters>
          </Trackpoint>
          <Trackpoint>
            <Time>2019-07-15T14:25:16.000Z</Time>
            <Position>
              <LatitudeDegrees>37.04984723590314388275146484375</LatitudeDegrees>
              <LongitudeDegrees>-3.37134964764118194580078125</LongitudeDegrees>
            </Position>
            <AltitudeMeters>3199.39990234375</AltitudeMeters>
            <DistanceMeters>20464.573494642</DistanceMeters>
          </Trackpoint>
          <Trackpoint>
            <Time>2019-07-15T14:25:19.000Z</Time>
            <Position>
              <LatitudeDegrees>37.0498323999345302581787109375</LatitudeDegrees>
              <LongitudeDegrees>-3.37132559157907962799072265625</LongitudeDegrees>
            </Position>
            <AltitudeMeters>3199</AltitudeMeters>
            <DistanceMeters>20467.274661384</DistanceMeters>
          </Trackpoint>
          <Trackpoint>
            <Time>2019-07-15T14:25:24.000Z</Time>
            <Position>
              <LatitudeDegrees>37.04980708658695220947265625</LatitudeDegrees>
              <LongitudeDegrees>-3.37127412669360637664794921875</LongitudeDegrees>
            </Position>
            <AltitudeMeters>3199.60009765625</AltitudeMeters>
            <DistanceMeters>20472.645142197</DistanceMeters>
          </Trackpoint>
          <Trackpoint>
            <Time>2019-07-15T14:25:49.000Z</Time>
            <Position>
              <LatitudeDegrees>37.0497636683285236358642578125</LatitudeDegrees>
              <LongitudeDegrees>-3.3711840212345123291015625</LongitudeDegrees>
            </Position>
            <AltitudeMeters>3200.199951171875</AltitudeMeters>
            <DistanceMeters>20481.994534689</DistanceMeters>
          </Trackpoint>
          <Trackpoint>
            <Time>2019-07-15T14:25:50.000Z</Time>
            <Position>
              <LatitudeDegrees>37.04976878128945827484130859375</LatitudeDegrees>
              <LongitudeDegrees>-3.3711947500705718994140625</LongitudeDegrees>
            </Position>
            <AltitudeMeters>3200.199951171875</AltitudeMeters>
            <DistanceMeters>20483.10272709</DistanceMeters>
          </Trackpoint>
          <Trackpoint>
            <Time>2019-07-15T14:25:54.000Z</Time>
            <Position>
              <LatitudeDegrees>37.04980180598795413970947265625</LatitudeDegrees>
              <LongitudeDegrees>-3.3712411858141422271728515625</LongitudeDegrees>
            </Position>
            <AltitudeMeters>3200.60009765625</AltitudeMeters>
            <DistanceMeters>20488.627368108</DistanceMeters>
          </Trackpoint>
          <Trackpoint>
            <Time>2019-07-15T14:26:06.000Z</Time>
            <Position>
              <LatitudeDegrees>37.0497546158730983734130859375</LatitudeDegrees>
              <LongitudeDegrees>-3.371221907436847686767578125</LongitudeDegrees>
            </Position>
            <AltitudeMeters>3199.60009765625</AltitudeMeters>
            <DistanceMeters>20494.152009126</DistanceMeters>
          </Trackpoint>
          <Trackpoint>
            <Time>2019-07-15T14:26:13.000Z</Time>
            <Position>
              <LatitudeDegrees>37.0497073419392108917236328125</LatitudeDegrees>
              <LongitudeDegrees>-3.3711758069694042205810546875</LongitudeDegrees>
            </Position>
            <AltitudeMeters>3199</AltitudeMeters>
            <DistanceMeters>20500.819472387</DistanceMeters>
          </Trackpoint>
          <Trackpoint>
            <Time>2019-07-15T14:26:14.000Z</Time>
            <Position>
              <LatitudeDegrees>37.04970038495957851409912109375</LatitudeDegrees>
              <LongitudeDegrees>-3.3711679279804229736328125</LongitudeDegrees>
            </Position>
            <AltitudeMeters>3199</AltitudeMeters>
            <DistanceMeters>20501.864766245</DistanceMeters>
          </Trackpoint>
          <Trackpoint>
            <Time>2019-07-15T14:26:22.000Z</Time>
            <Position>
              <LatitudeDegrees>37.04970776103436946868896484375</LatitudeDegrees>
              <LongitudeDegrees>-3.3711493201553821563720703125</LongitudeDegrees>
            </Position>
            <AltitudeMeters>3199.199951171875</AltitudeMeters>
            <DistanceMeters>20503.709851289</DistanceMeters>
          </Trackpoint>
          <Trackpoint>
            <Time>2019-07-15T14:26:53.000Z</Time>
            <Position>
              <LatitudeDegrees>37.04976308159530162811279296875</LatitudeDegrees>
              <LongitudeDegrees>-3.3711670897901058197021484375</LongitudeDegrees>
            </Position>
            <AltitudeMeters>3198.39990234375</AltitudeMeters>
            <DistanceMeters>20510.065994932</DistanceMeters>
          </Trackpoint>
          <Trackpoint>
            <Time>2019-07-15T14:26:58.000Z</Time>
            <Position>
              <LatitudeDegrees>37.04973869025707244873046875</LatitudeDegrees>
              <LongitudeDegrees>-3.37112342007458209991455078125</LongitudeDegrees>
            </Position>
            <AltitudeMeters>3198.199951171875</AltitudeMeters>
            <DistanceMeters>20514.799241139</DistanceMeters>
          </Trackpoint>
          <Trackpoint>
            <Time>2019-07-15T14:26:59.000Z</Time>
            <Position>
              <LatitudeDegrees>37.0497365109622478485107421875</LatitudeDegrees>
              <LongitudeDegrees>-3.37111034430563449859619140625</LongitudeDegrees>
            </Position>
            <AltitudeMeters>3198</AltitudeMeters>
            <DistanceMeters>20515.986124421</DistanceMeters>
          </Trackpoint>
          <Trackpoint>
            <Time>2019-07-15T14:27:07.000Z</Time>
            <Position>
              <LatitudeDegrees>37.049755118787288665771484375</LatitudeDegrees>
              <LongitudeDegrees>-3.37109483778476715087890625</LongitudeDegrees>
            </Position>
            <AltitudeMeters>3196.800048828125</AltitudeMeters>
            <DistanceMeters>20518.473211545</DistanceMeters>
          </Trackpoint>
          <Trackpoint>
            <Time>2019-07-15T14:27:26.000Z</Time>
            <Position>
              <LatitudeDegrees>37.0497220940887928009033203125</LatitudeDegrees>
              <LongitudeDegrees>-3.37103172205388545989990234375</LongitudeDegrees>
            </Position>
            <AltitudeMeters>3196.60009765625</AltitudeMeters>
            <DistanceMeters>20525.177142516</DistanceMeters>
          </Trackpoint>
          <Trackpoint>
            <Time>2019-07-15T14:27:31.000Z</Time>
            <Position>
              <LatitudeDegrees>37.0497224293649196624755859375</LatitudeDegrees>
              <LongitudeDegrees>-3.37101110257208347320556640625</LongitudeDegrees>
            </Position>
            <AltitudeMeters>3196.800048828125</AltitudeMeters>
            <DistanceMeters>20527.005017863</DistanceMeters>
          </Trackpoint>
          <Trackpoint>
            <Time>2019-07-15T14:27:37.000Z</Time>
            <Position>
              <LatitudeDegrees>37.049746401607990264892578125</LatitudeDegrees>
              <LongitudeDegrees>-3.3710007928311824798583984375</LongitudeDegrees>
            </Position>
            <AltitudeMeters>3197.199951171875</AltitudeMeters>
            <DistanceMeters>20529.827167297</DistanceMeters>
          </Trackpoint>
          <Trackpoint>
            <Time>2019-07-15T14:28:25.000Z</Time>
            <Position>
              <LatitudeDegrees>37.04976626671850681304931640625</LatitudeDegrees>
              <LongitudeDegrees>-3.37107866071164608001708984375</LongitudeDegrees>
            </Position>
            <AltitudeMeters>3197.800048828125</AltitudeMeters>
            <DistanceMeters>20537.089098612</DistanceMeters>
          </Trackpoint>
          <Trackpoint>
            <Time>2019-07-15T14:28:43.000Z</Time>
            <Position>
              <LatitudeDegrees>37.04974313266575336456298828125</LatitudeDegrees>
              <LongitudeDegrees>-3.37108268402516841888427734375</LongitudeDegrees>
            </Position>
            <AltitudeMeters>3197.199951171875</AltitudeMeters>
            <DistanceMeters>20539.688040162</DistanceMeters>
          </Trackpoint>
          <Trackpoint>
            <Time>2019-07-15T14:28:52.000Z</Time>
            <Position>
              <LatitudeDegrees>37.04971455037593841552734375</LatitudeDegrees>
              <LongitudeDegrees>-3.37105217389762401580810546875</LongitudeDegrees>
            </Position>
            <AltitudeMeters>3197</AltitudeMeters>
            <DistanceMeters>20543.867055338</DistanceMeters>
          </Trackpoint>
          <Trackpoint>
            <Time>2019-07-15T14:29:13.000Z</Time>
            <Position>
              <LatitudeDegrees>37.0496543683111667633056640625</LatitudeDegrees>
              <LongitudeDegrees>-3.3710445463657379150390625</LongitudeDegrees>
            </Position>
            <AltitudeMeters>3197</AltitudeMeters>
            <DistanceMeters>20550.599884146</DistanceMeters>
          </Trackpoint>
          <Trackpoint>
            <Time>2019-07-15T14:29:14.000Z</Time>
            <Position>
              <LatitudeDegrees>37.049647159874439239501953125</LatitudeDegrees>
              <LongitudeDegrees>-3.37105066515505313873291015625</LongitudeDegrees>
            </Position>
            <AltitudeMeters>3197</AltitudeMeters>
            <DistanceMeters>20551.564299966</DistanceMeters>
          </Trackpoint>
          <Trackpoint>
            <Time>2019-07-15T14:29:40.000Z</Time>
            <Position>
              <LatitudeDegrees>37.0496312342584133148193359375</LatitudeDegrees>
              <LongitudeDegrees>-3.37099014781415462493896484375</LongitudeDegrees>
            </Position>
            <AltitudeMeters>3197.39990234375</AltitudeMeters>
            <DistanceMeters>20557.224574802</DistanceMeters>
          </Trackpoint>
          <Trackpoint>
            <Time>2019-07-15T14:29:41.000Z</Time>
            <Position>
              <LatitudeDegrees>37.049640454351902008056640625</LatitudeDegrees>
              <LongitudeDegrees>-3.3709994517266750335693359375</LongitudeDegrees>
            </Position>
            <AltitudeMeters>3197.39990234375</AltitudeMeters>
            <DistanceMeters>20558.541303581</DistanceMeters>
          </Trackpoint>
          <Trackpoint>
            <Time>2019-07-15T14:30:20.000Z</Time>
            <Position>
              <LatitudeDegrees>37.049765847623348236083984375</LatitudeDegrees>
              <LongitudeDegrees>-3.3711010403931140899658203125</LongitudeDegrees>
            </Position>
            <AltitudeMeters>3199.199951171875</AltitudeMeters>
            <DistanceMeters>20575.160929878</DistanceMeters>
          </Trackpoint>
          <Trackpoint>
            <Time>2019-07-15T14:31:00.000Z</Time>
            <Position>
              <LatitudeDegrees>37.04979828558862209320068359375</LatitudeDegrees>
              <LongitudeDegrees>-3.37115476839244365692138671875</LongitudeDegrees>
            </Position>
            <AltitudeMeters>3199</AltitudeMeters>
            <DistanceMeters>20581.144595402</DistanceMeters>
          </Trackpoint>
          <Trackpoint>
            <Time>2019-07-15T14:31:14.000Z</Time>
            <Position>
              <LatitudeDegrees>37.049804069101810455322265625</LatitudeDegrees>
              <LongitudeDegrees>-3.3711868710815906524658203125</LongitudeDegrees>
            </Position>
            <AltitudeMeters>3198.60009765625</AltitudeMeters>
            <DistanceMeters>20584.070430748</DistanceMeters>
          </Trackpoint>
          <Trackpoint>
            <Time>2019-07-15T14:31:15.000Z</Time>
            <Position>
              <LatitudeDegrees>37.04979476518929004669189453125</LatitudeDegrees>
              <LongitudeDegrees>-3.37117505259811878204345703125</LongitudeDegrees>
            </Position>
            <AltitudeMeters>3198.39990234375</AltitudeMeters>
            <DistanceMeters>20585.545642062</DistanceMeters>
          </Trackpoint>
          <Trackpoint>
            <Time>2019-07-15T14:31:18.000Z</Time>
            <Position>
              <LatitudeDegrees>37.04976693727076053619384765625</LatitudeDegrees>
              <LongitudeDegrees>-3.3711349032819271087646484375</LongitudeDegrees>
            </Position>
            <AltitudeMeters>3198.39990234375</AltitudeMeters>
            <DistanceMeters>20590.269339649</DistanceMeters>
          </Trackpoint>
          <Trackpoint>
            <Time>2019-07-15T14:31:52.000Z</Time>
            <Position>
              <LatitudeDegrees>37.04983298666775226593017578125</LatitudeDegrees>
              <LongitudeDegrees>-3.37117404676973819732666015625</LongitudeDegrees>
            </Position>
            <AltitudeMeters>3198.60009765625</AltitudeMeters>
            <DistanceMeters>20598.401761175</DistanceMeters>
          </Trackpoint>
          <Trackpoint>
            <Time>2019-07-15T14:32:11.000Z</Time>
            <Position>
              <LatitudeDegrees>37.049884535372257232666015625</LatitudeDegrees>
              <LongitudeDegrees>-3.37127027101814746856689453125</LongitudeDegrees>
            </Position>
            <AltitudeMeters>3198.39990234375</AltitudeMeters>
            <DistanceMeters>20608.696711744</DistanceMeters>
          </Trackpoint>
          <Trackpoint>
            <Time>2019-07-15T14:32:14.000Z</Time>
            <Position>
              <LatitudeDegrees>37.04987372271716594696044921875</LatitudeDegrees>
              <LongitudeDegrees>-3.37125308811664581298828125</LongitudeDegrees>
            </Position>
            <AltitudeMeters>3198.199951171875</AltitudeMeters>
            <DistanceMeters>20610.639537509</DistanceMeters>
          </Trackpoint>
          <Trackpoint>
            <Time>2019-07-15T14:32:20.000Z</Time>
            <Position>
              <LatitudeDegrees>37.0498391054570674896240234375</LatitudeDegrees>
              <LongitudeDegrees>-3.37123339064419269561767578125</LongitudeDegrees>
            </Position>
            <AltitudeMeters>3198.800048828125</AltitudeMeters>
            <DistanceMeters>20614.871161499</DistanceMeters>
          </Trackpoint>
          <Trackpoint>
            <Time>2019-07-15T14:32:23.000Z</Time>
            <Position>
              <LatitudeDegrees>37.04982452094554901123046875</LatitudeDegrees>
              <LongitudeDegrees>-3.37120874784886837005615234375</LongitudeDegrees>
            </Position>
            <AltitudeMeters>3199.199951171875</AltitudeMeters>
            <DistanceMeters>20617.597285655</DistanceMeters>
          </Trackpoint>
          <Trackpoint>
            <Time>2019-07-15T14:32:44.000Z</Time>
            <Position>
              <LatitudeDegrees>37.04983164556324481964111328125</LatitudeDegrees>
              <LongitudeDegrees>-3.3711825124919414520263671875</LongitudeDegrees>
            </Position>
            <AltitudeMeters>3200.39990234375</AltitudeMeters>
            <DistanceMeters>20620.058826086</DistanceMeters>
          </Trackpoint>
          <Trackpoint>
            <Time>2019-07-15T14:32:49.000Z</Time>
            <Position>
              <LatitudeDegrees>37.049807421863079071044921875</LatitudeDegrees>
              <LongitudeDegrees>-3.371158204972743988037109375</LongitudeDegrees>
            </Position>
            <AltitudeMeters>3200.39990234375</AltitudeMeters>
            <DistanceMeters>20623.513932605</DistanceMeters>
          </Trackpoint>
          <Trackpoint>
            <Time>2019-07-15T14:32:56.000Z</Time>
            <Position>
              <LatitudeDegrees>37.04972435720264911651611328125</LatitudeDegrees>
              <LongitudeDegrees>-3.3710618130862712860107421875</LongitudeDegrees>
            </Position>
            <AltitudeMeters>3199.60009765625</AltitudeMeters>
            <DistanceMeters>20636.115635837</DistanceMeters>
          </Trackpoint>
          <Trackpoint>
            <Time>2019-07-15T14:32:59.000Z</Time>
            <Position>
              <LatitudeDegrees>37.0496956072747707366943359375</LatitudeDegrees>
              <LongitudeDegrees>-3.371029794216156005859375</LongitudeDegrees>
            </Position>
            <AltitudeMeters>3199.39990234375</AltitudeMeters>
            <DistanceMeters>20640.397113991</DistanceMeters>
          </Trackpoint>
          <Trackpoint>
            <Time>2019-07-15T14:33:05.000Z</Time>
            <Position>
              <LatitudeDegrees>37.04964481294155120849609375</LatitudeDegrees>
              <LongitudeDegrees>-3.3709484897553920745849609375</LongitudeDegrees>
            </Position>
            <AltitudeMeters>3200.199951171875</AltitudeMeters>
            <DistanceMeters>20649.569038116</DistanceMeters>
          </Trackpoint>
          <Trackpoint>
            <Time>2019-07-15T14:33:23.000Z</Time>
            <Position>
              <LatitudeDegrees>37.04963383264839649200439453125</LatitudeDegrees>
              <LongitudeDegrees>-3.37095444090664386749267578125</LongitudeDegrees>
            </Position>
            <AltitudeMeters>3200.39990234375</AltitudeMeters>
            <DistanceMeters>20650.899412117</DistanceMeters>
          </Trackpoint>
          <Trackpoint>
            <Time>2019-07-15T14:33:42.000Z</Time>
            <Position>
              <LatitudeDegrees>37.04963232390582561492919921875</LatitudeDegrees>
              <LongitudeDegrees>-3.3709277026355266571044921875</LongitudeDegrees>
            </Position>
            <AltitudeMeters>3200.800048828125</AltitudeMeters>
            <DistanceMeters>20653.280774753</DistanceMeters>
          </Trackpoint>
          <Trackpoint>
            <Time>2019-07-15T14:34:11.000Z</Time>
            <Position>
              <LatitudeDegrees>37.0496094413101673126220703125</LatitudeDegrees>
              <LongitudeDegrees>-3.3709380961954593658447265625</LongitudeDegrees>
            </Position>
            <AltitudeMeters>3199.199951171875</AltitudeMeters>
            <DistanceMeters>20655.988619297</DistanceMeters>
          </Trackpoint>
          <Trackpoint>
            <Time>2019-07-15T14:34:12.000Z</Time>
            <Position>
              <LatitudeDegrees>37.04961958341300487518310546875</LatitudeDegrees>
              <LongitudeDegrees>-3.37094186805188655853271484375</LongitudeDegrees>
            </Position>
            <AltitudeMeters>3199.60009765625</AltitudeMeters>
            <DistanceMeters>20657.16786981</DistanceMeters>
          </Trackpoint>
          <Trackpoint>
            <Time>2019-07-15T14:34:22.000Z</Time>
            <Position>
              <LatitudeDegrees>37.049675993621349334716796875</LatitudeDegrees>
              <LongitudeDegrees>-3.3709860406816005706787109375</LongitudeDegrees>
            </Position>
            <AltitudeMeters>3200</AltitudeMeters>
            <DistanceMeters>20664.571420581</DistanceMeters>
          </Trackpoint>
          <Trackpoint>
            <Time>2019-07-15T14:34:54.000Z</Time>
            <Position>
              <LatitudeDegrees>37.04965713433921337127685546875</LatitudeDegrees>
              <LongitudeDegrees>-3.3709640800952911376953125</LongitudeDegrees>
            </Position>
            <AltitudeMeters>3199</AltitudeMeters>
            <DistanceMeters>20667.439590666</DistanceMeters>
          </Trackpoint>
          <Trackpoint>
            <Time>2019-07-15T14:35:25.000Z</Time>
            <Position>
              <LatitudeDegrees>37.0496241934597492218017578125</LatitudeDegrees>
              <LongitudeDegrees>-3.371040858328342437744140625</LongitudeDegrees>
            </Position>
            <AltitudeMeters>3198.800048828125</AltitudeMeters>
            <DistanceMeters>20675.182956058</DistanceMeters>
          </Trackpoint>
          <Trackpoint>
            <Time>2019-07-15T14:35:31.000Z</Time>
            <Position>
              <LatitudeDegrees>37.049771212041378021240234375</LatitudeDegrees>
              <LongitudeDegrees>-3.3710802532732486724853515625</LongitudeDegrees>
            </Position>
            <AltitudeMeters>3198.60009765625</AltitudeMeters>
            <DistanceMeters>20691.916294349</DistanceMeters>
          </Trackpoint>
          <Trackpoint>
            <Time>2019-07-15T14:35:32.000Z</Time>
            <Position>
              <LatitudeDegrees>37.049844972789287567138671875</LatitudeDegrees>
              <LongitudeDegrees>-3.37113515473902225494384765625</LongitudeDegrees>
            </Position>
            <AltitudeMeters>3198.60009765625</AltitudeMeters>
            <DistanceMeters>20701.464469661</DistanceMeters>
          </Trackpoint>
          <Trackpoint>
            <Time>2019-07-15T14:35:33.000Z</Time>
            <Position>
              <LatitudeDegrees>37.04986131750047206878662109375</LatitudeDegrees>
              <LongitudeDegrees>-3.37116432376205921173095703125</LongitudeDegrees>
            </Position>
            <AltitudeMeters>3198.60009765625</AltitudeMeters>
            <DistanceMeters>20704.627589118</DistanceMeters>
          </Trackpoint>
          <Trackpoint>
            <Time>2019-07-15T14:35:34.000Z</Time>
            <Position>
              <LatitudeDegrees>37.049883864820003509521484375</LatitudeDegrees>
              <LongitudeDegrees>-3.37118796072900295257568359375</LongitudeDegrees>
            </Position>
            <AltitudeMeters>3199</AltitudeMeters>
            <DistanceMeters>20707.897391942</DistanceMeters>
          </Trackpoint>
          <Trackpoint>
            <Time>2019-07-15T14:35:35.000Z</Time>
            <Position>
              <LatitudeDegrees>37.0499034784734249114990234375</LatitudeDegrees>
              <LongitudeDegrees>-3.37119449861347675323486328125</LongitudeDegrees>
            </Position>
            <AltitudeMeters>3199.39990234375</AltitudeMeters>
            <DistanceMeters>20710.158149175</DistanceMeters>
          </Trackpoint>
          <Trackpoint>
            <Time>2019-07-15T14:35:53.000Z</Time>
            <Position>
              <LatitudeDegrees>37.05010338686406612396240234375</LatitudeDegrees>
              <LongitudeDegrees>-3.37141024880111217498779296875</LongitudeDegrees>
            </Position>
            <AltitudeMeters>3199.60009765625</AltitudeMeters>
            <DistanceMeters>20739.524325304</DistanceMeters>
          </Trackpoint>
          <Trackpoint>
            <Time>2019-07-15T14:36:07.000Z</Time>
            <Position>
              <LatitudeDegrees>37.05006332136690616607666015625</LatitudeDegrees>
              <LongitudeDegrees>-3.371330201625823974609375</LongitudeDegrees>
            </Position>
            <AltitudeMeters>3198.800048828125</AltitudeMeters>
            <DistanceMeters>20747.916857476</DistanceMeters>
          </Trackpoint>
          <Trackpoint>
            <Time>2019-07-15T14:36:08.000Z</Time>
            <Position>
              <LatitudeDegrees>37.050063908100128173828125</LatitudeDegrees>
              <LongitudeDegrees>-3.37130782194435596466064453125</LongitudeDegrees>
            </Position>
            <AltitudeMeters>3199</AltitudeMeters>
            <DistanceMeters>20749.905619272</DistanceMeters>
          </Trackpoint>
          <Trackpoint>
            <Time>2019-07-15T14:36:09.000Z</Time>
            <Position>
              <LatitudeDegrees>37.05006114207208156585693359375</LatitudeDegrees>
              <LongitudeDegrees>-3.37128099985420703887939453125</LongitudeDegrees>
            </Position>
            <AltitudeMeters>3199.199951171875</AltitudeMeters>
            <DistanceMeters>20752.30962612</DistanceMeters>
          </Trackpoint>
          <Trackpoint>
            <Time>2019-07-15T14:36:18.000Z</Time>
            <Position>
              <LatitudeDegrees>37.0498897321522235870361328125</LatitudeDegrees>
              <LongitudeDegrees>-3.3711652457714080810546875</LongitudeDegrees>
            </Position>
            <AltitudeMeters>3199.800048828125</AltitudeMeters>
            <DistanceMeters>20773.982384512</DistanceMeters>
          </Trackpoint>
          <Trackpoint>
            <Time>2019-07-15T14:36:23.000Z</Time>
            <Position>
              <LatitudeDegrees>37.04982058145105838775634765625</LatitudeDegrees>
              <LongitudeDegrees>-3.371126689016819000244140625</LongitudeDegrees>
            </Position>
            <AltitudeMeters>3200.199951171875</AltitudeMeters>
            <DistanceMeters>20782.406597874</DistanceMeters>
          </Trackpoint>
          <Trackpoint>
            <Time>2019-07-15T14:36:31.000Z</Time>
            <Position>
              <LatitudeDegrees>37.04979292117059230804443359375</LatitudeDegrees>
              <LongitudeDegrees>-3.3710859529674053192138671875</LongitudeDegrees>
            </Position>
            <AltitudeMeters>3200</AltitudeMeters>
            <DistanceMeters>20787.157933593</DistanceMeters>
          </Trackpoint>
          <Trackpoint>
            <Time>2019-07-15T14:36:38.000Z</Time>
            <Position>
              <LatitudeDegrees>37.04981471411883831024169921875</LatitudeDegrees>
              <LongitudeDegrees>-3.37101244367659091949462890625</LongitudeDegrees>
            </Position>
            <AltitudeMeters>3199.60009765625</AltitudeMeters>
            <DistanceMeters>20794.124111225</DistanceMeters>
          </Trackpoint>
          <Trackpoint>
            <Time>2019-07-15T14:37:07.000Z</Time>
            <Position>
              <LatitudeDegrees>37.04983449541032314300537109375</LatitudeDegrees>
              <LongitudeDegrees>-3.37103960104286670684814453125</LongitudeDegrees>
            </Position>
            <AltitudeMeters>3200.199951171875</AltitudeMeters>
            <DistanceMeters>20797.391151225</DistanceMeters>
          </Trackpoint>
          <Trackpoint>
            <Time>2019-07-15T14:37:41.000Z</Time>
            <Position>
              <LatitudeDegrees>37.04943367280066013336181640625</LatitudeDegrees>
              <LongitudeDegrees>-3.37068848311901092529296875</LongitudeDegrees>
            </Position>
            <AltitudeMeters>3199</AltitudeMeters>
            <DistanceMeters>20851.82545258</DistanceMeters>
          </Trackpoint>
          <Trackpoint>
            <Time>2019-07-15T14:37:42.000Z</Time>
            <Position>
              <LatitudeDegrees>37.0494273863732814788818359375</LatitudeDegrees>
              <LongitudeDegrees>-3.37068454362452030181884765625</LongitudeDegrees>
            </Position>
            <AltitudeMeters>3199</AltitudeMeters>
            <DistanceMeters>20852.597453257</DistanceMeters>
          </Trackpoint>
          <Trackpoint>
            <Time>2019-07-15T14:37:43.000Z</Time>
            <Position>
              <LatitudeDegrees>37.04941816627979278564453125</LatitudeDegrees>
              <LongitudeDegrees>-3.37066995911300182342529296875</LongitudeDegrees>
            </Position>
            <AltitudeMeters>3199</AltitudeMeters>
            <DistanceMeters>20854.251573314</DistanceMeters>
          </Trackpoint>
          <Trackpoint>
            <Time>2019-07-15T14:38:03.000Z</Time>
            <Position>
              <LatitudeDegrees>37.04960248433053493499755859375</LatitudeDegrees>
              <LongitudeDegrees>-3.37091781198978424072265625</LongitudeDegrees>
            </Position>
            <AltitudeMeters>3198.60009765625</AltitudeMeters>
            <DistanceMeters>20884.34519999</DistanceMeters>
          </Trackpoint>
          <Trackpoint>
            <Time>2019-07-15T14:38:21.000Z</Time>
            <Position>
              <LatitudeDegrees>37.0496312342584133148193359375</LatitudeDegrees>
              <LongitudeDegrees>-3.370940275490283966064453125</LongitudeDegrees>
            </Position>
            <AltitudeMeters>3198.39990234375</AltitudeMeters>
            <DistanceMeters>20888.117652837</DistanceMeters>
          </Trackpoint>
          <Trackpoint>
            <Time>2019-07-15T14:38:39.000Z</Time>
            <Position>
              <LatitudeDegrees>37.0496402867138385772705078125</LatitudeDegrees>
              <LongitudeDegrees>-3.3708502538502216339111328125</LongitudeDegrees>
            </Position>
            <AltitudeMeters>3197.800048828125</AltitudeMeters>
            <DistanceMeters>20896.17757653</DistanceMeters>
          </Trackpoint>
          <Trackpoint>
            <Time>2019-07-15T14:38:40.000Z</Time>
            <Position>
              <LatitudeDegrees>37.04964213073253631591796875</LatitudeDegrees>
              <LongitudeDegrees>-3.3708629943430423736572265625</LongitudeDegrees>
            </Position>
            <AltitudeMeters>3197.800048828125</AltitudeMeters>
            <DistanceMeters>20897.325788688</DistanceMeters>
          </Trackpoint>
          <Trackpoint>
            <Time>2019-07-15T14:38:47.000Z</Time>
            <Position>
              <LatitudeDegrees>37.04990364611148834228515625</LatitudeDegrees>
              <LongitudeDegrees>-3.37125736288726329803466796875</LongitudeDegrees>
            </Position>
            <AltitudeMeters>3197.60009765625</AltitudeMeters>
            <DistanceMeters>20942.872440833</DistanceMeters>
          </Trackpoint>
          <Trackpoint>
            <Time>2019-07-15T14:38:48.000Z</Time>
            <Position>
              <LatitudeDegrees>37.0499229244887828826904296875</LatitudeDegrees>
              <LongitudeDegrees>-3.37130807340145111083984375</LongitudeDegrees>
            </Position>
            <AltitudeMeters>3197.60009765625</AltitudeMeters>
            <DistanceMeters>20947.861117078</DistanceMeters>
          </Trackpoint>
          <Trackpoint>
            <Time>2019-07-15T14:38:49.000Z</Time>
            <Position>
              <LatitudeDegrees>37.04993641935288906097412109375</LatitudeDegrees>
              <LongitudeDegrees>-3.37134294211864471435546875</LongitudeDegrees>
            </Position>
            <AltitudeMeters>3197.800048828125</AltitudeMeters>
            <DistanceMeters>20951.303131067</DistanceMeters>
          </Trackpoint>
          <Trackpoint>
            <Time>2019-07-15T14:39:04.000Z</Time>
            <Position>
              <LatitudeDegrees>37.05007807351648807525634765625</LatitudeDegrees>
              <LongitudeDegrees>-3.3715657331049442291259765625</LongitudeDegrees>
            </Position>
            <AltitudeMeters>3198.199951171875</AltitudeMeters>
            <DistanceMeters>20976.606123972</DistanceMeters>
          </Trackpoint>
          <Trackpoint>
            <Time>2019-07-15T14:39:14.000Z</Time>
            <Position>
              <LatitudeDegrees>37.0500677637755870819091796875</LatitudeDegrees>
              <LongitudeDegrees>-3.37150328792631626129150390625</LongitudeDegrees>
            </Position>
            <AltitudeMeters>3197.800048828125</AltitudeMeters>
            <DistanceMeters>20982.269588594</DistanceMeters>
          </Trackpoint>
          <Trackpoint>
            <Time>2019-07-15T14:39:15.000Z</Time>
            <Position>
              <LatitudeDegrees>37.05006583593785762786865234375</LatitudeDegrees>
              <LongitudeDegrees>-3.3714933134615421295166015625</LongitudeDegrees>
            </Position>
            <AltitudeMeters>3197.800048828125</AltitudeMeters>
            <DistanceMeters>20983.181052819</DistanceMeters>
          </Trackpoint>
          <Trackpoint>
            <Time>2019-07-15T14:39:46.000Z</Time>
            <Position>
              <LatitudeDegrees>37.05001487396657466888427734375</LatitudeDegrees>
              <LongitudeDegrees>-3.37146623991429805755615234375</LongitudeDegrees>
            </Position>
            <AltitudeMeters>3198.60009765625</AltitudeMeters>
            <DistanceMeters>20989.343152416</DistanceMeters>
          </Trackpoint>
          <Trackpoint>
            <Time>2019-07-15T14:39:48.000Z</Time>
            <Position>
              <LatitudeDegrees>37.04999727196991443634033203125</LatitudeDegrees>
              <LongitudeDegrees>-3.3714986778795719146728515625</LongitudeDegrees>
            </Position>
            <AltitudeMeters>3198.39990234375</AltitudeMeters>
            <DistanceMeters>20992.828185101</DistanceMeters>
          </Trackpoint>
          <Trackpoint>
            <Time>2019-07-15T14:39:57.000Z</Time>
            <Position>
              <LatitudeDegrees>37.05010858364403247833251953125</LatitudeDegrees>
              <LongitudeDegrees>-3.37157989852130413055419921875</LongitudeDegrees>
            </Position>
            <AltitudeMeters>3198.800048828125</AltitudeMeters>
            <DistanceMeters>21007.165256981</DistanceMeters>
          </Trackpoint>
          <Trackpoint>
            <Time>2019-07-15T14:39:58.000Z</Time>
            <Position>
              <LatitudeDegrees>37.05011512152850627899169921875</LatitudeDegrees>
              <LongitudeDegrees>-3.3715828321874141693115234375</LongitudeDegrees>
            </Position>
            <AltitudeMeters>3198.60009765625</AltitudeMeters>
            <DistanceMeters>21007.948867342</DistanceMeters>
          </Trackpoint>
          <Trackpoint>
            <Time>2019-07-15T14:40:15.000Z</Time>
            <Position>
              <LatitudeDegrees>37.04971413128077983856201171875</LatitudeDegrees>
              <LongitudeDegrees>-3.37114320136606693267822265625</LongitudeDegrees>
            </Position>
            <AltitudeMeters>3199</AltitudeMeters>
            <DistanceMeters>21067.253760005</DistanceMeters>
          </Trackpoint>
          <Trackpoint>
            <Time>2019-07-15T14:40:16.000Z</Time>
            <Position>
              <LatitudeDegrees>37.0497083477675914764404296875</LatitudeDegrees>
              <LongitudeDegrees>-3.3711426146328449249267578125</LongitudeDegrees>
            </Position>
            <AltitudeMeters>3199.199951171875</AltitudeMeters>
            <DistanceMeters>21067.905230337</DistanceMeters>
          </Trackpoint>
          <Trackpoint>
            <Time>2019-07-15T14:40:24.000Z</Time>
            <Position>
              <LatitudeDegrees>37.04967624507844448089599609375</LatitudeDegrees>
              <LongitudeDegrees>-3.371138088405132293701171875</LongitudeDegrees>
            </Position>
            <AltitudeMeters>3199</AltitudeMeters>
            <DistanceMeters>21071.501209962</DistanceMeters>
          </Trackpoint>
          <Trackpoint>
            <Time>2019-07-15T14:40:25.000Z</Time>
            <Position>
              <LatitudeDegrees>37.049670629203319549560546875</LatitudeDegrees>
              <LongitudeDegrees>-3.37114068679511547088623046875</LongitudeDegrees>
            </Position>
            <AltitudeMeters>3198.39990234375</AltitudeMeters>
            <DistanceMeters>21072.159574352</DistanceMeters>
          </Trackpoint>
          <Trackpoint>
            <Time>2019-07-15T14:40:49.000Z</Time>
            <Position>
              <LatitudeDegrees>37.04964640550315380096435546875</LatitudeDegrees>
              <LongitudeDegrees>-3.3711744658648967742919921875</LongitudeDegrees>
            </Position>
            <AltitudeMeters>3198.199951171875</AltitudeMeters>
            <DistanceMeters>21076.193455578</DistanceMeters>
          </Trackpoint>
          <Trackpoint>
            <Time>2019-07-15T14:40:51.000Z</Time>
            <Position>
              <LatitudeDegrees>37.0496409572660923004150390625</LatitudeDegrees>
              <LongitudeDegrees>-3.37119164876639842987060546875</LongitudeDegrees>
            </Position>
            <AltitudeMeters>3197.60009765625</AltitudeMeters>
            <DistanceMeters>21077.836621077</DistanceMeters>
          </Trackpoint>
          <Trackpoint>
            <Time>2019-07-15T14:40:53.000Z</Time>
            <Position>
              <LatitudeDegrees>37.04963919706642627716064453125</LatitudeDegrees>
              <LongitudeDegrees>-3.3712116815149784088134765625</LongitudeDegrees>
            </Position>
            <AltitudeMeters>3197.60009765625</AltitudeMeters>
            <DistanceMeters>21079.627061564</DistanceMeters>
          </Trackpoint>
          <Trackpoint>
            <Time>2019-07-15T14:40:55.000Z</Time>
            <Position>
              <LatitudeDegrees>37.04962880350649356842041015625</LatitudeDegrees>
              <LongitudeDegrees>-3.3712291158735752105712890625</LongitudeDegrees>
            </Position>
            <AltitudeMeters>3197.39990234375</AltitudeMeters>
            <DistanceMeters>21081.562902912</DistanceMeters>
          </Trackpoint>
          <Trackpoint>
            <Time>2019-07-15T14:40:56.000Z</Time>
            <Position>
              <LatitudeDegrees>37.04962494783103466033935546875</LatitudeDegrees>
              <LongitudeDegrees>-3.37123774923384189605712890625</LongitudeDegrees>
            </Position>
            <AltitudeMeters>3197</AltitudeMeters>
            <DistanceMeters>21082.444144408</DistanceMeters>
          </Trackpoint>
          <Trackpoint>
            <Time>2019-07-15T14:41:01.000Z</Time>
            <Position>
              <LatitudeDegrees>37.04959452152252197265625</LatitudeDegrees>
              <LongitudeDegrees>-3.37127462960779666900634765625</LongitudeDegrees>
            </Position>
            <AltitudeMeters>3193.199951171875</AltitudeMeters>
            <DistanceMeters>21087.155399856</DistanceMeters>
          </Trackpoint>
          <Trackpoint>
            <Time>2019-07-15T14:41:02.000Z</Time>
            <Position>
              <LatitudeDegrees>37.04959116876125335693359375</LatitudeDegrees>
              <LongitudeDegrees>-3.37128200568258762359619140625</LongitudeDegrees>
            </Position>
            <AltitudeMeters>3193.39990234375</AltitudeMeters>
            <DistanceMeters>21087.909651019</DistanceMeters>
          </Trackpoint>
          <Trackpoint>
            <Time>2019-07-15T14:41:05.000Z</Time>
            <Position>
              <LatitudeDegrees>37.04957985319197177886962890625</LatitudeDegrees>
              <LongitudeDegrees>-3.37130270898342132568359375</LongitudeDegrees>
            </Position>
            <AltitudeMeters>3195.199951171875</AltitudeMeters>
            <DistanceMeters>21090.142273288</DistanceMeters>
          </Trackpoint>
          <Trackpoint>
            <Time>2019-07-15T14:41:14.000Z</Time>
            <Position>
              <LatitudeDegrees>37.0495529472827911376953125</LatitudeDegrees>
              <LongitudeDegrees>-3.37136280722916126251220703125</LongitudeDegrees>
            </Position>
            <AltitudeMeters>3192</AltitudeMeters>
            <DistanceMeters>21096.263941136</DistanceMeters>
          </Trackpoint>
          <Trackpoint>
            <Time>2019-07-15T14:41:29.000Z</Time>
            <Position>
              <LatitudeDegrees>37.04951279796659946441650390625</LatitudeDegrees>
              <LongitudeDegrees>-3.37135476060211658477783203125</LongitudeDegrees>
            </Position>
            <AltitudeMeters>3192</AltitudeMeters>
            <DistanceMeters>21100.789448111</DistanceMeters>
          </Trackpoint>
          <Trackpoint>
            <Time>2019-07-15T14:41:30.000Z</Time>
            <Position>
              <LatitudeDegrees>37.049501650035381317138671875</LatitudeDegrees>
              <LongitudeDegrees>-3.3713551796972751617431640625</LongitudeDegrees>
            </Position>
            <AltitudeMeters>3191.60009765625</AltitudeMeters>
            <DistanceMeters>21102.02844488</DistanceMeters>
          </Trackpoint>
          <Trackpoint>
            <Time>2019-07-15T14:41:31.000Z</Time>
            <Position>
              <LatitudeDegrees>37.0494924299418926239013671875</LatitudeDegrees>
              <LongitudeDegrees>-3.37136230431497097015380859375</LongitudeDegrees>
            </Position>
            <AltitudeMeters>3191.60009765625</AltitudeMeters>
            <DistanceMeters>21103.237937495</DistanceMeters>
          </Trackpoint>
          <Trackpoint>
            <Time>2019-07-15T14:41:32.000Z</Time>
            <Position>
              <LatitudeDegrees>37.0494860596954822540283203125</LatitudeDegrees>
              <LongitudeDegrees>-3.3713729493319988250732421875</LongitudeDegrees>
            </Position>
            <AltitudeMeters>3191.39990234375</AltitudeMeters>
            <DistanceMeters>21104.421010548</DistanceMeters>
          </Trackpoint>
          <Trackpoint>
            <Time>2019-07-15T14:41:33.000Z</Time>
            <Position>
              <LatitudeDegrees>37.04948262311518192291259765625</LatitudeDegrees>
              <LongitudeDegrees>-3.37138426490128040313720703125</LongitudeDegrees>
            </Position>
            <AltitudeMeters>3191.39990234375</AltitudeMeters>
            <DistanceMeters>21105.496115094</DistanceMeters>
          </Trackpoint>
          <Trackpoint>
            <Time>2019-07-15T14:41:34.000Z</Time>
            <Position>
              <LatitudeDegrees>37.04948362894356250762939453125</LatitudeDegrees>
              <LongitudeDegrees>-3.3713997714221477508544921875</LongitudeDegrees>
            </Position>
            <AltitudeMeters>3191.199951171875</AltitudeMeters>
            <DistanceMeters>21106.87972494</DistanceMeters>
          </Trackpoint>
          <Trackpoint>
            <Time>2019-07-15T14:41:35.000Z</Time>
            <Position>
              <LatitudeDegrees>37.04948429949581623077392578125</LatitudeDegrees>
              <LongitudeDegrees>-3.37141829542815685272216796875</LongitudeDegrees>
            </Position>
            <AltitudeMeters>3190.60009765625</AltitudeMeters>
            <DistanceMeters>21108.53111317</DistanceMeters>
          </Trackpoint>
          <Trackpoint>
            <Time>2019-07-15T14:41:36.000Z</Time>
            <Position>
              <LatitudeDegrees>37.04948513768613338470458984375</LatitudeDegrees>
              <LongitudeDegrees>-3.37143371812999248504638671875</LongitudeDegrees>
            </Position>
            <AltitudeMeters>3190.199951171875</AltitudeMeters>
            <DistanceMeters>21109.908181089</DistanceMeters>
          </Trackpoint>
          <Trackpoint>
            <Time>2019-07-15T14:41:37.000Z</Time>
            <Position>
              <LatitudeDegrees>37.04949016682803630828857421875</LatitudeDegrees>
              <LongitudeDegrees>-3.371448218822479248046875</LongitudeDegrees>
            </Position>
            <AltitudeMeters>3189.199951171875</AltitudeMeters>
            <DistanceMeters>21111.311233712</DistanceMeters>
          </Trackpoint>
          <Trackpoint>
            <Time>2019-07-15T14:41:38.000Z</Time>
            <Position>
              <LatitudeDegrees>37.049497626721858978271484375</LatitudeDegrees>
              <LongitudeDegrees>-3.37146154604852199554443359375</LongitudeDegrees>
            </Position>
            <AltitudeMeters>3188</AltitudeMeters>
            <DistanceMeters>21112.758637503</DistanceMeters>
          </Trackpoint>
          <Trackpoint>
            <Time>2019-07-15T14:41:39.000Z</Time>
            <Position>
              <LatitudeDegrees>37.0495073497295379638671875</LatitudeDegrees>
              <LongitudeDegrees>-3.371475040912628173828125</LongitudeDegrees>
            </Position>
            <AltitudeMeters>3187.39990234375</AltitudeMeters>
            <DistanceMeters>21114.374091648</DistanceMeters>
          </Trackpoint>
          <Trackpoint>
            <Time>2019-07-15T14:41:40.000Z</Time>
            <Position>
              <LatitudeDegrees>37.04951665364205837249755859375</LatitudeDegrees>
              <LongitudeDegrees>-3.37148635648190975189208984375</LongitudeDegrees>
            </Position>
            <AltitudeMeters>3187.39990234375</AltitudeMeters>
            <DistanceMeters>21115.821495439</DistanceMeters>
          </Trackpoint>
          <Trackpoint>
            <Time>2019-07-15T14:41:50.000Z</Time>
            <Position>
              <LatitudeDegrees>37.0496074296534061431884765625</LatitudeDegrees>
              <LongitudeDegrees>-3.371579311788082122802734375</LongitudeDegrees>
            </Position>
            <AltitudeMeters>3187.60009765625</AltitudeMeters>
            <DistanceMeters>21128.870293139</DistanceMeters>
          </Trackpoint>
          <Trackpoint>
            <Time>2019-07-15T14:41:51.000Z</Time>
            <Position>
              <LatitudeDegrees>37.04961773939430713653564453125</LatitudeDegrees>
              <LongitudeDegrees>-3.37158568203449249267578125</LongitudeDegrees>
            </Position>
            <AltitudeMeters>3187.60009765625</AltitudeMeters>
            <DistanceMeters>21130.152273605</DistanceMeters>
          </Trackpoint>
          <Trackpoint>
            <Time>2019-07-15T14:41:52.000Z</Time>
            <Position>
              <LatitudeDegrees>37.0496228523552417755126953125</LatitudeDegrees>
              <LongitudeDegrees>-3.37159716524183750152587890625</LongitudeDegrees>
            </Position>
            <AltitudeMeters>3187.60009765625</AltitudeMeters>
            <DistanceMeters>21131.31998142</DistanceMeters>
          </Trackpoint>
          <Trackpoint>
            <Time>2019-07-15T14:41:53.000Z</Time>
            <Position>
              <LatitudeDegrees>37.04962897114455699920654296875</LatitudeDegrees>
              <LongitudeDegrees>-3.37160705588757991790771484375</LongitudeDegrees>
            </Position>
            <AltitudeMeters>3187.39990234375</AltitudeMeters>
            <DistanceMeters>21132.432240596</DistanceMeters>
          </Trackpoint>
          <Trackpoint>
            <Time>2019-07-15T14:41:54.000Z</Time>
            <Position>
              <LatitudeDegrees>37.04963852651417255401611328125</LatitudeDegrees>
              <LongitudeDegrees>-3.3716120012104511260986328125</LongitudeDegrees>
            </Position>
            <AltitudeMeters>3186.800048828125</AltitudeMeters>
            <DistanceMeters>21133.584378277</DistanceMeters>
          </Trackpoint>
          <Trackpoint>
            <Time>2019-07-15T14:41:55.000Z</Time>
            <Position>
              <LatitudeDegrees>37.04964858479797840118408203125</LatitudeDegrees>
              <LongitudeDegrees>-3.3716170303523540496826171875</LongitudeDegrees>
            </Position>
            <AltitudeMeters>3186.39990234375</AltitudeMeters>
            <DistanceMeters>21134.786381701</DistanceMeters>
          </Trackpoint>
          <Trackpoint>
            <Time>2019-07-15T14:41:56.000Z</Time>
            <Position>
              <LatitudeDegrees>37.049657218158245086669921875</LatitudeDegrees>
              <LongitudeDegrees>-3.371621556580066680908203125</LongitudeDegrees>
            </Position>
            <AltitudeMeters>3186.39990234375</AltitudeMeters>
            <DistanceMeters>21135.827347201</DistanceMeters>
          </Trackpoint>
          <Trackpoint>
            <Time>2019-07-15T14:41:57.000Z</Time>
            <Position>
              <LatitudeDegrees>37.0496671088039875030517578125</LatitudeDegrees>
              <LongitudeDegrees>-3.37162482552230358123779296875</LongitudeDegrees>
            </Position>
            <AltitudeMeters>3186.800048828125</AltitudeMeters>
            <DistanceMeters>21136.967667774</DistanceMeters>
          </Trackpoint>
          <Trackpoint>
            <Time>2019-07-15T14:41:58.000Z</Time>
            <Position>
              <LatitudeDegrees>37.04967406578361988067626953125</LatitudeDegrees>
              <LongitudeDegrees>-3.3716332912445068359375</LongitudeDegrees>
            </Position>
            <AltitudeMeters>3187</AltitudeMeters>
            <DistanceMeters>21138.04277232</DistanceMeters>
          </Trackpoint>
          <Trackpoint>
            <Time>2019-07-15T14:41:59.000Z</Time>
            <Position>
              <LatitudeDegrees>37.04968295060098171234130859375</LatitudeDegrees>
              <LongitudeDegrees>-3.3716421760618686676025390625</LongitudeDegrees>
            </Position>
            <AltitudeMeters>3187</AltitudeMeters>
            <DistanceMeters>21139.307020528</DistanceMeters>
          </Trackpoint>
          <Trackpoint>
            <Time>2019-07-15T14:42:00.000Z</Time>
            <Position>
              <LatitudeDegrees>37.049693427979946136474609375</LatitudeDegrees>
              <LongitudeDegrees>-3.37165097706019878387451171875</LongitudeDegrees>
            </Position>
            <AltitudeMeters>3187</AltitudeMeters>
            <DistanceMeters>21140.710073151</DistanceMeters>
          </Trackpoint>
          <Trackpoint>
            <Time>2019-07-15T14:42:02.000Z</Time>
            <Position>
              <LatitudeDegrees>37.049710191786289215087890625</LatitudeDegrees>
              <LongitudeDegrees>-3.3716643042862415313720703125</LongitudeDegrees>
            </Position>
            <AltitudeMeters>3187</AltitudeMeters>
            <DistanceMeters>21142.920338148</DistanceMeters>
          </Trackpoint>
          <Trackpoint>
            <Time>2019-07-15T14:42:03.000Z</Time>
            <Position>
              <LatitudeDegrees>37.049718238413333892822265625</LatitudeDegrees>
              <LongitudeDegrees>-3.37167494930326938629150390625</LongitudeDegrees>
            </Position>
            <AltitudeMeters>3187.199951171875</AltitudeMeters>
            <DistanceMeters>21144.223278811</DistanceMeters>
          </Trackpoint>
          <Trackpoint>
            <Time>2019-07-15T14:42:04.000Z</Time>
            <Position>
              <LatitudeDegrees>37.0497274585068225860595703125</LatitudeDegrees>
              <LongitudeDegrees>-3.37168199010193347930908203125</LongitudeDegrees>
            </Position>
            <AltitudeMeters>3187.199951171875</AltitudeMeters>
            <DistanceMeters>21145.425282235</DistanceMeters>
          </Trackpoint>
          <Trackpoint>
            <Time>2019-07-15T14:42:05.000Z</Time>
            <Position>
              <LatitudeDegrees>37.049735672771930694580078125</LatitudeDegrees>
              <LongitudeDegrees>-3.37168936617672443389892578125</LongitudeDegrees>
            </Position>
            <AltitudeMeters>3187.199951171875</AltitudeMeters>
            <DistanceMeters>21146.549653482</DistanceMeters>
          </Trackpoint>
          <Trackpoint>
            <Time>2019-07-15T14:42:06.000Z</Time>
            <Position>
              <LatitudeDegrees>37.04974296502768993377685546875</LatitudeDegrees>
              <LongitudeDegrees>-3.37169833481311798095703125</LongitudeDegrees>
            </Position>
            <AltitudeMeters>3187.199951171875</AltitudeMeters>
            <DistanceMeters>21147.682027473</DistanceMeters>
          </Trackpoint>
          <Trackpoint>
            <Time>2019-07-15T14:42:08.000Z</Time>
            <Position>
              <LatitudeDegrees>37.04975754953920841217041015625</LatitudeDegrees>
              <LongitudeDegrees>-3.37171451188623905181884765625</LongitudeDegrees>
            </Position>
            <AltitudeMeters>3187.39990234375</AltitudeMeters>
            <DistanceMeters>21149.848969962</DistanceMeters>
          </Trackpoint>
          <Trackpoint>
            <Time>2019-07-15T14:42:14.000Z</Time>
            <Position>
              <LatitudeDegrees>37.0497988723218441009521484375</LatitudeDegrees>
              <LongitudeDegrees>-3.37175667285919189453125</LongitudeDegrees>
            </Position>
            <AltitudeMeters>3187.800048828125</AltitudeMeters>
            <DistanceMeters>21155.781103466</DistanceMeters>
          </Trackpoint>
          <Trackpoint>
            <Time>2019-07-15T14:42:15.000Z</Time>
            <Position>
              <LatitudeDegrees>37.0498072542250156402587890625</LatitudeDegrees>
              <LongitudeDegrees>-3.37176497094333171844482421875</LongitudeDegrees>
            </Position>
            <AltitudeMeters>3188.39990234375</AltitudeMeters>
            <DistanceMeters>21156.967986748</DistanceMeters>
          </Trackpoint>
          <Trackpoint>
            <Time>2019-07-15T14:42:30.000Z</Time>
            <Position>
              <LatitudeDegrees>37.04995268024504184722900390625</LatitudeDegrees>
              <LongitudeDegrees>-3.37191291153430938720703125</LongitudeDegrees>
            </Position>
            <AltitudeMeters>3189.800048828125</AltitudeMeters>
            <DistanceMeters>21177.817419592</DistanceMeters>
          </Trackpoint>
          <Trackpoint>
            <Time>2019-07-15T14:42:32.000Z</Time>
            <Position>
              <LatitudeDegrees>37.04997581429779529571533203125</LatitudeDegrees>
              <LongitudeDegrees>-3.37192322127521038055419921875</LongitudeDegrees>
            </Position>
            <AltitudeMeters>3188.800048828125</AltitudeMeters>
            <DistanceMeters>21180.550160564</DistanceMeters>
          </Trackpoint>
          <Trackpoint>
            <Time>2019-07-15T14:42:33.000Z</Time>
            <Position>
              <LatitudeDegrees>37.04998620785772800445556640625</LatitudeDegrees>
              <LongitudeDegrees>-3.37192808277904987335205078125</LongitudeDegrees>
            </Position>
            <AltitudeMeters>3188.60009765625</AltitudeMeters>
            <DistanceMeters>21181.781847555</DistanceMeters>
          </Trackpoint>
          <Trackpoint>
            <Time>2019-07-15T14:42:34.000Z</Time>
            <Position>
              <LatitudeDegrees>37.0499950088560581207275390625</LatitudeDegrees>
              <LongitudeDegrees>-3.371934033930301666259765625</LongitudeDegrees>
            </Position>
            <AltitudeMeters>3188.800048828125</AltitudeMeters>
            <DistanceMeters>21182.89410673</DistanceMeters>
          </Trackpoint>
          <Trackpoint>
            <Time>2019-07-15T14:42:41.000Z</Time>
            <Position>
              <LatitudeDegrees>37.0500613935291767120361328125</LatitudeDegrees>
              <LongitudeDegrees>-3.37197066284716129302978515625</LongitudeDegrees>
            </Position>
            <AltitudeMeters>3190</AltitudeMeters>
            <DistanceMeters>21190.967463638</DistanceMeters>
          </Trackpoint>
          <Trackpoint>
            <Time>2019-07-15T14:42:45.000Z</Time>
            <Position>
              <LatitudeDegrees>37.05009098164737224578857421875</LatitudeDegrees>
              <LongitudeDegrees>-3.3719895221292972564697265625</LongitudeDegrees>
            </Position>
            <AltitudeMeters>3190.199951171875</AltitudeMeters>
            <DistanceMeters>21194.66252461</DistanceMeters>
          </Trackpoint>
          <Trackpoint>
            <Time>2019-07-15T14:42:57.000Z</Time>
            <Position>
              <LatitudeDegrees>37.05013808794319629669189453125</LatitudeDegrees>
              <LongitudeDegrees>-3.37197728455066680908203125</LongitudeDegrees>
            </Position>
            <AltitudeMeters>3189.60009765625</AltitudeMeters>
            <DistanceMeters>21200.016164739</DistanceMeters>
          </Trackpoint>
          <Trackpoint>
            <Time>2019-07-15T14:43:03.000Z</Time>
            <Position>
              <LatitudeDegrees>37.050181590020656585693359375</LatitudeDegrees>
              <LongitudeDegrees>-3.37195607833564281463623046875</LongitudeDegrees>
            </Position>
            <AltitudeMeters>3189</AltitudeMeters>
            <DistanceMeters>21205.212310288</DistanceMeters>
          </Trackpoint>
          <Trackpoint>
            <Time>2019-07-15T14:43:04.000Z</Time>
            <Position>
              <LatitudeDegrees>37.05019257031381130218505859375</LatitudeDegrees>
              <LongitudeDegrees>-3.37195524014532566070556640625</LongitudeDegrees>
            </Position>
            <AltitudeMeters>3189</AltitudeMeters>
            <DistanceMeters>21206.436643858</DistanceMeters>
          </Trackpoint>
          <Trackpoint>
            <Time>2019-07-15T14:43:05.000Z</Time>
            <Position>
              <LatitudeDegrees>37.0502079091966152191162109375</LatitudeDegrees>
              <LongitudeDegrees>-3.3719538152217864990234375</LongitudeDegrees>
            </Position>
            <AltitudeMeters>3189.199951171875</AltitudeMeters>
            <DistanceMeters>21208.147124716</DistanceMeters>
          </Trackpoint>
          <Trackpoint>
            <Time>2019-07-15T14:43:17.000Z</Time>
            <Position>
              <LatitudeDegrees>37.05032886005938053131103515625</LatitudeDegrees>
              <LongitudeDegrees>-3.3719358779489994049072265625</LongitudeDegrees>
            </Position>
            <AltitudeMeters>3188.60009765625</AltitudeMeters>
            <DistanceMeters>21221.7030111</DistanceMeters>
          </Trackpoint>
          <Trackpoint>
            <Time>2019-07-15T14:43:18.000Z</Time>
            <Position>
              <LatitudeDegrees>37.0503403432667255401611328125</LatitudeDegrees>
              <LongitudeDegrees>-3.37193428538739681243896484375</LongitudeDegrees>
            </Position>
            <AltitudeMeters>3188.800048828125</AltitudeMeters>
            <DistanceMeters>21222.992016168</DistanceMeters>
          </Trackpoint>
          <Trackpoint>
            <Time>2019-07-15T14:43:19.000Z</Time>
            <Position>
              <LatitudeDegrees>37.05035283230245113372802734375</LatitudeDegrees>
              <LongitudeDegrees>-3.37193462066352367401123046875</LongitudeDegrees>
            </Position>
            <AltitudeMeters>3189</AltitudeMeters>
            <DistanceMeters>21224.382137155</DistanceMeters>
          </Trackpoint>
          <Trackpoint>
            <Time>2019-07-15T14:43:20.000Z</Time>
            <Position>
              <LatitudeDegrees>37.0503629744052886962890625</LatitudeDegrees>
              <LongitudeDegrees>-3.3719365485012531280517578125</LongitudeDegrees>
            </Position>
            <AltitudeMeters>3189.199951171875</AltitudeMeters>
            <DistanceMeters>21225.522457727</DistanceMeters>
          </Trackpoint>
          <Trackpoint>
            <Time>2019-07-15T14:43:21.000Z</Time>
            <Position>
              <LatitudeDegrees>37.05037194304168224334716796875</LatitudeDegrees>
              <LongitudeDegrees>-3.37193864397704601287841796875</LongitudeDegrees>
            </Position>
            <AltitudeMeters>3189.199951171875</AltitudeMeters>
            <DistanceMeters>21226.537065393</DistanceMeters>
          </Trackpoint>
          <Trackpoint>
            <Time>2019-07-15T14:43:23.000Z</Time>
            <Position>
              <LatitudeDegrees>37.05039440654218196868896484375</LatitudeDegrees>
              <LongitudeDegrees>-3.37193780578672885894775390625</LongitudeDegrees>
            </Position>
            <AltitudeMeters>3189</AltitudeMeters>
            <DistanceMeters>21229.040437729</DistanceMeters>
          </Trackpoint>
          <Trackpoint>
            <Time>2019-07-15T14:43:24.000Z</Time>
            <Position>
              <LatitudeDegrees>37.050404213368892669677734375</LatitudeDegrees>
              <LongitudeDegrees>-3.37194182910025119781494140625</LongitudeDegrees>
            </Position>
            <AltitudeMeters>3189</AltitudeMeters>
            <DistanceMeters>21230.188649887</DistanceMeters>
          </Trackpoint>
          <Trackpoint>
            <Time>2019-07-15T14:43:25.000Z</Time>
            <Position>
              <LatitudeDegrees>37.0504141040146350860595703125</LatitudeDegrees>
              <LongitudeDegrees>-3.3719459362328052520751953125</LongitudeDegrees>
            </Position>
            <AltitudeMeters>3189.199951171875</AltitudeMeters>
            <DistanceMeters>21231.352484698</DistanceMeters>
          </Trackpoint>
          <Trackpoint>
            <Time>2019-07-15T14:43:28.000Z</Time>
            <Position>
              <LatitudeDegrees>37.05043950118124485015869140625</LatitudeDegrees>
              <LongitudeDegrees>-3.37195985019207000732421875</LongitudeDegrees>
            </Position>
            <AltitudeMeters>3189.199951171875</AltitudeMeters>
            <DistanceMeters>21234.437561775</DistanceMeters>
          </Trackpoint>
          <Trackpoint>
            <Time>2019-07-15T14:43:29.000Z</Time>
            <Position>
              <LatitudeDegrees>37.0504526607692241668701171875</LatitudeDegrees>
              <LongitudeDegrees>-3.37196798063814640045166015625</LongitudeDegrees>
            </Position>
            <AltitudeMeters>3189.199951171875</AltitudeMeters>
            <DistanceMeters>21236.072463187</DistanceMeters>
          </Trackpoint>
          <Trackpoint>
            <Time>2019-07-15T14:43:30.000Z</Time>
            <Position>
              <LatitudeDegrees>37.05046422779560089111328125</LatitudeDegrees>
              <LongitudeDegrees>-3.3719751052558422088623046875</LongitudeDegrees>
            </Position>
            <AltitudeMeters>3189.199951171875</AltitudeMeters>
            <DistanceMeters>21237.510478314</DistanceMeters>
          </Trackpoint>
          <Trackpoint>
            <Time>2019-07-15T14:43:35.000Z</Time>
            <Position>
              <LatitudeDegrees>37.050506137311458587646484375</LatitudeDegrees>
              <LongitudeDegrees>-3.37199748493731021881103515625</LongitudeDegrees>
            </Position>
            <AltitudeMeters>3189.800048828125</AltitudeMeters>
            <DistanceMeters>21242.581736315</DistanceMeters>
          </Trackpoint>
          <Trackpoint>
            <Time>2019-07-15T14:43:41.000Z</Time>
            <Position>
              <LatitudeDegrees>37.050542347133159637451171875</LatitudeDegrees>
              <LongitudeDegrees>-3.37202581577003002166748046875</LongitudeDegrees>
            </Position>
            <AltitudeMeters>3190.39990234375</AltitudeMeters>
            <DistanceMeters>21247.333072034</DistanceMeters>
          </Trackpoint>
          <Trackpoint>
            <Time>2019-07-15T14:44:00.000Z</Time>
            <Position>
              <LatitudeDegrees>37.05073839984834194183349609375</LatitudeDegrees>
              <LongitudeDegrees>-3.37213293649256229400634765625</LongitudeDegrees>
            </Position>
            <AltitudeMeters>3190</AltitudeMeters>
            <DistanceMeters>21271.138544249</DistanceMeters>
          </Trackpoint>
          <Trackpoint>
            <Time>2019-07-15T14:44:18.000Z</Time>
            <Position>
              <LatitudeDegrees>37.05092498101294040679931640625</LatitudeDegrees>
              <LongitudeDegrees>-3.37222941219806671142578125</LongitudeDegrees>
            </Position>
            <AltitudeMeters>3190.60009765625</AltitudeMeters>
            <DistanceMeters>21293.604274431</DistanceMeters>
          </Trackpoint>
          <Trackpoint>
            <Time>2019-07-15T14:44:35.000Z</Time>
            <Position>
              <LatitudeDegrees>37.05109965987503528594970703125</LatitudeDegrees>
              <LongitudeDegrees>-3.372321613132953643798828125</LongitudeDegrees>
            </Position>
            <AltitudeMeters>3192</AltitudeMeters>
            <DistanceMeters>21314.7010611</DistanceMeters>
          </Trackpoint>
          <Trackpoint>
            <Time>2019-07-15T14:44:48.000Z</Time>
            <Position>
              <LatitudeDegrees>37.05124885775148868560791015625</LatitudeDegrees>
              <LongitudeDegrees>-3.37237198837101459503173828125</LongitudeDegrees>
            </Position>
            <AltitudeMeters>3190.60009765625</AltitudeMeters>
            <DistanceMeters>21331.89905877</DistanceMeters>
          </Trackpoint>
          <Trackpoint>
            <Time>2019-07-15T14:44:51.000Z</Time>
            <Position>
              <LatitudeDegrees>37.0512797869741916656494140625</LatitudeDegrees>
              <LongitudeDegrees>-3.3723883330821990966796875</LongitudeDegrees>
            </Position>
            <AltitudeMeters>3192</AltitudeMeters>
            <DistanceMeters>21335.634225179</DistanceMeters>
          </Trackpoint>
          <Trackpoint>
            <Time>2019-07-15T14:45:09.000Z</Time>
            <Position>
              <LatitudeDegrees>37.05146511085331439971923828125</LatitudeDegrees>
              <LongitudeDegrees>-3.37243258953094482421875</LongitudeDegrees>
            </Position>
            <AltitudeMeters>3192.60009765625</AltitudeMeters>
            <DistanceMeters>21356.632548986</DistanceMeters>
          </Trackpoint>
          <Trackpoint>
            <Time>2019-07-15T14:45:27.000Z</Time>
            <Position>
              <LatitudeDegrees>37.0516522787511348724365234375</LatitudeDegrees>
              <LongitudeDegrees>-3.3723905123770236968994140625</LongitudeDegrees>
            </Position>
            <AltitudeMeters>3192.39990234375</AltitudeMeters>
            <DistanceMeters>21377.797283146</DistanceMeters>
          </Trackpoint>
          <Trackpoint>
            <Time>2019-07-15T14:45:43.000Z</Time>
            <Position>
              <LatitudeDegrees>37.051824443042278289794921875</LatitudeDegrees>
              <LongitudeDegrees>-3.3723123930394649505615234375</LongitudeDegrees>
            </Position>
            <AltitudeMeters>3191.39990234375</AltitudeMeters>
            <DistanceMeters>21398.177356652</DistanceMeters>
          </Trackpoint>
          <Trackpoint>
            <Time>2019-07-15T14:45:59.000Z</Time>
            <Position>
              <LatitudeDegrees>37.05200976692140102386474609375</LatitudeDegrees>
              <LongitudeDegrees>-3.37224952876567840576171875</LongitudeDegrees>
            </Position>
            <AltitudeMeters>3191.800048828125</AltitudeMeters>
            <DistanceMeters>21419.546961137</DistanceMeters>
          </Trackpoint>
          <Trackpoint>
            <Time>2019-07-15T14:47:14.000Z</Time>
            <Position>
              <LatitudeDegrees>37.05214605666697025299072265625</LatitudeDegrees>
              <LongitudeDegrees>-3.37219211272895336151123046875</LongitudeDegrees>
            </Position>
            <AltitudeMeters>3193.800048828125</AltitudeMeters>
            <DistanceMeters>21435.550430389</DistanceMeters>
          </Trackpoint>
          <Trackpoint>
            <Time>2019-07-15T14:47:31.000Z</Time>
            <Position>
              <LatitudeDegrees>37.05233666114509105682373046875</LatitudeDegrees>
              <LongitudeDegrees>-3.37213285267353057861328125</LongitudeDegrees>
            </Position>
            <AltitudeMeters>3193.800048828125</AltitudeMeters>
            <DistanceMeters>21457.408640395</DistanceMeters>
          </Trackpoint>
          <Trackpoint>
            <Time>2019-07-15T14:47:47.000Z</Time>
            <Position>
              <LatitudeDegrees>37.05251385457813739776611328125</LatitudeDegrees>
              <LongitudeDegrees>-3.3720414899289608001708984375</LongitudeDegrees>
            </Position>
            <AltitudeMeters>3194</AltitudeMeters>
            <DistanceMeters>21478.735099554</DistanceMeters>
          </Trackpoint>
          <Trackpoint>
            <Time>2019-07-15T14:47:57.000Z</Time>
            <Position>
              <LatitudeDegrees>37.05261175520718097686767578125</LatitudeDegrees>
              <LongitudeDegrees>-3.3719801343977451324462890625</LongitudeDegrees>
            </Position>
            <AltitudeMeters>3194.39990234375</AltitudeMeters>
            <DistanceMeters>21490.918547202</DistanceMeters>
          </Trackpoint>
          <Trackpoint>
            <Time>2019-07-15T14:47:58.000Z</Time>
            <Position>
              <LatitudeDegrees>37.0526213943958282470703125</LatitudeDegrees>
              <LongitudeDegrees>-3.37197753600776195526123046875</LongitudeDegrees>
            </Position>
            <AltitudeMeters>3194.199951171875</AltitudeMeters>
            <DistanceMeters>21492.018560949</DistanceMeters>
          </Trackpoint>
          <Trackpoint>
            <Time>2019-07-15T14:48:16.000Z</Time>
            <Position>
              <LatitudeDegrees>37.0528036169707775115966796875</LatitudeDegrees>
              <LongitudeDegrees>-3.371850214898586273193359375</LongitudeDegrees>
            </Position>
            <AltitudeMeters>3194.39990234375</AltitudeMeters>
            <DistanceMeters>21515.240492502</DistanceMeters>
          </Trackpoint>
          <Trackpoint>
            <Time>2019-07-15T14:48:33.000Z</Time>
            <Position>
              <LatitudeDegrees>37.0529719255864620208740234375</LatitudeDegrees>
              <LongitudeDegrees>-3.3717323653399944305419921875</LongitudeDegrees>
            </Position>
            <AltitudeMeters>3193.800048828125</AltitudeMeters>
            <DistanceMeters>21536.700125269</DistanceMeters>
          </Trackpoint>
          <Trackpoint>
            <Time>2019-07-15T14:48:51.000Z</Time>
            <Position>
              <LatitudeDegrees>37.05314509570598602294921875</LatitudeDegrees>
              <LongitudeDegrees>-3.37161728180944919586181640625</LongitudeDegrees>
            </Position>
            <AltitudeMeters>3194</AltitudeMeters>
            <DistanceMeters>21558.517398002</DistanceMeters>
          </Trackpoint>
          <Trackpoint>
            <Time>2019-07-15T14:49:08.000Z</Time>
            <Position>
              <LatitudeDegrees>37.05333963967859745025634765625</LatitudeDegrees>
              <LongitudeDegrees>-3.37153128348290920257568359375</LongitudeDegrees>
            </Position>
            <AltitudeMeters>3194.800048828125</AltitudeMeters>
            <DistanceMeters>21581.478495169</DistanceMeters>
          </Trackpoint>
          <Trackpoint>
            <Time>2019-07-15T14:49:24.000Z</Time>
            <Position>
              <LatitudeDegrees>37.05352923832833766937255859375</LatitudeDegrees>
              <LongitudeDegrees>-3.37146707810461521148681640625</LongitudeDegrees>
            </Position>
            <AltitudeMeters>3194.800048828125</AltitudeMeters>
            <DistanceMeters>21603.338151049</DistanceMeters>
          </Trackpoint>
          <Trackpoint>
            <Time>2019-07-15T14:49:41.000Z</Time>
            <Position>
              <LatitudeDegrees>37.0537219382822513580322265625</LatitudeDegrees>
              <LongitudeDegrees>-3.3714111708104610443115234375</LongitudeDegrees>
            </Position>
            <AltitudeMeters>3195.39990234375</AltitudeMeters>
            <DistanceMeters>21625.353402421</DistanceMeters>
          </Trackpoint>
          <Trackpoint>
            <Time>2019-07-15T14:50:00.000Z</Time>
            <Position>
              <LatitudeDegrees>37.05391488969326019287109375</LatitudeDegrees>
              <LongitudeDegrees>-3.371360041201114654541015625</LongitudeDegrees>
            </Position>
            <AltitudeMeters>3195.800048828125</AltitudeMeters>
            <DistanceMeters>21647.304162066</DistanceMeters>
          </Trackpoint>
          <Trackpoint>
            <Time>2019-07-15T14:50:19.000Z</Time>
            <Position>
              <LatitudeDegrees>37.054115720093250274658203125</LatitudeDegrees>
              <LongitudeDegrees>-3.37131000123918056488037109375</LongitudeDegrees>
            </Position>
            <AltitudeMeters>3194.60009765625</AltitudeMeters>
            <DistanceMeters>21670.094532115</DistanceMeters>
          </Trackpoint>
          <Trackpoint>
            <Time>2019-07-15T14:50:22.000Z</Time>
            <Position>
              <LatitudeDegrees>37.0541475713253021240234375</LatitudeDegrees>
              <LongitudeDegrees>-3.37130597792565822601318359375</LongitudeDegrees>
            </Position>
            <AltitudeMeters>3194.800048828125</AltitudeMeters>
            <DistanceMeters>21673.657717134</DistanceMeters>
          </Trackpoint>
          <Trackpoint>
            <Time>2019-07-15T14:50:23.000Z</Time>
            <Position>
              <LatitudeDegrees>37.05415804870426654815673828125</LatitudeDegrees>
              <LongitudeDegrees>-3.3713055588304996490478515625</LongitudeDegrees>
            </Position>
            <AltitudeMeters>3195</AltitudeMeters>
            <DistanceMeters>21674.821551945</DistanceMeters>
          </Trackpoint>
          <Trackpoint>
            <Time>2019-07-15T14:50:24.000Z</Time>
            <Position>
              <LatitudeDegrees>37.05416978336870670318603515625</LatitudeDegrees>
              <LongitudeDegrees>-3.37130463682115077972412109375</LongitudeDegrees>
            </Position>
            <AltitudeMeters>3195</AltitudeMeters>
            <DistanceMeters>21676.131404808</DistanceMeters>
          </Trackpoint>
          <Trackpoint>
            <Time>2019-07-15T14:50:25.000Z</Time>
            <Position>
              <LatitudeDegrees>37.05418067984282970428466796875</LatitudeDegrees>
              <LongitudeDegrees>-3.37130212225019931793212890625</LongitudeDegrees>
            </Position>
            <AltitudeMeters>3195</AltitudeMeters>
            <DistanceMeters>21677.363091799</DistanceMeters>
          </Trackpoint>
          <Trackpoint>
            <Time>2019-07-15T14:50:26.000Z</Time>
            <Position>
              <LatitudeDegrees>37.05419073812663555145263671875</LatitudeDegrees>
              <LongitudeDegrees>-3.37130069732666015625</LongitudeDegrees>
            </Position>
            <AltitudeMeters>3194.60009765625</AltitudeMeters>
            <DistanceMeters>21678.487463046</DistanceMeters>
          </Trackpoint>
          <Trackpoint>
            <Time>2019-07-15T14:50:27.000Z</Time>
            <Position>
              <LatitudeDegrees>37.05420247279107570648193359375</LatitudeDegrees>
              <LongitudeDegrees>-3.3712966740131378173828125</LongitudeDegrees>
            </Position>
            <AltitudeMeters>3194.60009765625</AltitudeMeters>
            <DistanceMeters>21679.841385318</DistanceMeters>
          </Trackpoint>
          <Trackpoint>
            <Time>2019-07-15T14:50:28.000Z</Time>
            <Position>
              <LatitudeDegrees>37.05421705730259418487548828125</LatitudeDegrees>
              <LongitudeDegrees>-3.371292650699615478515625</LongitudeDegrees>
            </Position>
            <AltitudeMeters>3194.800048828125</AltitudeMeters>
            <DistanceMeters>21681.503673919</DistanceMeters>
          </Trackpoint>
          <Trackpoint>
            <Time>2019-07-15T14:50:29.000Z</Time>
            <Position>
              <LatitudeDegrees>37.0542312227189540863037109375</LatitudeDegrees>
              <LongitudeDegrees>-3.37129021994769573211669921875</LongitudeDegrees>
            </Position>
            <AltitudeMeters>3194.800048828125</AltitudeMeters>
            <DistanceMeters>21683.093774986</DistanceMeters>
          </Trackpoint>
          <Trackpoint>
            <Time>2019-07-15T14:50:30.000Z</Time>
            <Position>
              <LatitudeDegrees>37.05424488522112369537353515625</LatitudeDegrees>
              <LongitudeDegrees>-3.37128552608191967010498046875</LongitudeDegrees>
            </Position>
            <AltitudeMeters>3194.39990234375</AltitudeMeters>
            <DistanceMeters>21684.669614769</DistanceMeters>
          </Trackpoint>
          <Trackpoint>
            <Time>2019-07-15T14:50:31.000Z</Time>
            <Position>
              <LatitudeDegrees>37.054258547723293304443359375</LatitudeDegrees>
              <LongitudeDegrees>-3.37128267623484134674072265625</LongitudeDegrees>
            </Position>
            <AltitudeMeters>3194.39990234375</AltitudeMeters>
            <DistanceMeters>21686.207756514</DistanceMeters>
          </Trackpoint>
          <Trackpoint>
            <Time>2019-07-15T14:50:50.000Z</Time>
            <Position>
              <LatitudeDegrees>37.0544521696865558624267578125</LatitudeDegrees>
              <LongitudeDegrees>-3.37125283665955066680908203125</LongitudeDegrees>
            </Position>
            <AltitudeMeters>3194.199951171875</AltitudeMeters>
            <DistanceMeters>21707.920892887</DistanceMeters>
          </Trackpoint>
          <Trackpoint>
            <Time>2019-07-15T14:50:54.000Z</Time>
            <Position>
              <LatitudeDegrees>37.054501958191394805908203125</LatitudeDegrees>
              <LongitudeDegrees>-3.37125032208859920501708984375</LongitudeDegrees>
            </Position>
            <AltitudeMeters>3194.39990234375</AltitudeMeters>
            <DistanceMeters>21713.466741818</DistanceMeters>
          </Trackpoint>
          <Trackpoint>
            <Time>2019-07-15T14:50:55.000Z</Time>
            <Position>
              <LatitudeDegrees>37.0545135252177715301513671875</LatitudeDegrees>
              <LongitudeDegrees>-3.3712455444037914276123046875</LongitudeDegrees>
            </Position>
            <AltitudeMeters>3194.199951171875</AltitudeMeters>
            <DistanceMeters>21714.82066409</DistanceMeters>
          </Trackpoint>
          <Trackpoint>
            <Time>2019-07-15T14:50:56.000Z</Time>
            <Position>
              <LatitudeDegrees>37.0545266009867191314697265625</LatitudeDegrees>
              <LongitudeDegrees>-3.371242024004459381103515625</LongitudeDegrees>
            </Position>
            <AltitudeMeters>3194</AltitudeMeters>
            <DistanceMeters>21716.308067441</DistanceMeters>
          </Trackpoint>
          <Trackpoint>
            <Time>2019-07-15T14:51:04.000Z</Time>
            <Position>
              <LatitudeDegrees>37.05463246442377567291259765625</LatitudeDegrees>
              <LongitudeDegrees>-3.3712187223136425018310546875</LongitudeDegrees>
            </Position>
            <AltitudeMeters>3194.39990234375</AltitudeMeters>
            <DistanceMeters>21728.270870268</DistanceMeters>
          </Trackpoint>
          <Trackpoint>
            <Time>2019-07-15T14:51:31.000Z</Time>
            <Position>
              <LatitudeDegrees>37.05484536476433277130126953125</LatitudeDegrees>
              <LongitudeDegrees>-3.37124596349895000457763671875</LongitudeDegrees>
            </Position>
            <AltitudeMeters>3195.199951171875</AltitudeMeters>
            <DistanceMeters>21752.090373476</DistanceMeters>
          </Trackpoint>
          <Trackpoint>
            <Time>2019-07-15T14:51:34.000Z</Time>
            <Position>
              <LatitudeDegrees>37.05488224513828754425048828125</LatitudeDegrees>
              <LongitudeDegrees>-3.37125685997307300567626953125</LongitudeDegrees>
            </Position>
            <AltitudeMeters>3193.60009765625</AltitudeMeters>
            <DistanceMeters>21756.308103979</DistanceMeters>
          </Trackpoint>
          <Trackpoint>
            <Time>2019-07-15T14:51:44.000Z</Time>
            <Position>
              <LatitudeDegrees>37.05498919822275638580322265625</LatitudeDegrees>
              <LongitudeDegrees>-3.3712830953299999237060546875</LongitudeDegrees>
            </Position>
            <AltitudeMeters>3192.60009765625</AltitudeMeters>
            <DistanceMeters>21768.438069584</DistanceMeters>
          </Trackpoint>
          <Trackpoint>
            <Time>2019-07-15T14:51:45.000Z</Time>
            <Position>
              <LatitudeDegrees>37.05500118434429168701171875</LatitudeDegrees>
              <LongitudeDegrees>-3.3712867833673954010009765625</LongitudeDegrees>
            </Position>
            <AltitudeMeters>3192.39990234375</AltitudeMeters>
            <DistanceMeters>21769.811854857</DistanceMeters>
          </Trackpoint>
          <Trackpoint>
            <Time>2019-07-15T14:51:46.000Z</Time>
            <Position>
              <LatitudeDegrees>37.05501266755163669586181640625</LatitudeDegrees>
              <LongitudeDegrees>-3.37129105813801288604736328125</LongitudeDegrees>
            </Position>
            <AltitudeMeters>3192.39990234375</AltitudeMeters>
            <DistanceMeters>21771.142228858</DistanceMeters>
          </Trackpoint>
          <Trackpoint>
            <Time>2019-07-15T14:52:02.000Z</Time>
            <Position>
              <LatitudeDegrees>37.05519472248852252960205078125</LatitudeDegrees>
              <LongitudeDegrees>-3.37135509587824344635009765625</LongitudeDegrees>
            </Position>
            <AltitudeMeters>3190</AltitudeMeters>
            <DistanceMeters>21792.188447277</DistanceMeters>
          </Trackpoint>
          <Trackpoint>
            <Time>2019-07-15T14:52:04.000Z</Time>
            <Position>
              <LatitudeDegrees>37.05521534197032451629638671875</LatitudeDegrees>
              <LongitudeDegrees>-3.37135995738208293914794921875</LongitudeDegrees>
            </Position>
            <AltitudeMeters>3189.60009765625</AltitudeMeters>
            <DistanceMeters>21794.523862908</DistanceMeters>
          </Trackpoint>
          <Trackpoint>
            <Time>2019-07-15T14:52:19.000Z</Time>
            <Position>
              <LatitudeDegrees>37.05539052374660968780517578125</LatitudeDegrees>
              <LongitudeDegrees>-3.3713960833847522735595703125</LongitudeDegrees>
            </Position>
            <AltitudeMeters>3189</AltitudeMeters>
            <DistanceMeters>21814.284164918</DistanceMeters>
          </Trackpoint>
          <Trackpoint>
            <Time>2019-07-15T14:52:20.000Z</Time>
            <Position>
              <LatitudeDegrees>37.05540217459201812744140625</LatitudeDegrees>
              <LongitudeDegrees>-3.37139633484184741973876953125</LongitudeDegrees>
            </Position>
            <AltitudeMeters>3189</AltitudeMeters>
            <DistanceMeters>21815.580156515</DistanceMeters>
          </Trackpoint>
          <Trackpoint>
            <Time>2019-07-15T14:52:21.000Z</Time>
            <Position>
              <LatitudeDegrees>37.05541365779936313629150390625</LatitudeDegrees>
              <LongitudeDegrees>-3.3713934011757373809814453125</LongitudeDegrees>
            </Position>
            <AltitudeMeters>3188.800048828125</AltitudeMeters>
            <DistanceMeters>21816.890009378</DistanceMeters>
          </Trackpoint>
          <Trackpoint>
            <Time>2019-07-15T14:52:22.000Z</Time>
            <Position>
              <LatitudeDegrees>37.0554231293499469757080078125</LatitudeDegrees>
              <LongitudeDegrees>-3.37139331735670566558837890625</LongitudeDegrees>
            </Position>
            <AltitudeMeters>3188.800048828125</AltitudeMeters>
            <DistanceMeters>21817.948182086</DistanceMeters>
          </Trackpoint>
          <Trackpoint>
            <Time>2019-07-15T14:52:23.000Z</Time>
            <Position>
              <LatitudeDegrees>37.05543360672891139984130859375</LatitudeDegrees>
              <LongitudeDegrees>-3.3713907189667224884033203125</LongitudeDegrees>
            </Position>
            <AltitudeMeters>3188.60009765625</AltitudeMeters>
            <DistanceMeters>21819.138863404</DistanceMeters>
          </Trackpoint>
          <Trackpoint>
            <Time>2019-07-15T14:52:24.000Z</Time>
            <Position>
              <LatitudeDegrees>37.05544534139335155487060546875</LatitudeDegrees>
              <LongitudeDegrees>-3.3713873662054538726806640625</LongitudeDegrees>
            </Position>
            <AltitudeMeters>3188.39990234375</AltitudeMeters>
            <DistanceMeters>21820.4760078</DistanceMeters>
          </Trackpoint>
          <Trackpoint>
            <Time>2019-07-15T14:52:27.000Z</Time>
            <Position>
              <LatitudeDegrees>37.05548004247248172760009765625</LatitudeDegrees>
              <LongitudeDegrees>-3.37138610891997814178466796875</LongitudeDegrees>
            </Position>
            <AltitudeMeters>3188.39990234375</AltitudeMeters>
            <DistanceMeters>21824.338349873</DistanceMeters>
          </Trackpoint>
          <Trackpoint>
            <Time>2019-07-15T14:52:28.000Z</Time>
            <Position>
              <LatitudeDegrees>37.055492363870143890380859375</LatitudeDegrees>
              <LongitudeDegrees>-3.37138409726321697235107421875</LongitudeDegrees>
            </Position>
            <AltitudeMeters>3188.39990234375</AltitudeMeters>
            <DistanceMeters>21825.721959719</DistanceMeters>
          </Trackpoint>
          <Trackpoint>
            <Time>2019-07-15T14:52:29.000Z</Time>
            <Position>
              <LatitudeDegrees>37.05550535582005977630615234375</LatitudeDegrees>
              <LongitudeDegrees>-3.37138242088258266448974609375</LongitudeDegrees>
            </Position>
            <AltitudeMeters>3188.39990234375</AltitudeMeters>
            <DistanceMeters>21827.181787805</DistanceMeters>
          </Trackpoint>
          <Trackpoint>
            <Time>2019-07-15T14:52:30.000Z</Time>
            <Position>
              <LatitudeDegrees>37.05551792867481708526611328125</LatitudeDegrees>
              <LongitudeDegrees>-3.37138225324451923370361328125</LongitudeDegrees>
            </Position>
            <AltitudeMeters>3188.39990234375</AltitudeMeters>
            <DistanceMeters>21828.584840428</DistanceMeters>
          </Trackpoint>
          <Trackpoint>
            <Time>2019-07-15T14:52:31.000Z</Time>
            <Position>
              <LatitudeDegrees>37.0555294118821620941162109375</LatitudeDegrees>
              <LongitudeDegrees>-3.37138409726321697235107421875</LongitudeDegrees>
            </Position>
            <AltitudeMeters>3188.39990234375</AltitudeMeters>
            <DistanceMeters>21829.873845497</DistanceMeters>
          </Trackpoint>
          <Trackpoint>
            <Time>2019-07-15T14:52:32.000Z</Time>
            <Position>
              <LatitudeDegrees>37.05553955398499965667724609375</LatitudeDegrees>
              <LongitudeDegrees>-3.37138912640511989593505859375</LongitudeDegrees>
            </Position>
            <AltitudeMeters>3188.39990234375</AltitudeMeters>
            <DistanceMeters>21831.090781213</DistanceMeters>
          </Trackpoint>
          <Trackpoint>
            <Time>2019-07-15T14:52:33.000Z</Time>
            <Position>
              <LatitudeDegrees>37.05554810352623462677001953125</LatitudeDegrees>
              <LongitudeDegrees>-3.3713932335376739501953125</LongitudeDegrees>
            </Position>
            <AltitudeMeters>3188.39990234375</AltitudeMeters>
            <DistanceMeters>21832.114250249</DistanceMeters>
          </Trackpoint>
          <Trackpoint>
            <Time>2019-07-15T14:52:44.000Z</Time>
            <Position>
              <LatitudeDegrees>37.0556638576090335845947265625</LatitudeDegrees>
              <LongitudeDegrees>-3.3714379929006099700927734375</LongitudeDegrees>
            </Position>
            <AltitudeMeters>3185.60009765625</AltitudeMeters>
            <DistanceMeters>21845.597332202</DistanceMeters>
          </Trackpoint>
          <Trackpoint>
            <Time>2019-07-15T14:52:45.000Z</Time>
            <Position>
              <LatitudeDegrees>37.055670730769634246826171875</LatitudeDegrees>
              <LongitudeDegrees>-3.371459282934665679931640625</LongitudeDegrees>
            </Position>
            <AltitudeMeters>3185.60009765625</AltitudeMeters>
            <DistanceMeters>21847.637642287</DistanceMeters>
          </Trackpoint>
          <Trackpoint>
            <Time>2019-07-15T14:52:46.000Z</Time>
            <Position>
              <LatitudeDegrees>37.05568154342472553253173828125</LatitudeDegrees>
              <LongitudeDegrees>-3.37147562764585018157958984375</LongitudeDegrees>
            </Position>
            <AltitudeMeters>3185.800048828125</AltitudeMeters>
            <DistanceMeters>21849.52386871</DistanceMeters>
          </Trackpoint>
          <Trackpoint>
            <Time>2019-07-15T14:52:47.000Z</Time>
            <Position>
              <LatitudeDegrees>37.0556926913559436798095703125</LatitudeDegrees>
              <LongitudeDegrees>-3.37148702703416347503662109375</LongitudeDegrees>
            </Position>
            <AltitudeMeters>3186</AltitudeMeters>
            <DistanceMeters>21851.125287365</DistanceMeters>
          </Trackpoint>
          <Trackpoint>
            <Time>2019-07-15T14:52:48.000Z</Time>
            <Position>
              <LatitudeDegrees>37.05570601858198642730712890625</LatitudeDegrees>
              <LongitudeDegrees>-3.37149088270962238311767578125</LongitudeDegrees>
            </Position>
            <AltitudeMeters>3185.800048828125</AltitudeMeters>
            <DistanceMeters>21852.65164241</DistanceMeters>
          </Trackpoint>
          <Trackpoint>
            <Time>2019-07-15T14:53:04.000Z</Time>
            <Position>
              <LatitudeDegrees>37.05589234828948974609375</LatitudeDegrees>
              <LongitudeDegrees>-3.371506221592426300048828125</LongitudeDegrees>
            </Position>
            <AltitudeMeters>3184.39990234375</AltitudeMeters>
            <DistanceMeters>21873.435355667</DistanceMeters>
          </Trackpoint>
          <Trackpoint>
            <Time>2019-07-15T14:53:08.000Z</Time>
            <Position>
              <LatitudeDegrees>37.05593232996761798858642578125</LatitudeDegrees>
              <LongitudeDegrees>-3.3715192973613739013671875</LongitudeDegrees>
            </Position>
            <AltitudeMeters>3184</AltitudeMeters>
            <DistanceMeters>21878.034098869</DistanceMeters>
          </Trackpoint>
          <Trackpoint>
            <Time>2019-07-15T14:53:09.000Z</Time>
            <Position>
              <LatitudeDegrees>37.05594238825142383575439453125</LatitudeDegrees>
              <LongitudeDegrees>-3.3715231530368328094482421875</LongitudeDegrees>
            </Position>
            <AltitudeMeters>3184</AltitudeMeters>
            <DistanceMeters>21879.205666886</DistanceMeters>
          </Trackpoint>
          <Trackpoint>
            <Time>2019-07-15T14:53:10.000Z</Time>
            <Position>
              <LatitudeDegrees>37.0559532009065151214599609375</LatitudeDegrees>
              <LongitudeDegrees>-3.3715248294174671173095703125</LongitudeDegrees>
            </Position>
            <AltitudeMeters>3184.39990234375</AltitudeMeters>
            <DistanceMeters>21880.422602602</DistanceMeters>
          </Trackpoint>
          <Trackpoint>
            <Time>2019-07-15T14:53:11.000Z</Time>
            <Position>
              <LatitudeDegrees>37.055964432656764984130859375</LatitudeDegrees>
              <LongitudeDegrees>-3.3715291880071163177490234375</LongitudeDegrees>
            </Position>
            <AltitudeMeters>3184.39990234375</AltitudeMeters>
            <DistanceMeters>21881.732455466</DistanceMeters>
          </Trackpoint>
          <Trackpoint>
            <Time>2019-07-15T14:53:12.000Z</Time>
            <Position>
              <LatitudeDegrees>37.05597708933055400848388671875</LatitudeDegrees>
              <LongitudeDegrees>-3.37153983302414417266845703125</LongitudeDegrees>
            </Position>
            <AltitudeMeters>3184.39990234375</AltitudeMeters>
            <DistanceMeters>21883.427024529</DistanceMeters>
          </Trackpoint>
          <Trackpoint>
            <Time>2019-07-15T14:53:13.000Z</Time>
            <Position>
              <LatitudeDegrees>37.05599100328981876373291015625</LatitudeDegrees>
              <LongitudeDegrees>-3.37154620327055454254150390625</LongitudeDegrees>
            </Position>
            <AltitudeMeters>3184</AltitudeMeters>
            <DistanceMeters>21885.078412759</DistanceMeters>
          </Trackpoint>
          <Trackpoint>
            <Time>2019-07-15T14:53:14.000Z</Time>
            <Position>
              <LatitudeDegrees>37.0560055039823055267333984375</LatitudeDegrees>
              <LongitudeDegrees>-3.3715476281940937042236328125</LongitudeDegrees>
            </Position>
            <AltitudeMeters>3183.800048828125</AltitudeMeters>
            <DistanceMeters>21886.696659393</DistanceMeters>
          </Trackpoint>
          <Trackpoint>
            <Time>2019-07-15T14:53:15.000Z</Time>
            <Position>
              <LatitudeDegrees>37.05602101050317287445068359375</LatitudeDegrees>
              <LongitudeDegrees>-3.37155056186020374298095703125</LongitudeDegrees>
            </Position>
            <AltitudeMeters>3183.800048828125</AltitudeMeters>
            <DistanceMeters>21888.44370428</DistanceMeters>
          </Trackpoint>
          <Trackpoint>
            <Time>2019-07-15T14:53:32.000Z</Time>
            <Position>
              <LatitudeDegrees>37.0561982877552509307861328125</LatitudeDegrees>
              <LongitudeDegrees>-3.371652401983737945556640625</LongitudeDegrees>
            </Position>
            <AltitudeMeters>3181.199951171875</AltitudeMeters>
            <DistanceMeters>21910.149353508</DistanceMeters>
          </Trackpoint>
          <Trackpoint>
            <Time>2019-07-15T14:53:42.000Z</Time>
            <Position>
              <LatitudeDegrees>37.0562982000410556793212890625</LatitudeDegrees>
              <LongitudeDegrees>-3.3717149309813976287841796875</LongitudeDegrees>
            </Position>
            <AltitudeMeters>3180.199951171875</AltitudeMeters>
            <DistanceMeters>21922.57934176</DistanceMeters>
          </Trackpoint>
          <Trackpoint>
            <Time>2019-07-15T14:53:43.000Z</Time>
            <Position>
              <LatitudeDegrees>37.056309096515178680419921875</LatitudeDegrees>
              <LongitudeDegrees>-3.37171551771461963653564453125</LongitudeDegrees>
            </Position>
            <AltitudeMeters>3180.199951171875</AltitudeMeters>
            <DistanceMeters>21923.788834374</DistanceMeters>
          </Trackpoint>
          <Trackpoint>
            <Time>2019-07-15T14:53:44.000Z</Time>
            <Position>
              <LatitudeDegrees>37.05631940625607967376708984375</LatitudeDegrees>
              <LongitudeDegrees>-3.37171987630426883697509765625</LongitudeDegrees>
            </Position>
            <AltitudeMeters>3180</AltitudeMeters>
            <DistanceMeters>21924.998326989</DistanceMeters>
          </Trackpoint>
          <Trackpoint>
            <Time>2019-07-15T14:53:45.000Z</Time>
            <Position>
              <LatitudeDegrees>37.056328542530536651611328125</LatitudeDegrees>
              <LongitudeDegrees>-3.3717273361980915069580078125</LongitudeDegrees>
            </Position>
            <AltitudeMeters>3180</AltitudeMeters>
            <DistanceMeters>21926.207819603</DistanceMeters>
          </Trackpoint>
          <Trackpoint>
            <Time>2019-07-15T14:53:46.000Z</Time>
            <Position>
              <LatitudeDegrees>37.05633885227143764495849609375</LatitudeDegrees>
              <LongitudeDegrees>-3.371735550463199615478515625</LongitudeDegrees>
            </Position>
            <AltitudeMeters>3180</AltitudeMeters>
            <DistanceMeters>21927.568395095</DistanceMeters>
          </Trackpoint>
          <Trackpoint>
            <Time>2019-07-15T14:53:47.000Z</Time>
            <Position>
              <LatitudeDegrees>37.0563501678407192230224609375</LatitudeDegrees>
              <LongitudeDegrees>-3.37174150161445140838623046875</LongitudeDegrees>
            </Position>
            <AltitudeMeters>3179.800048828125</AltitudeMeters>
            <DistanceMeters>21928.935591432</DistanceMeters>
          </Trackpoint>
          <Trackpoint>
            <Time>2019-07-15T14:53:48.000Z</Time>
            <Position>
              <LatitudeDegrees>37.0563608966767787933349609375</LatitudeDegrees>
              <LongitudeDegrees>-3.37174552492797374725341796875</LongitudeDegrees>
            </Position>
            <AltitudeMeters>3179.800048828125</AltitudeMeters>
            <DistanceMeters>21930.178226967</DistanceMeters>
          </Trackpoint>
          <Trackpoint>
            <Time>2019-07-15T14:53:49.000Z</Time>
            <Position>
              <LatitudeDegrees>37.05637053586542606353759765625</LatitudeDegrees>
              <LongitudeDegrees>-3.37175055406987667083740234375</LongitudeDegrees>
            </Position>
            <AltitudeMeters>3179.800048828125</AltitudeMeters>
            <DistanceMeters>21931.334276842</DistanceMeters>
          </Trackpoint>
          <Trackpoint>
            <Time>2019-07-15T14:53:54.000Z</Time>
            <Position>
              <LatitudeDegrees>37.056417725980281829833984375</LatitudeDegrees>
              <LongitudeDegrees>-3.3717668987810611724853515625</LongitudeDegrees>
            </Position>
            <AltitudeMeters>3179.199951171875</AltitudeMeters>
            <DistanceMeters>21936.783211724</DistanceMeters>
          </Trackpoint>
          <Trackpoint>
            <Time>2019-07-15T14:54:12.000Z</Time>
            <Position>
              <LatitudeDegrees>37.0566098392009735107421875</LatitudeDegrees>
              <LongitudeDegrees>-3.3718403242528438568115234375</LongitudeDegrees>
            </Position>
            <AltitudeMeters>3176.60009765625</AltitudeMeters>
            <DistanceMeters>21959.138132671</DistanceMeters>
          </Trackpoint>
          <Trackpoint>
            <Time>2019-07-15T14:54:13.000Z</Time>
            <Position>
              <LatitudeDegrees>37.05662249587476253509521484375</LatitudeDegrees>
              <LongitudeDegrees>-3.37184317409992218017578125</LongitudeDegrees>
            </Position>
            <AltitudeMeters>3176.39990234375</AltitudeMeters>
            <DistanceMeters>21960.569854485</DistanceMeters>
          </Trackpoint>
          <Trackpoint>
            <Time>2019-07-15T14:54:30.000Z</Time>
            <Position>
              <LatitudeDegrees>37.05682382918894290924072265625</LatitudeDegrees>
              <LongitudeDegrees>-3.37191768921911716461181640625</LongitudeDegrees>
            </Position>
            <AltitudeMeters>3175.800048828125</AltitudeMeters>
            <DistanceMeters>21983.935607668</DistanceMeters>
          </Trackpoint>
          <Trackpoint>
            <Time>2019-07-15T14:54:47.000Z</Time>
            <Position>
              <LatitudeDegrees>37.05700437538325786590576171875</LatitudeDegrees>
              <LongitudeDegrees>-3.3719995804131031036376953125</LongitudeDegrees>
            </Position>
            <AltitudeMeters>3173.800048828125</AltitudeMeters>
            <DistanceMeters>22005.306691084</DistanceMeters>
          </Trackpoint>
          <Trackpoint>
            <Time>2019-07-15T14:55:52.000Z</Time>
            <Position>
              <LatitudeDegrees>37.05718006007373332977294921875</LatitudeDegrees>
              <LongitudeDegrees>-3.37204568088054656982421875</LongitudeDegrees>
            </Position>
            <AltitudeMeters>3172.60009765625</AltitudeMeters>
            <DistanceMeters>22025.284913699</DistanceMeters>
          </Trackpoint>
          <Trackpoint>
            <Time>2019-07-15T14:56:05.000Z</Time>
            <Position>
              <LatitudeDegrees>37.0572669804096221923828125</LatitudeDegrees>
              <LongitudeDegrees>-3.3720663003623485565185546875</LongitudeDegrees>
            </Position>
            <AltitudeMeters>3172.199951171875</AltitudeMeters>
            <DistanceMeters>22035.130616854</DistanceMeters>
          </Trackpoint>
          <Trackpoint>
            <Time>2019-07-15T14:56:06.000Z</Time>
            <Position>
              <LatitudeDegrees>37.0572785474359989166259765625</LatitudeDegrees>
              <LongitudeDegrees>-3.3720696531236171722412109375</LongitudeDegrees>
            </Position>
            <AltitudeMeters>3172</AltitudeMeters>
            <DistanceMeters>22036.454185829</DistanceMeters>
          </Trackpoint>
          <Trackpoint>
            <Time>2019-07-15T14:56:07.000Z</Time>
            <Position>
              <LatitudeDegrees>37.057290114462375640869140625</LatitudeDegrees>
              <LongitudeDegrees>-3.3720703236758708953857421875</LongitudeDegrees>
            </Position>
            <AltitudeMeters>3172</AltitudeMeters>
            <DistanceMeters>22037.743190897</DistanceMeters>
          </Trackpoint>
          <Trackpoint>
            <Time>2019-07-15T14:56:26.000Z</Time>
            <Position>
              <LatitudeDegrees>37.0574770309031009674072265625</LatitudeDegrees>
              <LongitudeDegrees>-3.37211131118237972259521484375</LongitudeDegrees>
            </Position>
            <AltitudeMeters>3170.199951171875</AltitudeMeters>
            <DistanceMeters>22058.863506145</DistanceMeters>
          </Trackpoint>
          <Trackpoint>
            <Time>2019-07-15T14:56:45.000Z</Time>
            <Position>
              <LatitudeDegrees>37.05766260623931884765625</LatitudeDegrees>
              <LongitudeDegrees>-3.3721702359616756439208984375</LongitudeDegrees>
            </Position>
            <AltitudeMeters>3169.39990234375</AltitudeMeters>
            <DistanceMeters>22080.171114726</DistanceMeters>
          </Trackpoint>
          <Trackpoint>
            <Time>2019-07-15T14:57:01.000Z</Time>
            <Position>
              <LatitudeDegrees>37.0578384585678577423095703125</LatitudeDegrees>
              <LongitudeDegrees>-3.37218440137803554534912109375</LongitudeDegrees>
            </Position>
            <AltitudeMeters>3167.800048828125</AltitudeMeters>
            <DistanceMeters>22099.783947167</DistanceMeters>
          </Trackpoint>
          <Trackpoint>
            <Time>2019-07-15T14:57:02.000Z</Time>
            <Position>
              <LatitudeDegrees>37.05785312689840793609619140625</LatitudeDegrees>
              <LongitudeDegrees>-3.372188843786716461181640625</LongitudeDegrees>
            </Position>
            <AltitudeMeters>3167.60009765625</AltitudeMeters>
            <DistanceMeters>22101.462453602</DistanceMeters>
          </Trackpoint>
          <Trackpoint>
            <Time>2019-07-15T14:57:03.000Z</Time>
            <Position>
              <LatitudeDegrees>37.0578651130199432373046875</LatitudeDegrees>
              <LongitudeDegrees>-3.37218892760574817657470703125</LongitudeDegrees>
            </Position>
            <AltitudeMeters>3167.39990234375</AltitudeMeters>
            <DistanceMeters>22102.796217096</DistanceMeters>
          </Trackpoint>
          <Trackpoint>
            <Time>2019-07-15T14:57:04.000Z</Time>
            <Position>
              <LatitudeDegrees>37.0578746683895587921142578125</LatitudeDegrees>
              <LongitudeDegrees>-3.3721896819770336151123046875</LongitudeDegrees>
            </Position>
            <AltitudeMeters>3167.39990234375</AltitudeMeters>
            <DistanceMeters>22103.862889319</DistanceMeters>
          </Trackpoint>
          <Trackpoint>
            <Time>2019-07-15T14:57:05.000Z</Time>
            <Position>
              <LatitudeDegrees>37.0578843913972377777099609375</LatitudeDegrees>
              <LongitudeDegrees>-3.37218926288187503814697265625</LongitudeDegrees>
            </Position>
            <AltitudeMeters>3167.39990234375</AltitudeMeters>
            <DistanceMeters>22104.942185322</DistanceMeters>
          </Trackpoint>
          <Trackpoint>
            <Time>2019-07-15T14:57:06.000Z</Time>
            <Position>
              <LatitudeDegrees>37.0578927733004093170166015625</LatitudeDegrees>
              <LongitudeDegrees>-3.3721890114247798919677734375</LongitudeDegrees>
            </Position>
            <AltitudeMeters>3167.39990234375</AltitudeMeters>
            <DistanceMeters>22105.878089919</DistanceMeters>
          </Trackpoint>
          <Trackpoint>
            <Time>2019-07-15T14:57:07.000Z</Time>
            <Position>
              <LatitudeDegrees>37.05790174193680286407470703125</LatitudeDegrees>
              <LongitudeDegrees>-3.37218792177736759185791015625</LongitudeDegrees>
            </Position>
            <AltitudeMeters>3167</AltitudeMeters>
            <DistanceMeters>22106.883758136</DistanceMeters>
          </Trackpoint>
          <Trackpoint>
            <Time>2019-07-15T14:57:08.000Z</Time>
            <Position>
              <LatitudeDegrees>37.05791045911610126495361328125</LatitudeDegrees>
              <LongitudeDegrees>-3.37218741886317729949951171875</LongitudeDegrees>
            </Position>
            <AltitudeMeters>3167</AltitudeMeters>
            <DistanceMeters>22107.857492199</DistanceMeters>
          </Trackpoint>
          <Trackpoint>
            <Time>2019-07-15T14:57:09.000Z</Time>
            <Position>
              <LatitudeDegrees>37.05792034976184368133544921875</LatitudeDegrees>
              <LongitudeDegrees>-3.3721893467009067535400390625</LongitudeDegrees>
            </Position>
            <AltitudeMeters>3167</AltitudeMeters>
            <DistanceMeters>22108.969751375</DistanceMeters>
          </Trackpoint>
          <Trackpoint>
            <Time>2019-07-15T14:57:10.000Z</Time>
            <Position>
              <LatitudeDegrees>37.057930491864681243896484375</LatitudeDegrees>
              <LongitudeDegrees>-3.37219177745282649993896484375</LongitudeDegrees>
            </Position>
            <AltitudeMeters>3167</AltitudeMeters>
            <DistanceMeters>22110.117963533</DistanceMeters>
          </Trackpoint>
          <Trackpoint>
            <Time>2019-07-15T14:57:11.000Z</Time>
            <Position>
              <LatitudeDegrees>37.0579407177865505218505859375</LatitudeDegrees>
              <LongitudeDegrees>-3.37219462729990482330322265625</LongitudeDegrees>
            </Position>
            <AltitudeMeters>3167</AltitudeMeters>
            <DistanceMeters>22111.285671349</DistanceMeters>
          </Trackpoint>
          <Trackpoint>
            <Time>2019-07-15T14:57:21.000Z</Time>
            <Position>
              <LatitudeDegrees>37.0580329187214374542236328125</LatitudeDegrees>
              <LongitudeDegrees>-3.372217677533626556396484375</LongitudeDegrees>
            </Position>
            <AltitudeMeters>3166.60009765625</AltitudeMeters>
            <DistanceMeters>22121.749834333</DistanceMeters>
          </Trackpoint>
          <Trackpoint>
            <Time>2019-07-15T14:57:22.000Z</Time>
            <Position>
              <LatitudeDegrees>37.0580421388149261474609375</LatitudeDegrees>
              <LongitudeDegrees>-3.37222178466618061065673828125</LongitudeDegrees>
            </Position>
            <AltitudeMeters>3166.39990234375</AltitudeMeters>
            <DistanceMeters>22122.841608161</DistanceMeters>
          </Trackpoint>
          <Trackpoint>
            <Time>2019-07-15T14:57:23.000Z</Time>
            <Position>
              <LatitudeDegrees>37.05805085599422454833984375</LatitudeDegrees>
              <LongitudeDegrees>-3.3722258917987346649169921875</LongitudeDegrees>
            </Position>
            <AltitudeMeters>3166.199951171875</AltitudeMeters>
            <DistanceMeters>22123.882573661</DistanceMeters>
          </Trackpoint>
          <Trackpoint>
            <Time>2019-07-15T14:57:24.000Z</Time>
            <Position>
              <LatitudeDegrees>37.0580604113638401031494140625</LatitudeDegrees>
              <LongitudeDegrees>-3.3722285740077495574951171875</LongitudeDegrees>
            </Position>
            <AltitudeMeters>3166.199951171875</AltitudeMeters>
            <DistanceMeters>22124.974347489</DistanceMeters>
          </Trackpoint>
          <Trackpoint>
            <Time>2019-07-15T14:57:25.000Z</Time>
            <Position>
              <LatitudeDegrees>37.0580721460282802581787109375</LatitudeDegrees>
              <LongitudeDegrees>-3.37222916074097156524658203125</LongitudeDegrees>
            </Position>
            <AltitudeMeters>3166.199951171875</AltitudeMeters>
            <DistanceMeters>22126.284200352</DistanceMeters>
          </Trackpoint>
          <Trackpoint>
            <Time>2019-07-15T14:57:26.000Z</Time>
            <Position>
              <LatitudeDegrees>37.05808413214981555938720703125</LatitudeDegrees>
              <LongitudeDegrees>-3.372231088578701019287109375</LongitudeDegrees>
            </Position>
            <AltitudeMeters>3166</AltitudeMeters>
            <DistanceMeters>22127.628081035</DistanceMeters>
          </Trackpoint>
          <Trackpoint>
            <Time>2019-07-15T14:57:27.000Z</Time>
            <Position>
              <LatitudeDegrees>37.05809553153812885284423828125</LatitudeDegrees>
              <LongitudeDegrees>-3.37223016656935214996337890625</LongitudeDegrees>
            </Position>
            <AltitudeMeters>3166</AltitudeMeters>
            <DistanceMeters>22128.902998193</DistanceMeters>
          </Trackpoint>
          <Trackpoint>
            <Time>2019-07-15T14:57:28.000Z</Time>
            <Position>
              <LatitudeDegrees>37.05810558982193470001220703125</LatitudeDegrees>
              <LongitudeDegrees>-3.37222781963646411895751953125</LongitudeDegrees>
            </Position>
            <AltitudeMeters>3165.800048828125</AltitudeMeters>
            <DistanceMeters>22130.043318765</DistanceMeters>
          </Trackpoint>
          <Trackpoint>
            <Time>2019-07-15T14:57:29.000Z</Time>
            <Position>
              <LatitudeDegrees>37.0581147260963916778564453125</LatitudeDegrees>
              <LongitudeDegrees>-3.3722279034554958343505859375</LongitudeDegrees>
            </Position>
            <AltitudeMeters>3165.800048828125</AltitudeMeters>
            <DistanceMeters>22131.057926431</DistanceMeters>
          </Trackpoint>
          <Trackpoint>
            <Time>2019-07-15T14:57:46.000Z</Time>
            <Position>
              <LatitudeDegrees>37.058301307260990142822265625</LatitudeDegrees>
              <LongitudeDegrees>-3.37224542163312435150146484375</LongitudeDegrees>
            </Position>
            <AltitudeMeters>3164.199951171875</AltitudeMeters>
            <DistanceMeters>22151.882874241</DistanceMeters>
          </Trackpoint>
          <Trackpoint>
            <Time>2019-07-15T14:57:54.000Z</Time>
            <Position>
              <LatitudeDegrees>37.0583987049758434295654296875</LatitudeDegrees>
              <LongitudeDegrees>-3.3722496964037418365478515625</LongitudeDegrees>
            </Position>
            <AltitudeMeters>3163.39990234375</AltitudeMeters>
            <DistanceMeters>22162.730081073</DistanceMeters>
          </Trackpoint>
          <Trackpoint>
            <Time>2019-07-15T14:57:55.000Z</Time>
            <Position>
              <LatitudeDegrees>37.05840784125030040740966796875</LatitudeDegrees>
              <LongitudeDegrees>-3.37225246243178844451904296875</LongitudeDegrees>
            </Position>
            <AltitudeMeters>3163.199951171875</AltitudeMeters>
            <DistanceMeters>22163.775374931</DistanceMeters>
          </Trackpoint>
          <Trackpoint>
            <Time>2019-07-15T14:57:56.000Z</Time>
            <Position>
              <LatitudeDegrees>37.0584181509912014007568359375</LatitudeDegrees>
              <LongitudeDegrees>-3.37225547991693019866943359375</LongitudeDegrees>
            </Position>
            <AltitudeMeters>3162.800048828125</AltitudeMeters>
            <DistanceMeters>22164.954625444</DistanceMeters>
          </Trackpoint>
          <Trackpoint>
            <Time>2019-07-15T14:57:57.000Z</Time>
            <Position>
              <LatitudeDegrees>37.05842913128435611724853515625</LatitudeDegrees>
              <LongitudeDegrees>-3.37225765921175479888916015625</LongitudeDegrees>
            </Position>
            <AltitudeMeters>3162.800048828125</AltitudeMeters>
            <DistanceMeters>22166.193622214</DistanceMeters>
          </Trackpoint>
          <Trackpoint>
            <Time>2019-07-15T14:57:58.000Z</Time>
            <Position>
              <LatitudeDegrees>37.0584392733871936798095703125</LatitudeDegrees>
              <LongitudeDegrees>-3.37225883267819881439208984375</LongitudeDegrees>
            </Position>
            <AltitudeMeters>3162.60009765625</AltitudeMeters>
            <DistanceMeters>22167.325996205</DistanceMeters>
          </Trackpoint>
          <Trackpoint>
            <Time>2019-07-15T14:57:59.000Z</Time>
            <Position>
              <LatitudeDegrees>37.05845008604228496551513671875</LatitudeDegrees>
              <LongitudeDegrees>-3.37225531227886676788330078125</LongitudeDegrees>
            </Position>
            <AltitudeMeters>3162.800048828125</AltitudeMeters>
            <DistanceMeters>22168.57225988</DistanceMeters>
          </Trackpoint>
          <Trackpoint>
            <Time>2019-07-15T14:58:00.000Z</Time>
            <Position>
              <LatitudeDegrees>37.05846299417316913604736328125</LatitudeDegrees>
              <LongitudeDegrees>-3.37225028313696384429931640625</LongitudeDegrees>
            </Position>
            <AltitudeMeters>3162.800048828125</AltitudeMeters>
            <DistanceMeters>22170.07776617</DistanceMeters>
          </Trackpoint>
          <Trackpoint>
            <Time>2019-07-15T14:58:01.000Z</Time>
            <Position>
              <LatitudeDegrees>37.05847472883760929107666015625</LatitudeDegrees>
              <LongitudeDegrees>-3.37224726565182209014892578125</LongitudeDegrees>
            </Position>
            <AltitudeMeters>3162.60009765625</AltitudeMeters>
            <DistanceMeters>22171.408140171</DistanceMeters>
          </Trackpoint>
          <Trackpoint>
            <Time>2019-07-15T14:58:08.000Z</Time>
            <Position>
              <LatitudeDegrees>37.058566510677337646484375</LatitudeDegrees>
              <LongitudeDegrees>-3.37223050184547901153564453125</LongitudeDegrees>
            </Position>
            <AltitudeMeters>3162.39990234375</AltitudeMeters>
            <DistanceMeters>22181.731558315</DistanceMeters>
          </Trackpoint>
          <Trackpoint>
            <Time>2019-07-15T14:58:12.000Z</Time>
            <Position>
              <LatitudeDegrees>37.058608420193195343017578125</LatitudeDegrees>
              <LongitudeDegrees>-3.37222245521843433380126953125</LongitudeDegrees>
            </Position>
            <AltitudeMeters>3160.199951171875</AltitudeMeters>
            <DistanceMeters>22186.450474347</DistanceMeters>
          </Trackpoint>
          <Trackpoint>
            <Time>2019-07-15T14:58:37.000Z</Time>
            <Position>
              <LatitudeDegrees>37.0588064007461071014404296875</LatitudeDegrees>
              <LongitudeDegrees>-3.3721732534468173980712890625</LongitudeDegrees>
            </Position>
            <AltitudeMeters>3160.39990234375</AltitudeMeters>
            <DistanceMeters>22208.915199634</DistanceMeters>
          </Trackpoint>
          <Trackpoint>
            <Time>2019-07-15T14:58:54.000Z</Time>
            <Position>
              <LatitudeDegrees>37.05900966189801692962646484375</LatitudeDegrees>
              <LongitudeDegrees>-3.372105695307254791259765625</LongitudeDegrees>
            </Position>
            <AltitudeMeters>3159</AltitudeMeters>
            <DistanceMeters>22232.320724998</DistanceMeters>
          </Trackpoint>
          <Trackpoint>
            <Time>2019-07-15T14:58:55.000Z</Time>
            <Position>
              <LatitudeDegrees>37.05901871435344219207763671875</LatitudeDegrees>
              <LongitudeDegrees>-3.37209924124181270599365234375</LongitudeDegrees>
            </Position>
            <AltitudeMeters>3158.800048828125</AltitudeMeters>
            <DistanceMeters>22233.476774873</DistanceMeters>
          </Trackpoint>
          <Trackpoint>
            <Time>2019-07-15T14:58:56.000Z</Time>
            <Position>
              <LatitudeDegrees>37.0590290240943431854248046875</LatitudeDegrees>
              <LongitudeDegrees>-3.3720931224524974822998046875</LongitudeDegrees>
            </Position>
            <AltitudeMeters>3158.60009765625</AltitudeMeters>
            <DistanceMeters>22234.744589373</DistanceMeters>
          </Trackpoint>
          <Trackpoint>
            <Time>2019-07-15T14:58:57.000Z</Time>
            <Position>
              <LatitudeDegrees>37.05904084257781505584716796875</LatitudeDegrees>
              <LongitudeDegrees>-3.37208918295800685882568359375</LongitudeDegrees>
            </Position>
            <AltitudeMeters>3158.60009765625</AltitudeMeters>
            <DistanceMeters>22236.101842332</DistanceMeters>
          </Trackpoint>
          <Trackpoint>
            <Time>2019-07-15T14:58:58.000Z</Time>
            <Position>
              <LatitudeDegrees>37.05905224196612834930419921875</LatitudeDegrees>
              <LongitudeDegrees>-3.37208549492061138153076171875</LongitudeDegrees>
            </Position>
            <AltitudeMeters>3158.800048828125</AltitudeMeters>
            <DistanceMeters>22237.411695195</DistanceMeters>
          </Trackpoint>
          <Trackpoint>
            <Time>2019-07-15T14:58:59.000Z</Time>
            <Position>
              <LatitudeDegrees>37.0590648986399173736572265625</LatitudeDegrees>
              <LongitudeDegrees>-3.37208348326385021209716796875</LongitudeDegrees>
            </Position>
            <AltitudeMeters>3158.39990234375</AltitudeMeters>
            <DistanceMeters>22238.833924827</DistanceMeters>
          </Trackpoint>
          <Trackpoint>
            <Time>2019-07-15T14:59:00.000Z</Time>
            <Position>
              <LatitudeDegrees>37.059075124561786651611328125</LatitudeDegrees>
              <LongitudeDegrees>-3.37208063341677188873291015625</LongitudeDegrees>
            </Position>
            <AltitudeMeters>3158.199951171875</AltitudeMeters>
            <DistanceMeters>22239.997759637</DistanceMeters>
          </Trackpoint>
          <Trackpoint>
            <Time>2019-07-15T14:59:01.000Z</Time>
            <Position>
              <LatitudeDegrees>37.05908526666462421417236328125</LatitudeDegrees>
              <LongitudeDegrees>-3.37207661010324954986572265625</LongitudeDegrees>
            </Position>
            <AltitudeMeters>3158</AltitudeMeters>
            <DistanceMeters>22241.17701015</DistanceMeters>
          </Trackpoint>
          <Trackpoint>
            <Time>2019-07-15T14:59:02.000Z</Time>
            <Position>
              <LatitudeDegrees>37.05909716896712779998779296875</LatitudeDegrees>
              <LongitudeDegrees>-3.37207258678972721099853515625</LongitudeDegrees>
            </Position>
            <AltitudeMeters>3158</AltitudeMeters>
            <DistanceMeters>22242.547504915</DistanceMeters>
          </Trackpoint>
          <Trackpoint>
            <Time>2019-07-15T14:59:03.000Z</Time>
            <Position>
              <LatitudeDegrees>37.05910957418382167816162109375</LatitudeDegrees>
              <LongitudeDegrees>-3.3720676414668560028076171875</LongitudeDegrees>
            </Position>
            <AltitudeMeters>3157.39990234375</AltitudeMeters>
            <DistanceMeters>22243.994908706</DistanceMeters>
          </Trackpoint>
          <Trackpoint>
            <Time>2019-07-15T14:59:04.000Z</Time>
            <Position>
              <LatitudeDegrees>37.05912164412438869476318359375</LatitudeDegrees>
              <LongitudeDegrees>-3.3720632828772068023681640625</LongitudeDegrees>
            </Position>
            <AltitudeMeters>3157</AltitudeMeters>
            <DistanceMeters>22245.39473962</DistanceMeters>
          </Trackpoint>
          <Trackpoint>
            <Time>2019-07-15T14:59:05.000Z</Time>
            <Position>
              <LatitudeDegrees>37.05913421697914600372314453125</LatitudeDegrees>
              <LongitudeDegrees>-3.37206177413463592529296875</LongitudeDegrees>
            </Position>
            <AltitudeMeters>3157</AltitudeMeters>
            <DistanceMeters>22246.797792244</DistanceMeters>
          </Trackpoint>
          <Trackpoint>
            <Time>2019-07-15T14:59:06.000Z</Time>
            <Position>
              <LatitudeDegrees>37.05914511345326900482177734375</LatitudeDegrees>
              <LongitudeDegrees>-3.37205951102077960968017578125</LongitudeDegrees>
            </Position>
            <AltitudeMeters>3157</AltitudeMeters>
            <DistanceMeters>22248.025808028</DistanceMeters>
          </Trackpoint>
          <Trackpoint>
            <Time>2019-07-15T14:59:07.000Z</Time>
            <Position>
              <LatitudeDegrees>37.05915517173707485198974609375</LatitudeDegrees>
              <LongitudeDegrees>-3.37205213494598865509033203125</LongitudeDegrees>
            </Position>
            <AltitudeMeters>3156.800048828125</AltitudeMeters>
            <DistanceMeters>22249.321799625</DistanceMeters>
          </Trackpoint>
          <Trackpoint>
            <Time>2019-07-15T14:59:25.000Z</Time>
            <Position>
              <LatitudeDegrees>37.05933035351336002349853515625</LatitudeDegrees>
              <LongitudeDegrees>-3.37193034589290618896484375</LongitudeDegrees>
            </Position>
            <AltitudeMeters>3155.800048828125</AltitudeMeters>
            <DistanceMeters>22271.619489616</DistanceMeters>
          </Trackpoint>
          <Trackpoint>
            <Time>2019-07-15T14:59:28.000Z</Time>
            <Position>
              <LatitudeDegrees>37.059356085956096649169921875</LatitudeDegrees>
              <LongitudeDegrees>-3.3719160966575145721435546875</LongitudeDegrees>
            </Position>
            <AltitudeMeters>3155.39990234375</AltitudeMeters>
            <DistanceMeters>22274.751048815</DistanceMeters>
          </Trackpoint>
          <Trackpoint>
            <Time>2019-07-15T14:59:29.000Z</Time>
            <Position>
              <LatitudeDegrees>37.0593656413257122039794921875</LatitudeDegrees>
              <LongitudeDegrees>-3.37191157042980194091796875</LongitudeDegrees>
            </Position>
            <AltitudeMeters>3155.39990234375</AltitudeMeters>
            <DistanceMeters>22275.891369387</DistanceMeters>
          </Trackpoint>
          <Trackpoint>
            <Time>2019-07-15T14:59:30.000Z</Time>
            <Position>
              <LatitudeDegrees>37.0593750290572643280029296875</LatitudeDegrees>
              <LongitudeDegrees>-3.3719082176685333251953125</LongitudeDegrees>
            </Position>
            <AltitudeMeters>3155.39990234375</AltitudeMeters>
            <DistanceMeters>22276.978999846</DistanceMeters>
          </Trackpoint>
          <Trackpoint>
            <Time>2019-07-15T14:59:51.000Z</Time>
            <Position>
              <LatitudeDegrees>37.05956001766026020050048828125</LatitudeDegrees>
              <LongitudeDegrees>-3.37185063399374485015869140625</LongitudeDegrees>
            </Position>
            <AltitudeMeters>3154.39990234375</AltitudeMeters>
            <DistanceMeters>22298.194445405</DistanceMeters>
          </Trackpoint>
          <Trackpoint>
            <Time>2019-07-15T15:00:11.000Z</Time>
            <Position>
              <LatitudeDegrees>37.0597542263567447662353515625</LatitudeDegrees>
              <LongitudeDegrees>-3.3717863447964191436767578125</LongitudeDegrees>
            </Position>
            <AltitudeMeters>3151.60009765625</AltitudeMeters>
            <DistanceMeters>22320.551789869</DistanceMeters>
          </Trackpoint>
          <Trackpoint>
            <Time>2019-07-15T15:00:30.000Z</Time>
            <Position>
              <LatitudeDegrees>37.05993770621716976165771484375</LatitudeDegrees>
              <LongitudeDegrees>-3.371716439723968505859375</LongitudeDegrees>
            </Position>
            <AltitudeMeters>3149.800048828125</AltitudeMeters>
            <DistanceMeters>22341.896236846</DistanceMeters>
          </Trackpoint>
          <Trackpoint>
            <Time>2019-07-15T15:00:48.000Z</Time>
            <Position>
              <LatitudeDegrees>37.060129903256893157958984375</LatitudeDegrees>
              <LongitudeDegrees>-3.3716596104204654693603515625</LongitudeDegrees>
            </Position>
            <AltitudeMeters>3148</AltitudeMeters>
            <DistanceMeters>22363.87577414</DistanceMeters>
          </Trackpoint>
          <Trackpoint>
            <Time>2019-07-15T15:01:05.000Z</Time>
            <Position>
              <LatitudeDegrees>37.06031086854636669158935546875</LatitudeDegrees>
              <LongitudeDegrees>-3.37158191017806529998779296875</LongitudeDegrees>
            </Position>
            <AltitudeMeters>3146.60009765625</AltitudeMeters>
            <DistanceMeters>22385.166848267</DistanceMeters>
          </Trackpoint>
          <Trackpoint>
            <Time>2019-07-15T15:01:12.000Z</Time>
            <Position>
              <LatitudeDegrees>37.06038798205554485321044921875</LatitudeDegrees>
              <LongitudeDegrees>-3.3715560100972652435302734375</LongitudeDegrees>
            </Position>
            <AltitudeMeters>3145.800048828125</AltitudeMeters>
            <DistanceMeters>22394.052735304</DistanceMeters>
          </Trackpoint>
          <Trackpoint>
            <Time>2019-07-15T15:01:13.000Z</Time>
            <Position>
              <LatitudeDegrees>37.06039837561547756195068359375</LatitudeDegrees>
              <LongitudeDegrees>-3.3715499751269817352294921875</LongitudeDegrees>
            </Position>
            <AltitudeMeters>3145.800048828125</AltitudeMeters>
            <DistanceMeters>22395.334715769</DistanceMeters>
          </Trackpoint>
          <Trackpoint>
            <Time>2019-07-15T15:01:14.000Z</Time>
            <Position>
              <LatitudeDegrees>37.06040943972766399383544921875</LatitudeDegrees>
              <LongitudeDegrees>-3.37154352106153964996337890625</LongitudeDegrees>
            </Position>
            <AltitudeMeters>3145.800048828125</AltitudeMeters>
            <DistanceMeters>22396.691968728</DistanceMeters>
          </Trackpoint>
          <Trackpoint>
            <Time>2019-07-15T15:01:15.000Z</Time>
            <Position>
              <LatitudeDegrees>37.0604197494685649871826171875</LatitudeDegrees>
              <LongitudeDegrees>-3.3715352229773998260498046875</LongitudeDegrees>
            </Position>
            <AltitudeMeters>3145.60009765625</AltitudeMeters>
            <DistanceMeters>22398.05585866</DistanceMeters>
          </Trackpoint>
          <Trackpoint>
            <Time>2019-07-15T15:01:16.000Z</Time>
            <Position>
              <LatitudeDegrees>37.06042871810495853424072265625</LatitudeDegrees>
              <LongitudeDegrees>-3.371526338160037994384765625</LongitudeDegrees>
            </Position>
            <AltitudeMeters>3145.60009765625</AltitudeMeters>
            <DistanceMeters>22399.327229449</DistanceMeters>
          </Trackpoint>
          <Trackpoint>
            <Time>2019-07-15T15:01:17.000Z</Time>
            <Position>
              <LatitudeDegrees>37.0604381896555423736572265625</LatitudeDegrees>
              <LongitudeDegrees>-3.37151669897139072418212890625</LongitudeDegrees>
            </Position>
            <AltitudeMeters>3145.39990234375</AltitudeMeters>
            <DistanceMeters>22400.681151721</DistanceMeters>
          </Trackpoint>
          <Trackpoint>
            <Time>2019-07-15T15:01:35.000Z</Time>
            <Position>
              <LatitudeDegrees>37.06059157848358154296875</LatitudeDegrees>
              <LongitudeDegrees>-3.3713625557720661163330078125</LongitudeDegrees>
            </Position>
            <AltitudeMeters>3143.39990234375</AltitudeMeters>
            <DistanceMeters>22422.564960214</DistanceMeters>
          </Trackpoint>
          <Trackpoint>
            <Time>2019-07-15T15:01:37.000Z</Time>
            <Position>
              <LatitudeDegrees>37.06060071475803852081298828125</LatitudeDegrees>
              <LongitudeDegrees>-3.37134822271764278411865234375</LongitudeDegrees>
            </Position>
            <AltitudeMeters>3143.39990234375</AltitudeMeters>
            <DistanceMeters>22424.194328949</DistanceMeters>
          </Trackpoint>
          <Trackpoint>
            <Time>2019-07-15T15:01:38.000Z</Time>
            <Position>
              <LatitudeDegrees>37.06060926429927349090576171875</LatitudeDegrees>
              <LongitudeDegrees>-3.371338583528995513916015625</LongitudeDegrees>
            </Position>
            <AltitudeMeters>3143.39990234375</AltitudeMeters>
            <DistanceMeters>22425.476309414</DistanceMeters>
          </Trackpoint>
          <Trackpoint>
            <Time>2019-07-15T15:01:39.000Z</Time>
            <Position>
              <LatitudeDegrees>37.0606192387640476226806640625</LatitudeDegrees>
              <LongitudeDegrees>-3.371330536901950836181640625</LongitudeDegrees>
            </Position>
            <AltitudeMeters>3143.39990234375</AltitudeMeters>
            <DistanceMeters>22426.799878388</DistanceMeters>
          </Trackpoint>
          <Trackpoint>
            <Time>2019-07-15T15:01:40.000Z</Time>
            <Position>
              <LatitudeDegrees>37.06063021905720233917236328125</LatitudeDegrees>
              <LongitudeDegrees>-3.37132274173200130462646484375</LongitudeDegrees>
            </Position>
            <AltitudeMeters>3143.199951171875</AltitudeMeters>
            <DistanceMeters>22428.202931012</DistanceMeters>
          </Trackpoint>
          <Trackpoint>
            <Time>2019-07-15T15:01:41.000Z</Time>
            <Position>
              <LatitudeDegrees>37.06063784658908843994140625</LatitudeDegrees>
              <LongitudeDegrees>-3.37131234817206859588623046875</LongitudeDegrees>
            </Position>
            <AltitudeMeters>3143.199951171875</AltitudeMeters>
            <DistanceMeters>22429.456419465</DistanceMeters>
          </Trackpoint>
          <Trackpoint>
            <Time>2019-07-15T15:01:42.000Z</Time>
            <Position>
              <LatitudeDegrees>37.06064463593065738677978515625</LatitudeDegrees>
              <LongitudeDegrees>-3.37130195461213588714599609375</LongitudeDegrees>
            </Position>
            <AltitudeMeters>3143.199951171875</AltitudeMeters>
            <DistanceMeters>22430.650886742</DistanceMeters>
          </Trackpoint>
          <Trackpoint>
            <Time>2019-07-15T15:01:43.000Z</Time>
            <Position>
              <LatitudeDegrees>37.06065301783382892608642578125</LatitudeDegrees>
              <LongitudeDegrees>-3.37129541672766208648681640625</LongitudeDegrees>
            </Position>
            <AltitudeMeters>3143.39990234375</AltitudeMeters>
            <DistanceMeters>22431.750900489</DistanceMeters>
          </Trackpoint>
          <Trackpoint>
            <Time>2019-07-15T15:01:44.000Z</Time>
            <Position>
              <LatitudeDegrees>37.06066190265119075775146484375</LatitudeDegrees>
              <LongitudeDegrees>-3.37128929793834686279296875</LongitudeDegrees>
            </Position>
            <AltitudeMeters>3143.199951171875</AltitudeMeters>
            <DistanceMeters>22432.875271737</DistanceMeters>
          </Trackpoint>
          <Trackpoint>
            <Time>2019-07-15T15:01:45.000Z</Time>
            <Position>
              <LatitudeDegrees>37.06067061983048915863037109375</LatitudeDegrees>
              <LongitudeDegrees>-3.37128133513033390045166015625</LongitudeDegrees>
            </Position>
            <AltitudeMeters>3143</AltitudeMeters>
            <DistanceMeters>22434.073513013</DistanceMeters>
          </Trackpoint>
          <Trackpoint>
            <Time>2019-07-15T15:01:46.000Z</Time>
            <Position>
              <LatitudeDegrees>37.06067933700978755950927734375</LatitudeDegrees>
              <LongitudeDegrees>-3.3712743781507015228271484375</LongitudeDegrees>
            </Position>
            <AltitudeMeters>3143</AltitudeMeters>
            <DistanceMeters>22435.221725171</DistanceMeters>
          </Trackpoint>
          <Trackpoint>
            <Time>2019-07-15T15:01:47.000Z</Time>
            <Position>
              <LatitudeDegrees>37.06068956293165683746337890625</LatitudeDegrees>
              <LongitudeDegrees>-3.37126440368592739105224609375</LongitudeDegrees>
            </Position>
            <AltitudeMeters>3142.800048828125</AltitudeMeters>
            <DistanceMeters>22436.662876649</DistanceMeters>
          </Trackpoint>
          <Trackpoint>
            <Time>2019-07-15T15:01:48.000Z</Time>
            <Position>
              <LatitudeDegrees>37.0606973581016063690185546875</LatitudeDegrees>
              <LongitudeDegrees>-3.371255435049533843994140625</LongitudeDegrees>
            </Position>
            <AltitudeMeters>3142.800048828125</AltitudeMeters>
            <DistanceMeters>22437.842127162</DistanceMeters>
          </Trackpoint>
          <Trackpoint>
            <Time>2019-07-15T15:01:49.000Z</Time>
            <Position>
              <LatitudeDegrees>37.06070666201412677764892578125</LatitudeDegrees>
              <LongitudeDegrees>-3.3712478913366794586181640625</LongitudeDegrees>
            </Position>
            <AltitudeMeters>3142.60009765625</AltitudeMeters>
            <DistanceMeters>22439.077474449</DistanceMeters>
          </Trackpoint>
          <Trackpoint>
            <Time>2019-07-15T15:01:50.000Z</Time>
            <Position>
              <LatitudeDegrees>37.060717307031154632568359375</LatitudeDegrees>
              <LongitudeDegrees>-3.37123909033834934234619140625</LongitudeDegrees>
            </Position>
            <AltitudeMeters>3142.60009765625</AltitudeMeters>
            <DistanceMeters>22440.49970408</DistanceMeters>
          </Trackpoint>
          <Trackpoint>
            <Time>2019-07-15T15:02:08.000Z</Time>
            <Position>
              <LatitudeDegrees>37.06089978106319904327392578125</LatitudeDegrees>
              <LongitudeDegrees>-3.37111604399979114532470703125</LongitudeDegrees>
            </Position>
            <AltitudeMeters>3140.60009765625</AltitudeMeters>
            <DistanceMeters>22463.563022421</DistanceMeters>
          </Trackpoint>
          <Trackpoint>
            <Time>2019-07-15T15:02:26.000Z</Time>
            <Position>
              <LatitudeDegrees>37.061084099113941192626953125</LatitudeDegrees>
              <LongitudeDegrees>-3.37100624106824398040771484375</LongitudeDegrees>
            </Position>
            <AltitudeMeters>3139</AltitudeMeters>
            <DistanceMeters>22486.277985286</DistanceMeters>
          </Trackpoint>
          <Trackpoint>
            <Time>2019-07-15T15:02:47.000Z</Time>
            <Position>
              <LatitudeDegrees>37.0612679980695247650146484375</LatitudeDegrees>
              <LongitudeDegrees>-3.3709005452692508697509765625</LongitudeDegrees>
            </Position>
            <AltitudeMeters>3137.39990234375</AltitudeMeters>
            <DistanceMeters>22508.796309216</DistanceMeters>
          </Trackpoint>
          <Trackpoint>
            <Time>2019-07-15T15:02:54.000Z</Time>
            <Position>
              <LatitudeDegrees>37.06133119761943817138671875</LatitudeDegrees>
              <LongitudeDegrees>-3.370861820876598358154296875</LongitudeDegrees>
            </Position>
            <AltitudeMeters>3137</AltitudeMeters>
            <DistanceMeters>22516.626072238</DistanceMeters>
          </Trackpoint>
          <Trackpoint>
            <Time>2019-07-15T15:02:55.000Z</Time>
            <Position>
              <LatitudeDegrees>37.0613370649516582489013671875</LatitudeDegrees>
              <LongitudeDegrees>-3.37085452862083911895751953125</LongitudeDegrees>
            </Position>
            <AltitudeMeters>3137</AltitudeMeters>
            <DistanceMeters>22517.537536463</DistanceMeters>
          </Trackpoint>
          <Trackpoint>
            <Time>2019-07-15T15:02:56.000Z</Time>
            <Position>
              <LatitudeDegrees>37.06134418956935405731201171875</LatitudeDegrees>
              <LongitudeDegrees>-3.3708472363650798797607421875</LongitudeDegrees>
            </Position>
            <AltitudeMeters>3137</AltitudeMeters>
            <DistanceMeters>22518.556584445</DistanceMeters>
          </Trackpoint>
          <Trackpoint>
            <Time>2019-07-15T15:02:57.000Z</Time>
            <Position>
              <LatitudeDegrees>37.06135265529155731201171875</LatitudeDegrees>
              <LongitudeDegrees>-3.37084128521382808685302734375</LongitudeDegrees>
            </Position>
            <AltitudeMeters>3137</AltitudeMeters>
            <DistanceMeters>22519.635880448</DistanceMeters>
          </Trackpoint>
          <Trackpoint>
            <Time>2019-07-15T15:02:58.000Z</Time>
            <Position>
              <LatitudeDegrees>37.06136162392795085906982421875</LatitudeDegrees>
              <LongitudeDegrees>-3.3708341605961322784423828125</LongitudeDegrees>
            </Position>
            <AltitudeMeters>3136.800048828125</AltitudeMeters>
            <DistanceMeters>22520.818953501</DistanceMeters>
          </Trackpoint>
          <Trackpoint>
            <Time>2019-07-15T15:02:59.000Z</Time>
            <Position>
              <LatitudeDegrees>37.06136916764080524444580078125</LatitudeDegrees>
              <LongitudeDegrees>-3.37082703597843647003173828125</LongitudeDegrees>
            </Position>
            <AltitudeMeters>3136.60009765625</AltitudeMeters>
            <DistanceMeters>22521.872850746</DistanceMeters>
          </Trackpoint>
          <Trackpoint>
            <Time>2019-07-15T15:03:18.000Z</Time>
            <Position>
              <LatitudeDegrees>37.06153546459972858428955078125</LatitudeDegrees>
              <LongitudeDegrees>-3.37069342844188213348388671875</LongitudeDegrees>
            </Position>
            <AltitudeMeters>3135.39990234375</AltitudeMeters>
            <DistanceMeters>22543.859165858</DistanceMeters>
          </Trackpoint>
          <Trackpoint>
            <Time>2019-07-15T15:03:35.000Z</Time>
            <Position>
              <LatitudeDegrees>37.061717100441455841064453125</LatitudeDegrees>
              <LongitudeDegrees>-3.3705994673073291778564453125</LongitudeDegrees>
            </Position>
            <AltitudeMeters>3134</AltitudeMeters>
            <DistanceMeters>22565.730591727</DistanceMeters>
          </Trackpoint>
          <Trackpoint>
            <Time>2019-07-15T15:03:51.000Z</Time>
            <Position>
              <LatitudeDegrees>37.06187828443944454193115234375</LatitudeDegrees>
              <LongitudeDegrees>-3.37050047703087329864501953125</LongitudeDegrees>
            </Position>
            <AltitudeMeters>3132.199951171875</AltitudeMeters>
            <DistanceMeters>22585.709266332</DistanceMeters>
          </Trackpoint>
          <Trackpoint>
            <Time>2019-07-15T15:04:08.000Z</Time>
            <Position>
              <LatitudeDegrees>37.06204156391322612762451171875</LatitudeDegrees>
              <LongitudeDegrees>-3.370382376015186309814453125</LongitudeDegrees>
            </Position>
            <AltitudeMeters>3130.39990234375</AltitudeMeters>
            <DistanceMeters>22606.692533411</DistanceMeters>
          </Trackpoint>
          <Trackpoint>
            <Time>2019-07-15T15:04:25.000Z</Time>
            <Position>
              <LatitudeDegrees>37.06221858970820903778076171875</LatitudeDegrees>
              <LongitudeDegrees>-3.37028740905225276947021484375</LongitudeDegrees>
            </Position>
            <AltitudeMeters>3129.60009765625</AltitudeMeters>
            <DistanceMeters>22628.125639786</DistanceMeters>
          </Trackpoint>
          <Trackpoint>
            <Time>2019-07-15T15:04:43.000Z</Time>
            <Position>
              <LatitudeDegrees>37.0623995549976825714111328125</LatitudeDegrees>
              <LongitudeDegrees>-3.3702011592686176300048828125</LongitudeDegrees>
            </Position>
            <AltitudeMeters>3128.199951171875</AltitudeMeters>
            <DistanceMeters>22649.674715196</DistanceMeters>
          </Trackpoint>
          <Trackpoint>
            <Time>2019-07-15T15:05:02.000Z</Time>
            <Position>
              <LatitudeDegrees>37.062592171132564544677734375</LatitudeDegrees>
              <LongitudeDegrees>-3.370140977203845977783203125</LongitudeDegrees>
            </Position>
            <AltitudeMeters>3126.199951171875</AltitudeMeters>
            <DistanceMeters>22671.769601318</DistanceMeters>
          </Trackpoint>
          <Trackpoint>
            <Time>2019-07-15T15:05:05.000Z</Time>
            <Position>
              <LatitudeDegrees>37.0626221783459186553955078125</LatitudeDegrees>
              <LongitudeDegrees>-3.3701364509761333465576171875</LongitudeDegrees>
            </Position>
            <AltitudeMeters>3125.60009765625</AltitudeMeters>
            <DistanceMeters>22675.131989711</DistanceMeters>
          </Trackpoint>
          <Trackpoint>
            <Time>2019-07-15T15:05:06.000Z</Time>
            <Position>
              <LatitudeDegrees>37.06263299100100994110107421875</LatitudeDegrees>
              <LongitudeDegrees>-3.37013854645192623138427734375</LongitudeDegrees>
            </Position>
            <AltitudeMeters>3125.60009765625</AltitudeMeters>
            <DistanceMeters>22676.348925427</DistanceMeters>
          </Trackpoint>
          <Trackpoint>
            <Time>2019-07-15T15:05:07.000Z</Time>
            <Position>
              <LatitudeDegrees>37.06264388747513294219970703125</LatitudeDegrees>
              <LongitudeDegrees>-3.37013988755643367767333984375</LongitudeDegrees>
            </Position>
            <AltitudeMeters>3125.60009765625</AltitudeMeters>
            <DistanceMeters>22677.565861143</DistanceMeters>
          </Trackpoint>
          <Trackpoint>
            <Time>2019-07-15T15:05:25.000Z</Time>
            <Position>
              <LatitudeDegrees>37.06283465959131717681884765625</LatitudeDegrees>
              <LongitudeDegrees>-3.370103426277637481689453125</LongitudeDegrees>
            </Position>
            <AltitudeMeters>3124</AltitudeMeters>
            <DistanceMeters>22699.044631486</DistanceMeters>
          </Trackpoint>
          <Trackpoint>
            <Time>2019-07-15T15:05:28.000Z</Time>
            <Position>
              <LatitudeDegrees>37.06285779364407062530517578125</LatitudeDegrees>
              <LongitudeDegrees>-3.37010418064892292022705078125</LongitudeDegrees>
            </Position>
            <AltitudeMeters>3123.800048828125</AltitudeMeters>
            <DistanceMeters>22701.622641622</DistanceMeters>
          </Trackpoint>
          <Trackpoint>
            <Time>2019-07-15T15:05:29.000Z</Time>
            <Position>
              <LatitudeDegrees>37.06286768428981304168701171875</LatitudeDegrees>
              <LongitudeDegrees>-3.37011105380952358245849609375</LongitudeDegrees>
            </Position>
            <AltitudeMeters>3123.800048828125</AltitudeMeters>
            <DistanceMeters>22702.883313449</DistanceMeters>
          </Trackpoint>
          <Trackpoint>
            <Time>2019-07-15T15:05:30.000Z</Time>
            <Position>
              <LatitudeDegrees>37.06287690438330173492431640625</LatitudeDegrees>
              <LongitudeDegrees>-3.370115496218204498291015625</LongitudeDegrees>
            </Position>
            <AltitudeMeters>3123.60009765625</AltitudeMeters>
            <DistanceMeters>22703.97921498</DistanceMeters>
          </Trackpoint>
          <Trackpoint>
            <Time>2019-07-15T15:05:33.000Z</Time>
            <Position>
              <LatitudeDegrees>37.0629061572253704071044921875</LatitudeDegrees>
              <LongitudeDegrees>-3.37012764997780323028564453125</LongitudeDegrees>
            </Position>
            <AltitudeMeters>3123.60009765625</AltitudeMeters>
            <DistanceMeters>22707.408086446</DistanceMeters>
          </Trackpoint>
          <Trackpoint>
            <Time>2019-07-15T15:05:34.000Z</Time>
            <Position>
              <LatitudeDegrees>37.06291696988046169281005859375</LatitudeDegrees>
              <LongitudeDegrees>-3.37013368494808673858642578125</LongitudeDegrees>
            </Position>
            <AltitudeMeters>3123.39990234375</AltitudeMeters>
            <DistanceMeters>22708.724815225</DistanceMeters>
          </Trackpoint>
          <Trackpoint>
            <Time>2019-07-15T15:05:38.000Z</Time>
            <Position>
              <LatitudeDegrees>37.06296265125274658203125</LatitudeDegrees>
              <LongitudeDegrees>-3.3701532147824764251708984375</LongitudeDegrees>
            </Position>
            <AltitudeMeters>3123.199951171875</AltitudeMeters>
            <DistanceMeters>22714.096977203</DistanceMeters>
          </Trackpoint>
          <Trackpoint>
            <Time>2019-07-15T15:05:39.000Z</Time>
            <Position>
              <LatitudeDegrees>37.0629685185849666595458984375</LatitudeDegrees>
              <LongitudeDegrees>-3.37016536854207515716552734375</LongitudeDegrees>
            </Position>
            <AltitudeMeters>3123.199951171875</AltitudeMeters>
            <DistanceMeters>22715.35764903</DistanceMeters>
          </Trackpoint>
          <Trackpoint>
            <Time>2019-07-15T15:05:40.000Z</Time>
            <Position>
              <LatitudeDegrees>37.062977738678455352783203125</LatitudeDegrees>
              <LongitudeDegrees>-3.37017492391169071197509765625</LongitudeDegrees>
            </Position>
            <AltitudeMeters>3123.199951171875</AltitudeMeters>
            <DistanceMeters>22716.688023031</DistanceMeters>
          </Trackpoint>
          <Trackpoint>
            <Time>2019-07-15T15:05:41.000Z</Time>
            <Position>
              <LatitudeDegrees>37.06298821605741977691650390625</LatitudeDegrees>
              <LongitudeDegrees>-3.37018598802387714385986328125</LongitudeDegrees>
            </Position>
            <AltitudeMeters>3123.199951171875</AltitudeMeters>
            <DistanceMeters>22718.211417151</DistanceMeters>
          </Trackpoint>
          <Trackpoint>
            <Time>2019-07-15T15:05:42.000Z</Time>
            <Position>
              <LatitudeDegrees>37.06299928016960620880126953125</LatitudeDegrees>
              <LongitudeDegrees>-3.37019227445125579833984375</LongitudeDegrees>
            </Position>
            <AltitudeMeters>3123</AltitudeMeters>
            <DistanceMeters>22719.558653346</DistanceMeters>
          </Trackpoint>
          <Trackpoint>
            <Time>2019-07-15T15:05:43.000Z</Time>
            <Position>
              <LatitudeDegrees>37.06300933845341205596923828125</LatitudeDegrees>
              <LongitudeDegrees>-3.3701981417834758758544921875</LongitudeDegrees>
            </Position>
            <AltitudeMeters>3123</AltitudeMeters>
            <DistanceMeters>22720.794000633</DistanceMeters>
          </Trackpoint>
          <Trackpoint>
            <Time>2019-07-15T15:05:44.000Z</Time>
            <Position>
              <LatitudeDegrees>37.06302090547978878021240234375</LatitudeDegrees>
              <LongitudeDegrees>-3.37020099163055419921875</LongitudeDegrees>
            </Position>
            <AltitudeMeters>3122.800048828125</AltitudeMeters>
            <DistanceMeters>22722.103853497</DistanceMeters>
          </Trackpoint>
          <Trackpoint>
            <Time>2019-07-15T15:05:45.000Z</Time>
            <Position>
              <LatitudeDegrees>37.063032723963260650634765625</LatitudeDegrees>
              <LongitudeDegrees>-3.37020643986761569976806640625</LongitudeDegrees>
            </Position>
            <AltitudeMeters>3122.800048828125</AltitudeMeters>
            <DistanceMeters>22723.50690612</DistanceMeters>
          </Trackpoint>
          <Trackpoint>
            <Time>2019-07-15T15:05:52.000Z</Time>
            <Position>
              <LatitudeDegrees>37.06310816109180450439453125</LatitudeDegrees>
              <LongitudeDegrees>-3.3702524565160274505615234375</LongitudeDegrees>
            </Position>
            <AltitudeMeters>3122.199951171875</AltitudeMeters>
            <DistanceMeters>22732.84566826</DistanceMeters>
          </Trackpoint>
          <Trackpoint>
            <Time>2019-07-15T15:05:53.000Z</Time>
            <Position>
              <LatitudeDegrees>37.06312132067978382110595703125</LatitudeDegrees>
              <LongitudeDegrees>-3.3702571503818035125732421875</LongitudeDegrees>
            </Position>
            <AltitudeMeters>3122</AltitudeMeters>
            <DistanceMeters>22734.36906238</DistanceMeters>
          </Trackpoint>
          <Trackpoint>
            <Time>2019-07-15T15:05:54.000Z</Time>
            <Position>
              <LatitudeDegrees>37.06313406117260456085205078125</LatitudeDegrees>
              <LongitudeDegrees>-3.370255641639232635498046875</LongitudeDegrees>
            </Position>
            <AltitudeMeters>3121.60009765625</AltitudeMeters>
            <DistanceMeters>22735.791292011</DistanceMeters>
          </Trackpoint>
          <Trackpoint>
            <Time>2019-07-15T15:05:55.000Z</Time>
            <Position>
              <LatitudeDegrees>37.0631463825702667236328125</LatitudeDegrees>
              <LongitudeDegrees>-3.37025798857212066650390625</LongitudeDegrees>
            </Position>
            <AltitudeMeters>3121.39990234375</AltitudeMeters>
            <DistanceMeters>22737.178161249</DistanceMeters>
          </Trackpoint>
          <Trackpoint>
            <Time>2019-07-15T15:05:56.000Z</Time>
            <Position>
              <LatitudeDegrees>37.063157446682453155517578125</LatitudeDegrees>
              <LongitudeDegrees>-3.3702655322849750518798828125</LongitudeDegrees>
            </Position>
            <AltitudeMeters>3121.39990234375</AltitudeMeters>
            <DistanceMeters>22738.581213872</DistanceMeters>
          </Trackpoint>
          <Trackpoint>
            <Time>2019-07-15T15:05:57.000Z</Time>
            <Position>
              <LatitudeDegrees>37.0631710253655910491943359375</LatitudeDegrees>
              <LongitudeDegrees>-3.3702672086656093597412109375</LongitudeDegrees>
            </Position>
            <AltitudeMeters>3121.39990234375</AltitudeMeters>
            <DistanceMeters>22740.101641302</DistanceMeters>
          </Trackpoint>
          <Trackpoint>
            <Time>2019-07-15T15:05:58.000Z</Time>
            <Position>
              <LatitudeDegrees>37.0631810836493968963623046875</LatitudeDegrees>
              <LongitudeDegrees>-3.37026846595108509063720703125</LongitudeDegrees>
            </Position>
            <AltitudeMeters>3121.39990234375</AltitudeMeters>
            <DistanceMeters>22741.22601255</DistanceMeters>
          </Trackpoint>
          <Trackpoint>
            <Time>2019-07-15T15:06:10.000Z</Time>
            <Position>
              <LatitudeDegrees>37.0633078180253505706787109375</LatitudeDegrees>
              <LongitudeDegrees>-3.37034809403121471405029296875</LongitudeDegrees>
            </Position>
            <AltitudeMeters>3120.800048828125</AltitudeMeters>
            <DistanceMeters>22757.005598345</DistanceMeters>
          </Trackpoint>
          <Trackpoint>
            <Time>2019-07-15T15:06:11.000Z</Time>
            <Position>
              <LatitudeDegrees>37.0633195526897907257080078125</LatitudeDegrees>
              <LongitudeDegrees>-3.37035119533538818359375</LongitudeDegrees>
            </Position>
            <AltitudeMeters>3120.60009765625</AltitudeMeters>
            <DistanceMeters>22758.342742741</DistanceMeters>
          </Trackpoint>
          <Trackpoint>
            <Time>2019-07-15T15:06:12.000Z</Time>
            <Position>
              <LatitudeDegrees>37.06333355046808719635009765625</LatitudeDegrees>
              <LongitudeDegrees>-3.37035010568797588348388671875</LongitudeDegrees>
            </Position>
            <AltitudeMeters>3120.39990234375</AltitudeMeters>
            <DistanceMeters>22759.90707989</DistanceMeters>
          </Trackpoint>
          <Trackpoint>
            <Time>2019-07-15T15:06:30.000Z</Time>
            <Position>
              <LatitudeDegrees>37.0635455287992954254150390625</LatitudeDegrees>
              <LongitudeDegrees>-3.3703587390482425689697265625</LongitudeDegrees>
            </Position>
            <AltitudeMeters>3118.60009765625</AltitudeMeters>
            <DistanceMeters>22783.513138802</DistanceMeters>
          </Trackpoint>
          <Trackpoint>
            <Time>2019-07-15T15:06:51.000Z</Time>
            <Position>
              <LatitudeDegrees>37.06370570696890354156494140625</LatitudeDegrees>
              <LongitudeDegrees>-3.37033820338547229766845703125</LongitudeDegrees>
            </Position>
            <AltitudeMeters>3115.39990234375</AltitudeMeters>
            <DistanceMeters>22801.434431414</DistanceMeters>
          </Trackpoint>
          <Trackpoint>
            <Time>2019-07-15T15:06:56.000Z</Time>
            <Position>
              <LatitudeDegrees>37.063744850456714630126953125</LatitudeDegrees>
              <LongitudeDegrees>-3.3703433163464069366455078125</LongitudeDegrees>
            </Position>
            <AltitudeMeters>3113.800048828125</AltitudeMeters>
            <DistanceMeters>22805.814946503</DistanceMeters>
          </Trackpoint>
          <Trackpoint>
            <Time>2019-07-15T15:06:57.000Z</Time>
            <Position>
              <LatitudeDegrees>37.06375189125537872314453125</LatitudeDegrees>
              <LongitudeDegrees>-3.37035052478313446044921875</LongitudeDegrees>
            </Position>
            <AltitudeMeters>3113.800048828125</AltitudeMeters>
            <DistanceMeters>22806.82061472</DistanceMeters>
          </Trackpoint>
          <Trackpoint>
            <Time>2019-07-15T15:06:58.000Z</Time>
            <Position>
              <LatitudeDegrees>37.06376387737691402435302734375</LatitudeDegrees>
              <LongitudeDegrees>-3.3703463338315486907958984375</LongitudeDegrees>
            </Position>
            <AltitudeMeters>3113.60009765625</AltitudeMeters>
            <DistanceMeters>22808.204224566</DistanceMeters>
          </Trackpoint>
          <Trackpoint>
            <Time>2019-07-15T15:06:59.000Z</Time>
            <Position>
              <LatitudeDegrees>37.06377326510846614837646484375</LatitudeDegrees>
              <LongitudeDegrees>-3.3703453280031681060791015625</LongitudeDegrees>
            </Position>
            <AltitudeMeters>3113.60009765625</AltitudeMeters>
            <DistanceMeters>22809.25812181</DistanceMeters>
          </Trackpoint>
          <Trackpoint>
            <Time>2019-07-15T15:07:00.000Z</Time>
            <Position>
              <LatitudeDegrees>37.063783071935176849365234375</LatitudeDegrees>
              <LongitudeDegrees>-3.3703443221747875213623046875</LongitudeDegrees>
            </Position>
            <AltitudeMeters>3113.60009765625</AltitudeMeters>
            <DistanceMeters>22810.354023342</DistanceMeters>
          </Trackpoint>
          <Trackpoint>
            <Time>2019-07-15T15:07:13.000Z</Time>
            <Position>
              <LatitudeDegrees>37.0638918690383434295654296875</LatitudeDegrees>
              <LongitudeDegrees>-3.3703765086829662322998046875</LongitudeDegrees>
            </Position>
            <AltitudeMeters>3110.39990234375</AltitudeMeters>
            <DistanceMeters>22822.795629766</DistanceMeters>
          </Trackpoint>
          <Trackpoint>
            <Time>2019-07-15T15:07:31.000Z</Time>
            <Position>
              <LatitudeDegrees>37.06396705470979213714599609375</LatitudeDegrees>
              <LongitudeDegrees>-3.37039503268897533416748046875</LongitudeDegrees>
            </Position>
            <AltitudeMeters>3108.800048828125</AltitudeMeters>
            <DistanceMeters>22831.323714878</DistanceMeters>
          </Trackpoint>
          <Trackpoint>
            <Time>2019-07-15T15:07:32.000Z</Time>
            <Position>
              <LatitudeDegrees>37.06397744826972484588623046875</LatitudeDegrees>
              <LongitudeDegrees>-3.37040140293538570404052734375</LongitudeDegrees>
            </Position>
            <AltitudeMeters>3108.60009765625</AltitudeMeters>
            <DistanceMeters>22832.612719946</DistanceMeters>
          </Trackpoint>
          <Trackpoint>
            <Time>2019-07-15T15:07:33.000Z</Time>
            <Position>
              <LatitudeDegrees>37.06398683600127696990966796875</LatitudeDegrees>
              <LongitudeDegrees>-3.370404504239559173583984375</LongitudeDegrees>
            </Position>
            <AltitudeMeters>3108</AltitudeMeters>
            <DistanceMeters>22833.692015949</DistanceMeters>
          </Trackpoint>
          <Trackpoint>
            <Time>2019-07-15T15:07:51.000Z</Time>
            <Position>
              <LatitudeDegrees>37.064143158495426177978515625</LatitudeDegrees>
              <LongitudeDegrees>-3.37048061192035675048828125</LongitudeDegrees>
            </Position>
            <AltitudeMeters>3105</AltitudeMeters>
            <DistanceMeters>22852.358175157</DistanceMeters>
          </Trackpoint>
          <Trackpoint>
            <Time>2019-07-15T15:08:10.000Z</Time>
            <Position>
              <LatitudeDegrees>37.06432714127004146575927734375</LatitudeDegrees>
              <LongitudeDegrees>-3.37056149728596210479736328125</LongitudeDegrees>
            </Position>
            <AltitudeMeters>3102</AltitudeMeters>
            <DistanceMeters>22874.05945569</DistanceMeters>
          </Trackpoint>
          <Trackpoint>
            <Time>2019-07-15T15:08:12.000Z</Time>
            <Position>
              <LatitudeDegrees>37.06434809602797031402587890625</LatitudeDegrees>
              <LongitudeDegrees>-3.37056367658078670501708984375</LongitudeDegrees>
            </Position>
            <AltitudeMeters>3101.39990234375</AltitudeMeters>
            <DistanceMeters>22876.400664011</DistanceMeters>
          </Trackpoint>
          <Trackpoint>
            <Time>2019-07-15T15:08:22.000Z</Time>
            <Position>
              <LatitudeDegrees>37.06443727947771549224853515625</LatitudeDegrees>
              <LongitudeDegrees>-3.370588906109333038330078125</LongitudeDegrees>
            </Position>
            <AltitudeMeters>3100.39990234375</AltitudeMeters>
            <DistanceMeters>22886.576955902</DistanceMeters>
          </Trackpoint>
          <Trackpoint>
            <Time>2019-07-15T15:08:30.000Z</Time>
            <Position>
              <LatitudeDegrees>37.064516656100749969482421875</LatitudeDegrees>
              <LongitudeDegrees>-3.37059150449931621551513671875</LongitudeDegrees>
            </Position>
            <AltitudeMeters>3098.60009765625</AltitudeMeters>
            <DistanceMeters>22895.41495122</DistanceMeters>
          </Trackpoint>
          <Trackpoint>
            <Time>2019-07-15T15:08:37.000Z</Time>
            <Position>
              <LatitudeDegrees>37.0645744912326335906982421875</LatitudeDegrees>
              <LongitudeDegrees>-3.3705998025834560394287109375</LongitudeDegrees>
            </Position>
            <AltitudeMeters>3098</AltitudeMeters>
            <DistanceMeters>22901.894909204</DistanceMeters>
          </Trackpoint>
          <Trackpoint>
            <Time>2019-07-15T15:08:38.000Z</Time>
            <Position>
              <LatitudeDegrees>37.06458345986902713775634765625</LatitudeDegrees>
              <LongitudeDegrees>-3.3706031553447246551513671875</LongitudeDegrees>
            </Position>
            <AltitudeMeters>3097.800048828125</AltitudeMeters>
            <DistanceMeters>22902.935874704</DistanceMeters>
          </Trackpoint>
          <Trackpoint>
            <Time>2019-07-15T15:08:39.000Z</Time>
            <Position>
              <LatitudeDegrees>37.0645919255912303924560546875</LatitudeDegrees>
              <LongitudeDegrees>-3.37060474790632724761962890625</LongitudeDegrees>
            </Position>
            <AltitudeMeters>3097.39990234375</AltitudeMeters>
            <DistanceMeters>22903.886141848</DistanceMeters>
          </Trackpoint>
          <Trackpoint>
            <Time>2019-07-15T15:08:40.000Z</Time>
            <Position>
              <LatitudeDegrees>37.06459770910441875457763671875</LatitudeDegrees>
              <LongitudeDegrees>-3.3706112019717693328857421875</LongitudeDegrees>
            </Position>
            <AltitudeMeters>3097</AltitudeMeters>
            <DistanceMeters>22904.746645345</DistanceMeters>
          </Trackpoint>
          <Trackpoint>
            <Time>2019-07-15T15:08:41.000Z</Time>
            <Position>
              <LatitudeDegrees>37.06460692919790744781494140625</LatitudeDegrees>
              <LongitudeDegrees>-3.37061740458011627197265625</LongitudeDegrees>
            </Position>
            <AltitudeMeters>3096.60009765625</AltitudeMeters>
            <DistanceMeters>22905.914353161</DistanceMeters>
          </Trackpoint>
          <Trackpoint>
            <Time>2019-07-15T15:08:42.000Z</Time>
            <Position>
              <LatitudeDegrees>37.06461547873914241790771484375</LatitudeDegrees>
              <LongitudeDegrees>-3.3706202544271945953369140625</LongitudeDegrees>
            </Position>
            <AltitudeMeters>3096.60009765625</AltitudeMeters>
            <DistanceMeters>22906.897317137</DistanceMeters>
          </Trackpoint>
          <Trackpoint>
            <Time>2019-07-15T15:08:52.000Z</Time>
            <Position>
              <LatitudeDegrees>37.06472159363329410552978515625</LatitudeDegrees>
              <LongitudeDegrees>-3.37064883671700954437255859375</LongitudeDegrees>
            </Position>
            <AltitudeMeters>3095.39990234375</AltitudeMeters>
            <DistanceMeters>22918.978049544</DistanceMeters>
          </Trackpoint>
          <Trackpoint>
            <Time>2019-07-15T15:09:10.000Z</Time>
            <Position>
              <LatitudeDegrees>37.06491521559655666351318359375</LatitudeDegrees>
              <LongitudeDegrees>-3.37067549116909503936767578125</LongitudeDegrees>
            </Position>
            <AltitudeMeters>3094.39990234375</AltitudeMeters>
            <DistanceMeters>22940.65830644</DistanceMeters>
          </Trackpoint>
          <Trackpoint>
            <Time>2019-07-15T15:09:18.000Z</Time>
            <Position>
              <LatitudeDegrees>37.0649935863912105560302734375</LatitudeDegrees>
              <LongitudeDegrees>-3.37072410620748996734619140625</LongitudeDegrees>
            </Position>
            <AltitudeMeters>3093.60009765625</AltitudeMeters>
            <DistanceMeters>22950.391009142</DistanceMeters>
          </Trackpoint>
          <Trackpoint>
            <Time>2019-07-15T15:09:19.000Z</Time>
            <Position>
              <LatitudeDegrees>37.0650012977421283721923828125</LatitudeDegrees>
              <LongitudeDegrees>-3.370734415948390960693359375</LongitudeDegrees>
            </Position>
            <AltitudeMeters>3093.800048828125</AltitudeMeters>
            <DistanceMeters>22951.644497595</DistanceMeters>
          </Trackpoint>
          <Trackpoint>
            <Time>2019-07-15T15:09:20.000Z</Time>
            <Position>
              <LatitudeDegrees>37.06501009874045848846435546875</LatitudeDegrees>
              <LongitudeDegrees>-3.37074371986091136932373046875</LongitudeDegrees>
            </Position>
            <AltitudeMeters>3094</AltitudeMeters>
            <DistanceMeters>22952.92647806</DistanceMeters>
          </Trackpoint>
          <Trackpoint>
            <Time>2019-07-15T15:09:38.000Z</Time>
            <Position>
              <LatitudeDegrees>37.0651716180145740509033203125</LatitudeDegrees>
              <LongitudeDegrees>-3.37086726911365985870361328125</LongitudeDegrees>
            </Position>
            <AltitudeMeters>3090.800048828125</AltitudeMeters>
            <DistanceMeters>22973.988136951</DistanceMeters>
          </Trackpoint>
          <Trackpoint>
            <Time>2019-07-15T15:09:43.000Z</Time>
            <Position>
              <LatitudeDegrees>37.06521461717784404754638671875</LatitudeDegrees>
              <LongitudeDegrees>-3.3708968572318553924560546875</LongitudeDegrees>
            </Position>
            <AltitudeMeters>3089.800048828125</AltitudeMeters>
            <DistanceMeters>22979.448660041</DistanceMeters>
          </Trackpoint>
          <Trackpoint>
            <Time>2019-07-15T15:09:44.000Z</Time>
            <Position>
              <LatitudeDegrees>37.0652209036052227020263671875</LatitudeDegrees>
              <LongitudeDegrees>-3.37090574204921722412109375</LongitudeDegrees>
            </Position>
            <AltitudeMeters>3089.800048828125</AltitudeMeters>
            <DistanceMeters>22980.506832749</DistanceMeters>
          </Trackpoint>
          <Trackpoint>
            <Time>2019-07-15T15:09:45.000Z</Time>
            <Position>
              <LatitudeDegrees>37.06522719003260135650634765625</LatitudeDegrees>
              <LongitudeDegrees>-3.37091370485723018646240234375</LongitudeDegrees>
            </Position>
            <AltitudeMeters>3089.60009765625</AltitudeMeters>
            <DistanceMeters>22981.498940773</DistanceMeters>
          </Trackpoint>
          <Trackpoint>
            <Time>2019-07-15T15:09:46.000Z</Time>
            <Position>
              <LatitudeDegrees>37.06523573957383632659912109375</LatitudeDegrees>
              <LongitudeDegrees>-3.3709203265607357025146484375</LongitudeDegrees>
            </Position>
            <AltitudeMeters>3089.60009765625</AltitudeMeters>
            <DistanceMeters>22982.615251908</DistanceMeters>
          </Trackpoint>
          <Trackpoint>
            <Time>2019-07-15T15:09:47.000Z</Time>
            <Position>
              <LatitudeDegrees>37.0652465522289276123046875</LatitudeDegrees>
              <LongitudeDegrees>-3.3709256909787654876708984375</LongitudeDegrees>
            </Position>
            <AltitudeMeters>3089.199951171875</AltitudeMeters>
            <DistanceMeters>22983.911243505</DistanceMeters>
          </Trackpoint>
          <Trackpoint>
            <Time>2019-07-15T15:10:08.000Z</Time>
            <Position>
              <LatitudeDegrees>37.06541209481656551361083984375</LatitudeDegrees>
              <LongitudeDegrees>-3.37103256024420261383056640625</LongitudeDegrees>
            </Position>
            <AltitudeMeters>3086.60009765625</AltitudeMeters>
            <DistanceMeters>23004.637526254</DistanceMeters>
          </Trackpoint>
          <Trackpoint>
            <Time>2019-07-15T15:10:09.000Z</Time>
            <Position>
              <LatitudeDegrees>37.0654187165200710296630859375</LatitudeDegrees>
              <LongitudeDegrees>-3.37104395963251590728759765625</LongitudeDegrees>
            </Position>
            <AltitudeMeters>3086.39990234375</AltitudeMeters>
            <DistanceMeters>23005.891014706</DistanceMeters>
          </Trackpoint>
          <Trackpoint>
            <Time>2019-07-15T15:10:37.000Z</Time>
            <Position>
              <LatitudeDegrees>37.06551812589168548583984375</LatitudeDegrees>
              <LongitudeDegrees>-3.3711399324238300323486328125</LongitudeDegrees>
            </Position>
            <AltitudeMeters>3087.39990234375</AltitudeMeters>
            <DistanceMeters>23019.858325525</DistanceMeters>
          </Trackpoint>
          <Trackpoint>
            <Time>2019-07-15T15:10:41.000Z</Time>
            <Position>
              <LatitudeDegrees>37.0655206404626369476318359375</LatitudeDegrees>
              <LongitudeDegrees>-3.371145464479923248291015625</LongitudeDegrees>
            </Position>
            <AltitudeMeters>3085.60009765625</AltitudeMeters>
            <DistanceMeters>23020.428485811</DistanceMeters>
          </Trackpoint>
          <Trackpoint>
            <Time>2019-07-15T15:10:52.000Z</Time>
            <Position>
              <LatitudeDegrees>37.06551904790103435516357421875</LatitudeDegrees>
              <LongitudeDegrees>-3.37117069400846958160400390625</LongitudeDegrees>
            </Position>
            <AltitudeMeters>3084.800048828125</AltitudeMeters>
            <DistanceMeters>23022.677228306</DistanceMeters>
          </Trackpoint>
          <Trackpoint>
            <Time>2019-07-15T15:10:53.000Z</Time>
            <Position>
              <LatitudeDegrees>37.06552390940487384796142578125</LatitudeDegrees>
              <LongitudeDegrees>-3.3711835183203220367431640625</LongitudeDegrees>
            </Position>
            <AltitudeMeters>3084.39990234375</AltitudeMeters>
            <DistanceMeters>23023.937900132</DistanceMeters>
          </Trackpoint>
          <Trackpoint>
            <Time>2019-07-15T15:10:54.000Z</Time>
            <Position>
              <LatitudeDegrees>37.06553019583225250244140625</LatitudeDegrees>
              <LongitudeDegrees>-3.3711929060518741607666015625</LongitudeDegrees>
            </Position>
            <AltitudeMeters>3083.800048828125</AltitudeMeters>
            <DistanceMeters>23025.021371377</DistanceMeters>
          </Trackpoint>
          <Trackpoint>
            <Time>2019-07-15T15:10:55.000Z</Time>
            <Position>
              <LatitudeDegrees>37.06553882919251918792724609375</LatitudeDegrees>
              <LongitudeDegrees>-3.3712022937834262847900390625</LongitudeDegrees>
            </Position>
            <AltitudeMeters>3082.60009765625</AltitudeMeters>
            <DistanceMeters>23026.292742166</DistanceMeters>
          </Trackpoint>
          <Trackpoint>
            <Time>2019-07-15T15:10:56.000Z</Time>
            <Position>
              <LatitudeDegrees>37.065549306571483612060546875</LatitudeDegrees>
              <LongitudeDegrees>-3.371210508048534393310546875</LongitudeDegrees>
            </Position>
            <AltitudeMeters>3081.39990234375</AltitudeMeters>
            <DistanceMeters>23027.673084924</DistanceMeters>
          </Trackpoint>
          <Trackpoint>
            <Time>2019-07-15T15:10:57.000Z</Time>
            <Position>
              <LatitudeDegrees>37.0655591972172260284423828125</LatitudeDegrees>
              <LongitudeDegrees>-3.37121964432299137115478515625</LongitudeDegrees>
            </Position>
            <AltitudeMeters>3080.800048828125</AltitudeMeters>
            <DistanceMeters>23029.043579689</DistanceMeters>
          </Trackpoint>
          <Trackpoint>
            <Time>2019-07-15T15:10:58.000Z</Time>
            <Position>
              <LatitudeDegrees>37.065570764243602752685546875</LatitudeDegrees>
              <LongitudeDegrees>-3.3712284453213214874267578125</LongitudeDegrees>
            </Position>
            <AltitudeMeters>3080.60009765625</AltitudeMeters>
            <DistanceMeters>23030.546083969</DistanceMeters>
          </Trackpoint>
          <Trackpoint>
            <Time>2019-07-15T15:11:10.000Z</Time>
            <Position>
              <LatitudeDegrees>37.06566631793975830078125</LatitudeDegrees>
              <LongitudeDegrees>-3.37131419219076633453369140625</LongitudeDegrees>
            </Position>
            <AltitudeMeters>3078.60009765625</AltitudeMeters>
            <DistanceMeters>23043.626676022</DistanceMeters>
          </Trackpoint>
          <Trackpoint>
            <Time>2019-07-15T15:11:28.000Z</Time>
            <Position>
              <LatitudeDegrees>37.06583923660218715667724609375</LatitudeDegrees>
              <LongitudeDegrees>-3.3714252524077892303466796875</LongitudeDegrees>
            </Position>
            <AltitudeMeters>3075.60009765625</AltitudeMeters>
            <DistanceMeters>23065.253136189</DistanceMeters>
          </Trackpoint>
          <Trackpoint>
            <Time>2019-07-15T15:11:37.000Z</Time>
            <Position>
              <LatitudeDegrees>37.0659196190536022186279296875</LatitudeDegrees>
              <LongitudeDegrees>-3.37146104313433170318603515625</LongitudeDegrees>
            </Position>
            <AltitudeMeters>3073.39990234375</AltitudeMeters>
            <DistanceMeters>23074.747726919</DistanceMeters>
          </Trackpoint>
          <Trackpoint>
            <Time>2019-07-15T15:11:38.000Z</Time>
            <Position>
              <LatitudeDegrees>37.0659280009567737579345703125</LatitudeDegrees>
              <LongitudeDegrees>-3.37146707810461521148681640625</LongitudeDegrees>
            </Position>
            <AltitudeMeters>3073.60009765625</AltitudeMeters>
            <DistanceMeters>23075.822831465</DistanceMeters>
          </Trackpoint>
          <Trackpoint>
            <Time>2019-07-15T15:11:39.000Z</Time>
            <Position>
              <LatitudeDegrees>37.06593923270702362060546875</LatitudeDegrees>
              <LongitudeDegrees>-3.37147160433232784271240234375</LongitudeDegrees>
            </Position>
            <AltitudeMeters>3073.800048828125</AltitudeMeters>
            <DistanceMeters>23077.139560244</DistanceMeters>
          </Trackpoint>
          <Trackpoint>
            <Time>2019-07-15T15:11:40.000Z</Time>
            <Position>
              <LatitudeDegrees>37.065951637923717498779296875</LatitudeDegrees>
              <LongitudeDegrees>-3.37147562764585018157958984375</LongitudeDegrees>
            </Position>
            <AltitudeMeters>3073.39990234375</AltitudeMeters>
            <DistanceMeters>23078.56496096</DistanceMeters>
          </Trackpoint>
          <Trackpoint>
            <Time>2019-07-15T15:11:41.000Z</Time>
            <Position>
              <LatitudeDegrees>37.06596178002655506134033203125</LatitudeDegrees>
              <LongitudeDegrees>-3.371480070054531097412109375</LongitudeDegrees>
            </Position>
            <AltitudeMeters>3073</AltitudeMeters>
            <DistanceMeters>23079.759428238</DistanceMeters>
          </Trackpoint>
          <Trackpoint>
            <Time>2019-07-15T15:11:42.000Z</Time>
            <Position>
              <LatitudeDegrees>37.06597032956779003143310546875</LatitudeDegrees>
              <LongitudeDegrees>-3.37148468010127544403076171875</LongitudeDegrees>
            </Position>
            <AltitudeMeters>3072.800048828125</AltitudeMeters>
            <DistanceMeters>23080.791682577</DistanceMeters>
          </Trackpoint>
          <Trackpoint>
            <Time>2019-07-15T15:11:51.000Z</Time>
            <Position>
              <LatitudeDegrees>37.0660795457661151885986328125</LatitudeDegrees>
              <LongitudeDegrees>-3.37150990962982177734375</LongitudeDegrees>
            </Position>
            <AltitudeMeters>3071.199951171875</AltitudeMeters>
            <DistanceMeters>23093.15246303</DistanceMeters>
          </Trackpoint>
          <Trackpoint>
            <Time>2019-07-15T15:11:52.000Z</Time>
            <Position>
              <LatitudeDegrees>37.06609077751636505126953125</LatitudeDegrees>
              <LongitudeDegrees>-3.37150412611663341522216796875</LongitudeDegrees>
            </Position>
            <AltitudeMeters>3070.800048828125</AltitudeMeters>
            <DistanceMeters>23094.503046401</DistanceMeters>
          </Trackpoint>
          <Trackpoint>
            <Time>2019-07-15T15:11:53.000Z</Time>
            <Position>
              <LatitudeDegrees>37.0661008358001708984375</LatitudeDegrees>
              <LongitudeDegrees>-3.3714978396892547607421875</LongitudeDegrees>
            </Position>
            <AltitudeMeters>3070.60009765625</AltitudeMeters>
            <DistanceMeters>23095.749310077</DistanceMeters>
          </Trackpoint>
          <Trackpoint>
            <Time>2019-07-15T15:11:56.000Z</Time>
            <Position>
              <LatitudeDegrees>37.066127993166446685791015625</LatitudeDegrees>
              <LongitudeDegrees>-3.371494151651859283447265625</LongitudeDegrees>
            </Position>
            <AltitudeMeters>3070</AltitudeMeters>
            <DistanceMeters>23098.790164937</DistanceMeters>
          </Trackpoint>
          <Trackpoint>
            <Time>2019-07-15T15:12:11.000Z</Time>
            <Position>
              <LatitudeDegrees>37.066242992877960205078125</LatitudeDegrees>
              <LongitudeDegrees>-3.3715935610234737396240234375</LongitudeDegrees>
            </Position>
            <AltitudeMeters>3067.800048828125</AltitudeMeters>
            <DistanceMeters>23114.33945099</DistanceMeters>
          </Trackpoint>
          <Trackpoint>
            <Time>2019-07-15T15:12:12.000Z</Time>
            <Position>
              <LatitudeDegrees>37.06624768674373626708984375</LatitudeDegrees>
              <LongitudeDegrees>-3.371603786945343017578125</LongitudeDegrees>
            </Position>
            <AltitudeMeters>3067.800048828125</AltitudeMeters>
            <DistanceMeters>23115.384744849</DistanceMeters>
          </Trackpoint>
          <Trackpoint>
            <Time>2019-07-15T15:12:13.000Z</Time>
            <Position>
              <LatitudeDegrees>37.0662559010088443756103515625</LatitudeDegrees>
              <LongitudeDegrees>-3.37161510251462459564208984375</LongitudeDegrees>
            </Position>
            <AltitudeMeters>3067.800048828125</AltitudeMeters>
            <DistanceMeters>23116.748634781</DistanceMeters>
          </Trackpoint>
          <Trackpoint>
            <Time>2019-07-15T15:12:25.000Z</Time>
            <Position>
              <LatitudeDegrees>37.06636377610266208648681640625</LatitudeDegrees>
              <LongitudeDegrees>-3.37170462124049663543701171875</LongitudeDegrees>
            </Position>
            <AltitudeMeters>3064.60009765625</AltitudeMeters>
            <DistanceMeters>23131.149180102</DistanceMeters>
          </Trackpoint>
          <Trackpoint>
            <Time>2019-07-15T15:12:32.000Z</Time>
            <Position>
              <LatitudeDegrees>37.06644742749631404876708984375</LatitudeDegrees>
              <LongitudeDegrees>-3.37174259126186370849609375</LongitudeDegrees>
            </Position>
            <AltitudeMeters>3062.800048828125</AltitudeMeters>
            <DistanceMeters>23141.052039799</DistanceMeters>
          </Trackpoint>
          <Trackpoint>
            <Time>2019-07-15T15:12:45.000Z</Time>
            <Position>
              <LatitudeDegrees>37.06652789376676082611083984375</LatitudeDegrees>
              <LongitudeDegrees>-3.37185264565050601959228515625</LongitudeDegrees>
            </Position>
            <AltitudeMeters>3059.800048828125</AltitudeMeters>
            <DistanceMeters>23154.308862486</DistanceMeters>
          </Trackpoint>
          <Trackpoint>
            <Time>2019-07-15T15:12:53.000Z</Time>
            <Position>
              <LatitudeDegrees>37.0665646903216838836669921875</LatitudeDegrees>
              <LongitudeDegrees>-3.37191735394299030303955078125</LongitudeDegrees>
            </Position>
            <AltitudeMeters>3058.60009765625</AltitudeMeters>
            <DistanceMeters>23161.365195918</DistanceMeters>
          </Trackpoint>
          <Trackpoint>
            <Time>2019-07-15T15:12:57.000Z</Time>
            <Position>
              <LatitudeDegrees>37.0665864832699298858642578125</LatitudeDegrees>
              <LongitudeDegrees>-3.37194769643247127532958984375</LongitudeDegrees>
            </Position>
            <AltitudeMeters>3057.199951171875</AltitudeMeters>
            <DistanceMeters>23164.991184239</DistanceMeters>
          </Trackpoint>
          <Trackpoint>
            <Time>2019-07-15T15:12:58.000Z</Time>
            <Position>
              <LatitudeDegrees>37.06659612245857715606689453125</LatitudeDegrees>
              <LongitudeDegrees>-3.37194970808923244476318359375</LongitudeDegrees>
            </Position>
            <AltitudeMeters>3056.800048828125</AltitudeMeters>
            <DistanceMeters>23166.074655484</DistanceMeters>
          </Trackpoint>
          <Trackpoint>
            <Time>2019-07-15T15:13:16.000Z</Time>
            <Position>
              <LatitudeDegrees>37.066702656447887420654296875</LatitudeDegrees>
              <LongitudeDegrees>-3.372071497142314910888671875</LongitudeDegrees>
            </Position>
            <AltitudeMeters>3053.800048828125</AltitudeMeters>
            <DistanceMeters>23182.124327151</DistanceMeters>
          </Trackpoint>
          <Trackpoint>
            <Time>2019-07-15T15:13:21.000Z</Time>
            <Position>
              <LatitudeDegrees>37.0667155645787715911865234375</LatitudeDegrees>
              <LongitudeDegrees>-3.37211751379072666168212890625</LongitudeDegrees>
            </Position>
            <AltitudeMeters>3051.800048828125</AltitudeMeters>
            <DistanceMeters>23186.45612803</DistanceMeters>
          </Trackpoint>
          <Trackpoint>
            <Time>2019-07-15T15:13:38.000Z</Time>
            <Position>
              <LatitudeDegrees>37.0667993836104869842529296875</LatitudeDegrees>
              <LongitudeDegrees>-3.37225757539272308349609375</LongitudeDegrees>
            </Position>
            <AltitudeMeters>3048.60009765625</AltitudeMeters>
            <DistanceMeters>23202.004833334</DistanceMeters>
          </Trackpoint>
          <Trackpoint>
            <Time>2019-07-15T15:13:49.000Z</Time>
            <Position>
              <LatitudeDegrees>37.066885717213153839111328125</LatitudeDegrees>
              <LongitudeDegrees>-3.37235321290791034698486328125</LongitudeDegrees>
            </Position>
            <AltitudeMeters>3046.60009765625</AltitudeMeters>
            <DistanceMeters>23214.829567731</DistanceMeters>
          </Trackpoint>
          <Trackpoint>
            <Time>2019-07-15T15:13:50.000Z</Time>
            <Position>
              <LatitudeDegrees>37.06689544022083282470703125</LatitudeDegrees>
              <LongitudeDegrees>-3.37235891260206699371337890625</LongitudeDegrees>
            </Position>
            <AltitudeMeters>3046.199951171875</AltitudeMeters>
            <DistanceMeters>23216.024035009</DistanceMeters>
          </Trackpoint>
          <Trackpoint>
            <Time>2019-07-15T15:13:51.000Z</Time>
            <Position>
              <LatitudeDegrees>37.066905833780765533447265625</LatitudeDegrees>
              <LongitudeDegrees>-3.3723687194287776947021484375</LongitudeDegrees>
            </Position>
            <AltitudeMeters>3046</AltitudeMeters>
            <DistanceMeters>23217.4714388</DistanceMeters>
          </Trackpoint>
          <Trackpoint>
            <Time>2019-07-15T15:13:52.000Z</Time>
            <Position>
              <LatitudeDegrees>37.0669170655310153961181640625</LatitudeDegrees>
              <LongitudeDegrees>-3.37237668223679065704345703125</LongitudeDegrees>
            </Position>
            <AltitudeMeters>3045.60009765625</AltitudeMeters>
            <DistanceMeters>23218.906310721</DistanceMeters>
          </Trackpoint>
          <Trackpoint>
            <Time>2019-07-15T15:13:53.000Z</Time>
            <Position>
              <LatitudeDegrees>37.06692737527191638946533203125</LatitudeDegrees>
              <LongitudeDegrees>-3.3723828010261058807373046875</LongitudeDegrees>
            </Position>
            <AltitudeMeters>3045.60009765625</AltitudeMeters>
            <DistanceMeters>23220.174125221</DistanceMeters>
          </Trackpoint>
          <Trackpoint>
            <Time>2019-07-15T15:13:55.000Z</Time>
            <Position>
              <LatitudeDegrees>37.06694237887859344482421875</LatitudeDegrees>
              <LongitudeDegrees>-3.37239746935665607452392578125</LongitudeDegrees>
            </Position>
            <AltitudeMeters>3045.60009765625</AltitudeMeters>
            <DistanceMeters>23222.290470636</DistanceMeters>
          </Trackpoint>
          <Trackpoint>
            <Time>2019-07-15T15:13:56.000Z</Time>
            <Position>
              <LatitudeDegrees>37.0669489167630672454833984375</LatitudeDegrees>
              <LongitudeDegrees>-3.37240618653595447540283203125</LongitudeDegrees>
            </Position>
            <AltitudeMeters>3045.39990234375</AltitudeMeters>
            <DistanceMeters>23223.348643344</DistanceMeters>
          </Trackpoint>
          <Trackpoint>
            <Time>2019-07-15T15:14:27.000Z</Time>
            <Position>
              <LatitudeDegrees>37.06700935028493404388427734375</LatitudeDegrees>
              <LongitudeDegrees>-3.37247206829488277435302734375</LongitudeDegrees>
            </Position>
            <AltitudeMeters>3044.39990234375</AltitudeMeters>
            <DistanceMeters>23232.263952248</DistanceMeters>
          </Trackpoint>
          <Trackpoint>
            <Time>2019-07-15T15:14:43.000Z</Time>
            <Position>
              <LatitudeDegrees>37.06711295060813426971435546875</LatitudeDegrees>
              <LongitudeDegrees>-3.37255622260272502899169921875</LongitudeDegrees>
            </Position>
            <AltitudeMeters>3041.199951171875</AltitudeMeters>
            <DistanceMeters>23246.005091154</DistanceMeters>
          </Trackpoint>
          <Trackpoint>
            <Time>2019-07-15T15:14:57.000Z</Time>
            <Position>
              <LatitudeDegrees>37.06719718873500823974609375</LatitudeDegrees>
              <LongitudeDegrees>-3.37265663780272006988525390625</LongitudeDegrees>
            </Position>
            <AltitudeMeters>3039</AltitudeMeters>
            <DistanceMeters>23258.944785023</DistanceMeters>
          </Trackpoint>
          <Trackpoint>
            <Time>2019-07-15T15:15:00.000Z</Time>
            <Position>
              <LatitudeDegrees>37.0672131143510341644287109375</LatitudeDegrees>
              <LongitudeDegrees>-3.3726795203983783721923828125</LongitudeDegrees>
            </Position>
            <AltitudeMeters>3039</AltitudeMeters>
            <DistanceMeters>23261.642606666</DistanceMeters>
          </Trackpoint>
          <Trackpoint>
            <Time>2019-07-15T15:15:01.000Z</Time>
            <Position>
              <LatitudeDegrees>37.0672191493213176727294921875</LatitudeDegrees>
              <LongitudeDegrees>-3.37269100360572338104248046875</LongitudeDegrees>
            </Position>
            <AltitudeMeters>3039</AltitudeMeters>
            <DistanceMeters>23262.859542382</DistanceMeters>
          </Trackpoint>
          <Trackpoint>
            <Time>2019-07-15T15:15:02.000Z</Time>
            <Position>
              <LatitudeDegrees>37.06722476519644260406494140625</LatitudeDegrees>
              <LongitudeDegrees>-3.37270190007984638214111328125</LongitudeDegrees>
            </Position>
            <AltitudeMeters>3038.800048828125</AltitudeMeters>
            <DistanceMeters>23264.011680063</DistanceMeters>
          </Trackpoint>
          <Trackpoint>
            <Time>2019-07-15T15:15:03.000Z</Time>
            <Position>
              <LatitudeDegrees>37.0672362484037876129150390625</LatitudeDegrees>
              <LongitudeDegrees>-3.3727063424885272979736328125</LongitudeDegrees>
            </Position>
            <AltitudeMeters>3038.60009765625</AltitudeMeters>
            <DistanceMeters>23265.348824459</DistanceMeters>
          </Trackpoint>
          <Trackpoint>
            <Time>2019-07-15T15:15:04.000Z</Time>
            <Position>
              <LatitudeDegrees>37.06724345684051513671875</LatitudeDegrees>
              <LongitudeDegrees>-3.37271112017333507537841796875</LongitudeDegrees>
            </Position>
            <AltitudeMeters>3038.39990234375</AltitudeMeters>
            <DistanceMeters>23266.255321539</DistanceMeters>
          </Trackpoint>
          <Trackpoint>
            <Time>2019-07-15T15:15:19.000Z</Time>
            <Position>
              <LatitudeDegrees>37.06734881736338138580322265625</LatitudeDegrees>
              <LongitudeDegrees>-3.3728166483342647552490234375</LongitudeDegrees>
            </Position>
            <AltitudeMeters>3035.39990234375</AltitudeMeters>
            <DistanceMeters>23281.267136478</DistanceMeters>
          </Trackpoint>
          <Trackpoint>
            <Time>2019-07-15T15:15:35.000Z</Time>
            <Position>
              <LatitudeDegrees>37.06745292060077190399169921875</LatitudeDegrees>
              <LongitudeDegrees>-3.372913710772991180419921875</LongitudeDegrees>
            </Position>
            <AltitudeMeters>3032.39990234375</AltitudeMeters>
            <DistanceMeters>23295.709008781</DistanceMeters>
          </Trackpoint>
          <Trackpoint>
            <Time>2019-07-15T15:15:51.000Z</Time>
            <Position>
              <LatitudeDegrees>37.06747052259743213653564453125</LatitudeDegrees>
              <LongitudeDegrees>-3.3729842863976955413818359375</LongitudeDegrees>
            </Position>
            <AltitudeMeters>3031.60009765625</AltitudeMeters>
            <DistanceMeters>23302.27617294</DistanceMeters>
          </Trackpoint>
          <Trackpoint>
            <Time>2019-07-15T15:15:52.000Z</Time>
            <Position>
              <LatitudeDegrees>37.06747270189225673675537109375</LatitudeDegrees>
              <LongitudeDegrees>-3.37299543432891368865966796875</LongitudeDegrees>
            </Position>
            <AltitudeMeters>3031.39990234375</AltitudeMeters>
            <DistanceMeters>23303.290780606</DistanceMeters>
          </Trackpoint>
          <Trackpoint>
            <Time>2019-07-15T15:16:01.000Z</Time>
            <Position>
              <LatitudeDegrees>37.0675386674702167510986328125</LatitudeDegrees>
              <LongitudeDegrees>-3.3730194903910160064697265625</LongitudeDegrees>
            </Position>
            <AltitudeMeters>3029</AltitudeMeters>
            <DistanceMeters>23310.937922232</DistanceMeters>
          </Trackpoint>
          <Trackpoint>
            <Time>2019-07-15T15:16:15.000Z</Time>
            <Position>
              <LatitudeDegrees>37.06764637492597103118896484375</LatitudeDegrees>
              <LongitudeDegrees>-3.37311412207782268524169921875</LongitudeDegrees>
            </Position>
            <AltitudeMeters>3025.800048828125</AltitudeMeters>
            <DistanceMeters>23325.578513905</DistanceMeters>
          </Trackpoint>
          <Trackpoint>
            <Time>2019-07-15T15:16:21.000Z</Time>
            <Position>
              <LatitudeDegrees>37.06768442876636981964111328125</LatitudeDegrees>
              <LongitudeDegrees>-3.3731608092784881591796875</LongitudeDegrees>
            </Position>
            <AltitudeMeters>3024.39990234375</AltitudeMeters>
            <DistanceMeters>23331.505317206</DistanceMeters>
          </Trackpoint>
          <Trackpoint>
            <Time>2019-07-15T15:16:34.000Z</Time>
            <Position>
              <LatitudeDegrees>37.067728936672210693359375</LatitudeDegrees>
              <LongitudeDegrees>-3.37322459556162357330322265625</LongitudeDegrees>
            </Position>
            <AltitudeMeters>3023</AltitudeMeters>
            <DistanceMeters>23339.030449058</DistanceMeters>
          </Trackpoint>
          <Trackpoint>
            <Time>2019-07-15T15:16:35.000Z</Time>
            <Position>
              <LatitudeDegrees>37.067737989127635955810546875</LatitudeDegrees>
              <LongitudeDegrees>-3.373236246407032012939453125</LongitudeDegrees>
            </Position>
            <AltitudeMeters>3022.800048828125</AltitudeMeters>
            <DistanceMeters>23340.468464185</DistanceMeters>
          </Trackpoint>
          <Trackpoint>
            <Time>2019-07-15T15:16:36.000Z</Time>
            <Position>
              <LatitudeDegrees>37.06774142570793628692626953125</LatitudeDegrees>
              <LongitudeDegrees>-3.3732494898140430450439453125</LongitudeDegrees>
            </Position>
            <AltitudeMeters>3022.39990234375</AltitudeMeters>
            <DistanceMeters>23341.700151175</DistanceMeters>
          </Trackpoint>
          <Trackpoint>
            <Time>2019-07-15T15:16:41.000Z</Time>
            <Position>
              <LatitudeDegrees>37.06776808016002178192138671875</LatitudeDegrees>
              <LongitudeDegrees>-3.37329517118632793426513671875</LongitudeDegrees>
            </Position>
            <AltitudeMeters>3021.39990234375</AltitudeMeters>
            <DistanceMeters>23346.724899302</DistanceMeters>
          </Trackpoint>
          <Trackpoint>
            <Time>2019-07-15T15:16:42.000Z</Time>
            <Position>
              <LatitudeDegrees>37.0677726902067661285400390625</LatitudeDegrees>
              <LongitudeDegrees>-3.37330640293657779693603515625</LongitudeDegrees>
            </Position>
            <AltitudeMeters>3021.199951171875</AltitudeMeters>
            <DistanceMeters>23347.841210437</DistanceMeters>
          </Trackpoint>
          <Trackpoint>
            <Time>2019-07-15T15:16:43.000Z</Time>
            <Position>
              <LatitudeDegrees>37.0677773840725421905517578125</LatitudeDegrees>
              <LongitudeDegrees>-3.37331679649651050567626953125</LongitudeDegrees>
            </Position>
            <AltitudeMeters>3020.800048828125</AltitudeMeters>
            <DistanceMeters>23348.899383144</DistanceMeters>
          </Trackpoint>
          <Trackpoint>
            <Time>2019-07-15T15:16:57.000Z</Time>
            <Position>
              <LatitudeDegrees>37.06786698661744594573974609375</LatitudeDegrees>
              <LongitudeDegrees>-3.373428694903850555419921875</LongitudeDegrees>
            </Position>
            <AltitudeMeters>3017.800048828125</AltitudeMeters>
            <DistanceMeters>23362.978738175</DistanceMeters>
          </Trackpoint>
          <Trackpoint>
            <Time>2019-07-15T15:17:16.000Z</Time>
            <Position>
              <LatitudeDegrees>37.06794125027954578399658203125</LatitudeDegrees>
              <LongitudeDegrees>-3.37361955083906650543212890625</LongitudeDegrees>
            </Position>
            <AltitudeMeters>3014.39990234375</AltitudeMeters>
            <DistanceMeters>23381.836693274</DistanceMeters>
          </Trackpoint>
          <Trackpoint>
            <Time>2019-07-15T15:17:20.000Z</Time>
            <Position>
              <LatitudeDegrees>37.067965976893901824951171875</LatitudeDegrees>
              <LongitudeDegrees>-3.37365089915692806243896484375</LongitudeDegrees>
            </Position>
            <AltitudeMeters>3012.39990234375</AltitudeMeters>
            <DistanceMeters>23385.751286449</DistanceMeters>
          </Trackpoint>
          <Trackpoint>
            <Time>2019-07-15T15:17:21.000Z</Time>
            <Position>
              <LatitudeDegrees>37.06797477789223194122314453125</LatitudeDegrees>
              <LongitudeDegrees>-3.37366263382136821746826171875</LongitudeDegrees>
            </Position>
            <AltitudeMeters>3012</AltitudeMeters>
            <DistanceMeters>23387.17985121</DistanceMeters>
          </Trackpoint>
          <Trackpoint>
            <Time>2019-07-15T15:17:22.000Z</Time>
            <Position>
              <LatitudeDegrees>37.06798399798572063446044921875</LatitudeDegrees>
              <LongitudeDegrees>-3.37367353029549121856689453125</LongitudeDegrees>
            </Position>
            <AltitudeMeters>3011.60009765625</AltitudeMeters>
            <DistanceMeters>23388.595717366</DistanceMeters>
          </Trackpoint>
          <Trackpoint>
            <Time>2019-07-15T15:17:23.000Z</Time>
            <Position>
              <LatitudeDegrees>37.06799170933663845062255859375</LatitudeDegrees>
              <LongitudeDegrees>-3.3736840076744556427001953125</LongitudeDegrees>
            </Position>
            <AltitudeMeters>3011.39990234375</AltitudeMeters>
            <DistanceMeters>23389.863531866</DistanceMeters>
          </Trackpoint>
          <Trackpoint>
            <Time>2019-07-15T15:17:24.000Z</Time>
            <Position>
              <LatitudeDegrees>37.067998163402080535888671875</LatitudeDegrees>
              <LongitudeDegrees>-3.373695909976959228515625</LongitudeDegrees>
            </Position>
            <AltitudeMeters>3011.39990234375</AltitudeMeters>
            <DistanceMeters>23391.141985556</DistanceMeters>
          </Trackpoint>
          <Trackpoint>
            <Time>2019-07-15T15:17:38.000Z</Time>
            <Position>
              <LatitudeDegrees>37.068086005747318267822265625</LatitudeDegrees>
              <LongitudeDegrees>-3.37383764795958995819091796875</LongitudeDegrees>
            </Position>
            <AltitudeMeters>3010.39990234375</AltitudeMeters>
            <DistanceMeters>23407.080433113</DistanceMeters>
          </Trackpoint>
          <Trackpoint>
            <Time>2019-07-15T15:17:59.000Z</Time>
            <Position>
              <LatitudeDegrees>37.0680855028331279754638671875</LatitudeDegrees>
              <LongitudeDegrees>-3.37409011088311672210693359375</LongitudeDegrees>
            </Position>
            <AltitudeMeters>3009.800048828125</AltitudeMeters>
            <DistanceMeters>23429.501905316</DistanceMeters>
          </Trackpoint>
          <Trackpoint>
            <Time>2019-07-15T15:18:03.000Z</Time>
            <Position>
              <LatitudeDegrees>37.0680789649486541748046875</LatitudeDegrees>
              <LongitudeDegrees>-3.374131433665752410888671875</LongitudeDegrees>
            </Position>
            <AltitudeMeters>3009.800048828125</AltitudeMeters>
            <DistanceMeters>23433.243110802</DistanceMeters>
          </Trackpoint>
          <Trackpoint>
            <Time>2019-07-15T15:18:17.000Z</Time>
            <Position>
              <LatitudeDegrees>37.0681089721620082855224609375</LatitudeDegrees>
              <LongitudeDegrees>-3.37424668483436107635498046875</LongitudeDegrees>
            </Position>
            <AltitudeMeters>3006.800048828125</AltitudeMeters>
            <DistanceMeters>23444.010103019</DistanceMeters>
          </Trackpoint>
          <Trackpoint>
            <Time>2019-07-15T15:18:25.000Z</Time>
            <Position>
              <LatitudeDegrees>37.068112827837467193603515625</LatitudeDegrees>
              <LongitudeDegrees>-3.37431793101131916046142578125</LongitudeDegrees>
            </Position>
            <AltitudeMeters>3003.800048828125</AltitudeMeters>
            <DistanceMeters>23450.352023901</DistanceMeters>
          </Trackpoint>
          <Trackpoint>
            <Time>2019-07-15T15:18:38.000Z</Time>
            <Position>
              <LatitudeDegrees>37.0681723393499851226806640625</LatitudeDegrees>
              <LongitudeDegrees>-3.374390937387943267822265625</LongitudeDegrees>
            </Position>
            <AltitudeMeters>3000.60009765625</AltitudeMeters>
            <DistanceMeters>23459.620417355</DistanceMeters>
          </Trackpoint>
          <Trackpoint>
            <Time>2019-07-15T15:18:39.000Z</Time>
            <Position>
              <LatitudeDegrees>37.0681800507009029388427734375</LatitudeDegrees>
              <LongitudeDegrees>-3.37440200150012969970703125</LongitudeDegrees>
            </Position>
            <AltitudeMeters>3000.39990234375</AltitudeMeters>
            <DistanceMeters>23460.923358018</DistanceMeters>
          </Trackpoint>
          <Trackpoint>
            <Time>2019-07-15T15:18:54.000Z</Time>
            <Position>
              <LatitudeDegrees>37.06828088499605655670166015625</LatitudeDegrees>
              <LongitudeDegrees>-3.37449948303401470184326171875</LongitudeDegrees>
            </Position>
            <AltitudeMeters>2997.39990234375</AltitudeMeters>
            <DistanceMeters>23475.097636511</DistanceMeters>
          </Trackpoint>
          <Trackpoint>
            <Time>2019-07-15T15:19:11.000Z</Time>
            <Position>
              <LatitudeDegrees>37.068386413156986236572265625</LatitudeDegrees>
              <LongitudeDegrees>-3.374619595706462860107421875</LongitudeDegrees>
            </Position>
            <AltitudeMeters>2994.199951171875</AltitudeMeters>
            <DistanceMeters>23490.964537004</DistanceMeters>
          </Trackpoint>
          <Trackpoint>
            <Time>2019-07-15T15:19:30.000Z</Time>
            <Position>
              <LatitudeDegrees>37.06847635097801685333251953125</LatitudeDegrees>
              <LongitudeDegrees>-3.3747210167348384857177734375</LongitudeDegrees>
            </Position>
            <AltitudeMeters>2991</AltitudeMeters>
            <DistanceMeters>23504.430865203</DistanceMeters>
          </Trackpoint>
          <Trackpoint>
            <Time>2019-07-15T15:19:48.000Z</Time>
            <Position>
              <LatitudeDegrees>37.06857240758836269378662109375</LatitudeDegrees>
              <LongitudeDegrees>-3.37485705502331256866455078125</LongitudeDegrees>
            </Position>
            <AltitudeMeters>2988</AltitudeMeters>
            <DistanceMeters>23520.56359167</DistanceMeters>
          </Trackpoint>
          <Trackpoint>
            <Time>2019-07-15T15:20:08.000Z</Time>
            <Position>
              <LatitudeDegrees>37.0686946995556354522705078125</LatitudeDegrees>
              <LongitudeDegrees>-3.37493936531245708465576171875</LongitudeDegrees>
            </Position>
            <AltitudeMeters>2984.800048828125</AltitudeMeters>
            <DistanceMeters>23536.013544444</DistanceMeters>
          </Trackpoint>
          <Trackpoint>
            <Time>2019-07-15T15:20:21.000Z</Time>
            <Position>
              <LatitudeDegrees>37.06877709366381168365478515625</LatitudeDegrees>
              <LongitudeDegrees>-3.37499585933983325958251953125</LongitudeDegrees>
            </Position>
            <AltitudeMeters>2981.60009765625</AltitudeMeters>
            <DistanceMeters>23546.466483025</DistanceMeters>
          </Trackpoint>
          <Trackpoint>
            <Time>2019-07-15T15:20:37.000Z</Time>
            <Position>
              <LatitudeDegrees>37.0688905008137226104736328125</LatitudeDegrees>
              <LongitudeDegrees>-3.37509158067405223846435546875</LongitudeDegrees>
            </Position>
            <AltitudeMeters>2978.39990234375</AltitudeMeters>
            <DistanceMeters>23561.684707972</DistanceMeters>
          </Trackpoint>
          <Trackpoint>
            <Time>2019-07-15T15:20:55.000Z</Time>
            <Position>
              <LatitudeDegrees>37.06901363097131252288818359375</LatitudeDegrees>
              <LongitudeDegrees>-3.37522183544933795928955078125</LongitudeDegrees>
            </Position>
            <AltitudeMeters>2975.39990234375</AltitudeMeters>
            <DistanceMeters>23579.618844773</DistanceMeters>
          </Trackpoint>
          <Trackpoint>
            <Time>2019-07-15T15:21:09.000Z</Time>
            <Position>
              <LatitudeDegrees>37.069075740873813629150390625</LatitudeDegrees>
              <LongitudeDegrees>-3.37532308883965015411376953125</LongitudeDegrees>
            </Position>
            <AltitudeMeters>2973.199951171875</AltitudeMeters>
            <DistanceMeters>23590.96170725</DistanceMeters>
          </Trackpoint>
          <Trackpoint>
            <Time>2019-07-15T15:21:10.000Z</Time>
            <Position>
              <LatitudeDegrees>37.06908470951020717620849609375</LatitudeDegrees>
              <LongitudeDegrees>-3.37532811798155307769775390625</LongitudeDegrees>
            </Position>
            <AltitudeMeters>2973</AltitudeMeters>
            <DistanceMeters>23592.061720997</DistanceMeters>
          </Trackpoint>
          <Trackpoint>
            <Time>2019-07-15T15:21:25.000Z</Time>
            <Position>
              <LatitudeDegrees>37.06918914802372455596923828125</LatitudeDegrees>
              <LongitudeDegrees>-3.37537237443029880523681640625</LongitudeDegrees>
            </Position>
            <AltitudeMeters>2970</AltitudeMeters>
            <DistanceMeters>23604.3330516</DistanceMeters>
          </Trackpoint>
          <Trackpoint>
            <Time>2019-07-15T15:21:42.000Z</Time>
            <Position>
              <LatitudeDegrees>37.06931370310485363006591796875</LatitudeDegrees>
              <LongitudeDegrees>-3.37544345296919345855712890625</LongitudeDegrees>
            </Position>
            <AltitudeMeters>2967</AltitudeMeters>
            <DistanceMeters>23619.565807238</DistanceMeters>
          </Trackpoint>
          <Trackpoint>
            <Time>2019-07-15T15:21:45.000Z</Time>
            <Position>
              <LatitudeDegrees>37.06933734007179737091064453125</LatitudeDegrees>
              <LongitudeDegrees>-3.3754334785044193267822265625</LongitudeDegrees>
            </Position>
            <AltitudeMeters>2966</AltitudeMeters>
            <DistanceMeters>23622.339545713</DistanceMeters>
          </Trackpoint>
          <Trackpoint>
            <Time>2019-07-15T15:21:51.000Z</Time>
            <Position>
              <LatitudeDegrees>37.06938696093857288360595703125</LatitudeDegrees>
              <LongitudeDegrees>-3.37542048655450344085693359375</LongitudeDegrees>
            </Position>
            <AltitudeMeters>2965</AltitudeMeters>
            <DistanceMeters>23627.982244495</DistanceMeters>
          </Trackpoint>
          <Trackpoint>
            <Time>2019-07-15T15:22:11.000Z</Time>
            <Position>
              <LatitudeDegrees>37.0695218257606029510498046875</LatitudeDegrees>
              <LongitudeDegrees>-3.3754475601017475128173828125</LongitudeDegrees>
            </Position>
            <AltitudeMeters>2962</AltitudeMeters>
            <DistanceMeters>23643.184142941</DistanceMeters>
          </Trackpoint>
          <Trackpoint>
            <Time>2019-07-15T15:22:18.000Z</Time>
            <Position>
              <LatitudeDegrees>37.06956365145742893218994140625</LatitudeDegrees>
              <LongitudeDegrees>-3.37546876631677150726318359375</LongitudeDegrees>
            </Position>
            <AltitudeMeters>2958.60009765625</AltitudeMeters>
            <DistanceMeters>23648.20529554</DistanceMeters>
          </Trackpoint>
          <Trackpoint>
            <Time>2019-07-15T15:22:19.000Z</Time>
            <Position>
              <LatitudeDegrees>37.06956884823739528656005859375</LatitudeDegrees>
              <LongitudeDegrees>-3.3754686824977397918701171875</LongitudeDegrees>
            </Position>
            <AltitudeMeters>2958.39990234375</AltitudeMeters>
            <DistanceMeters>23648.775455827</DistanceMeters>
          </Trackpoint>
          <Trackpoint>
            <Time>2019-07-15T15:22:44.000Z</Time>
            <Position>
              <LatitudeDegrees>37.06957471556961536407470703125</LatitudeDegrees>
              <LongitudeDegrees>-3.3755233325064182281494140625</LongitudeDegrees>
            </Position>
            <AltitudeMeters>2957.60009765625</AltitudeMeters>
            <DistanceMeters>23653.672790105</DistanceMeters>
          </Trackpoint>
          <Trackpoint>
            <Time>2019-07-15T15:22:46.000Z</Time>
            <Position>
              <LatitudeDegrees>37.06958309747278690338134765625</LatitudeDegrees>
              <LongitudeDegrees>-3.37554730474948883056640625</LongitudeDegrees>
            </Position>
            <AltitudeMeters>2957.199951171875</AltitudeMeters>
            <DistanceMeters>23655.996577039</DistanceMeters>
          </Trackpoint>
          <Trackpoint>
            <Time>2019-07-15T15:22:47.000Z</Time>
            <Position>
              <LatitudeDegrees>37.069592066109180450439453125</LatitudeDegrees>
              <LongitudeDegrees>-3.375558368861675262451171875</LongitudeDegrees>
            </Position>
            <AltitudeMeters>2957</AltitudeMeters>
            <DistanceMeters>23657.399629663</DistanceMeters>
          </Trackpoint>
          <Trackpoint>
            <Time>2019-07-15T15:22:48.000Z</Time>
            <Position>
              <LatitudeDegrees>37.0696022920310497283935546875</LatitudeDegrees>
              <LongitudeDegrees>-3.37556901387870311737060546875</LongitudeDegrees>
            </Position>
            <AltitudeMeters>2956.60009765625</AltitudeMeters>
            <DistanceMeters>23658.877898413</DistanceMeters>
          </Trackpoint>
          <Trackpoint>
            <Time>2019-07-15T15:22:49.000Z</Time>
            <Position>
              <LatitudeDegrees>37.0696116797626018524169921875</LatitudeDegrees>
              <LongitudeDegrees>-3.3755815029144287109375</LongitudeDegrees>
            </Position>
            <AltitudeMeters>2956.199951171875</AltitudeMeters>
            <DistanceMeters>23660.398325843</DistanceMeters>
          </Trackpoint>
          <Trackpoint>
            <Time>2019-07-15T15:22:50.000Z</Time>
            <Position>
              <LatitudeDegrees>37.0696217380464076995849609375</LatitudeDegrees>
              <LongitudeDegrees>-3.3755917288362979888916015625</LongitudeDegrees>
            </Position>
            <AltitudeMeters>2956</AltitudeMeters>
            <DistanceMeters>23661.833197764</DistanceMeters>
          </Trackpoint>
          <Trackpoint>
            <Time>2019-07-15T15:22:51.000Z</Time>
            <Position>
              <LatitudeDegrees>37.06963322125375270843505859375</LatitudeDegrees>
              <LongitudeDegrees>-3.3756017871201038360595703125</LongitudeDegrees>
            </Position>
            <AltitudeMeters>2955.800048828125</AltitudeMeters>
            <DistanceMeters>23663.391751762</DistanceMeters>
          </Trackpoint>
          <Trackpoint>
            <Time>2019-07-15T15:22:52.000Z</Time>
            <Position>
              <LatitudeDegrees>37.069646380841732025146484375</LatitudeDegrees>
              <LongitudeDegrees>-3.3756111748516559600830078125</LongitudeDegrees>
            </Position>
            <AltitudeMeters>2955.800048828125</AltitudeMeters>
            <DistanceMeters>23665.080983586</DistanceMeters>
          </Trackpoint>
          <Trackpoint>
            <Time>2019-07-15T15:23:02.000Z</Time>
            <Position>
              <LatitudeDegrees>37.06973858177661895751953125</LatitudeDegrees>
              <LongitudeDegrees>-3.3757201395928859710693359375</LongitudeDegrees>
            </Position>
            <AltitudeMeters>2954.800048828125</AltitudeMeters>
            <DistanceMeters>23679.185970088</DistanceMeters>
          </Trackpoint>
          <Trackpoint>
            <Time>2019-07-15T15:23:03.000Z</Time>
            <Position>
              <LatitudeDegrees>37.06974285654723644256591796875</LatitudeDegrees>
              <LongitudeDegrees>-3.3757325448095798492431640625</LongitudeDegrees>
            </Position>
            <AltitudeMeters>2954.800048828125</AltitudeMeters>
            <DistanceMeters>23680.384211363</DistanceMeters>
          </Trackpoint>
          <Trackpoint>
            <Time>2019-07-15T15:23:04.000Z</Time>
            <Position>
              <LatitudeDegrees>37.06974788568913936614990234375</LatitudeDegrees>
              <LongitudeDegrees>-3.375748135149478912353515625</LongitudeDegrees>
            </Position>
            <AltitudeMeters>2954.60009765625</AltitudeMeters>
            <DistanceMeters>23681.880693558</DistanceMeters>
          </Trackpoint>
          <Trackpoint>
            <Time>2019-07-15T15:23:05.000Z</Time>
            <Position>
              <LatitudeDegrees>37.0697528310120105743408203125</LatitudeDegrees>
              <LongitudeDegrees>-3.375763557851314544677734375</LongitudeDegrees>
            </Position>
            <AltitudeMeters>2954.39990234375</AltitudeMeters>
            <DistanceMeters>23683.355904872</DistanceMeters>
          </Trackpoint>
          <Trackpoint>
            <Time>2019-07-15T15:23:06.000Z</Time>
            <Position>
              <LatitudeDegrees>37.06975735723972320556640625</LatitudeDegrees>
              <LongitudeDegrees>-3.37577906437218189239501953125</LongitudeDegrees>
            </Position>
            <AltitudeMeters>2954.39990234375</AltitudeMeters>
            <DistanceMeters>23684.821905621</DistanceMeters>
          </Trackpoint>
          <Trackpoint>
            <Time>2019-07-15T15:23:22.000Z</Time>
            <Position>
              <LatitudeDegrees>37.06983757205307483673095703125</LatitudeDegrees>
              <LongitudeDegrees>-3.37582063861191272735595703125</LongitudeDegrees>
            </Position>
            <AltitudeMeters>2951.39990234375</AltitudeMeters>
            <DistanceMeters>23694.482902988</DistanceMeters>
          </Trackpoint>
          <Trackpoint>
            <Time>2019-07-15T15:23:49.000Z</Time>
            <Position>
              <LatitudeDegrees>37.06988031975924968719482421875</LatitudeDegrees>
              <LongitudeDegrees>-3.3758492209017276763916015625</LongitudeDegrees>
            </Position>
            <AltitudeMeters>2949</AltitudeMeters>
            <DistanceMeters>23699.87519806</DistanceMeters>
          </Trackpoint>
          <Trackpoint>
            <Time>2019-07-15T15:24:04.000Z</Time>
            <Position>
              <LatitudeDegrees>37.06992231309413909912109375</LatitudeDegrees>
              <LongitudeDegrees>-3.37599146179854869842529296875</LongitudeDegrees>
            </Position>
            <AltitudeMeters>2945.800048828125</AltitudeMeters>
            <DistanceMeters>23713.34420826</DistanceMeters>
          </Trackpoint>
          <Trackpoint>
            <Time>2019-07-15T15:24:18.000Z</Time>
            <Position>
              <LatitudeDegrees>37.07001443020999431610107421875</LatitudeDegrees>
              <LongitudeDegrees>-3.3761194534599781036376953125</LongitudeDegrees>
            </Position>
            <AltitudeMeters>2942.60009765625</AltitudeMeters>
            <DistanceMeters>23728.652065188</DistanceMeters>
          </Trackpoint>
          <Trackpoint>
            <Time>2019-07-15T15:24:29.000Z</Time>
            <Position>
              <LatitudeDegrees>37.07009204663336277008056640625</LatitudeDegrees>
              <LongitudeDegrees>-3.37620402686297893524169921875</LongitudeDegrees>
            </Position>
            <AltitudeMeters>2939.39990234375</AltitudeMeters>
            <DistanceMeters>23740.099530818</DistanceMeters>
          </Trackpoint>
          <Trackpoint>
            <Time>2019-07-15T15:25:16.000Z</Time>
            <Position>
              <LatitudeDegrees>37.07012071274220943450927734375</LatitudeDegrees>
              <LongitudeDegrees>-3.376191370189189910888671875</LongitudeDegrees>
            </Position>
            <AltitudeMeters>2938.60009765625</AltitudeMeters>
            <DistanceMeters>23743.483335914</DistanceMeters>
          </Trackpoint>
          <Trackpoint>
            <Time>2019-07-15T15:27:11.000Z</Time>
            <Position>
              <LatitudeDegrees>37.07019045017659664154052734375</LatitudeDegrees>
              <LongitudeDegrees>-3.3763065375387668609619140625</LongitudeDegrees>
            </Position>
            <AltitudeMeters>2936.199951171875</AltitudeMeters>
            <DistanceMeters>23756.322848193</DistanceMeters>
          </Trackpoint>
          <Trackpoint>
            <Time>2019-07-15T15:27:39.000Z</Time>
            <Position>
              <LatitudeDegrees>37.07036755979061126708984375</LatitudeDegrees>
              <LongitudeDegrees>-3.376420028507709503173828125</LongitudeDegrees>
            </Position>
            <AltitudeMeters>2933.199951171875</AltitudeMeters>
            <DistanceMeters>23778.462645155</DistanceMeters>
          </Trackpoint>
          <Trackpoint>
            <Time>2019-07-15T15:27:52.000Z</Time>
            <Position>
              <LatitudeDegrees>37.0704746805131435394287109375</LatitudeDegrees>
              <LongitudeDegrees>-3.37647694163024425506591796875</LongitudeDegrees>
            </Position>
            <AltitudeMeters>2929.60009765625</AltitudeMeters>
            <DistanceMeters>23791.412454021</DistanceMeters>
          </Trackpoint>
          <Trackpoint>
            <Time>2019-07-15T15:27:57.000Z</Time>
            <Position>
              <LatitudeDegrees>37.0705249719321727752685546875</LatitudeDegrees>
              <LongitudeDegrees>-3.3764657936990261077880859375</LongitudeDegrees>
            </Position>
            <AltitudeMeters>2927.199951171875</AltitudeMeters>
            <DistanceMeters>23797.095814245</DistanceMeters>
          </Trackpoint>
          <Trackpoint>
            <Time>2019-07-15T15:28:06.000Z</Time>
            <Position>
              <LatitudeDegrees>37.07061910070478916168212890625</LatitudeDegrees>
              <LongitudeDegrees>-3.37648465298116207122802734375</LongitudeDegrees>
            </Position>
            <AltitudeMeters>2923.800048828125</AltitudeMeters>
            <DistanceMeters>23807.705664995</DistanceMeters>
          </Trackpoint>
          <Trackpoint>
            <Time>2019-07-15T15:28:23.000Z</Time>
            <Position>
              <LatitudeDegrees>37.070796377956867218017578125</LatitudeDegrees>
              <LongitudeDegrees>-3.3765774406492710113525390625</LongitudeDegrees>
            </Position>
            <AltitudeMeters>2921.39990234375</AltitudeMeters>
            <DistanceMeters>23829.088576179</DistanceMeters>
          </Trackpoint>
          <Trackpoint>
            <Time>2019-07-15T15:28:34.000Z</Time>
            <Position>
              <LatitudeDegrees>37.07085915841162204742431640625</LatitudeDegrees>
              <LongitudeDegrees>-3.37669570930302143096923828125</LongitudeDegrees>
            </Position>
            <AltitudeMeters>2920.800048828125</AltitudeMeters>
            <DistanceMeters>23841.703529099</DistanceMeters>
          </Trackpoint>
          <Trackpoint>
            <Time>2019-07-15T15:28:35.000Z</Time>
            <Position>
              <LatitudeDegrees>37.0708595775067806243896484375</LatitudeDegrees>
              <LongitudeDegrees>-3.37670627050101757049560546875</LongitudeDegrees>
            </Position>
            <AltitudeMeters>2920.60009765625</AltitudeMeters>
            <DistanceMeters>23842.639433696</DistanceMeters>
          </Trackpoint>
          <Trackpoint>
            <Time>2019-07-15T15:28:36.000Z</Time>
            <Position>
              <LatitudeDegrees>37.07086368463933467864990234375</LatitudeDegrees>
              <LongitudeDegrees>-3.376719094812870025634765625</LongitudeDegrees>
            </Position>
            <AltitudeMeters>2920.39990234375</AltitudeMeters>
            <DistanceMeters>23843.871120686</DistanceMeters>
          </Trackpoint>
          <Trackpoint>
            <Time>2019-07-15T15:28:38.000Z</Time>
            <Position>
              <LatitudeDegrees>37.07087592221796512603759765625</LatitudeDegrees>
              <LongitudeDegrees>-3.3767417259514331817626953125</LongitudeDegrees>
            </Position>
            <AltitudeMeters>2920</AltitudeMeters>
            <DistanceMeters>23846.301279116</DistanceMeters>
          </Trackpoint>
          <Trackpoint>
            <Time>2019-07-15T15:28:39.000Z</Time>
            <Position>
              <LatitudeDegrees>37.07088329829275608062744140625</LatitudeDegrees>
              <LongitudeDegrees>-3.37675002403557300567626953125</LongitudeDegrees>
            </Position>
            <AltitudeMeters>2920</AltitudeMeters>
            <DistanceMeters>23847.405389763</DistanceMeters>
          </Trackpoint>
          <Trackpoint>
            <Time>2019-07-15T15:28:40.000Z</Time>
            <Position>
              <LatitudeDegrees>37.07089151255786418914794921875</LatitudeDegrees>
              <LongitudeDegrees>-3.3767616748809814453125</LongitudeDegrees>
            </Position>
            <AltitudeMeters>2919.800048828125</AltitudeMeters>
            <DistanceMeters>23848.785732521</DistanceMeters>
          </Trackpoint>
          <Trackpoint>
            <Time>2019-07-15T15:28:41.000Z</Time>
            <Position>
              <LatitudeDegrees>37.07090224139392375946044921875</LatitudeDegrees>
              <LongitudeDegrees>-3.37677433155477046966552734375</LongitudeDegrees>
            </Position>
            <AltitudeMeters>2919.800048828125</AltitudeMeters>
            <DistanceMeters>23850.42614795</DistanceMeters>
          </Trackpoint>
          <Trackpoint>
            <Time>2019-07-15T15:28:42.000Z</Time>
            <Position>
              <LatitudeDegrees>37.07091447897255420684814453125</LatitudeDegrees>
              <LongitudeDegrees>-3.37678321637213230133056640625</LongitudeDegrees>
            </Position>
            <AltitudeMeters>2919.800048828125</AltitudeMeters>
            <DistanceMeters>23852.001987733</DistanceMeters>
          </Trackpoint>
          <Trackpoint>
            <Time>2019-07-15T15:28:43.000Z</Time>
            <Position>
              <LatitudeDegrees>37.07092721946537494659423828125</LatitudeDegrees>
              <LongitudeDegrees>-3.37679143063724040985107421875</LongitudeDegrees>
            </Position>
            <AltitudeMeters>2919.800048828125</AltitudeMeters>
            <DistanceMeters>23853.597757628</DistanceMeters>
          </Trackpoint>
          <Trackpoint>
            <Time>2019-07-15T15:28:44.000Z</Time>
            <Position>
              <LatitudeDegrees>37.07093794830143451690673828125</LatitudeDegrees>
              <LongitudeDegrees>-3.37679914198815822601318359375</LongitudeDegrees>
            </Position>
            <AltitudeMeters>2919.39990234375</AltitudeMeters>
            <DistanceMeters>23854.978100386</DistanceMeters>
          </Trackpoint>
          <Trackpoint>
            <Time>2019-07-15T15:28:45.000Z</Time>
            <Position>
              <LatitudeDegrees>37.0709489285945892333984375</LatitudeDegrees>
              <LongitudeDegrees>-3.37680660188198089599609375</LongitudeDegrees>
            </Position>
            <AltitudeMeters>2919.199951171875</AltitudeMeters>
            <DistanceMeters>23856.368221373</DistanceMeters>
          </Trackpoint>
          <Trackpoint>
            <Time>2019-07-15T15:28:46.000Z</Time>
            <Position>
              <LatitudeDegrees>37.0709598250687122344970703125</LatitudeDegrees>
              <LongitudeDegrees>-3.3768144808709621429443359375</LongitudeDegrees>
            </Position>
            <AltitudeMeters>2918.800048828125</AltitudeMeters>
            <DistanceMeters>23857.768052287</DistanceMeters>
          </Trackpoint>
          <Trackpoint>
            <Time>2019-07-15T15:28:57.000Z</Time>
            <Position>
              <LatitudeDegrees>37.07105177454650402069091796875</LatitudeDegrees>
              <LongitudeDegrees>-3.3769103698432445526123046875</LongitudeDegrees>
            </Position>
            <AltitudeMeters>2917.199951171875</AltitudeMeters>
            <DistanceMeters>23871.08196984</DistanceMeters>
          </Trackpoint>
          <Trackpoint>
            <Time>2019-07-15T15:28:58.000Z</Time>
            <Position>
              <LatitudeDegrees>37.07105982117354869842529296875</LatitudeDegrees>
              <LongitudeDegrees>-3.37691866792738437652587890625</LongitudeDegrees>
            </Position>
            <AltitudeMeters>2916.60009765625</AltitudeMeters>
            <DistanceMeters>23872.238019715</DistanceMeters>
          </Trackpoint>
          <Trackpoint>
            <Time>2019-07-15T15:28:59.000Z</Time>
            <Position>
              <LatitudeDegrees>37.071070633828639984130859375</LatitudeDegrees>
              <LongitudeDegrees>-3.37692671455442905426025390625</LongitudeDegrees>
            </Position>
            <AltitudeMeters>2916.60009765625</AltitudeMeters>
            <DistanceMeters>23873.641072339</DistanceMeters>
          </Trackpoint>
          <Trackpoint>
            <Time>2019-07-15T15:29:00.000Z</Time>
            <Position>
              <LatitudeDegrees>37.0710818655788898468017578125</LatitudeDegrees>
              <LongitudeDegrees>-3.37693828158080577850341796875</LongitudeDegrees>
            </Position>
            <AltitudeMeters>2916.60009765625</AltitudeMeters>
            <DistanceMeters>23875.262106652</DistanceMeters>
          </Trackpoint>
          <Trackpoint>
            <Time>2019-07-15T15:29:03.000Z</Time>
            <Position>
              <LatitudeDegrees>37.071110866963863372802734375</LatitudeDegrees>
              <LongitudeDegrees>-3.37697180919349193572998046875</LongitudeDegrees>
            </Position>
            <AltitudeMeters>2916.800048828125</AltitudeMeters>
            <DistanceMeters>23879.65394491</DistanceMeters>
          </Trackpoint>
          <Trackpoint>
            <Time>2019-07-15T15:29:18.000Z</Time>
            <Position>
              <LatitudeDegrees>37.0712461508810520172119140625</LatitudeDegrees>
              <LongitudeDegrees>-3.37708421051502227783203125</LongitudeDegrees>
            </Position>
            <AltitudeMeters>2916</AltitudeMeters>
            <DistanceMeters>23897.71952054</DistanceMeters>
          </Trackpoint>
          <Trackpoint>
            <Time>2019-07-15T15:29:19.000Z</Time>
            <Position>
              <LatitudeDegrees>37.07125511951744556427001953125</LatitudeDegrees>
              <LongitudeDegrees>-3.377091586589813232421875</LongitudeDegrees>
            </Position>
            <AltitudeMeters>2915.800048828125</AltitudeMeters>
            <DistanceMeters>23898.913987818</DistanceMeters>
          </Trackpoint>
          <Trackpoint>
            <Time>2019-07-15T15:29:20.000Z</Time>
            <Position>
              <LatitudeDegrees>37.07126249559223651885986328125</LatitudeDegrees>
              <LongitudeDegrees>-3.37709963321685791015625</LongitudeDegrees>
            </Position>
            <AltitudeMeters>2915.800048828125</AltitudeMeters>
            <DistanceMeters>23900.005761645</DistanceMeters>
          </Trackpoint>
          <Trackpoint>
            <Time>2019-07-15T15:29:33.000Z</Time>
            <Position>
              <LatitudeDegrees>37.07134212367236614227294921875</LatitudeDegrees>
              <LongitudeDegrees>-3.377176411449909210205078125</LongitudeDegrees>
            </Position>
            <AltitudeMeters>2914.39990234375</AltitudeMeters>
            <DistanceMeters>23911.187462699</DistanceMeters>
          </Trackpoint>
          <Trackpoint>
            <Time>2019-07-15T15:29:34.000Z</Time>
            <Position>
              <LatitudeDegrees>37.07135100848972797393798828125</LatitudeDegrees>
              <LongitudeDegrees>-3.37718571536242961883544921875</LongitudeDegrees>
            </Position>
            <AltitudeMeters>2914.39990234375</AltitudeMeters>
            <DistanceMeters>23912.476467767</DistanceMeters>
          </Trackpoint>
          <Trackpoint>
            <Time>2019-07-15T15:29:35.000Z</Time>
            <Position>
              <LatitudeDegrees>37.07135821692645549774169921875</LatitudeDegrees>
              <LongitudeDegrees>-3.37719560600817203521728515625</LongitudeDegrees>
            </Position>
            <AltitudeMeters>2914.199951171875</AltitudeMeters>
            <DistanceMeters>23913.663351049</DistanceMeters>
          </Trackpoint>
          <Trackpoint>
            <Time>2019-07-15T15:29:36.000Z</Time>
            <Position>
              <LatitudeDegrees>37.07136961631476879119873046875</LatitudeDegrees>
              <LongitudeDegrees>-3.37720113806426525115966796875</LongitudeDegrees>
            </Position>
            <AltitudeMeters>2914.199951171875</AltitudeMeters>
            <DistanceMeters>23915.027240981</DistanceMeters>
          </Trackpoint>
          <Trackpoint>
            <Time>2019-07-15T15:29:37.000Z</Time>
            <Position>
              <LatitudeDegrees>37.07137682475149631500244140625</LatitudeDegrees>
              <LongitudeDegrees>-3.3772074244916439056396484375</LongitudeDegrees>
            </Position>
            <AltitudeMeters>2914.199951171875</AltitudeMeters>
            <DistanceMeters>23916.005600886</DistanceMeters>
          </Trackpoint>
          <Trackpoint>
            <Time>2019-07-15T15:29:48.000Z</Time>
            <Position>
              <LatitudeDegrees>37.07144639454782009124755859375</LatitudeDegrees>
              <LongitudeDegrees>-3.3772875554859638214111328125</LongitudeDegrees>
            </Position>
            <AltitudeMeters>2914.60009765625</AltitudeMeters>
            <DistanceMeters>23926.522272236</DistanceMeters>
          </Trackpoint>
          <Trackpoint>
            <Time>2019-07-15T15:30:07.000Z</Time>
            <Position>
              <LatitudeDegrees>37.0715787447988986968994140625</LatitudeDegrees>
              <LongitudeDegrees>-3.37746768258512020111083984375</LongitudeDegrees>
            </Position>
            <AltitudeMeters>2913.39990234375</AltitudeMeters>
            <DistanceMeters>23948.268030745</DistanceMeters>
          </Trackpoint>
          <Trackpoint>
            <Time>2019-07-15T15:30:54.000Z</Time>
            <Position>
              <LatitudeDegrees>37.0716048963367938995361328125</LatitudeDegrees>
              <LongitudeDegrees>-3.37744941003620624542236328125</LongitudeDegrees>
            </Position>
            <AltitudeMeters>2915</AltitudeMeters>
            <DistanceMeters>23951.600746458</DistanceMeters>
          </Trackpoint>
          <Trackpoint>
            <Time>2019-07-15T15:31:22.000Z</Time>
            <Position>
              <LatitudeDegrees>37.07165795378386974334716796875</LatitudeDegrees>
              <LongitudeDegrees>-3.37748075835406780242919921875</LongitudeDegrees>
            </Position>
            <AltitudeMeters>2911.199951171875</AltitudeMeters>
            <DistanceMeters>23958.12929613</DistanceMeters>
          </Trackpoint>
          <Trackpoint>
            <Time>2019-07-15T15:31:24.000Z</Time>
            <Position>
              <LatitudeDegrees>37.07166667096316814422607421875</LatitudeDegrees>
              <LongitudeDegrees>-3.3774890564382076263427734375</LongitudeDegrees>
            </Position>
            <AltitudeMeters>2910.39990234375</AltitudeMeters>
            <DistanceMeters>23959.346231846</DistanceMeters>
          </Trackpoint>
          <Trackpoint>
            <Time>2019-07-15T15:31:59.000Z</Time>
            <Position>
              <LatitudeDegrees>37.0716565288603305816650390625</LatitudeDegrees>
              <LongitudeDegrees>-3.37749056518077850341796875</LongitudeDegrees>
            </Position>
            <AltitudeMeters>2911.800048828125</AltitudeMeters>
            <DistanceMeters>23960.482586074</DistanceMeters>
          </Trackpoint>
          <Trackpoint>
            <Time>2019-07-15T15:32:46.000Z</Time>
            <Position>
              <LatitudeDegrees>37.07163783721625804901123046875</LatitudeDegrees>
              <LongitudeDegrees>-3.377502970397472381591796875</LongitudeDegrees>
            </Position>
            <AltitudeMeters>2911.199951171875</AltitudeMeters>
            <DistanceMeters>23962.837255252</DistanceMeters>
          </Trackpoint>
          <Trackpoint>
            <Time>2019-07-15T15:33:25.000Z</Time>
            <Position>
              <LatitudeDegrees>37.071679495275020599365234375</LatitudeDegrees>
              <LongitudeDegrees>-3.3775326423346996307373046875</LongitudeDegrees>
            </Position>
            <AltitudeMeters>2910.60009765625</AltitudeMeters>
            <DistanceMeters>23968.170616368</DistanceMeters>
          </Trackpoint>
          <Trackpoint>
            <Time>2019-07-15T15:33:41.000Z</Time>
            <Position>
              <LatitudeDegrees>37.07181536592543125152587890625</LatitudeDegrees>
              <LongitudeDegrees>-3.3775963447988033294677734375</LongitudeDegrees>
            </Position>
            <AltitudeMeters>2912.39990234375</AltitudeMeters>
            <DistanceMeters>23984.316770924</DistanceMeters>
          </Trackpoint>
          <Trackpoint>
            <Time>2019-07-15T15:34:10.000Z</Time>
            <Position>
              <LatitudeDegrees>37.07199834287166595458984375</LatitudeDegrees>
              <LongitudeDegrees>-3.37768393568694591522216796875</LongitudeDegrees>
            </Position>
            <AltitudeMeters>2910.39990234375</AltitudeMeters>
            <DistanceMeters>24006.117067327</DistanceMeters>
          </Trackpoint>
          <Trackpoint>
            <Time>2019-07-15T15:34:33.000Z</Time>
            <Position>
              <LatitudeDegrees>37.0721881091594696044921875</LatitudeDegrees>
              <LongitudeDegrees>-3.37773607112467288970947265625</LongitudeDegrees>
            </Position>
            <AltitudeMeters>2908.39990234375</AltitudeMeters>
            <DistanceMeters>24027.739769238</DistanceMeters>
          </Trackpoint>
          <Trackpoint>
            <Time>2019-07-15T15:34:57.000Z</Time>
            <Position>
              <LatitudeDegrees>37.07236848771572113037109375</LatitudeDegrees>
              <LongitudeDegrees>-3.37781737558543682098388671875</LongitudeDegrees>
            </Position>
            <AltitudeMeters>2906.60009765625</AltitudeMeters>
            <DistanceMeters>24049.074906767</DistanceMeters>
          </Trackpoint>
          <Trackpoint>
            <Time>2019-07-15T15:35:11.000Z</Time>
            <Position>
              <LatitudeDegrees>37.07248021848499774932861328125</LatitudeDegrees>
              <LongitudeDegrees>-3.37788694538176059722900390625</LongitudeDegrees>
            </Position>
            <AltitudeMeters>2905.800048828125</AltitudeMeters>
            <DistanceMeters>24062.960517745</DistanceMeters>
          </Trackpoint>
          <Trackpoint>
            <Time>2019-07-15T15:35:12.000Z</Time>
            <Position>
              <LatitudeDegrees>37.07248709164559841156005859375</LatitudeDegrees>
              <LongitudeDegrees>-3.377890549600124359130859375</LongitudeDegrees>
            </Position>
            <AltitudeMeters>2905.800048828125</AltitudeMeters>
            <DistanceMeters>24063.788941435</DistanceMeters>
          </Trackpoint>
          <Trackpoint>
            <Time>2019-07-15T15:35:32.000Z</Time>
            <Position>
              <LatitudeDegrees>37.07265757955610752105712890625</LatitudeDegrees>
              <LongitudeDegrees>-3.37801652960479259490966796875</LongitudeDegrees>
            </Position>
            <AltitudeMeters>2904.39990234375</AltitudeMeters>
            <DistanceMeters>24085.816904521</DistanceMeters>
          </Trackpoint>
          <Trackpoint>
            <Time>2019-07-15T15:35:41.000Z</Time>
            <Position>
              <LatitudeDegrees>37.07274156622588634490966796875</LatitudeDegrees>
              <LongitudeDegrees>-3.37804167531430721282958984375</LongitudeDegrees>
            </Position>
            <AltitudeMeters>2904</AltitudeMeters>
            <DistanceMeters>24095.427295869</DistanceMeters>
          </Trackpoint>
          <Trackpoint>
            <Time>2019-07-15T15:35:52.000Z</Time>
            <Position>
              <LatitudeDegrees>37.07286276854574680328369140625</LatitudeDegrees>
              <LongitudeDegrees>-3.3780603669583797454833984375</LongitudeDegrees>
            </Position>
            <AltitudeMeters>2902.39990234375</AltitudeMeters>
            <DistanceMeters>24109.019106047</DistanceMeters>
          </Trackpoint>
          <Trackpoint>
            <Time>2019-07-15T15:36:13.000Z</Time>
            <Position>
              <LatitudeDegrees>37.07305504940450191497802734375</LatitudeDegrees>
              <LongitudeDegrees>-3.37807151488959789276123046875</LongitudeDegrees>
            </Position>
            <AltitudeMeters>2900.199951171875</AltitudeMeters>
            <DistanceMeters>24130.443152246</DistanceMeters>
          </Trackpoint>
          <Trackpoint>
            <Time>2019-07-15T15:36:29.000Z</Time>
            <Position>
              <LatitudeDegrees>37.0731977932155132293701171875</LatitudeDegrees>
              <LongitudeDegrees>-3.3780761249363422393798828125</LongitudeDegrees>
            </Position>
            <AltitudeMeters>2897.199951171875</AltitudeMeters>
            <DistanceMeters>24146.336210426</DistanceMeters>
          </Trackpoint>
          <Trackpoint>
            <Time>2019-07-15T15:36:46.000Z</Time>
            <Position>
              <LatitudeDegrees>37.0733637548983097076416015625</LatitudeDegrees>
              <LongitudeDegrees>-3.37806581519544124603271484375</LongitudeDegrees>
            </Position>
            <AltitudeMeters>2894</AltitudeMeters>
            <DistanceMeters>24164.830811411</DistanceMeters>
          </Trackpoint>
          <Trackpoint>
            <Time>2019-07-15T15:37:05.000Z</Time>
            <Position>
              <LatitudeDegrees>37.07356584258377552032470703125</LatitudeDegrees>
              <LongitudeDegrees>-3.37803413160145282745361328125</LongitudeDegrees>
            </Position>
            <AltitudeMeters>2891</AltitudeMeters>
            <DistanceMeters>24187.499015354</DistanceMeters>
          </Trackpoint>
          <Trackpoint>
            <Time>2019-07-15T15:37:25.000Z</Time>
            <Position>
              <LatitudeDegrees>37.07376114092767238616943359375</LatitudeDegrees>
              <LongitudeDegrees>-3.37793572805821895599365234375</LongitudeDegrees>
            </Position>
            <AltitudeMeters>2888</AltitudeMeters>
            <DistanceMeters>24210.926906988</DistanceMeters>
          </Trackpoint>
          <Trackpoint>
            <Time>2019-07-15T15:37:34.000Z</Time>
            <Position>
              <LatitudeDegrees>37.07384194247424602508544921875</LatitudeDegrees>
              <LongitudeDegrees>-3.37790429592132568359375</LongitudeDegrees>
            </Position>
            <AltitudeMeters>2886</AltitudeMeters>
            <DistanceMeters>24220.34366602</DistanceMeters>
          </Trackpoint>
          <Trackpoint>
            <Time>2019-07-15T15:37:35.000Z</Time>
            <Position>
              <LatitudeDegrees>37.0738525874912738800048828125</LatitudeDegrees>
              <LongitudeDegrees>-3.3779004402458667755126953125</LongitudeDegrees>
            </Position>
            <AltitudeMeters>2885.60009765625</AltitudeMeters>
            <DistanceMeters>24221.575353011</DistanceMeters>
          </Trackpoint>
          <Trackpoint>
            <Time>2019-07-15T15:37:54.000Z</Time>
            <Position>
              <LatitudeDegrees>37.07404813729226589202880859375</LatitudeDegrees>
              <LongitudeDegrees>-3.377887196838855743408203125</LongitudeDegrees>
            </Position>
            <AltitudeMeters>2883.800048828125</AltitudeMeters>
            <DistanceMeters>24243.372335417</DistanceMeters>
          </Trackpoint>
          <Trackpoint>
            <Time>2019-07-15T15:38:06.000Z</Time>
            <Position>
              <LatitudeDegrees>37.07417839206755161285400390625</LatitudeDegrees>
              <LongitudeDegrees>-3.37788753211498260498046875</LongitudeDegrees>
            </Position>
            <AltitudeMeters>2881</AltitudeMeters>
            <DistanceMeters>24257.870061422</DistanceMeters>
          </Trackpoint>
          <Trackpoint>
            <Time>2019-07-15T15:38:08.000Z</Time>
            <Position>
              <LatitudeDegrees>37.07419733516871929168701171875</LatitudeDegrees>
              <LongitudeDegrees>-3.37788359262049198150634765625</LongitudeDegrees>
            </Position>
            <AltitudeMeters>2880.39990234375</AltitudeMeters>
            <DistanceMeters>24260.005521233</DistanceMeters>
          </Trackpoint>
          <Trackpoint>
            <Time>2019-07-15T15:38:09.000Z</Time>
            <Position>
              <LatitudeDegrees>37.074207477271556854248046875</LatitudeDegrees>
              <LongitudeDegrees>-3.37788216769695281982421875</LongitudeDegrees>
            </Position>
            <AltitudeMeters>2880.800048828125</AltitudeMeters>
            <DistanceMeters>24261.137895224</DistanceMeters>
          </Trackpoint>
          <Trackpoint>
            <Time>2019-07-15T15:38:10.000Z</Time>
            <Position>
              <LatitudeDegrees>37.0742180384695529937744140625</LatitudeDegrees>
              <LongitudeDegrees>-3.37787755765020847320556640625</LongitudeDegrees>
            </Position>
            <AltitudeMeters>2881.199951171875</AltitudeMeters>
            <DistanceMeters>24262.376891994</DistanceMeters>
          </Trackpoint>
          <Trackpoint>
            <Time>2019-07-15T15:38:21.000Z</Time>
            <Position>
              <LatitudeDegrees>37.07432138733565807342529296875</LatitudeDegrees>
              <LongitudeDegrees>-3.3778679184615612030029296875</LongitudeDegrees>
            </Position>
            <AltitudeMeters>2880</AltitudeMeters>
            <DistanceMeters>24273.911193717</DistanceMeters>
          </Trackpoint>
          <Trackpoint>
            <Time>2019-07-15T15:38:41.000Z</Time>
            <Position>
              <LatitudeDegrees>37.0745127461850643157958984375</LatitudeDegrees>
              <LongitudeDegrees>-3.37789968587458133697509765625</LongitudeDegrees>
            </Position>
            <AltitudeMeters>2876.800048828125</AltitudeMeters>
            <DistanceMeters>24295.395638963</DistanceMeters>
          </Trackpoint>
          <Trackpoint>
            <Time>2019-07-15T15:38:49.000Z</Time>
            <Position>
              <LatitudeDegrees>37.0745787955820560455322265625</LatitudeDegrees>
              <LongitudeDegrees>-3.37789080105721950531005859375</LongitudeDegrees>
            </Position>
            <AltitudeMeters>2875</AltitudeMeters>
            <DistanceMeters>24302.789425732</DistanceMeters>
          </Trackpoint>
          <Trackpoint>
            <Time>2019-07-15T15:38:50.000Z</Time>
            <Position>
              <LatitudeDegrees>37.07458667457103729248046875</LatitudeDegrees>
              <LongitudeDegrees>-3.3778910525143146514892578125</LongitudeDegrees>
            </Position>
            <AltitudeMeters>2874.800048828125</AltitudeMeters>
            <DistanceMeters>24303.66552875</DistanceMeters>
          </Trackpoint>
          <Trackpoint>
            <Time>2019-07-15T15:38:51.000Z</Time>
            <Position>
              <LatitudeDegrees>37.07459606230258941650390625</LatitudeDegrees>
              <LongitudeDegrees>-3.3778850175440311431884765625</LongitudeDegrees>
            </Position>
            <AltitudeMeters>2874.39990234375</AltitudeMeters>
            <DistanceMeters>24304.840944292</DistanceMeters>
          </Trackpoint>
          <Trackpoint>
            <Time>2019-07-15T15:39:04.000Z</Time>
            <Position>
              <LatitudeDegrees>37.07470477558672428131103515625</LatitudeDegrees>
              <LongitudeDegrees>-3.37788661010563373565673828125</LongitudeDegrees>
            </Position>
            <AltitudeMeters>2871.39990234375</AltitudeMeters>
            <DistanceMeters>24316.941841763</DistanceMeters>
          </Trackpoint>
          <Trackpoint>
            <Time>2019-07-15T15:39:20.000Z</Time>
            <Position>
              <LatitudeDegrees>37.07484416663646697998046875</LatitudeDegrees>
              <LongitudeDegrees>-3.3779034577310085296630859375</LongitudeDegrees>
            </Position>
            <AltitudeMeters>2868.199951171875</AltitudeMeters>
            <DistanceMeters>24332.528540472</DistanceMeters>
          </Trackpoint>
          <Trackpoint>
            <Time>2019-07-15T15:39:39.000Z</Time>
            <Position>
              <LatitudeDegrees>37.075010128319263458251953125</LatitudeDegrees>
              <LongitudeDegrees>-3.37800596840679645538330078125</LongitudeDegrees>
            </Position>
            <AltitudeMeters>2865.39990234375</AltitudeMeters>
            <DistanceMeters>24353.121949858</DistanceMeters>
          </Trackpoint>
          <Trackpoint>
            <Time>2019-07-15T15:39:51.000Z</Time>
            <Position>
              <LatitudeDegrees>37.07510073669254779815673828125</LatitudeDegrees>
              <LongitudeDegrees>-3.3780612051486968994140625</LongitudeDegrees>
            </Position>
            <AltitudeMeters>2862.39990234375</AltitudeMeters>
            <DistanceMeters>24364.33711525</DistanceMeters>
          </Trackpoint>
          <Trackpoint>
            <Time>2019-07-15T15:40:11.000Z</Time>
            <Position>
              <LatitudeDegrees>37.0752315782010555267333984375</LatitudeDegrees>
              <LongitudeDegrees>-3.378129266202449798583984375</LongitudeDegrees>
            </Position>
            <AltitudeMeters>2858.60009765625</AltitudeMeters>
            <DistanceMeters>24380.104392586</DistanceMeters>
          </Trackpoint>
          <Trackpoint>
            <Time>2019-07-15T15:40:14.000Z</Time>
            <Position>
              <LatitudeDegrees>37.0752510242164134979248046875</LatitudeDegrees>
              <LongitudeDegrees>-3.37813152931630611419677734375</LongitudeDegrees>
            </Position>
            <AltitudeMeters>2856.800048828125</AltitudeMeters>
            <DistanceMeters>24382.275498273</DistanceMeters>
          </Trackpoint>
          <Trackpoint>
            <Time>2019-07-15T15:40:28.000Z</Time>
            <Position>
              <LatitudeDegrees>37.07533593289554119110107421875</LatitudeDegrees>
              <LongitudeDegrees>-3.378196991980075836181640625</LongitudeDegrees>
            </Position>
            <AltitudeMeters>2854.199951171875</AltitudeMeters>
            <DistanceMeters>24393.371266035</DistanceMeters>
          </Trackpoint>
          <Trackpoint>
            <Time>2019-07-15T15:40:41.000Z</Time>
            <Position>
              <LatitudeDegrees>37.07541489042341709136962890625</LatitudeDegrees>
              <LongitudeDegrees>-3.378251977264881134033203125</LongitudeDegrees>
            </Position>
            <AltitudeMeters>2850.800048828125</AltitudeMeters>
            <DistanceMeters>24403.425254085</DistanceMeters>
          </Trackpoint>
          <Trackpoint>
            <Time>2019-07-15T15:40:43.000Z</Time>
            <Position>
              <LatitudeDegrees>37.0754344202578067779541015625</LatitudeDegrees>
              <LongitudeDegrees>-3.3782575093209743499755859375</LongitudeDegrees>
            </Position>
            <AltitudeMeters>2850.39990234375</AltitudeMeters>
            <DistanceMeters>24405.653828079</DistanceMeters>
          </Trackpoint>
          <Trackpoint>
            <Time>2019-07-15T15:41:02.000Z</Time>
            <Position>
              <LatitudeDegrees>37.07555687986314296722412109375</LatitudeDegrees>
              <LongitudeDegrees>-3.37836228311061859130859375</LongitudeDegrees>
            </Position>
            <AltitudeMeters>2847.39990234375</AltitudeMeters>
            <DistanceMeters>24422.15622322</DistanceMeters>
          </Trackpoint>
          <Trackpoint>
            <Time>2019-07-15T15:41:10.000Z</Time>
            <Position>
              <LatitudeDegrees>37.07559057511389255523681640625</LatitudeDegrees>
              <LongitudeDegrees>-3.37841936387121677398681640625</LongitudeDegrees>
            </Position>
            <AltitudeMeters>2846</AltitudeMeters>
            <DistanceMeters>24428.461014772</DistanceMeters>
          </Trackpoint>
          <Trackpoint>
            <Time>2019-07-15T15:41:11.000Z</Time>
            <Position>
              <LatitudeDegrees>37.075595855712890625</LatitudeDegrees>
              <LongitudeDegrees>-3.37843067944049835205078125</LongitudeDegrees>
            </Position>
            <AltitudeMeters>2845.800048828125</AltitudeMeters>
            <DistanceMeters>24429.628722587</DistanceMeters>
          </Trackpoint>
          <Trackpoint>
            <Time>2019-07-15T15:41:12.000Z</Time>
            <Position>
              <LatitudeDegrees>37.075600884854793548583984375</LatitudeDegrees>
              <LongitudeDegrees>-3.378439061343669891357421875</LongitudeDegrees>
            </Position>
            <AltitudeMeters>2845.60009765625</AltitudeMeters>
            <DistanceMeters>24430.559790436</DistanceMeters>
          </Trackpoint>
          <Trackpoint>
            <Time>2019-07-15T15:41:13.000Z</Time>
            <Position>
              <LatitudeDegrees>37.07560918293893337249755859375</LatitudeDegrees>
              <LongitudeDegrees>-3.37844501249492168426513671875</LongitudeDegrees>
            </Position>
            <AltitudeMeters>2845.199951171875</AltitudeMeters>
            <DistanceMeters>24431.622221401</DistanceMeters>
          </Trackpoint>
          <Trackpoint>
            <Time>2019-07-15T15:41:28.000Z</Time>
            <Position>
              <LatitudeDegrees>37.07573206163942813873291015625</LatitudeDegrees>
              <LongitudeDegrees>-3.378511480987071990966796875</LongitudeDegrees>
            </Position>
            <AltitudeMeters>2842.199951171875</AltitudeMeters>
            <DistanceMeters>24446.518094601</DistanceMeters>
          </Trackpoint>
          <Trackpoint>
            <Time>2019-07-15T15:41:38.000Z</Time>
            <Position>
              <LatitudeDegrees>37.07580364309251308441162109375</LatitudeDegrees>
              <LongitudeDegrees>-3.378574848175048828125</LongitudeDegrees>
            </Position>
            <AltitudeMeters>2840.800048828125</AltitudeMeters>
            <DistanceMeters>24456.272576416</DistanceMeters>
          </Trackpoint>
          <Trackpoint>
            <Time>2019-07-15T15:41:42.000Z</Time>
            <Position>
              <LatitudeDegrees>37.07582828588783740997314453125</LatitudeDegrees>
              <LongitudeDegrees>-3.37860024534165859222412109375</LongitudeDegrees>
            </Position>
            <AltitudeMeters>2839.800048828125</AltitudeMeters>
            <DistanceMeters>24459.823067469</DistanceMeters>
          </Trackpoint>
          <Trackpoint>
            <Time>2019-07-15T15:41:43.000Z</Time>
            <Position>
              <LatitudeDegrees>37.07583792507648468017578125</LatitudeDegrees>
              <LongitudeDegrees>-3.37860275991261005401611328125</LongitudeDegrees>
            </Position>
            <AltitudeMeters>2839.800048828125</AltitudeMeters>
            <DistanceMeters>24460.923081216</DistanceMeters>
          </Trackpoint>
          <Trackpoint>
            <Time>2019-07-15T15:41:44.000Z</Time>
            <Position>
              <LatitudeDegrees>37.0758471451699733734130859375</LatitudeDegrees>
              <LongitudeDegrees>-3.37860368192195892333984375</LongitudeDegrees>
            </Position>
            <AltitudeMeters>2839.800048828125</AltitudeMeters>
            <DistanceMeters>24461.955335555</DistanceMeters>
          </Trackpoint>
          <Trackpoint>
            <Time>2019-07-15T15:41:46.000Z</Time>
            <Position>
              <LatitudeDegrees>37.07586667500436305999755859375</LatitudeDegrees>
              <LongitudeDegrees>-3.3786001615226268768310546875</LongitudeDegrees>
            </Position>
            <AltitudeMeters>2839.60009765625</AltitudeMeters>
            <DistanceMeters>24464.151254684</DistanceMeters>
          </Trackpoint>
          <Trackpoint>
            <Time>2019-07-15T15:41:47.000Z</Time>
            <Position>
              <LatitudeDegrees>37.07587572745978832244873046875</LatitudeDegrees>
              <LongitudeDegrees>-3.37860309518873691558837890625</LongitudeDegrees>
            </Position>
            <AltitudeMeters>2839.39990234375</AltitudeMeters>
            <DistanceMeters>24465.196548542</DistanceMeters>
          </Trackpoint>
          <Trackpoint>
            <Time>2019-07-15T15:42:09.000Z</Time>
            <Position>
              <LatitudeDegrees>37.07605191506445407867431640625</LatitudeDegrees>
              <LongitudeDegrees>-3.378708623349666595458984375</LongitudeDegrees>
            </Position>
            <AltitudeMeters>2836.60009765625</AltitudeMeters>
            <DistanceMeters>24486.930469007</DistanceMeters>
          </Trackpoint>
          <Trackpoint>
            <Time>2019-07-15T15:42:29.000Z</Time>
            <Position>
              <LatitudeDegrees>37.07616406492888927459716796875</LatitudeDegrees>
              <LongitudeDegrees>-3.37875614874064922332763671875</LongitudeDegrees>
            </Position>
            <AltitudeMeters>2832.60009765625</AltitudeMeters>
            <DistanceMeters>24500.107354446</DistanceMeters>
          </Trackpoint>
          <Trackpoint>
            <Time>2019-07-15T15:42:32.000Z</Time>
            <Position>
              <LatitudeDegrees>37.07619440741837024688720703125</LatitudeDegrees>
              <LongitudeDegrees>-3.37876729667186737060546875</LongitudeDegrees>
            </Position>
            <AltitudeMeters>2835.39990234375</AltitudeMeters>
            <DistanceMeters>24503.62591023</DistanceMeters>
          </Trackpoint>
          <Trackpoint>
            <Time>2019-07-15T15:42:43.000Z</Time>
            <Position>
              <LatitudeDegrees>37.076302282512187957763671875</LatitudeDegrees>
              <LongitudeDegrees>-3.37881666608154773712158203125</LongitudeDegrees>
            </Position>
            <AltitudeMeters>2832.39990234375</AltitudeMeters>
            <DistanceMeters>24516.408327966</DistanceMeters>
          </Trackpoint>
          <Trackpoint>
            <Time>2019-07-15T15:42:53.000Z</Time>
            <Position>
              <LatitudeDegrees>37.07633371464908123016357421875</LatitudeDegrees>
              <LongitudeDegrees>-3.37883762083947658538818359375</LongitudeDegrees>
            </Position>
            <AltitudeMeters>2831.800048828125</AltitudeMeters>
            <DistanceMeters>24520.369927751</DistanceMeters>
          </Trackpoint>
          <Trackpoint>
            <Time>2019-07-15T15:42:54.000Z</Time>
            <Position>
              <LatitudeDegrees>37.07634293474256992340087890625</LatitudeDegrees>
              <LongitudeDegrees>-3.37884700857102870941162109375</LongitudeDegrees>
            </Position>
            <AltitudeMeters>2831.800048828125</AltitudeMeters>
            <DistanceMeters>24521.693496725</DistanceMeters>
          </Trackpoint>
          <Trackpoint>
            <Time>2019-07-15T15:42:56.000Z</Time>
            <Position>
              <LatitudeDegrees>37.07636020146310329437255859375</LatitudeDegrees>
              <LongitudeDegrees>-3.378850109875202178955078125</LongitudeDegrees>
            </Position>
            <AltitudeMeters>2831.39990234375</AltitudeMeters>
            <DistanceMeters>24523.636322491</DistanceMeters>
          </Trackpoint>
          <Trackpoint>
            <Time>2019-07-15T15:42:57.000Z</Time>
            <Position>
              <LatitudeDegrees>37.0763683319091796875</LatitudeDegrees>
              <LongitudeDegrees>-3.37885446846485137939453125</LongitudeDegrees>
            </Position>
            <AltitudeMeters>2830.800048828125</AltitudeMeters>
            <DistanceMeters>24524.619286467</DistanceMeters>
          </Trackpoint>
          <Trackpoint>
            <Time>2019-07-15T15:42:58.000Z</Time>
            <Position>
              <LatitudeDegrees>37.07637730054557323455810546875</LatitudeDegrees>
              <LongitudeDegrees>-3.37886092253029346466064453125</LongitudeDegrees>
            </Position>
            <AltitudeMeters>2830.39990234375</AltitudeMeters>
            <DistanceMeters>24525.767498626</DistanceMeters>
          </Trackpoint>
          <Trackpoint>
            <Time>2019-07-15T15:43:19.000Z</Time>
            <Position>
              <LatitudeDegrees>37.076563797891139984130859375</LatitudeDegrees>
              <LongitudeDegrees>-3.37892143987119197845458984375</LongitudeDegrees>
            </Position>
            <AltitudeMeters>2828.199951171875</AltitudeMeters>
            <DistanceMeters>24547.209240206</DistanceMeters>
          </Trackpoint>
          <Trackpoint>
            <Time>2019-07-15T15:43:22.000Z</Time>
            <Position>
              <LatitudeDegrees>37.07659472711384296417236328125</LatitudeDegrees>
              <LongitudeDegrees>-3.3789468370378017425537109375</LongitudeDegrees>
            </Position>
            <AltitudeMeters>2827.800048828125</AltitudeMeters>
            <DistanceMeters>24551.325114768</DistanceMeters>
          </Trackpoint>
          <Trackpoint>
            <Time>2019-07-15T15:43:23.000Z</Time>
            <Position>
              <LatitudeDegrees>37.07660637795925140380859375</LatitudeDegrees>
              <LongitudeDegrees>-3.378953039646148681640625</LongitudeDegrees>
            </Position>
            <AltitudeMeters>2827.800048828125</AltitudeMeters>
            <DistanceMeters>24552.734588718</DistanceMeters>
          </Trackpoint>
          <Trackpoint>
            <Time>2019-07-15T15:43:24.000Z</Time>
            <Position>
              <LatitudeDegrees>37.07662138156592845916748046875</LatitudeDegrees>
              <LongitudeDegrees>-3.3789543807506561279296875</LongitudeDegrees>
            </Position>
            <AltitudeMeters>2827.800048828125</AltitudeMeters>
            <DistanceMeters>24554.407706675</DistanceMeters>
          </Trackpoint>
          <Trackpoint>
            <Time>2019-07-15T15:43:25.000Z</Time>
            <Position>
              <LatitudeDegrees>37.07663663662970066070556640625</LatitudeDegrees>
              <LongitudeDegrees>-3.37894993834197521209716796875</LongitudeDegrees>
            </Position>
            <AltitudeMeters>2827.60009765625</AltitudeMeters>
            <DistanceMeters>24556.149575122</DistanceMeters>
          </Trackpoint>
          <Trackpoint>
            <Time>2019-07-15T15:43:26.000Z</Time>
            <Position>
              <LatitudeDegrees>37.07664795219898223876953125</LatitudeDegrees>
              <LongitudeDegrees>-3.37894658558070659637451171875</LongitudeDegrees>
            </Position>
            <AltitudeMeters>2827.199951171875</AltitudeMeters>
            <DistanceMeters>24557.442078175</DistanceMeters>
          </Trackpoint>
          <Trackpoint>
            <Time>2019-07-15T15:43:36.000Z</Time>
            <Position>
              <LatitudeDegrees>37.0767088048160076141357421875</LatitudeDegrees>
              <LongitudeDegrees>-3.37897005490958690643310546875</LongitudeDegrees>
            </Position>
            <AltitudeMeters>2826.199951171875</AltitudeMeters>
            <DistanceMeters>24564.529058151</DistanceMeters>
          </Trackpoint>
          <Trackpoint>
            <Time>2019-07-15T15:43:37.000Z</Time>
            <Position>
              <LatitudeDegrees>37.0767161808907985687255859375</LatitudeDegrees>
              <LongitudeDegrees>-3.37897307239472866058349609375</LongitudeDegrees>
            </Position>
            <AltitudeMeters>2825.800048828125</AltitudeMeters>
            <DistanceMeters>24565.389561648</DistanceMeters>
          </Trackpoint>
          <Trackpoint>
            <Time>2019-07-15T15:43:38.000Z</Time>
            <Position>
              <LatitudeDegrees>37.07672481425106525421142578125</LatitudeDegrees>
              <LongitudeDegrees>-3.378976173698902130126953125</LongitudeDegrees>
            </Position>
            <AltitudeMeters>2825.800048828125</AltitudeMeters>
            <DistanceMeters>24566.390730208</DistanceMeters>
          </Trackpoint>
          <Trackpoint>
            <Time>2019-07-15T15:43:56.000Z</Time>
            <Position>
              <LatitudeDegrees>37.07686831243336200714111328125</LatitudeDegrees>
              <LongitudeDegrees>-3.378995619714260101318359375</LongitudeDegrees>
            </Position>
            <AltitudeMeters>2822.60009765625</AltitudeMeters>
            <DistanceMeters>24582.455585787</DistanceMeters>
          </Trackpoint>
          <Trackpoint>
            <Time>2019-07-15T15:44:14.000Z</Time>
            <Position>
              <LatitudeDegrees>37.07705137319862842559814453125</LatitudeDegrees>
              <LongitudeDegrees>-3.37906544096767902374267578125</LongitudeDegrees>
            </Position>
            <AltitudeMeters>2819.800048828125</AltitudeMeters>
            <DistanceMeters>24603.753020838</DistanceMeters>
          </Trackpoint>
          <Trackpoint>
            <Time>2019-07-15T15:44:24.000Z</Time>
            <Position>
              <LatitudeDegrees>37.07714550197124481201171875</LatitudeDegrees>
              <LongitudeDegrees>-3.3790906704962253570556640625</LongitudeDegrees>
            </Position>
            <AltitudeMeters>2817.39990234375</AltitudeMeters>
            <DistanceMeters>24614.467045841</DistanceMeters>
          </Trackpoint>
          <Trackpoint>
            <Time>2019-07-15T15:44:26.000Z</Time>
            <Position>
              <LatitudeDegrees>37.07715891301631927490234375</LatitudeDegrees>
              <LongitudeDegrees>-3.37909544818103313446044921875</LongitudeDegrees>
            </Position>
            <AltitudeMeters>2817.199951171875</AltitudeMeters>
            <DistanceMeters>24616.019795148</DistanceMeters>
          </Trackpoint>
          <Trackpoint>
            <Time>2019-07-15T15:44:27.000Z</Time>
            <Position>
              <LatitudeDegrees>37.07717022858560085296630859375</LatitudeDegrees>
              <LongitudeDegrees>-3.3790983818471431732177734375</LongitudeDegrees>
            </Position>
            <AltitudeMeters>2817.199951171875</AltitudeMeters>
            <DistanceMeters>24617.301775613</DistanceMeters>
          </Trackpoint>
          <Trackpoint>
            <Time>2019-07-15T15:44:31.000Z</Time>
            <Position>
              <LatitudeDegrees>37.07721817307174205780029296875</LatitudeDegrees>
              <LongitudeDegrees>-3.3791099488735198974609375</LongitudeDegrees>
            </Position>
            <AltitudeMeters>2817</AltitudeMeters>
            <DistanceMeters>24622.735775058</DistanceMeters>
          </Trackpoint>
          <Trackpoint>
            <Time>2019-07-15T15:44:35.000Z</Time>
            <Position>
              <LatitudeDegrees>37.07725119777023792266845703125</LatitudeDegrees>
              <LongitudeDegrees>-3.37912495248019695281982421875</LongitudeDegrees>
            </Position>
            <AltitudeMeters>2816.199951171875</AltitudeMeters>
            <DistanceMeters>24626.646906544</DistanceMeters>
          </Trackpoint>
          <Trackpoint>
            <Time>2019-07-15T15:44:36.000Z</Time>
            <Position>
              <LatitudeDegrees>37.07726142369210720062255859375</LatitudeDegrees>
              <LongitudeDegrees>-3.3791282214224338531494140625</LongitudeDegrees>
            </Position>
            <AltitudeMeters>2816</AltitudeMeters>
            <DistanceMeters>24627.826157057</DistanceMeters>
          </Trackpoint>
          <Trackpoint>
            <Time>2019-07-15T15:44:42.000Z</Time>
            <Position>
              <LatitudeDegrees>37.07733468152582645416259765625</LatitudeDegrees>
              <LongitudeDegrees>-3.37915546260774135589599609375</LongitudeDegrees>
            </Position>
            <AltitudeMeters>2815</AltitudeMeters>
            <DistanceMeters>24636.33144614</DistanceMeters>
          </Trackpoint>
          <Trackpoint>
            <Time>2019-07-15T15:44:43.000Z</Time>
            <Position>
              <LatitudeDegrees>37.07734775729477405548095703125</LatitudeDegrees>
              <LongitudeDegrees>-3.3791583962738513946533203125</LongitudeDegrees>
            </Position>
            <AltitudeMeters>2814.39990234375</AltitudeMeters>
            <DistanceMeters>24637.812766016</DistanceMeters>
          </Trackpoint>
          <Trackpoint>
            <Time>2019-07-15T15:45:01.000Z</Time>
            <Position>
              <LatitudeDegrees>37.07753936760127544403076171875</LatitudeDegrees>
              <LongitudeDegrees>-3.37919653393328189849853515625</LongitudeDegrees>
            </Position>
            <AltitudeMeters>2812.800048828125</AltitudeMeters>
            <DistanceMeters>24659.40663291</DistanceMeters>
          </Trackpoint>
          <Trackpoint>
            <Time>2019-07-15T15:45:06.000Z</Time>
            <Position>
              <LatitudeDegrees>37.0775927603244781494140625</LatitudeDegrees>
              <LongitudeDegrees>-3.379216901957988739013671875</LongitudeDegrees>
            </Position>
            <AltitudeMeters>2811.199951171875</AltitudeMeters>
            <DistanceMeters>24665.619083853</DistanceMeters>
          </Trackpoint>
          <Trackpoint>
            <Time>2019-07-15T15:45:07.000Z</Time>
            <Position>
              <LatitudeDegrees>37.0776049979031085968017578125</LatitudeDegrees>
              <LongitudeDegrees>-3.37921950034797191619873046875</LongitudeDegrees>
            </Position>
            <AltitudeMeters>2811.60009765625</AltitudeMeters>
            <DistanceMeters>24667.002693699</DistanceMeters>
          </Trackpoint>
          <Trackpoint>
            <Time>2019-07-15T15:45:27.000Z</Time>
            <Position>
              <LatitudeDegrees>37.0778034813702106475830078125</LatitudeDegrees>
              <LongitudeDegrees>-3.37928337045013904571533203125</LongitudeDegrees>
            </Position>
            <AltitudeMeters>2810.199951171875</AltitudeMeters>
            <DistanceMeters>24689.810688872</DistanceMeters>
          </Trackpoint>
          <Trackpoint>
            <Time>2019-07-15T15:45:47.000Z</Time>
            <Position>
              <LatitudeDegrees>37.07800514996051788330078125</LatitudeDegrees>
              <LongitudeDegrees>-3.37933215312659740447998046875</LongitudeDegrees>
            </Position>
            <AltitudeMeters>2807.39990234375</AltitudeMeters>
            <DistanceMeters>24712.67088537</DistanceMeters>
          </Trackpoint>
          <Trackpoint>
            <Time>2019-07-15T15:45:54.000Z</Time>
            <Position>
              <LatitudeDegrees>37.0780730433762073516845703125</LatitudeDegrees>
              <LongitudeDegrees>-3.37934992276132106781005859375</LongitudeDegrees>
            </Position>
            <AltitudeMeters>2807.39990234375</AltitudeMeters>
            <DistanceMeters>24720.390307269</DistanceMeters>
          </Trackpoint>
          <Trackpoint>
            <Time>2019-07-15T15:45:55.000Z</Time>
            <Position>
              <LatitudeDegrees>37.07808352075517177581787109375</LatitudeDegrees>
              <LongitudeDegrees>-3.3793548680841922760009765625</LongitudeDegrees>
            </Position>
            <AltitudeMeters>2807.39990234375</AltitudeMeters>
            <DistanceMeters>24721.636570945</DistanceMeters>
          </Trackpoint>
          <Trackpoint>
            <Time>2019-07-15T15:46:16.000Z</Time>
            <Position>
              <LatitudeDegrees>37.07829591818153858184814453125</LatitudeDegrees>
              <LongitudeDegrees>-3.379418067634105682373046875</LongitudeDegrees>
            </Position>
            <AltitudeMeters>2805.39990234375</AltitudeMeters>
            <DistanceMeters>24745.933881653</DistanceMeters>
          </Trackpoint>
          <Trackpoint>
            <Time>2019-07-15T15:46:36.000Z</Time>
            <Position>
              <LatitudeDegrees>37.07848258316516876220703125</LatitudeDegrees>
              <LongitudeDegrees>-3.379435837268829345703125</LongitudeDegrees>
            </Position>
            <AltitudeMeters>2802.39990234375</AltitudeMeters>
            <DistanceMeters>24766.770100487</DistanceMeters>
          </Trackpoint>
          <Trackpoint>
            <Time>2019-07-15T15:46:51.000Z</Time>
            <Position>
              <LatitudeDegrees>37.0786007679998874664306640625</LatitudeDegrees>
              <LongitudeDegrees>-3.37943675927817821502685546875</LongitudeDegrees>
            </Position>
            <AltitudeMeters>2799.199951171875</AltitudeMeters>
            <DistanceMeters>24779.924351694</DistanceMeters>
          </Trackpoint>
          <Trackpoint>
            <Time>2019-07-15T15:47:11.000Z</Time>
            <Position>
              <LatitudeDegrees>37.07877351902425289154052734375</LatitudeDegrees>
              <LongitudeDegrees>-3.37951102294027805328369140625</LongitudeDegrees>
            </Position>
            <AltitudeMeters>2797.199951171875</AltitudeMeters>
            <DistanceMeters>24800.251185628</DistanceMeters>
          </Trackpoint>
          <Trackpoint>
            <Time>2019-07-15T15:47:31.000Z</Time>
            <Position>
              <LatitudeDegrees>37.07893059588968753814697265625</LatitudeDegrees>
              <LongitudeDegrees>-3.37960858829319477081298828125</LongitudeDegrees>
            </Position>
            <AltitudeMeters>2794.39990234375</AltitudeMeters>
            <DistanceMeters>24819.76292627</DistanceMeters>
          </Trackpoint>
          <Trackpoint>
            <Time>2019-07-15T15:47:53.000Z</Time>
            <Position>
              <LatitudeDegrees>37.07910276018083095550537109375</LatitudeDegrees>
              <LongitudeDegrees>-3.37971000932157039642333984375</LongitudeDegrees>
            </Position>
            <AltitudeMeters>2791.39990234375</AltitudeMeters>
            <DistanceMeters>24840.935765356</DistanceMeters>
          </Trackpoint>
          <Trackpoint>
            <Time>2019-07-15T15:48:11.000Z</Time>
            <Position>
              <LatitudeDegrees>37.07921222783625125885009765625</LatitudeDegrees>
              <LongitudeDegrees>-3.37978913448750972747802734375</LongitudeDegrees>
            </Position>
            <AltitudeMeters>2788.39990234375</AltitudeMeters>
            <DistanceMeters>24855.000361141</DistanceMeters>
          </Trackpoint>
          <Trackpoint>
            <Time>2019-07-15T15:48:24.000Z</Time>
            <Position>
              <LatitudeDegrees>37.07929722033441066741943359375</LatitudeDegrees>
              <LongitudeDegrees>-3.37986691854894161224365234375</LongitudeDegrees>
            </Position>
            <AltitudeMeters>2785.199951171875</AltitudeMeters>
            <DistanceMeters>24866.713343315</DistanceMeters>
          </Trackpoint>
          <Trackpoint>
            <Time>2019-07-15T15:48:53.000Z</Time>
            <Position>
              <LatitudeDegrees>37.07941289059817790985107421875</LatitudeDegrees>
              <LongitudeDegrees>-3.3799405954778194427490234375</LongitudeDegrees>
            </Position>
            <AltitudeMeters>2782</AltitudeMeters>
            <DistanceMeters>24881.154277682</DistanceMeters>
          </Trackpoint>
          <Trackpoint>
            <Time>2019-07-15T15:49:09.000Z</Time>
            <Position>
              <LatitudeDegrees>37.07950986921787261962890625</LatitudeDegrees>
              <LongitudeDegrees>-3.38004671037197113037109375</LongitudeDegrees>
            </Position>
            <AltitudeMeters>2778.39990234375</AltitudeMeters>
            <DistanceMeters>24895.482213956</DistanceMeters>
          </Trackpoint>
          <Trackpoint>
            <Time>2019-07-15T15:49:12.000Z</Time>
            <Position>
              <LatitudeDegrees>37.07951967604458332061767578125</LatitudeDegrees>
              <LongitudeDegrees>-3.38007621467113494873046875</LongitudeDegrees>
            </Position>
            <AltitudeMeters>2778</AltitudeMeters>
            <DistanceMeters>24898.321907296</DistanceMeters>
          </Trackpoint>
          <Trackpoint>
            <Time>2019-07-15T15:49:22.000Z</Time>
            <Position>
              <LatitudeDegrees>37.07956460304558277130126953125</LatitudeDegrees>
              <LongitudeDegrees>-3.3801613748073577880859375</LongitudeDegrees>
            </Position>
            <AltitudeMeters>2775.199951171875</AltitudeMeters>
            <DistanceMeters>24907.387874194</DistanceMeters>
          </Trackpoint>
          <Trackpoint>
            <Time>2019-07-15T15:49:35.000Z</Time>
            <Position>
              <LatitudeDegrees>37.07965965382754802703857421875</LatitudeDegrees>
              <LongitudeDegrees>-3.38025483302772045135498046875</LongitudeDegrees>
            </Position>
            <AltitudeMeters>2772</AltitudeMeters>
            <DistanceMeters>24920.834070331</DistanceMeters>
          </Trackpoint>
          <Trackpoint>
            <Time>2019-07-15T15:49:44.000Z</Time>
            <Position>
              <LatitudeDegrees>37.07972469739615917205810546875</LatitudeDegrees>
              <LongitudeDegrees>-3.38029020465910434722900390625</LongitudeDegrees>
            </Position>
            <AltitudeMeters>2770.39990234375</AltitudeMeters>
            <DistanceMeters>24928.725293757</DistanceMeters>
          </Trackpoint>
          <Trackpoint>
            <Time>2019-07-15T15:50:54.000Z</Time>
            <Position>
              <LatitudeDegrees>37.0798127911984920501708984375</LatitudeDegrees>
              <LongitudeDegrees>-3.38032691739499568939208984375</LongitudeDegrees>
            </Position>
            <AltitudeMeters>2768</AltitudeMeters>
            <DistanceMeters>24939.058329316</DistanceMeters>
          </Trackpoint>
          <Trackpoint>
            <Time>2019-07-15T15:51:18.000Z</Time>
            <Position>
              <LatitudeDegrees>37.07998604513704776763916015625</LatitudeDegrees>
              <LongitudeDegrees>-3.380372263491153717041015625</LongitudeDegrees>
            </Position>
            <AltitudeMeters>2764.800048828125</AltitudeMeters>
            <DistanceMeters>24958.75798833</DistanceMeters>
          </Trackpoint>
          <Trackpoint>
            <Time>2019-07-15T15:51:35.000Z</Time>
            <Position>
              <LatitudeDegrees>37.08012300543487071990966796875</LatitudeDegrees>
              <LongitudeDegrees>-3.38042624294757843017578125</LongitudeDegrees>
            </Position>
            <AltitudeMeters>2761.800048828125</AltitudeMeters>
            <DistanceMeters>24974.737741197</DistanceMeters>
          </Trackpoint>
          <Trackpoint>
            <Time>2019-07-15T15:51:53.000Z</Time>
            <Position>
              <LatitudeDegrees>37.080275975167751312255859375</LatitudeDegrees>
              <LongitudeDegrees>-3.38049287907779216766357421875</LongitudeDegrees>
            </Position>
            <AltitudeMeters>2758.800048828125</AltitudeMeters>
            <DistanceMeters>24992.762533023</DistanceMeters>
          </Trackpoint>
          <Trackpoint>
            <Time>2019-07-15T15:52:09.000Z</Time>
            <Position>
              <LatitudeDegrees>37.08038988523185253143310546875</LatitudeDegrees>
              <LongitudeDegrees>-3.380553983151912689208984375</LongitudeDegrees>
            </Position>
            <AltitudeMeters>2755.800048828125</AltitudeMeters>
            <DistanceMeters>25006.552870579</DistanceMeters>
          </Trackpoint>
          <Trackpoint>
            <Time>2019-07-15T15:52:10.000Z</Time>
            <Position>
              <LatitudeDegrees>37.0803981833159923553466796875</LatitudeDegrees>
              <LongitudeDegrees>-3.38055943138897418975830078125</LongitudeDegrees>
            </Position>
            <AltitudeMeters>2755.800048828125</AltitudeMeters>
            <DistanceMeters>25007.59383608</DistanceMeters>
          </Trackpoint>
          <Trackpoint>
            <Time>2019-07-15T15:52:15.000Z</Time>
            <Position>
              <LatitudeDegrees>37.0804407633841037750244140625</LatitudeDegrees>
              <LongitudeDegrees>-3.38057971559464931488037109375</LongitudeDegrees>
            </Position>
            <AltitudeMeters>2755</AltitudeMeters>
            <DistanceMeters>25012.66331313</DistanceMeters>
          </Trackpoint>
          <Trackpoint>
            <Time>2019-07-15T15:52:16.000Z</Time>
            <Position>
              <LatitudeDegrees>37.08044822327792644500732421875</LatitudeDegrees>
              <LongitudeDegrees>-3.38058424182236194610595703125</LongitudeDegrees>
            </Position>
            <AltitudeMeters>2754.800048828125</AltitudeMeters>
            <DistanceMeters>25013.589518972</DistanceMeters>
          </Trackpoint>
          <Trackpoint>
            <Time>2019-07-15T15:52:17.000Z</Time>
            <Position>
              <LatitudeDegrees>37.08045559935271739959716796875</LatitudeDegrees>
              <LongitudeDegrees>-3.380589522421360015869140625</LongitudeDegrees>
            </Position>
            <AltitudeMeters>2754.800048828125</AltitudeMeters>
            <DistanceMeters>25014.530235449</DistanceMeters>
          </Trackpoint>
          <Trackpoint>
            <Time>2019-07-15T15:52:32.000Z</Time>
            <Position>
              <LatitudeDegrees>37.08057696931064128875732421875</LatitudeDegrees>
              <LongitudeDegrees>-3.38063118048012256622314453125</LongitudeDegrees>
            </Position>
            <AltitudeMeters>2751.800048828125</AltitudeMeters>
            <DistanceMeters>25028.536283453</DistanceMeters>
          </Trackpoint>
          <Trackpoint>
            <Time>2019-07-15T15:52:55.000Z</Time>
            <Position>
              <LatitudeDegrees>37.080737315118312835693359375</LatitudeDegrees>
              <LongitudeDegrees>-3.3806736767292022705078125</LongitudeDegrees>
            </Position>
            <AltitudeMeters>2748.60009765625</AltitudeMeters>
            <DistanceMeters>25046.777700253</DistanceMeters>
          </Trackpoint>
          <Trackpoint>
            <Time>2019-07-15T15:53:11.000Z</Time>
            <Position>
              <LatitudeDegrees>37.0808400772511959075927734375</LatitudeDegrees>
              <LongitudeDegrees>-3.380733020603656768798828125</LongitudeDegrees>
            </Position>
            <AltitudeMeters>2746.39990234375</AltitudeMeters>
            <DistanceMeters>25059.370443101</DistanceMeters>
          </Trackpoint>
          <Trackpoint>
            <Time>2019-07-15T15:53:15.000Z</Time>
            <Position>
              <LatitudeDegrees>37.0808749459683895111083984375</LatitudeDegrees>
              <LongitudeDegrees>-3.38075037114322185516357421875</LongitudeDegrees>
            </Position>
            <AltitudeMeters>2745.39990234375</AltitudeMeters>
            <DistanceMeters>25063.545134411</DistanceMeters>
          </Trackpoint>
          <Trackpoint>
            <Time>2019-07-15T15:53:33.000Z</Time>
            <Position>
              <LatitudeDegrees>37.08105356432497501373291015625</LatitudeDegrees>
              <LongitudeDegrees>-3.38080535642802715301513671875</LongitudeDegrees>
            </Position>
            <AltitudeMeters>2742.199951171875</AltitudeMeters>
            <DistanceMeters>25084.016279656</DistanceMeters>
          </Trackpoint>
          <Trackpoint>
            <Time>2019-07-15T15:53:44.000Z</Time>
            <Position>
              <LatitudeDegrees>37.08114660345017910003662109375</LatitudeDegrees>
              <LongitudeDegrees>-3.38081709109246730804443359375</LongitudeDegrees>
            </Position>
            <AltitudeMeters>2739.60009765625</AltitudeMeters>
            <DistanceMeters>25094.424199574</DistanceMeters>
          </Trackpoint>
          <Trackpoint>
            <Time>2019-07-15T15:53:58.000Z</Time>
            <Position>
              <LatitudeDegrees>37.08125322125852108001708984375</LatitudeDegrees>
              <LongitudeDegrees>-3.38084709830582141876220703125</LongitudeDegrees>
            </Position>
            <AltitudeMeters>2736.60009765625</AltitudeMeters>
            <DistanceMeters>25106.586876594</DistanceMeters>
          </Trackpoint>
          <Trackpoint>
            <Time>2019-07-15T15:54:12.000Z</Time>
            <Position>
              <LatitudeDegrees>37.0813731662929058074951171875</LatitudeDegrees>
              <LongitudeDegrees>-3.38087526150047779083251953125</LongitudeDegrees>
            </Position>
            <AltitudeMeters>2733.39990234375</AltitudeMeters>
            <DistanceMeters>25120.169382318</DistanceMeters>
          </Trackpoint>
          <Trackpoint>
            <Time>2019-07-15T15:54:27.000Z</Time>
            <Position>
              <LatitudeDegrees>37.0815032534301280975341796875</LatitudeDegrees>
              <LongitudeDegrees>-3.38087559677660465240478515625</LongitudeDegrees>
            </Position>
            <AltitudeMeters>2730.60009765625</AltitudeMeters>
            <DistanceMeters>25134.648410418</DistanceMeters>
          </Trackpoint>
          <Trackpoint>
            <Time>2019-07-15T15:54:44.000Z</Time>
            <Position>
              <LatitudeDegrees>37.0815910957753658294677734375</LatitudeDegrees>
              <LongitudeDegrees>-3.38088800199329853057861328125</LongitudeDegrees>
            </Position>
            <AltitudeMeters>2727.39990234375</AltitudeMeters>
            <DistanceMeters>25144.487232476</DistanceMeters>
          </Trackpoint>
          <Trackpoint>
            <Time>2019-07-15T15:55:03.000Z</Time>
            <Position>
              <LatitudeDegrees>37.08172176964581012725830078125</LatitudeDegrees>
              <LongitudeDegrees>-3.38089688681066036224365234375</LongitudeDegrees>
            </Position>
            <AltitudeMeters>2724.39990234375</AltitudeMeters>
            <DistanceMeters>25159.053312118</DistanceMeters>
          </Trackpoint>
          <Trackpoint>
            <Time>2019-07-15T15:55:22.000Z</Time>
            <Position>
              <LatitudeDegrees>37.08186082541942596435546875</LatitudeDegrees>
              <LongitudeDegrees>-3.38088716380298137664794921875</LongitudeDegrees>
            </Position>
            <AltitudeMeters>2721.39990234375</AltitudeMeters>
            <DistanceMeters>25174.554613165</DistanceMeters>
          </Trackpoint>
          <Trackpoint>
            <Time>2019-07-15T15:55:39.000Z</Time>
            <Position>
              <LatitudeDegrees>37.0819647610187530517578125</LatitudeDegrees>
              <LongitudeDegrees>-3.38091281242668628692626953125</LongitudeDegrees>
            </Position>
            <AltitudeMeters>2718.39990234375</AltitudeMeters>
            <DistanceMeters>25186.34482083</DistanceMeters>
          </Trackpoint>
          <Trackpoint>
            <Time>2019-07-15T15:55:57.000Z</Time>
            <Position>
              <LatitudeDegrees>37.0821033976972103118896484375</LatitudeDegrees>
              <LongitudeDegrees>-3.380933515727519989013671875</LongitudeDegrees>
            </Position>
            <AltitudeMeters>2715.199951171875</AltitudeMeters>
            <DistanceMeters>25201.883940629</DistanceMeters>
          </Trackpoint>
          <Trackpoint>
            <Time>2019-07-15T15:56:12.000Z</Time>
            <Position>
              <LatitudeDegrees>37.08222317509353160858154296875</LatitudeDegrees>
              <LongitudeDegrees>-3.38097877800464630126953125</LongitudeDegrees>
            </Position>
            <AltitudeMeters>2711.39990234375</AltitudeMeters>
            <DistanceMeters>25215.807867562</DistanceMeters>
          </Trackpoint>
          <Trackpoint>
            <Time>2019-07-15T15:56:32.000Z</Time>
            <Position>
              <LatitudeDegrees>37.0823629014194011688232421875</LatitudeDegrees>
              <LongitudeDegrees>-3.38106058537960052490234375</LongitudeDegrees>
            </Position>
            <AltitudeMeters>2708</AltitudeMeters>
            <DistanceMeters>25232.972228141</DistanceMeters>
          </Trackpoint>
          <Trackpoint>
            <Time>2019-07-15T15:56:51.000Z</Time>
            <Position>
              <LatitudeDegrees>37.08249994553625583648681640625</LatitudeDegrees>
              <LongitudeDegrees>-3.3810456655919551849365234375</LongitudeDegrees>
            </Position>
            <AltitudeMeters>2705</AltitudeMeters>
            <DistanceMeters>25248.283034275</DistanceMeters>
          </Trackpoint>
          <Trackpoint>
            <Time>2019-07-15T15:57:41.000Z</Time>
            <Position>
              <LatitudeDegrees>37.0826760493218898773193359375</LatitudeDegrees>
              <LongitudeDegrees>-3.3810840547084808349609375</LongitudeDegrees>
            </Position>
            <AltitudeMeters>2702</AltitudeMeters>
            <DistanceMeters>25268.178142738</DistanceMeters>
          </Trackpoint>
          <Trackpoint>
            <Time>2019-07-15T15:58:04.000Z</Time>
            <Position>
              <LatitudeDegrees>37.08288811147212982177734375</LatitudeDegrees>
              <LongitudeDegrees>-3.38107374496757984161376953125</LongitudeDegrees>
            </Position>
            <AltitudeMeters>2699.60009765625</AltitudeMeters>
            <DistanceMeters>25291.798924547</DistanceMeters>
          </Trackpoint>
          <Trackpoint>
            <Time>2019-07-15T15:58:14.000Z</Time>
            <Position>
              <LatitudeDegrees>37.0829858444631099700927734375</LatitudeDegrees>
              <LongitudeDegrees>-3.38109822012484073638916015625</LongitudeDegrees>
            </Position>
            <AltitudeMeters>2698.800048828125</AltitudeMeters>
            <DistanceMeters>25302.891436509</DistanceMeters>
          </Trackpoint>
          <Trackpoint>
            <Time>2019-07-15T15:58:15.000Z</Time>
            <Position>
              <LatitudeDegrees>37.08299598656594753265380859375</LatitudeDegrees>
              <LongitudeDegrees>-3.38110140524804592132568359375</LongitudeDegrees>
            </Position>
            <AltitudeMeters>2698.800048828125</AltitudeMeters>
            <DistanceMeters>25304.055271319</DistanceMeters>
          </Trackpoint>
          <Trackpoint>
            <Time>2019-07-15T15:58:16.000Z</Time>
            <Position>
              <LatitudeDegrees>37.08300772123038768768310546875</LatitudeDegrees>
              <LongitudeDegrees>-3.38110274635255336761474609375</LongitudeDegrees>
            </Position>
            <AltitudeMeters>2698.60009765625</AltitudeMeters>
            <DistanceMeters>25305.361672654</DistanceMeters>
          </Trackpoint>
          <Trackpoint>
            <Time>2019-07-15T15:58:17.000Z</Time>
            <Position>
              <LatitudeDegrees>37.08301953971385955810546875</LatitudeDegrees>
              <LongitudeDegrees>-3.38110643438994884490966796875</LongitudeDegrees>
            </Position>
            <AltitudeMeters>2698.39990234375</AltitudeMeters>
            <DistanceMeters>25306.715594926</DistanceMeters>
          </Trackpoint>
          <Trackpoint>
            <Time>2019-07-15T15:58:18.000Z</Time>
            <Position>
              <LatitudeDegrees>37.0830304361879825592041015625</LatitudeDegrees>
              <LongitudeDegrees>-3.38110811077058315277099609375</LongitudeDegrees>
            </Position>
            <AltitudeMeters>2698.39990234375</AltitudeMeters>
            <DistanceMeters>25307.939928496</DistanceMeters>
          </Trackpoint>
          <Trackpoint>
            <Time>2019-07-15T15:58:32.000Z</Time>
            <Position>
              <LatitudeDegrees>37.08316546864807605743408203125</LatitudeDegrees>
              <LongitudeDegrees>-3.3811269700527191162109375</LongitudeDegrees>
            </Position>
            <AltitudeMeters>2697.199951171875</AltitudeMeters>
            <DistanceMeters>25323.062617278</DistanceMeters>
          </Trackpoint>
          <Trackpoint>
            <Time>2019-07-15T15:58:33.000Z</Time>
            <Position>
              <LatitudeDegrees>37.0831749401986598968505859375</LatitudeDegrees>
              <LongitudeDegrees>-3.3811294846236705780029296875</LongitudeDegrees>
            </Position>
            <AltitudeMeters>2697.199951171875</AltitudeMeters>
            <DistanceMeters>25324.141913281</DistanceMeters>
          </Trackpoint>
          <Trackpoint>
            <Time>2019-07-15T15:58:42.000Z</Time>
            <Position>
              <LatitudeDegrees>37.0832631178200244903564453125</LatitudeDegrees>
              <LongitudeDegrees>-3.38114448823034763336181640625</LongitudeDegrees>
            </Position>
            <AltitudeMeters>2696.39990234375</AltitudeMeters>
            <DistanceMeters>25334.046596541</DistanceMeters>
          </Trackpoint>
          <Trackpoint>
            <Time>2019-07-15T15:58:46.000Z</Time>
            <Position>
              <LatitudeDegrees>37.0833040215075016021728515625</LatitudeDegrees>
              <LongitudeDegrees>-3.38116426952183246612548828125</LongitudeDegrees>
            </Position>
            <AltitudeMeters>2696.39990234375</AltitudeMeters>
            <DistanceMeters>25338.92638256</DistanceMeters>
          </Trackpoint>
          <Trackpoint>
            <Time>2019-07-15T15:58:47.000Z</Time>
            <Position>
              <LatitudeDegrees>37.08331190049648284912109375</LatitudeDegrees>
              <LongitudeDegrees>-3.381170220673084259033203125</LongitudeDegrees>
            </Position>
            <AltitudeMeters>2696.199951171875</AltitudeMeters>
            <DistanceMeters>25339.949851595</DistanceMeters>
          </Trackpoint>
          <Trackpoint>
            <Time>2019-07-15T15:58:48.000Z</Time>
            <Position>
              <LatitudeDegrees>37.0833197794854640960693359375</LatitudeDegrees>
              <LongitudeDegrees>-3.38117952458560466766357421875</LongitudeDegrees>
            </Position>
            <AltitudeMeters>2696.199951171875</AltitudeMeters>
            <DistanceMeters>25341.155605429</DistanceMeters>
          </Trackpoint>
          <Trackpoint>
            <Time>2019-07-15T15:58:49.000Z</Time>
            <Position>
              <LatitudeDegrees>37.08332858048379421234130859375</LatitudeDegrees>
              <LongitudeDegrees>-3.38118799030780792236328125</LongitudeDegrees>
            </Position>
            <AltitudeMeters>2696</AltitudeMeters>
            <DistanceMeters>25342.390952716</DistanceMeters>
          </Trackpoint>
          <Trackpoint>
            <Time>2019-07-15T15:58:50.000Z</Time>
            <Position>
              <LatitudeDegrees>37.08333813585340976715087890625</LatitudeDegrees>
              <LongitudeDegrees>-3.38119528256356716156005859375</LongitudeDegrees>
            </Position>
            <AltitudeMeters>2696</AltitudeMeters>
            <DistanceMeters>25343.637216391</DistanceMeters>
          </Trackpoint>
          <Trackpoint>
            <Time>2019-07-15T15:58:51.000Z</Time>
            <Position>
              <LatitudeDegrees>37.083347104489803314208984375</LatitudeDegrees>
              <LongitudeDegrees>-3.38120332919061183929443359375</LongitudeDegrees>
            </Position>
            <AltitudeMeters>2696</AltitudeMeters>
            <DistanceMeters>25344.868903382</DistanceMeters>
          </Trackpoint>
          <Trackpoint>
            <Time>2019-07-15T15:58:52.000Z</Time>
            <Position>
              <LatitudeDegrees>37.083355486392974853515625</LatitudeDegrees>
              <LongitudeDegrees>-3.38121137581765651702880859375</LongitudeDegrees>
            </Position>
            <AltitudeMeters>2696</AltitudeMeters>
            <DistanceMeters>25346.048153895</DistanceMeters>
          </Trackpoint>
          <Trackpoint>
            <Time>2019-07-15T15:58:53.000Z</Time>
            <Position>
              <LatitudeDegrees>37.08336210809648036956787109375</LatitudeDegrees>
              <LongitudeDegrees>-3.3812203444540500640869140625</LongitudeDegrees>
            </Position>
            <AltitudeMeters>2695.800048828125</AltitudeMeters>
            <DistanceMeters>25347.131625139</DistanceMeters>
          </Trackpoint>
          <Trackpoint>
            <Time>2019-07-15T15:58:54.000Z</Time>
            <Position>
              <LatitudeDegrees>37.08336780779063701629638671875</LatitudeDegrees>
              <LongitudeDegrees>-3.38122813962399959564208984375</LongitudeDegrees>
            </Position>
            <AltitudeMeters>2695.800048828125</AltitudeMeters>
            <DistanceMeters>25348.072341617</DistanceMeters>
          </Trackpoint>
          <Trackpoint>
            <Time>2019-07-15T15:58:55.000Z</Time>
            <Position>
              <LatitudeDegrees>37.08337602205574512481689453125</LatitudeDegrees>
              <LongitudeDegrees>-3.38123350404202938079833984375</LongitudeDegrees>
            </Position>
            <AltitudeMeters>2695.800048828125</AltitudeMeters>
            <DistanceMeters>25349.104595956</DistanceMeters>
          </Trackpoint>
          <Trackpoint>
            <Time>2019-07-15T15:58:56.000Z</Time>
            <Position>
              <LatitudeDegrees>37.08338540978729724884033203125</LatitudeDegrees>
              <LongitudeDegrees>-3.381239287555217742919921875</LongitudeDegrees>
            </Position>
            <AltitudeMeters>2695.800048828125</AltitudeMeters>
            <DistanceMeters>25350.268430767</DistanceMeters>
          </Trackpoint>
          <Trackpoint>
            <Time>2019-07-15T15:58:57.000Z</Time>
            <Position>
              <LatitudeDegrees>37.0833970606327056884765625</LatitudeDegrees>
              <LongitudeDegrees>-3.3812458254396915435791015625</LongitudeDegrees>
            </Position>
            <AltitudeMeters>2695.800048828125</AltitudeMeters>
            <DistanceMeters>25351.690660398</DistanceMeters>
          </Trackpoint>
          <Trackpoint>
            <Time>2019-07-15T15:58:58.000Z</Time>
            <Position>
              <LatitudeDegrees>37.08340921439230442047119140625</LatitudeDegrees>
              <LongitudeDegrees>-3.381250686943531036376953125</LongitudeDegrees>
            </Position>
            <AltitudeMeters>2695.60009765625</AltitudeMeters>
            <DistanceMeters>25353.112890029</DistanceMeters>
          </Trackpoint>
          <Trackpoint>
            <Time>2019-07-15T15:58:59.000Z</Time>
            <Position>
              <LatitudeDegrees>37.08341927267611026763916015625</LatitudeDegrees>
              <LongitudeDegrees>-3.3812583982944488525390625</LongitudeDegrees>
            </Position>
            <AltitudeMeters>2695.60009765625</AltitudeMeters>
            <DistanceMeters>25354.429618808</DistanceMeters>
          </Trackpoint>
          <Trackpoint>
            <Time>2019-07-15T15:59:00.000Z</Time>
            <Position>
              <LatitudeDegrees>37.08342882804572582244873046875</LatitudeDegrees>
              <LongitudeDegrees>-3.3812637627124786376953125</LongitudeDegrees>
            </Position>
            <AltitudeMeters>2695.39990234375</AltitudeMeters>
            <DistanceMeters>25355.597326624</DistanceMeters>
          </Trackpoint>
          <Trackpoint>
            <Time>2019-07-15T15:59:01.000Z</Time>
            <Position>
              <LatitudeDegrees>37.08343720994889736175537109375</LatitudeDegrees>
              <LongitudeDegrees>-3.38126921094954013824462890625</LongitudeDegrees>
            </Position>
            <AltitudeMeters>2695.39990234375</AltitudeMeters>
            <DistanceMeters>25356.64693099</DistanceMeters>
          </Trackpoint>
          <Trackpoint>
            <Time>2019-07-15T15:59:02.000Z</Time>
            <Position>
              <LatitudeDegrees>37.0834458433091640472412109375</LatitudeDegrees>
              <LongitudeDegrees>-3.38127507828176021575927734375</LongitudeDegrees>
            </Position>
            <AltitudeMeters>2695.39990234375</AltitudeMeters>
            <DistanceMeters>25357.742832522</DistanceMeters>
          </Trackpoint>
          <Trackpoint>
            <Time>2019-07-15T15:59:22.000Z</Time>
            <Position>
              <LatitudeDegrees>37.08363217301666736602783203125</LatitudeDegrees>
              <LongitudeDegrees>-3.3813675306737422943115234375</LongitudeDegrees>
            </Position>
            <AltitudeMeters>2692.199951171875</AltitudeMeters>
            <DistanceMeters>25380.047608504</DistanceMeters>
          </Trackpoint>
          <Trackpoint>
            <Time>2019-07-15T15:59:33.000Z</Time>
            <Position>
              <LatitudeDegrees>37.08373325876891613006591796875</LatitudeDegrees>
              <LongitudeDegrees>-3.38135470636188983917236328125</LongitudeDegrees>
            </Position>
            <AltitudeMeters>2690.199951171875</AltitudeMeters>
            <DistanceMeters>25391.356985266</DistanceMeters>
          </Trackpoint>
          <Trackpoint>
            <Time>2019-07-15T15:59:34.000Z</Time>
            <Position>
              <LatitudeDegrees>37.08374549634754657745361328125</LatitudeDegrees>
              <LongitudeDegrees>-3.3813511021435260772705078125</LongitudeDegrees>
            </Position>
            <AltitudeMeters>2690.199951171875</AltitudeMeters>
            <DistanceMeters>25392.75681618</DistanceMeters>
          </Trackpoint>
          <Trackpoint>
            <Time>2019-07-15T15:59:35.000Z</Time>
            <Position>
              <LatitudeDegrees>37.08375714719295501708984375</LatitudeDegrees>
              <LongitudeDegrees>-3.381351269781589508056640625</LongitudeDegrees>
            </Position>
            <AltitudeMeters>2690</AltitudeMeters>
            <DistanceMeters>25394.052807777</DistanceMeters>
          </Trackpoint>
          <Trackpoint>
            <Time>2019-07-15T15:59:56.000Z</Time>
            <Position>
              <LatitudeDegrees>37.08393107168376445770263671875</LatitudeDegrees>
              <LongitudeDegrees>-3.38143332861363887786865234375</LongitudeDegrees>
            </Position>
            <AltitudeMeters>2687</AltitudeMeters>
            <DistanceMeters>25414.73678616</DistanceMeters>
          </Trackpoint>
          <Trackpoint>
            <Time>2019-07-15T16:00:15.000Z</Time>
            <Position>
              <LatitudeDegrees>37.08403584547340869903564453125</LatitudeDegrees>
              <LongitudeDegrees>-3.38140524923801422119140625</LongitudeDegrees>
            </Position>
            <AltitudeMeters>2686.199951171875</AltitudeMeters>
            <DistanceMeters>25426.662165563</DistanceMeters>
          </Trackpoint>
          <Trackpoint>
            <Time>2019-07-15T16:00:16.000Z</Time>
            <Position>
              <LatitudeDegrees>37.08404414355754852294921875</LatitudeDegrees>
              <LongitudeDegrees>-3.38139980100095272064208984375</LongitudeDegrees>
            </Position>
            <AltitudeMeters>2686.199951171875</AltitudeMeters>
            <DistanceMeters>25427.703131064</DistanceMeters>
          </Trackpoint>
          <Trackpoint>
            <Time>2019-07-15T16:00:37.000Z</Time>
            <Position>
              <LatitudeDegrees>37.08421052433550357818603515625</LatitudeDegrees>
              <LongitudeDegrees>-3.3812505193054676055908203125</LongitudeDegrees>
            </Position>
            <AltitudeMeters>2685.39990234375</AltitudeMeters>
            <DistanceMeters>25450.476655396</DistanceMeters>
          </Trackpoint>
          <Trackpoint>
            <Time>2019-07-15T16:00:57.000Z</Time>
            <Position>
              <LatitudeDegrees>37.0844241790473461151123046875</LatitudeDegrees>
              <LongitudeDegrees>-3.3812101185321807861328125</LongitudeDegrees>
            </Position>
            <AltitudeMeters>2683.800048828125</AltitudeMeters>
            <DistanceMeters>25474.525737209</DistanceMeters>
          </Trackpoint>
          <Trackpoint>
            <Time>2019-07-15T16:01:02.000Z</Time>
            <Position>
              <LatitudeDegrees>37.0844878815114498138427734375</LatitudeDegrees>
              <LongitudeDegrees>-3.38119394145905971527099609375</LongitudeDegrees>
            </Position>
            <AltitudeMeters>2683.800048828125</AltitudeMeters>
            <DistanceMeters>25481.759011911</DistanceMeters>
          </Trackpoint>
          <Trackpoint>
            <Time>2019-07-15T16:01:08.000Z</Time>
            <Position>
              <LatitudeDegrees>37.08454395644366741180419921875</LatitudeDegrees>
              <LongitudeDegrees>-3.38119846768677234649658203125</LongitudeDegrees>
            </Position>
            <AltitudeMeters>2682.800048828125</AltitudeMeters>
            <DistanceMeters>25488.013473611</DistanceMeters>
          </Trackpoint>
          <Trackpoint>
            <Time>2019-07-15T16:01:09.000Z</Time>
            <Position>
              <LatitudeDegrees>37.084551416337490081787109375</LatitudeDegrees>
              <LongitudeDegrees>-3.3811988867819309234619140625</LongitudeDegrees>
            </Position>
            <AltitudeMeters>2682.800048828125</AltitudeMeters>
            <DistanceMeters>25488.841897301</DistanceMeters>
          </Trackpoint>
          <Trackpoint>
            <Time>2019-07-15T16:01:10.000Z</Time>
            <Position>
              <LatitudeDegrees>37.0845596306025981903076171875</LatitudeDegrees>
              <LongitudeDegrees>-3.38120232336223125457763671875</LongitudeDegrees>
            </Position>
            <AltitudeMeters>2682.800048828125</AltitudeMeters>
            <DistanceMeters>25489.801620072</DistanceMeters>
          </Trackpoint>
          <Trackpoint>
            <Time>2019-07-15T16:01:11.000Z</Time>
            <Position>
              <LatitudeDegrees>37.08456792868673801422119140625</LatitudeDegrees>
              <LongitudeDegrees>-3.38120316155254840850830078125</LongitudeDegrees>
            </Position>
            <AltitudeMeters>2682.800048828125</AltitudeMeters>
            <DistanceMeters>25490.732687921</DistanceMeters>
          </Trackpoint>
          <Trackpoint>
            <Time>2019-07-15T16:01:16.000Z</Time>
            <Position>
              <LatitudeDegrees>37.08459273912012577056884765625</LatitudeDegrees>
              <LongitudeDegrees>-3.3812039159238338470458984375</LongitudeDegrees>
            </Position>
            <AltitudeMeters>2683.39990234375</AltitudeMeters>
            <DistanceMeters>25493.496642456</DistanceMeters>
          </Trackpoint>
          <Trackpoint>
            <Time>2019-07-15T16:01:28.000Z</Time>
            <Position>
              <LatitudeDegrees>37.08470933139324188232421875</LatitudeDegrees>
              <LongitudeDegrees>-3.38126267306506633758544921875</LongitudeDegrees>
            </Position>
            <AltitudeMeters>2682</AltitudeMeters>
            <DistanceMeters>25507.483335277</DistanceMeters>
          </Trackpoint>
          <Trackpoint>
            <Time>2019-07-15T16:01:29.000Z</Time>
            <Position>
              <LatitudeDegrees>37.0847141928970813751220703125</LatitudeDegrees>
              <LongitudeDegrees>-3.38126652874052524566650390625</LongitudeDegrees>
            </Position>
            <AltitudeMeters>2681.800048828125</AltitudeMeters>
            <DistanceMeters>25508.127837811</DistanceMeters>
          </Trackpoint>
          <Trackpoint>
            <Time>2019-07-15T16:01:30.000Z</Time>
            <Position>
              <LatitudeDegrees>37.08472399972379207611083984375</LatitudeDegrees>
              <LongitudeDegrees>-3.38127113878726959228515625</LongitudeDegrees>
            </Position>
            <AltitudeMeters>2682</AltitudeMeters>
            <DistanceMeters>25509.291672622</DistanceMeters>
          </Trackpoint>
          <Trackpoint>
            <Time>2019-07-15T16:01:31.000Z</Time>
            <Position>
              <LatitudeDegrees>37.0847349800169467926025390625</LatitudeDegrees>
              <LongitudeDegrees>-3.38127407245337963104248046875</LongitudeDegrees>
            </Position>
            <AltitudeMeters>2681.60009765625</AltitudeMeters>
            <DistanceMeters>25510.545161075</DistanceMeters>
          </Trackpoint>
          <Trackpoint>
            <Time>2019-07-15T16:01:32.000Z</Time>
            <Position>
              <LatitudeDegrees>37.08474528975784778594970703125</LatitudeDegrees>
              <LongitudeDegrees>-3.38127826340496540069580078125</LongitudeDegrees>
            </Position>
            <AltitudeMeters>2681.39990234375</AltitudeMeters>
            <DistanceMeters>25511.754653689</DistanceMeters>
          </Trackpoint>
          <Trackpoint>
            <Time>2019-07-15T16:01:33.000Z</Time>
            <Position>
              <LatitudeDegrees>37.08475199528038501739501953125</LatitudeDegrees>
              <LongitudeDegrees>-3.3812879025936126708984375</LongitudeDegrees>
            </Position>
            <AltitudeMeters>2681.199951171875</AltitudeMeters>
            <DistanceMeters>25512.894974261</DistanceMeters>
          </Trackpoint>
          <Trackpoint>
            <Time>2019-07-15T16:01:34.000Z</Time>
            <Position>
              <LatitudeDegrees>37.08475702442228794097900390625</LatitudeDegrees>
              <LongitudeDegrees>-3.3812986314296722412109375</LongitudeDegrees>
            </Position>
            <AltitudeMeters>2681.39990234375</AltitudeMeters>
            <DistanceMeters>25514.003166662</DistanceMeters>
          </Trackpoint>
          <Trackpoint>
            <Time>2019-07-15T16:01:35.000Z</Time>
            <Position>
              <LatitudeDegrees>37.0847648195922374725341796875</LatitudeDegrees>
              <LongitudeDegrees>-3.3813071809709072113037109375</LongitudeDegrees>
            </Position>
            <AltitudeMeters>2681.199951171875</AltitudeMeters>
            <DistanceMeters>25515.155304343</DistanceMeters>
          </Trackpoint>
          <Trackpoint>
            <Time>2019-07-15T16:01:36.000Z</Time>
            <Position>
              <LatitudeDegrees>37.0847703516483306884765625</LatitudeDegrees>
              <LongitudeDegrees>-3.38131514377892017364501953125</LongitudeDegrees>
            </Position>
            <AltitudeMeters>2681</AltitudeMeters>
            <DistanceMeters>25516.091208941</DistanceMeters>
          </Trackpoint>
          <Trackpoint>
            <Time>2019-07-15T16:01:37.000Z</Time>
            <Position>
              <LatitudeDegrees>37.084777392446994781494140625</LatitudeDegrees>
              <LongitudeDegrees>-3.38132671080529689788818359375</LongitudeDegrees>
            </Position>
            <AltitudeMeters>2680.800048828125</AltitudeMeters>
            <DistanceMeters>25517.387200537</DistanceMeters>
          </Trackpoint>
          <Trackpoint>
            <Time>2019-07-15T16:01:38.000Z</Time>
            <Position>
              <LatitudeDegrees>37.08478602580726146697998046875</LatitudeDegrees>
              <LongitudeDegrees>-3.38133442215621471405029296875</LongitudeDegrees>
            </Position>
            <AltitudeMeters>2680.60009765625</AltitudeMeters>
            <DistanceMeters>25518.56645105</DistanceMeters>
          </Trackpoint>
          <Trackpoint>
            <Time>2019-07-15T16:01:40.000Z</Time>
            <Position>
              <LatitudeDegrees>37.08479792810976505279541015625</LatitudeDegrees>
              <LongitudeDegrees>-3.3813442289829254150390625</LongitudeDegrees>
            </Position>
            <AltitudeMeters>2681</AltitudeMeters>
            <DistanceMeters>25520.156552118</DistanceMeters>
          </Trackpoint>
          <Trackpoint>
            <Time>2019-07-15T16:01:41.000Z</Time>
            <Position>
              <LatitudeDegrees>37.084804214537143707275390625</LatitudeDegrees>
              <LongitudeDegrees>-3.38135219179093837738037109375</LongitudeDegrees>
            </Position>
            <AltitudeMeters>2681.60009765625</AltitudeMeters>
            <DistanceMeters>25521.153200706</DistanceMeters>
          </Trackpoint>
          <Trackpoint>
            <Time>2019-07-15T16:01:42.000Z</Time>
            <Position>
              <LatitudeDegrees>37.08481167443096637725830078125</LatitudeDegrees>
              <LongitudeDegrees>-3.38135990314185619354248046875</LongitudeDegrees>
            </Position>
            <AltitudeMeters>2681.60009765625</AltitudeMeters>
            <DistanceMeters>25522.232496709</DistanceMeters>
          </Trackpoint>
          <Trackpoint>
            <Time>2019-07-15T16:01:43.000Z</Time>
            <Position>
              <LatitudeDegrees>37.0848213136196136474609375</LatitudeDegrees>
              <LongitudeDegrees>-3.38136409409344196319580078125</LongitudeDegrees>
            </Position>
            <AltitudeMeters>2681.199951171875</AltitudeMeters>
            <DistanceMeters>25523.364870699</DistanceMeters>
          </Trackpoint>
          <Trackpoint>
            <Time>2019-07-15T16:01:44.000Z</Time>
            <Position>
              <LatitudeDegrees>37.084830701351165771484375</LatitudeDegrees>
              <LongitudeDegrees>-3.38136903941631317138671875</LongitudeDegrees>
            </Position>
            <AltitudeMeters>2681</AltitudeMeters>
            <DistanceMeters>25524.501224927</DistanceMeters>
          </Trackpoint>
          <Trackpoint>
            <Time>2019-07-15T16:01:45.000Z</Time>
            <Position>
              <LatitudeDegrees>37.08484000526368618011474609375</LatitudeDegrees>
              <LongitudeDegrees>-3.38137448765337467193603515625</LongitudeDegrees>
            </Position>
            <AltitudeMeters>2680.800048828125</AltitudeMeters>
            <DistanceMeters>25525.649437086</DistanceMeters>
          </Trackpoint>
          <Trackpoint>
            <Time>2019-07-15T16:01:46.000Z</Time>
            <Position>
              <LatitudeDegrees>37.08484972827136516571044921875</LatitudeDegrees>
              <LongitudeDegrees>-3.38138169609010219573974609375</LongitudeDegrees>
            </Position>
            <AltitudeMeters>2680.800048828125</AltitudeMeters>
            <DistanceMeters>25526.906522357</DistanceMeters>
          </Trackpoint>
          <Trackpoint>
            <Time>2019-07-15T16:02:14.000Z</Time>
            <Position>
              <LatitudeDegrees>37.08502306602895259857177734375</LatitudeDegrees>
              <LongitudeDegrees>-3.3814932592213153839111328125</LongitudeDegrees>
            </Position>
            <AltitudeMeters>2681.199951171875</AltitudeMeters>
            <DistanceMeters>25548.593858792</DistanceMeters>
          </Trackpoint>
          <Trackpoint>
            <Time>2019-07-15T16:02:32.000Z</Time>
            <Position>
              <LatitudeDegrees>37.08519556559622287750244140625</LatitudeDegrees>
              <LongitudeDegrees>-3.3816092647612094879150390625</LongitudeDegrees>
            </Position>
            <AltitudeMeters>2679.39990234375</AltitudeMeters>
            <DistanceMeters>25570.381725109</DistanceMeters>
          </Trackpoint>
          <Trackpoint>
            <Time>2019-07-15T16:02:44.000Z</Time>
            <Position>
              <LatitudeDegrees>37.085301093757152557373046875</LatitudeDegrees>
              <LongitudeDegrees>-3.381634913384914398193359375</LongitudeDegrees>
            </Position>
            <AltitudeMeters>2676.39990234375</AltitudeMeters>
            <DistanceMeters>25582.345660152</DistanceMeters>
          </Trackpoint>
          <Trackpoint>
            <Time>2019-07-15T16:02:45.000Z</Time>
            <Position>
              <LatitudeDegrees>37.08531056530773639678955078125</LatitudeDegrees>
              <LongitudeDegrees>-3.38163399137556552886962890625</LongitudeDegrees>
            </Position>
            <AltitudeMeters>2676.199951171875</AltitudeMeters>
            <DistanceMeters>25583.408091117</DistanceMeters>
          </Trackpoint>
          <Trackpoint>
            <Time>2019-07-15T16:03:07.000Z</Time>
            <Position>
              <LatitudeDegrees>37.08548457361757755279541015625</LatitudeDegrees>
              <LongitudeDegrees>-3.38168964721262454986572265625</LongitudeDegrees>
            </Position>
            <AltitudeMeters>2673.39990234375</AltitudeMeters>
            <DistanceMeters>25603.396029283</DistanceMeters>
          </Trackpoint>
          <Trackpoint>
            <Time>2019-07-15T16:03:08.000Z</Time>
            <Position>
              <LatitudeDegrees>37.08549228496849536895751953125</LatitudeDegrees>
              <LongitudeDegrees>-3.38169383816421031951904296875</LongitudeDegrees>
            </Position>
            <AltitudeMeters>2673.39990234375</AltitudeMeters>
            <DistanceMeters>25604.327097131</DistanceMeters>
          </Trackpoint>
          <Trackpoint>
            <Time>2019-07-15T16:03:09.000Z</Time>
            <Position>
              <LatitudeDegrees>37.08550016395747661590576171875</LatitudeDegrees>
              <LongitudeDegrees>-3.3816974423825740814208984375</LongitudeDegrees>
            </Position>
            <AltitudeMeters>2673</AltitudeMeters>
            <DistanceMeters>25605.25816498</DistanceMeters>
          </Trackpoint>
          <Trackpoint>
            <Time>2019-07-15T16:03:12.000Z</Time>
            <Position>
              <LatitudeDegrees>37.08551726303994655609130859375</LatitudeDegrees>
              <LongitudeDegrees>-3.38170825503766536712646484375</LongitudeDegrees>
            </Position>
            <AltitudeMeters>2671.800048828125</AltitudeMeters>
            <DistanceMeters>25607.391509426</DistanceMeters>
          </Trackpoint>
          <Trackpoint>
            <Time>2019-07-15T16:03:13.000Z</Time>
            <Position>
              <LatitudeDegrees>37.08552480675280094146728515625</LatitudeDegrees>
              <LongitudeDegrees>-3.3817175589501857757568359375</LongitudeDegrees>
            </Position>
            <AltitudeMeters>2672</AltitudeMeters>
            <DistanceMeters>25608.570759939</DistanceMeters>
          </Trackpoint>
          <Trackpoint>
            <Time>2019-07-15T16:03:14.000Z</Time>
            <Position>
              <LatitudeDegrees>37.0855294167995452880859375</LatitudeDegrees>
              <LongitudeDegrees>-3.38172887451946735382080078125</LongitudeDegrees>
            </Position>
            <AltitudeMeters>2672.199951171875</AltitudeMeters>
            <DistanceMeters>25609.70313393</DistanceMeters>
          </Trackpoint>
          <Trackpoint>
            <Time>2019-07-15T16:03:15.000Z</Time>
            <Position>
              <LatitudeDegrees>37.08553704433143138885498046875</LatitudeDegrees>
              <LongitudeDegrees>-3.381738178431987762451171875</LongitudeDegrees>
            </Position>
            <AltitudeMeters>2672.199951171875</AltitudeMeters>
            <DistanceMeters>25610.890017212</DistanceMeters>
          </Trackpoint>
          <Trackpoint>
            <Time>2019-07-15T16:03:49.000Z</Time>
            <Position>
              <LatitudeDegrees>37.08569294773042201995849609375</LatitudeDegrees>
              <LongitudeDegrees>-3.3818231709301471710205078125</LongitudeDegrees>
            </Position>
            <AltitudeMeters>2670</AltitudeMeters>
            <DistanceMeters>25629.812506244</DistanceMeters>
          </Trackpoint>
          <Trackpoint>
            <Time>2019-07-15T16:04:12.000Z</Time>
            <Position>
              <LatitudeDegrees>37.08583493717014789581298828125</LatitudeDegrees>
              <LongitudeDegrees>-3.38197790086269378662109375</LongitudeDegrees>
            </Position>
            <AltitudeMeters>2668.60009765625</AltitudeMeters>
            <DistanceMeters>25650.752910063</DistanceMeters>
          </Trackpoint>
          <Trackpoint>
            <Time>2019-07-15T16:04:37.000Z</Time>
            <Position>
              <LatitudeDegrees>37.08596594631671905517578125</LatitudeDegrees>
              <LongitudeDegrees>-3.38217864744365215301513671875</LongitudeDegrees>
            </Position>
            <AltitudeMeters>2667.60009765625</AltitudeMeters>
            <DistanceMeters>25673.781551565</DistanceMeters>
          </Trackpoint>
          <Trackpoint>
            <Time>2019-07-15T16:04:38.000Z</Time>
            <Position>
              <LatitudeDegrees>37.08597122691571712493896484375</LatitudeDegrees>
              <LongitudeDegrees>-3.38218602351844310760498046875</LongitudeDegrees>
            </Position>
            <AltitudeMeters>2667.60009765625</AltitudeMeters>
            <DistanceMeters>25674.662793061</DistanceMeters>
          </Trackpoint>
          <Trackpoint>
            <Time>2019-07-15T16:04:44.000Z</Time>
            <Position>
              <LatitudeDegrees>37.08602889440953731536865234375</LatitudeDegrees>
              <LongitudeDegrees>-3.3821996860206127166748046875</LongitudeDegrees>
            </Position>
            <AltitudeMeters>2666.60009765625</AltitudeMeters>
            <DistanceMeters>25681.195490916</DistanceMeters>
          </Trackpoint>
          <Trackpoint>
            <Time>2019-07-15T16:04:49.000Z</Time>
            <Position>
              <LatitudeDegrees>37.0860586501657962799072265625</LatitudeDegrees>
              <LongitudeDegrees>-3.3821825869381427764892578125</LongitudeDegrees>
            </Position>
            <AltitudeMeters>2666</AltitudeMeters>
            <DistanceMeters>25684.838870168</DistanceMeters>
          </Trackpoint>
          <Trackpoint>
            <Time>2019-07-15T16:04:57.000Z</Time>
            <Position>
              <LatitudeDegrees>37.08610919304192066192626953125</LatitudeDegrees>
              <LongitudeDegrees>-3.38220781646668910980224609375</LongitudeDegrees>
            </Position>
            <AltitudeMeters>2664.39990234375</AltitudeMeters>
            <DistanceMeters>25690.895285817</DistanceMeters>
          </Trackpoint>
          <Trackpoint>
            <Time>2019-07-15T16:04:59.000Z</Time>
            <Position>
              <LatitudeDegrees>37.08612143062055110931396484375</LatitudeDegrees>
              <LongitudeDegrees>-3.38221267797052860260009765625</LongitudeDegrees>
            </Position>
            <AltitudeMeters>2663.800048828125</AltitudeMeters>
            <DistanceMeters>25692.323850578</DistanceMeters>
          </Trackpoint>
          <Trackpoint>
            <Time>2019-07-15T16:05:05.000Z</Time>
            <Position>
              <LatitudeDegrees>37.08616434596478939056396484375</LatitudeDegrees>
              <LongitudeDegrees>-3.382228352129459381103515625</LongitudeDegrees>
            </Position>
            <AltitudeMeters>2662.800048828125</AltitudeMeters>
            <DistanceMeters>25697.298024827</DistanceMeters>
          </Trackpoint>
          <Trackpoint>
            <Time>2019-07-15T16:05:18.000Z</Time>
            <Position>
              <LatitudeDegrees>37.08625436760485172271728515625</LatitudeDegrees>
              <LongitudeDegrees>-3.38231007568538188934326171875</LongitudeDegrees>
            </Position>
            <AltitudeMeters>2661</AltitudeMeters>
            <DistanceMeters>25709.668663675</DistanceMeters>
          </Trackpoint>
          <Trackpoint>
            <Time>2019-07-15T16:05:19.000Z</Time>
            <Position>
              <LatitudeDegrees>37.08626098930835723876953125</LatitudeDegrees>
              <LongitudeDegrees>-3.38231745176017284393310546875</LongitudeDegrees>
            </Position>
            <AltitudeMeters>2661</AltitudeMeters>
            <DistanceMeters>25710.656210259</DistanceMeters>
          </Trackpoint>
          <Trackpoint>
            <Time>2019-07-15T16:05:22.000Z</Time>
            <Position>
              <LatitudeDegrees>37.0862839557230472564697265625</LatitudeDegrees>
              <LongitudeDegrees>-3.38232683949172496795654296875</LongitudeDegrees>
            </Position>
            <AltitudeMeters>2660.39990234375</AltitudeMeters>
            <DistanceMeters>25713.347329228</DistanceMeters>
          </Trackpoint>
          <Trackpoint>
            <Time>2019-07-15T16:05:24.000Z</Time>
            <Position>
              <LatitudeDegrees>37.08630247972905635833740234375</LatitudeDegrees>
              <LongitudeDegrees>-3.38233035989105701446533203125</LongitudeDegrees>
            </Position>
            <AltitudeMeters>2659.800048828125</AltitudeMeters>
            <DistanceMeters>25715.433593077</DistanceMeters>
          </Trackpoint>
          <Trackpoint>
            <Time>2019-07-15T16:05:25.000Z</Time>
            <Position>
              <LatitudeDegrees>37.0863117836415767669677734375</LatitudeDegrees>
              <LongitudeDegrees>-3.3823301084339618682861328125</LongitudeDegrees>
            </Position>
            <AltitudeMeters>2659.199951171875</AltitudeMeters>
            <DistanceMeters>25716.465847416</DistanceMeters>
          </Trackpoint>
          <Trackpoint>
            <Time>2019-07-15T16:05:26.000Z</Time>
            <Position>
              <LatitudeDegrees>37.086321003735065460205078125</LatitudeDegrees>
              <LongitudeDegrees>-3.382333628833293914794921875</LongitudeDegrees>
            </Position>
            <AltitudeMeters>2658.800048828125</AltitudeMeters>
            <DistanceMeters>25717.540951962</DistanceMeters>
          </Trackpoint>
          <Trackpoint>
            <Time>2019-07-15T16:05:27.000Z</Time>
            <Position>
              <LatitudeDegrees>37.086330391466617584228515625</LatitudeDegrees>
              <LongitudeDegrees>-3.3823394961655139923095703125</LongitudeDegrees>
            </Position>
            <AltitudeMeters>2658.60009765625</AltitudeMeters>
            <DistanceMeters>25718.704786773</DistanceMeters>
          </Trackpoint>
          <Trackpoint>
            <Time>2019-07-15T16:05:28.000Z</Time>
            <Position>
              <LatitudeDegrees>37.08634036593139171600341796875</LatitudeDegrees>
              <LongitudeDegrees>-3.38234075345098972320556640625</LongitudeDegrees>
            </Position>
            <AltitudeMeters>2658.199951171875</AltitudeMeters>
            <DistanceMeters>25719.821097907</DistanceMeters>
          </Trackpoint>
          <Trackpoint>
            <Time>2019-07-15T16:05:43.000Z</Time>
            <Position>
              <LatitudeDegrees>37.08645788021385669708251953125</LatitudeDegrees>
              <LongitudeDegrees>-3.38241769932210445404052734375</LongitudeDegrees>
            </Position>
            <AltitudeMeters>2655.199951171875</AltitudeMeters>
            <DistanceMeters>25734.577495278</DistanceMeters>
          </Trackpoint>
          <Trackpoint>
            <Time>2019-07-15T16:06:00.000Z</Time>
            <Position>
              <LatitudeDegrees>37.08656944334506988525390625</LatitudeDegrees>
              <LongitudeDegrees>-3.3825094811618328094482421875</LongitudeDegrees>
            </Position>
            <AltitudeMeters>2652</AltitudeMeters>
            <DistanceMeters>25749.429656985</DistanceMeters>
          </Trackpoint>
          <Trackpoint>
            <Time>2019-07-15T16:06:27.000Z</Time>
            <Position>
              <LatitudeDegrees>37.08669827319681644439697265625</LatitudeDegrees>
              <LongitudeDegrees>-3.38258885778486728668212890625</LongitudeDegrees>
            </Position>
            <AltitudeMeters>2649</AltitudeMeters>
            <DistanceMeters>25765.407149313</DistanceMeters>
          </Trackpoint>
          <Trackpoint>
            <Time>2019-07-15T16:07:13.000Z</Time>
            <Position>
              <LatitudeDegrees>37.0868490636348724365234375</LatitudeDegrees>
              <LongitudeDegrees>-3.38270553387701511383056640625</LongitudeDegrees>
            </Position>
            <AltitudeMeters>2645.800048828125</AltitudeMeters>
            <DistanceMeters>25785.130401152</DistanceMeters>
          </Trackpoint>
          <Trackpoint>
            <Time>2019-07-15T16:07:44.000Z</Time>
            <Position>
              <LatitudeDegrees>37.08687655627727508544921875</LatitudeDegrees>
              <LongitudeDegrees>-3.38271928019821643829345703125</LongitudeDegrees>
            </Position>
            <AltitudeMeters>2645.39990234375</AltitudeMeters>
            <DistanceMeters>25788.424965143</DistanceMeters>
          </Trackpoint>
          <Trackpoint>
            <Time>2019-07-15T16:07:52.000Z</Time>
            <Position>
              <LatitudeDegrees>37.08690932951867580413818359375</LatitudeDegrees>
              <LongitudeDegrees>-3.38275331072509288787841796875</LongitudeDegrees>
            </Position>
            <AltitudeMeters>2644.800048828125</AltitudeMeters>
            <DistanceMeters>25793.161072182</DistanceMeters>
          </Trackpoint>
          <Trackpoint>
            <Time>2019-07-15T16:07:53.000Z</Time>
            <Position>
              <LatitudeDegrees>37.0869156159460544586181640625</LatitudeDegrees>
              <LongitudeDegrees>-3.38276035152375698089599609375</LongitudeDegrees>
            </Position>
            <AltitudeMeters>2644.199951171875</AltitudeMeters>
            <DistanceMeters>25794.101788659</DistanceMeters>
          </Trackpoint>
          <Trackpoint>
            <Time>2019-07-15T16:07:55.000Z</Time>
            <Position>
              <LatitudeDegrees>37.0869307033717632293701171875</LatitudeDegrees>
              <LongitudeDegrees>-3.3827639557421207427978515625</LongitudeDegrees>
            </Position>
            <AltitudeMeters>2643.39990234375</AltitudeMeters>
            <DistanceMeters>25795.806982084</DistanceMeters>
          </Trackpoint>
          <Trackpoint>
            <Time>2019-07-15T16:08:09.000Z</Time>
            <Position>
              <LatitudeDegrees>37.08707596175372600555419921875</LatitudeDegrees>
              <LongitudeDegrees>-3.3827948011457920074462890625</LongitudeDegrees>
            </Position>
            <AltitudeMeters>2641.199951171875</AltitudeMeters>
            <DistanceMeters>25812.204529346</DistanceMeters>
          </Trackpoint>
          <Trackpoint>
            <Time>2019-07-15T16:08:10.000Z</Time>
            <Position>
              <LatitudeDegrees>37.08708602003753185272216796875</LatitudeDegrees>
              <LongitudeDegrees>-3.38279387913644313812255859375</LongitudeDegrees>
            </Position>
            <AltitudeMeters>2641.199951171875</AltitudeMeters>
            <DistanceMeters>25813.328900593</DistanceMeters>
          </Trackpoint>
          <Trackpoint>
            <Time>2019-07-15T16:08:25.000Z</Time>
            <Position>
              <LatitudeDegrees>37.0872223936021327972412109375</LatitudeDegrees>
              <LongitudeDegrees>-3.382849283516407012939453125</LongitudeDegrees>
            </Position>
            <AltitudeMeters>2642</AltitudeMeters>
            <DistanceMeters>25829.284901823</DistanceMeters>
          </Trackpoint>
          <Trackpoint>
            <Time>2019-07-15T16:08:45.000Z</Time>
            <Position>
              <LatitudeDegrees>37.0874027721583843231201171875</LatitudeDegrees>
              <LongitudeDegrees>-3.3828913606703281402587890625</LongitudeDegrees>
            </Position>
            <AltitudeMeters>2642.60009765625</AltitudeMeters>
            <DistanceMeters>25849.70614053</DistanceMeters>
          </Trackpoint>
          <Trackpoint>
            <Time>2019-07-15T16:08:55.000Z</Time>
            <Position>
              <LatitudeDegrees>37.0875006727874279022216796875</LatitudeDegrees>
              <LongitudeDegrees>-3.38291935622692108154296875</LongitudeDegrees>
            </Position>
            <AltitudeMeters>2641.60009765625</AltitudeMeters>
            <DistanceMeters>25860.88218712</DistanceMeters>
          </Trackpoint>
          <Trackpoint>
            <Time>2019-07-15T16:08:59.000Z</Time>
            <Position>
              <LatitudeDegrees>37.08755222149193286895751953125</LatitudeDegrees>
              <LongitudeDegrees>-3.382923044264316558837890625</LongitudeDegrees>
            </Position>
            <AltitudeMeters>2641.60009765625</AltitudeMeters>
            <DistanceMeters>25866.629536042</DistanceMeters>
          </Trackpoint>
          <Trackpoint>
            <Time>2019-07-15T16:09:00.000Z</Time>
            <Position>
              <LatitudeDegrees>37.087561525404453277587890625</LatitudeDegrees>
              <LongitudeDegrees>-3.38292664848268032073974609375</LongitudeDegrees>
            </Position>
            <AltitudeMeters>2641.60009765625</AltitudeMeters>
            <DistanceMeters>25867.713007287</DistanceMeters>
          </Trackpoint>
          <Trackpoint>
            <Time>2019-07-15T16:09:01.000Z</Time>
            <Position>
              <LatitudeDegrees>37.0875727571547031402587890625</LatitudeDegrees>
              <LongitudeDegrees>-3.3829295821487903594970703125</LongitudeDegrees>
            </Position>
            <AltitudeMeters>2641.39990234375</AltitudeMeters>
            <DistanceMeters>25868.987924445</DistanceMeters>
          </Trackpoint>
          <Trackpoint>
            <Time>2019-07-15T16:09:02.000Z</Time>
            <Position>
              <LatitudeDegrees>37.08758507855236530303955078125</LatitudeDegrees>
              <LongitudeDegrees>-3.3829294145107269287109375</LongitudeDegrees>
            </Position>
            <AltitudeMeters>2641.39990234375</AltitudeMeters>
            <DistanceMeters>25870.35841921</DistanceMeters>
          </Trackpoint>
          <Trackpoint>
            <Time>2019-07-15T16:09:03.000Z</Time>
            <Position>
              <LatitudeDegrees>37.0875975675880908966064453125</LatitudeDegrees>
              <LongitudeDegrees>-3.38292782194912433624267578125</LongitudeDegrees>
            </Position>
            <AltitudeMeters>2641.199951171875</AltitudeMeters>
            <DistanceMeters>25871.755020982</DistanceMeters>
          </Trackpoint>
          <Trackpoint>
            <Time>2019-07-15T16:09:04.000Z</Time>
            <Position>
              <LatitudeDegrees>37.0876106433570384979248046875</LatitudeDegrees>
              <LongitudeDegrees>-3.38292446918785572052001953125</LongitudeDegrees>
            </Position>
            <AltitudeMeters>2641</AltitudeMeters>
            <DistanceMeters>25873.245456759</DistanceMeters>
          </Trackpoint>
          <Trackpoint>
            <Time>2019-07-15T16:09:05.000Z</Time>
            <Position>
              <LatitudeDegrees>37.0876223780214786529541015625</LatitudeDegrees>
              <LongitudeDegrees>-3.38292178697884082794189453125</LongitudeDegrees>
            </Position>
            <AltitudeMeters>2640.800048828125</AltitudeMeters>
            <DistanceMeters>25874.572432609</DistanceMeters>
          </Trackpoint>
          <Trackpoint>
            <Time>2019-07-15T16:09:06.000Z</Time>
            <Position>
              <LatitudeDegrees>37.0876322686672210693359375</LatitudeDegrees>
              <LongitudeDegrees>-3.38291826657950878143310546875</LongitudeDegrees>
            </Position>
            <AltitudeMeters>2640.39990234375</AltitudeMeters>
            <DistanceMeters>25875.716705778</DistanceMeters>
          </Trackpoint>
          <Trackpoint>
            <Time>2019-07-15T16:09:07.000Z</Time>
            <Position>
              <LatitudeDegrees>37.08764542825520038604736328125</LatitudeDegrees>
              <LongitudeDegrees>-3.382917679846286773681640625</LongitudeDegrees>
            </Position>
            <AltitudeMeters>2640.199951171875</AltitudeMeters>
            <DistanceMeters>25877.182706526</DistanceMeters>
          </Trackpoint>
          <Trackpoint>
            <Time>2019-07-15T16:09:14.000Z</Time>
            <Position>
              <LatitudeDegrees>37.08769571967422962188720703125</LatitudeDegrees>
              <LongitudeDegrees>-3.382922708988189697265625</LongitudeDegrees>
            </Position>
            <AltitudeMeters>2639.800048828125</AltitudeMeters>
            <DistanceMeters>25882.798134109</DistanceMeters>
          </Trackpoint>
          <Trackpoint>
            <Time>2019-07-15T16:09:15.000Z</Time>
            <Position>
              <LatitudeDegrees>37.08770326338708400726318359375</LatitudeDegrees>
              <LongitudeDegrees>-3.3829232119023799896240234375</LongitudeDegrees>
            </Position>
            <AltitudeMeters>2639.800048828125</AltitudeMeters>
            <DistanceMeters>25883.637387327</DistanceMeters>
          </Trackpoint>
          <Trackpoint>
            <Time>2019-07-15T16:09:16.000Z</Time>
            <Position>
              <LatitudeDegrees>37.08771466277539730072021484375</LatitudeDegrees>
              <LongitudeDegrees>-3.38292228989303112030029296875</LongitudeDegrees>
            </Position>
            <AltitudeMeters>2639.60009765625</AltitudeMeters>
            <DistanceMeters>25884.908758116</DistanceMeters>
          </Trackpoint>
          <Trackpoint>
            <Time>2019-07-15T16:09:17.000Z</Time>
            <Position>
              <LatitudeDegrees>37.08772639743983745574951171875</LatitudeDegrees>
              <LongitudeDegrees>-3.3829198591411113739013671875</LongitudeDegrees>
            </Position>
            <AltitudeMeters>2639.39990234375</AltitudeMeters>
            <DistanceMeters>25886.23232709</DistanceMeters>
          </Trackpoint>
          <Trackpoint>
            <Time>2019-07-15T16:09:18.000Z</Time>
            <Position>
              <LatitudeDegrees>37.08773695863783359527587890625</LatitudeDegrees>
              <LongitudeDegrees>-3.38291709311306476593017578125</LongitudeDegrees>
            </Position>
            <AltitudeMeters>2639.39990234375</AltitudeMeters>
            <DistanceMeters>25887.430568366</DistanceMeters>
          </Trackpoint>
          <Trackpoint>
            <Time>2019-07-15T16:09:19.000Z</Time>
            <Position>
              <LatitudeDegrees>37.08774785511195659637451171875</LatitudeDegrees>
              <LongitudeDegrees>-3.3829160034656524658203125</LongitudeDegrees>
            </Position>
            <AltitudeMeters>2639.39990234375</AltitudeMeters>
            <DistanceMeters>25888.647504082</DistanceMeters>
          </Trackpoint>
          <Trackpoint>
            <Time>2019-07-15T16:09:20.000Z</Time>
            <Position>
              <LatitudeDegrees>37.08775657229125499725341796875</LatitudeDegrees>
              <LongitudeDegrees>-3.38291742838919162750244140625</LongitudeDegrees>
            </Position>
            <AltitudeMeters>2639.39990234375</AltitudeMeters>
            <DistanceMeters>25889.625863986</DistanceMeters>
          </Trackpoint>
          <Trackpoint>
            <Time>2019-07-15T16:09:21.000Z</Time>
            <Position>
              <LatitudeDegrees>37.0877645350992679595947265625</LatitudeDegrees>
              <LongitudeDegrees>-3.38292296044528484344482421875</LongitudeDegrees>
            </Position>
            <AltitudeMeters>2639.39990234375</AltitudeMeters>
            <DistanceMeters>25890.636011816</DistanceMeters>
          </Trackpoint>
          <Trackpoint>
            <Time>2019-07-15T16:09:40.000Z</Time>
            <Position>
              <LatitudeDegrees>37.08794013597071170806884765625</LatitudeDegrees>
              <LongitudeDegrees>-3.382923714816570281982421875</LongitudeDegrees>
            </Position>
            <AltitudeMeters>2639</AltitudeMeters>
            <DistanceMeters>25910.180583792</DistanceMeters>
          </Trackpoint>
          <Trackpoint>
            <Time>2019-07-15T16:09:41.000Z</Time>
            <Position>
              <LatitudeDegrees>37.08794617094099521636962890625</LatitudeDegrees>
              <LongitudeDegrees>-3.38292849250137805938720703125</LongitudeDegrees>
            </Position>
            <AltitudeMeters>2638.60009765625</AltitudeMeters>
            <DistanceMeters>25910.975634326</DistanceMeters>
          </Trackpoint>
          <Trackpoint>
            <Time>2019-07-15T16:09:42.000Z</Time>
            <Position>
              <LatitudeDegrees>37.0879543013870716094970703125</LatitudeDegrees>
              <LongitudeDegrees>-3.3829322643578052520751953125</LongitudeDegrees>
            </Position>
            <AltitudeMeters>2638.60009765625</AltitudeMeters>
            <DistanceMeters>25911.944720468</DistanceMeters>
          </Trackpoint>
          <Trackpoint>
            <Time>2019-07-15T16:09:43.000Z</Time>
            <Position>
              <LatitudeDegrees>37.08796377293765544891357421875</LatitudeDegrees>
              <LongitudeDegrees>-3.3829347789287567138671875</LongitudeDegrees>
            </Position>
            <AltitudeMeters>2638.39990234375</AltitudeMeters>
            <DistanceMeters>25913.019825014</DistanceMeters>
          </Trackpoint>
          <Trackpoint>
            <Time>2019-07-15T16:09:44.000Z</Time>
            <Position>
              <LatitudeDegrees>37.08797349594533443450927734375</LatitudeDegrees>
              <LongitudeDegrees>-3.382939137518405914306640625</LongitudeDegrees>
            </Position>
            <AltitudeMeters>2638.199951171875</AltitudeMeters>
            <DistanceMeters>25914.168037172</DistanceMeters>
          </Trackpoint>
          <Trackpoint>
            <Time>2019-07-15T16:09:48.000Z</Time>
            <Position>
              <LatitudeDegrees>37.08800266496837139129638671875</LatitudeDegrees>
              <LongitudeDegrees>-3.3829535543918609619140625</LongitudeDegrees>
            </Position>
            <AltitudeMeters>2637</AltitudeMeters>
            <DistanceMeters>25917.656954346</DistanceMeters>
          </Trackpoint>
          <Trackpoint>
            <Time>2019-07-15T16:09:49.000Z</Time>
            <Position>
              <LatitudeDegrees>37.0880086161196231842041015625</LatitudeDegrees>
              <LongitudeDegrees>-3.38295766152441501617431640625</LongitudeDegrees>
            </Position>
            <AltitudeMeters>2637</AltitudeMeters>
            <DistanceMeters>25918.417168061</DistanceMeters>
          </Trackpoint>
          <Trackpoint>
            <Time>2019-07-15T16:09:58.000Z</Time>
            <Position>
              <LatitudeDegrees>37.08808380179107189178466796875</LatitudeDegrees>
              <LongitudeDegrees>-3.38299806229770183563232421875</LongitudeDegrees>
            </Position>
            <AltitudeMeters>2635.199951171875</AltitudeMeters>
            <DistanceMeters>25927.521897698</DistanceMeters>
          </Trackpoint>
          <Trackpoint>
            <Time>2019-07-15T16:10:10.000Z</Time>
            <Position>
              <LatitudeDegrees>37.0881960354745388031005859375</LatitudeDegrees>
              <LongitudeDegrees>-3.383034355938434600830078125</LongitudeDegrees>
            </Position>
            <AltitudeMeters>2634</AltitudeMeters>
            <DistanceMeters>25940.42315225</DistanceMeters>
          </Trackpoint>
          <Trackpoint>
            <Time>2019-07-15T16:10:11.000Z</Time>
            <Position>
              <LatitudeDegrees>37.0882094465196132659912109375</LatitudeDegrees>
              <LongitudeDegrees>-3.38304005563259124755859375</LongitudeDegrees>
            </Position>
            <AltitudeMeters>2634</AltitudeMeters>
            <DistanceMeters>25942.001854596</DistanceMeters>
          </Trackpoint>
          <Trackpoint>
            <Time>2019-07-15T16:10:12.000Z</Time>
            <Position>
              <LatitudeDegrees>37.088221348822116851806640625</LatitudeDegrees>
              <LongitudeDegrees>-3.3830439113080501556396484375</LongitudeDegrees>
            </Position>
            <AltitudeMeters>2634</AltitudeMeters>
            <DistanceMeters>25943.372349361</DistanceMeters>
          </Trackpoint>
          <Trackpoint>
            <Time>2019-07-15T16:10:13.000Z</Time>
            <Position>
              <LatitudeDegrees>37.08822914399206638336181640625</LatitudeDegrees>
              <LongitudeDegrees>-3.3830475993454456329345703125</LongitudeDegrees>
            </Position>
            <AltitudeMeters>2633.800048828125</AltitudeMeters>
            <DistanceMeters>25944.30341721</DistanceMeters>
          </Trackpoint>
          <Trackpoint>
            <Time>2019-07-15T16:10:14.000Z</Time>
            <Position>
              <LatitudeDegrees>37.08824154920876026153564453125</LatitudeDegrees>
              <LongitudeDegrees>-3.38304701261222362518310546875</LongitudeDegrees>
            </Position>
            <AltitudeMeters>2633.60009765625</AltitudeMeters>
            <DistanceMeters>25945.680485128</DistanceMeters>
          </Trackpoint>
          <Trackpoint>
            <Time>2019-07-15T16:10:15.000Z</Time>
            <Position>
              <LatitudeDegrees>37.08825026638805866241455078125</LatitudeDegrees>
              <LongitudeDegrees>-3.3830499462783336639404296875</LongitudeDegrees>
            </Position>
            <AltitudeMeters>2633.800048828125</AltitudeMeters>
            <DistanceMeters>25946.686153345</DistanceMeters>
          </Trackpoint>
          <Trackpoint>
            <Time>2019-07-15T16:10:16.000Z</Time>
            <Position>
              <LatitudeDegrees>37.08825831301510334014892578125</LatitudeDegrees>
              <LongitudeDegrees>-3.38305640034377574920654296875</LongitudeDegrees>
            </Position>
            <AltitudeMeters>2633.800048828125</AltitudeMeters>
            <DistanceMeters>25947.752825568</DistanceMeters>
          </Trackpoint>
          <Trackpoint>
            <Time>2019-07-15T16:10:35.000Z</Time>
            <Position>
              <LatitudeDegrees>37.08843760192394256591796875</LatitudeDegrees>
              <LongitudeDegrees>-3.38313166983425617218017578125</LongitudeDegrees>
            </Position>
            <AltitudeMeters>2632.199951171875</AltitudeMeters>
            <DistanceMeters>25968.79732768</DistanceMeters>
          </Trackpoint>
          <Trackpoint>
            <Time>2019-07-15T16:10:39.000Z</Time>
            <Position>
              <LatitudeDegrees>37.08847515285015106201171875</LatitudeDegrees>
              <LongitudeDegrees>-3.38314809836447238922119140625</LongitudeDegrees>
            </Position>
            <AltitudeMeters>2632.199951171875</AltitudeMeters>
            <DistanceMeters>25973.223981708</DistanceMeters>
          </Trackpoint>
          <Trackpoint>
            <Time>2019-07-15T16:10:40.000Z</Time>
            <Position>
              <LatitudeDegrees>37.08848454058170318603515625</LatitudeDegrees>
              <LongitudeDegrees>-3.3831495232880115509033203125</LongitudeDegrees>
            </Position>
            <AltitudeMeters>2632</AltitudeMeters>
            <DistanceMeters>25974.282154415</DistanceMeters>
          </Trackpoint>
          <Trackpoint>
            <Time>2019-07-15T16:10:59.000Z</Time>
            <Position>
              <LatitudeDegrees>37.0886610634624958038330078125</LatitudeDegrees>
              <LongitudeDegrees>-3.38320367038249969482421875</LongitudeDegrees>
            </Position>
            <AltitudeMeters>2632</AltitudeMeters>
            <DistanceMeters>25994.509232887</DistanceMeters>
          </Trackpoint>
          <Trackpoint>
            <Time>2019-07-15T16:11:19.000Z</Time>
            <Position>
              <LatitudeDegrees>37.0888431183993816375732421875</LatitudeDegrees>
              <LongitudeDegrees>-3.3832434006035327911376953125</LongitudeDegrees>
            </Position>
            <AltitudeMeters>2632.800048828125</AltitudeMeters>
            <DistanceMeters>26015.077193925</DistanceMeters>
          </Trackpoint>
          <Trackpoint>
            <Time>2019-07-15T16:11:30.000Z</Time>
            <Position>
              <LatitudeDegrees>37.08893657661974430084228515625</LatitudeDegrees>
              <LongitudeDegrees>-3.3833027444779872894287109375</LongitudeDegrees>
            </Position>
            <AltitudeMeters>2632.60009765625</AltitudeMeters>
            <DistanceMeters>26026.737633926</DistanceMeters>
          </Trackpoint>
          <Trackpoint>
            <Time>2019-07-15T16:11:39.000Z</Time>
            <Position>
              <LatitudeDegrees>37.08901771344244480133056640625</LatitudeDegrees>
              <LongitudeDegrees>-3.38336820714175701141357421875</LongitudeDegrees>
            </Position>
            <AltitudeMeters>2632</AltitudeMeters>
            <DistanceMeters>26037.476913992</DistanceMeters>
          </Trackpoint>
          <Trackpoint>
            <Time>2019-07-15T16:11:59.000Z</Time>
            <Position>
              <LatitudeDegrees>37.08918317221105098724365234375</LatitudeDegrees>
              <LongitudeDegrees>-3.38348873890936374664306640625</LongitudeDegrees>
            </Position>
            <AltitudeMeters>2630.199951171875</AltitudeMeters>
            <DistanceMeters>26058.77646893</DistanceMeters>
          </Trackpoint>
          <Trackpoint>
            <Time>2019-07-15T16:12:02.000Z</Time>
            <Position>
              <LatitudeDegrees>37.089191973209381103515625</LatitudeDegrees>
              <LongitudeDegrees>-3.383480273187160491943359375</LongitudeDegrees>
            </Position>
            <AltitudeMeters>2632</AltitudeMeters>
            <DistanceMeters>26060.008155921</DistanceMeters>
          </Trackpoint>
          <Trackpoint>
            <Time>2019-07-15T16:12:42.000Z</Time>
            <Position>
              <LatitudeDegrees>37.08935081027448177337646484375</LatitudeDegrees>
              <LongitudeDegrees>-3.383510448038578033447265625</LongitudeDegrees>
            </Position>
            <AltitudeMeters>2630.199951171875</AltitudeMeters>
            <DistanceMeters>26077.888840655</DistanceMeters>
          </Trackpoint>
          <Trackpoint>
            <Time>2019-07-15T16:14:34.000Z</Time>
            <Position>
              <LatitudeDegrees>37.0894808135926723480224609375</LatitudeDegrees>
              <LongitudeDegrees>-3.38353936560451984405517578125</LongitudeDegrees>
            </Position>
            <AltitudeMeters>2630.199951171875</AltitudeMeters>
            <DistanceMeters>26092.58453078</DistanceMeters>
          </Trackpoint>
          <Trackpoint>
            <Time>2019-07-15T16:14:35.000Z</Time>
            <Position>
              <LatitudeDegrees>37.0894856750965118408203125</LatitudeDegrees>
              <LongitudeDegrees>-3.383539617061614990234375</LongitudeDegrees>
            </Position>
            <AltitudeMeters>2630.199951171875</AltitudeMeters>
            <DistanceMeters>26093.122083053</DistanceMeters>
          </Trackpoint>
          <Trackpoint>
            <Time>2019-07-15T16:14:50.000Z</Time>
            <Position>
              <LatitudeDegrees>37.08957309834659099578857421875</LatitudeDegrees>
              <LongitudeDegrees>-3.38360105641186237335205078125</LongitudeDegrees>
            </Position>
            <AltitudeMeters>2627</AltitudeMeters>
            <DistanceMeters>26104.277102255</DistanceMeters>
          </Trackpoint>
          <Trackpoint>
            <Time>2019-07-15T16:14:52.000Z</Time>
            <Position>
              <LatitudeDegrees>37.0895887725055217742919921875</LatitudeDegrees>
              <LongitudeDegrees>-3.383613042533397674560546875</LongitudeDegrees>
            </Position>
            <AltitudeMeters>2626.800048828125</AltitudeMeters>
            <DistanceMeters>26106.319624058</DistanceMeters>
          </Trackpoint>
          <Trackpoint>
            <Time>2019-07-15T16:14:53.000Z</Time>
            <Position>
              <LatitudeDegrees>37.08960008807480335235595703125</LatitudeDegrees>
              <LongitudeDegrees>-3.38361329399049282073974609375</LongitudeDegrees>
            </Position>
            <AltitudeMeters>2626.60009765625</AltitudeMeters>
            <DistanceMeters>26107.580295884</DistanceMeters>
          </Trackpoint>
          <Trackpoint>
            <Time>2019-07-15T16:14:54.000Z</Time>
            <Position>
              <LatitudeDegrees>37.089610062539577484130859375</LatitudeDegrees>
              <LongitudeDegrees>-3.38361279107630252838134765625</LongitudeDegrees>
            </Position>
            <AltitudeMeters>2626</AltitudeMeters>
            <DistanceMeters>26108.688488285</DistanceMeters>
          </Trackpoint>
          <Trackpoint>
            <Time>2019-07-15T16:14:55.000Z</Time>
            <Position>
              <LatitudeDegrees>37.08962154574692249298095703125</LatitudeDegrees>
              <LongitudeDegrees>-3.3836081810295581817626953125</LongitudeDegrees>
            </Position>
            <AltitudeMeters>2625.800048828125</AltitudeMeters>
            <DistanceMeters>26110.029005056</DistanceMeters>
          </Trackpoint>
          <Trackpoint>
            <Time>2019-07-15T16:14:56.000Z</Time>
            <Position>
              <LatitudeDegrees>37.0896303467452526092529296875</LatitudeDegrees>
              <LongitudeDegrees>-3.38360675610601902008056640625</LongitudeDegrees>
            </Position>
            <AltitudeMeters>2625.800048828125</AltitudeMeters>
            <DistanceMeters>26111.01655164</DistanceMeters>
          </Trackpoint>
          <Trackpoint>
            <Time>2019-07-15T16:15:06.000Z</Time>
            <Position>
              <LatitudeDegrees>37.089720033109188079833984375</LatitudeDegrees>
              <LongitudeDegrees>-3.38358093984425067901611328125</LongitudeDegrees>
            </Position>
            <AltitudeMeters>2624</AltitudeMeters>
            <DistanceMeters>26121.258738811</DistanceMeters>
          </Trackpoint>
          <Trackpoint>
            <Time>2019-07-15T16:15:07.000Z</Time>
            <Position>
              <LatitudeDegrees>37.089731432497501373291015625</LatitudeDegrees>
              <LongitudeDegrees>-3.3835780061781406402587890625</LongitudeDegrees>
            </Position>
            <AltitudeMeters>2623.39990234375</AltitudeMeters>
            <DistanceMeters>26122.554730408</DistanceMeters>
          </Trackpoint>
          <Trackpoint>
            <Time>2019-07-15T16:15:24.000Z</Time>
            <Position>
              <LatitudeDegrees>37.0898828096687793731689453125</LatitudeDegrees>
              <LongitudeDegrees>-3.38355562649667263031005859375</LongitudeDegrees>
            </Position>
            <AltitudeMeters>2620.39990234375</AltitudeMeters>
            <DistanceMeters>26139.51986013</DistanceMeters>
          </Trackpoint>
          <Trackpoint>
            <Time>2019-07-15T16:15:43.000Z</Time>
            <Position>
              <LatitudeDegrees>37.09003150463104248046875</LatitudeDegrees>
              <LongitudeDegrees>-3.3835726417601108551025390625</LongitudeDegrees>
            </Position>
            <AltitudeMeters>2617.199951171875</AltitudeMeters>
            <DistanceMeters>26156.13894308</DistanceMeters>
          </Trackpoint>
          <Trackpoint>
            <Time>2019-07-15T16:16:00.000Z</Time>
            <Position>
              <LatitudeDegrees>37.0901701413094997406005859375</LatitudeDegrees>
              <LongitudeDegrees>-3.38355713523924350738525390625</LongitudeDegrees>
            </Position>
            <AltitudeMeters>2614</AltitudeMeters>
            <DistanceMeters>26171.630920738</DistanceMeters>
          </Trackpoint>
          <Trackpoint>
            <Time>2019-07-15T16:16:03.000Z</Time>
            <Position>
              <LatitudeDegrees>37.0901875756680965423583984375</LatitudeDegrees>
              <LongitudeDegrees>-3.3835588954389095306396484375</LongitudeDegrees>
            </Position>
            <AltitudeMeters>2614.39990234375</AltitudeMeters>
            <DistanceMeters>26173.578388865</DistanceMeters>
          </Trackpoint>
          <Trackpoint>
            <Time>2019-07-15T16:16:09.000Z</Time>
            <Position>
              <LatitudeDegrees>37.090226300060749053955078125</LatitudeDegrees>
              <LongitudeDegrees>-3.38357741944491863250732421875</LongitudeDegrees>
            </Position>
            <AltitudeMeters>2613.60009765625</AltitudeMeters>
            <DistanceMeters>26178.1928141</DistanceMeters>
          </Trackpoint>
          <Trackpoint>
            <Time>2019-07-15T16:16:10.000Z</Time>
            <Position>
              <LatitudeDegrees>37.09023593924939632415771484375</LatitudeDegrees>
              <LongitudeDegrees>-3.383578173816204071044921875</LongitudeDegrees>
            </Position>
            <AltitudeMeters>2613.800048828125</AltitudeMeters>
            <DistanceMeters>26179.272110103</DistanceMeters>
          </Trackpoint>
          <Trackpoint>
            <Time>2019-07-15T16:16:11.000Z</Time>
            <Position>
              <LatitudeDegrees>37.0902442373335361480712890625</LatitudeDegrees>
              <LongitudeDegrees>-3.38358077220618724822998046875</LongitudeDegrees>
            </Position>
            <AltitudeMeters>2613.800048828125</AltitudeMeters>
            <DistanceMeters>26180.222377247</DistanceMeters>
          </Trackpoint>
          <Trackpoint>
            <Time>2019-07-15T16:16:17.000Z</Time>
            <Position>
              <LatitudeDegrees>37.09029645659029483795166015625</LatitudeDegrees>
              <LongitudeDegrees>-3.38359988294541835784912109375</LongitudeDegrees>
            </Position>
            <AltitudeMeters>2613.800048828125</AltitudeMeters>
            <DistanceMeters>26186.277301719</DistanceMeters>
          </Trackpoint>
          <Trackpoint>
            <Time>2019-07-15T16:17:04.000Z</Time>
            <Position>
              <LatitudeDegrees>37.09036133252084255218505859375</LatitudeDegrees>
              <LongitudeDegrees>-3.38366056792438030242919921875</LongitudeDegrees>
            </Position>
            <AltitudeMeters>2612.39990234375</AltitudeMeters>
            <DistanceMeters>26195.286816531</DistanceMeters>
          </Trackpoint>
          <Trackpoint>
            <Time>2019-07-15T16:17:05.000Z</Time>
            <Position>
              <LatitudeDegrees>37.0903646014630794525146484375</LatitudeDegrees>
              <LongitudeDegrees>-3.38367196731269359588623046875</LongitudeDegrees>
            </Position>
            <AltitudeMeters>2612.199951171875</AltitudeMeters>
            <DistanceMeters>26196.357713215</DistanceMeters>
          </Trackpoint>
          <Trackpoint>
            <Time>2019-07-15T16:17:06.000Z</Time>
            <Position>
              <LatitudeDegrees>37.09037088789045810699462890625</LatitudeDegrees>
              <LongitudeDegrees>-3.3836806006729602813720703125</LongitudeDegrees>
            </Position>
            <AltitudeMeters>2612</AltitudeMeters>
            <DistanceMeters>26197.389967554</DistanceMeters>
          </Trackpoint>
          <Trackpoint>
            <Time>2019-07-15T16:17:07.000Z</Time>
            <Position>
              <LatitudeDegrees>37.09037843160331249237060546875</LatitudeDegrees>
              <LongitudeDegrees>-3.38368621654808521270751953125</LongitudeDegrees>
            </Position>
            <AltitudeMeters>2611.39990234375</AltitudeMeters>
            <DistanceMeters>26198.363701618</DistanceMeters>
          </Trackpoint>
          <Trackpoint>
            <Time>2019-07-15T16:17:08.000Z</Time>
            <Position>
              <LatitudeDegrees>37.090385220944881439208984375</LatitudeDegrees>
              <LongitudeDegrees>-3.3836913295090198516845703125</LongitudeDegrees>
            </Position>
            <AltitudeMeters>2611</AltitudeMeters>
            <DistanceMeters>26199.244943114</DistanceMeters>
          </Trackpoint>
          <Trackpoint>
            <Time>2019-07-15T16:17:26.000Z</Time>
            <Position>
              <LatitudeDegrees>37.090484797954559326171875</LatitudeDegrees>
              <LongitudeDegrees>-3.38375930674374103546142578125</LongitudeDegrees>
            </Position>
            <AltitudeMeters>2608</AltitudeMeters>
            <DistanceMeters>26211.864548027</DistanceMeters>
          </Trackpoint>
          <Trackpoint>
            <Time>2019-07-15T16:17:51.000Z</Time>
            <Position>
              <LatitudeDegrees>37.09061865694820880889892578125</LatitudeDegrees>
              <LongitudeDegrees>-3.38382418267428874969482421875</LongitudeDegrees>
            </Position>
            <AltitudeMeters>2605.39990234375</AltitudeMeters>
            <DistanceMeters>26227.837518316</DistanceMeters>
          </Trackpoint>
          <Trackpoint>
            <Time>2019-07-15T16:17:57.000Z</Time>
            <Position>
              <LatitudeDegrees>37.0906455628573894500732421875</LatitudeDegrees>
              <LongitudeDegrees>-3.383859805762767791748046875</LongitudeDegrees>
            </Position>
            <AltitudeMeters>2604.800048828125</AltitudeMeters>
            <DistanceMeters>26232.194262592</DistanceMeters>
          </Trackpoint>
          <Trackpoint>
            <Time>2019-07-15T16:18:03.000Z</Time>
            <Position>
              <LatitudeDegrees>37.09067858755588531494140625</LatitudeDegrees>
              <LongitudeDegrees>-3.38389425538480281829833984375</LongitudeDegrees>
            </Position>
            <AltitudeMeters>2604.199951171875</AltitudeMeters>
            <DistanceMeters>26236.975910169</DistanceMeters>
          </Trackpoint>
          <Trackpoint>
            <Time>2019-07-15T16:18:25.000Z</Time>
            <Position>
              <LatitudeDegrees>37.090831138193607330322265625</LatitudeDegrees>
              <LongitudeDegrees>-3.38404932059347629547119140625</LongitudeDegrees>
            </Position>
            <AltitudeMeters>2601.39990234375</AltitudeMeters>
            <DistanceMeters>26258.834946401</DistanceMeters>
          </Trackpoint>
          <Trackpoint>
            <Time>2019-07-15T16:18:32.000Z</Time>
            <Position>
              <LatitudeDegrees>37.09088386036455631256103515625</LatitudeDegrees>
              <LongitudeDegrees>-3.38409818708896636962890625</LongitudeDegrees>
            </Position>
            <AltitudeMeters>2600.800048828125</AltitudeMeters>
            <DistanceMeters>26266.132849583</DistanceMeters>
          </Trackpoint>
          <Trackpoint>
            <Time>2019-07-15T16:18:53.000Z</Time>
            <Position>
              <LatitudeDegrees>37.0910492353141307830810546875</LatitudeDegrees>
              <LongitudeDegrees>-3.38424277491867542266845703125</LongitudeDegrees>
            </Position>
            <AltitudeMeters>2598.800048828125</AltitudeMeters>
            <DistanceMeters>26288.573645094</DistanceMeters>
          </Trackpoint>
          <Trackpoint>
            <Time>2019-07-15T16:19:33.000Z</Time>
            <Position>
              <LatitudeDegrees>37.09119767881929874420166015625</LatitudeDegrees>
              <LongitudeDegrees>-3.3843095786869525909423828125</LongitudeDegrees>
            </Position>
            <AltitudeMeters>2598.199951171875</AltitudeMeters>
            <DistanceMeters>26306.127628362</DistanceMeters>
          </Trackpoint>
          <Trackpoint>
            <Time>2019-07-15T16:19:49.000Z</Time>
            <Position>
              <LatitudeDegrees>37.0912825874984264373779296875</LatitudeDegrees>
              <LongitudeDegrees>-3.3844118379056453704833984375</LongitudeDegrees>
            </Position>
            <AltitudeMeters>2595</AltitudeMeters>
            <DistanceMeters>26319.232360095</DistanceMeters>
          </Trackpoint>
          <Trackpoint>
            <Time>2019-07-15T16:19:52.000Z</Time>
            <Position>
              <LatitudeDegrees>37.09129289723932743072509765625</LatitudeDegrees>
              <LongitudeDegrees>-3.384429775178432464599609375</LongitudeDegrees>
            </Position>
            <AltitudeMeters>2593.60009765625</AltitudeMeters>
            <DistanceMeters>26321.195990061</DistanceMeters>
          </Trackpoint>
          <Trackpoint>
            <Time>2019-07-15T16:19:58.000Z</Time>
            <Position>
              <LatitudeDegrees>37.09132491610944271087646484375</LatitudeDegrees>
              <LongitudeDegrees>-3.38448719121515750885009765625</LongitudeDegrees>
            </Position>
            <AltitudeMeters>2594.800048828125</AltitudeMeters>
            <DistanceMeters>26327.416430364</DistanceMeters>
          </Trackpoint>
          <Trackpoint>
            <Time>2019-07-15T16:20:06.000Z</Time>
            <Position>
              <LatitudeDegrees>37.0913764648139476776123046875</LatitudeDegrees>
              <LongitudeDegrees>-3.384537063539028167724609375</LongitudeDegrees>
            </Position>
            <AltitudeMeters>2592.60009765625</AltitudeMeters>
            <DistanceMeters>26334.66342454</DistanceMeters>
          </Trackpoint>
          <Trackpoint>
            <Time>2019-07-15T16:20:25.000Z</Time>
            <Position>
              <LatitudeDegrees>37.0915112458169460296630859375</LatitudeDegrees>
              <LongitudeDegrees>-3.384577967226505279541015625</LongitudeDegrees>
            </Position>
            <AltitudeMeters>2589.60009765625</AltitudeMeters>
            <DistanceMeters>26350.097588483</DistanceMeters>
          </Trackpoint>
          <Trackpoint>
            <Time>2019-07-15T16:20:43.000Z</Time>
            <Position>
              <LatitudeDegrees>37.0916701667010784149169921875</LatitudeDegrees>
              <LongitudeDegrees>-3.3846381492912769317626953125</LongitudeDegrees>
            </Position>
            <AltitudeMeters>2586.199951171875</AltitudeMeters>
            <DistanceMeters>26368.57509265</DistanceMeters>
          </Trackpoint>
          <Trackpoint>
            <Time>2019-07-15T16:21:02.000Z</Time>
            <Position>
              <LatitudeDegrees>37.09178742952644824981689453125</LatitudeDegrees>
              <LongitudeDegrees>-3.38473278097808361053466796875</LongitudeDegrees>
            </Position>
            <AltitudeMeters>2583</AltitudeMeters>
            <DistanceMeters>26384.097059974</DistanceMeters>
          </Trackpoint>
          <Trackpoint>
            <Time>2019-07-15T16:21:25.000Z</Time>
            <Position>
              <LatitudeDegrees>37.09196344949305057525634765625</LatitudeDegrees>
              <LongitudeDegrees>-3.3848265744745731353759765625</LongitudeDegrees>
            </Position>
            <AltitudeMeters>2579.60009765625</AltitudeMeters>
            <DistanceMeters>26405.384952926</DistanceMeters>
          </Trackpoint>
          <Trackpoint>
            <Time>2019-07-15T16:21:47.000Z</Time>
            <Position>
              <LatitudeDegrees>37.0920966379344463348388671875</LatitudeDegrees>
              <LongitudeDegrees>-3.3849191106855869293212890625</LongitudeDegrees>
            </Position>
            <AltitudeMeters>2576.39990234375</AltitudeMeters>
            <DistanceMeters>26422.333307763</DistanceMeters>
          </Trackpoint>
          <Trackpoint>
            <Time>2019-07-15T16:22:04.000Z</Time>
            <Position>
              <LatitudeDegrees>37.09219311363995075225830078125</LatitudeDegrees>
              <LongitudeDegrees>-3.38499194942414760589599609375</LongitudeDegrees>
            </Position>
            <AltitudeMeters>2573.39990234375</AltitudeMeters>
            <DistanceMeters>26434.868192291</DistanceMeters>
          </Trackpoint>
          <Trackpoint>
            <Time>2019-07-15T16:22:25.000Z</Time>
            <Position>
              <LatitudeDegrees>37.09232185967266559600830078125</LatitudeDegrees>
              <LongitudeDegrees>-3.385068811476230621337890625</LongitudeDegrees>
            </Position>
            <AltitudeMeters>2570.60009765625</AltitudeMeters>
            <DistanceMeters>26450.739929517</DistanceMeters>
          </Trackpoint>
          <Trackpoint>
            <Time>2019-07-15T16:22:50.000Z</Time>
            <Position>
              <LatitudeDegrees>37.09247767925262451171875</LatitudeDegrees>
              <LongitudeDegrees>-3.38515497744083404541015625</LongitudeDegrees>
            </Position>
            <AltitudeMeters>2567.60009765625</AltitudeMeters>
            <DistanceMeters>26469.695317714</DistanceMeters>
          </Trackpoint>
          <Trackpoint>
            <Time>2019-07-15T16:23:12.000Z</Time>
            <Position>
              <LatitudeDegrees>37.09257465787231922149658203125</LatitudeDegrees>
              <LongitudeDegrees>-3.38528372347354888916015625</LongitudeDegrees>
            </Position>
            <AltitudeMeters>2564.199951171875</AltitudeMeters>
            <DistanceMeters>26485.416711493</DistanceMeters>
          </Trackpoint>
          <Trackpoint>
            <Time>2019-07-15T16:23:16.000Z</Time>
            <Position>
              <LatitudeDegrees>37.09259829483926296234130859375</LatitudeDegrees>
              <LongitudeDegrees>-3.385307528078556060791015625</LongitudeDegrees>
            </Position>
            <AltitudeMeters>2563</AltitudeMeters>
            <DistanceMeters>26488.789825235</DistanceMeters>
          </Trackpoint>
          <Trackpoint>
            <Time>2019-07-15T16:23:26.000Z</Time>
            <Position>
              <LatitudeDegrees>37.0926759950816631317138671875</LatitudeDegrees>
              <LongitudeDegrees>-3.38537282310426235198974609375</LongitudeDegrees>
            </Position>
            <AltitudeMeters>2562.60009765625</AltitudeMeters>
            <DistanceMeters>26499.201215038</DistanceMeters>
          </Trackpoint>
          <Trackpoint>
            <Time>2019-07-15T16:23:27.000Z</Time>
            <Position>
              <LatitudeDegrees>37.0926827006042003631591796875</LatitudeDegrees>
              <LongitudeDegrees>-3.38538086973130702972412109375</LongitudeDegrees>
            </Position>
            <AltitudeMeters>2562.60009765625</AltitudeMeters>
            <DistanceMeters>26500.233469377</DistanceMeters>
          </Trackpoint>
          <Trackpoint>
            <Time>2019-07-15T16:23:32.000Z</Time>
            <Position>
              <LatitudeDegrees>37.09272108972072601318359375</LatitudeDegrees>
              <LongitudeDegrees>-3.38540635071694850921630859375</LongitudeDegrees>
            </Position>
            <AltitudeMeters>2562</AltitudeMeters>
            <DistanceMeters>26505.069572973</DistanceMeters>
          </Trackpoint>
          <Trackpoint>
            <Time>2019-07-15T16:23:51.000Z</Time>
            <Position>
              <LatitudeDegrees>37.09280557930469512939453125</LatitudeDegrees>
              <LongitudeDegrees>-3.3854453265666961669921875</LongitudeDegrees>
            </Position>
            <AltitudeMeters>2560.39990234375</AltitudeMeters>
            <DistanceMeters>26515.089823468</DistanceMeters>
          </Trackpoint>
          <Trackpoint>
            <Time>2019-07-15T16:24:06.000Z</Time>
            <Position>
              <LatitudeDegrees>37.0928610675036907196044921875</LatitudeDegrees>
              <LongitudeDegrees>-3.3855464123189449310302734375</LongitudeDegrees>
            </Position>
            <AltitudeMeters>2557.800048828125</AltitudeMeters>
            <DistanceMeters>26525.983963852</DistanceMeters>
          </Trackpoint>
          <Trackpoint>
            <Time>2019-07-15T16:24:30.000Z</Time>
            <Position>
              <LatitudeDegrees>37.09296525456011295318603515625</LatitudeDegrees>
              <LongitudeDegrees>-3.3856880664825439453125</LongitudeDegrees>
            </Position>
            <AltitudeMeters>2554.800048828125</AltitudeMeters>
            <DistanceMeters>26543.09062008</DistanceMeters>
          </Trackpoint>
          <Trackpoint>
            <Time>2019-07-15T16:24:49.000Z</Time>
            <Position>
              <LatitudeDegrees>37.0930664241313934326171875</LatitudeDegrees>
              <LongitudeDegrees>-3.38580817915499210357666015625</LongitudeDegrees>
            </Position>
            <AltitudeMeters>2551.60009765625</AltitudeMeters>
            <DistanceMeters>26558.598909993</DistanceMeters>
          </Trackpoint>
          <Trackpoint>
            <Time>2019-07-15T16:25:13.000Z</Time>
            <Position>
              <LatitudeDegrees>37.09323582239449024200439453125</LatitudeDegrees>
              <LongitudeDegrees>-3.38590842671692371368408203125</LongitudeDegrees>
            </Position>
            <AltitudeMeters>2548.60009765625</AltitudeMeters>
            <DistanceMeters>26579.448342837</DistanceMeters>
          </Trackpoint>
          <Trackpoint>
            <Time>2019-07-15T16:25:14.000Z</Time>
            <Position>
              <LatitudeDegrees>37.09324085153639316558837890625</LatitudeDegrees>
              <LongitudeDegrees>-3.38591664098203182220458984375</LongitudeDegrees>
            </Position>
            <AltitudeMeters>2548.39990234375</AltitudeMeters>
            <DistanceMeters>26580.359807062</DistanceMeters>
          </Trackpoint>
          <Trackpoint>
            <Time>2019-07-15T16:25:15.000Z</Time>
            <Position>
              <LatitudeDegrees>37.09324571304023265838623046875</LatitudeDegrees>
              <LongitudeDegrees>-3.3859249390661716461181640625</LongitudeDegrees>
            </Position>
            <AltitudeMeters>2548.199951171875</AltitudeMeters>
            <DistanceMeters>26581.271271286</DistanceMeters>
          </Trackpoint>
          <Trackpoint>
            <Time>2019-07-15T16:25:17.000Z</Time>
            <Position>
              <LatitudeDegrees>37.09325929172337055206298828125</LatitudeDegrees>
              <LongitudeDegrees>-3.385934494435787200927734375</LongitudeDegrees>
            </Position>
            <AltitudeMeters>2547.60009765625</AltitudeMeters>
            <DistanceMeters>26583.002740425</DistanceMeters>
          </Trackpoint>
          <Trackpoint>
            <Time>2019-07-15T16:25:18.000Z</Time>
            <Position>
              <LatitudeDegrees>37.09326700307428836822509765625</LatitudeDegrees>
              <LongitudeDegrees>-3.38594044558703899383544921875</LongitudeDegrees>
            </Position>
            <AltitudeMeters>2547.199951171875</AltitudeMeters>
            <DistanceMeters>26584.008408642</DistanceMeters>
          </Trackpoint>
          <Trackpoint>
            <Time>2019-07-15T16:25:19.000Z</Time>
            <Position>
              <LatitudeDegrees>37.0932727865874767303466796875</LatitudeDegrees>
              <LongitudeDegrees>-3.38594916276633739471435546875</LongitudeDegrees>
            </Position>
            <AltitudeMeters>2547</AltitudeMeters>
            <DistanceMeters>26585.014076859</DistanceMeters>
          </Trackpoint>
          <Trackpoint>
            <Time>2019-07-15T16:25:27.000Z</Time>
            <Position>
              <LatitudeDegrees>37.09333741106092929840087890625</LatitudeDegrees>
              <LongitudeDegrees>-3.3859990350902080535888671875</LongitudeDegrees>
            </Position>
            <AltitudeMeters>2545.800048828125</AltitudeMeters>
            <DistanceMeters>26593.46077053</DistanceMeters>
          </Trackpoint>
          <Trackpoint>
            <Time>2019-07-15T16:25:28.000Z</Time>
            <Position>
              <LatitudeDegrees>37.0933455415070056915283203125</LatitudeDegrees>
              <LongitudeDegrees>-3.38600347749888896942138671875</LongitudeDegrees>
            </Position>
            <AltitudeMeters>2545.60009765625</AltitudeMeters>
            <DistanceMeters>26594.448317114</DistanceMeters>
          </Trackpoint>
          <Trackpoint>
            <Time>2019-07-15T16:25:29.000Z</Time>
            <Position>
              <LatitudeDegrees>37.09335467778146266937255859375</LatitudeDegrees>
              <LongitudeDegrees>-3.3860094286501407623291015625</LongitudeDegrees>
            </Position>
            <AltitudeMeters>2545.39990234375</AltitudeMeters>
            <DistanceMeters>26595.596529273</DistanceMeters>
          </Trackpoint>
          <Trackpoint>
            <Time>2019-07-15T16:25:30.000Z</Time>
            <Position>
              <LatitudeDegrees>37.09336339496076107025146484375</LatitudeDegrees>
              <LongitudeDegrees>-3.386016301810741424560546875</LongitudeDegrees>
            </Position>
            <AltitudeMeters>2545.39990234375</AltitudeMeters>
            <DistanceMeters>26596.736849845</DistanceMeters>
          </Trackpoint>
          <Trackpoint>
            <Time>2019-07-15T16:25:31.000Z</Time>
            <Position>
              <LatitudeDegrees>37.093369849026203155517578125</LatitudeDegrees>
              <LongitudeDegrees>-3.38602560572326183319091796875</LongitudeDegrees>
            </Position>
            <AltitudeMeters>2545.199951171875</AltitudeMeters>
            <DistanceMeters>26597.828623673</DistanceMeters>
          </Trackpoint>
          <Trackpoint>
            <Time>2019-07-15T16:25:32.000Z</Time>
            <Position>
              <LatitudeDegrees>37.0933763869106769561767578125</LatitudeDegrees>
              <LongitudeDegrees>-3.386034406721591949462890625</LongitudeDegrees>
            </Position>
            <AltitudeMeters>2545</AltitudeMeters>
            <DistanceMeters>26598.895295896</DistanceMeters>
          </Trackpoint>
          <Trackpoint>
            <Time>2019-07-15T16:25:55.000Z</Time>
            <Position>
              <LatitudeDegrees>37.09354394115507602691650390625</LatitudeDegrees>
              <LongitudeDegrees>-3.38615653105080127716064453125</LongitudeDegrees>
            </Position>
            <AltitudeMeters>2542</AltitudeMeters>
            <DistanceMeters>26620.467197282</DistanceMeters>
          </Trackpoint>
          <Trackpoint>
            <Time>2019-07-15T16:26:16.000Z</Time>
            <Position>
              <LatitudeDegrees>37.09370411932468414306640625</LatitudeDegrees>
              <LongitudeDegrees>-3.386307992041110992431640625</LongitudeDegrees>
            </Position>
            <AltitudeMeters>2539.800048828125</AltitudeMeters>
            <DistanceMeters>26642.797868597</DistanceMeters>
          </Trackpoint>
          <Trackpoint>
            <Time>2019-07-15T16:26:28.000Z</Time>
            <Position>
              <LatitudeDegrees>37.093796990811824798583984375</LatitudeDegrees>
              <LongitudeDegrees>-3.38641293346881866455078125</LongitudeDegrees>
            </Position>
            <AltitudeMeters>2539.800048828125</AltitudeMeters>
            <DistanceMeters>26656.713362094</DistanceMeters>
          </Trackpoint>
          <Trackpoint>
            <Time>2019-07-15T16:26:47.000Z</Time>
            <Position>
              <LatitudeDegrees>37.09384451620280742645263671875</LatitudeDegrees>
              <LongitudeDegrees>-3.386664055287837982177734375</LongitudeDegrees>
            </Position>
            <AltitudeMeters>2538.800048828125</AltitudeMeters>
            <DistanceMeters>26679.626626255</DistanceMeters>
          </Trackpoint>
          <Trackpoint>
            <Time>2019-07-15T16:27:05.000Z</Time>
            <Position>
              <LatitudeDegrees>37.0939440093934535980224609375</LatitudeDegrees>
              <LongitudeDegrees>-3.386874608695507049560546875</LongitudeDegrees>
            </Position>
            <AltitudeMeters>2537</AltitudeMeters>
            <DistanceMeters>26701.35348236</DistanceMeters>
          </Trackpoint>
          <Trackpoint>
            <Time>2019-07-15T16:27:12.000Z</Time>
            <Position>
              <LatitudeDegrees>37.094012908637523651123046875</LatitudeDegrees>
              <LongitudeDegrees>-3.38691744022071361541748046875</LongitudeDegrees>
            </Position>
            <AltitudeMeters>2536.39990234375</AltitudeMeters>
            <DistanceMeters>26709.913274429</DistanceMeters>
          </Trackpoint>
        </Track>
      </Lap>
    </Activity>
  </Activities>
</TrainingCenterDatabase>
